<?xml version="1.0" encoding="UTF-8" standalone="no" ?>
<gpx xmlns="http://www.topografix.com/GPX/1/1" xmlns:xsi="http://www.w3.org/2001/XMLSchema-instance" xsi:schemaLocation="http://www.topografix.com/GPX/1/1 http://www.topografix.com/GPX/1/1/gpx.xsd" version="1.1" creator="VisuGPX - https://www.visugpx.com">
  <metadata>
    <name>Dampierre sur botonne</name>
  </metadata>
  <trk>
    <name><![CDATA[2013-03-10 - Dampierre sur botonne]]></name>
    <extensions>
      <line xmlns="http://www.topografix.com/GPX/gpx_style/0/2">
        <width>3</width>
      </line>
    </extensions>
    <trkseg>
      <trkpt lat="46.06531" lon="-0.41408">
        <ele>47</ele>
        <time>2013-03-10T08:16:38.000Z</time>
      </trkpt>
      <trkpt lat="46.0653" lon="-0.4141">
        <ele>46.9</ele>
        <time>2013-03-10T08:16:39.000Z</time>
      </trkpt>
      <trkpt lat="46.06521" lon="-0.4142">
        <ele>46.6</ele>
        <time>2013-03-10T08:16:43.000Z</time>
      </trkpt>
      <trkpt lat="46.06515" lon="-0.41425">
        <ele>46.8</ele>
        <time>2013-03-10T08:16:45.000Z</time>
      </trkpt>
      <trkpt lat="46.06509" lon="-0.41431">
        <ele>46.2</ele>
        <time>2013-03-10T08:16:47.000Z</time>
      </trkpt>
      <trkpt lat="46.06502" lon="-0.41436">
        <ele>46.4</ele>
        <time>2013-03-10T08:16:49.000Z</time>
      </trkpt>
      <trkpt lat="46.06494" lon="-0.41441">
        <ele>46.4</ele>
        <time>2013-03-10T08:16:51.000Z</time>
      </trkpt>
      <trkpt lat="46.06487" lon="-0.41446">
        <ele>46.1</ele>
        <time>2013-03-10T08:16:53.000Z</time>
      </trkpt>
      <trkpt lat="46.0648" lon="-0.4145">
        <ele>45.9</ele>
        <time>2013-03-10T08:16:55.000Z</time>
      </trkpt>
      <trkpt lat="46.06474" lon="-0.41454">
        <ele>45.3</ele>
        <time>2013-03-10T08:16:57.000Z</time>
      </trkpt>
      <trkpt lat="46.06468" lon="-0.41458">
        <ele>44.9</ele>
        <time>2013-03-10T08:16:59.000Z</time>
      </trkpt>
      <trkpt lat="46.06461" lon="-0.41461">
        <ele>44.5</ele>
        <time>2013-03-10T08:17:01.000Z</time>
      </trkpt>
      <trkpt lat="46.06453" lon="-0.41465">
        <ele>44.7</ele>
        <time>2013-03-10T08:17:03.000Z</time>
      </trkpt>
      <trkpt lat="46.06449" lon="-0.41468">
        <ele>45</ele>
        <time>2013-03-10T08:17:04.000Z</time>
      </trkpt>
      <trkpt lat="46.06444" lon="-0.4147">
        <ele>44.7</ele>
        <time>2013-03-10T08:17:05.000Z</time>
      </trkpt>
      <trkpt lat="46.0644" lon="-0.41473">
        <ele>44.5</ele>
        <time>2013-03-10T08:17:06.000Z</time>
      </trkpt>
      <trkpt lat="46.06435" lon="-0.41476">
        <ele>44.3</ele>
        <time>2013-03-10T08:17:07.000Z</time>
      </trkpt>
      <trkpt lat="46.06431" lon="-0.41479">
        <ele>44.3</ele>
        <time>2013-03-10T08:17:08.000Z</time>
      </trkpt>
      <trkpt lat="46.06426" lon="-0.41483">
        <ele>44.3</ele>
        <time>2013-03-10T08:17:09.000Z</time>
      </trkpt>
      <trkpt lat="46.06421" lon="-0.41486">
        <ele>44.3</ele>
        <time>2013-03-10T08:17:10.000Z</time>
      </trkpt>
      <trkpt lat="46.06416" lon="-0.4149">
        <ele>44.3</ele>
        <time>2013-03-10T08:17:11.000Z</time>
      </trkpt>
      <trkpt lat="46.06411" lon="-0.41494">
        <ele>44.7</ele>
        <time>2013-03-10T08:17:12.000Z</time>
      </trkpt>
      <trkpt lat="46.06406" lon="-0.41498">
        <ele>44.9</ele>
        <time>2013-03-10T08:17:13.000Z</time>
      </trkpt>
      <trkpt lat="46.06401" lon="-0.41502">
        <ele>45.1</ele>
        <time>2013-03-10T08:17:14.000Z</time>
      </trkpt>
      <trkpt lat="46.06396" lon="-0.41505">
        <ele>45.5</ele>
        <time>2013-03-10T08:17:15.000Z</time>
      </trkpt>
      <trkpt lat="46.06391" lon="-0.41509">
        <ele>45.8</ele>
        <time>2013-03-10T08:17:16.000Z</time>
      </trkpt>
      <trkpt lat="46.06387" lon="-0.41512">
        <ele>46.1</ele>
        <time>2013-03-10T08:17:17.000Z</time>
      </trkpt>
      <trkpt lat="46.06382" lon="-0.41515">
        <ele>46.4</ele>
        <time>2013-03-10T08:17:18.000Z</time>
      </trkpt>
      <trkpt lat="46.06377" lon="-0.41519">
        <ele>46.4</ele>
        <time>2013-03-10T08:17:19.000Z</time>
      </trkpt>
      <trkpt lat="46.06373" lon="-0.41522">
        <ele>46.5</ele>
        <time>2013-03-10T08:17:20.000Z</time>
      </trkpt>
      <trkpt lat="46.06368" lon="-0.41526">
        <ele>46.5</ele>
        <time>2013-03-10T08:17:21.000Z</time>
      </trkpt>
      <trkpt lat="46.06363" lon="-0.4153">
        <ele>46.4</ele>
        <time>2013-03-10T08:17:22.000Z</time>
      </trkpt>
      <trkpt lat="46.06358" lon="-0.41534">
        <ele>46.2</ele>
        <time>2013-03-10T08:17:23.000Z</time>
      </trkpt>
      <trkpt lat="46.06353" lon="-0.41538">
        <ele>46.7</ele>
        <time>2013-03-10T08:17:24.000Z</time>
      </trkpt>
      <trkpt lat="46.06348" lon="-0.41542">
        <ele>47</ele>
        <time>2013-03-10T08:17:25.000Z</time>
      </trkpt>
      <trkpt lat="46.06343" lon="-0.41546">
        <ele>47.2</ele>
        <time>2013-03-10T08:17:26.000Z</time>
      </trkpt>
      <trkpt lat="46.06338" lon="-0.41549">
        <ele>47</ele>
        <time>2013-03-10T08:17:27.000Z</time>
      </trkpt>
      <trkpt lat="46.06333" lon="-0.41553">
        <ele>46.8</ele>
        <time>2013-03-10T08:17:28.000Z</time>
      </trkpt>
      <trkpt lat="46.06328" lon="-0.41557">
        <ele>47</ele>
        <time>2013-03-10T08:17:29.000Z</time>
      </trkpt>
      <trkpt lat="46.06324" lon="-0.41561">
        <ele>47.1</ele>
        <time>2013-03-10T08:17:30.000Z</time>
      </trkpt>
      <trkpt lat="46.06319" lon="-0.41565">
        <ele>47.1</ele>
        <time>2013-03-10T08:17:31.000Z</time>
      </trkpt>
      <trkpt lat="46.06314" lon="-0.4157">
        <ele>47.2</ele>
        <time>2013-03-10T08:17:32.000Z</time>
      </trkpt>
      <trkpt lat="46.0631" lon="-0.41574">
        <ele>47.2</ele>
        <time>2013-03-10T08:17:33.000Z</time>
      </trkpt>
      <trkpt lat="46.06305" lon="-0.41579">
        <ele>47.6</ele>
        <time>2013-03-10T08:17:34.000Z</time>
      </trkpt>
      <trkpt lat="46.06301" lon="-0.41584">
        <ele>47.9</ele>
        <time>2013-03-10T08:17:35.000Z</time>
      </trkpt>
      <trkpt lat="46.06296" lon="-0.41589">
        <ele>47.8</ele>
        <time>2013-03-10T08:17:36.000Z</time>
      </trkpt>
      <trkpt lat="46.06292" lon="-0.41594">
        <ele>47.8</ele>
        <time>2013-03-10T08:17:37.000Z</time>
      </trkpt>
      <trkpt lat="46.06288" lon="-0.41599">
        <ele>47.8</ele>
        <time>2013-03-10T08:17:38.000Z</time>
      </trkpt>
      <trkpt lat="46.06284" lon="-0.41604">
        <ele>47.9</ele>
        <time>2013-03-10T08:17:39.000Z</time>
      </trkpt>
      <trkpt lat="46.06279" lon="-0.4161">
        <ele>47.9</ele>
        <time>2013-03-10T08:17:40.000Z</time>
      </trkpt>
      <trkpt lat="46.06275" lon="-0.41615">
        <ele>48</ele>
        <time>2013-03-10T08:17:41.000Z</time>
      </trkpt>
      <trkpt lat="46.06271" lon="-0.41621">
        <ele>48.1</ele>
        <time>2013-03-10T08:17:42.000Z</time>
      </trkpt>
      <trkpt lat="46.06267" lon="-0.41626">
        <ele>48.2</ele>
        <time>2013-03-10T08:17:43.000Z</time>
      </trkpt>
      <trkpt lat="46.06263" lon="-0.41632">
        <ele>48.2</ele>
        <time>2013-03-10T08:17:44.000Z</time>
      </trkpt>
      <trkpt lat="46.06259" lon="-0.41637">
        <ele>48.3</ele>
        <time>2013-03-10T08:17:45.000Z</time>
      </trkpt>
      <trkpt lat="46.06255" lon="-0.41643">
        <ele>48.3</ele>
        <time>2013-03-10T08:17:46.000Z</time>
      </trkpt>
      <trkpt lat="46.06251" lon="-0.41648">
        <ele>48.4</ele>
        <time>2013-03-10T08:17:47.000Z</time>
      </trkpt>
      <trkpt lat="46.06248" lon="-0.41654">
        <ele>48.3</ele>
        <time>2013-03-10T08:17:48.000Z</time>
      </trkpt>
      <trkpt lat="46.06244" lon="-0.4166">
        <ele>48.2</ele>
        <time>2013-03-10T08:17:49.000Z</time>
      </trkpt>
      <trkpt lat="46.06239" lon="-0.41665">
        <ele>48.1</ele>
        <time>2013-03-10T08:17:50.000Z</time>
      </trkpt>
      <trkpt lat="46.06236" lon="-0.41671">
        <ele>48</ele>
        <time>2013-03-10T08:17:51.000Z</time>
      </trkpt>
      <trkpt lat="46.06232" lon="-0.41676">
        <ele>48</ele>
        <time>2013-03-10T08:17:52.000Z</time>
      </trkpt>
      <trkpt lat="46.06229" lon="-0.41682">
        <ele>48.4</ele>
        <time>2013-03-10T08:17:53.000Z</time>
      </trkpt>
      <trkpt lat="46.06225" lon="-0.41687">
        <ele>48.7</ele>
        <time>2013-03-10T08:17:54.000Z</time>
      </trkpt>
      <trkpt lat="46.06221" lon="-0.41693">
        <ele>48.9</ele>
        <time>2013-03-10T08:17:55.000Z</time>
      </trkpt>
      <trkpt lat="46.06218" lon="-0.41698">
        <ele>49</ele>
        <time>2013-03-10T08:17:56.000Z</time>
      </trkpt>
      <trkpt lat="46.06214" lon="-0.41703">
        <ele>49.2</ele>
        <time>2013-03-10T08:17:57.000Z</time>
      </trkpt>
      <trkpt lat="46.06208" lon="-0.41712">
        <ele>49.4</ele>
        <time>2013-03-10T08:17:59.000Z</time>
      </trkpt>
      <trkpt lat="46.06207" lon="-0.41702">
        <ele>48.8</ele>
        <time>2013-03-10T08:18:04.000Z</time>
      </trkpt>
      <trkpt lat="46.06211" lon="-0.41695">
        <ele>48.8</ele>
        <time>2013-03-10T08:18:06.000Z</time>
      </trkpt>
      <trkpt lat="46.06206" lon="-0.41684">
        <ele>49.3</ele>
        <time>2013-03-10T08:18:10.000Z</time>
      </trkpt>
      <trkpt lat="46.062" lon="-0.41686">
        <ele>50.2</ele>
        <time>2013-03-10T08:18:12.000Z</time>
      </trkpt>
      <trkpt lat="46.06194" lon="-0.41684">
        <ele>50.7</ele>
        <time>2013-03-10T08:18:14.000Z</time>
      </trkpt>
      <trkpt lat="46.06187" lon="-0.41682">
        <ele>50.7</ele>
        <time>2013-03-10T08:18:16.000Z</time>
      </trkpt>
      <trkpt lat="46.06181" lon="-0.4168">
        <ele>50.6</ele>
        <time>2013-03-10T08:18:18.000Z</time>
      </trkpt>
      <trkpt lat="46.06177" lon="-0.41673">
        <ele>51</ele>
        <time>2013-03-10T08:18:20.000Z</time>
      </trkpt>
      <trkpt lat="46.06174" lon="-0.41666">
        <ele>51.1</ele>
        <time>2013-03-10T08:18:22.000Z</time>
      </trkpt>
      <trkpt lat="46.06168" lon="-0.41656">
        <ele>51.1</ele>
        <time>2013-03-10T08:18:25.000Z</time>
      </trkpt>
      <trkpt lat="46.06165" lon="-0.41644">
        <ele>51.6</ele>
        <time>2013-03-10T08:18:28.000Z</time>
      </trkpt>
      <trkpt lat="46.06164" lon="-0.41633">
        <ele>51.8</ele>
        <time>2013-03-10T08:18:31.000Z</time>
      </trkpt>
      <trkpt lat="46.06163" lon="-0.41621">
        <ele>52.6</ele>
        <time>2013-03-10T08:18:34.000Z</time>
      </trkpt>
      <trkpt lat="46.06161" lon="-0.41609">
        <ele>53.4</ele>
        <time>2013-03-10T08:18:37.000Z</time>
      </trkpt>
      <trkpt lat="46.0616" lon="-0.41598">
        <ele>53.8</ele>
        <time>2013-03-10T08:18:40.000Z</time>
      </trkpt>
      <trkpt lat="46.0616" lon="-0.41594">
        <ele>53.9</ele>
        <time>2013-03-10T08:18:41.000Z</time>
      </trkpt>
      <trkpt lat="46.06157" lon="-0.41574">
        <ele>54.7</ele>
        <time>2013-03-10T08:18:46.000Z</time>
      </trkpt>
      <trkpt lat="46.06156" lon="-0.41561">
        <ele>55.1</ele>
        <time>2013-03-10T08:18:49.000Z</time>
      </trkpt>
      <trkpt lat="46.06155" lon="-0.41553">
        <ele>56.5</ele>
        <time>2013-03-10T08:18:51.000Z</time>
      </trkpt>
      <trkpt lat="46.06154" lon="-0.41544">
        <ele>56</ele>
        <time>2013-03-10T08:18:53.000Z</time>
      </trkpt>
      <trkpt lat="46.06153" lon="-0.41532">
        <ele>55.9</ele>
        <time>2013-03-10T08:18:56.000Z</time>
      </trkpt>
      <trkpt lat="46.06151" lon="-0.41519">
        <ele>57</ele>
        <time>2013-03-10T08:18:59.000Z</time>
      </trkpt>
      <trkpt lat="46.0615" lon="-0.41506">
        <ele>57.6</ele>
        <time>2013-03-10T08:19:02.000Z</time>
      </trkpt>
      <trkpt lat="46.06149" lon="-0.41494">
        <ele>57.6</ele>
        <time>2013-03-10T08:19:05.000Z</time>
      </trkpt>
      <trkpt lat="46.06147" lon="-0.41482">
        <ele>58</ele>
        <time>2013-03-10T08:19:08.000Z</time>
      </trkpt>
      <trkpt lat="46.06146" lon="-0.41471">
        <ele>58.3</ele>
        <time>2013-03-10T08:19:11.000Z</time>
      </trkpt>
      <trkpt lat="46.06145" lon="-0.41461">
        <ele>58.3</ele>
        <time>2013-03-10T08:19:14.000Z</time>
      </trkpt>
      <trkpt lat="46.06144" lon="-0.41449">
        <ele>58.1</ele>
        <time>2013-03-10T08:19:18.000Z</time>
      </trkpt>
      <trkpt lat="46.06142" lon="-0.41437">
        <ele>57.8</ele>
        <time>2013-03-10T08:19:22.000Z</time>
      </trkpt>
      <trkpt lat="46.06141" lon="-0.41425">
        <ele>58.6</ele>
        <time>2013-03-10T08:19:26.000Z</time>
      </trkpt>
      <trkpt lat="46.06136" lon="-0.41415">
        <ele>59.3</ele>
        <time>2013-03-10T08:19:30.000Z</time>
      </trkpt>
      <trkpt lat="46.0613" lon="-0.41417">
        <ele>59.6</ele>
        <time>2013-03-10T08:19:32.000Z</time>
      </trkpt>
      <trkpt lat="46.06123" lon="-0.41421">
        <ele>59.7</ele>
        <time>2013-03-10T08:19:34.000Z</time>
      </trkpt>
      <trkpt lat="46.06115" lon="-0.41426">
        <ele>60.4</ele>
        <time>2013-03-10T08:19:36.000Z</time>
      </trkpt>
      <trkpt lat="46.06107" lon="-0.41431">
        <ele>60.2</ele>
        <time>2013-03-10T08:19:38.000Z</time>
      </trkpt>
      <trkpt lat="46.06099" lon="-0.41436">
        <ele>60.1</ele>
        <time>2013-03-10T08:19:40.000Z</time>
      </trkpt>
      <trkpt lat="46.06091" lon="-0.41441">
        <ele>60.1</ele>
        <time>2013-03-10T08:19:42.000Z</time>
      </trkpt>
      <trkpt lat="46.06087" lon="-0.41444">
        <ele>60</ele>
        <time>2013-03-10T08:19:43.000Z</time>
      </trkpt>
      <trkpt lat="46.06082" lon="-0.41446">
        <ele>59.9</ele>
        <time>2013-03-10T08:19:44.000Z</time>
      </trkpt>
      <trkpt lat="46.06078" lon="-0.41449">
        <ele>59.8</ele>
        <time>2013-03-10T08:19:45.000Z</time>
      </trkpt>
      <trkpt lat="46.06074" lon="-0.41451">
        <ele>59.9</ele>
        <time>2013-03-10T08:19:46.000Z</time>
      </trkpt>
      <trkpt lat="46.0607" lon="-0.41454">
        <ele>59.9</ele>
        <time>2013-03-10T08:19:47.000Z</time>
      </trkpt>
      <trkpt lat="46.06062" lon="-0.41459">
        <ele>59.9</ele>
        <time>2013-03-10T08:19:49.000Z</time>
      </trkpt>
      <trkpt lat="46.06054" lon="-0.41464">
        <ele>59.6</ele>
        <time>2013-03-10T08:19:51.000Z</time>
      </trkpt>
      <trkpt lat="46.06046" lon="-0.41469">
        <ele>59.1</ele>
        <time>2013-03-10T08:19:53.000Z</time>
      </trkpt>
      <trkpt lat="46.06042" lon="-0.41472">
        <ele>59.5</ele>
        <time>2013-03-10T08:19:54.000Z</time>
      </trkpt>
      <trkpt lat="46.06037" lon="-0.41474">
        <ele>59.7</ele>
        <time>2013-03-10T08:19:55.000Z</time>
      </trkpt>
      <trkpt lat="46.06033" lon="-0.41477">
        <ele>60.3</ele>
        <time>2013-03-10T08:19:56.000Z</time>
      </trkpt>
      <trkpt lat="46.06028" lon="-0.4148">
        <ele>60.7</ele>
        <time>2013-03-10T08:19:57.000Z</time>
      </trkpt>
      <trkpt lat="46.06023" lon="-0.41482">
        <ele>60.6</ele>
        <time>2013-03-10T08:19:58.000Z</time>
      </trkpt>
      <trkpt lat="46.06019" lon="-0.41485">
        <ele>60.6</ele>
        <time>2013-03-10T08:19:59.000Z</time>
      </trkpt>
      <trkpt lat="46.06014" lon="-0.41487">
        <ele>60.5</ele>
        <time>2013-03-10T08:20:00.000Z</time>
      </trkpt>
      <trkpt lat="46.06009" lon="-0.4149">
        <ele>60.8</ele>
        <time>2013-03-10T08:20:01.000Z</time>
      </trkpt>
      <trkpt lat="46.06004" lon="-0.41492">
        <ele>61.1</ele>
        <time>2013-03-10T08:20:02.000Z</time>
      </trkpt>
      <trkpt lat="46.05998" lon="-0.41495">
        <ele>61.1</ele>
        <time>2013-03-10T08:20:03.000Z</time>
      </trkpt>
      <trkpt lat="46.05993" lon="-0.41498">
        <ele>61.1</ele>
        <time>2013-03-10T08:20:04.000Z</time>
      </trkpt>
      <trkpt lat="46.05988" lon="-0.41501">
        <ele>61.1</ele>
        <time>2013-03-10T08:20:05.000Z</time>
      </trkpt>
      <trkpt lat="46.05983" lon="-0.41505">
        <ele>61.1</ele>
        <time>2013-03-10T08:20:06.000Z</time>
      </trkpt>
      <trkpt lat="46.05978" lon="-0.41508">
        <ele>61</ele>
        <time>2013-03-10T08:20:07.000Z</time>
      </trkpt>
      <trkpt lat="46.05972" lon="-0.41512">
        <ele>60.5</ele>
        <time>2013-03-10T08:20:08.000Z</time>
      </trkpt>
      <trkpt lat="46.05966" lon="-0.41515">
        <ele>60.1</ele>
        <time>2013-03-10T08:20:09.000Z</time>
      </trkpt>
      <trkpt lat="46.05961" lon="-0.41519">
        <ele>59.7</ele>
        <time>2013-03-10T08:20:10.000Z</time>
      </trkpt>
      <trkpt lat="46.05955" lon="-0.41522">
        <ele>59.4</ele>
        <time>2013-03-10T08:20:11.000Z</time>
      </trkpt>
      <trkpt lat="46.05949" lon="-0.41526">
        <ele>59.2</ele>
        <time>2013-03-10T08:20:12.000Z</time>
      </trkpt>
      <trkpt lat="46.05943" lon="-0.41529">
        <ele>59.2</ele>
        <time>2013-03-10T08:20:13.000Z</time>
      </trkpt>
      <trkpt lat="46.05937" lon="-0.41533">
        <ele>59.2</ele>
        <time>2013-03-10T08:20:14.000Z</time>
      </trkpt>
      <trkpt lat="46.05931" lon="-0.41536">
        <ele>59.1</ele>
        <time>2013-03-10T08:20:15.000Z</time>
      </trkpt>
      <trkpt lat="46.05925" lon="-0.4154">
        <ele>59</ele>
        <time>2013-03-10T08:20:16.000Z</time>
      </trkpt>
      <trkpt lat="46.0592" lon="-0.41543">
        <ele>58.9</ele>
        <time>2013-03-10T08:20:17.000Z</time>
      </trkpt>
      <trkpt lat="46.05914" lon="-0.41547">
        <ele>58.8</ele>
        <time>2013-03-10T08:20:18.000Z</time>
      </trkpt>
      <trkpt lat="46.05908" lon="-0.4155">
        <ele>58.7</ele>
        <time>2013-03-10T08:20:19.000Z</time>
      </trkpt>
      <trkpt lat="46.05903" lon="-0.41554">
        <ele>58.2</ele>
        <time>2013-03-10T08:20:20.000Z</time>
      </trkpt>
      <trkpt lat="46.05897" lon="-0.41558">
        <ele>57.9</ele>
        <time>2013-03-10T08:20:21.000Z</time>
      </trkpt>
      <trkpt lat="46.05891" lon="-0.41561">
        <ele>57.9</ele>
        <time>2013-03-10T08:20:22.000Z</time>
      </trkpt>
      <trkpt lat="46.05885" lon="-0.41563">
        <ele>57.9</ele>
        <time>2013-03-10T08:20:23.000Z</time>
      </trkpt>
      <trkpt lat="46.05879" lon="-0.41567">
        <ele>57.5</ele>
        <time>2013-03-10T08:20:24.000Z</time>
      </trkpt>
      <trkpt lat="46.05874" lon="-0.4157">
        <ele>57.2</ele>
        <time>2013-03-10T08:20:25.000Z</time>
      </trkpt>
      <trkpt lat="46.05868" lon="-0.41574">
        <ele>57</ele>
        <time>2013-03-10T08:20:26.000Z</time>
      </trkpt>
      <trkpt lat="46.05862" lon="-0.41577">
        <ele>57.1</ele>
        <time>2013-03-10T08:20:27.000Z</time>
      </trkpt>
      <trkpt lat="46.05857" lon="-0.4158">
        <ele>57.2</ele>
        <time>2013-03-10T08:20:28.000Z</time>
      </trkpt>
      <trkpt lat="46.05851" lon="-0.41584">
        <ele>57.4</ele>
        <time>2013-03-10T08:20:29.000Z</time>
      </trkpt>
      <trkpt lat="46.05846" lon="-0.41588">
        <ele>57.5</ele>
        <time>2013-03-10T08:20:30.000Z</time>
      </trkpt>
      <trkpt lat="46.0584" lon="-0.41591">
        <ele>57.6</ele>
        <time>2013-03-10T08:20:31.000Z</time>
      </trkpt>
      <trkpt lat="46.05835" lon="-0.41595">
        <ele>57.7</ele>
        <time>2013-03-10T08:20:32.000Z</time>
      </trkpt>
      <trkpt lat="46.05829" lon="-0.41598">
        <ele>57.9</ele>
        <time>2013-03-10T08:20:33.000Z</time>
      </trkpt>
      <trkpt lat="46.05824" lon="-0.41601">
        <ele>57.7</ele>
        <time>2013-03-10T08:20:34.000Z</time>
      </trkpt>
      <trkpt lat="46.05818" lon="-0.41605">
        <ele>57.6</ele>
        <time>2013-03-10T08:20:35.000Z</time>
      </trkpt>
      <trkpt lat="46.05812" lon="-0.41608">
        <ele>57.4</ele>
        <time>2013-03-10T08:20:36.000Z</time>
      </trkpt>
      <trkpt lat="46.05807" lon="-0.41611">
        <ele>57.3</ele>
        <time>2013-03-10T08:20:37.000Z</time>
      </trkpt>
      <trkpt lat="46.05801" lon="-0.41614">
        <ele>57.2</ele>
        <time>2013-03-10T08:20:38.000Z</time>
      </trkpt>
      <trkpt lat="46.05796" lon="-0.41618">
        <ele>57</ele>
        <time>2013-03-10T08:20:39.000Z</time>
      </trkpt>
      <trkpt lat="46.05791" lon="-0.41621">
        <ele>56.9</ele>
        <time>2013-03-10T08:20:40.000Z</time>
      </trkpt>
      <trkpt lat="46.05785" lon="-0.41625">
        <ele>57.2</ele>
        <time>2013-03-10T08:20:41.000Z</time>
      </trkpt>
      <trkpt lat="46.0578" lon="-0.41628">
        <ele>57.5</ele>
        <time>2013-03-10T08:20:42.000Z</time>
      </trkpt>
      <trkpt lat="46.05775" lon="-0.41631">
        <ele>57.5</ele>
        <time>2013-03-10T08:20:43.000Z</time>
      </trkpt>
      <trkpt lat="46.05769" lon="-0.41634">
        <ele>57.5</ele>
        <time>2013-03-10T08:20:44.000Z</time>
      </trkpt>
      <trkpt lat="46.05764" lon="-0.41638">
        <ele>57.5</ele>
        <time>2013-03-10T08:20:45.000Z</time>
      </trkpt>
      <trkpt lat="46.05759" lon="-0.41641">
        <ele>57.5</ele>
        <time>2013-03-10T08:20:46.000Z</time>
      </trkpt>
      <trkpt lat="46.05753" lon="-0.41645">
        <ele>57.5</ele>
        <time>2013-03-10T08:20:47.000Z</time>
      </trkpt>
      <trkpt lat="46.05748" lon="-0.41649">
        <ele>57.3</ele>
        <time>2013-03-10T08:20:48.000Z</time>
      </trkpt>
      <trkpt lat="46.05743" lon="-0.41653">
        <ele>57.1</ele>
        <time>2013-03-10T08:20:49.000Z</time>
      </trkpt>
      <trkpt lat="46.05737" lon="-0.41657">
        <ele>57</ele>
        <time>2013-03-10T08:20:50.000Z</time>
      </trkpt>
      <trkpt lat="46.05733" lon="-0.41661">
        <ele>57</ele>
        <time>2013-03-10T08:20:51.000Z</time>
      </trkpt>
      <trkpt lat="46.05728" lon="-0.41665">
        <ele>57.1</ele>
        <time>2013-03-10T08:20:52.000Z</time>
      </trkpt>
      <trkpt lat="46.05723" lon="-0.41669">
        <ele>56.8</ele>
        <time>2013-03-10T08:20:53.000Z</time>
      </trkpt>
      <trkpt lat="46.05719" lon="-0.41673">
        <ele>56.7</ele>
        <time>2013-03-10T08:20:54.000Z</time>
      </trkpt>
      <trkpt lat="46.05714" lon="-0.41678">
        <ele>56.9</ele>
        <time>2013-03-10T08:20:55.000Z</time>
      </trkpt>
      <trkpt lat="46.05709" lon="-0.41683">
        <ele>57</ele>
        <time>2013-03-10T08:20:56.000Z</time>
      </trkpt>
      <trkpt lat="46.05704" lon="-0.41687">
        <ele>57.1</ele>
        <time>2013-03-10T08:20:57.000Z</time>
      </trkpt>
      <trkpt lat="46.05699" lon="-0.41691">
        <ele>57.3</ele>
        <time>2013-03-10T08:20:58.000Z</time>
      </trkpt>
      <trkpt lat="46.05694" lon="-0.41696">
        <ele>57.5</ele>
        <time>2013-03-10T08:20:59.000Z</time>
      </trkpt>
      <trkpt lat="46.05689" lon="-0.41701">
        <ele>57.3</ele>
        <time>2013-03-10T08:21:00.000Z</time>
      </trkpt>
      <trkpt lat="46.05684" lon="-0.41706">
        <ele>57.2</ele>
        <time>2013-03-10T08:21:01.000Z</time>
      </trkpt>
      <trkpt lat="46.05679" lon="-0.41711">
        <ele>57</ele>
        <time>2013-03-10T08:21:02.000Z</time>
      </trkpt>
      <trkpt lat="46.05673" lon="-0.41716">
        <ele>56.9</ele>
        <time>2013-03-10T08:21:03.000Z</time>
      </trkpt>
      <trkpt lat="46.05668" lon="-0.41722">
        <ele>56.7</ele>
        <time>2013-03-10T08:21:04.000Z</time>
      </trkpt>
      <trkpt lat="46.05662" lon="-0.41727">
        <ele>56.5</ele>
        <time>2013-03-10T08:21:05.000Z</time>
      </trkpt>
      <trkpt lat="46.05656" lon="-0.41733">
        <ele>56.4</ele>
        <time>2013-03-10T08:21:06.000Z</time>
      </trkpt>
      <trkpt lat="46.0565" lon="-0.41738">
        <ele>56.2</ele>
        <time>2013-03-10T08:21:07.000Z</time>
      </trkpt>
      <trkpt lat="46.05645" lon="-0.41743">
        <ele>56.2</ele>
        <time>2013-03-10T08:21:08.000Z</time>
      </trkpt>
      <trkpt lat="46.05639" lon="-0.41749">
        <ele>56.1</ele>
        <time>2013-03-10T08:21:09.000Z</time>
      </trkpt>
      <trkpt lat="46.05633" lon="-0.41754">
        <ele>55.9</ele>
        <time>2013-03-10T08:21:10.000Z</time>
      </trkpt>
      <trkpt lat="46.05628" lon="-0.4176">
        <ele>55.7</ele>
        <time>2013-03-10T08:21:11.000Z</time>
      </trkpt>
      <trkpt lat="46.05622" lon="-0.41765">
        <ele>55.2</ele>
        <time>2013-03-10T08:21:12.000Z</time>
      </trkpt>
      <trkpt lat="46.05617" lon="-0.4177">
        <ele>54.8</ele>
        <time>2013-03-10T08:21:13.000Z</time>
      </trkpt>
      <trkpt lat="46.05612" lon="-0.41775">
        <ele>54.9</ele>
        <time>2013-03-10T08:21:14.000Z</time>
      </trkpt>
      <trkpt lat="46.05606" lon="-0.4178">
        <ele>55</ele>
        <time>2013-03-10T08:21:15.000Z</time>
      </trkpt>
      <trkpt lat="46.05601" lon="-0.41785">
        <ele>55.1</ele>
        <time>2013-03-10T08:21:16.000Z</time>
      </trkpt>
      <trkpt lat="46.05595" lon="-0.4179">
        <ele>54.7</ele>
        <time>2013-03-10T08:21:17.000Z</time>
      </trkpt>
      <trkpt lat="46.0559" lon="-0.41795">
        <ele>54.4</ele>
        <time>2013-03-10T08:21:18.000Z</time>
      </trkpt>
      <trkpt lat="46.05585" lon="-0.41798">
        <ele>54.1</ele>
        <time>2013-03-10T08:21:19.000Z</time>
      </trkpt>
      <trkpt lat="46.05579" lon="-0.41799">
        <ele>53.8</ele>
        <time>2013-03-10T08:21:20.000Z</time>
      </trkpt>
      <trkpt lat="46.05573" lon="-0.41796">
        <ele>53.2</ele>
        <time>2013-03-10T08:21:21.000Z</time>
      </trkpt>
      <trkpt lat="46.05569" lon="-0.41791">
        <ele>52.8</ele>
        <time>2013-03-10T08:21:22.000Z</time>
      </trkpt>
      <trkpt lat="46.05564" lon="-0.41785">
        <ele>52.5</ele>
        <time>2013-03-10T08:21:23.000Z</time>
      </trkpt>
      <trkpt lat="46.0556" lon="-0.4178">
        <ele>52.3</ele>
        <time>2013-03-10T08:21:24.000Z</time>
      </trkpt>
      <trkpt lat="46.05555" lon="-0.41774">
        <ele>52.1</ele>
        <time>2013-03-10T08:21:25.000Z</time>
      </trkpt>
      <trkpt lat="46.0555" lon="-0.41769">
        <ele>51.6</ele>
        <time>2013-03-10T08:21:26.000Z</time>
      </trkpt>
      <trkpt lat="46.05545" lon="-0.41764">
        <ele>51.2</ele>
        <time>2013-03-10T08:21:27.000Z</time>
      </trkpt>
      <trkpt lat="46.0554" lon="-0.41759">
        <ele>50.9</ele>
        <time>2013-03-10T08:21:28.000Z</time>
      </trkpt>
      <trkpt lat="46.05535" lon="-0.41754">
        <ele>50.8</ele>
        <time>2013-03-10T08:21:29.000Z</time>
      </trkpt>
      <trkpt lat="46.0553" lon="-0.41749">
        <ele>50.7</ele>
        <time>2013-03-10T08:21:30.000Z</time>
      </trkpt>
      <trkpt lat="46.05524" lon="-0.41744">
        <ele>50.5</ele>
        <time>2013-03-10T08:21:31.000Z</time>
      </trkpt>
      <trkpt lat="46.05519" lon="-0.41738">
        <ele>50.4</ele>
        <time>2013-03-10T08:21:32.000Z</time>
      </trkpt>
      <trkpt lat="46.05514" lon="-0.41733">
        <ele>49.9</ele>
        <time>2013-03-10T08:21:33.000Z</time>
      </trkpt>
      <trkpt lat="46.05509" lon="-0.41727">
        <ele>49.5</ele>
        <time>2013-03-10T08:21:34.000Z</time>
      </trkpt>
      <trkpt lat="46.05505" lon="-0.41721">
        <ele>49.2</ele>
        <time>2013-03-10T08:21:35.000Z</time>
      </trkpt>
      <trkpt lat="46.055" lon="-0.41715">
        <ele>48.9</ele>
        <time>2013-03-10T08:21:36.000Z</time>
      </trkpt>
      <trkpt lat="46.05495" lon="-0.41709">
        <ele>48.7</ele>
        <time>2013-03-10T08:21:37.000Z</time>
      </trkpt>
      <trkpt lat="46.05491" lon="-0.41702">
        <ele>48.7</ele>
        <time>2013-03-10T08:21:38.000Z</time>
      </trkpt>
      <trkpt lat="46.05486" lon="-0.41696">
        <ele>48.7</ele>
        <time>2013-03-10T08:21:39.000Z</time>
      </trkpt>
      <trkpt lat="46.05482" lon="-0.4169">
        <ele>48.7</ele>
        <time>2013-03-10T08:21:40.000Z</time>
      </trkpt>
      <trkpt lat="46.05477" lon="-0.41683">
        <ele>48.7</ele>
        <time>2013-03-10T08:21:41.000Z</time>
      </trkpt>
      <trkpt lat="46.05472" lon="-0.41677">
        <ele>48.8</ele>
        <time>2013-03-10T08:21:42.000Z</time>
      </trkpt>
      <trkpt lat="46.05468" lon="-0.41671">
        <ele>48.8</ele>
        <time>2013-03-10T08:21:43.000Z</time>
      </trkpt>
      <trkpt lat="46.05463" lon="-0.41664">
        <ele>48.8</ele>
        <time>2013-03-10T08:21:44.000Z</time>
      </trkpt>
      <trkpt lat="46.05459" lon="-0.41658">
        <ele>48.9</ele>
        <time>2013-03-10T08:21:45.000Z</time>
      </trkpt>
      <trkpt lat="46.05454" lon="-0.41651">
        <ele>49</ele>
        <time>2013-03-10T08:21:46.000Z</time>
      </trkpt>
      <trkpt lat="46.05449" lon="-0.41645">
        <ele>48.8</ele>
        <time>2013-03-10T08:21:47.000Z</time>
      </trkpt>
      <trkpt lat="46.05444" lon="-0.41638">
        <ele>48.7</ele>
        <time>2013-03-10T08:21:48.000Z</time>
      </trkpt>
      <trkpt lat="46.0544" lon="-0.41631">
        <ele>48.6</ele>
        <time>2013-03-10T08:21:49.000Z</time>
      </trkpt>
      <trkpt lat="46.05435" lon="-0.41625">
        <ele>48.6</ele>
        <time>2013-03-10T08:21:50.000Z</time>
      </trkpt>
      <trkpt lat="46.0543" lon="-0.41618">
        <ele>48.6</ele>
        <time>2013-03-10T08:21:51.000Z</time>
      </trkpt>
      <trkpt lat="46.05426" lon="-0.41611">
        <ele>48.5</ele>
        <time>2013-03-10T08:21:52.000Z</time>
      </trkpt>
      <trkpt lat="46.05421" lon="-0.41605">
        <ele>48.5</ele>
        <time>2013-03-10T08:21:53.000Z</time>
      </trkpt>
      <trkpt lat="46.05416" lon="-0.41598">
        <ele>48.4</ele>
        <time>2013-03-10T08:21:54.000Z</time>
      </trkpt>
      <trkpt lat="46.05412" lon="-0.41591">
        <ele>48.2</ele>
        <time>2013-03-10T08:21:55.000Z</time>
      </trkpt>
      <trkpt lat="46.05408" lon="-0.41583">
        <ele>48.1</ele>
        <time>2013-03-10T08:21:56.000Z</time>
      </trkpt>
      <trkpt lat="46.05404" lon="-0.41576">
        <ele>47.5</ele>
        <time>2013-03-10T08:21:57.000Z</time>
      </trkpt>
      <trkpt lat="46.054" lon="-0.41568">
        <ele>47.1</ele>
        <time>2013-03-10T08:21:58.000Z</time>
      </trkpt>
      <trkpt lat="46.05397" lon="-0.41559">
        <ele>47.1</ele>
        <time>2013-03-10T08:21:59.000Z</time>
      </trkpt>
      <trkpt lat="46.05393" lon="-0.4155">
        <ele>47.1</ele>
        <time>2013-03-10T08:22:00.000Z</time>
      </trkpt>
      <trkpt lat="46.05391" lon="-0.41542">
        <ele>47.1</ele>
        <time>2013-03-10T08:22:01.000Z</time>
      </trkpt>
      <trkpt lat="46.05388" lon="-0.41533">
        <ele>46.9</ele>
        <time>2013-03-10T08:22:02.000Z</time>
      </trkpt>
      <trkpt lat="46.05385" lon="-0.41525">
        <ele>46.8</ele>
        <time>2013-03-10T08:22:03.000Z</time>
      </trkpt>
      <trkpt lat="46.05382" lon="-0.41516">
        <ele>46.5</ele>
        <time>2013-03-10T08:22:04.000Z</time>
      </trkpt>
      <trkpt lat="46.0538" lon="-0.41508">
        <ele>46.2</ele>
        <time>2013-03-10T08:22:05.000Z</time>
      </trkpt>
      <trkpt lat="46.05377" lon="-0.41499">
        <ele>46.2</ele>
        <time>2013-03-10T08:22:06.000Z</time>
      </trkpt>
      <trkpt lat="46.05375" lon="-0.41491">
        <ele>46.2</ele>
        <time>2013-03-10T08:22:07.000Z</time>
      </trkpt>
      <trkpt lat="46.05372" lon="-0.41483">
        <ele>46.2</ele>
        <time>2013-03-10T08:22:08.000Z</time>
      </trkpt>
      <trkpt lat="46.0537" lon="-0.41475">
        <ele>46.3</ele>
        <time>2013-03-10T08:22:09.000Z</time>
      </trkpt>
      <trkpt lat="46.05367" lon="-0.41467">
        <ele>46.4</ele>
        <time>2013-03-10T08:22:10.000Z</time>
      </trkpt>
      <trkpt lat="46.05365" lon="-0.41459">
        <ele>46.4</ele>
        <time>2013-03-10T08:22:11.000Z</time>
      </trkpt>
      <trkpt lat="46.05362" lon="-0.41452">
        <ele>46.4</ele>
        <time>2013-03-10T08:22:12.000Z</time>
      </trkpt>
      <trkpt lat="46.0536" lon="-0.41444">
        <ele>46.4</ele>
        <time>2013-03-10T08:22:13.000Z</time>
      </trkpt>
      <trkpt lat="46.05357" lon="-0.41436">
        <ele>46.6</ele>
        <time>2013-03-10T08:22:14.000Z</time>
      </trkpt>
      <trkpt lat="46.05355" lon="-0.41428">
        <ele>46.7</ele>
        <time>2013-03-10T08:22:15.000Z</time>
      </trkpt>
      <trkpt lat="46.05352" lon="-0.4142">
        <ele>46.7</ele>
        <time>2013-03-10T08:22:16.000Z</time>
      </trkpt>
      <trkpt lat="46.05349" lon="-0.41413">
        <ele>46.6</ele>
        <time>2013-03-10T08:22:17.000Z</time>
      </trkpt>
      <trkpt lat="46.05346" lon="-0.41405">
        <ele>46.8</ele>
        <time>2013-03-10T08:22:18.000Z</time>
      </trkpt>
      <trkpt lat="46.05344" lon="-0.41398">
        <ele>46.8</ele>
        <time>2013-03-10T08:22:19.000Z</time>
      </trkpt>
      <trkpt lat="46.05341" lon="-0.4139">
        <ele>46.9</ele>
        <time>2013-03-10T08:22:20.000Z</time>
      </trkpt>
      <trkpt lat="46.05338" lon="-0.41383">
        <ele>46.7</ele>
        <time>2013-03-10T08:22:21.000Z</time>
      </trkpt>
      <trkpt lat="46.05335" lon="-0.41377">
        <ele>46.6</ele>
        <time>2013-03-10T08:22:22.000Z</time>
      </trkpt>
      <trkpt lat="46.05332" lon="-0.4137">
        <ele>46.6</ele>
        <time>2013-03-10T08:22:23.000Z</time>
      </trkpt>
      <trkpt lat="46.05329" lon="-0.41363">
        <ele>46.7</ele>
        <time>2013-03-10T08:22:24.000Z</time>
      </trkpt>
      <trkpt lat="46.05326" lon="-0.41356">
        <ele>47</ele>
        <time>2013-03-10T08:22:25.000Z</time>
      </trkpt>
      <trkpt lat="46.05323" lon="-0.41349">
        <ele>47.3</ele>
        <time>2013-03-10T08:22:26.000Z</time>
      </trkpt>
      <trkpt lat="46.05321" lon="-0.41342">
        <ele>47.5</ele>
        <time>2013-03-10T08:22:27.000Z</time>
      </trkpt>
      <trkpt lat="46.05318" lon="-0.41335">
        <ele>47.4</ele>
        <time>2013-03-10T08:22:28.000Z</time>
      </trkpt>
      <trkpt lat="46.05316" lon="-0.41328">
        <ele>47.3</ele>
        <time>2013-03-10T08:22:29.000Z</time>
      </trkpt>
      <trkpt lat="46.05313" lon="-0.41321">
        <ele>47.8</ele>
        <time>2013-03-10T08:22:30.000Z</time>
      </trkpt>
      <trkpt lat="46.05311" lon="-0.41314">
        <ele>48.2</ele>
        <time>2013-03-10T08:22:31.000Z</time>
      </trkpt>
      <trkpt lat="46.0531" lon="-0.41307">
        <ele>48.5</ele>
        <time>2013-03-10T08:22:32.000Z</time>
      </trkpt>
      <trkpt lat="46.05308" lon="-0.413">
        <ele>48.3</ele>
        <time>2013-03-10T08:22:33.000Z</time>
      </trkpt>
      <trkpt lat="46.05306" lon="-0.41292">
        <ele>48.3</ele>
        <time>2013-03-10T08:22:34.000Z</time>
      </trkpt>
      <trkpt lat="46.05305" lon="-0.41285">
        <ele>48.3</ele>
        <time>2013-03-10T08:22:35.000Z</time>
      </trkpt>
      <trkpt lat="46.05303" lon="-0.41278">
        <ele>48.3</ele>
        <time>2013-03-10T08:22:36.000Z</time>
      </trkpt>
      <trkpt lat="46.05302" lon="-0.4127">
        <ele>48.1</ele>
        <time>2013-03-10T08:22:37.000Z</time>
      </trkpt>
      <trkpt lat="46.053" lon="-0.41262">
        <ele>47.9</ele>
        <time>2013-03-10T08:22:38.000Z</time>
      </trkpt>
      <trkpt lat="46.05299" lon="-0.41255">
        <ele>47.8</ele>
        <time>2013-03-10T08:22:39.000Z</time>
      </trkpt>
      <trkpt lat="46.05298" lon="-0.41247">
        <ele>47.8</ele>
        <time>2013-03-10T08:22:40.000Z</time>
      </trkpt>
      <trkpt lat="46.05296" lon="-0.4124">
        <ele>47.8</ele>
        <time>2013-03-10T08:22:41.000Z</time>
      </trkpt>
      <trkpt lat="46.05295" lon="-0.41233">
        <ele>47.6</ele>
        <time>2013-03-10T08:22:42.000Z</time>
      </trkpt>
      <trkpt lat="46.05293" lon="-0.41226">
        <ele>47.4</ele>
        <time>2013-03-10T08:22:43.000Z</time>
      </trkpt>
      <trkpt lat="46.0529" lon="-0.41218">
        <ele>47.6</ele>
        <time>2013-03-10T08:22:44.000Z</time>
      </trkpt>
      <trkpt lat="46.05288" lon="-0.4121">
        <ele>47.7</ele>
        <time>2013-03-10T08:22:45.000Z</time>
      </trkpt>
      <trkpt lat="46.05286" lon="-0.41203">
        <ele>47.7</ele>
        <time>2013-03-10T08:22:46.000Z</time>
      </trkpt>
      <trkpt lat="46.05285" lon="-0.41195">
        <ele>48.1</ele>
        <time>2013-03-10T08:22:47.000Z</time>
      </trkpt>
      <trkpt lat="46.05283" lon="-0.41187">
        <ele>48.4</ele>
        <time>2013-03-10T08:22:48.000Z</time>
      </trkpt>
      <trkpt lat="46.05281" lon="-0.4118">
        <ele>48.2</ele>
        <time>2013-03-10T08:22:49.000Z</time>
      </trkpt>
      <trkpt lat="46.0528" lon="-0.41172">
        <ele>48.1</ele>
        <time>2013-03-10T08:22:50.000Z</time>
      </trkpt>
      <trkpt lat="46.05279" lon="-0.41164">
        <ele>47.9</ele>
        <time>2013-03-10T08:22:51.000Z</time>
      </trkpt>
      <trkpt lat="46.05278" lon="-0.41156">
        <ele>47.7</ele>
        <time>2013-03-10T08:22:52.000Z</time>
      </trkpt>
      <trkpt lat="46.05277" lon="-0.41148">
        <ele>47.5</ele>
        <time>2013-03-10T08:22:53.000Z</time>
      </trkpt>
      <trkpt lat="46.05276" lon="-0.4114">
        <ele>47.4</ele>
        <time>2013-03-10T08:22:54.000Z</time>
      </trkpt>
      <trkpt lat="46.05276" lon="-0.41132">
        <ele>47.4</ele>
        <time>2013-03-10T08:22:55.000Z</time>
      </trkpt>
      <trkpt lat="46.05275" lon="-0.41125">
        <ele>47.5</ele>
        <time>2013-03-10T08:22:56.000Z</time>
      </trkpt>
      <trkpt lat="46.05274" lon="-0.41117">
        <ele>47.6</ele>
        <time>2013-03-10T08:22:57.000Z</time>
      </trkpt>
      <trkpt lat="46.05273" lon="-0.4111">
        <ele>47.6</ele>
        <time>2013-03-10T08:22:58.000Z</time>
      </trkpt>
      <trkpt lat="46.05272" lon="-0.41102">
        <ele>47.8</ele>
        <time>2013-03-10T08:22:59.000Z</time>
      </trkpt>
      <trkpt lat="46.05271" lon="-0.41094">
        <ele>48</ele>
        <time>2013-03-10T08:23:00.000Z</time>
      </trkpt>
      <trkpt lat="46.0527" lon="-0.41086">
        <ele>47.6</ele>
        <time>2013-03-10T08:23:01.000Z</time>
      </trkpt>
      <trkpt lat="46.05269" lon="-0.41079">
        <ele>47.4</ele>
        <time>2013-03-10T08:23:02.000Z</time>
      </trkpt>
      <trkpt lat="46.05268" lon="-0.41071">
        <ele>47.2</ele>
        <time>2013-03-10T08:23:03.000Z</time>
      </trkpt>
      <trkpt lat="46.05267" lon="-0.41063">
        <ele>47</ele>
        <time>2013-03-10T08:23:04.000Z</time>
      </trkpt>
      <trkpt lat="46.05266" lon="-0.41056">
        <ele>46.9</ele>
        <time>2013-03-10T08:23:05.000Z</time>
      </trkpt>
      <trkpt lat="46.05265" lon="-0.41048">
        <ele>47.2</ele>
        <time>2013-03-10T08:23:06.000Z</time>
      </trkpt>
      <trkpt lat="46.05264" lon="-0.4104">
        <ele>47.5</ele>
        <time>2013-03-10T08:23:07.000Z</time>
      </trkpt>
      <trkpt lat="46.05261" lon="-0.41032">
        <ele>46.7</ele>
        <time>2013-03-10T08:23:08.000Z</time>
      </trkpt>
      <trkpt lat="46.05259" lon="-0.41024">
        <ele>46.2</ele>
        <time>2013-03-10T08:23:09.000Z</time>
      </trkpt>
      <trkpt lat="46.05256" lon="-0.41016">
        <ele>45.7</ele>
        <time>2013-03-10T08:23:10.000Z</time>
      </trkpt>
      <trkpt lat="46.05253" lon="-0.41009">
        <ele>45.7</ele>
        <time>2013-03-10T08:23:11.000Z</time>
      </trkpt>
      <trkpt lat="46.0525" lon="-0.41001">
        <ele>45.7</ele>
        <time>2013-03-10T08:23:12.000Z</time>
      </trkpt>
      <trkpt lat="46.05247" lon="-0.40994">
        <ele>45.5</ele>
        <time>2013-03-10T08:23:13.000Z</time>
      </trkpt>
      <trkpt lat="46.05244" lon="-0.40986">
        <ele>45.4</ele>
        <time>2013-03-10T08:23:14.000Z</time>
      </trkpt>
      <trkpt lat="46.0524" lon="-0.40979">
        <ele>45</ele>
        <time>2013-03-10T08:23:15.000Z</time>
      </trkpt>
      <trkpt lat="46.05237" lon="-0.40972">
        <ele>44.7</ele>
        <time>2013-03-10T08:23:16.000Z</time>
      </trkpt>
      <trkpt lat="46.05233" lon="-0.40965">
        <ele>44.4</ele>
        <time>2013-03-10T08:23:17.000Z</time>
      </trkpt>
      <trkpt lat="46.05229" lon="-0.40959">
        <ele>44</ele>
        <time>2013-03-10T08:23:18.000Z</time>
      </trkpt>
      <trkpt lat="46.05224" lon="-0.40953">
        <ele>43.7</ele>
        <time>2013-03-10T08:23:19.000Z</time>
      </trkpt>
      <trkpt lat="46.0522" lon="-0.40948">
        <ele>43.7</ele>
        <time>2013-03-10T08:23:20.000Z</time>
      </trkpt>
      <trkpt lat="46.05215" lon="-0.40943">
        <ele>43.7</ele>
        <time>2013-03-10T08:23:21.000Z</time>
      </trkpt>
      <trkpt lat="46.05209" lon="-0.4094">
        <ele>43.7</ele>
        <time>2013-03-10T08:23:22.000Z</time>
      </trkpt>
      <trkpt lat="46.05204" lon="-0.40939">
        <ele>43.6</ele>
        <time>2013-03-10T08:23:23.000Z</time>
      </trkpt>
      <trkpt lat="46.05198" lon="-0.40937">
        <ele>43.6</ele>
        <time>2013-03-10T08:23:24.000Z</time>
      </trkpt>
      <trkpt lat="46.05192" lon="-0.40937">
        <ele>43.6</ele>
        <time>2013-03-10T08:23:25.000Z</time>
      </trkpt>
      <trkpt lat="46.05186" lon="-0.40936">
        <ele>43.6</ele>
        <time>2013-03-10T08:23:26.000Z</time>
      </trkpt>
      <trkpt lat="46.0518" lon="-0.40935">
        <ele>43.5</ele>
        <time>2013-03-10T08:23:27.000Z</time>
      </trkpt>
      <trkpt lat="46.05174" lon="-0.40934">
        <ele>43.4</ele>
        <time>2013-03-10T08:23:28.000Z</time>
      </trkpt>
      <trkpt lat="46.05167" lon="-0.40933">
        <ele>43.3</ele>
        <time>2013-03-10T08:23:29.000Z</time>
      </trkpt>
      <trkpt lat="46.05161" lon="-0.40932">
        <ele>43</ele>
        <time>2013-03-10T08:23:30.000Z</time>
      </trkpt>
      <trkpt lat="46.05155" lon="-0.4093">
        <ele>42.8</ele>
        <time>2013-03-10T08:23:31.000Z</time>
      </trkpt>
      <trkpt lat="46.05149" lon="-0.40929">
        <ele>42.2</ele>
        <time>2013-03-10T08:23:32.000Z</time>
      </trkpt>
      <trkpt lat="46.05142" lon="-0.40928">
        <ele>41.8</ele>
        <time>2013-03-10T08:23:33.000Z</time>
      </trkpt>
      <trkpt lat="46.05136" lon="-0.40927">
        <ele>41.2</ele>
        <time>2013-03-10T08:23:34.000Z</time>
      </trkpt>
      <trkpt lat="46.05131" lon="-0.40926">
        <ele>40.7</ele>
        <time>2013-03-10T08:23:35.000Z</time>
      </trkpt>
      <trkpt lat="46.05126" lon="-0.40926">
        <ele>40.3</ele>
        <time>2013-03-10T08:23:36.000Z</time>
      </trkpt>
      <trkpt lat="46.05121" lon="-0.40925">
        <ele>40</ele>
        <time>2013-03-10T08:23:37.000Z</time>
      </trkpt>
      <trkpt lat="46.05113" lon="-0.40924">
        <ele>39.2</ele>
        <time>2013-03-10T08:23:39.000Z</time>
      </trkpt>
      <trkpt lat="46.05107" lon="-0.40916">
        <ele>37.7</ele>
        <time>2013-03-10T08:23:42.000Z</time>
      </trkpt>
      <trkpt lat="46.05109" lon="-0.40907">
        <ele>37.4</ele>
        <time>2013-03-10T08:23:44.000Z</time>
      </trkpt>
      <trkpt lat="46.05113" lon="-0.40896">
        <ele>37.3</ele>
        <time>2013-03-10T08:23:46.000Z</time>
      </trkpt>
      <trkpt lat="46.05115" lon="-0.4089">
        <ele>37.2</ele>
        <time>2013-03-10T08:23:47.000Z</time>
      </trkpt>
      <trkpt lat="46.05121" lon="-0.40873">
        <ele>37</ele>
        <time>2013-03-10T08:23:50.000Z</time>
      </trkpt>
      <trkpt lat="46.05124" lon="-0.40863">
        <ele>37.1</ele>
        <time>2013-03-10T08:23:52.000Z</time>
      </trkpt>
      <trkpt lat="46.05127" lon="-0.40853">
        <ele>37</ele>
        <time>2013-03-10T08:23:54.000Z</time>
      </trkpt>
      <trkpt lat="46.05131" lon="-0.40842">
        <ele>37.2</ele>
        <time>2013-03-10T08:23:56.000Z</time>
      </trkpt>
      <trkpt lat="46.05134" lon="-0.40836">
        <ele>37.4</ele>
        <time>2013-03-10T08:23:57.000Z</time>
      </trkpt>
      <trkpt lat="46.05137" lon="-0.40829">
        <ele>37.6</ele>
        <time>2013-03-10T08:23:58.000Z</time>
      </trkpt>
      <trkpt lat="46.0514" lon="-0.40822">
        <ele>37.8</ele>
        <time>2013-03-10T08:23:59.000Z</time>
      </trkpt>
      <trkpt lat="46.05143" lon="-0.40816">
        <ele>38</ele>
        <time>2013-03-10T08:24:00.000Z</time>
      </trkpt>
      <trkpt lat="46.05146" lon="-0.4081">
        <ele>38.2</ele>
        <time>2013-03-10T08:24:01.000Z</time>
      </trkpt>
      <trkpt lat="46.05148" lon="-0.40804">
        <ele>38.3</ele>
        <time>2013-03-10T08:24:02.000Z</time>
      </trkpt>
      <trkpt lat="46.05152" lon="-0.40799">
        <ele>38.4</ele>
        <time>2013-03-10T08:24:03.000Z</time>
      </trkpt>
      <trkpt lat="46.05159" lon="-0.40794">
        <ele>38.4</ele>
        <time>2013-03-10T08:24:05.000Z</time>
      </trkpt>
      <trkpt lat="46.05168" lon="-0.40794">
        <ele>38.3</ele>
        <time>2013-03-10T08:24:09.000Z</time>
      </trkpt>
      <trkpt lat="46.05175" lon="-0.40791">
        <ele>37.5</ele>
        <time>2013-03-10T08:24:13.000Z</time>
      </trkpt>
      <trkpt lat="46.0518" lon="-0.40786">
        <ele>37.7</ele>
        <time>2013-03-10T08:24:15.000Z</time>
      </trkpt>
      <trkpt lat="46.05188" lon="-0.4078">
        <ele>37.8</ele>
        <time>2013-03-10T08:24:18.000Z</time>
      </trkpt>
      <trkpt lat="46.05196" lon="-0.40777">
        <ele>38.4</ele>
        <time>2013-03-10T08:24:23.000Z</time>
      </trkpt>
      <trkpt lat="46.05202" lon="-0.4077">
        <ele>39</ele>
        <time>2013-03-10T08:24:26.000Z</time>
      </trkpt>
      <trkpt lat="46.05208" lon="-0.4076">
        <ele>39.8</ele>
        <time>2013-03-10T08:24:29.000Z</time>
      </trkpt>
      <trkpt lat="46.05215" lon="-0.40755">
        <ele>39.3</ele>
        <time>2013-03-10T08:24:32.000Z</time>
      </trkpt>
      <trkpt lat="46.05222" lon="-0.40747">
        <ele>39.2</ele>
        <time>2013-03-10T08:24:35.000Z</time>
      </trkpt>
      <trkpt lat="46.05228" lon="-0.40739">
        <ele>39.6</ele>
        <time>2013-03-10T08:24:37.000Z</time>
      </trkpt>
      <trkpt lat="46.05234" lon="-0.40734">
        <ele>39.7</ele>
        <time>2013-03-10T08:24:39.000Z</time>
      </trkpt>
      <trkpt lat="46.05241" lon="-0.40729">
        <ele>39.6</ele>
        <time>2013-03-10T08:24:41.000Z</time>
      </trkpt>
      <trkpt lat="46.05249" lon="-0.40725">
        <ele>39.5</ele>
        <time>2013-03-10T08:24:43.000Z</time>
      </trkpt>
      <trkpt lat="46.05257" lon="-0.40722">
        <ele>39.5</ele>
        <time>2013-03-10T08:24:45.000Z</time>
      </trkpt>
      <trkpt lat="46.05263" lon="-0.4072">
        <ele>39.3</ele>
        <time>2013-03-10T08:24:47.000Z</time>
      </trkpt>
      <trkpt lat="46.05266" lon="-0.40719">
        <ele>39</ele>
        <time>2013-03-10T08:24:48.000Z</time>
      </trkpt>
      <trkpt lat="46.05277" lon="-0.40713">
        <ele>39.5</ele>
        <time>2013-03-10T08:24:52.000Z</time>
      </trkpt>
      <trkpt lat="46.05283" lon="-0.4071">
        <ele>40</ele>
        <time>2013-03-10T08:24:54.000Z</time>
      </trkpt>
      <trkpt lat="46.0529" lon="-0.40705">
        <ele>39.9</ele>
        <time>2013-03-10T08:24:56.000Z</time>
      </trkpt>
      <trkpt lat="46.05297" lon="-0.40698">
        <ele>39.8</ele>
        <time>2013-03-10T08:24:58.000Z</time>
      </trkpt>
      <trkpt lat="46.053" lon="-0.40694">
        <ele>39.8</ele>
        <time>2013-03-10T08:24:59.000Z</time>
      </trkpt>
      <trkpt lat="46.05304" lon="-0.4069">
        <ele>39.7</ele>
        <time>2013-03-10T08:25:00.000Z</time>
      </trkpt>
      <trkpt lat="46.05307" lon="-0.40686">
        <ele>39.6</ele>
        <time>2013-03-10T08:25:01.000Z</time>
      </trkpt>
      <trkpt lat="46.05311" lon="-0.40682">
        <ele>39.3</ele>
        <time>2013-03-10T08:25:02.000Z</time>
      </trkpt>
      <trkpt lat="46.05319" lon="-0.40675">
        <ele>39</ele>
        <time>2013-03-10T08:25:04.000Z</time>
      </trkpt>
      <trkpt lat="46.05326" lon="-0.40669">
        <ele>38.9</ele>
        <time>2013-03-10T08:25:06.000Z</time>
      </trkpt>
      <trkpt lat="46.05331" lon="-0.40664">
        <ele>39.4</ele>
        <time>2013-03-10T08:25:08.000Z</time>
      </trkpt>
      <trkpt lat="46.05338" lon="-0.40655">
        <ele>40.3</ele>
        <time>2013-03-10T08:25:11.000Z</time>
      </trkpt>
      <trkpt lat="46.05342" lon="-0.40645">
        <ele>41.3</ele>
        <time>2013-03-10T08:25:14.000Z</time>
      </trkpt>
      <trkpt lat="46.05346" lon="-0.40637">
        <ele>41.7</ele>
        <time>2013-03-10T08:25:16.000Z</time>
      </trkpt>
      <trkpt lat="46.0535" lon="-0.4063">
        <ele>42</ele>
        <time>2013-03-10T08:25:18.000Z</time>
      </trkpt>
      <trkpt lat="46.05353" lon="-0.40621">
        <ele>42</ele>
        <time>2013-03-10T08:25:20.000Z</time>
      </trkpt>
      <trkpt lat="46.05358" lon="-0.40613">
        <ele>42</ele>
        <time>2013-03-10T08:25:22.000Z</time>
      </trkpt>
      <trkpt lat="46.05364" lon="-0.40605">
        <ele>42.5</ele>
        <time>2013-03-10T08:25:25.000Z</time>
      </trkpt>
      <trkpt lat="46.05372" lon="-0.40603">
        <ele>42.9</ele>
        <time>2013-03-10T08:25:28.000Z</time>
      </trkpt>
      <trkpt lat="46.05379" lon="-0.40597">
        <ele>43.2</ele>
        <time>2013-03-10T08:25:31.000Z</time>
      </trkpt>
      <trkpt lat="46.05384" lon="-0.40593">
        <ele>43.5</ele>
        <time>2013-03-10T08:25:33.000Z</time>
      </trkpt>
      <trkpt lat="46.0539" lon="-0.40586">
        <ele>43.3</ele>
        <time>2013-03-10T08:25:35.000Z</time>
      </trkpt>
      <trkpt lat="46.05396" lon="-0.40576">
        <ele>43</ele>
        <time>2013-03-10T08:25:37.000Z</time>
      </trkpt>
      <trkpt lat="46.054" lon="-0.40565">
        <ele>43.1</ele>
        <time>2013-03-10T08:25:39.000Z</time>
      </trkpt>
      <trkpt lat="46.05406" lon="-0.40555">
        <ele>42.3</ele>
        <time>2013-03-10T08:25:41.000Z</time>
      </trkpt>
      <trkpt lat="46.05409" lon="-0.40551">
        <ele>42.5</ele>
        <time>2013-03-10T08:25:42.000Z</time>
      </trkpt>
      <trkpt lat="46.05413" lon="-0.40546">
        <ele>42.6</ele>
        <time>2013-03-10T08:25:43.000Z</time>
      </trkpt>
      <trkpt lat="46.05417" lon="-0.40541">
        <ele>42.7</ele>
        <time>2013-03-10T08:25:44.000Z</time>
      </trkpt>
      <trkpt lat="46.05421" lon="-0.40535">
        <ele>42.5</ele>
        <time>2013-03-10T08:25:45.000Z</time>
      </trkpt>
      <trkpt lat="46.05425" lon="-0.4053">
        <ele>42.3</ele>
        <time>2013-03-10T08:25:46.000Z</time>
      </trkpt>
      <trkpt lat="46.05429" lon="-0.40525">
        <ele>41.9</ele>
        <time>2013-03-10T08:25:47.000Z</time>
      </trkpt>
      <trkpt lat="46.05433" lon="-0.4052">
        <ele>41.6</ele>
        <time>2013-03-10T08:25:48.000Z</time>
      </trkpt>
      <trkpt lat="46.05437" lon="-0.40515">
        <ele>41.3</ele>
        <time>2013-03-10T08:25:49.000Z</time>
      </trkpt>
      <trkpt lat="46.05441" lon="-0.4051">
        <ele>41.3</ele>
        <time>2013-03-10T08:25:50.000Z</time>
      </trkpt>
      <trkpt lat="46.05445" lon="-0.40506">
        <ele>41.3</ele>
        <time>2013-03-10T08:25:51.000Z</time>
      </trkpt>
      <trkpt lat="46.05452" lon="-0.405">
        <ele>40.4</ele>
        <time>2013-03-10T08:25:53.000Z</time>
      </trkpt>
      <trkpt lat="46.05453" lon="-0.4049">
        <ele>40.5</ele>
        <time>2013-03-10T08:25:55.000Z</time>
      </trkpt>
      <trkpt lat="46.05452" lon="-0.40478">
        <ele>40.4</ele>
        <time>2013-03-10T08:25:57.000Z</time>
      </trkpt>
      <trkpt lat="46.05453" lon="-0.40472">
        <ele>40.3</ele>
        <time>2013-03-10T08:25:58.000Z</time>
      </trkpt>
      <trkpt lat="46.05454" lon="-0.40465">
        <ele>40.2</ele>
        <time>2013-03-10T08:25:59.000Z</time>
      </trkpt>
      <trkpt lat="46.05457" lon="-0.40453">
        <ele>40.1</ele>
        <time>2013-03-10T08:26:01.000Z</time>
      </trkpt>
      <trkpt lat="46.05458" lon="-0.40442">
        <ele>40.1</ele>
        <time>2013-03-10T08:26:03.000Z</time>
      </trkpt>
      <trkpt lat="46.05457" lon="-0.4043">
        <ele>40.1</ele>
        <time>2013-03-10T08:26:05.000Z</time>
      </trkpt>
      <trkpt lat="46.05457" lon="-0.40424">
        <ele>40.1</ele>
        <time>2013-03-10T08:26:06.000Z</time>
      </trkpt>
      <trkpt lat="46.05458" lon="-0.40411">
        <ele>40.1</ele>
        <time>2013-03-10T08:26:08.000Z</time>
      </trkpt>
      <trkpt lat="46.05459" lon="-0.40401">
        <ele>40.2</ele>
        <time>2013-03-10T08:26:10.000Z</time>
      </trkpt>
      <trkpt lat="46.05462" lon="-0.40391">
        <ele>39.8</ele>
        <time>2013-03-10T08:26:13.000Z</time>
      </trkpt>
      <trkpt lat="46.05468" lon="-0.40382">
        <ele>39.9</ele>
        <time>2013-03-10T08:26:16.000Z</time>
      </trkpt>
      <trkpt lat="46.05472" lon="-0.40373">
        <ele>40.5</ele>
        <time>2013-03-10T08:26:19.000Z</time>
      </trkpt>
      <trkpt lat="46.05478" lon="-0.40366">
        <ele>40.9</ele>
        <time>2013-03-10T08:26:22.000Z</time>
      </trkpt>
      <trkpt lat="46.0548" lon="-0.40355">
        <ele>41.8</ele>
        <time>2013-03-10T08:26:25.000Z</time>
      </trkpt>
      <trkpt lat="46.05474" lon="-0.40346">
        <ele>41.5</ele>
        <time>2013-03-10T08:26:28.000Z</time>
      </trkpt>
      <trkpt lat="46.05466" lon="-0.40347">
        <ele>41.1</ele>
        <time>2013-03-10T08:26:34.000Z</time>
      </trkpt>
      <trkpt lat="46.05458" lon="-0.40343">
        <ele>40.1</ele>
        <time>2013-03-10T08:26:38.000Z</time>
      </trkpt>
      <trkpt lat="46.05454" lon="-0.40333">
        <ele>40.3</ele>
        <time>2013-03-10T08:26:41.000Z</time>
      </trkpt>
      <trkpt lat="46.05449" lon="-0.40323">
        <ele>40.1</ele>
        <time>2013-03-10T08:26:44.000Z</time>
      </trkpt>
      <trkpt lat="46.05443" lon="-0.40317">
        <ele>40.1</ele>
        <time>2013-03-10T08:26:47.000Z</time>
      </trkpt>
      <trkpt lat="46.05442" lon="-0.40307">
        <ele>40</ele>
        <time>2013-03-10T08:26:50.000Z</time>
      </trkpt>
      <trkpt lat="46.05441" lon="-0.40304">
        <ele>40</ele>
        <time>2013-03-10T08:26:51.000Z</time>
      </trkpt>
      <trkpt lat="46.05443" lon="-0.40286">
        <ele>40.3</ele>
        <time>2013-03-10T08:26:59.000Z</time>
      </trkpt>
      <trkpt lat="46.05447" lon="-0.40277">
        <ele>40.3</ele>
        <time>2013-03-10T08:27:03.000Z</time>
      </trkpt>
      <trkpt lat="46.05446" lon="-0.40265">
        <ele>40.4</ele>
        <time>2013-03-10T08:27:07.000Z</time>
      </trkpt>
      <trkpt lat="46.05446" lon="-0.40253">
        <ele>40.6</ele>
        <time>2013-03-10T08:27:10.000Z</time>
      </trkpt>
      <trkpt lat="46.05446" lon="-0.40241">
        <ele>40.9</ele>
        <time>2013-03-10T08:27:13.000Z</time>
      </trkpt>
      <trkpt lat="46.05441" lon="-0.40233">
        <ele>40.9</ele>
        <time>2013-03-10T08:27:16.000Z</time>
      </trkpt>
      <trkpt lat="46.05438" lon="-0.40224">
        <ele>41.2</ele>
        <time>2013-03-10T08:27:19.000Z</time>
      </trkpt>
      <trkpt lat="46.05437" lon="-0.40214">
        <ele>41.4</ele>
        <time>2013-03-10T08:27:22.000Z</time>
      </trkpt>
      <trkpt lat="46.05436" lon="-0.40203">
        <ele>41</ele>
        <time>2013-03-10T08:27:26.000Z</time>
      </trkpt>
      <trkpt lat="46.05438" lon="-0.40191">
        <ele>40.4</ele>
        <time>2013-03-10T08:27:31.000Z</time>
      </trkpt>
      <trkpt lat="46.05432" lon="-0.40182">
        <ele>41</ele>
        <time>2013-03-10T08:27:35.000Z</time>
      </trkpt>
      <trkpt lat="46.05431" lon="-0.40173">
        <ele>41.1</ele>
        <time>2013-03-10T08:27:38.000Z</time>
      </trkpt>
      <trkpt lat="46.05429" lon="-0.40164">
        <ele>41.3</ele>
        <time>2013-03-10T08:27:40.000Z</time>
      </trkpt>
      <trkpt lat="46.05427" lon="-0.40156">
        <ele>41.2</ele>
        <time>2013-03-10T08:27:42.000Z</time>
      </trkpt>
      <trkpt lat="46.05425" lon="-0.40144">
        <ele>40.7</ele>
        <time>2013-03-10T08:27:45.000Z</time>
      </trkpt>
      <trkpt lat="46.05422" lon="-0.40133">
        <ele>40.6</ele>
        <time>2013-03-10T08:27:48.000Z</time>
      </trkpt>
      <trkpt lat="46.05416" lon="-0.40128">
        <ele>40.6</ele>
        <time>2013-03-10T08:27:50.000Z</time>
      </trkpt>
      <trkpt lat="46.05411" lon="-0.40124">
        <ele>40.2</ele>
        <time>2013-03-10T08:27:52.000Z</time>
      </trkpt>
      <trkpt lat="46.05409" lon="-0.4012">
        <ele>40.3</ele>
        <time>2013-03-10T08:27:53.000Z</time>
      </trkpt>
      <trkpt lat="46.05401" lon="-0.40108">
        <ele>40</ele>
        <time>2013-03-10T08:27:56.000Z</time>
      </trkpt>
      <trkpt lat="46.05396" lon="-0.40102">
        <ele>40</ele>
        <time>2013-03-10T08:27:58.000Z</time>
      </trkpt>
      <trkpt lat="46.05395" lon="-0.4009">
        <ele>40.6</ele>
        <time>2013-03-10T08:28:01.000Z</time>
      </trkpt>
      <trkpt lat="46.05393" lon="-0.40081">
        <ele>40.9</ele>
        <time>2013-03-10T08:28:03.000Z</time>
      </trkpt>
      <trkpt lat="46.05394" lon="-0.40071">
        <ele>40.7</ele>
        <time>2013-03-10T08:28:05.000Z</time>
      </trkpt>
      <trkpt lat="46.05393" lon="-0.40059">
        <ele>41.1</ele>
        <time>2013-03-10T08:28:08.000Z</time>
      </trkpt>
      <trkpt lat="46.05393" lon="-0.40047">
        <ele>41.4</ele>
        <time>2013-03-10T08:28:11.000Z</time>
      </trkpt>
      <trkpt lat="46.05397" lon="-0.4004">
        <ele>41.3</ele>
        <time>2013-03-10T08:28:13.000Z</time>
      </trkpt>
      <trkpt lat="46.05405" lon="-0.40034">
        <ele>40.8</ele>
        <time>2013-03-10T08:28:16.000Z</time>
      </trkpt>
      <trkpt lat="46.05407" lon="-0.40022">
        <ele>40.7</ele>
        <time>2013-03-10T08:28:19.000Z</time>
      </trkpt>
      <trkpt lat="46.05413" lon="-0.40012">
        <ele>40.7</ele>
        <time>2013-03-10T08:28:22.000Z</time>
      </trkpt>
      <trkpt lat="46.05417" lon="-0.40003">
        <ele>39.7</ele>
        <time>2013-03-10T08:28:27.000Z</time>
      </trkpt>
      <trkpt lat="46.0542" lon="-0.39993">
        <ele>40.1</ele>
        <time>2013-03-10T08:28:30.000Z</time>
      </trkpt>
      <trkpt lat="46.05425" lon="-0.39983">
        <ele>40.1</ele>
        <time>2013-03-10T08:28:33.000Z</time>
      </trkpt>
      <trkpt lat="46.05429" lon="-0.39972">
        <ele>40.2</ele>
        <time>2013-03-10T08:28:38.000Z</time>
      </trkpt>
      <trkpt lat="46.05434" lon="-0.39963">
        <ele>40.3</ele>
        <time>2013-03-10T08:28:41.000Z</time>
      </trkpt>
      <trkpt lat="46.05438" lon="-0.39956">
        <ele>40.3</ele>
        <time>2013-03-10T08:28:43.000Z</time>
      </trkpt>
      <trkpt lat="46.05443" lon="-0.39949">
        <ele>40.2</ele>
        <time>2013-03-10T08:28:45.000Z</time>
      </trkpt>
      <trkpt lat="46.05448" lon="-0.39942">
        <ele>40.1</ele>
        <time>2013-03-10T08:28:47.000Z</time>
      </trkpt>
      <trkpt lat="46.05454" lon="-0.39934">
        <ele>40.6</ele>
        <time>2013-03-10T08:28:50.000Z</time>
      </trkpt>
      <trkpt lat="46.05454" lon="-0.39922">
        <ele>40.9</ele>
        <time>2013-03-10T08:28:53.000Z</time>
      </trkpt>
      <trkpt lat="46.05454" lon="-0.39917">
        <ele>40.9</ele>
        <time>2013-03-10T08:28:54.000Z</time>
      </trkpt>
      <trkpt lat="46.05452" lon="-0.399">
        <ele>41.4</ele>
        <time>2013-03-10T08:28:57.000Z</time>
      </trkpt>
      <trkpt lat="46.0545" lon="-0.39893">
        <ele>41.4</ele>
        <time>2013-03-10T08:28:58.000Z</time>
      </trkpt>
      <trkpt lat="46.05449" lon="-0.39887">
        <ele>41.6</ele>
        <time>2013-03-10T08:28:59.000Z</time>
      </trkpt>
      <trkpt lat="46.05447" lon="-0.3988">
        <ele>41.7</ele>
        <time>2013-03-10T08:29:00.000Z</time>
      </trkpt>
      <trkpt lat="46.05445" lon="-0.39874">
        <ele>41.7</ele>
        <time>2013-03-10T08:29:01.000Z</time>
      </trkpt>
      <trkpt lat="46.05443" lon="-0.39868">
        <ele>41.8</ele>
        <time>2013-03-10T08:29:02.000Z</time>
      </trkpt>
      <trkpt lat="46.05439" lon="-0.39857">
        <ele>41.5</ele>
        <time>2013-03-10T08:29:04.000Z</time>
      </trkpt>
      <trkpt lat="46.05435" lon="-0.39848">
        <ele>41</ele>
        <time>2013-03-10T08:29:06.000Z</time>
      </trkpt>
      <trkpt lat="46.05429" lon="-0.3984">
        <ele>40.8</ele>
        <time>2013-03-10T08:29:09.000Z</time>
      </trkpt>
      <trkpt lat="46.05425" lon="-0.39828">
        <ele>40.4</ele>
        <time>2013-03-10T08:29:12.000Z</time>
      </trkpt>
      <trkpt lat="46.05423" lon="-0.39819">
        <ele>40.3</ele>
        <time>2013-03-10T08:29:14.000Z</time>
      </trkpt>
      <trkpt lat="46.0542" lon="-0.39809">
        <ele>40.3</ele>
        <time>2013-03-10T08:29:16.000Z</time>
      </trkpt>
      <trkpt lat="46.05416" lon="-0.39799">
        <ele>40.5</ele>
        <time>2013-03-10T08:29:18.000Z</time>
      </trkpt>
      <trkpt lat="46.05413" lon="-0.39789">
        <ele>40.8</ele>
        <time>2013-03-10T08:29:20.000Z</time>
      </trkpt>
      <trkpt lat="46.05409" lon="-0.39779">
        <ele>40.4</ele>
        <time>2013-03-10T08:29:22.000Z</time>
      </trkpt>
      <trkpt lat="46.05405" lon="-0.39769">
        <ele>40.5</ele>
        <time>2013-03-10T08:29:24.000Z</time>
      </trkpt>
      <trkpt lat="46.05402" lon="-0.39758">
        <ele>41.1</ele>
        <time>2013-03-10T08:29:26.000Z</time>
      </trkpt>
      <trkpt lat="46.05398" lon="-0.39746">
        <ele>41.8</ele>
        <time>2013-03-10T08:29:28.000Z</time>
      </trkpt>
      <trkpt lat="46.05395" lon="-0.39734">
        <ele>42.1</ele>
        <time>2013-03-10T08:29:30.000Z</time>
      </trkpt>
      <trkpt lat="46.05391" lon="-0.39725">
        <ele>42.2</ele>
        <time>2013-03-10T08:29:32.000Z</time>
      </trkpt>
      <trkpt lat="46.05384" lon="-0.39725">
        <ele>42.4</ele>
        <time>2013-03-10T08:29:35.000Z</time>
      </trkpt>
      <trkpt lat="46.05375" lon="-0.39728">
        <ele>42.3</ele>
        <time>2013-03-10T08:29:38.000Z</time>
      </trkpt>
      <trkpt lat="46.05371" lon="-0.39738">
        <ele>43.4</ele>
        <time>2013-03-10T08:29:42.000Z</time>
      </trkpt>
      <trkpt lat="46.05367" lon="-0.39746">
        <ele>43.4</ele>
        <time>2013-03-10T08:29:45.000Z</time>
      </trkpt>
      <trkpt lat="46.05359" lon="-0.39751">
        <ele>42.6</ele>
        <time>2013-03-10T08:29:48.000Z</time>
      </trkpt>
      <trkpt lat="46.05353" lon="-0.39756">
        <ele>42.5</ele>
        <time>2013-03-10T08:29:51.000Z</time>
      </trkpt>
      <trkpt lat="46.05348" lon="-0.39763">
        <ele>42.9</ele>
        <time>2013-03-10T08:29:54.000Z</time>
      </trkpt>
      <trkpt lat="46.05346" lon="-0.39766">
        <ele>42.9</ele>
        <time>2013-03-10T08:29:55.000Z</time>
      </trkpt>
      <trkpt lat="46.0534" lon="-0.39778">
        <ele>42.6</ele>
        <time>2013-03-10T08:29:58.000Z</time>
      </trkpt>
      <trkpt lat="46.05334" lon="-0.39787">
        <ele>41.9</ele>
        <time>2013-03-10T08:30:02.000Z</time>
      </trkpt>
      <trkpt lat="46.05333" lon="-0.39797">
        <ele>41.9</ele>
        <time>2013-03-10T08:30:04.000Z</time>
      </trkpt>
      <trkpt lat="46.05332" lon="-0.39809">
        <ele>41.8</ele>
        <time>2013-03-10T08:30:06.000Z</time>
      </trkpt>
      <trkpt lat="46.05328" lon="-0.39814">
        <ele>41.2</ele>
        <time>2013-03-10T08:30:08.000Z</time>
      </trkpt>
      <trkpt lat="46.05324" lon="-0.39822">
        <ele>40.7</ele>
        <time>2013-03-10T08:30:10.000Z</time>
      </trkpt>
      <trkpt lat="46.0532" lon="-0.39831">
        <ele>41.2</ele>
        <time>2013-03-10T08:30:12.000Z</time>
      </trkpt>
      <trkpt lat="46.05316" lon="-0.39839">
        <ele>41.6</ele>
        <time>2013-03-10T08:30:14.000Z</time>
      </trkpt>
      <trkpt lat="46.0531" lon="-0.39848">
        <ele>41.5</ele>
        <time>2013-03-10T08:30:17.000Z</time>
      </trkpt>
      <trkpt lat="46.05302" lon="-0.39846">
        <ele>42.6</ele>
        <time>2013-03-10T08:30:29.000Z</time>
      </trkpt>
      <trkpt lat="46.05293" lon="-0.39843">
        <ele>45.4</ele>
        <time>2013-03-10T08:30:41.000Z</time>
      </trkpt>
      <trkpt lat="46.05286" lon="-0.39838">
        <ele>46.7</ele>
        <time>2013-03-10T08:30:49.000Z</time>
      </trkpt>
      <trkpt lat="46.05283" lon="-0.39826">
        <ele>48.6</ele>
        <time>2013-03-10T08:30:57.000Z</time>
      </trkpt>
      <trkpt lat="46.05283" lon="-0.39825">
        <ele>48.9</ele>
        <time>2013-03-10T08:30:58.000Z</time>
      </trkpt>
      <trkpt lat="46.05282" lon="-0.39804">
        <ele>50.9</ele>
        <time>2013-03-10T08:31:13.000Z</time>
      </trkpt>
      <trkpt lat="46.05276" lon="-0.39794">
        <ele>51.4</ele>
        <time>2013-03-10T08:31:18.000Z</time>
      </trkpt>
      <trkpt lat="46.0527" lon="-0.39802">
        <ele>52</ele>
        <time>2013-03-10T08:31:22.000Z</time>
      </trkpt>
      <trkpt lat="46.05266" lon="-0.39813">
        <ele>52</ele>
        <time>2013-03-10T08:31:25.000Z</time>
      </trkpt>
      <trkpt lat="46.05268" lon="-0.39821">
        <ele>52.1</ele>
        <time>2013-03-10T08:31:27.000Z</time>
      </trkpt>
      <trkpt lat="46.0527" lon="-0.39832">
        <ele>52.2</ele>
        <time>2013-03-10T08:31:29.000Z</time>
      </trkpt>
      <trkpt lat="46.05269" lon="-0.39844">
        <ele>52.3</ele>
        <time>2013-03-10T08:31:31.000Z</time>
      </trkpt>
      <trkpt lat="46.05268" lon="-0.39855">
        <ele>52.5</ele>
        <time>2013-03-10T08:31:33.000Z</time>
      </trkpt>
      <trkpt lat="46.05266" lon="-0.39865">
        <ele>52.7</ele>
        <time>2013-03-10T08:31:35.000Z</time>
      </trkpt>
      <trkpt lat="46.05263" lon="-0.39873">
        <ele>52.6</ele>
        <time>2013-03-10T08:31:37.000Z</time>
      </trkpt>
      <trkpt lat="46.05257" lon="-0.39883">
        <ele>53.1</ele>
        <time>2013-03-10T08:31:40.000Z</time>
      </trkpt>
      <trkpt lat="46.05252" lon="-0.39893">
        <ele>53</ele>
        <time>2013-03-10T08:31:43.000Z</time>
      </trkpt>
      <trkpt lat="46.05247" lon="-0.39903">
        <ele>53.3</ele>
        <time>2013-03-10T08:31:46.000Z</time>
      </trkpt>
      <trkpt lat="46.05243" lon="-0.39912">
        <ele>53.2</ele>
        <time>2013-03-10T08:31:49.000Z</time>
      </trkpt>
      <trkpt lat="46.05243" lon="-0.39921">
        <ele>53.3</ele>
        <time>2013-03-10T08:31:51.000Z</time>
      </trkpt>
      <trkpt lat="46.05244" lon="-0.39932">
        <ele>53.2</ele>
        <time>2013-03-10T08:31:53.000Z</time>
      </trkpt>
      <trkpt lat="46.05245" lon="-0.39943">
        <ele>53.1</ele>
        <time>2013-03-10T08:31:55.000Z</time>
      </trkpt>
      <trkpt lat="46.05246" lon="-0.39956">
        <ele>53.4</ele>
        <time>2013-03-10T08:31:57.000Z</time>
      </trkpt>
      <trkpt lat="46.05246" lon="-0.39962">
        <ele>53.5</ele>
        <time>2013-03-10T08:31:58.000Z</time>
      </trkpt>
      <trkpt lat="46.05246" lon="-0.39969">
        <ele>53.6</ele>
        <time>2013-03-10T08:31:59.000Z</time>
      </trkpt>
      <trkpt lat="46.05247" lon="-0.39976">
        <ele>53.7</ele>
        <time>2013-03-10T08:32:00.000Z</time>
      </trkpt>
      <trkpt lat="46.05247" lon="-0.39983">
        <ele>53.7</ele>
        <time>2013-03-10T08:32:01.000Z</time>
      </trkpt>
      <trkpt lat="46.05247" lon="-0.3999">
        <ele>53.2</ele>
        <time>2013-03-10T08:32:02.000Z</time>
      </trkpt>
      <trkpt lat="46.05248" lon="-0.39996">
        <ele>52.7</ele>
        <time>2013-03-10T08:32:03.000Z</time>
      </trkpt>
      <trkpt lat="46.05248" lon="-0.40003">
        <ele>52.4</ele>
        <time>2013-03-10T08:32:04.000Z</time>
      </trkpt>
      <trkpt lat="46.05248" lon="-0.4001">
        <ele>52.4</ele>
        <time>2013-03-10T08:32:05.000Z</time>
      </trkpt>
      <trkpt lat="46.05249" lon="-0.40016">
        <ele>52.5</ele>
        <time>2013-03-10T08:32:06.000Z</time>
      </trkpt>
      <trkpt lat="46.05249" lon="-0.40023">
        <ele>51.9</ele>
        <time>2013-03-10T08:32:07.000Z</time>
      </trkpt>
      <trkpt lat="46.05249" lon="-0.4003">
        <ele>51.5</ele>
        <time>2013-03-10T08:32:08.000Z</time>
      </trkpt>
      <trkpt lat="46.0525" lon="-0.40037">
        <ele>51.6</ele>
        <time>2013-03-10T08:32:09.000Z</time>
      </trkpt>
      <trkpt lat="46.0525" lon="-0.40045">
        <ele>51.6</ele>
        <time>2013-03-10T08:32:10.000Z</time>
      </trkpt>
      <trkpt lat="46.0525" lon="-0.40052">
        <ele>51.6</ele>
        <time>2013-03-10T08:32:11.000Z</time>
      </trkpt>
      <trkpt lat="46.05251" lon="-0.4006">
        <ele>51.2</ele>
        <time>2013-03-10T08:32:12.000Z</time>
      </trkpt>
      <trkpt lat="46.05251" lon="-0.40067">
        <ele>51</ele>
        <time>2013-03-10T08:32:13.000Z</time>
      </trkpt>
      <trkpt lat="46.05252" lon="-0.40075">
        <ele>51.1</ele>
        <time>2013-03-10T08:32:14.000Z</time>
      </trkpt>
      <trkpt lat="46.05252" lon="-0.40083">
        <ele>51.1</ele>
        <time>2013-03-10T08:32:15.000Z</time>
      </trkpt>
      <trkpt lat="46.05252" lon="-0.40091">
        <ele>50.9</ele>
        <time>2013-03-10T08:32:16.000Z</time>
      </trkpt>
      <trkpt lat="46.05252" lon="-0.40099">
        <ele>50.7</ele>
        <time>2013-03-10T08:32:17.000Z</time>
      </trkpt>
      <trkpt lat="46.05252" lon="-0.40108">
        <ele>50.5</ele>
        <time>2013-03-10T08:32:18.000Z</time>
      </trkpt>
      <trkpt lat="46.05253" lon="-0.40117">
        <ele>50.5</ele>
        <time>2013-03-10T08:32:19.000Z</time>
      </trkpt>
      <trkpt lat="46.05253" lon="-0.40125">
        <ele>50.5</ele>
        <time>2013-03-10T08:32:20.000Z</time>
      </trkpt>
      <trkpt lat="46.05253" lon="-0.40134">
        <ele>50</ele>
        <time>2013-03-10T08:32:21.000Z</time>
      </trkpt>
      <trkpt lat="46.05254" lon="-0.40143">
        <ele>49.7</ele>
        <time>2013-03-10T08:32:22.000Z</time>
      </trkpt>
      <trkpt lat="46.05255" lon="-0.40152">
        <ele>49.5</ele>
        <time>2013-03-10T08:32:23.000Z</time>
      </trkpt>
      <trkpt lat="46.05256" lon="-0.4016">
        <ele>49.4</ele>
        <time>2013-03-10T08:32:24.000Z</time>
      </trkpt>
      <trkpt lat="46.05256" lon="-0.40169">
        <ele>49.2</ele>
        <time>2013-03-10T08:32:25.000Z</time>
      </trkpt>
      <trkpt lat="46.05257" lon="-0.40177">
        <ele>49</ele>
        <time>2013-03-10T08:32:26.000Z</time>
      </trkpt>
      <trkpt lat="46.05258" lon="-0.40186">
        <ele>48.8</ele>
        <time>2013-03-10T08:32:27.000Z</time>
      </trkpt>
      <trkpt lat="46.05258" lon="-0.40193">
        <ele>48.1</ele>
        <time>2013-03-10T08:32:28.000Z</time>
      </trkpt>
      <trkpt lat="46.05259" lon="-0.40204">
        <ele>47.2</ele>
        <time>2013-03-10T08:32:30.000Z</time>
      </trkpt>
      <trkpt lat="46.0526" lon="-0.40216">
        <ele>46.5</ele>
        <time>2013-03-10T08:32:34.000Z</time>
      </trkpt>
      <trkpt lat="46.05256" lon="-0.40227">
        <ele>46.7</ele>
        <time>2013-03-10T08:32:45.000Z</time>
      </trkpt>
      <trkpt lat="46.0525" lon="-0.40234">
        <ele>47.2</ele>
        <time>2013-03-10T08:32:51.000Z</time>
      </trkpt>
      <trkpt lat="46.05247" lon="-0.40245">
        <ele>47.5</ele>
        <time>2013-03-10T08:32:56.000Z</time>
      </trkpt>
      <trkpt lat="46.05248" lon="-0.40258">
        <ele>47.5</ele>
        <time>2013-03-10T08:33:00.000Z</time>
      </trkpt>
      <trkpt lat="46.05249" lon="-0.40262">
        <ele>47.5</ele>
        <time>2013-03-10T08:33:01.000Z</time>
      </trkpt>
      <trkpt lat="46.05246" lon="-0.40277">
        <ele>47.2</ele>
        <time>2013-03-10T08:33:06.000Z</time>
      </trkpt>
      <trkpt lat="46.05238" lon="-0.40277">
        <ele>47.4</ele>
        <time>2013-03-10T08:33:09.000Z</time>
      </trkpt>
      <trkpt lat="46.05231" lon="-0.40283">
        <ele>47.7</ele>
        <time>2013-03-10T08:33:12.000Z</time>
      </trkpt>
      <trkpt lat="46.05223" lon="-0.40277">
        <ele>47.4</ele>
        <time>2013-03-10T08:33:16.000Z</time>
      </trkpt>
      <trkpt lat="46.05216" lon="-0.40276">
        <ele>47.6</ele>
        <time>2013-03-10T08:33:18.000Z</time>
      </trkpt>
      <trkpt lat="46.05209" lon="-0.40277">
        <ele>48</ele>
        <time>2013-03-10T08:33:20.000Z</time>
      </trkpt>
      <trkpt lat="46.05201" lon="-0.40279">
        <ele>48.2</ele>
        <time>2013-03-10T08:33:22.000Z</time>
      </trkpt>
      <trkpt lat="46.05195" lon="-0.40272">
        <ele>48.5</ele>
        <time>2013-03-10T08:33:26.000Z</time>
      </trkpt>
      <trkpt lat="46.05196" lon="-0.40261">
        <ele>49.6</ele>
        <time>2013-03-10T08:33:30.000Z</time>
      </trkpt>
      <trkpt lat="46.052" lon="-0.40252">
        <ele>49.4</ele>
        <time>2013-03-10T08:33:32.000Z</time>
      </trkpt>
      <trkpt lat="46.05198" lon="-0.40243">
        <ele>48.8</ele>
        <time>2013-03-10T08:33:34.000Z</time>
      </trkpt>
      <trkpt lat="46.05196" lon="-0.40231">
        <ele>49.4</ele>
        <time>2013-03-10T08:33:37.000Z</time>
      </trkpt>
      <trkpt lat="46.05195" lon="-0.40219">
        <ele>50</ele>
        <time>2013-03-10T08:33:40.000Z</time>
      </trkpt>
      <trkpt lat="46.05196" lon="-0.40209">
        <ele>50</ele>
        <time>2013-03-10T08:33:43.000Z</time>
      </trkpt>
      <trkpt lat="46.05195" lon="-0.40196">
        <ele>50.7</ele>
        <time>2013-03-10T08:33:48.000Z</time>
      </trkpt>
      <trkpt lat="46.05196" lon="-0.40186">
        <ele>51.6</ele>
        <time>2013-03-10T08:33:52.000Z</time>
      </trkpt>
      <trkpt lat="46.05199" lon="-0.40176">
        <ele>52.3</ele>
        <time>2013-03-10T08:33:55.000Z</time>
      </trkpt>
      <trkpt lat="46.05201" lon="-0.40167">
        <ele>52.3</ele>
        <time>2013-03-10T08:33:57.000Z</time>
      </trkpt>
      <trkpt lat="46.05205" lon="-0.40156">
        <ele>53</ele>
        <time>2013-03-10T08:34:00.000Z</time>
      </trkpt>
      <trkpt lat="46.05208" lon="-0.40147">
        <ele>52.5</ele>
        <time>2013-03-10T08:34:02.000Z</time>
      </trkpt>
      <trkpt lat="46.05209" lon="-0.40143">
        <ele>52.5</ele>
        <time>2013-03-10T08:34:03.000Z</time>
      </trkpt>
      <trkpt lat="46.05206" lon="-0.40128">
        <ele>52.4</ele>
        <time>2013-03-10T08:34:12.000Z</time>
      </trkpt>
      <trkpt lat="46.05207" lon="-0.40119">
        <ele>53.2</ele>
        <time>2013-03-10T08:34:16.000Z</time>
      </trkpt>
      <trkpt lat="46.05211" lon="-0.40111">
        <ele>53.1</ele>
        <time>2013-03-10T08:34:18.000Z</time>
      </trkpt>
      <trkpt lat="46.05214" lon="-0.40101">
        <ele>53</ele>
        <time>2013-03-10T08:34:20.000Z</time>
      </trkpt>
      <trkpt lat="46.05217" lon="-0.40091">
        <ele>53</ele>
        <time>2013-03-10T08:34:22.000Z</time>
      </trkpt>
      <trkpt lat="46.05217" lon="-0.4008">
        <ele>53</ele>
        <time>2013-03-10T08:34:24.000Z</time>
      </trkpt>
      <trkpt lat="46.0522" lon="-0.40072">
        <ele>53.2</ele>
        <time>2013-03-10T08:34:26.000Z</time>
      </trkpt>
      <trkpt lat="46.05222" lon="-0.40062">
        <ele>53.5</ele>
        <time>2013-03-10T08:34:28.000Z</time>
      </trkpt>
      <trkpt lat="46.0522" lon="-0.40053">
        <ele>53.5</ele>
        <time>2013-03-10T08:34:30.000Z</time>
      </trkpt>
      <trkpt lat="46.05222" lon="-0.40044">
        <ele>53.6</ele>
        <time>2013-03-10T08:34:32.000Z</time>
      </trkpt>
      <trkpt lat="46.05221" lon="-0.40035">
        <ele>53.6</ele>
        <time>2013-03-10T08:34:34.000Z</time>
      </trkpt>
      <trkpt lat="46.05221" lon="-0.40026">
        <ele>53.4</ele>
        <time>2013-03-10T08:34:36.000Z</time>
      </trkpt>
      <trkpt lat="46.05222" lon="-0.40017">
        <ele>53.8</ele>
        <time>2013-03-10T08:34:38.000Z</time>
      </trkpt>
      <trkpt lat="46.05224" lon="-0.40009">
        <ele>53.5</ele>
        <time>2013-03-10T08:34:40.000Z</time>
      </trkpt>
      <trkpt lat="46.05226" lon="-0.4">
        <ele>54</ele>
        <time>2013-03-10T08:34:42.000Z</time>
      </trkpt>
      <trkpt lat="46.05223" lon="-0.39987">
        <ele>54.4</ele>
        <time>2013-03-10T08:34:50.000Z</time>
      </trkpt>
      <trkpt lat="46.05217" lon="-0.3998">
        <ele>55.6</ele>
        <time>2013-03-10T08:35:04.000Z</time>
      </trkpt>
      <trkpt lat="46.05217" lon="-0.39978">
        <ele>55.7</ele>
        <time>2013-03-10T08:35:05.000Z</time>
      </trkpt>
      <trkpt lat="46.05205" lon="-0.39975">
        <ele>56.2</ele>
        <time>2013-03-10T08:35:13.000Z</time>
      </trkpt>
      <trkpt lat="46.05197" lon="-0.39976">
        <ele>57</ele>
        <time>2013-03-10T08:35:16.000Z</time>
      </trkpt>
      <trkpt lat="46.0519" lon="-0.3997">
        <ele>58.1</ele>
        <time>2013-03-10T08:35:19.000Z</time>
      </trkpt>
      <trkpt lat="46.05183" lon="-0.39973">
        <ele>58.3</ele>
        <time>2013-03-10T08:35:22.000Z</time>
      </trkpt>
      <trkpt lat="46.05175" lon="-0.39971">
        <ele>58.5</ele>
        <time>2013-03-10T08:35:25.000Z</time>
      </trkpt>
      <trkpt lat="46.05166" lon="-0.39969">
        <ele>58.7</ele>
        <time>2013-03-10T08:35:28.000Z</time>
      </trkpt>
      <trkpt lat="46.05157" lon="-0.39967">
        <ele>59.3</ele>
        <time>2013-03-10T08:35:31.000Z</time>
      </trkpt>
      <trkpt lat="46.05151" lon="-0.39968">
        <ele>59.5</ele>
        <time>2013-03-10T08:35:33.000Z</time>
      </trkpt>
      <trkpt lat="46.05145" lon="-0.3997">
        <ele>59.3</ele>
        <time>2013-03-10T08:35:35.000Z</time>
      </trkpt>
      <trkpt lat="46.05139" lon="-0.39971">
        <ele>59.3</ele>
        <time>2013-03-10T08:35:37.000Z</time>
      </trkpt>
      <trkpt lat="46.05132" lon="-0.3997">
        <ele>60.4</ele>
        <time>2013-03-10T08:35:39.000Z</time>
      </trkpt>
      <trkpt lat="46.05126" lon="-0.39972">
        <ele>60.5</ele>
        <time>2013-03-10T08:35:41.000Z</time>
      </trkpt>
      <trkpt lat="46.0512" lon="-0.39976">
        <ele>60.4</ele>
        <time>2013-03-10T08:35:43.000Z</time>
      </trkpt>
      <trkpt lat="46.05113" lon="-0.39978">
        <ele>60.4</ele>
        <time>2013-03-10T08:35:45.000Z</time>
      </trkpt>
      <trkpt lat="46.05107" lon="-0.39975">
        <ele>60.4</ele>
        <time>2013-03-10T08:35:47.000Z</time>
      </trkpt>
      <trkpt lat="46.051" lon="-0.39976">
        <ele>60.1</ele>
        <time>2013-03-10T08:35:50.000Z</time>
      </trkpt>
      <trkpt lat="46.05092" lon="-0.39971">
        <ele>60.3</ele>
        <time>2013-03-10T08:35:53.000Z</time>
      </trkpt>
      <trkpt lat="46.05083" lon="-0.39971">
        <ele>61.1</ele>
        <time>2013-03-10T08:35:56.000Z</time>
      </trkpt>
      <trkpt lat="46.05076" lon="-0.39963">
        <ele>61.1</ele>
        <time>2013-03-10T08:35:59.000Z</time>
      </trkpt>
      <trkpt lat="46.0507" lon="-0.39961">
        <ele>61.4</ele>
        <time>2013-03-10T08:36:01.000Z</time>
      </trkpt>
      <trkpt lat="46.05064" lon="-0.3996">
        <ele>61.9</ele>
        <time>2013-03-10T08:36:03.000Z</time>
      </trkpt>
      <trkpt lat="46.05056" lon="-0.39964">
        <ele>62.1</ele>
        <time>2013-03-10T08:36:07.000Z</time>
      </trkpt>
      <trkpt lat="46.05054" lon="-0.39963">
        <ele>61.8</ele>
        <time>2013-03-10T08:36:08.000Z</time>
      </trkpt>
      <trkpt lat="46.05047" lon="-0.39947">
        <ele>61.6</ele>
        <time>2013-03-10T08:36:15.000Z</time>
      </trkpt>
      <trkpt lat="46.05052" lon="-0.39939">
        <ele>62.1</ele>
        <time>2013-03-10T08:36:18.000Z</time>
      </trkpt>
      <trkpt lat="46.05058" lon="-0.39931">
        <ele>62.9</ele>
        <time>2013-03-10T08:36:21.000Z</time>
      </trkpt>
      <trkpt lat="46.05063" lon="-0.39921">
        <ele>62.6</ele>
        <time>2013-03-10T08:36:25.000Z</time>
      </trkpt>
      <trkpt lat="46.05067" lon="-0.3991">
        <ele>62.7</ele>
        <time>2013-03-10T08:36:29.000Z</time>
      </trkpt>
      <trkpt lat="46.05073" lon="-0.39901">
        <ele>63.2</ele>
        <time>2013-03-10T08:36:33.000Z</time>
      </trkpt>
      <trkpt lat="46.05078" lon="-0.39895">
        <ele>63.5</ele>
        <time>2013-03-10T08:36:35.000Z</time>
      </trkpt>
      <trkpt lat="46.05082" lon="-0.39887">
        <ele>63.9</ele>
        <time>2013-03-10T08:36:37.000Z</time>
      </trkpt>
      <trkpt lat="46.05086" lon="-0.39879">
        <ele>64.2</ele>
        <time>2013-03-10T08:36:39.000Z</time>
      </trkpt>
      <trkpt lat="46.0509" lon="-0.39871">
        <ele>64.1</ele>
        <time>2013-03-10T08:36:41.000Z</time>
      </trkpt>
      <trkpt lat="46.05093" lon="-0.39863">
        <ele>64.4</ele>
        <time>2013-03-10T08:36:43.000Z</time>
      </trkpt>
      <trkpt lat="46.05094" lon="-0.39854">
        <ele>64.5</ele>
        <time>2013-03-10T08:36:45.000Z</time>
      </trkpt>
      <trkpt lat="46.05096" lon="-0.39844">
        <ele>64.3</ele>
        <time>2013-03-10T08:36:47.000Z</time>
      </trkpt>
      <trkpt lat="46.051" lon="-0.39835">
        <ele>64.4</ele>
        <time>2013-03-10T08:36:49.000Z</time>
      </trkpt>
      <trkpt lat="46.05103" lon="-0.39826">
        <ele>64.7</ele>
        <time>2013-03-10T08:36:51.000Z</time>
      </trkpt>
      <trkpt lat="46.05104" lon="-0.39815">
        <ele>64.9</ele>
        <time>2013-03-10T08:36:53.000Z</time>
      </trkpt>
      <trkpt lat="46.05105" lon="-0.39805">
        <ele>64.8</ele>
        <time>2013-03-10T08:36:55.000Z</time>
      </trkpt>
      <trkpt lat="46.05107" lon="-0.39796">
        <ele>65.1</ele>
        <time>2013-03-10T08:36:57.000Z</time>
      </trkpt>
      <trkpt lat="46.05109" lon="-0.39786">
        <ele>65.5</ele>
        <time>2013-03-10T08:36:59.000Z</time>
      </trkpt>
      <trkpt lat="46.0511" lon="-0.39777">
        <ele>65.5</ele>
        <time>2013-03-10T08:37:01.000Z</time>
      </trkpt>
      <trkpt lat="46.05112" lon="-0.39765">
        <ele>65.5</ele>
        <time>2013-03-10T08:37:04.000Z</time>
      </trkpt>
      <trkpt lat="46.05115" lon="-0.39755">
        <ele>65.4</ele>
        <time>2013-03-10T08:37:07.000Z</time>
      </trkpt>
      <trkpt lat="46.05118" lon="-0.39746">
        <ele>65.1</ele>
        <time>2013-03-10T08:37:10.000Z</time>
      </trkpt>
      <trkpt lat="46.05119" lon="-0.39742">
        <ele>64.9</ele>
        <time>2013-03-10T08:37:11.000Z</time>
      </trkpt>
      <trkpt lat="46.05124" lon="-0.39727">
        <ele>65.6</ele>
        <time>2013-03-10T08:37:15.000Z</time>
      </trkpt>
      <trkpt lat="46.05128" lon="-0.39715">
        <ele>65.3</ele>
        <time>2013-03-10T08:37:18.000Z</time>
      </trkpt>
      <trkpt lat="46.05131" lon="-0.39708">
        <ele>65.1</ele>
        <time>2013-03-10T08:37:20.000Z</time>
      </trkpt>
      <trkpt lat="46.05133" lon="-0.39697">
        <ele>65.3</ele>
        <time>2013-03-10T08:37:23.000Z</time>
      </trkpt>
      <trkpt lat="46.05134" lon="-0.39686">
        <ele>65.2</ele>
        <time>2013-03-10T08:37:26.000Z</time>
      </trkpt>
      <trkpt lat="46.05136" lon="-0.39674">
        <ele>65.5</ele>
        <time>2013-03-10T08:37:29.000Z</time>
      </trkpt>
      <trkpt lat="46.05143" lon="-0.39671">
        <ele>64.8</ele>
        <time>2013-03-10T08:37:34.000Z</time>
      </trkpt>
      <trkpt lat="46.0515" lon="-0.39667">
        <ele>64.5</ele>
        <time>2013-03-10T08:37:37.000Z</time>
      </trkpt>
      <trkpt lat="46.05156" lon="-0.3966">
        <ele>64.4</ele>
        <time>2013-03-10T08:37:40.000Z</time>
      </trkpt>
      <trkpt lat="46.05164" lon="-0.39655">
        <ele>63.5</ele>
        <time>2013-03-10T08:37:44.000Z</time>
      </trkpt>
      <trkpt lat="46.0517" lon="-0.39661">
        <ele>62.8</ele>
        <time>2013-03-10T08:37:47.000Z</time>
      </trkpt>
      <trkpt lat="46.05177" lon="-0.39668">
        <ele>62.7</ele>
        <time>2013-03-10T08:37:50.000Z</time>
      </trkpt>
      <trkpt lat="46.05183" lon="-0.39668">
        <ele>62.4</ele>
        <time>2013-03-10T08:37:52.000Z</time>
      </trkpt>
      <trkpt lat="46.05189" lon="-0.39663">
        <ele>62.5</ele>
        <time>2013-03-10T08:37:54.000Z</time>
      </trkpt>
      <trkpt lat="46.05197" lon="-0.39664">
        <ele>61.8</ele>
        <time>2013-03-10T08:37:57.000Z</time>
      </trkpt>
      <trkpt lat="46.05201" lon="-0.39672">
        <ele>61.3</ele>
        <time>2013-03-10T08:37:59.000Z</time>
      </trkpt>
      <trkpt lat="46.05202" lon="-0.39681">
        <ele>60.8</ele>
        <time>2013-03-10T08:38:01.000Z</time>
      </trkpt>
      <trkpt lat="46.05206" lon="-0.39692">
        <ele>59.9</ele>
        <time>2013-03-10T08:38:04.000Z</time>
      </trkpt>
      <trkpt lat="46.05213" lon="-0.397">
        <ele>60.1</ele>
        <time>2013-03-10T08:38:07.000Z</time>
      </trkpt>
      <trkpt lat="46.05213" lon="-0.3971">
        <ele>58.7</ele>
        <time>2013-03-10T08:38:11.000Z</time>
      </trkpt>
      <trkpt lat="46.05214" lon="-0.39714">
        <ele>58.5</ele>
        <time>2013-03-10T08:38:12.000Z</time>
      </trkpt>
      <trkpt lat="46.05222" lon="-0.39728">
        <ele>58.9</ele>
        <time>2013-03-10T08:38:16.000Z</time>
      </trkpt>
      <trkpt lat="46.05227" lon="-0.39731">
        <ele>58</ele>
        <time>2013-03-10T08:38:18.000Z</time>
      </trkpt>
      <trkpt lat="46.05235" lon="-0.39731">
        <ele>57.6</ele>
        <time>2013-03-10T08:38:20.000Z</time>
      </trkpt>
      <trkpt lat="46.05244" lon="-0.39733">
        <ele>57.1</ele>
        <time>2013-03-10T08:38:22.000Z</time>
      </trkpt>
      <trkpt lat="46.05248" lon="-0.39734">
        <ele>56.8</ele>
        <time>2013-03-10T08:38:23.000Z</time>
      </trkpt>
      <trkpt lat="46.05253" lon="-0.39733">
        <ele>56.5</ele>
        <time>2013-03-10T08:38:24.000Z</time>
      </trkpt>
      <trkpt lat="46.05257" lon="-0.3973">
        <ele>56.2</ele>
        <time>2013-03-10T08:38:25.000Z</time>
      </trkpt>
      <trkpt lat="46.05263" lon="-0.39722">
        <ele>55.6</ele>
        <time>2013-03-10T08:38:27.000Z</time>
      </trkpt>
      <trkpt lat="46.05268" lon="-0.39719">
        <ele>55</ele>
        <time>2013-03-10T08:38:29.000Z</time>
      </trkpt>
      <trkpt lat="46.05275" lon="-0.39714">
        <ele>54.5</ele>
        <time>2013-03-10T08:38:31.000Z</time>
      </trkpt>
      <trkpt lat="46.05282" lon="-0.3971">
        <ele>54.1</ele>
        <time>2013-03-10T08:38:33.000Z</time>
      </trkpt>
      <trkpt lat="46.05287" lon="-0.39702">
        <ele>53.6</ele>
        <time>2013-03-10T08:38:35.000Z</time>
      </trkpt>
      <trkpt lat="46.05294" lon="-0.39695">
        <ele>53.2</ele>
        <time>2013-03-10T08:38:37.000Z</time>
      </trkpt>
      <trkpt lat="46.05299" lon="-0.39694">
        <ele>53.1</ele>
        <time>2013-03-10T08:38:38.000Z</time>
      </trkpt>
      <trkpt lat="46.05304" lon="-0.39694">
        <ele>52.6</ele>
        <time>2013-03-10T08:38:39.000Z</time>
      </trkpt>
      <trkpt lat="46.05308" lon="-0.39691">
        <ele>52.3</ele>
        <time>2013-03-10T08:38:40.000Z</time>
      </trkpt>
      <trkpt lat="46.05313" lon="-0.39688">
        <ele>51.9</ele>
        <time>2013-03-10T08:38:41.000Z</time>
      </trkpt>
      <trkpt lat="46.05317" lon="-0.39683">
        <ele>51.6</ele>
        <time>2013-03-10T08:38:42.000Z</time>
      </trkpt>
      <trkpt lat="46.0532" lon="-0.39672">
        <ele>50.8</ele>
        <time>2013-03-10T08:38:44.000Z</time>
      </trkpt>
      <trkpt lat="46.05326" lon="-0.39665">
        <ele>50.2</ele>
        <time>2013-03-10T08:38:46.000Z</time>
      </trkpt>
      <trkpt lat="46.05331" lon="-0.39662">
        <ele>50</ele>
        <time>2013-03-10T08:38:47.000Z</time>
      </trkpt>
      <trkpt lat="46.05335" lon="-0.39661">
        <ele>49.6</ele>
        <time>2013-03-10T08:38:48.000Z</time>
      </trkpt>
      <trkpt lat="46.05343" lon="-0.39659">
        <ele>48.6</ele>
        <time>2013-03-10T08:38:50.000Z</time>
      </trkpt>
      <trkpt lat="46.05345" lon="-0.39649">
        <ele>47.3</ele>
        <time>2013-03-10T08:38:53.000Z</time>
      </trkpt>
      <trkpt lat="46.05344" lon="-0.39636">
        <ele>47</ele>
        <time>2013-03-10T08:38:57.000Z</time>
      </trkpt>
      <trkpt lat="46.05349" lon="-0.39628">
        <ele>47.2</ele>
        <time>2013-03-10T08:39:00.000Z</time>
      </trkpt>
      <trkpt lat="46.05342" lon="-0.39621">
        <ele>48.9</ele>
        <time>2013-03-10T08:39:46.000Z</time>
      </trkpt>
      <trkpt lat="46.05341" lon="-0.39621">
        <ele>48.8</ele>
        <time>2013-03-10T08:39:47.000Z</time>
      </trkpt>
      <trkpt lat="46.05327" lon="-0.39628">
        <ele>49</ele>
        <time>2013-03-10T08:39:58.000Z</time>
      </trkpt>
      <trkpt lat="46.0532" lon="-0.39624">
        <ele>50.8</ele>
        <time>2013-03-10T08:40:03.000Z</time>
      </trkpt>
      <trkpt lat="46.05313" lon="-0.39625">
        <ele>51.5</ele>
        <time>2013-03-10T08:40:07.000Z</time>
      </trkpt>
      <trkpt lat="46.05305" lon="-0.39628">
        <ele>52.5</ele>
        <time>2013-03-10T08:40:11.000Z</time>
      </trkpt>
      <trkpt lat="46.05298" lon="-0.39622">
        <ele>53.5</ele>
        <time>2013-03-10T08:40:16.000Z</time>
      </trkpt>
      <trkpt lat="46.05293" lon="-0.39612">
        <ele>54.2</ele>
        <time>2013-03-10T08:40:21.000Z</time>
      </trkpt>
      <trkpt lat="46.05285" lon="-0.39615">
        <ele>54.9</ele>
        <time>2013-03-10T08:40:25.000Z</time>
      </trkpt>
      <trkpt lat="46.05276" lon="-0.39614">
        <ele>55.2</ele>
        <time>2013-03-10T08:40:29.000Z</time>
      </trkpt>
      <trkpt lat="46.05269" lon="-0.39605">
        <ele>56.4</ele>
        <time>2013-03-10T08:40:34.000Z</time>
      </trkpt>
      <trkpt lat="46.05267" lon="-0.39595">
        <ele>57.2</ele>
        <time>2013-03-10T08:40:38.000Z</time>
      </trkpt>
      <trkpt lat="46.05265" lon="-0.39585">
        <ele>57.4</ele>
        <time>2013-03-10T08:40:41.000Z</time>
      </trkpt>
      <trkpt lat="46.05269" lon="-0.39574">
        <ele>56.8</ele>
        <time>2013-03-10T08:40:46.000Z</time>
      </trkpt>
      <trkpt lat="46.05277" lon="-0.39577">
        <ele>56.5</ele>
        <time>2013-03-10T08:40:50.000Z</time>
      </trkpt>
      <trkpt lat="46.05278" lon="-0.39577">
        <ele>56.4</ele>
        <time>2013-03-10T08:40:51.000Z</time>
      </trkpt>
      <trkpt lat="46.0529" lon="-0.39565">
        <ele>54</ele>
        <time>2013-03-10T08:40:59.000Z</time>
      </trkpt>
      <trkpt lat="46.05293" lon="-0.39555">
        <ele>53.9</ele>
        <time>2013-03-10T08:41:02.000Z</time>
      </trkpt>
      <trkpt lat="46.05294" lon="-0.39543">
        <ele>53.5</ele>
        <time>2013-03-10T08:41:05.000Z</time>
      </trkpt>
      <trkpt lat="46.05295" lon="-0.39532">
        <ele>53.7</ele>
        <time>2013-03-10T08:41:08.000Z</time>
      </trkpt>
      <trkpt lat="46.05299" lon="-0.39521">
        <ele>53.2</ele>
        <time>2013-03-10T08:41:11.000Z</time>
      </trkpt>
      <trkpt lat="46.053" lon="-0.3951">
        <ele>52.8</ele>
        <time>2013-03-10T08:41:15.000Z</time>
      </trkpt>
      <trkpt lat="46.05292" lon="-0.39507">
        <ele>53.1</ele>
        <time>2013-03-10T08:41:20.000Z</time>
      </trkpt>
      <trkpt lat="46.05286" lon="-0.39513">
        <ele>54</ele>
        <time>2013-03-10T08:41:24.000Z</time>
      </trkpt>
      <trkpt lat="46.05279" lon="-0.39504">
        <ele>54.2</ele>
        <time>2013-03-10T08:41:30.000Z</time>
      </trkpt>
      <trkpt lat="46.05276" lon="-0.39492">
        <ele>54.8</ele>
        <time>2013-03-10T08:41:33.000Z</time>
      </trkpt>
      <trkpt lat="46.05272" lon="-0.39485">
        <ele>55.3</ele>
        <time>2013-03-10T08:41:36.000Z</time>
      </trkpt>
      <trkpt lat="46.05267" lon="-0.39478">
        <ele>56.5</ele>
        <time>2013-03-10T08:41:39.000Z</time>
      </trkpt>
      <trkpt lat="46.0526" lon="-0.39469">
        <ele>57.8</ele>
        <time>2013-03-10T08:41:44.000Z</time>
      </trkpt>
      <trkpt lat="46.05259" lon="-0.39457">
        <ele>58.4</ele>
        <time>2013-03-10T08:41:48.000Z</time>
      </trkpt>
      <trkpt lat="46.05255" lon="-0.39448">
        <ele>59.1</ele>
        <time>2013-03-10T08:41:52.000Z</time>
      </trkpt>
      <trkpt lat="46.05254" lon="-0.39446">
        <ele>59</ele>
        <time>2013-03-10T08:41:53.000Z</time>
      </trkpt>
      <trkpt lat="46.05243" lon="-0.39433">
        <ele>59.9</ele>
        <time>2013-03-10T08:42:01.000Z</time>
      </trkpt>
      <trkpt lat="46.0524" lon="-0.39423">
        <ele>60.7</ele>
        <time>2013-03-10T08:42:05.000Z</time>
      </trkpt>
      <trkpt lat="46.05235" lon="-0.39414">
        <ele>61.3</ele>
        <time>2013-03-10T08:42:09.000Z</time>
      </trkpt>
      <trkpt lat="46.05229" lon="-0.39407">
        <ele>61.6</ele>
        <time>2013-03-10T08:42:13.000Z</time>
      </trkpt>
      <trkpt lat="46.05223" lon="-0.39403">
        <ele>62</ele>
        <time>2013-03-10T08:42:16.000Z</time>
      </trkpt>
      <trkpt lat="46.05217" lon="-0.39398">
        <ele>62.3</ele>
        <time>2013-03-10T08:42:19.000Z</time>
      </trkpt>
      <trkpt lat="46.05211" lon="-0.39393">
        <ele>62.6</ele>
        <time>2013-03-10T08:42:22.000Z</time>
      </trkpt>
      <trkpt lat="46.05204" lon="-0.39386">
        <ele>63.6</ele>
        <time>2013-03-10T08:42:26.000Z</time>
      </trkpt>
      <trkpt lat="46.052" lon="-0.39377">
        <ele>63.8</ele>
        <time>2013-03-10T08:42:29.000Z</time>
      </trkpt>
      <trkpt lat="46.05195" lon="-0.39369">
        <ele>63.6</ele>
        <time>2013-03-10T08:42:32.000Z</time>
      </trkpt>
      <trkpt lat="46.05193" lon="-0.39359">
        <ele>63.5</ele>
        <time>2013-03-10T08:42:35.000Z</time>
      </trkpt>
      <trkpt lat="46.05187" lon="-0.3935">
        <ele>63.9</ele>
        <time>2013-03-10T08:42:39.000Z</time>
      </trkpt>
      <trkpt lat="46.05179" lon="-0.39351">
        <ele>64.4</ele>
        <time>2013-03-10T08:42:42.000Z</time>
      </trkpt>
      <trkpt lat="46.05173" lon="-0.39347">
        <ele>65.2</ele>
        <time>2013-03-10T08:42:45.000Z</time>
      </trkpt>
      <trkpt lat="46.05171" lon="-0.39337">
        <ele>65.8</ele>
        <time>2013-03-10T08:42:48.000Z</time>
      </trkpt>
      <trkpt lat="46.0517" lon="-0.39328">
        <ele>65.8</ele>
        <time>2013-03-10T08:42:50.000Z</time>
      </trkpt>
      <trkpt lat="46.0517" lon="-0.39317">
        <ele>65.6</ele>
        <time>2013-03-10T08:42:52.000Z</time>
      </trkpt>
      <trkpt lat="46.05172" lon="-0.39307">
        <ele>65.4</ele>
        <time>2013-03-10T08:42:54.000Z</time>
      </trkpt>
      <trkpt lat="46.05175" lon="-0.39304">
        <ele>65.2</ele>
        <time>2013-03-10T08:42:55.000Z</time>
      </trkpt>
      <trkpt lat="46.05188" lon="-0.3931">
        <ele>64.7</ele>
        <time>2013-03-10T08:42:59.000Z</time>
      </trkpt>
      <trkpt lat="46.05193" lon="-0.39313">
        <ele>64.7</ele>
        <time>2013-03-10T08:43:00.000Z</time>
      </trkpt>
      <trkpt lat="46.05197" lon="-0.39316">
        <ele>64.7</ele>
        <time>2013-03-10T08:43:01.000Z</time>
      </trkpt>
      <trkpt lat="46.05202" lon="-0.39319">
        <ele>64.6</ele>
        <time>2013-03-10T08:43:02.000Z</time>
      </trkpt>
      <trkpt lat="46.05207" lon="-0.39322">
        <ele>64.5</ele>
        <time>2013-03-10T08:43:03.000Z</time>
      </trkpt>
      <trkpt lat="46.05211" lon="-0.39326">
        <ele>64.4</ele>
        <time>2013-03-10T08:43:04.000Z</time>
      </trkpt>
      <trkpt lat="46.05216" lon="-0.3933">
        <ele>64.1</ele>
        <time>2013-03-10T08:43:05.000Z</time>
      </trkpt>
      <trkpt lat="46.05221" lon="-0.39334">
        <ele>63.9</ele>
        <time>2013-03-10T08:43:06.000Z</time>
      </trkpt>
      <trkpt lat="46.05227" lon="-0.3934">
        <ele>64</ele>
        <time>2013-03-10T08:43:07.000Z</time>
      </trkpt>
      <trkpt lat="46.05231" lon="-0.39346">
        <ele>64</ele>
        <time>2013-03-10T08:43:08.000Z</time>
      </trkpt>
      <trkpt lat="46.05236" lon="-0.39352">
        <ele>63.1</ele>
        <time>2013-03-10T08:43:09.000Z</time>
      </trkpt>
      <trkpt lat="46.05241" lon="-0.39358">
        <ele>62.4</ele>
        <time>2013-03-10T08:43:10.000Z</time>
      </trkpt>
      <trkpt lat="46.05246" lon="-0.39365">
        <ele>61.9</ele>
        <time>2013-03-10T08:43:11.000Z</time>
      </trkpt>
      <trkpt lat="46.05251" lon="-0.39373">
        <ele>61.3</ele>
        <time>2013-03-10T08:43:12.000Z</time>
      </trkpt>
      <trkpt lat="46.05256" lon="-0.39379">
        <ele>60.9</ele>
        <time>2013-03-10T08:43:13.000Z</time>
      </trkpt>
      <trkpt lat="46.05261" lon="-0.39386">
        <ele>60.9</ele>
        <time>2013-03-10T08:43:14.000Z</time>
      </trkpt>
      <trkpt lat="46.05266" lon="-0.39393">
        <ele>60.8</ele>
        <time>2013-03-10T08:43:15.000Z</time>
      </trkpt>
      <trkpt lat="46.05271" lon="-0.394">
        <ele>60</ele>
        <time>2013-03-10T08:43:16.000Z</time>
      </trkpt>
      <trkpt lat="46.05275" lon="-0.39406">
        <ele>59.4</ele>
        <time>2013-03-10T08:43:17.000Z</time>
      </trkpt>
      <trkpt lat="46.05278" lon="-0.39411">
        <ele>58.9</ele>
        <time>2013-03-10T08:43:18.000Z</time>
      </trkpt>
      <trkpt lat="46.05286" lon="-0.39417">
        <ele>57.3</ele>
        <time>2013-03-10T08:43:20.000Z</time>
      </trkpt>
      <trkpt lat="46.05293" lon="-0.3942">
        <ele>56.5</ele>
        <time>2013-03-10T08:43:23.000Z</time>
      </trkpt>
      <trkpt lat="46.05302" lon="-0.39422">
        <ele>55.7</ele>
        <time>2013-03-10T08:43:26.000Z</time>
      </trkpt>
      <trkpt lat="46.05309" lon="-0.39422">
        <ele>53.7</ele>
        <time>2013-03-10T08:43:30.000Z</time>
      </trkpt>
      <trkpt lat="46.05315" lon="-0.39428">
        <ele>52.7</ele>
        <time>2013-03-10T08:43:33.000Z</time>
      </trkpt>
      <trkpt lat="46.05324" lon="-0.39432">
        <ele>52</ele>
        <time>2013-03-10T08:43:37.000Z</time>
      </trkpt>
      <trkpt lat="46.05332" lon="-0.39426">
        <ele>51.9</ele>
        <time>2013-03-10T08:43:51.000Z</time>
      </trkpt>
      <trkpt lat="46.05339" lon="-0.3942">
        <ele>54.1</ele>
        <time>2013-03-10T08:44:04.000Z</time>
      </trkpt>
      <trkpt lat="46.05339" lon="-0.39419">
        <ele>54.3</ele>
        <time>2013-03-10T08:44:05.000Z</time>
      </trkpt>
      <trkpt lat="46.0534" lon="-0.39399">
        <ele>54.9</ele>
        <time>2013-03-10T08:44:39.000Z</time>
      </trkpt>
      <trkpt lat="46.05333" lon="-0.39393">
        <ele>54.2</ele>
        <time>2013-03-10T08:44:45.000Z</time>
      </trkpt>
      <trkpt lat="46.05337" lon="-0.39381">
        <ele>54.7</ele>
        <time>2013-03-10T08:45:02.000Z</time>
      </trkpt>
      <trkpt lat="46.05344" lon="-0.39377">
        <ele>56.2</ele>
        <time>2013-03-10T08:45:17.000Z</time>
      </trkpt>
      <trkpt lat="46.05345" lon="-0.39375">
        <ele>56.2</ele>
        <time>2013-03-10T08:45:18.000Z</time>
      </trkpt>
      <trkpt lat="46.05351" lon="-0.39357">
        <ele>57.2</ele>
        <time>2013-03-10T08:45:26.000Z</time>
      </trkpt>
      <trkpt lat="46.05354" lon="-0.39346">
        <ele>57.7</ele>
        <time>2013-03-10T08:45:30.000Z</time>
      </trkpt>
      <trkpt lat="46.05354" lon="-0.39334">
        <ele>57.6</ele>
        <time>2013-03-10T08:45:36.000Z</time>
      </trkpt>
      <trkpt lat="46.05357" lon="-0.39323">
        <ele>58.3</ele>
        <time>2013-03-10T08:45:40.000Z</time>
      </trkpt>
      <trkpt lat="46.05353" lon="-0.39312">
        <ele>59</ele>
        <time>2013-03-10T08:45:46.000Z</time>
      </trkpt>
      <trkpt lat="46.05352" lon="-0.393">
        <ele>59.4</ele>
        <time>2013-03-10T08:45:50.000Z</time>
      </trkpt>
      <trkpt lat="46.05347" lon="-0.39292">
        <ele>59.1</ele>
        <time>2013-03-10T08:45:54.000Z</time>
      </trkpt>
      <trkpt lat="46.05347" lon="-0.39281">
        <ele>59.2</ele>
        <time>2013-03-10T08:45:57.000Z</time>
      </trkpt>
      <trkpt lat="46.05344" lon="-0.39273">
        <ele>59.4</ele>
        <time>2013-03-10T08:46:00.000Z</time>
      </trkpt>
      <trkpt lat="46.05343" lon="-0.39262">
        <ele>59.1</ele>
        <time>2013-03-10T08:46:03.000Z</time>
      </trkpt>
      <trkpt lat="46.05339" lon="-0.39251">
        <ele>59.6</ele>
        <time>2013-03-10T08:46:07.000Z</time>
      </trkpt>
      <trkpt lat="46.05336" lon="-0.39241">
        <ele>59.6</ele>
        <time>2013-03-10T08:46:11.000Z</time>
      </trkpt>
      <trkpt lat="46.05338" lon="-0.39231">
        <ele>60</ele>
        <time>2013-03-10T08:46:14.000Z</time>
      </trkpt>
      <trkpt lat="46.05338" lon="-0.39218">
        <ele>60.3</ele>
        <time>2013-03-10T08:46:18.000Z</time>
      </trkpt>
      <trkpt lat="46.05338" lon="-0.39215">
        <ele>60.1</ele>
        <time>2013-03-10T08:46:19.000Z</time>
      </trkpt>
      <trkpt lat="46.05342" lon="-0.39196">
        <ele>59.7</ele>
        <time>2013-03-10T08:46:25.000Z</time>
      </trkpt>
      <trkpt lat="46.05347" lon="-0.39186">
        <ele>59.4</ele>
        <time>2013-03-10T08:46:29.000Z</time>
      </trkpt>
      <trkpt lat="46.05354" lon="-0.39179">
        <ele>58.8</ele>
        <time>2013-03-10T08:46:33.000Z</time>
      </trkpt>
      <trkpt lat="46.05363" lon="-0.39181">
        <ele>59</ele>
        <time>2013-03-10T08:46:49.000Z</time>
      </trkpt>
      <trkpt lat="46.05371" lon="-0.39183">
        <ele>58.3</ele>
        <time>2013-03-10T08:47:03.000Z</time>
      </trkpt>
      <trkpt lat="46.05379" lon="-0.39186">
        <ele>58.5</ele>
        <time>2013-03-10T08:47:11.000Z</time>
      </trkpt>
      <trkpt lat="46.05388" lon="-0.3919">
        <ele>59.1</ele>
        <time>2013-03-10T08:47:16.000Z</time>
      </trkpt>
      <trkpt lat="46.05396" lon="-0.39187">
        <ele>58.1</ele>
        <time>2013-03-10T08:47:20.000Z</time>
      </trkpt>
      <trkpt lat="46.05397" lon="-0.39186">
        <ele>58.2</ele>
        <time>2013-03-10T08:47:21.000Z</time>
      </trkpt>
      <trkpt lat="46.05406" lon="-0.39169">
        <ele>57.2</ele>
        <time>2013-03-10T08:47:28.000Z</time>
      </trkpt>
      <trkpt lat="46.05409" lon="-0.39158">
        <ele>56.8</ele>
        <time>2013-03-10T08:47:33.000Z</time>
      </trkpt>
      <trkpt lat="46.05413" lon="-0.39147">
        <ele>58.3</ele>
        <time>2013-03-10T08:47:40.000Z</time>
      </trkpt>
      <trkpt lat="46.0541" lon="-0.39135">
        <ele>58.8</ele>
        <time>2013-03-10T08:48:00.000Z</time>
      </trkpt>
      <trkpt lat="46.05404" lon="-0.39145">
        <ele>58.6</ele>
        <time>2013-03-10T08:48:11.000Z</time>
      </trkpt>
      <trkpt lat="46.05441" lon="-0.39119">
        <ele>58</ele>
        <time>2013-03-10T08:48:28.000Z</time>
      </trkpt>
      <trkpt lat="46.05473" lon="-0.39087">
        <ele>58.3</ele>
        <time>2013-03-10T08:48:36.000Z</time>
      </trkpt>
      <trkpt lat="46.05409" lon="-0.39125">
        <ele>58.6</ele>
        <time>2013-03-10T08:48:57.000Z</time>
      </trkpt>
      <trkpt lat="46.05402" lon="-0.39131">
        <ele>59.3</ele>
        <time>2013-03-10T08:49:18.000Z</time>
      </trkpt>
      <trkpt lat="46.05394" lon="-0.39134">
        <ele>59.4</ele>
        <time>2013-03-10T08:49:23.000Z</time>
      </trkpt>
      <trkpt lat="46.0539" lon="-0.39124">
        <ele>58.8</ele>
        <time>2013-03-10T08:49:32.000Z</time>
      </trkpt>
      <trkpt lat="46.0539" lon="-0.39112">
        <ele>59.7</ele>
        <time>2013-03-10T08:49:36.000Z</time>
      </trkpt>
      <trkpt lat="46.05389" lon="-0.39099">
        <ele>60.1</ele>
        <time>2013-03-10T08:49:40.000Z</time>
      </trkpt>
      <trkpt lat="46.05388" lon="-0.39097">
        <ele>60</ele>
        <time>2013-03-10T08:49:41.000Z</time>
      </trkpt>
      <trkpt lat="46.05373" lon="-0.39102">
        <ele>60.4</ele>
        <time>2013-03-10T08:49:49.000Z</time>
      </trkpt>
      <trkpt lat="46.05366" lon="-0.39106">
        <ele>60.2</ele>
        <time>2013-03-10T08:49:52.000Z</time>
      </trkpt>
      <trkpt lat="46.05358" lon="-0.39111">
        <ele>60.5</ele>
        <time>2013-03-10T08:49:56.000Z</time>
      </trkpt>
      <trkpt lat="46.05352" lon="-0.39117">
        <ele>60.6</ele>
        <time>2013-03-10T08:50:00.000Z</time>
      </trkpt>
      <trkpt lat="46.05344" lon="-0.3912">
        <ele>60.3</ele>
        <time>2013-03-10T08:50:04.000Z</time>
      </trkpt>
      <trkpt lat="46.05337" lon="-0.39123">
        <ele>59.9</ele>
        <time>2013-03-10T08:50:07.000Z</time>
      </trkpt>
      <trkpt lat="46.05331" lon="-0.3913">
        <ele>60.1</ele>
        <time>2013-03-10T08:50:10.000Z</time>
      </trkpt>
      <trkpt lat="46.05325" lon="-0.39135">
        <ele>60.9</ele>
        <time>2013-03-10T08:50:13.000Z</time>
      </trkpt>
      <trkpt lat="46.05317" lon="-0.39141">
        <ele>60.9</ele>
        <time>2013-03-10T08:50:17.000Z</time>
      </trkpt>
      <trkpt lat="46.05308" lon="-0.39141">
        <ele>61.7</ele>
        <time>2013-03-10T08:50:22.000Z</time>
      </trkpt>
      <trkpt lat="46.05301" lon="-0.39138">
        <ele>62.1</ele>
        <time>2013-03-10T08:50:28.000Z</time>
      </trkpt>
      <trkpt lat="46.05293" lon="-0.3914">
        <ele>61.8</ele>
        <time>2013-03-10T08:50:32.000Z</time>
      </trkpt>
      <trkpt lat="46.05284" lon="-0.39142">
        <ele>61.6</ele>
        <time>2013-03-10T08:50:36.000Z</time>
      </trkpt>
      <trkpt lat="46.05283" lon="-0.39153">
        <ele>61.9</ele>
        <time>2013-03-10T08:50:41.000Z</time>
      </trkpt>
      <trkpt lat="46.05282" lon="-0.39155">
        <ele>61.8</ele>
        <time>2013-03-10T08:50:42.000Z</time>
      </trkpt>
      <trkpt lat="46.0527" lon="-0.39166">
        <ele>61.9</ele>
        <time>2013-03-10T08:50:48.000Z</time>
      </trkpt>
      <trkpt lat="46.05265" lon="-0.39172">
        <ele>62.2</ele>
        <time>2013-03-10T08:50:51.000Z</time>
      </trkpt>
      <trkpt lat="46.05258" lon="-0.39177">
        <ele>62.5</ele>
        <time>2013-03-10T08:50:54.000Z</time>
      </trkpt>
      <trkpt lat="46.05252" lon="-0.39182">
        <ele>62.7</ele>
        <time>2013-03-10T08:50:58.000Z</time>
      </trkpt>
      <trkpt lat="46.05246" lon="-0.39186">
        <ele>62.7</ele>
        <time>2013-03-10T08:51:01.000Z</time>
      </trkpt>
      <trkpt lat="46.05239" lon="-0.39191">
        <ele>62.8</ele>
        <time>2013-03-10T08:51:04.000Z</time>
      </trkpt>
      <trkpt lat="46.05233" lon="-0.39196">
        <ele>63.3</ele>
        <time>2013-03-10T08:51:07.000Z</time>
      </trkpt>
      <trkpt lat="46.05226" lon="-0.39202">
        <ele>63.5</ele>
        <time>2013-03-10T08:51:10.000Z</time>
      </trkpt>
      <trkpt lat="46.0522" lon="-0.39207">
        <ele>63.7</ele>
        <time>2013-03-10T08:51:13.000Z</time>
      </trkpt>
      <trkpt lat="46.05213" lon="-0.39212">
        <ele>63.4</ele>
        <time>2013-03-10T08:51:16.000Z</time>
      </trkpt>
      <trkpt lat="46.05206" lon="-0.39217">
        <ele>63.6</ele>
        <time>2013-03-10T08:51:19.000Z</time>
      </trkpt>
      <trkpt lat="46.05199" lon="-0.39222">
        <ele>64.1</ele>
        <time>2013-03-10T08:51:22.000Z</time>
      </trkpt>
      <trkpt lat="46.05193" lon="-0.39227">
        <ele>64.5</ele>
        <time>2013-03-10T08:51:25.000Z</time>
      </trkpt>
      <trkpt lat="46.05186" lon="-0.39233">
        <ele>64.7</ele>
        <time>2013-03-10T08:51:28.000Z</time>
      </trkpt>
      <trkpt lat="46.05178" lon="-0.39239">
        <ele>65</ele>
        <time>2013-03-10T08:51:31.000Z</time>
      </trkpt>
      <trkpt lat="46.05172" lon="-0.39245">
        <ele>65.3</ele>
        <time>2013-03-10T08:51:34.000Z</time>
      </trkpt>
      <trkpt lat="46.05166" lon="-0.3925">
        <ele>65.4</ele>
        <time>2013-03-10T08:51:37.000Z</time>
      </trkpt>
      <trkpt lat="46.05157" lon="-0.39251">
        <ele>67.8</ele>
        <time>2013-03-10T08:51:52.000Z</time>
      </trkpt>
      <trkpt lat="46.05156" lon="-0.39251">
        <ele>68</ele>
        <time>2013-03-10T08:51:53.000Z</time>
      </trkpt>
      <trkpt lat="46.05141" lon="-0.39248">
        <ele>67.2</ele>
        <time>2013-03-10T08:52:04.000Z</time>
      </trkpt>
      <trkpt lat="46.05132" lon="-0.39246">
        <ele>67.8</ele>
        <time>2013-03-10T08:52:08.000Z</time>
      </trkpt>
      <trkpt lat="46.05125" lon="-0.39246">
        <ele>67.9</ele>
        <time>2013-03-10T08:52:11.000Z</time>
      </trkpt>
      <trkpt lat="46.05117" lon="-0.39242">
        <ele>68</ele>
        <time>2013-03-10T08:52:15.000Z</time>
      </trkpt>
      <trkpt lat="46.0511" lon="-0.39243">
        <ele>68.7</ele>
        <time>2013-03-10T08:52:19.000Z</time>
      </trkpt>
      <trkpt lat="46.05104" lon="-0.39247">
        <ele>69.5</ele>
        <time>2013-03-10T08:52:22.000Z</time>
      </trkpt>
      <trkpt lat="46.05096" lon="-0.39242">
        <ele>69.5</ele>
        <time>2013-03-10T08:52:25.000Z</time>
      </trkpt>
      <trkpt lat="46.0509" lon="-0.39238">
        <ele>69.3</ele>
        <time>2013-03-10T08:52:27.000Z</time>
      </trkpt>
      <trkpt lat="46.05084" lon="-0.39232">
        <ele>69.2</ele>
        <time>2013-03-10T08:52:29.000Z</time>
      </trkpt>
      <trkpt lat="46.05079" lon="-0.39226">
        <ele>69.2</ele>
        <time>2013-03-10T08:52:31.000Z</time>
      </trkpt>
      <trkpt lat="46.05073" lon="-0.3922">
        <ele>69.7</ele>
        <time>2013-03-10T08:52:33.000Z</time>
      </trkpt>
      <trkpt lat="46.05067" lon="-0.39213">
        <ele>70</ele>
        <time>2013-03-10T08:52:35.000Z</time>
      </trkpt>
      <trkpt lat="46.05061" lon="-0.39206">
        <ele>70.8</ele>
        <time>2013-03-10T08:52:37.000Z</time>
      </trkpt>
      <trkpt lat="46.05055" lon="-0.39198">
        <ele>71.1</ele>
        <time>2013-03-10T08:52:39.000Z</time>
      </trkpt>
      <trkpt lat="46.0505" lon="-0.39188">
        <ele>71.5</ele>
        <time>2013-03-10T08:52:41.000Z</time>
      </trkpt>
      <trkpt lat="46.05044" lon="-0.39179">
        <ele>72</ele>
        <time>2013-03-10T08:52:43.000Z</time>
      </trkpt>
      <trkpt lat="46.05039" lon="-0.39169">
        <ele>72.2</ele>
        <time>2013-03-10T08:52:45.000Z</time>
      </trkpt>
      <trkpt lat="46.05034" lon="-0.39159">
        <ele>71.6</ele>
        <time>2013-03-10T08:52:47.000Z</time>
      </trkpt>
      <trkpt lat="46.05029" lon="-0.39149">
        <ele>71.4</ele>
        <time>2013-03-10T08:52:49.000Z</time>
      </trkpt>
      <trkpt lat="46.05024" lon="-0.39139">
        <ele>71.3</ele>
        <time>2013-03-10T08:52:51.000Z</time>
      </trkpt>
      <trkpt lat="46.05019" lon="-0.39128">
        <ele>71.3</ele>
        <time>2013-03-10T08:52:53.000Z</time>
      </trkpt>
      <trkpt lat="46.05017" lon="-0.39122">
        <ele>71.3</ele>
        <time>2013-03-10T08:52:54.000Z</time>
      </trkpt>
      <trkpt lat="46.0501" lon="-0.39106">
        <ele>72</ele>
        <time>2013-03-10T08:52:57.000Z</time>
      </trkpt>
      <trkpt lat="46.05006" lon="-0.39095">
        <ele>72.1</ele>
        <time>2013-03-10T08:52:59.000Z</time>
      </trkpt>
      <trkpt lat="46.05002" lon="-0.39084">
        <ele>72.5</ele>
        <time>2013-03-10T08:53:01.000Z</time>
      </trkpt>
      <trkpt lat="46.04998" lon="-0.39073">
        <ele>72.3</ele>
        <time>2013-03-10T08:53:03.000Z</time>
      </trkpt>
      <trkpt lat="46.04993" lon="-0.39062">
        <ele>72.3</ele>
        <time>2013-03-10T08:53:05.000Z</time>
      </trkpt>
      <trkpt lat="46.0499" lon="-0.39051">
        <ele>72.6</ele>
        <time>2013-03-10T08:53:07.000Z</time>
      </trkpt>
      <trkpt lat="46.04986" lon="-0.3904">
        <ele>72.8</ele>
        <time>2013-03-10T08:53:09.000Z</time>
      </trkpt>
      <trkpt lat="46.04983" lon="-0.39028">
        <ele>73.3</ele>
        <time>2013-03-10T08:53:11.000Z</time>
      </trkpt>
      <trkpt lat="46.0498" lon="-0.39017">
        <ele>73</ele>
        <time>2013-03-10T08:53:13.000Z</time>
      </trkpt>
      <trkpt lat="46.04977" lon="-0.39007">
        <ele>73.5</ele>
        <time>2013-03-10T08:53:15.000Z</time>
      </trkpt>
      <trkpt lat="46.04975" lon="-0.38998">
        <ele>73.5</ele>
        <time>2013-03-10T08:53:17.000Z</time>
      </trkpt>
      <trkpt lat="46.04974" lon="-0.38987">
        <ele>73</ele>
        <time>2013-03-10T08:53:19.000Z</time>
      </trkpt>
      <trkpt lat="46.04973" lon="-0.38976">
        <ele>72.7</ele>
        <time>2013-03-10T08:53:21.000Z</time>
      </trkpt>
      <trkpt lat="46.04971" lon="-0.38965">
        <ele>72.7</ele>
        <time>2013-03-10T08:53:23.000Z</time>
      </trkpt>
      <trkpt lat="46.04969" lon="-0.38954">
        <ele>73.1</ele>
        <time>2013-03-10T08:53:25.000Z</time>
      </trkpt>
      <trkpt lat="46.04967" lon="-0.38943">
        <ele>73.4</ele>
        <time>2013-03-10T08:53:27.000Z</time>
      </trkpt>
      <trkpt lat="46.04966" lon="-0.38932">
        <ele>73.2</ele>
        <time>2013-03-10T08:53:29.000Z</time>
      </trkpt>
      <trkpt lat="46.04964" lon="-0.3892">
        <ele>73</ele>
        <time>2013-03-10T08:53:31.000Z</time>
      </trkpt>
      <trkpt lat="46.04962" lon="-0.38908">
        <ele>72.9</ele>
        <time>2013-03-10T08:53:33.000Z</time>
      </trkpt>
      <trkpt lat="46.0496" lon="-0.38895">
        <ele>72.8</ele>
        <time>2013-03-10T08:53:35.000Z</time>
      </trkpt>
      <trkpt lat="46.04959" lon="-0.38883">
        <ele>72.6</ele>
        <time>2013-03-10T08:53:37.000Z</time>
      </trkpt>
      <trkpt lat="46.04958" lon="-0.38871">
        <ele>73.6</ele>
        <time>2013-03-10T08:53:39.000Z</time>
      </trkpt>
      <trkpt lat="46.04957" lon="-0.3886">
        <ele>73.2</ele>
        <time>2013-03-10T08:53:41.000Z</time>
      </trkpt>
      <trkpt lat="46.04956" lon="-0.3885">
        <ele>73.2</ele>
        <time>2013-03-10T08:53:43.000Z</time>
      </trkpt>
      <trkpt lat="46.04956" lon="-0.38837">
        <ele>73.2</ele>
        <time>2013-03-10T08:53:45.000Z</time>
      </trkpt>
      <trkpt lat="46.04956" lon="-0.38826">
        <ele>73.2</ele>
        <time>2013-03-10T08:53:47.000Z</time>
      </trkpt>
      <trkpt lat="46.04957" lon="-0.38814">
        <ele>73.7</ele>
        <time>2013-03-10T08:53:49.000Z</time>
      </trkpt>
      <trkpt lat="46.04957" lon="-0.38802">
        <ele>74.2</ele>
        <time>2013-03-10T08:53:51.000Z</time>
      </trkpt>
      <trkpt lat="46.04958" lon="-0.38789">
        <ele>74</ele>
        <time>2013-03-10T08:53:53.000Z</time>
      </trkpt>
      <trkpt lat="46.04959" lon="-0.38776">
        <ele>74.3</ele>
        <time>2013-03-10T08:53:55.000Z</time>
      </trkpt>
      <trkpt lat="46.04958" lon="-0.38769">
        <ele>74.5</ele>
        <time>2013-03-10T08:53:56.000Z</time>
      </trkpt>
      <trkpt lat="46.04957" lon="-0.38757">
        <ele>74</ele>
        <time>2013-03-10T08:53:58.000Z</time>
      </trkpt>
      <trkpt lat="46.04957" lon="-0.38751">
        <ele>74.1</ele>
        <time>2013-03-10T08:53:59.000Z</time>
      </trkpt>
      <trkpt lat="46.04957" lon="-0.38744">
        <ele>74.2</ele>
        <time>2013-03-10T08:54:00.000Z</time>
      </trkpt>
      <trkpt lat="46.04957" lon="-0.38737">
        <ele>74.3</ele>
        <time>2013-03-10T08:54:01.000Z</time>
      </trkpt>
      <trkpt lat="46.04957" lon="-0.38724">
        <ele>74</ele>
        <time>2013-03-10T08:54:03.000Z</time>
      </trkpt>
      <trkpt lat="46.04956" lon="-0.38713">
        <ele>73.5</ele>
        <time>2013-03-10T08:54:05.000Z</time>
      </trkpt>
      <trkpt lat="46.04955" lon="-0.38702">
        <ele>73.6</ele>
        <time>2013-03-10T08:54:07.000Z</time>
      </trkpt>
      <trkpt lat="46.04954" lon="-0.38692">
        <ele>74</ele>
        <time>2013-03-10T08:54:09.000Z</time>
      </trkpt>
      <trkpt lat="46.04953" lon="-0.38681">
        <ele>74.1</ele>
        <time>2013-03-10T08:54:11.000Z</time>
      </trkpt>
      <trkpt lat="46.04951" lon="-0.3867">
        <ele>74.1</ele>
        <time>2013-03-10T08:54:13.000Z</time>
      </trkpt>
      <trkpt lat="46.04948" lon="-0.38659">
        <ele>74.1</ele>
        <time>2013-03-10T08:54:15.000Z</time>
      </trkpt>
      <trkpt lat="46.04944" lon="-0.38648">
        <ele>74.7</ele>
        <time>2013-03-10T08:54:17.000Z</time>
      </trkpt>
      <trkpt lat="46.0494" lon="-0.38637">
        <ele>74.6</ele>
        <time>2013-03-10T08:54:19.000Z</time>
      </trkpt>
      <trkpt lat="46.04936" lon="-0.38627">
        <ele>74.5</ele>
        <time>2013-03-10T08:54:21.000Z</time>
      </trkpt>
      <trkpt lat="46.04932" lon="-0.38617">
        <ele>74.1</ele>
        <time>2013-03-10T08:54:23.000Z</time>
      </trkpt>
      <trkpt lat="46.04927" lon="-0.38607">
        <ele>73.7</ele>
        <time>2013-03-10T08:54:25.000Z</time>
      </trkpt>
      <trkpt lat="46.04923" lon="-0.38598">
        <ele>73.7</ele>
        <time>2013-03-10T08:54:27.000Z</time>
      </trkpt>
      <trkpt lat="46.04919" lon="-0.3859">
        <ele>74.3</ele>
        <time>2013-03-10T08:54:29.000Z</time>
      </trkpt>
      <trkpt lat="46.04915" lon="-0.38581">
        <ele>75.3</ele>
        <time>2013-03-10T08:54:31.000Z</time>
      </trkpt>
      <trkpt lat="46.04911" lon="-0.38572">
        <ele>75.5</ele>
        <time>2013-03-10T08:54:33.000Z</time>
      </trkpt>
      <trkpt lat="46.04907" lon="-0.38563">
        <ele>75.3</ele>
        <time>2013-03-10T08:54:35.000Z</time>
      </trkpt>
      <trkpt lat="46.04903" lon="-0.38553">
        <ele>75.2</ele>
        <time>2013-03-10T08:54:37.000Z</time>
      </trkpt>
      <trkpt lat="46.04898" lon="-0.38542">
        <ele>75.1</ele>
        <time>2013-03-10T08:54:39.000Z</time>
      </trkpt>
      <trkpt lat="46.04895" lon="-0.38532">
        <ele>74.6</ele>
        <time>2013-03-10T08:54:41.000Z</time>
      </trkpt>
      <trkpt lat="46.04891" lon="-0.38521">
        <ele>75.4</ele>
        <time>2013-03-10T08:54:43.000Z</time>
      </trkpt>
      <trkpt lat="46.04887" lon="-0.3851">
        <ele>76</ele>
        <time>2013-03-10T08:54:45.000Z</time>
      </trkpt>
      <trkpt lat="46.04884" lon="-0.38499">
        <ele>76</ele>
        <time>2013-03-10T08:54:47.000Z</time>
      </trkpt>
      <trkpt lat="46.0488" lon="-0.38489">
        <ele>76</ele>
        <time>2013-03-10T08:54:49.000Z</time>
      </trkpt>
      <trkpt lat="46.04877" lon="-0.3848">
        <ele>76.2</ele>
        <time>2013-03-10T08:54:51.000Z</time>
      </trkpt>
      <trkpt lat="46.04873" lon="-0.38473">
        <ele>76</ele>
        <time>2013-03-10T08:54:53.000Z</time>
      </trkpt>
      <trkpt lat="46.04869" lon="-0.38464">
        <ele>75.6</ele>
        <time>2013-03-10T08:54:55.000Z</time>
      </trkpt>
      <trkpt lat="46.04865" lon="-0.38456">
        <ele>76.2</ele>
        <time>2013-03-10T08:54:57.000Z</time>
      </trkpt>
      <trkpt lat="46.04863" lon="-0.38453">
        <ele>76.4</ele>
        <time>2013-03-10T08:54:58.000Z</time>
      </trkpt>
      <trkpt lat="46.04858" lon="-0.38441">
        <ele>76.8</ele>
        <time>2013-03-10T08:55:01.000Z</time>
      </trkpt>
      <trkpt lat="46.04854" lon="-0.38433">
        <ele>76.7</ele>
        <time>2013-03-10T08:55:03.000Z</time>
      </trkpt>
      <trkpt lat="46.0485" lon="-0.38424">
        <ele>76.4</ele>
        <time>2013-03-10T08:55:05.000Z</time>
      </trkpt>
      <trkpt lat="46.04847" lon="-0.38416">
        <ele>76.8</ele>
        <time>2013-03-10T08:55:07.000Z</time>
      </trkpt>
      <trkpt lat="46.04843" lon="-0.38408">
        <ele>77.3</ele>
        <time>2013-03-10T08:55:09.000Z</time>
      </trkpt>
      <trkpt lat="46.04839" lon="-0.38397">
        <ele>77.7</ele>
        <time>2013-03-10T08:55:11.000Z</time>
      </trkpt>
      <trkpt lat="46.04837" lon="-0.3839">
        <ele>77.9</ele>
        <time>2013-03-10T08:55:12.000Z</time>
      </trkpt>
      <trkpt lat="46.04835" lon="-0.38384">
        <ele>78</ele>
        <time>2013-03-10T08:55:13.000Z</time>
      </trkpt>
      <trkpt lat="46.04831" lon="-0.38374">
        <ele>77.9</ele>
        <time>2013-03-10T08:55:15.000Z</time>
      </trkpt>
      <trkpt lat="46.04826" lon="-0.38364">
        <ele>77.6</ele>
        <time>2013-03-10T08:55:17.000Z</time>
      </trkpt>
      <trkpt lat="46.04822" lon="-0.38354">
        <ele>77.9</ele>
        <time>2013-03-10T08:55:19.000Z</time>
      </trkpt>
      <trkpt lat="46.04818" lon="-0.38345">
        <ele>78.3</ele>
        <time>2013-03-10T08:55:21.000Z</time>
      </trkpt>
      <trkpt lat="46.04813" lon="-0.38334">
        <ele>77.9</ele>
        <time>2013-03-10T08:55:23.000Z</time>
      </trkpt>
      <trkpt lat="46.04809" lon="-0.38323">
        <ele>77.8</ele>
        <time>2013-03-10T08:55:25.000Z</time>
      </trkpt>
      <trkpt lat="46.04806" lon="-0.38312">
        <ele>78</ele>
        <time>2013-03-10T08:55:27.000Z</time>
      </trkpt>
      <trkpt lat="46.04802" lon="-0.38302">
        <ele>78.3</ele>
        <time>2013-03-10T08:55:29.000Z</time>
      </trkpt>
      <trkpt lat="46.04799" lon="-0.38293">
        <ele>78.4</ele>
        <time>2013-03-10T08:55:31.000Z</time>
      </trkpt>
      <trkpt lat="46.04796" lon="-0.38285">
        <ele>78.1</ele>
        <time>2013-03-10T08:55:33.000Z</time>
      </trkpt>
      <trkpt lat="46.04792" lon="-0.38274">
        <ele>77.9</ele>
        <time>2013-03-10T08:55:35.000Z</time>
      </trkpt>
      <trkpt lat="46.04788" lon="-0.38263">
        <ele>77.8</ele>
        <time>2013-03-10T08:55:37.000Z</time>
      </trkpt>
      <trkpt lat="46.04785" lon="-0.38253">
        <ele>77.8</ele>
        <time>2013-03-10T08:55:39.000Z</time>
      </trkpt>
      <trkpt lat="46.04781" lon="-0.38243">
        <ele>77.8</ele>
        <time>2013-03-10T08:55:41.000Z</time>
      </trkpt>
      <trkpt lat="46.04779" lon="-0.38231">
        <ele>78.2</ele>
        <time>2013-03-10T08:55:43.000Z</time>
      </trkpt>
      <trkpt lat="46.04777" lon="-0.3822">
        <ele>77.9</ele>
        <time>2013-03-10T08:55:45.000Z</time>
      </trkpt>
      <trkpt lat="46.04776" lon="-0.38208">
        <ele>77.9</ele>
        <time>2013-03-10T08:55:47.000Z</time>
      </trkpt>
      <trkpt lat="46.04774" lon="-0.38198">
        <ele>77.8</ele>
        <time>2013-03-10T08:55:49.000Z</time>
      </trkpt>
      <trkpt lat="46.04772" lon="-0.38188">
        <ele>78.1</ele>
        <time>2013-03-10T08:55:51.000Z</time>
      </trkpt>
      <trkpt lat="46.04769" lon="-0.38177">
        <ele>78.2</ele>
        <time>2013-03-10T08:55:53.000Z</time>
      </trkpt>
      <trkpt lat="46.04767" lon="-0.38167">
        <ele>78</ele>
        <time>2013-03-10T08:55:55.000Z</time>
      </trkpt>
      <trkpt lat="46.04764" lon="-0.38158">
        <ele>78.7</ele>
        <time>2013-03-10T08:55:57.000Z</time>
      </trkpt>
      <trkpt lat="46.04762" lon="-0.38147">
        <ele>78.7</ele>
        <time>2013-03-10T08:55:59.000Z</time>
      </trkpt>
      <trkpt lat="46.04761" lon="-0.38142">
        <ele>78.7</ele>
        <time>2013-03-10T08:56:00.000Z</time>
      </trkpt>
      <trkpt lat="46.04756" lon="-0.38125">
        <ele>78.3</ele>
        <time>2013-03-10T08:56:03.000Z</time>
      </trkpt>
      <trkpt lat="46.04754" lon="-0.38113">
        <ele>78.1</ele>
        <time>2013-03-10T08:56:05.000Z</time>
      </trkpt>
      <trkpt lat="46.04751" lon="-0.38103">
        <ele>77.9</ele>
        <time>2013-03-10T08:56:07.000Z</time>
      </trkpt>
      <trkpt lat="46.04747" lon="-0.38093">
        <ele>77.9</ele>
        <time>2013-03-10T08:56:09.000Z</time>
      </trkpt>
      <trkpt lat="46.04744" lon="-0.38084">
        <ele>77.3</ele>
        <time>2013-03-10T08:56:11.000Z</time>
      </trkpt>
      <trkpt lat="46.0474" lon="-0.38073">
        <ele>77.2</ele>
        <time>2013-03-10T08:56:13.000Z</time>
      </trkpt>
      <trkpt lat="46.04736" lon="-0.38062">
        <ele>77</ele>
        <time>2013-03-10T08:56:15.000Z</time>
      </trkpt>
      <trkpt lat="46.04732" lon="-0.3805">
        <ele>77.1</ele>
        <time>2013-03-10T08:56:17.000Z</time>
      </trkpt>
      <trkpt lat="46.0473" lon="-0.38045">
        <ele>77.4</ele>
        <time>2013-03-10T08:56:18.000Z</time>
      </trkpt>
      <trkpt lat="46.04728" lon="-0.38039">
        <ele>77.6</ele>
        <time>2013-03-10T08:56:19.000Z</time>
      </trkpt>
      <trkpt lat="46.04726" lon="-0.38033">
        <ele>77.4</ele>
        <time>2013-03-10T08:56:20.000Z</time>
      </trkpt>
      <trkpt lat="46.04724" lon="-0.38027">
        <ele>77.2</ele>
        <time>2013-03-10T08:56:21.000Z</time>
      </trkpt>
      <trkpt lat="46.04722" lon="-0.38021">
        <ele>76.9</ele>
        <time>2013-03-10T08:56:22.000Z</time>
      </trkpt>
      <trkpt lat="46.04718" lon="-0.3801">
        <ele>76.9</ele>
        <time>2013-03-10T08:56:24.000Z</time>
      </trkpt>
      <trkpt lat="46.04714" lon="-0.37999">
        <ele>77.1</ele>
        <time>2013-03-10T08:56:26.000Z</time>
      </trkpt>
      <trkpt lat="46.04709" lon="-0.37989">
        <ele>77.1</ele>
        <time>2013-03-10T08:56:28.000Z</time>
      </trkpt>
      <trkpt lat="46.04707" lon="-0.37983">
        <ele>76.9</ele>
        <time>2013-03-10T08:56:29.000Z</time>
      </trkpt>
      <trkpt lat="46.04705" lon="-0.37977">
        <ele>76.7</ele>
        <time>2013-03-10T08:56:30.000Z</time>
      </trkpt>
      <trkpt lat="46.04703" lon="-0.37971">
        <ele>76.8</ele>
        <time>2013-03-10T08:56:31.000Z</time>
      </trkpt>
      <trkpt lat="46.047" lon="-0.37965">
        <ele>76.9</ele>
        <time>2013-03-10T08:56:32.000Z</time>
      </trkpt>
      <trkpt lat="46.04697" lon="-0.37959">
        <ele>77</ele>
        <time>2013-03-10T08:56:33.000Z</time>
      </trkpt>
      <trkpt lat="46.04694" lon="-0.37954">
        <ele>77.2</ele>
        <time>2013-03-10T08:56:34.000Z</time>
      </trkpt>
      <trkpt lat="46.04688" lon="-0.37945">
        <ele>77.4</ele>
        <time>2013-03-10T08:56:36.000Z</time>
      </trkpt>
      <trkpt lat="46.04682" lon="-0.37935">
        <ele>77.6</ele>
        <time>2013-03-10T08:56:38.000Z</time>
      </trkpt>
      <trkpt lat="46.04677" lon="-0.37926">
        <ele>77.2</ele>
        <time>2013-03-10T08:56:40.000Z</time>
      </trkpt>
      <trkpt lat="46.04672" lon="-0.37916">
        <ele>76.8</ele>
        <time>2013-03-10T08:56:42.000Z</time>
      </trkpt>
      <trkpt lat="46.04666" lon="-0.37906">
        <ele>76.4</ele>
        <time>2013-03-10T08:56:44.000Z</time>
      </trkpt>
      <trkpt lat="46.04662" lon="-0.37897">
        <ele>75.9</ele>
        <time>2013-03-10T08:56:46.000Z</time>
      </trkpt>
      <trkpt lat="46.04663" lon="-0.37885">
        <ele>75.8</ele>
        <time>2013-03-10T08:56:49.000Z</time>
      </trkpt>
      <trkpt lat="46.04668" lon="-0.37881">
        <ele>75.8</ele>
        <time>2013-03-10T08:56:51.000Z</time>
      </trkpt>
      <trkpt lat="46.04674" lon="-0.37876">
        <ele>75.9</ele>
        <time>2013-03-10T08:56:53.000Z</time>
      </trkpt>
      <trkpt lat="46.04679" lon="-0.3787">
        <ele>76.3</ele>
        <time>2013-03-10T08:56:55.000Z</time>
      </trkpt>
      <trkpt lat="46.04684" lon="-0.37864">
        <ele>76.6</ele>
        <time>2013-03-10T08:56:57.000Z</time>
      </trkpt>
      <trkpt lat="46.04688" lon="-0.37857">
        <ele>76.9</ele>
        <time>2013-03-10T08:56:59.000Z</time>
      </trkpt>
      <trkpt lat="46.04692" lon="-0.3785">
        <ele>76.7</ele>
        <time>2013-03-10T08:57:01.000Z</time>
      </trkpt>
      <trkpt lat="46.04694" lon="-0.37846">
        <ele>76.9</ele>
        <time>2013-03-10T08:57:02.000Z</time>
      </trkpt>
      <trkpt lat="46.04701" lon="-0.37833">
        <ele>77.2</ele>
        <time>2013-03-10T08:57:05.000Z</time>
      </trkpt>
      <trkpt lat="46.04706" lon="-0.37824">
        <ele>77.3</ele>
        <time>2013-03-10T08:57:07.000Z</time>
      </trkpt>
      <trkpt lat="46.04711" lon="-0.37814">
        <ele>77.4</ele>
        <time>2013-03-10T08:57:09.000Z</time>
      </trkpt>
      <trkpt lat="46.04715" lon="-0.37803">
        <ele>77.3</ele>
        <time>2013-03-10T08:57:11.000Z</time>
      </trkpt>
      <trkpt lat="46.04717" lon="-0.37797">
        <ele>77.3</ele>
        <time>2013-03-10T08:57:12.000Z</time>
      </trkpt>
      <trkpt lat="46.04719" lon="-0.37791">
        <ele>77.2</ele>
        <time>2013-03-10T08:57:13.000Z</time>
      </trkpt>
      <trkpt lat="46.04721" lon="-0.37785">
        <ele>77.4</ele>
        <time>2013-03-10T08:57:14.000Z</time>
      </trkpt>
      <trkpt lat="46.04722" lon="-0.37779">
        <ele>77.6</ele>
        <time>2013-03-10T08:57:15.000Z</time>
      </trkpt>
      <trkpt lat="46.04725" lon="-0.37767">
        <ele>77.9</ele>
        <time>2013-03-10T08:57:17.000Z</time>
      </trkpt>
      <trkpt lat="46.04728" lon="-0.37757">
        <ele>78.2</ele>
        <time>2013-03-10T08:57:19.000Z</time>
      </trkpt>
      <trkpt lat="46.04731" lon="-0.37747">
        <ele>78.2</ele>
        <time>2013-03-10T08:57:21.000Z</time>
      </trkpt>
      <trkpt lat="46.04733" lon="-0.37739">
        <ele>78.1</ele>
        <time>2013-03-10T08:57:23.000Z</time>
      </trkpt>
      <trkpt lat="46.04735" lon="-0.37726">
        <ele>78.1</ele>
        <time>2013-03-10T08:57:26.000Z</time>
      </trkpt>
      <trkpt lat="46.04738" lon="-0.37716">
        <ele>77.9</ele>
        <time>2013-03-10T08:57:29.000Z</time>
      </trkpt>
      <trkpt lat="46.0474" lon="-0.37706">
        <ele>78.1</ele>
        <time>2013-03-10T08:57:32.000Z</time>
      </trkpt>
      <trkpt lat="46.04742" lon="-0.37698">
        <ele>78.7</ele>
        <time>2013-03-10T08:57:34.000Z</time>
      </trkpt>
      <trkpt lat="46.04744" lon="-0.37689">
        <ele>78.8</ele>
        <time>2013-03-10T08:57:36.000Z</time>
      </trkpt>
      <trkpt lat="46.04747" lon="-0.37679">
        <ele>79</ele>
        <time>2013-03-10T08:57:38.000Z</time>
      </trkpt>
      <trkpt lat="46.0475" lon="-0.37668">
        <ele>78.9</ele>
        <time>2013-03-10T08:57:40.000Z</time>
      </trkpt>
      <trkpt lat="46.04752" lon="-0.37657">
        <ele>78.6</ele>
        <time>2013-03-10T08:57:42.000Z</time>
      </trkpt>
      <trkpt lat="46.04755" lon="-0.37646">
        <ele>78.4</ele>
        <time>2013-03-10T08:57:44.000Z</time>
      </trkpt>
      <trkpt lat="46.04757" lon="-0.3764">
        <ele>78.3</ele>
        <time>2013-03-10T08:57:45.000Z</time>
      </trkpt>
      <trkpt lat="46.04758" lon="-0.37633">
        <ele>78.3</ele>
        <time>2013-03-10T08:57:46.000Z</time>
      </trkpt>
      <trkpt lat="46.0476" lon="-0.37627">
        <ele>78.6</ele>
        <time>2013-03-10T08:57:47.000Z</time>
      </trkpt>
      <trkpt lat="46.04762" lon="-0.37621">
        <ele>78.9</ele>
        <time>2013-03-10T08:57:48.000Z</time>
      </trkpt>
      <trkpt lat="46.04764" lon="-0.37615">
        <ele>79.1</ele>
        <time>2013-03-10T08:57:49.000Z</time>
      </trkpt>
      <trkpt lat="46.04766" lon="-0.37608">
        <ele>78.8</ele>
        <time>2013-03-10T08:57:50.000Z</time>
      </trkpt>
      <trkpt lat="46.04768" lon="-0.37602">
        <ele>78.6</ele>
        <time>2013-03-10T08:57:51.000Z</time>
      </trkpt>
      <trkpt lat="46.04769" lon="-0.37595">
        <ele>78.4</ele>
        <time>2013-03-10T08:57:52.000Z</time>
      </trkpt>
      <trkpt lat="46.04771" lon="-0.37589">
        <ele>78.3</ele>
        <time>2013-03-10T08:57:53.000Z</time>
      </trkpt>
      <trkpt lat="46.04773" lon="-0.37583">
        <ele>78.5</ele>
        <time>2013-03-10T08:57:54.000Z</time>
      </trkpt>
      <trkpt lat="46.04775" lon="-0.37576">
        <ele>78.6</ele>
        <time>2013-03-10T08:57:55.000Z</time>
      </trkpt>
      <trkpt lat="46.04778" lon="-0.3757">
        <ele>78.7</ele>
        <time>2013-03-10T08:57:56.000Z</time>
      </trkpt>
      <trkpt lat="46.0478" lon="-0.37563">
        <ele>78.8</ele>
        <time>2013-03-10T08:57:57.000Z</time>
      </trkpt>
      <trkpt lat="46.04782" lon="-0.37557">
        <ele>78.9</ele>
        <time>2013-03-10T08:57:58.000Z</time>
      </trkpt>
      <trkpt lat="46.04785" lon="-0.3755">
        <ele>78.8</ele>
        <time>2013-03-10T08:57:59.000Z</time>
      </trkpt>
      <trkpt lat="46.04787" lon="-0.37544">
        <ele>78.8</ele>
        <time>2013-03-10T08:58:00.000Z</time>
      </trkpt>
      <trkpt lat="46.0479" lon="-0.37537">
        <ele>78.8</ele>
        <time>2013-03-10T08:58:01.000Z</time>
      </trkpt>
      <trkpt lat="46.04792" lon="-0.37531">
        <ele>79.3</ele>
        <time>2013-03-10T08:58:02.000Z</time>
      </trkpt>
      <trkpt lat="46.04794" lon="-0.37524">
        <ele>79.7</ele>
        <time>2013-03-10T08:58:03.000Z</time>
      </trkpt>
      <trkpt lat="46.04796" lon="-0.37518">
        <ele>79.3</ele>
        <time>2013-03-10T08:58:04.000Z</time>
      </trkpt>
      <trkpt lat="46.04799" lon="-0.37511">
        <ele>79</ele>
        <time>2013-03-10T08:58:05.000Z</time>
      </trkpt>
      <trkpt lat="46.04801" lon="-0.37504">
        <ele>79.2</ele>
        <time>2013-03-10T08:58:06.000Z</time>
      </trkpt>
      <trkpt lat="46.04804" lon="-0.37498">
        <ele>79.4</ele>
        <time>2013-03-10T08:58:07.000Z</time>
      </trkpt>
      <trkpt lat="46.04806" lon="-0.37491">
        <ele>79.5</ele>
        <time>2013-03-10T08:58:08.000Z</time>
      </trkpt>
      <trkpt lat="46.04809" lon="-0.37485">
        <ele>79.3</ele>
        <time>2013-03-10T08:58:09.000Z</time>
      </trkpt>
      <trkpt lat="46.04811" lon="-0.37478">
        <ele>79.1</ele>
        <time>2013-03-10T08:58:10.000Z</time>
      </trkpt>
      <trkpt lat="46.04813" lon="-0.37471">
        <ele>79</ele>
        <time>2013-03-10T08:58:11.000Z</time>
      </trkpt>
      <trkpt lat="46.04816" lon="-0.37464">
        <ele>78.9</ele>
        <time>2013-03-10T08:58:12.000Z</time>
      </trkpt>
      <trkpt lat="46.04818" lon="-0.37457">
        <ele>79.1</ele>
        <time>2013-03-10T08:58:13.000Z</time>
      </trkpt>
      <trkpt lat="46.0482" lon="-0.37449">
        <ele>79.3</ele>
        <time>2013-03-10T08:58:14.000Z</time>
      </trkpt>
      <trkpt lat="46.04822" lon="-0.37442">
        <ele>79.5</ele>
        <time>2013-03-10T08:58:15.000Z</time>
      </trkpt>
      <trkpt lat="46.04824" lon="-0.37434">
        <ele>79.1</ele>
        <time>2013-03-10T08:58:16.000Z</time>
      </trkpt>
      <trkpt lat="46.04825" lon="-0.37427">
        <ele>78.8</ele>
        <time>2013-03-10T08:58:17.000Z</time>
      </trkpt>
      <trkpt lat="46.04826" lon="-0.37419">
        <ele>78.8</ele>
        <time>2013-03-10T08:58:18.000Z</time>
      </trkpt>
      <trkpt lat="46.04828" lon="-0.37412">
        <ele>78.8</ele>
        <time>2013-03-10T08:58:19.000Z</time>
      </trkpt>
      <trkpt lat="46.04829" lon="-0.37404">
        <ele>78.9</ele>
        <time>2013-03-10T08:58:20.000Z</time>
      </trkpt>
      <trkpt lat="46.04831" lon="-0.37397">
        <ele>78.8</ele>
        <time>2013-03-10T08:58:21.000Z</time>
      </trkpt>
      <trkpt lat="46.04832" lon="-0.3739">
        <ele>78.8</ele>
        <time>2013-03-10T08:58:22.000Z</time>
      </trkpt>
      <trkpt lat="46.04834" lon="-0.37383">
        <ele>78.7</ele>
        <time>2013-03-10T08:58:23.000Z</time>
      </trkpt>
      <trkpt lat="46.04836" lon="-0.37376">
        <ele>78.6</ele>
        <time>2013-03-10T08:58:24.000Z</time>
      </trkpt>
      <trkpt lat="46.04837" lon="-0.37369">
        <ele>78.7</ele>
        <time>2013-03-10T08:58:25.000Z</time>
      </trkpt>
      <trkpt lat="46.04839" lon="-0.37362">
        <ele>78.8</ele>
        <time>2013-03-10T08:58:26.000Z</time>
      </trkpt>
      <trkpt lat="46.04841" lon="-0.37355">
        <ele>78.8</ele>
        <time>2013-03-10T08:58:27.000Z</time>
      </trkpt>
      <trkpt lat="46.04843" lon="-0.37348">
        <ele>78.9</ele>
        <time>2013-03-10T08:58:28.000Z</time>
      </trkpt>
      <trkpt lat="46.04846" lon="-0.37341">
        <ele>79</ele>
        <time>2013-03-10T08:58:29.000Z</time>
      </trkpt>
      <trkpt lat="46.04848" lon="-0.37333">
        <ele>79</ele>
        <time>2013-03-10T08:58:30.000Z</time>
      </trkpt>
      <trkpt lat="46.04851" lon="-0.37326">
        <ele>79</ele>
        <time>2013-03-10T08:58:31.000Z</time>
      </trkpt>
      <trkpt lat="46.04854" lon="-0.3732">
        <ele>79.1</ele>
        <time>2013-03-10T08:58:32.000Z</time>
      </trkpt>
      <trkpt lat="46.04857" lon="-0.37314">
        <ele>79.1</ele>
        <time>2013-03-10T08:58:33.000Z</time>
      </trkpt>
      <trkpt lat="46.04861" lon="-0.37308">
        <ele>79.1</ele>
        <time>2013-03-10T08:58:34.000Z</time>
      </trkpt>
      <trkpt lat="46.04866" lon="-0.37304">
        <ele>78.8</ele>
        <time>2013-03-10T08:58:35.000Z</time>
      </trkpt>
      <trkpt lat="46.0487" lon="-0.37299">
        <ele>78.6</ele>
        <time>2013-03-10T08:58:36.000Z</time>
      </trkpt>
      <trkpt lat="46.04875" lon="-0.37294">
        <ele>78.7</ele>
        <time>2013-03-10T08:58:37.000Z</time>
      </trkpt>
      <trkpt lat="46.04879" lon="-0.3729">
        <ele>78.8</ele>
        <time>2013-03-10T08:58:38.000Z</time>
      </trkpt>
      <trkpt lat="46.04883" lon="-0.37284">
        <ele>78.8</ele>
        <time>2013-03-10T08:58:39.000Z</time>
      </trkpt>
      <trkpt lat="46.04887" lon="-0.37279">
        <ele>78.6</ele>
        <time>2013-03-10T08:58:40.000Z</time>
      </trkpt>
      <trkpt lat="46.04891" lon="-0.37273">
        <ele>78.5</ele>
        <time>2013-03-10T08:58:41.000Z</time>
      </trkpt>
      <trkpt lat="46.04894" lon="-0.37266">
        <ele>78.4</ele>
        <time>2013-03-10T08:58:42.000Z</time>
      </trkpt>
      <trkpt lat="46.04896" lon="-0.3726">
        <ele>78.4</ele>
        <time>2013-03-10T08:58:43.000Z</time>
      </trkpt>
      <trkpt lat="46.04896" lon="-0.37247">
        <ele>78.5</ele>
        <time>2013-03-10T08:58:45.000Z</time>
      </trkpt>
      <trkpt lat="46.04897" lon="-0.37235">
        <ele>78.3</ele>
        <time>2013-03-10T08:58:47.000Z</time>
      </trkpt>
      <trkpt lat="46.04899" lon="-0.37224">
        <ele>78.2</ele>
        <time>2013-03-10T08:58:49.000Z</time>
      </trkpt>
      <trkpt lat="46.04901" lon="-0.37212">
        <ele>78.6</ele>
        <time>2013-03-10T08:58:51.000Z</time>
      </trkpt>
      <trkpt lat="46.04902" lon="-0.372">
        <ele>79.2</ele>
        <time>2013-03-10T08:58:53.000Z</time>
      </trkpt>
      <trkpt lat="46.04903" lon="-0.37188">
        <ele>80</ele>
        <time>2013-03-10T08:58:55.000Z</time>
      </trkpt>
      <trkpt lat="46.04907" lon="-0.37178">
        <ele>80.5</ele>
        <time>2013-03-10T08:58:57.000Z</time>
      </trkpt>
      <trkpt lat="46.04912" lon="-0.37168">
        <ele>80.7</ele>
        <time>2013-03-10T08:58:59.000Z</time>
      </trkpt>
      <trkpt lat="46.04916" lon="-0.37157">
        <ele>80.6</ele>
        <time>2013-03-10T08:59:01.000Z</time>
      </trkpt>
      <trkpt lat="46.04921" lon="-0.37146">
        <ele>80.2</ele>
        <time>2013-03-10T08:59:03.000Z</time>
      </trkpt>
      <trkpt lat="46.04923" lon="-0.37142">
        <ele>80.1</ele>
        <time>2013-03-10T08:59:04.000Z</time>
      </trkpt>
      <trkpt lat="46.04932" lon="-0.37128">
        <ele>80.1</ele>
        <time>2013-03-10T08:59:07.000Z</time>
      </trkpt>
      <trkpt lat="46.04938" lon="-0.37119">
        <ele>80.7</ele>
        <time>2013-03-10T08:59:09.000Z</time>
      </trkpt>
      <trkpt lat="46.04944" lon="-0.3711">
        <ele>80.3</ele>
        <time>2013-03-10T08:59:11.000Z</time>
      </trkpt>
      <trkpt lat="46.0495" lon="-0.37101">
        <ele>80.3</ele>
        <time>2013-03-10T08:59:13.000Z</time>
      </trkpt>
      <trkpt lat="46.04956" lon="-0.37093">
        <ele>80.3</ele>
        <time>2013-03-10T08:59:15.000Z</time>
      </trkpt>
      <trkpt lat="46.04962" lon="-0.37084">
        <ele>80.5</ele>
        <time>2013-03-10T08:59:17.000Z</time>
      </trkpt>
      <trkpt lat="46.04968" lon="-0.37077">
        <ele>80.8</ele>
        <time>2013-03-10T08:59:19.000Z</time>
      </trkpt>
      <trkpt lat="46.04974" lon="-0.37069">
        <ele>81.1</ele>
        <time>2013-03-10T08:59:21.000Z</time>
      </trkpt>
      <trkpt lat="46.04981" lon="-0.37061">
        <ele>81.1</ele>
        <time>2013-03-10T08:59:23.000Z</time>
      </trkpt>
      <trkpt lat="46.04987" lon="-0.37053">
        <ele>81.4</ele>
        <time>2013-03-10T08:59:25.000Z</time>
      </trkpt>
      <trkpt lat="46.04993" lon="-0.37045">
        <ele>81.2</ele>
        <time>2013-03-10T08:59:27.000Z</time>
      </trkpt>
      <trkpt lat="46.04999" lon="-0.37036">
        <ele>81.2</ele>
        <time>2013-03-10T08:59:29.000Z</time>
      </trkpt>
      <trkpt lat="46.05005" lon="-0.37026">
        <ele>81.4</ele>
        <time>2013-03-10T08:59:31.000Z</time>
      </trkpt>
      <trkpt lat="46.05008" lon="-0.37021">
        <ele>81.6</ele>
        <time>2013-03-10T08:59:32.000Z</time>
      </trkpt>
      <trkpt lat="46.05011" lon="-0.37016">
        <ele>81.7</ele>
        <time>2013-03-10T08:59:33.000Z</time>
      </trkpt>
      <trkpt lat="46.05013" lon="-0.37011">
        <ele>81.5</ele>
        <time>2013-03-10T08:59:34.000Z</time>
      </trkpt>
      <trkpt lat="46.05016" lon="-0.37005">
        <ele>81.4</ele>
        <time>2013-03-10T08:59:35.000Z</time>
      </trkpt>
      <trkpt lat="46.05019" lon="-0.37">
        <ele>81.3</ele>
        <time>2013-03-10T08:59:36.000Z</time>
      </trkpt>
      <trkpt lat="46.05024" lon="-0.3699">
        <ele>81</ele>
        <time>2013-03-10T08:59:38.000Z</time>
      </trkpt>
      <trkpt lat="46.0503" lon="-0.36985">
        <ele>81.1</ele>
        <time>2013-03-10T08:59:40.000Z</time>
      </trkpt>
      <trkpt lat="46.05035" lon="-0.36977">
        <ele>81.3</ele>
        <time>2013-03-10T08:59:42.000Z</time>
      </trkpt>
      <trkpt lat="46.0504" lon="-0.36969">
        <ele>81</ele>
        <time>2013-03-10T08:59:44.000Z</time>
      </trkpt>
      <trkpt lat="46.05045" lon="-0.36962">
        <ele>80.8</ele>
        <time>2013-03-10T08:59:46.000Z</time>
      </trkpt>
      <trkpt lat="46.0505" lon="-0.36956">
        <ele>80.7</ele>
        <time>2013-03-10T08:59:48.000Z</time>
      </trkpt>
      <trkpt lat="46.05055" lon="-0.36948">
        <ele>80.6</ele>
        <time>2013-03-10T08:59:50.000Z</time>
      </trkpt>
      <trkpt lat="46.0506" lon="-0.3694">
        <ele>81.1</ele>
        <time>2013-03-10T08:59:52.000Z</time>
      </trkpt>
      <trkpt lat="46.05065" lon="-0.36932">
        <ele>81.7</ele>
        <time>2013-03-10T08:59:54.000Z</time>
      </trkpt>
      <trkpt lat="46.05071" lon="-0.36923">
        <ele>82.4</ele>
        <time>2013-03-10T08:59:56.000Z</time>
      </trkpt>
      <trkpt lat="46.05076" lon="-0.36914">
        <ele>82.6</ele>
        <time>2013-03-10T08:59:58.000Z</time>
      </trkpt>
      <trkpt lat="46.05082" lon="-0.36905">
        <ele>82.5</ele>
        <time>2013-03-10T09:00:00.000Z</time>
      </trkpt>
      <trkpt lat="46.05087" lon="-0.36898">
        <ele>82.5</ele>
        <time>2013-03-10T09:00:02.000Z</time>
      </trkpt>
      <trkpt lat="46.05093" lon="-0.3689">
        <ele>82.5</ele>
        <time>2013-03-10T09:00:04.000Z</time>
      </trkpt>
      <trkpt lat="46.05096" lon="-0.36887">
        <ele>82.8</ele>
        <time>2013-03-10T09:00:05.000Z</time>
      </trkpt>
      <trkpt lat="46.05105" lon="-0.36876">
        <ele>83.3</ele>
        <time>2013-03-10T09:00:08.000Z</time>
      </trkpt>
      <trkpt lat="46.0511" lon="-0.36868">
        <ele>83.5</ele>
        <time>2013-03-10T09:00:10.000Z</time>
      </trkpt>
      <trkpt lat="46.05109" lon="-0.36856">
        <ele>84.2</ele>
        <time>2013-03-10T09:00:13.000Z</time>
      </trkpt>
      <trkpt lat="46.05106" lon="-0.36847">
        <ele>84.1</ele>
        <time>2013-03-10T09:00:15.000Z</time>
      </trkpt>
      <trkpt lat="46.05103" lon="-0.36839">
        <ele>84.5</ele>
        <time>2013-03-10T09:00:17.000Z</time>
      </trkpt>
      <trkpt lat="46.05099" lon="-0.3683">
        <ele>85</ele>
        <time>2013-03-10T09:00:19.000Z</time>
      </trkpt>
      <trkpt lat="46.05096" lon="-0.36821">
        <ele>85.3</ele>
        <time>2013-03-10T09:00:21.000Z</time>
      </trkpt>
      <trkpt lat="46.05092" lon="-0.36813">
        <ele>85.1</ele>
        <time>2013-03-10T09:00:23.000Z</time>
      </trkpt>
      <trkpt lat="46.05088" lon="-0.36806">
        <ele>85.7</ele>
        <time>2013-03-10T09:00:25.000Z</time>
      </trkpt>
      <trkpt lat="46.05084" lon="-0.36798">
        <ele>85.6</ele>
        <time>2013-03-10T09:00:27.000Z</time>
      </trkpt>
      <trkpt lat="46.05081" lon="-0.3679">
        <ele>85.7</ele>
        <time>2013-03-10T09:00:29.000Z</time>
      </trkpt>
      <trkpt lat="46.05079" lon="-0.36781">
        <ele>85.9</ele>
        <time>2013-03-10T09:00:31.000Z</time>
      </trkpt>
      <trkpt lat="46.05077" lon="-0.36772">
        <ele>86.3</ele>
        <time>2013-03-10T09:00:33.000Z</time>
      </trkpt>
      <trkpt lat="46.05075" lon="-0.36762">
        <ele>86.7</ele>
        <time>2013-03-10T09:00:35.000Z</time>
      </trkpt>
      <trkpt lat="46.05073" lon="-0.36753">
        <ele>87.2</ele>
        <time>2013-03-10T09:00:37.000Z</time>
      </trkpt>
      <trkpt lat="46.05073" lon="-0.36744">
        <ele>87.7</ele>
        <time>2013-03-10T09:00:39.000Z</time>
      </trkpt>
      <trkpt lat="46.05072" lon="-0.36734">
        <ele>88</ele>
        <time>2013-03-10T09:00:41.000Z</time>
      </trkpt>
      <trkpt lat="46.0507" lon="-0.36725">
        <ele>88</ele>
        <time>2013-03-10T09:00:43.000Z</time>
      </trkpt>
      <trkpt lat="46.05069" lon="-0.36716">
        <ele>88.6</ele>
        <time>2013-03-10T09:00:45.000Z</time>
      </trkpt>
      <trkpt lat="46.05069" lon="-0.36707">
        <ele>89.4</ele>
        <time>2013-03-10T09:00:47.000Z</time>
      </trkpt>
      <trkpt lat="46.05068" lon="-0.36697">
        <ele>89.2</ele>
        <time>2013-03-10T09:00:49.000Z</time>
      </trkpt>
      <trkpt lat="46.05067" lon="-0.36688">
        <ele>89.1</ele>
        <time>2013-03-10T09:00:51.000Z</time>
      </trkpt>
      <trkpt lat="46.05066" lon="-0.36676">
        <ele>89.5</ele>
        <time>2013-03-10T09:00:53.000Z</time>
      </trkpt>
      <trkpt lat="46.05065" lon="-0.36665">
        <ele>89.8</ele>
        <time>2013-03-10T09:00:55.000Z</time>
      </trkpt>
      <trkpt lat="46.05065" lon="-0.36653">
        <ele>89.9</ele>
        <time>2013-03-10T09:00:57.000Z</time>
      </trkpt>
      <trkpt lat="46.05064" lon="-0.36642">
        <ele>89.8</ele>
        <time>2013-03-10T09:00:59.000Z</time>
      </trkpt>
      <trkpt lat="46.05064" lon="-0.36632">
        <ele>89.7</ele>
        <time>2013-03-10T09:01:01.000Z</time>
      </trkpt>
      <trkpt lat="46.05064" lon="-0.36622">
        <ele>90</ele>
        <time>2013-03-10T09:01:03.000Z</time>
      </trkpt>
      <trkpt lat="46.05064" lon="-0.36612">
        <ele>90.2</ele>
        <time>2013-03-10T09:01:05.000Z</time>
      </trkpt>
      <trkpt lat="46.05064" lon="-0.36606">
        <ele>90.3</ele>
        <time>2013-03-10T09:01:06.000Z</time>
      </trkpt>
      <trkpt lat="46.05063" lon="-0.36589">
        <ele>90.7</ele>
        <time>2013-03-10T09:01:09.000Z</time>
      </trkpt>
      <trkpt lat="46.05063" lon="-0.36576">
        <ele>90.6</ele>
        <time>2013-03-10T09:01:11.000Z</time>
      </trkpt>
      <trkpt lat="46.05063" lon="-0.36564">
        <ele>90.5</ele>
        <time>2013-03-10T09:01:13.000Z</time>
      </trkpt>
      <trkpt lat="46.05064" lon="-0.36552">
        <ele>91.4</ele>
        <time>2013-03-10T09:01:15.000Z</time>
      </trkpt>
      <trkpt lat="46.05065" lon="-0.36541">
        <ele>91.7</ele>
        <time>2013-03-10T09:01:17.000Z</time>
      </trkpt>
      <trkpt lat="46.05067" lon="-0.3653">
        <ele>91.3</ele>
        <time>2013-03-10T09:01:19.000Z</time>
      </trkpt>
      <trkpt lat="46.05068" lon="-0.36518">
        <ele>91.7</ele>
        <time>2013-03-10T09:01:21.000Z</time>
      </trkpt>
      <trkpt lat="46.0507" lon="-0.36508">
        <ele>92</ele>
        <time>2013-03-10T09:01:23.000Z</time>
      </trkpt>
      <trkpt lat="46.05071" lon="-0.36498">
        <ele>92.1</ele>
        <time>2013-03-10T09:01:25.000Z</time>
      </trkpt>
      <trkpt lat="46.05073" lon="-0.36487">
        <ele>92.3</ele>
        <time>2013-03-10T09:01:27.000Z</time>
      </trkpt>
      <trkpt lat="46.05075" lon="-0.36476">
        <ele>92.5</ele>
        <time>2013-03-10T09:01:29.000Z</time>
      </trkpt>
      <trkpt lat="46.05076" lon="-0.36465">
        <ele>92.7</ele>
        <time>2013-03-10T09:01:31.000Z</time>
      </trkpt>
      <trkpt lat="46.05077" lon="-0.36455">
        <ele>92.8</ele>
        <time>2013-03-10T09:01:33.000Z</time>
      </trkpt>
      <trkpt lat="46.05079" lon="-0.36445">
        <ele>92.8</ele>
        <time>2013-03-10T09:01:35.000Z</time>
      </trkpt>
      <trkpt lat="46.05081" lon="-0.36434">
        <ele>92.8</ele>
        <time>2013-03-10T09:01:37.000Z</time>
      </trkpt>
      <trkpt lat="46.05083" lon="-0.36425">
        <ele>92.8</ele>
        <time>2013-03-10T09:01:39.000Z</time>
      </trkpt>
      <trkpt lat="46.05084" lon="-0.36415">
        <ele>93.1</ele>
        <time>2013-03-10T09:01:41.000Z</time>
      </trkpt>
      <trkpt lat="46.05085" lon="-0.36405">
        <ele>93.2</ele>
        <time>2013-03-10T09:01:43.000Z</time>
      </trkpt>
      <trkpt lat="46.05087" lon="-0.36394">
        <ele>93.5</ele>
        <time>2013-03-10T09:01:45.000Z</time>
      </trkpt>
      <trkpt lat="46.05089" lon="-0.36384">
        <ele>93.6</ele>
        <time>2013-03-10T09:01:47.000Z</time>
      </trkpt>
      <trkpt lat="46.0509" lon="-0.36373">
        <ele>93.7</ele>
        <time>2013-03-10T09:01:49.000Z</time>
      </trkpt>
      <trkpt lat="46.05092" lon="-0.36362">
        <ele>93.8</ele>
        <time>2013-03-10T09:01:51.000Z</time>
      </trkpt>
      <trkpt lat="46.05093" lon="-0.3635">
        <ele>93.8</ele>
        <time>2013-03-10T09:01:53.000Z</time>
      </trkpt>
      <trkpt lat="46.05095" lon="-0.36338">
        <ele>93.8</ele>
        <time>2013-03-10T09:01:55.000Z</time>
      </trkpt>
      <trkpt lat="46.05097" lon="-0.36328">
        <ele>94</ele>
        <time>2013-03-10T09:01:57.000Z</time>
      </trkpt>
      <trkpt lat="46.05099" lon="-0.36317">
        <ele>94.1</ele>
        <time>2013-03-10T09:01:59.000Z</time>
      </trkpt>
      <trkpt lat="46.05101" lon="-0.36305">
        <ele>93.9</ele>
        <time>2013-03-10T09:02:01.000Z</time>
      </trkpt>
      <trkpt lat="46.05102" lon="-0.36292">
        <ele>93.7</ele>
        <time>2013-03-10T09:02:03.000Z</time>
      </trkpt>
      <trkpt lat="46.05103" lon="-0.3628">
        <ele>94</ele>
        <time>2013-03-10T09:02:05.000Z</time>
      </trkpt>
      <trkpt lat="46.05105" lon="-0.36268">
        <ele>94.1</ele>
        <time>2013-03-10T09:02:07.000Z</time>
      </trkpt>
      <trkpt lat="46.05106" lon="-0.36261">
        <ele>94</ele>
        <time>2013-03-10T09:02:08.000Z</time>
      </trkpt>
      <trkpt lat="46.05108" lon="-0.36245">
        <ele>93.7</ele>
        <time>2013-03-10T09:02:11.000Z</time>
      </trkpt>
      <trkpt lat="46.05114" lon="-0.36237">
        <ele>93.7</ele>
        <time>2013-03-10T09:02:13.000Z</time>
      </trkpt>
      <trkpt lat="46.05121" lon="-0.36235">
        <ele>93.7</ele>
        <time>2013-03-10T09:02:15.000Z</time>
      </trkpt>
      <trkpt lat="46.05128" lon="-0.36231">
        <ele>93.9</ele>
        <time>2013-03-10T09:02:17.000Z</time>
      </trkpt>
      <trkpt lat="46.05136" lon="-0.36228">
        <ele>94.2</ele>
        <time>2013-03-10T09:02:19.000Z</time>
      </trkpt>
      <trkpt lat="46.05143" lon="-0.36225">
        <ele>93.8</ele>
        <time>2013-03-10T09:02:21.000Z</time>
      </trkpt>
      <trkpt lat="46.0515" lon="-0.36224">
        <ele>94</ele>
        <time>2013-03-10T09:02:23.000Z</time>
      </trkpt>
      <trkpt lat="46.05157" lon="-0.36226">
        <ele>94.2</ele>
        <time>2013-03-10T09:02:25.000Z</time>
      </trkpt>
      <trkpt lat="46.05163" lon="-0.3623">
        <ele>94.5</ele>
        <time>2013-03-10T09:02:27.000Z</time>
      </trkpt>
      <trkpt lat="46.0517" lon="-0.36234">
        <ele>94.9</ele>
        <time>2013-03-10T09:02:29.000Z</time>
      </trkpt>
      <trkpt lat="46.05176" lon="-0.36239">
        <ele>95.5</ele>
        <time>2013-03-10T09:02:31.000Z</time>
      </trkpt>
      <trkpt lat="46.05182" lon="-0.36243">
        <ele>96.1</ele>
        <time>2013-03-10T09:02:33.000Z</time>
      </trkpt>
      <trkpt lat="46.05189" lon="-0.36245">
        <ele>96</ele>
        <time>2013-03-10T09:02:35.000Z</time>
      </trkpt>
      <trkpt lat="46.05196" lon="-0.36245">
        <ele>95.7</ele>
        <time>2013-03-10T09:02:37.000Z</time>
      </trkpt>
      <trkpt lat="46.05204" lon="-0.36242">
        <ele>95.5</ele>
        <time>2013-03-10T09:02:39.000Z</time>
      </trkpt>
      <trkpt lat="46.0521" lon="-0.36239">
        <ele>95.4</ele>
        <time>2013-03-10T09:02:41.000Z</time>
      </trkpt>
      <trkpt lat="46.05217" lon="-0.36235">
        <ele>95.8</ele>
        <time>2013-03-10T09:02:43.000Z</time>
      </trkpt>
      <trkpt lat="46.05224" lon="-0.36233">
        <ele>96</ele>
        <time>2013-03-10T09:02:45.000Z</time>
      </trkpt>
      <trkpt lat="46.05229" lon="-0.36229">
        <ele>95.9</ele>
        <time>2013-03-10T09:02:47.000Z</time>
      </trkpt>
      <trkpt lat="46.05236" lon="-0.36225">
        <ele>95.8</ele>
        <time>2013-03-10T09:02:49.000Z</time>
      </trkpt>
      <trkpt lat="46.05243" lon="-0.36222">
        <ele>96.2</ele>
        <time>2013-03-10T09:02:51.000Z</time>
      </trkpt>
      <trkpt lat="46.0525" lon="-0.36219">
        <ele>96.4</ele>
        <time>2013-03-10T09:02:53.000Z</time>
      </trkpt>
      <trkpt lat="46.05257" lon="-0.36218">
        <ele>96.3</ele>
        <time>2013-03-10T09:02:55.000Z</time>
      </trkpt>
      <trkpt lat="46.05264" lon="-0.36218">
        <ele>96.5</ele>
        <time>2013-03-10T09:02:57.000Z</time>
      </trkpt>
      <trkpt lat="46.05271" lon="-0.36217">
        <ele>96.6</ele>
        <time>2013-03-10T09:02:59.000Z</time>
      </trkpt>
      <trkpt lat="46.05278" lon="-0.36216">
        <ele>97.3</ele>
        <time>2013-03-10T09:03:01.000Z</time>
      </trkpt>
      <trkpt lat="46.05286" lon="-0.36214">
        <ele>97.4</ele>
        <time>2013-03-10T09:03:03.000Z</time>
      </trkpt>
      <trkpt lat="46.05293" lon="-0.36212">
        <ele>97.1</ele>
        <time>2013-03-10T09:03:05.000Z</time>
      </trkpt>
      <trkpt lat="46.053" lon="-0.36212">
        <ele>97</ele>
        <time>2013-03-10T09:03:07.000Z</time>
      </trkpt>
      <trkpt lat="46.05306" lon="-0.36211">
        <ele>97.1</ele>
        <time>2013-03-10T09:03:09.000Z</time>
      </trkpt>
      <trkpt lat="46.0531" lon="-0.36211">
        <ele>97</ele>
        <time>2013-03-10T09:03:10.000Z</time>
      </trkpt>
      <trkpt lat="46.05323" lon="-0.36208">
        <ele>96.9</ele>
        <time>2013-03-10T09:03:13.000Z</time>
      </trkpt>
      <trkpt lat="46.05331" lon="-0.36204">
        <ele>97</ele>
        <time>2013-03-10T09:03:15.000Z</time>
      </trkpt>
      <trkpt lat="46.05336" lon="-0.36201">
        <ele>97.1</ele>
        <time>2013-03-10T09:03:16.000Z</time>
      </trkpt>
      <trkpt lat="46.0534" lon="-0.36198">
        <ele>97.3</ele>
        <time>2013-03-10T09:03:17.000Z</time>
      </trkpt>
      <trkpt lat="46.05344" lon="-0.36194">
        <ele>97.5</ele>
        <time>2013-03-10T09:03:18.000Z</time>
      </trkpt>
      <trkpt lat="46.05348" lon="-0.3619">
        <ele>97.5</ele>
        <time>2013-03-10T09:03:19.000Z</time>
      </trkpt>
      <trkpt lat="46.05352" lon="-0.36186">
        <ele>97.4</ele>
        <time>2013-03-10T09:03:20.000Z</time>
      </trkpt>
      <trkpt lat="46.05356" lon="-0.36182">
        <ele>97.4</ele>
        <time>2013-03-10T09:03:21.000Z</time>
      </trkpt>
      <trkpt lat="46.0536" lon="-0.36179">
        <ele>97.4</ele>
        <time>2013-03-10T09:03:22.000Z</time>
      </trkpt>
      <trkpt lat="46.05364" lon="-0.36175">
        <ele>97.4</ele>
        <time>2013-03-10T09:03:23.000Z</time>
      </trkpt>
      <trkpt lat="46.05369" lon="-0.36172">
        <ele>97.1</ele>
        <time>2013-03-10T09:03:24.000Z</time>
      </trkpt>
      <trkpt lat="46.05373" lon="-0.36169">
        <ele>96.9</ele>
        <time>2013-03-10T09:03:25.000Z</time>
      </trkpt>
      <trkpt lat="46.05377" lon="-0.36167">
        <ele>96.7</ele>
        <time>2013-03-10T09:03:26.000Z</time>
      </trkpt>
      <trkpt lat="46.05382" lon="-0.36166">
        <ele>97.1</ele>
        <time>2013-03-10T09:03:27.000Z</time>
      </trkpt>
      <trkpt lat="46.0539" lon="-0.36165">
        <ele>97</ele>
        <time>2013-03-10T09:03:29.000Z</time>
      </trkpt>
      <trkpt lat="46.05396" lon="-0.36165">
        <ele>96.9</ele>
        <time>2013-03-10T09:03:31.000Z</time>
      </trkpt>
      <trkpt lat="46.05405" lon="-0.36164">
        <ele>96.8</ele>
        <time>2013-03-10T09:03:34.000Z</time>
      </trkpt>
      <trkpt lat="46.05412" lon="-0.36158">
        <ele>95.7</ele>
        <time>2013-03-10T09:03:37.000Z</time>
      </trkpt>
      <trkpt lat="46.05419" lon="-0.36152">
        <ele>95.7</ele>
        <time>2013-03-10T09:03:39.000Z</time>
      </trkpt>
      <trkpt lat="46.05426" lon="-0.36146">
        <ele>95.7</ele>
        <time>2013-03-10T09:03:41.000Z</time>
      </trkpt>
      <trkpt lat="46.0543" lon="-0.36142">
        <ele>95.7</ele>
        <time>2013-03-10T09:03:42.000Z</time>
      </trkpt>
      <trkpt lat="46.05434" lon="-0.36139">
        <ele>95.7</ele>
        <time>2013-03-10T09:03:43.000Z</time>
      </trkpt>
      <trkpt lat="46.05438" lon="-0.36136">
        <ele>95.8</ele>
        <time>2013-03-10T09:03:44.000Z</time>
      </trkpt>
      <trkpt lat="46.05443" lon="-0.36133">
        <ele>95.8</ele>
        <time>2013-03-10T09:03:45.000Z</time>
      </trkpt>
      <trkpt lat="46.05447" lon="-0.3613">
        <ele>95.9</ele>
        <time>2013-03-10T09:03:46.000Z</time>
      </trkpt>
      <trkpt lat="46.05452" lon="-0.36128">
        <ele>96</ele>
        <time>2013-03-10T09:03:47.000Z</time>
      </trkpt>
      <trkpt lat="46.05456" lon="-0.36125">
        <ele>96.4</ele>
        <time>2013-03-10T09:03:48.000Z</time>
      </trkpt>
      <trkpt lat="46.05461" lon="-0.36122">
        <ele>96.6</ele>
        <time>2013-03-10T09:03:49.000Z</time>
      </trkpt>
      <trkpt lat="46.05466" lon="-0.36119">
        <ele>96.8</ele>
        <time>2013-03-10T09:03:50.000Z</time>
      </trkpt>
      <trkpt lat="46.05471" lon="-0.36116">
        <ele>96.9</ele>
        <time>2013-03-10T09:03:51.000Z</time>
      </trkpt>
      <trkpt lat="46.05476" lon="-0.36114">
        <ele>97</ele>
        <time>2013-03-10T09:03:52.000Z</time>
      </trkpt>
      <trkpt lat="46.05481" lon="-0.36111">
        <ele>96.9</ele>
        <time>2013-03-10T09:03:53.000Z</time>
      </trkpt>
      <trkpt lat="46.05486" lon="-0.36108">
        <ele>96.9</ele>
        <time>2013-03-10T09:03:54.000Z</time>
      </trkpt>
      <trkpt lat="46.05491" lon="-0.36105">
        <ele>96.5</ele>
        <time>2013-03-10T09:03:55.000Z</time>
      </trkpt>
      <trkpt lat="46.05496" lon="-0.36103">
        <ele>96.2</ele>
        <time>2013-03-10T09:03:56.000Z</time>
      </trkpt>
      <trkpt lat="46.05501" lon="-0.36101">
        <ele>96.4</ele>
        <time>2013-03-10T09:03:57.000Z</time>
      </trkpt>
      <trkpt lat="46.05507" lon="-0.36099">
        <ele>96.6</ele>
        <time>2013-03-10T09:03:58.000Z</time>
      </trkpt>
      <trkpt lat="46.05512" lon="-0.36098">
        <ele>96.7</ele>
        <time>2013-03-10T09:03:59.000Z</time>
      </trkpt>
      <trkpt lat="46.05517" lon="-0.36097">
        <ele>96.4</ele>
        <time>2013-03-10T09:04:00.000Z</time>
      </trkpt>
      <trkpt lat="46.05522" lon="-0.36096">
        <ele>96.1</ele>
        <time>2013-03-10T09:04:01.000Z</time>
      </trkpt>
      <trkpt lat="46.05527" lon="-0.36096">
        <ele>95.8</ele>
        <time>2013-03-10T09:04:02.000Z</time>
      </trkpt>
      <trkpt lat="46.05531" lon="-0.36094">
        <ele>95.5</ele>
        <time>2013-03-10T09:04:03.000Z</time>
      </trkpt>
      <trkpt lat="46.05536" lon="-0.36093">
        <ele>95.3</ele>
        <time>2013-03-10T09:04:04.000Z</time>
      </trkpt>
      <trkpt lat="46.05541" lon="-0.36092">
        <ele>95.4</ele>
        <time>2013-03-10T09:04:05.000Z</time>
      </trkpt>
      <trkpt lat="46.05546" lon="-0.3609">
        <ele>95.5</ele>
        <time>2013-03-10T09:04:06.000Z</time>
      </trkpt>
      <trkpt lat="46.0555" lon="-0.36088">
        <ele>95.3</ele>
        <time>2013-03-10T09:04:07.000Z</time>
      </trkpt>
      <trkpt lat="46.05555" lon="-0.36086">
        <ele>95.2</ele>
        <time>2013-03-10T09:04:08.000Z</time>
      </trkpt>
      <trkpt lat="46.0556" lon="-0.36084">
        <ele>95.3</ele>
        <time>2013-03-10T09:04:09.000Z</time>
      </trkpt>
      <trkpt lat="46.05565" lon="-0.36083">
        <ele>95.4</ele>
        <time>2013-03-10T09:04:10.000Z</time>
      </trkpt>
      <trkpt lat="46.0557" lon="-0.36081">
        <ele>95.4</ele>
        <time>2013-03-10T09:04:11.000Z</time>
      </trkpt>
      <trkpt lat="46.05575" lon="-0.3608">
        <ele>95.4</ele>
        <time>2013-03-10T09:04:12.000Z</time>
      </trkpt>
      <trkpt lat="46.0558" lon="-0.36079">
        <ele>95.3</ele>
        <time>2013-03-10T09:04:13.000Z</time>
      </trkpt>
      <trkpt lat="46.05585" lon="-0.36078">
        <ele>95.6</ele>
        <time>2013-03-10T09:04:14.000Z</time>
      </trkpt>
      <trkpt lat="46.0559" lon="-0.36077">
        <ele>95.9</ele>
        <time>2013-03-10T09:04:15.000Z</time>
      </trkpt>
      <trkpt lat="46.05595" lon="-0.36076">
        <ele>96.1</ele>
        <time>2013-03-10T09:04:16.000Z</time>
      </trkpt>
      <trkpt lat="46.056" lon="-0.36075">
        <ele>96.2</ele>
        <time>2013-03-10T09:04:17.000Z</time>
      </trkpt>
      <trkpt lat="46.05609" lon="-0.36074">
        <ele>96.6</ele>
        <time>2013-03-10T09:04:19.000Z</time>
      </trkpt>
      <trkpt lat="46.05614" lon="-0.36074">
        <ele>96.9</ele>
        <time>2013-03-10T09:04:20.000Z</time>
      </trkpt>
      <trkpt lat="46.05622" lon="-0.36075">
        <ele>96.2</ele>
        <time>2013-03-10T09:04:22.000Z</time>
      </trkpt>
      <trkpt lat="46.05627" lon="-0.36076">
        <ele>96.1</ele>
        <time>2013-03-10T09:04:23.000Z</time>
      </trkpt>
      <trkpt lat="46.05631" lon="-0.36077">
        <ele>96.2</ele>
        <time>2013-03-10T09:04:24.000Z</time>
      </trkpt>
      <trkpt lat="46.0564" lon="-0.36078">
        <ele>96.4</ele>
        <time>2013-03-10T09:04:26.000Z</time>
      </trkpt>
      <trkpt lat="46.05645" lon="-0.3608">
        <ele>96.5</ele>
        <time>2013-03-10T09:04:27.000Z</time>
      </trkpt>
      <trkpt lat="46.0565" lon="-0.36081">
        <ele>96.6</ele>
        <time>2013-03-10T09:04:28.000Z</time>
      </trkpt>
      <trkpt lat="46.05655" lon="-0.36083">
        <ele>96.6</ele>
        <time>2013-03-10T09:04:29.000Z</time>
      </trkpt>
      <trkpt lat="46.0566" lon="-0.36085">
        <ele>96.6</ele>
        <time>2013-03-10T09:04:30.000Z</time>
      </trkpt>
      <trkpt lat="46.05665" lon="-0.36087">
        <ele>96.7</ele>
        <time>2013-03-10T09:04:31.000Z</time>
      </trkpt>
      <trkpt lat="46.05669" lon="-0.36087">
        <ele>96.8</ele>
        <time>2013-03-10T09:04:32.000Z</time>
      </trkpt>
      <trkpt lat="46.05674" lon="-0.36088">
        <ele>96.8</ele>
        <time>2013-03-10T09:04:33.000Z</time>
      </trkpt>
      <trkpt lat="46.05679" lon="-0.36089">
        <ele>96.8</ele>
        <time>2013-03-10T09:04:34.000Z</time>
      </trkpt>
      <trkpt lat="46.05683" lon="-0.3609">
        <ele>97</ele>
        <time>2013-03-10T09:04:35.000Z</time>
      </trkpt>
      <trkpt lat="46.05688" lon="-0.3609">
        <ele>97.2</ele>
        <time>2013-03-10T09:04:36.000Z</time>
      </trkpt>
      <trkpt lat="46.05693" lon="-0.36091">
        <ele>97.3</ele>
        <time>2013-03-10T09:04:37.000Z</time>
      </trkpt>
      <trkpt lat="46.05699" lon="-0.36091">
        <ele>97.4</ele>
        <time>2013-03-10T09:04:38.000Z</time>
      </trkpt>
      <trkpt lat="46.05704" lon="-0.36091">
        <ele>97.5</ele>
        <time>2013-03-10T09:04:39.000Z</time>
      </trkpt>
      <trkpt lat="46.05709" lon="-0.36091">
        <ele>97.6</ele>
        <time>2013-03-10T09:04:40.000Z</time>
      </trkpt>
      <trkpt lat="46.05714" lon="-0.36091">
        <ele>97.6</ele>
        <time>2013-03-10T09:04:41.000Z</time>
      </trkpt>
      <trkpt lat="46.05719" lon="-0.36091">
        <ele>97.7</ele>
        <time>2013-03-10T09:04:42.000Z</time>
      </trkpt>
      <trkpt lat="46.05725" lon="-0.36091">
        <ele>97.9</ele>
        <time>2013-03-10T09:04:43.000Z</time>
      </trkpt>
      <trkpt lat="46.0573" lon="-0.3609">
        <ele>98</ele>
        <time>2013-03-10T09:04:44.000Z</time>
      </trkpt>
      <trkpt lat="46.05736" lon="-0.36088">
        <ele>98.1</ele>
        <time>2013-03-10T09:04:45.000Z</time>
      </trkpt>
      <trkpt lat="46.05741" lon="-0.36085">
        <ele>98.2</ele>
        <time>2013-03-10T09:04:46.000Z</time>
      </trkpt>
      <trkpt lat="46.05746" lon="-0.36081">
        <ele>97.8</ele>
        <time>2013-03-10T09:04:47.000Z</time>
      </trkpt>
      <trkpt lat="46.05751" lon="-0.36077">
        <ele>97.5</ele>
        <time>2013-03-10T09:04:48.000Z</time>
      </trkpt>
      <trkpt lat="46.05756" lon="-0.36073">
        <ele>97.2</ele>
        <time>2013-03-10T09:04:49.000Z</time>
      </trkpt>
      <trkpt lat="46.05762" lon="-0.3607">
        <ele>97.2</ele>
        <time>2013-03-10T09:04:50.000Z</time>
      </trkpt>
      <trkpt lat="46.05767" lon="-0.36067">
        <ele>97.2</ele>
        <time>2013-03-10T09:04:51.000Z</time>
      </trkpt>
      <trkpt lat="46.05772" lon="-0.36063">
        <ele>97.2</ele>
        <time>2013-03-10T09:04:52.000Z</time>
      </trkpt>
      <trkpt lat="46.05777" lon="-0.36059">
        <ele>97.2</ele>
        <time>2013-03-10T09:04:53.000Z</time>
      </trkpt>
      <trkpt lat="46.05782" lon="-0.36054">
        <ele>97.1</ele>
        <time>2013-03-10T09:04:54.000Z</time>
      </trkpt>
      <trkpt lat="46.05786" lon="-0.36049">
        <ele>97</ele>
        <time>2013-03-10T09:04:55.000Z</time>
      </trkpt>
      <trkpt lat="46.05791" lon="-0.36044">
        <ele>96.9</ele>
        <time>2013-03-10T09:04:56.000Z</time>
      </trkpt>
      <trkpt lat="46.05795" lon="-0.36039">
        <ele>97.2</ele>
        <time>2013-03-10T09:04:57.000Z</time>
      </trkpt>
      <trkpt lat="46.05799" lon="-0.36034">
        <ele>97.4</ele>
        <time>2013-03-10T09:04:58.000Z</time>
      </trkpt>
      <trkpt lat="46.05803" lon="-0.3603">
        <ele>97.3</ele>
        <time>2013-03-10T09:04:59.000Z</time>
      </trkpt>
      <trkpt lat="46.05807" lon="-0.36025">
        <ele>97.3</ele>
        <time>2013-03-10T09:05:00.000Z</time>
      </trkpt>
      <trkpt lat="46.05811" lon="-0.3602">
        <ele>97.2</ele>
        <time>2013-03-10T09:05:01.000Z</time>
      </trkpt>
      <trkpt lat="46.05816" lon="-0.36015">
        <ele>97</ele>
        <time>2013-03-10T09:05:02.000Z</time>
      </trkpt>
      <trkpt lat="46.05821" lon="-0.3601">
        <ele>96.8</ele>
        <time>2013-03-10T09:05:03.000Z</time>
      </trkpt>
      <trkpt lat="46.05826" lon="-0.36006">
        <ele>96.5</ele>
        <time>2013-03-10T09:05:04.000Z</time>
      </trkpt>
      <trkpt lat="46.05831" lon="-0.36001">
        <ele>96.4</ele>
        <time>2013-03-10T09:05:05.000Z</time>
      </trkpt>
      <trkpt lat="46.05835" lon="-0.35996">
        <ele>96.1</ele>
        <time>2013-03-10T09:05:06.000Z</time>
      </trkpt>
      <trkpt lat="46.05841" lon="-0.35992">
        <ele>96</ele>
        <time>2013-03-10T09:05:07.000Z</time>
      </trkpt>
      <trkpt lat="46.05846" lon="-0.35988">
        <ele>95.9</ele>
        <time>2013-03-10T09:05:08.000Z</time>
      </trkpt>
      <trkpt lat="46.05851" lon="-0.35983">
        <ele>95.7</ele>
        <time>2013-03-10T09:05:09.000Z</time>
      </trkpt>
      <trkpt lat="46.05856" lon="-0.35979">
        <ele>95.5</ele>
        <time>2013-03-10T09:05:10.000Z</time>
      </trkpt>
      <trkpt lat="46.05861" lon="-0.35974">
        <ele>95.7</ele>
        <time>2013-03-10T09:05:11.000Z</time>
      </trkpt>
      <trkpt lat="46.05866" lon="-0.35969">
        <ele>95.8</ele>
        <time>2013-03-10T09:05:12.000Z</time>
      </trkpt>
      <trkpt lat="46.05871" lon="-0.35963">
        <ele>95.8</ele>
        <time>2013-03-10T09:05:13.000Z</time>
      </trkpt>
      <trkpt lat="46.05876" lon="-0.35957">
        <ele>95.8</ele>
        <time>2013-03-10T09:05:14.000Z</time>
      </trkpt>
      <trkpt lat="46.0588" lon="-0.35951">
        <ele>95.7</ele>
        <time>2013-03-10T09:05:15.000Z</time>
      </trkpt>
      <trkpt lat="46.05884" lon="-0.35946">
        <ele>95.8</ele>
        <time>2013-03-10T09:05:16.000Z</time>
      </trkpt>
      <trkpt lat="46.05889" lon="-0.35942">
        <ele>95.9</ele>
        <time>2013-03-10T09:05:17.000Z</time>
      </trkpt>
      <trkpt lat="46.05893" lon="-0.35939">
        <ele>95</ele>
        <time>2013-03-10T09:05:18.000Z</time>
      </trkpt>
      <trkpt lat="46.059" lon="-0.35933">
        <ele>93.8</ele>
        <time>2013-03-10T09:05:20.000Z</time>
      </trkpt>
      <trkpt lat="46.05907" lon="-0.35928">
        <ele>93.6</ele>
        <time>2013-03-10T09:05:22.000Z</time>
      </trkpt>
      <trkpt lat="46.05914" lon="-0.35923">
        <ele>93.6</ele>
        <time>2013-03-10T09:05:24.000Z</time>
      </trkpt>
      <trkpt lat="46.05922" lon="-0.35917">
        <ele>93.1</ele>
        <time>2013-03-10T09:05:26.000Z</time>
      </trkpt>
      <trkpt lat="46.05928" lon="-0.35911">
        <ele>92.9</ele>
        <time>2013-03-10T09:05:28.000Z</time>
      </trkpt>
      <trkpt lat="46.05934" lon="-0.35905">
        <ele>92.6</ele>
        <time>2013-03-10T09:05:30.000Z</time>
      </trkpt>
      <trkpt lat="46.0594" lon="-0.35899">
        <ele>92.1</ele>
        <time>2013-03-10T09:05:32.000Z</time>
      </trkpt>
      <trkpt lat="46.05946" lon="-0.35893">
        <ele>91.7</ele>
        <time>2013-03-10T09:05:34.000Z</time>
      </trkpt>
      <trkpt lat="46.05953" lon="-0.35886">
        <ele>91.7</ele>
        <time>2013-03-10T09:05:36.000Z</time>
      </trkpt>
      <trkpt lat="46.0596" lon="-0.3588">
        <ele>91.9</ele>
        <time>2013-03-10T09:05:38.000Z</time>
      </trkpt>
      <trkpt lat="46.05966" lon="-0.35874">
        <ele>92.1</ele>
        <time>2013-03-10T09:05:40.000Z</time>
      </trkpt>
      <trkpt lat="46.05973" lon="-0.35869">
        <ele>92.1</ele>
        <time>2013-03-10T09:05:42.000Z</time>
      </trkpt>
      <trkpt lat="46.05979" lon="-0.35861">
        <ele>91.4</ele>
        <time>2013-03-10T09:05:45.000Z</time>
      </trkpt>
      <trkpt lat="46.05977" lon="-0.35851">
        <ele>91.1</ele>
        <time>2013-03-10T09:05:47.000Z</time>
      </trkpt>
      <trkpt lat="46.05971" lon="-0.35847">
        <ele>91.4</ele>
        <time>2013-03-10T09:05:49.000Z</time>
      </trkpt>
      <trkpt lat="46.05964" lon="-0.35846">
        <ele>91.5</ele>
        <time>2013-03-10T09:05:51.000Z</time>
      </trkpt>
      <trkpt lat="46.05956" lon="-0.35843">
        <ele>91.3</ele>
        <time>2013-03-10T09:05:53.000Z</time>
      </trkpt>
      <trkpt lat="46.05948" lon="-0.3584">
        <ele>91</ele>
        <time>2013-03-10T09:05:55.000Z</time>
      </trkpt>
      <trkpt lat="46.05941" lon="-0.35838">
        <ele>91.4</ele>
        <time>2013-03-10T09:05:57.000Z</time>
      </trkpt>
      <trkpt lat="46.05932" lon="-0.35835">
        <ele>91.3</ele>
        <time>2013-03-10T09:05:59.000Z</time>
      </trkpt>
      <trkpt lat="46.05928" lon="-0.35833">
        <ele>91.3</ele>
        <time>2013-03-10T09:06:00.000Z</time>
      </trkpt>
      <trkpt lat="46.05924" lon="-0.3583">
        <ele>91.5</ele>
        <time>2013-03-10T09:06:01.000Z</time>
      </trkpt>
      <trkpt lat="46.05919" lon="-0.35827">
        <ele>91.6</ele>
        <time>2013-03-10T09:06:02.000Z</time>
      </trkpt>
      <trkpt lat="46.05915" lon="-0.35825">
        <ele>91.6</ele>
        <time>2013-03-10T09:06:03.000Z</time>
      </trkpt>
      <trkpt lat="46.0591" lon="-0.35822">
        <ele>91.7</ele>
        <time>2013-03-10T09:06:04.000Z</time>
      </trkpt>
      <trkpt lat="46.05906" lon="-0.3582">
        <ele>91.8</ele>
        <time>2013-03-10T09:06:05.000Z</time>
      </trkpt>
      <trkpt lat="46.05902" lon="-0.35817">
        <ele>92.1</ele>
        <time>2013-03-10T09:06:06.000Z</time>
      </trkpt>
      <trkpt lat="46.05898" lon="-0.35814">
        <ele>92.3</ele>
        <time>2013-03-10T09:06:07.000Z</time>
      </trkpt>
      <trkpt lat="46.05893" lon="-0.35811">
        <ele>92.3</ele>
        <time>2013-03-10T09:06:08.000Z</time>
      </trkpt>
      <trkpt lat="46.05889" lon="-0.35807">
        <ele>92.2</ele>
        <time>2013-03-10T09:06:09.000Z</time>
      </trkpt>
      <trkpt lat="46.05885" lon="-0.35802">
        <ele>92.4</ele>
        <time>2013-03-10T09:06:10.000Z</time>
      </trkpt>
      <trkpt lat="46.0588" lon="-0.35798">
        <ele>92.5</ele>
        <time>2013-03-10T09:06:11.000Z</time>
      </trkpt>
      <trkpt lat="46.05877" lon="-0.35793">
        <ele>92.6</ele>
        <time>2013-03-10T09:06:12.000Z</time>
      </trkpt>
      <trkpt lat="46.05873" lon="-0.35788">
        <ele>92.6</ele>
        <time>2013-03-10T09:06:13.000Z</time>
      </trkpt>
      <trkpt lat="46.05869" lon="-0.35783">
        <ele>92.6</ele>
        <time>2013-03-10T09:06:14.000Z</time>
      </trkpt>
      <trkpt lat="46.05865" lon="-0.35777">
        <ele>92.7</ele>
        <time>2013-03-10T09:06:15.000Z</time>
      </trkpt>
      <trkpt lat="46.05861" lon="-0.35773">
        <ele>92.8</ele>
        <time>2013-03-10T09:06:16.000Z</time>
      </trkpt>
      <trkpt lat="46.05858" lon="-0.35769">
        <ele>92.8</ele>
        <time>2013-03-10T09:06:17.000Z</time>
      </trkpt>
      <trkpt lat="46.05854" lon="-0.35765">
        <ele>92.8</ele>
        <time>2013-03-10T09:06:18.000Z</time>
      </trkpt>
      <trkpt lat="46.0585" lon="-0.35762">
        <ele>92.8</ele>
        <time>2013-03-10T09:06:19.000Z</time>
      </trkpt>
      <trkpt lat="46.05842" lon="-0.35756">
        <ele>92.6</ele>
        <time>2013-03-10T09:06:21.000Z</time>
      </trkpt>
      <trkpt lat="46.05838" lon="-0.35753">
        <ele>92.8</ele>
        <time>2013-03-10T09:06:22.000Z</time>
      </trkpt>
      <trkpt lat="46.05834" lon="-0.3575">
        <ele>93</ele>
        <time>2013-03-10T09:06:23.000Z</time>
      </trkpt>
      <trkpt lat="46.0583" lon="-0.35747">
        <ele>93.1</ele>
        <time>2013-03-10T09:06:24.000Z</time>
      </trkpt>
      <trkpt lat="46.05826" lon="-0.35744">
        <ele>93.2</ele>
        <time>2013-03-10T09:06:25.000Z</time>
      </trkpt>
      <trkpt lat="46.05822" lon="-0.35741">
        <ele>93.2</ele>
        <time>2013-03-10T09:06:26.000Z</time>
      </trkpt>
      <trkpt lat="46.05817" lon="-0.35739">
        <ele>93.1</ele>
        <time>2013-03-10T09:06:27.000Z</time>
      </trkpt>
      <trkpt lat="46.05813" lon="-0.35736">
        <ele>93.1</ele>
        <time>2013-03-10T09:06:28.000Z</time>
      </trkpt>
      <trkpt lat="46.05809" lon="-0.35733">
        <ele>93.3</ele>
        <time>2013-03-10T09:06:29.000Z</time>
      </trkpt>
      <trkpt lat="46.05804" lon="-0.3573">
        <ele>93.4</ele>
        <time>2013-03-10T09:06:30.000Z</time>
      </trkpt>
      <trkpt lat="46.058" lon="-0.35727">
        <ele>93.5</ele>
        <time>2013-03-10T09:06:31.000Z</time>
      </trkpt>
      <trkpt lat="46.05796" lon="-0.35725">
        <ele>93.5</ele>
        <time>2013-03-10T09:06:32.000Z</time>
      </trkpt>
      <trkpt lat="46.05791" lon="-0.35722">
        <ele>93.5</ele>
        <time>2013-03-10T09:06:33.000Z</time>
      </trkpt>
      <trkpt lat="46.05783" lon="-0.35717">
        <ele>93.7</ele>
        <time>2013-03-10T09:06:35.000Z</time>
      </trkpt>
      <trkpt lat="46.05775" lon="-0.35712">
        <ele>93.4</ele>
        <time>2013-03-10T09:06:37.000Z</time>
      </trkpt>
      <trkpt lat="46.05767" lon="-0.35706">
        <ele>93.3</ele>
        <time>2013-03-10T09:06:39.000Z</time>
      </trkpt>
      <trkpt lat="46.0576" lon="-0.35701">
        <ele>93.2</ele>
        <time>2013-03-10T09:06:41.000Z</time>
      </trkpt>
      <trkpt lat="46.05753" lon="-0.35697">
        <ele>93.1</ele>
        <time>2013-03-10T09:06:43.000Z</time>
      </trkpt>
      <trkpt lat="46.05745" lon="-0.35692">
        <ele>93.1</ele>
        <time>2013-03-10T09:06:45.000Z</time>
      </trkpt>
      <trkpt lat="46.05739" lon="-0.35689">
        <ele>93.7</ele>
        <time>2013-03-10T09:06:47.000Z</time>
      </trkpt>
      <trkpt lat="46.05731" lon="-0.35684">
        <ele>93.6</ele>
        <time>2013-03-10T09:06:49.000Z</time>
      </trkpt>
      <trkpt lat="46.05723" lon="-0.35679">
        <ele>93.7</ele>
        <time>2013-03-10T09:06:51.000Z</time>
      </trkpt>
      <trkpt lat="46.05716" lon="-0.35675">
        <ele>94</ele>
        <time>2013-03-10T09:06:53.000Z</time>
      </trkpt>
      <trkpt lat="46.05709" lon="-0.35669">
        <ele>94.2</ele>
        <time>2013-03-10T09:06:55.000Z</time>
      </trkpt>
      <trkpt lat="46.05701" lon="-0.35664">
        <ele>94.3</ele>
        <time>2013-03-10T09:06:57.000Z</time>
      </trkpt>
      <trkpt lat="46.05694" lon="-0.3566">
        <ele>94.3</ele>
        <time>2013-03-10T09:06:59.000Z</time>
      </trkpt>
      <trkpt lat="46.05687" lon="-0.35655">
        <ele>94.2</ele>
        <time>2013-03-10T09:07:01.000Z</time>
      </trkpt>
      <trkpt lat="46.05679" lon="-0.35649">
        <ele>94.3</ele>
        <time>2013-03-10T09:07:03.000Z</time>
      </trkpt>
      <trkpt lat="46.05671" lon="-0.35644">
        <ele>94.4</ele>
        <time>2013-03-10T09:07:05.000Z</time>
      </trkpt>
      <trkpt lat="46.05667" lon="-0.3564">
        <ele>94.5</ele>
        <time>2013-03-10T09:07:06.000Z</time>
      </trkpt>
      <trkpt lat="46.05662" lon="-0.35638">
        <ele>94.5</ele>
        <time>2013-03-10T09:07:07.000Z</time>
      </trkpt>
      <trkpt lat="46.05657" lon="-0.35635">
        <ele>94.6</ele>
        <time>2013-03-10T09:07:08.000Z</time>
      </trkpt>
      <trkpt lat="46.05652" lon="-0.35632">
        <ele>94.6</ele>
        <time>2013-03-10T09:07:09.000Z</time>
      </trkpt>
      <trkpt lat="46.05647" lon="-0.3563">
        <ele>94.8</ele>
        <time>2013-03-10T09:07:10.000Z</time>
      </trkpt>
      <trkpt lat="46.05642" lon="-0.35627">
        <ele>94.9</ele>
        <time>2013-03-10T09:07:11.000Z</time>
      </trkpt>
      <trkpt lat="46.05636" lon="-0.35625">
        <ele>94.5</ele>
        <time>2013-03-10T09:07:12.000Z</time>
      </trkpt>
      <trkpt lat="46.05631" lon="-0.35623">
        <ele>94.2</ele>
        <time>2013-03-10T09:07:13.000Z</time>
      </trkpt>
      <trkpt lat="46.05625" lon="-0.35622">
        <ele>94</ele>
        <time>2013-03-10T09:07:14.000Z</time>
      </trkpt>
      <trkpt lat="46.05619" lon="-0.35621">
        <ele>93.8</ele>
        <time>2013-03-10T09:07:15.000Z</time>
      </trkpt>
      <trkpt lat="46.05613" lon="-0.3562">
        <ele>93.7</ele>
        <time>2013-03-10T09:07:16.000Z</time>
      </trkpt>
      <trkpt lat="46.05607" lon="-0.3562">
        <ele>93.6</ele>
        <time>2013-03-10T09:07:17.000Z</time>
      </trkpt>
      <trkpt lat="46.05601" lon="-0.35619">
        <ele>93.5</ele>
        <time>2013-03-10T09:07:18.000Z</time>
      </trkpt>
      <trkpt lat="46.05595" lon="-0.35617">
        <ele>93.3</ele>
        <time>2013-03-10T09:07:19.000Z</time>
      </trkpt>
      <trkpt lat="46.05589" lon="-0.35617">
        <ele>93.2</ele>
        <time>2013-03-10T09:07:20.000Z</time>
      </trkpt>
      <trkpt lat="46.05584" lon="-0.35616">
        <ele>93.1</ele>
        <time>2013-03-10T09:07:21.000Z</time>
      </trkpt>
      <trkpt lat="46.05578" lon="-0.35616">
        <ele>93</ele>
        <time>2013-03-10T09:07:22.000Z</time>
      </trkpt>
      <trkpt lat="46.05573" lon="-0.35616">
        <ele>92.9</ele>
        <time>2013-03-10T09:07:23.000Z</time>
      </trkpt>
      <trkpt lat="46.05568" lon="-0.35616">
        <ele>93.1</ele>
        <time>2013-03-10T09:07:24.000Z</time>
      </trkpt>
      <trkpt lat="46.05563" lon="-0.35615">
        <ele>93.3</ele>
        <time>2013-03-10T09:07:25.000Z</time>
      </trkpt>
      <trkpt lat="46.05558" lon="-0.35614">
        <ele>93.3</ele>
        <time>2013-03-10T09:07:26.000Z</time>
      </trkpt>
      <trkpt lat="46.05553" lon="-0.35612">
        <ele>93.4</ele>
        <time>2013-03-10T09:07:27.000Z</time>
      </trkpt>
      <trkpt lat="46.05548" lon="-0.3561">
        <ele>93.4</ele>
        <time>2013-03-10T09:07:28.000Z</time>
      </trkpt>
      <trkpt lat="46.05543" lon="-0.35608">
        <ele>93.2</ele>
        <time>2013-03-10T09:07:29.000Z</time>
      </trkpt>
      <trkpt lat="46.05537" lon="-0.35606">
        <ele>93</ele>
        <time>2013-03-10T09:07:30.000Z</time>
      </trkpt>
      <trkpt lat="46.05532" lon="-0.35604">
        <ele>93.1</ele>
        <time>2013-03-10T09:07:31.000Z</time>
      </trkpt>
      <trkpt lat="46.05527" lon="-0.35602">
        <ele>93.2</ele>
        <time>2013-03-10T09:07:32.000Z</time>
      </trkpt>
      <trkpt lat="46.05522" lon="-0.356">
        <ele>93.4</ele>
        <time>2013-03-10T09:07:33.000Z</time>
      </trkpt>
      <trkpt lat="46.05516" lon="-0.35598">
        <ele>93.5</ele>
        <time>2013-03-10T09:07:34.000Z</time>
      </trkpt>
      <trkpt lat="46.05511" lon="-0.35596">
        <ele>93.6</ele>
        <time>2013-03-10T09:07:35.000Z</time>
      </trkpt>
      <trkpt lat="46.05506" lon="-0.35593">
        <ele>94.1</ele>
        <time>2013-03-10T09:07:36.000Z</time>
      </trkpt>
      <trkpt lat="46.05501" lon="-0.35591">
        <ele>94.4</ele>
        <time>2013-03-10T09:07:37.000Z</time>
      </trkpt>
      <trkpt lat="46.05496" lon="-0.35589">
        <ele>93.9</ele>
        <time>2013-03-10T09:07:38.000Z</time>
      </trkpt>
      <trkpt lat="46.05491" lon="-0.35587">
        <ele>93.5</ele>
        <time>2013-03-10T09:07:39.000Z</time>
      </trkpt>
      <trkpt lat="46.05486" lon="-0.35585">
        <ele>93.7</ele>
        <time>2013-03-10T09:07:40.000Z</time>
      </trkpt>
      <trkpt lat="46.05481" lon="-0.35582">
        <ele>93.8</ele>
        <time>2013-03-10T09:07:41.000Z</time>
      </trkpt>
      <trkpt lat="46.05476" lon="-0.35579">
        <ele>94</ele>
        <time>2013-03-10T09:07:42.000Z</time>
      </trkpt>
      <trkpt lat="46.05472" lon="-0.35576">
        <ele>94</ele>
        <time>2013-03-10T09:07:43.000Z</time>
      </trkpt>
      <trkpt lat="46.05467" lon="-0.35573">
        <ele>94.1</ele>
        <time>2013-03-10T09:07:44.000Z</time>
      </trkpt>
      <trkpt lat="46.0546" lon="-0.35567">
        <ele>93.8</ele>
        <time>2013-03-10T09:07:46.000Z</time>
      </trkpt>
      <trkpt lat="46.0546" lon="-0.35556">
        <ele>94</ele>
        <time>2013-03-10T09:07:49.000Z</time>
      </trkpt>
      <trkpt lat="46.05464" lon="-0.35547">
        <ele>93.7</ele>
        <time>2013-03-10T09:07:51.000Z</time>
      </trkpt>
      <trkpt lat="46.05468" lon="-0.35538">
        <ele>93.6</ele>
        <time>2013-03-10T09:07:53.000Z</time>
      </trkpt>
      <trkpt lat="46.05474" lon="-0.35528">
        <ele>93.7</ele>
        <time>2013-03-10T09:07:55.000Z</time>
      </trkpt>
      <trkpt lat="46.05476" lon="-0.35522">
        <ele>93.8</ele>
        <time>2013-03-10T09:07:56.000Z</time>
      </trkpt>
      <trkpt lat="46.05479" lon="-0.35517">
        <ele>93.8</ele>
        <time>2013-03-10T09:07:57.000Z</time>
      </trkpt>
      <trkpt lat="46.05482" lon="-0.35512">
        <ele>93.8</ele>
        <time>2013-03-10T09:07:58.000Z</time>
      </trkpt>
      <trkpt lat="46.05485" lon="-0.35507">
        <ele>93.5</ele>
        <time>2013-03-10T09:07:59.000Z</time>
      </trkpt>
      <trkpt lat="46.05488" lon="-0.35502">
        <ele>93.2</ele>
        <time>2013-03-10T09:08:00.000Z</time>
      </trkpt>
      <trkpt lat="46.05491" lon="-0.35497">
        <ele>93</ele>
        <time>2013-03-10T09:08:01.000Z</time>
      </trkpt>
      <trkpt lat="46.05495" lon="-0.35492">
        <ele>92.8</ele>
        <time>2013-03-10T09:08:02.000Z</time>
      </trkpt>
      <trkpt lat="46.05498" lon="-0.35486">
        <ele>92.7</ele>
        <time>2013-03-10T09:08:03.000Z</time>
      </trkpt>
      <trkpt lat="46.05502" lon="-0.35481">
        <ele>92.5</ele>
        <time>2013-03-10T09:08:04.000Z</time>
      </trkpt>
      <trkpt lat="46.05505" lon="-0.35475">
        <ele>92.4</ele>
        <time>2013-03-10T09:08:05.000Z</time>
      </trkpt>
      <trkpt lat="46.05509" lon="-0.35469">
        <ele>92.3</ele>
        <time>2013-03-10T09:08:06.000Z</time>
      </trkpt>
      <trkpt lat="46.05513" lon="-0.35464">
        <ele>92.2</ele>
        <time>2013-03-10T09:08:07.000Z</time>
      </trkpt>
      <trkpt lat="46.05517" lon="-0.35458">
        <ele>92.1</ele>
        <time>2013-03-10T09:08:08.000Z</time>
      </trkpt>
      <trkpt lat="46.05521" lon="-0.35452">
        <ele>91.7</ele>
        <time>2013-03-10T09:08:09.000Z</time>
      </trkpt>
      <trkpt lat="46.05525" lon="-0.35446">
        <ele>91.4</ele>
        <time>2013-03-10T09:08:10.000Z</time>
      </trkpt>
      <trkpt lat="46.05529" lon="-0.3544">
        <ele>91.1</ele>
        <time>2013-03-10T09:08:11.000Z</time>
      </trkpt>
      <trkpt lat="46.05534" lon="-0.35434">
        <ele>90.9</ele>
        <time>2013-03-10T09:08:12.000Z</time>
      </trkpt>
      <trkpt lat="46.05539" lon="-0.35427">
        <ele>90.7</ele>
        <time>2013-03-10T09:08:13.000Z</time>
      </trkpt>
      <trkpt lat="46.05543" lon="-0.3542">
        <ele>90.7</ele>
        <time>2013-03-10T09:08:14.000Z</time>
      </trkpt>
      <trkpt lat="46.05548" lon="-0.35413">
        <ele>90.8</ele>
        <time>2013-03-10T09:08:15.000Z</time>
      </trkpt>
      <trkpt lat="46.05553" lon="-0.35406">
        <ele>90.4</ele>
        <time>2013-03-10T09:08:16.000Z</time>
      </trkpt>
      <trkpt lat="46.05558" lon="-0.35399">
        <ele>90</ele>
        <time>2013-03-10T09:08:17.000Z</time>
      </trkpt>
      <trkpt lat="46.05563" lon="-0.35392">
        <ele>89.7</ele>
        <time>2013-03-10T09:08:18.000Z</time>
      </trkpt>
      <trkpt lat="46.05569" lon="-0.35385">
        <ele>89.5</ele>
        <time>2013-03-10T09:08:19.000Z</time>
      </trkpt>
      <trkpt lat="46.05574" lon="-0.35378">
        <ele>89.4</ele>
        <time>2013-03-10T09:08:20.000Z</time>
      </trkpt>
      <trkpt lat="46.05579" lon="-0.35371">
        <ele>89.3</ele>
        <time>2013-03-10T09:08:21.000Z</time>
      </trkpt>
      <trkpt lat="46.05584" lon="-0.35364">
        <ele>89.2</ele>
        <time>2013-03-10T09:08:22.000Z</time>
      </trkpt>
      <trkpt lat="46.05588" lon="-0.35358">
        <ele>89</ele>
        <time>2013-03-10T09:08:23.000Z</time>
      </trkpt>
      <trkpt lat="46.05593" lon="-0.35352">
        <ele>88.9</ele>
        <time>2013-03-10T09:08:24.000Z</time>
      </trkpt>
      <trkpt lat="46.05597" lon="-0.35346">
        <ele>88.8</ele>
        <time>2013-03-10T09:08:25.000Z</time>
      </trkpt>
      <trkpt lat="46.05601" lon="-0.35341">
        <ele>88.6</ele>
        <time>2013-03-10T09:08:26.000Z</time>
      </trkpt>
      <trkpt lat="46.05606" lon="-0.35339">
        <ele>88.5</ele>
        <time>2013-03-10T09:08:27.000Z</time>
      </trkpt>
      <trkpt lat="46.05611" lon="-0.35339">
        <ele>87.8</ele>
        <time>2013-03-10T09:08:28.000Z</time>
      </trkpt>
      <trkpt lat="46.05616" lon="-0.35343">
        <ele>87.2</ele>
        <time>2013-03-10T09:08:29.000Z</time>
      </trkpt>
      <trkpt lat="46.0562" lon="-0.35347">
        <ele>87.3</ele>
        <time>2013-03-10T09:08:30.000Z</time>
      </trkpt>
      <trkpt lat="46.05624" lon="-0.35352">
        <ele>87.4</ele>
        <time>2013-03-10T09:08:31.000Z</time>
      </trkpt>
      <trkpt lat="46.05628" lon="-0.35357">
        <ele>87.5</ele>
        <time>2013-03-10T09:08:32.000Z</time>
      </trkpt>
      <trkpt lat="46.05633" lon="-0.35362">
        <ele>87.6</ele>
        <time>2013-03-10T09:08:33.000Z</time>
      </trkpt>
      <trkpt lat="46.05638" lon="-0.35368">
        <ele>87.6</ele>
        <time>2013-03-10T09:08:34.000Z</time>
      </trkpt>
      <trkpt lat="46.05642" lon="-0.35373">
        <ele>87.6</ele>
        <time>2013-03-10T09:08:35.000Z</time>
      </trkpt>
      <trkpt lat="46.05647" lon="-0.35377">
        <ele>87.5</ele>
        <time>2013-03-10T09:08:36.000Z</time>
      </trkpt>
      <trkpt lat="46.05651" lon="-0.35382">
        <ele>87.6</ele>
        <time>2013-03-10T09:08:37.000Z</time>
      </trkpt>
      <trkpt lat="46.05655" lon="-0.35386">
        <ele>87.7</ele>
        <time>2013-03-10T09:08:38.000Z</time>
      </trkpt>
      <trkpt lat="46.05658" lon="-0.35391">
        <ele>87.7</ele>
        <time>2013-03-10T09:08:39.000Z</time>
      </trkpt>
      <trkpt lat="46.05662" lon="-0.35395">
        <ele>87.7</ele>
        <time>2013-03-10T09:08:40.000Z</time>
      </trkpt>
      <trkpt lat="46.05666" lon="-0.354">
        <ele>87.6</ele>
        <time>2013-03-10T09:08:41.000Z</time>
      </trkpt>
      <trkpt lat="46.0567" lon="-0.35404">
        <ele>87.6</ele>
        <time>2013-03-10T09:08:42.000Z</time>
      </trkpt>
      <trkpt lat="46.05674" lon="-0.35409">
        <ele>87.5</ele>
        <time>2013-03-10T09:08:43.000Z</time>
      </trkpt>
      <trkpt lat="46.05678" lon="-0.35413">
        <ele>87.5</ele>
        <time>2013-03-10T09:08:44.000Z</time>
      </trkpt>
      <trkpt lat="46.05683" lon="-0.35418">
        <ele>87.6</ele>
        <time>2013-03-10T09:08:45.000Z</time>
      </trkpt>
      <trkpt lat="46.05687" lon="-0.35423">
        <ele>87.7</ele>
        <time>2013-03-10T09:08:46.000Z</time>
      </trkpt>
      <trkpt lat="46.05691" lon="-0.35427">
        <ele>87.7</ele>
        <time>2013-03-10T09:08:47.000Z</time>
      </trkpt>
      <trkpt lat="46.05695" lon="-0.35431">
        <ele>87.6</ele>
        <time>2013-03-10T09:08:48.000Z</time>
      </trkpt>
      <trkpt lat="46.05699" lon="-0.35436">
        <ele>87.9</ele>
        <time>2013-03-10T09:08:49.000Z</time>
      </trkpt>
      <trkpt lat="46.05703" lon="-0.3544">
        <ele>88</ele>
        <time>2013-03-10T09:08:50.000Z</time>
      </trkpt>
      <trkpt lat="46.05708" lon="-0.35444">
        <ele>88.2</ele>
        <time>2013-03-10T09:08:51.000Z</time>
      </trkpt>
      <trkpt lat="46.05712" lon="-0.35448">
        <ele>88.2</ele>
        <time>2013-03-10T09:08:52.000Z</time>
      </trkpt>
      <trkpt lat="46.05716" lon="-0.35453">
        <ele>88.2</ele>
        <time>2013-03-10T09:08:53.000Z</time>
      </trkpt>
      <trkpt lat="46.0572" lon="-0.35457">
        <ele>88.5</ele>
        <time>2013-03-10T09:08:54.000Z</time>
      </trkpt>
      <trkpt lat="46.05725" lon="-0.35462">
        <ele>88.8</ele>
        <time>2013-03-10T09:08:55.000Z</time>
      </trkpt>
      <trkpt lat="46.05731" lon="-0.35467">
        <ele>89.1</ele>
        <time>2013-03-10T09:08:56.000Z</time>
      </trkpt>
      <trkpt lat="46.05736" lon="-0.35472">
        <ele>89.3</ele>
        <time>2013-03-10T09:08:57.000Z</time>
      </trkpt>
      <trkpt lat="46.05741" lon="-0.35478">
        <ele>89.4</ele>
        <time>2013-03-10T09:08:58.000Z</time>
      </trkpt>
      <trkpt lat="46.05745" lon="-0.35483">
        <ele>89.5</ele>
        <time>2013-03-10T09:08:59.000Z</time>
      </trkpt>
      <trkpt lat="46.0575" lon="-0.35487">
        <ele>89.6</ele>
        <time>2013-03-10T09:09:00.000Z</time>
      </trkpt>
      <trkpt lat="46.05754" lon="-0.35492">
        <ele>89.8</ele>
        <time>2013-03-10T09:09:01.000Z</time>
      </trkpt>
      <trkpt lat="46.05758" lon="-0.35497">
        <ele>89.9</ele>
        <time>2013-03-10T09:09:02.000Z</time>
      </trkpt>
      <trkpt lat="46.05763" lon="-0.35502">
        <ele>89.9</ele>
        <time>2013-03-10T09:09:03.000Z</time>
      </trkpt>
      <trkpt lat="46.05767" lon="-0.35507">
        <ele>89.8</ele>
        <time>2013-03-10T09:09:04.000Z</time>
      </trkpt>
      <trkpt lat="46.05771" lon="-0.35513">
        <ele>89.8</ele>
        <time>2013-03-10T09:09:05.000Z</time>
      </trkpt>
      <trkpt lat="46.05775" lon="-0.35518">
        <ele>89.7</ele>
        <time>2013-03-10T09:09:06.000Z</time>
      </trkpt>
      <trkpt lat="46.05778" lon="-0.35523">
        <ele>89.7</ele>
        <time>2013-03-10T09:09:07.000Z</time>
      </trkpt>
      <trkpt lat="46.05782" lon="-0.35528">
        <ele>89.5</ele>
        <time>2013-03-10T09:09:08.000Z</time>
      </trkpt>
      <trkpt lat="46.05787" lon="-0.35533">
        <ele>89.4</ele>
        <time>2013-03-10T09:09:09.000Z</time>
      </trkpt>
      <trkpt lat="46.05791" lon="-0.35538">
        <ele>89.3</ele>
        <time>2013-03-10T09:09:10.000Z</time>
      </trkpt>
      <trkpt lat="46.05795" lon="-0.35543">
        <ele>89.2</ele>
        <time>2013-03-10T09:09:11.000Z</time>
      </trkpt>
      <trkpt lat="46.05798" lon="-0.35548">
        <ele>89.2</ele>
        <time>2013-03-10T09:09:12.000Z</time>
      </trkpt>
      <trkpt lat="46.05802" lon="-0.35552">
        <ele>89.5</ele>
        <time>2013-03-10T09:09:13.000Z</time>
      </trkpt>
      <trkpt lat="46.05806" lon="-0.35555">
        <ele>89.7</ele>
        <time>2013-03-10T09:09:14.000Z</time>
      </trkpt>
      <trkpt lat="46.0581" lon="-0.3556">
        <ele>89.5</ele>
        <time>2013-03-10T09:09:15.000Z</time>
      </trkpt>
      <trkpt lat="46.05814" lon="-0.35565">
        <ele>89.3</ele>
        <time>2013-03-10T09:09:16.000Z</time>
      </trkpt>
      <trkpt lat="46.05819" lon="-0.35571">
        <ele>89.1</ele>
        <time>2013-03-10T09:09:17.000Z</time>
      </trkpt>
      <trkpt lat="46.05823" lon="-0.35575">
        <ele>89.3</ele>
        <time>2013-03-10T09:09:18.000Z</time>
      </trkpt>
      <trkpt lat="46.05827" lon="-0.3558">
        <ele>89.5</ele>
        <time>2013-03-10T09:09:19.000Z</time>
      </trkpt>
      <trkpt lat="46.05831" lon="-0.35585">
        <ele>89.6</ele>
        <time>2013-03-10T09:09:20.000Z</time>
      </trkpt>
      <trkpt lat="46.05835" lon="-0.3559">
        <ele>89.7</ele>
        <time>2013-03-10T09:09:21.000Z</time>
      </trkpt>
      <trkpt lat="46.05839" lon="-0.35595">
        <ele>89.7</ele>
        <time>2013-03-10T09:09:22.000Z</time>
      </trkpt>
      <trkpt lat="46.05843" lon="-0.35599">
        <ele>89.4</ele>
        <time>2013-03-10T09:09:23.000Z</time>
      </trkpt>
      <trkpt lat="46.05847" lon="-0.35603">
        <ele>89.2</ele>
        <time>2013-03-10T09:09:24.000Z</time>
      </trkpt>
      <trkpt lat="46.05851" lon="-0.35608">
        <ele>89.1</ele>
        <time>2013-03-10T09:09:25.000Z</time>
      </trkpt>
      <trkpt lat="46.05855" lon="-0.35612">
        <ele>89.1</ele>
        <time>2013-03-10T09:09:26.000Z</time>
      </trkpt>
      <trkpt lat="46.05859" lon="-0.35617">
        <ele>89.2</ele>
        <time>2013-03-10T09:09:27.000Z</time>
      </trkpt>
      <trkpt lat="46.05863" lon="-0.35621">
        <ele>89.3</ele>
        <time>2013-03-10T09:09:28.000Z</time>
      </trkpt>
      <trkpt lat="46.05868" lon="-0.35625">
        <ele>89.3</ele>
        <time>2013-03-10T09:09:29.000Z</time>
      </trkpt>
      <trkpt lat="46.05873" lon="-0.35626">
        <ele>89.3</ele>
        <time>2013-03-10T09:09:30.000Z</time>
      </trkpt>
      <trkpt lat="46.05878" lon="-0.35624">
        <ele>89.2</ele>
        <time>2013-03-10T09:09:31.000Z</time>
      </trkpt>
      <trkpt lat="46.05882" lon="-0.3562">
        <ele>89.2</ele>
        <time>2013-03-10T09:09:32.000Z</time>
      </trkpt>
      <trkpt lat="46.05884" lon="-0.35613">
        <ele>89.2</ele>
        <time>2013-03-10T09:09:33.000Z</time>
      </trkpt>
      <trkpt lat="46.05885" lon="-0.35607">
        <ele>89.2</ele>
        <time>2013-03-10T09:09:34.000Z</time>
      </trkpt>
      <trkpt lat="46.05887" lon="-0.356">
        <ele>89.2</ele>
        <time>2013-03-10T09:09:35.000Z</time>
      </trkpt>
      <trkpt lat="46.05889" lon="-0.35594">
        <ele>89.2</ele>
        <time>2013-03-10T09:09:36.000Z</time>
      </trkpt>
      <trkpt lat="46.0589" lon="-0.35586">
        <ele>89</ele>
        <time>2013-03-10T09:09:37.000Z</time>
      </trkpt>
      <trkpt lat="46.05892" lon="-0.35579">
        <ele>88.8</ele>
        <time>2013-03-10T09:09:38.000Z</time>
      </trkpt>
      <trkpt lat="46.05893" lon="-0.35571">
        <ele>88.2</ele>
        <time>2013-03-10T09:09:39.000Z</time>
      </trkpt>
      <trkpt lat="46.05895" lon="-0.35563">
        <ele>87.7</ele>
        <time>2013-03-10T09:09:40.000Z</time>
      </trkpt>
      <trkpt lat="46.05896" lon="-0.35554">
        <ele>87.4</ele>
        <time>2013-03-10T09:09:41.000Z</time>
      </trkpt>
      <trkpt lat="46.05898" lon="-0.35546">
        <ele>87.2</ele>
        <time>2013-03-10T09:09:42.000Z</time>
      </trkpt>
      <trkpt lat="46.05899" lon="-0.35537">
        <ele>87.1</ele>
        <time>2013-03-10T09:09:43.000Z</time>
      </trkpt>
      <trkpt lat="46.05901" lon="-0.35529">
        <ele>86.6</ele>
        <time>2013-03-10T09:09:44.000Z</time>
      </trkpt>
      <trkpt lat="46.05904" lon="-0.35523">
        <ele>86.2</ele>
        <time>2013-03-10T09:09:45.000Z</time>
      </trkpt>
      <trkpt lat="46.05908" lon="-0.3552">
        <ele>85.8</ele>
        <time>2013-03-10T09:09:46.000Z</time>
      </trkpt>
      <trkpt lat="46.05913" lon="-0.3552">
        <ele>85.6</ele>
        <time>2013-03-10T09:09:47.000Z</time>
      </trkpt>
      <trkpt lat="46.05918" lon="-0.35521">
        <ele>85.4</ele>
        <time>2013-03-10T09:09:48.000Z</time>
      </trkpt>
      <trkpt lat="46.05924" lon="-0.35522">
        <ele>84.8</ele>
        <time>2013-03-10T09:09:49.000Z</time>
      </trkpt>
      <trkpt lat="46.0593" lon="-0.35523">
        <ele>84.4</ele>
        <time>2013-03-10T09:09:50.000Z</time>
      </trkpt>
      <trkpt lat="46.05936" lon="-0.35524">
        <ele>84.4</ele>
        <time>2013-03-10T09:09:51.000Z</time>
      </trkpt>
      <trkpt lat="46.05943" lon="-0.35525">
        <ele>84.5</ele>
        <time>2013-03-10T09:09:52.000Z</time>
      </trkpt>
      <trkpt lat="46.05949" lon="-0.35526">
        <ele>84.3</ele>
        <time>2013-03-10T09:09:53.000Z</time>
      </trkpt>
      <trkpt lat="46.05956" lon="-0.35526">
        <ele>84.2</ele>
        <time>2013-03-10T09:09:54.000Z</time>
      </trkpt>
      <trkpt lat="46.05962" lon="-0.35524">
        <ele>84.1</ele>
        <time>2013-03-10T09:09:55.000Z</time>
      </trkpt>
      <trkpt lat="46.05969" lon="-0.35521">
        <ele>84</ele>
        <time>2013-03-10T09:09:56.000Z</time>
      </trkpt>
      <trkpt lat="46.05975" lon="-0.35517">
        <ele>84</ele>
        <time>2013-03-10T09:09:57.000Z</time>
      </trkpt>
      <trkpt lat="46.05982" lon="-0.35514">
        <ele>83.8</ele>
        <time>2013-03-10T09:09:58.000Z</time>
      </trkpt>
      <trkpt lat="46.05989" lon="-0.3551">
        <ele>83.7</ele>
        <time>2013-03-10T09:09:59.000Z</time>
      </trkpt>
      <trkpt lat="46.05995" lon="-0.35506">
        <ele>83.3</ele>
        <time>2013-03-10T09:10:00.000Z</time>
      </trkpt>
      <trkpt lat="46.06002" lon="-0.35502">
        <ele>83.1</ele>
        <time>2013-03-10T09:10:01.000Z</time>
      </trkpt>
      <trkpt lat="46.06009" lon="-0.35498">
        <ele>82.9</ele>
        <time>2013-03-10T09:10:02.000Z</time>
      </trkpt>
      <trkpt lat="46.06016" lon="-0.35494">
        <ele>82.2</ele>
        <time>2013-03-10T09:10:03.000Z</time>
      </trkpt>
      <trkpt lat="46.06023" lon="-0.3549">
        <ele>81.8</ele>
        <time>2013-03-10T09:10:04.000Z</time>
      </trkpt>
      <trkpt lat="46.0603" lon="-0.35486">
        <ele>81.5</ele>
        <time>2013-03-10T09:10:05.000Z</time>
      </trkpt>
      <trkpt lat="46.06038" lon="-0.35482">
        <ele>81.2</ele>
        <time>2013-03-10T09:10:06.000Z</time>
      </trkpt>
      <trkpt lat="46.06045" lon="-0.35478">
        <ele>81</ele>
        <time>2013-03-10T09:10:07.000Z</time>
      </trkpt>
      <trkpt lat="46.06053" lon="-0.35475">
        <ele>80.6</ele>
        <time>2013-03-10T09:10:08.000Z</time>
      </trkpt>
      <trkpt lat="46.06061" lon="-0.35471">
        <ele>80.3</ele>
        <time>2013-03-10T09:10:09.000Z</time>
      </trkpt>
      <trkpt lat="46.06068" lon="-0.35467">
        <ele>80.2</ele>
        <time>2013-03-10T09:10:10.000Z</time>
      </trkpt>
      <trkpt lat="46.06075" lon="-0.35463">
        <ele>80.1</ele>
        <time>2013-03-10T09:10:11.000Z</time>
      </trkpt>
      <trkpt lat="46.06083" lon="-0.35459">
        <ele>80.1</ele>
        <time>2013-03-10T09:10:12.000Z</time>
      </trkpt>
      <trkpt lat="46.0609" lon="-0.35455">
        <ele>80</ele>
        <time>2013-03-10T09:10:13.000Z</time>
      </trkpt>
      <trkpt lat="46.06097" lon="-0.35452">
        <ele>79.9</ele>
        <time>2013-03-10T09:10:14.000Z</time>
      </trkpt>
      <trkpt lat="46.06105" lon="-0.35448">
        <ele>79.5</ele>
        <time>2013-03-10T09:10:15.000Z</time>
      </trkpt>
      <trkpt lat="46.06112" lon="-0.35444">
        <ele>79.1</ele>
        <time>2013-03-10T09:10:16.000Z</time>
      </trkpt>
      <trkpt lat="46.06119" lon="-0.3544">
        <ele>79</ele>
        <time>2013-03-10T09:10:17.000Z</time>
      </trkpt>
      <trkpt lat="46.06126" lon="-0.35436">
        <ele>79</ele>
        <time>2013-03-10T09:10:18.000Z</time>
      </trkpt>
      <trkpt lat="46.06134" lon="-0.35432">
        <ele>78.5</ele>
        <time>2013-03-10T09:10:19.000Z</time>
      </trkpt>
      <trkpt lat="46.06141" lon="-0.35428">
        <ele>78.1</ele>
        <time>2013-03-10T09:10:20.000Z</time>
      </trkpt>
      <trkpt lat="46.06148" lon="-0.35424">
        <ele>77.9</ele>
        <time>2013-03-10T09:10:21.000Z</time>
      </trkpt>
      <trkpt lat="46.06156" lon="-0.3542">
        <ele>77.8</ele>
        <time>2013-03-10T09:10:22.000Z</time>
      </trkpt>
      <trkpt lat="46.06163" lon="-0.35416">
        <ele>77.8</ele>
        <time>2013-03-10T09:10:23.000Z</time>
      </trkpt>
      <trkpt lat="46.0617" lon="-0.35412">
        <ele>77.5</ele>
        <time>2013-03-10T09:10:24.000Z</time>
      </trkpt>
      <trkpt lat="46.06178" lon="-0.35408">
        <ele>77.3</ele>
        <time>2013-03-10T09:10:25.000Z</time>
      </trkpt>
      <trkpt lat="46.06185" lon="-0.35405">
        <ele>77.2</ele>
        <time>2013-03-10T09:10:26.000Z</time>
      </trkpt>
      <trkpt lat="46.06193" lon="-0.35401">
        <ele>76.9</ele>
        <time>2013-03-10T09:10:27.000Z</time>
      </trkpt>
      <trkpt lat="46.062" lon="-0.35398">
        <ele>76.7</ele>
        <time>2013-03-10T09:10:28.000Z</time>
      </trkpt>
      <trkpt lat="46.06208" lon="-0.35395">
        <ele>76.7</ele>
        <time>2013-03-10T09:10:29.000Z</time>
      </trkpt>
      <trkpt lat="46.06215" lon="-0.35393">
        <ele>76.7</ele>
        <time>2013-03-10T09:10:30.000Z</time>
      </trkpt>
      <trkpt lat="46.06222" lon="-0.3539">
        <ele>76.4</ele>
        <time>2013-03-10T09:10:31.000Z</time>
      </trkpt>
      <trkpt lat="46.06229" lon="-0.35387">
        <ele>76.1</ele>
        <time>2013-03-10T09:10:32.000Z</time>
      </trkpt>
      <trkpt lat="46.06234" lon="-0.35385">
        <ele>75.9</ele>
        <time>2013-03-10T09:10:33.000Z</time>
      </trkpt>
      <trkpt lat="46.0624" lon="-0.35383">
        <ele>75.5</ele>
        <time>2013-03-10T09:10:34.000Z</time>
      </trkpt>
      <trkpt lat="46.06246" lon="-0.3538">
        <ele>75.2</ele>
        <time>2013-03-10T09:10:35.000Z</time>
      </trkpt>
      <trkpt lat="46.06251" lon="-0.35378">
        <ele>75</ele>
        <time>2013-03-10T09:10:36.000Z</time>
      </trkpt>
      <trkpt lat="46.06255" lon="-0.35376">
        <ele>74.9</ele>
        <time>2013-03-10T09:10:37.000Z</time>
      </trkpt>
      <trkpt lat="46.0626" lon="-0.35374">
        <ele>74.3</ele>
        <time>2013-03-10T09:10:38.000Z</time>
      </trkpt>
      <trkpt lat="46.06264" lon="-0.35372">
        <ele>73.8</ele>
        <time>2013-03-10T09:10:39.000Z</time>
      </trkpt>
      <trkpt lat="46.06269" lon="-0.3537">
        <ele>73.5</ele>
        <time>2013-03-10T09:10:40.000Z</time>
      </trkpt>
      <trkpt lat="46.06277" lon="-0.35365">
        <ele>73.2</ele>
        <time>2013-03-10T09:10:42.000Z</time>
      </trkpt>
      <trkpt lat="46.06284" lon="-0.35364">
        <ele>73.2</ele>
        <time>2013-03-10T09:10:44.000Z</time>
      </trkpt>
      <trkpt lat="46.06291" lon="-0.35369">
        <ele>73.4</ele>
        <time>2013-03-10T09:10:47.000Z</time>
      </trkpt>
      <trkpt lat="46.06295" lon="-0.3538">
        <ele>73.8</ele>
        <time>2013-03-10T09:10:50.000Z</time>
      </trkpt>
      <trkpt lat="46.06297" lon="-0.3539">
        <ele>74.2</ele>
        <time>2013-03-10T09:10:52.000Z</time>
      </trkpt>
      <trkpt lat="46.06299" lon="-0.35401">
        <ele>74.3</ele>
        <time>2013-03-10T09:10:54.000Z</time>
      </trkpt>
      <trkpt lat="46.06301" lon="-0.35412">
        <ele>74.3</ele>
        <time>2013-03-10T09:10:56.000Z</time>
      </trkpt>
      <trkpt lat="46.06303" lon="-0.35424">
        <ele>74.7</ele>
        <time>2013-03-10T09:10:58.000Z</time>
      </trkpt>
      <trkpt lat="46.06303" lon="-0.3543">
        <ele>74.8</ele>
        <time>2013-03-10T09:10:59.000Z</time>
      </trkpt>
      <trkpt lat="46.06304" lon="-0.35436">
        <ele>75.2</ele>
        <time>2013-03-10T09:11:00.000Z</time>
      </trkpt>
      <trkpt lat="46.06307" lon="-0.35449">
        <ele>76.1</ele>
        <time>2013-03-10T09:11:02.000Z</time>
      </trkpt>
      <trkpt lat="46.06309" lon="-0.35461">
        <ele>76.9</ele>
        <time>2013-03-10T09:11:04.000Z</time>
      </trkpt>
      <trkpt lat="46.0631" lon="-0.35468">
        <ele>77</ele>
        <time>2013-03-10T09:11:05.000Z</time>
      </trkpt>
      <trkpt lat="46.06311" lon="-0.35475">
        <ele>77.1</ele>
        <time>2013-03-10T09:11:06.000Z</time>
      </trkpt>
      <trkpt lat="46.06311" lon="-0.35482">
        <ele>77.3</ele>
        <time>2013-03-10T09:11:07.000Z</time>
      </trkpt>
      <trkpt lat="46.06311" lon="-0.35489">
        <ele>77.3</ele>
        <time>2013-03-10T09:11:08.000Z</time>
      </trkpt>
      <trkpt lat="46.06312" lon="-0.35496">
        <ele>77.5</ele>
        <time>2013-03-10T09:11:09.000Z</time>
      </trkpt>
      <trkpt lat="46.06312" lon="-0.35503">
        <ele>77.6</ele>
        <time>2013-03-10T09:11:10.000Z</time>
      </trkpt>
      <trkpt lat="46.06312" lon="-0.3551">
        <ele>77.7</ele>
        <time>2013-03-10T09:11:11.000Z</time>
      </trkpt>
      <trkpt lat="46.06313" lon="-0.35517">
        <ele>77.7</ele>
        <time>2013-03-10T09:11:12.000Z</time>
      </trkpt>
      <trkpt lat="46.06314" lon="-0.35524">
        <ele>77.7</ele>
        <time>2013-03-10T09:11:13.000Z</time>
      </trkpt>
      <trkpt lat="46.06315" lon="-0.35531">
        <ele>77.5</ele>
        <time>2013-03-10T09:11:14.000Z</time>
      </trkpt>
      <trkpt lat="46.06316" lon="-0.35537">
        <ele>77.4</ele>
        <time>2013-03-10T09:11:15.000Z</time>
      </trkpt>
      <trkpt lat="46.06319" lon="-0.35549">
        <ele>78.1</ele>
        <time>2013-03-10T09:11:17.000Z</time>
      </trkpt>
      <trkpt lat="46.06321" lon="-0.35555">
        <ele>78.3</ele>
        <time>2013-03-10T09:11:18.000Z</time>
      </trkpt>
      <trkpt lat="46.06325" lon="-0.35573">
        <ele>78.7</ele>
        <time>2013-03-10T09:11:21.000Z</time>
      </trkpt>
      <trkpt lat="46.06329" lon="-0.35583">
        <ele>79.3</ele>
        <time>2013-03-10T09:11:23.000Z</time>
      </trkpt>
      <trkpt lat="46.06332" lon="-0.35593">
        <ele>78.8</ele>
        <time>2013-03-10T09:11:25.000Z</time>
      </trkpt>
      <trkpt lat="46.06336" lon="-0.35604">
        <ele>78.8</ele>
        <time>2013-03-10T09:11:27.000Z</time>
      </trkpt>
      <trkpt lat="46.06338" lon="-0.3561">
        <ele>79.1</ele>
        <time>2013-03-10T09:11:28.000Z</time>
      </trkpt>
      <trkpt lat="46.0634" lon="-0.35617">
        <ele>79.4</ele>
        <time>2013-03-10T09:11:29.000Z</time>
      </trkpt>
      <trkpt lat="46.06341" lon="-0.35623">
        <ele>79.6</ele>
        <time>2013-03-10T09:11:30.000Z</time>
      </trkpt>
      <trkpt lat="46.06343" lon="-0.3563">
        <ele>79.9</ele>
        <time>2013-03-10T09:11:31.000Z</time>
      </trkpt>
      <trkpt lat="46.06344" lon="-0.35637">
        <ele>80.1</ele>
        <time>2013-03-10T09:11:32.000Z</time>
      </trkpt>
      <trkpt lat="46.06346" lon="-0.35644">
        <ele>80.4</ele>
        <time>2013-03-10T09:11:33.000Z</time>
      </trkpt>
      <trkpt lat="46.06347" lon="-0.35651">
        <ele>80.6</ele>
        <time>2013-03-10T09:11:34.000Z</time>
      </trkpt>
      <trkpt lat="46.06348" lon="-0.35658">
        <ele>80.9</ele>
        <time>2013-03-10T09:11:35.000Z</time>
      </trkpt>
      <trkpt lat="46.06349" lon="-0.35665">
        <ele>81.1</ele>
        <time>2013-03-10T09:11:36.000Z</time>
      </trkpt>
      <trkpt lat="46.0635" lon="-0.35672">
        <ele>81.3</ele>
        <time>2013-03-10T09:11:37.000Z</time>
      </trkpt>
      <trkpt lat="46.06352" lon="-0.35679">
        <ele>81.2</ele>
        <time>2013-03-10T09:11:38.000Z</time>
      </trkpt>
      <trkpt lat="46.06353" lon="-0.35686">
        <ele>81.1</ele>
        <time>2013-03-10T09:11:39.000Z</time>
      </trkpt>
      <trkpt lat="46.06354" lon="-0.35693">
        <ele>81.2</ele>
        <time>2013-03-10T09:11:40.000Z</time>
      </trkpt>
      <trkpt lat="46.06355" lon="-0.357">
        <ele>81.2</ele>
        <time>2013-03-10T09:11:41.000Z</time>
      </trkpt>
      <trkpt lat="46.06356" lon="-0.35707">
        <ele>81.7</ele>
        <time>2013-03-10T09:11:42.000Z</time>
      </trkpt>
      <trkpt lat="46.06357" lon="-0.35714">
        <ele>82</ele>
        <time>2013-03-10T09:11:43.000Z</time>
      </trkpt>
      <trkpt lat="46.06358" lon="-0.35721">
        <ele>82.3</ele>
        <time>2013-03-10T09:11:44.000Z</time>
      </trkpt>
      <trkpt lat="46.06359" lon="-0.35728">
        <ele>82.5</ele>
        <time>2013-03-10T09:11:45.000Z</time>
      </trkpt>
      <trkpt lat="46.0636" lon="-0.35735">
        <ele>82.7</ele>
        <time>2013-03-10T09:11:46.000Z</time>
      </trkpt>
      <trkpt lat="46.06361" lon="-0.35742">
        <ele>82.3</ele>
        <time>2013-03-10T09:11:47.000Z</time>
      </trkpt>
      <trkpt lat="46.06362" lon="-0.35748">
        <ele>82.1</ele>
        <time>2013-03-10T09:11:48.000Z</time>
      </trkpt>
      <trkpt lat="46.06363" lon="-0.35755">
        <ele>81.9</ele>
        <time>2013-03-10T09:11:49.000Z</time>
      </trkpt>
      <trkpt lat="46.06364" lon="-0.35761">
        <ele>81.7</ele>
        <time>2013-03-10T09:11:50.000Z</time>
      </trkpt>
      <trkpt lat="46.06365" lon="-0.35773">
        <ele>81.8</ele>
        <time>2013-03-10T09:11:52.000Z</time>
      </trkpt>
      <trkpt lat="46.06366" lon="-0.35785">
        <ele>82</ele>
        <time>2013-03-10T09:11:54.000Z</time>
      </trkpt>
      <trkpt lat="46.06367" lon="-0.35797">
        <ele>82.2</ele>
        <time>2013-03-10T09:11:56.000Z</time>
      </trkpt>
      <trkpt lat="46.06368" lon="-0.35809">
        <ele>82.5</ele>
        <time>2013-03-10T09:11:58.000Z</time>
      </trkpt>
      <trkpt lat="46.0637" lon="-0.35821">
        <ele>82.5</ele>
        <time>2013-03-10T09:12:00.000Z</time>
      </trkpt>
      <trkpt lat="46.06371" lon="-0.35827">
        <ele>82.5</ele>
        <time>2013-03-10T09:12:01.000Z</time>
      </trkpt>
      <trkpt lat="46.06372" lon="-0.35833">
        <ele>82.5</ele>
        <time>2013-03-10T09:12:02.000Z</time>
      </trkpt>
      <trkpt lat="46.06373" lon="-0.3584">
        <ele>82.5</ele>
        <time>2013-03-10T09:12:03.000Z</time>
      </trkpt>
      <trkpt lat="46.06374" lon="-0.35847">
        <ele>82.4</ele>
        <time>2013-03-10T09:12:04.000Z</time>
      </trkpt>
      <trkpt lat="46.06375" lon="-0.35854">
        <ele>82.4</ele>
        <time>2013-03-10T09:12:05.000Z</time>
      </trkpt>
      <trkpt lat="46.06376" lon="-0.35861">
        <ele>82.2</ele>
        <time>2013-03-10T09:12:06.000Z</time>
      </trkpt>
      <trkpt lat="46.06378" lon="-0.35868">
        <ele>82</ele>
        <time>2013-03-10T09:12:07.000Z</time>
      </trkpt>
      <trkpt lat="46.06379" lon="-0.35875">
        <ele>81.9</ele>
        <time>2013-03-10T09:12:08.000Z</time>
      </trkpt>
      <trkpt lat="46.0638" lon="-0.35882">
        <ele>82.2</ele>
        <time>2013-03-10T09:12:09.000Z</time>
      </trkpt>
      <trkpt lat="46.06381" lon="-0.35889">
        <ele>82.4</ele>
        <time>2013-03-10T09:12:10.000Z</time>
      </trkpt>
      <trkpt lat="46.06382" lon="-0.35896">
        <ele>82.7</ele>
        <time>2013-03-10T09:12:11.000Z</time>
      </trkpt>
      <trkpt lat="46.06383" lon="-0.35903">
        <ele>83</ele>
        <time>2013-03-10T09:12:12.000Z</time>
      </trkpt>
      <trkpt lat="46.06384" lon="-0.3591">
        <ele>83.1</ele>
        <time>2013-03-10T09:12:13.000Z</time>
      </trkpt>
      <trkpt lat="46.06386" lon="-0.35917">
        <ele>83.2</ele>
        <time>2013-03-10T09:12:14.000Z</time>
      </trkpt>
      <trkpt lat="46.06388" lon="-0.35924">
        <ele>83.3</ele>
        <time>2013-03-10T09:12:15.000Z</time>
      </trkpt>
      <trkpt lat="46.06389" lon="-0.35931">
        <ele>83.5</ele>
        <time>2013-03-10T09:12:16.000Z</time>
      </trkpt>
      <trkpt lat="46.06391" lon="-0.35938">
        <ele>83.7</ele>
        <time>2013-03-10T09:12:17.000Z</time>
      </trkpt>
      <trkpt lat="46.06393" lon="-0.35944">
        <ele>83.8</ele>
        <time>2013-03-10T09:12:18.000Z</time>
      </trkpt>
      <trkpt lat="46.06394" lon="-0.35951">
        <ele>83.8</ele>
        <time>2013-03-10T09:12:19.000Z</time>
      </trkpt>
      <trkpt lat="46.06396" lon="-0.35968">
        <ele>83.8</ele>
        <time>2013-03-10T09:12:22.000Z</time>
      </trkpt>
      <trkpt lat="46.06396" lon="-0.35979">
        <ele>84</ele>
        <time>2013-03-10T09:12:24.000Z</time>
      </trkpt>
      <trkpt lat="46.06396" lon="-0.3599">
        <ele>84</ele>
        <time>2013-03-10T09:12:26.000Z</time>
      </trkpt>
      <trkpt lat="46.06397" lon="-0.36001">
        <ele>83.6</ele>
        <time>2013-03-10T09:12:28.000Z</time>
      </trkpt>
      <trkpt lat="46.06398" lon="-0.36014">
        <ele>82.9</ele>
        <time>2013-03-10T09:12:30.000Z</time>
      </trkpt>
      <trkpt lat="46.064" lon="-0.36026">
        <ele>83.3</ele>
        <time>2013-03-10T09:12:32.000Z</time>
      </trkpt>
      <trkpt lat="46.06402" lon="-0.36038">
        <ele>84.1</ele>
        <time>2013-03-10T09:12:34.000Z</time>
      </trkpt>
      <trkpt lat="46.06405" lon="-0.36049">
        <ele>83.8</ele>
        <time>2013-03-10T09:12:36.000Z</time>
      </trkpt>
      <trkpt lat="46.06408" lon="-0.3606">
        <ele>83.7</ele>
        <time>2013-03-10T09:12:38.000Z</time>
      </trkpt>
      <trkpt lat="46.0641" lon="-0.36072">
        <ele>84</ele>
        <time>2013-03-10T09:12:40.000Z</time>
      </trkpt>
      <trkpt lat="46.06412" lon="-0.36084">
        <ele>84</ele>
        <time>2013-03-10T09:12:42.000Z</time>
      </trkpt>
      <trkpt lat="46.06413" lon="-0.3609">
        <ele>83.9</ele>
        <time>2013-03-10T09:12:43.000Z</time>
      </trkpt>
      <trkpt lat="46.06414" lon="-0.36097">
        <ele>83.7</ele>
        <time>2013-03-10T09:12:44.000Z</time>
      </trkpt>
      <trkpt lat="46.06415" lon="-0.36104">
        <ele>83.6</ele>
        <time>2013-03-10T09:12:45.000Z</time>
      </trkpt>
      <trkpt lat="46.06417" lon="-0.3611">
        <ele>83.5</ele>
        <time>2013-03-10T09:12:46.000Z</time>
      </trkpt>
      <trkpt lat="46.06419" lon="-0.36116">
        <ele>83.6</ele>
        <time>2013-03-10T09:12:47.000Z</time>
      </trkpt>
      <trkpt lat="46.06422" lon="-0.36128">
        <ele>83.7</ele>
        <time>2013-03-10T09:12:49.000Z</time>
      </trkpt>
      <trkpt lat="46.06426" lon="-0.3614">
        <ele>83.2</ele>
        <time>2013-03-10T09:12:51.000Z</time>
      </trkpt>
      <trkpt lat="46.06428" lon="-0.36151">
        <ele>82.6</ele>
        <time>2013-03-10T09:12:53.000Z</time>
      </trkpt>
      <trkpt lat="46.06431" lon="-0.36162">
        <ele>82.8</ele>
        <time>2013-03-10T09:12:55.000Z</time>
      </trkpt>
      <trkpt lat="46.06433" lon="-0.36174">
        <ele>82.7</ele>
        <time>2013-03-10T09:12:57.000Z</time>
      </trkpt>
      <trkpt lat="46.06435" lon="-0.36181">
        <ele>82.8</ele>
        <time>2013-03-10T09:12:58.000Z</time>
      </trkpt>
      <trkpt lat="46.06437" lon="-0.36187">
        <ele>82.8</ele>
        <time>2013-03-10T09:12:59.000Z</time>
      </trkpt>
      <trkpt lat="46.06439" lon="-0.36193">
        <ele>82.8</ele>
        <time>2013-03-10T09:13:00.000Z</time>
      </trkpt>
      <trkpt lat="46.06441" lon="-0.36199">
        <ele>83.1</ele>
        <time>2013-03-10T09:13:01.000Z</time>
      </trkpt>
      <trkpt lat="46.06445" lon="-0.36211">
        <ele>83.3</ele>
        <time>2013-03-10T09:13:03.000Z</time>
      </trkpt>
      <trkpt lat="46.06448" lon="-0.36222">
        <ele>83.4</ele>
        <time>2013-03-10T09:13:05.000Z</time>
      </trkpt>
      <trkpt lat="46.0645" lon="-0.36228">
        <ele>83.3</ele>
        <time>2013-03-10T09:13:06.000Z</time>
      </trkpt>
      <trkpt lat="46.06452" lon="-0.36235">
        <ele>83.2</ele>
        <time>2013-03-10T09:13:07.000Z</time>
      </trkpt>
      <trkpt lat="46.06455" lon="-0.36247">
        <ele>83.6</ele>
        <time>2013-03-10T09:13:09.000Z</time>
      </trkpt>
      <trkpt lat="46.06456" lon="-0.36253">
        <ele>83.5</ele>
        <time>2013-03-10T09:13:10.000Z</time>
      </trkpt>
      <trkpt lat="46.06459" lon="-0.36265">
        <ele>83.5</ele>
        <time>2013-03-10T09:13:12.000Z</time>
      </trkpt>
      <trkpt lat="46.06462" lon="-0.36276">
        <ele>83.2</ele>
        <time>2013-03-10T09:13:14.000Z</time>
      </trkpt>
      <trkpt lat="46.06466" lon="-0.36286">
        <ele>83</ele>
        <time>2013-03-10T09:13:16.000Z</time>
      </trkpt>
      <trkpt lat="46.06469" lon="-0.36298">
        <ele>83.3</ele>
        <time>2013-03-10T09:13:18.000Z</time>
      </trkpt>
      <trkpt lat="46.06469" lon="-0.3631">
        <ele>83.1</ele>
        <time>2013-03-10T09:13:20.000Z</time>
      </trkpt>
      <trkpt lat="46.06469" lon="-0.36316">
        <ele>83</ele>
        <time>2013-03-10T09:13:21.000Z</time>
      </trkpt>
      <trkpt lat="46.06468" lon="-0.3633">
        <ele>82.8</ele>
        <time>2013-03-10T09:13:23.000Z</time>
      </trkpt>
      <trkpt lat="46.06467" lon="-0.36336">
        <ele>82.8</ele>
        <time>2013-03-10T09:13:24.000Z</time>
      </trkpt>
      <trkpt lat="46.06466" lon="-0.36343">
        <ele>82.9</ele>
        <time>2013-03-10T09:13:25.000Z</time>
      </trkpt>
      <trkpt lat="46.06466" lon="-0.3635">
        <ele>83</ele>
        <time>2013-03-10T09:13:26.000Z</time>
      </trkpt>
      <trkpt lat="46.06466" lon="-0.36357">
        <ele>82.8</ele>
        <time>2013-03-10T09:13:27.000Z</time>
      </trkpt>
      <trkpt lat="46.06466" lon="-0.36364">
        <ele>82.7</ele>
        <time>2013-03-10T09:13:28.000Z</time>
      </trkpt>
      <trkpt lat="46.06466" lon="-0.36372">
        <ele>82.7</ele>
        <time>2013-03-10T09:13:29.000Z</time>
      </trkpt>
      <trkpt lat="46.06465" lon="-0.36379">
        <ele>82.7</ele>
        <time>2013-03-10T09:13:30.000Z</time>
      </trkpt>
      <trkpt lat="46.06466" lon="-0.36387">
        <ele>82.7</ele>
        <time>2013-03-10T09:13:31.000Z</time>
      </trkpt>
      <trkpt lat="46.06466" lon="-0.36394">
        <ele>82.7</ele>
        <time>2013-03-10T09:13:32.000Z</time>
      </trkpt>
      <trkpt lat="46.06467" lon="-0.36401">
        <ele>82.7</ele>
        <time>2013-03-10T09:13:33.000Z</time>
      </trkpt>
      <trkpt lat="46.06467" lon="-0.36409">
        <ele>82.6</ele>
        <time>2013-03-10T09:13:34.000Z</time>
      </trkpt>
      <trkpt lat="46.06468" lon="-0.36416">
        <ele>82.5</ele>
        <time>2013-03-10T09:13:35.000Z</time>
      </trkpt>
      <trkpt lat="46.06469" lon="-0.36423">
        <ele>82.4</ele>
        <time>2013-03-10T09:13:36.000Z</time>
      </trkpt>
      <trkpt lat="46.0647" lon="-0.3643">
        <ele>82.3</ele>
        <time>2013-03-10T09:13:37.000Z</time>
      </trkpt>
      <trkpt lat="46.06472" lon="-0.36437">
        <ele>82.3</ele>
        <time>2013-03-10T09:13:38.000Z</time>
      </trkpt>
      <trkpt lat="46.06474" lon="-0.36443">
        <ele>81.9</ele>
        <time>2013-03-10T09:13:39.000Z</time>
      </trkpt>
      <trkpt lat="46.06478" lon="-0.36447">
        <ele>81.6</ele>
        <time>2013-03-10T09:13:40.000Z</time>
      </trkpt>
      <trkpt lat="46.06482" lon="-0.36451">
        <ele>81.8</ele>
        <time>2013-03-10T09:13:41.000Z</time>
      </trkpt>
      <trkpt lat="46.06486" lon="-0.36456">
        <ele>82</ele>
        <time>2013-03-10T09:13:42.000Z</time>
      </trkpt>
      <trkpt lat="46.06489" lon="-0.36462">
        <ele>82.1</ele>
        <time>2013-03-10T09:13:43.000Z</time>
      </trkpt>
      <trkpt lat="46.06491" lon="-0.36469">
        <ele>81.7</ele>
        <time>2013-03-10T09:13:44.000Z</time>
      </trkpt>
      <trkpt lat="46.06492" lon="-0.36477">
        <ele>81.4</ele>
        <time>2013-03-10T09:13:45.000Z</time>
      </trkpt>
      <trkpt lat="46.06492" lon="-0.36484">
        <ele>81.3</ele>
        <time>2013-03-10T09:13:46.000Z</time>
      </trkpt>
      <trkpt lat="46.06493" lon="-0.36492">
        <ele>81.1</ele>
        <time>2013-03-10T09:13:47.000Z</time>
      </trkpt>
      <trkpt lat="46.06493" lon="-0.365">
        <ele>81</ele>
        <time>2013-03-10T09:13:48.000Z</time>
      </trkpt>
      <trkpt lat="46.06493" lon="-0.36508">
        <ele>81</ele>
        <time>2013-03-10T09:13:49.000Z</time>
      </trkpt>
      <trkpt lat="46.06494" lon="-0.36516">
        <ele>80.9</ele>
        <time>2013-03-10T09:13:50.000Z</time>
      </trkpt>
      <trkpt lat="46.06495" lon="-0.36524">
        <ele>80.6</ele>
        <time>2013-03-10T09:13:51.000Z</time>
      </trkpt>
      <trkpt lat="46.06496" lon="-0.36532">
        <ele>80.3</ele>
        <time>2013-03-10T09:13:52.000Z</time>
      </trkpt>
      <trkpt lat="46.06498" lon="-0.36539">
        <ele>80.8</ele>
        <time>2013-03-10T09:13:53.000Z</time>
      </trkpt>
      <trkpt lat="46.065" lon="-0.36547">
        <ele>81.2</ele>
        <time>2013-03-10T09:13:54.000Z</time>
      </trkpt>
      <trkpt lat="46.06503" lon="-0.36555">
        <ele>81.2</ele>
        <time>2013-03-10T09:13:55.000Z</time>
      </trkpt>
      <trkpt lat="46.06505" lon="-0.36563">
        <ele>81.3</ele>
        <time>2013-03-10T09:13:56.000Z</time>
      </trkpt>
      <trkpt lat="46.06508" lon="-0.3657">
        <ele>81.3</ele>
        <time>2013-03-10T09:13:57.000Z</time>
      </trkpt>
      <trkpt lat="46.0651" lon="-0.36578">
        <ele>80.9</ele>
        <time>2013-03-10T09:13:58.000Z</time>
      </trkpt>
      <trkpt lat="46.06512" lon="-0.36585">
        <ele>80.5</ele>
        <time>2013-03-10T09:13:59.000Z</time>
      </trkpt>
      <trkpt lat="46.06514" lon="-0.36592">
        <ele>80.7</ele>
        <time>2013-03-10T09:14:00.000Z</time>
      </trkpt>
      <trkpt lat="46.06515" lon="-0.36599">
        <ele>80.8</ele>
        <time>2013-03-10T09:14:01.000Z</time>
      </trkpt>
      <trkpt lat="46.06515" lon="-0.36607">
        <ele>81.2</ele>
        <time>2013-03-10T09:14:02.000Z</time>
      </trkpt>
      <trkpt lat="46.06514" lon="-0.36615">
        <ele>81.6</ele>
        <time>2013-03-10T09:14:03.000Z</time>
      </trkpt>
      <trkpt lat="46.06514" lon="-0.36624">
        <ele>81.9</ele>
        <time>2013-03-10T09:14:04.000Z</time>
      </trkpt>
      <trkpt lat="46.06513" lon="-0.36632">
        <ele>81.6</ele>
        <time>2013-03-10T09:14:05.000Z</time>
      </trkpt>
      <trkpt lat="46.06513" lon="-0.3664">
        <ele>81.3</ele>
        <time>2013-03-10T09:14:06.000Z</time>
      </trkpt>
      <trkpt lat="46.06514" lon="-0.36649">
        <ele>80.8</ele>
        <time>2013-03-10T09:14:07.000Z</time>
      </trkpt>
      <trkpt lat="46.06517" lon="-0.36656">
        <ele>80.4</ele>
        <time>2013-03-10T09:14:08.000Z</time>
      </trkpt>
      <trkpt lat="46.06519" lon="-0.36663">
        <ele>80.1</ele>
        <time>2013-03-10T09:14:09.000Z</time>
      </trkpt>
      <trkpt lat="46.06522" lon="-0.3667">
        <ele>80.1</ele>
        <time>2013-03-10T09:14:10.000Z</time>
      </trkpt>
      <trkpt lat="46.06525" lon="-0.36676">
        <ele>80.1</ele>
        <time>2013-03-10T09:14:11.000Z</time>
      </trkpt>
      <trkpt lat="46.0653" lon="-0.36687">
        <ele>79.9</ele>
        <time>2013-03-10T09:14:13.000Z</time>
      </trkpt>
      <trkpt lat="46.06536" lon="-0.36695">
        <ele>79.7</ele>
        <time>2013-03-10T09:14:15.000Z</time>
      </trkpt>
      <trkpt lat="46.06543" lon="-0.36701">
        <ele>79.3</ele>
        <time>2013-03-10T09:14:17.000Z</time>
      </trkpt>
      <trkpt lat="46.06547" lon="-0.36704">
        <ele>79.1</ele>
        <time>2013-03-10T09:14:18.000Z</time>
      </trkpt>
      <trkpt lat="46.06552" lon="-0.36707">
        <ele>79.4</ele>
        <time>2013-03-10T09:14:19.000Z</time>
      </trkpt>
      <trkpt lat="46.06557" lon="-0.36711">
        <ele>79.6</ele>
        <time>2013-03-10T09:14:20.000Z</time>
      </trkpt>
      <trkpt lat="46.06562" lon="-0.36714">
        <ele>79.8</ele>
        <time>2013-03-10T09:14:21.000Z</time>
      </trkpt>
      <trkpt lat="46.06567" lon="-0.36717">
        <ele>79.7</ele>
        <time>2013-03-10T09:14:22.000Z</time>
      </trkpt>
      <trkpt lat="46.06572" lon="-0.36719">
        <ele>79.6</ele>
        <time>2013-03-10T09:14:23.000Z</time>
      </trkpt>
      <trkpt lat="46.06576" lon="-0.36722">
        <ele>79.8</ele>
        <time>2013-03-10T09:14:24.000Z</time>
      </trkpt>
      <trkpt lat="46.06581" lon="-0.36726">
        <ele>80</ele>
        <time>2013-03-10T09:14:25.000Z</time>
      </trkpt>
      <trkpt lat="46.06585" lon="-0.36729">
        <ele>79.8</ele>
        <time>2013-03-10T09:14:26.000Z</time>
      </trkpt>
      <trkpt lat="46.0659" lon="-0.36731">
        <ele>79.6</ele>
        <time>2013-03-10T09:14:27.000Z</time>
      </trkpt>
      <trkpt lat="46.06595" lon="-0.36734">
        <ele>79.5</ele>
        <time>2013-03-10T09:14:28.000Z</time>
      </trkpt>
      <trkpt lat="46.066" lon="-0.36736">
        <ele>79.5</ele>
        <time>2013-03-10T09:14:29.000Z</time>
      </trkpt>
      <trkpt lat="46.06605" lon="-0.36739">
        <ele>79.5</ele>
        <time>2013-03-10T09:14:30.000Z</time>
      </trkpt>
      <trkpt lat="46.0661" lon="-0.36741">
        <ele>79.5</ele>
        <time>2013-03-10T09:14:31.000Z</time>
      </trkpt>
      <trkpt lat="46.06615" lon="-0.36742">
        <ele>79.4</ele>
        <time>2013-03-10T09:14:32.000Z</time>
      </trkpt>
      <trkpt lat="46.06621" lon="-0.36744">
        <ele>79.5</ele>
        <time>2013-03-10T09:14:33.000Z</time>
      </trkpt>
      <trkpt lat="46.06626" lon="-0.36745">
        <ele>79.6</ele>
        <time>2013-03-10T09:14:34.000Z</time>
      </trkpt>
      <trkpt lat="46.06631" lon="-0.36744">
        <ele>79.7</ele>
        <time>2013-03-10T09:14:35.000Z</time>
      </trkpt>
      <trkpt lat="46.06636" lon="-0.36741">
        <ele>79.6</ele>
        <time>2013-03-10T09:14:36.000Z</time>
      </trkpt>
      <trkpt lat="46.06638" lon="-0.36728">
        <ele>79.6</ele>
        <time>2013-03-10T09:14:38.000Z</time>
      </trkpt>
      <trkpt lat="46.06638" lon="-0.36721">
        <ele>79.7</ele>
        <time>2013-03-10T09:14:39.000Z</time>
      </trkpt>
      <trkpt lat="46.06638" lon="-0.36714">
        <ele>79.5</ele>
        <time>2013-03-10T09:14:40.000Z</time>
      </trkpt>
      <trkpt lat="46.06639" lon="-0.36707">
        <ele>79.3</ele>
        <time>2013-03-10T09:14:41.000Z</time>
      </trkpt>
      <trkpt lat="46.06639" lon="-0.367">
        <ele>79.1</ele>
        <time>2013-03-10T09:14:42.000Z</time>
      </trkpt>
      <trkpt lat="46.06638" lon="-0.36692">
        <ele>79.5</ele>
        <time>2013-03-10T09:14:43.000Z</time>
      </trkpt>
      <trkpt lat="46.06638" lon="-0.36685">
        <ele>79.8</ele>
        <time>2013-03-10T09:14:44.000Z</time>
      </trkpt>
      <trkpt lat="46.06638" lon="-0.36677">
        <ele>80.1</ele>
        <time>2013-03-10T09:14:45.000Z</time>
      </trkpt>
      <trkpt lat="46.06638" lon="-0.36669">
        <ele>80.3</ele>
        <time>2013-03-10T09:14:46.000Z</time>
      </trkpt>
      <trkpt lat="46.06638" lon="-0.36662">
        <ele>80.5</ele>
        <time>2013-03-10T09:14:47.000Z</time>
      </trkpt>
      <trkpt lat="46.06638" lon="-0.36654">
        <ele>80.7</ele>
        <time>2013-03-10T09:14:48.000Z</time>
      </trkpt>
      <trkpt lat="46.06638" lon="-0.36646">
        <ele>80.9</ele>
        <time>2013-03-10T09:14:49.000Z</time>
      </trkpt>
      <trkpt lat="46.06637" lon="-0.36639">
        <ele>80.9</ele>
        <time>2013-03-10T09:14:50.000Z</time>
      </trkpt>
      <trkpt lat="46.06637" lon="-0.36631">
        <ele>81</ele>
        <time>2013-03-10T09:14:51.000Z</time>
      </trkpt>
      <trkpt lat="46.06637" lon="-0.36624">
        <ele>81</ele>
        <time>2013-03-10T09:14:52.000Z</time>
      </trkpt>
      <trkpt lat="46.06638" lon="-0.36618">
        <ele>81.1</ele>
        <time>2013-03-10T09:14:53.000Z</time>
      </trkpt>
      <trkpt lat="46.0664" lon="-0.36612">
        <ele>81.1</ele>
        <time>2013-03-10T09:14:54.000Z</time>
      </trkpt>
      <trkpt lat="46.06644" lon="-0.36608">
        <ele>81.2</ele>
        <time>2013-03-10T09:14:55.000Z</time>
      </trkpt>
      <trkpt lat="46.06649" lon="-0.36605">
        <ele>81.3</ele>
        <time>2013-03-10T09:14:56.000Z</time>
      </trkpt>
      <trkpt lat="46.06654" lon="-0.36603">
        <ele>81.4</ele>
        <time>2013-03-10T09:14:57.000Z</time>
      </trkpt>
      <trkpt lat="46.06659" lon="-0.36602">
        <ele>81.4</ele>
        <time>2013-03-10T09:14:58.000Z</time>
      </trkpt>
      <trkpt lat="46.06665" lon="-0.36602">
        <ele>81.4</ele>
        <time>2013-03-10T09:14:59.000Z</time>
      </trkpt>
      <trkpt lat="46.06671" lon="-0.36601">
        <ele>81.5</ele>
        <time>2013-03-10T09:15:00.000Z</time>
      </trkpt>
      <trkpt lat="46.06676" lon="-0.36601">
        <ele>81.5</ele>
        <time>2013-03-10T09:15:01.000Z</time>
      </trkpt>
      <trkpt lat="46.06682" lon="-0.36601">
        <ele>81.7</ele>
        <time>2013-03-10T09:15:02.000Z</time>
      </trkpt>
      <trkpt lat="46.06688" lon="-0.36601">
        <ele>81.9</ele>
        <time>2013-03-10T09:15:03.000Z</time>
      </trkpt>
      <trkpt lat="46.06695" lon="-0.36601">
        <ele>81.8</ele>
        <time>2013-03-10T09:15:04.000Z</time>
      </trkpt>
      <trkpt lat="46.06701" lon="-0.36601">
        <ele>81.8</ele>
        <time>2013-03-10T09:15:05.000Z</time>
      </trkpt>
      <trkpt lat="46.06707" lon="-0.36601">
        <ele>81.8</ele>
        <time>2013-03-10T09:15:06.000Z</time>
      </trkpt>
      <trkpt lat="46.06713" lon="-0.366">
        <ele>81.6</ele>
        <time>2013-03-10T09:15:07.000Z</time>
      </trkpt>
      <trkpt lat="46.06719" lon="-0.366">
        <ele>81.4</ele>
        <time>2013-03-10T09:15:08.000Z</time>
      </trkpt>
      <trkpt lat="46.06725" lon="-0.366">
        <ele>81.4</ele>
        <time>2013-03-10T09:15:09.000Z</time>
      </trkpt>
      <trkpt lat="46.06731" lon="-0.366">
        <ele>81.4</ele>
        <time>2013-03-10T09:15:10.000Z</time>
      </trkpt>
      <trkpt lat="46.06737" lon="-0.36599">
        <ele>81.5</ele>
        <time>2013-03-10T09:15:11.000Z</time>
      </trkpt>
      <trkpt lat="46.06743" lon="-0.36599">
        <ele>81.6</ele>
        <time>2013-03-10T09:15:12.000Z</time>
      </trkpt>
      <trkpt lat="46.06749" lon="-0.36599">
        <ele>81.7</ele>
        <time>2013-03-10T09:15:13.000Z</time>
      </trkpt>
      <trkpt lat="46.06755" lon="-0.36599">
        <ele>81.4</ele>
        <time>2013-03-10T09:15:14.000Z</time>
      </trkpt>
      <trkpt lat="46.06761" lon="-0.36598">
        <ele>81.2</ele>
        <time>2013-03-10T09:15:15.000Z</time>
      </trkpt>
      <trkpt lat="46.06766" lon="-0.36598">
        <ele>81.1</ele>
        <time>2013-03-10T09:15:16.000Z</time>
      </trkpt>
      <trkpt lat="46.06772" lon="-0.36598">
        <ele>81.1</ele>
        <time>2013-03-10T09:15:17.000Z</time>
      </trkpt>
      <trkpt lat="46.06778" lon="-0.36598">
        <ele>80.9</ele>
        <time>2013-03-10T09:15:18.000Z</time>
      </trkpt>
      <trkpt lat="46.06784" lon="-0.36597">
        <ele>80.7</ele>
        <time>2013-03-10T09:15:19.000Z</time>
      </trkpt>
      <trkpt lat="46.06789" lon="-0.36597">
        <ele>80.6</ele>
        <time>2013-03-10T09:15:20.000Z</time>
      </trkpt>
      <trkpt lat="46.06795" lon="-0.36596">
        <ele>80.7</ele>
        <time>2013-03-10T09:15:21.000Z</time>
      </trkpt>
      <trkpt lat="46.06801" lon="-0.36596">
        <ele>80.8</ele>
        <time>2013-03-10T09:15:22.000Z</time>
      </trkpt>
      <trkpt lat="46.06807" lon="-0.36596">
        <ele>80.5</ele>
        <time>2013-03-10T09:15:23.000Z</time>
      </trkpt>
      <trkpt lat="46.06812" lon="-0.36595">
        <ele>80.2</ele>
        <time>2013-03-10T09:15:24.000Z</time>
      </trkpt>
      <trkpt lat="46.06818" lon="-0.36594">
        <ele>80</ele>
        <time>2013-03-10T09:15:25.000Z</time>
      </trkpt>
      <trkpt lat="46.06824" lon="-0.36593">
        <ele>80.2</ele>
        <time>2013-03-10T09:15:26.000Z</time>
      </trkpt>
      <trkpt lat="46.0683" lon="-0.36592">
        <ele>80.2</ele>
        <time>2013-03-10T09:15:27.000Z</time>
      </trkpt>
      <trkpt lat="46.06836" lon="-0.36592">
        <ele>80.1</ele>
        <time>2013-03-10T09:15:28.000Z</time>
      </trkpt>
      <trkpt lat="46.06842" lon="-0.36592">
        <ele>80</ele>
        <time>2013-03-10T09:15:29.000Z</time>
      </trkpt>
      <trkpt lat="46.06848" lon="-0.36592">
        <ele>79.9</ele>
        <time>2013-03-10T09:15:30.000Z</time>
      </trkpt>
      <trkpt lat="46.06854" lon="-0.36592">
        <ele>79.8</ele>
        <time>2013-03-10T09:15:31.000Z</time>
      </trkpt>
      <trkpt lat="46.0686" lon="-0.36592">
        <ele>79.7</ele>
        <time>2013-03-10T09:15:32.000Z</time>
      </trkpt>
      <trkpt lat="46.06866" lon="-0.36592">
        <ele>79.3</ele>
        <time>2013-03-10T09:15:33.000Z</time>
      </trkpt>
      <trkpt lat="46.06873" lon="-0.36592">
        <ele>79.1</ele>
        <time>2013-03-10T09:15:34.000Z</time>
      </trkpt>
      <trkpt lat="46.06879" lon="-0.36592">
        <ele>78.8</ele>
        <time>2013-03-10T09:15:35.000Z</time>
      </trkpt>
      <trkpt lat="46.06886" lon="-0.36591">
        <ele>78.5</ele>
        <time>2013-03-10T09:15:36.000Z</time>
      </trkpt>
      <trkpt lat="46.06893" lon="-0.3659">
        <ele>78.5</ele>
        <time>2013-03-10T09:15:37.000Z</time>
      </trkpt>
      <trkpt lat="46.069" lon="-0.3659">
        <ele>78.5</ele>
        <time>2013-03-10T09:15:38.000Z</time>
      </trkpt>
      <trkpt lat="46.06907" lon="-0.36589">
        <ele>78.5</ele>
        <time>2013-03-10T09:15:39.000Z</time>
      </trkpt>
      <trkpt lat="46.06915" lon="-0.36587">
        <ele>78.6</ele>
        <time>2013-03-10T09:15:40.000Z</time>
      </trkpt>
      <trkpt lat="46.06923" lon="-0.36585">
        <ele>78.6</ele>
        <time>2013-03-10T09:15:41.000Z</time>
      </trkpt>
      <trkpt lat="46.0693" lon="-0.36583">
        <ele>78.7</ele>
        <time>2013-03-10T09:15:42.000Z</time>
      </trkpt>
      <trkpt lat="46.06938" lon="-0.36581">
        <ele>78.8</ele>
        <time>2013-03-10T09:15:43.000Z</time>
      </trkpt>
      <trkpt lat="46.06946" lon="-0.3658">
        <ele>78.4</ele>
        <time>2013-03-10T09:15:44.000Z</time>
      </trkpt>
      <trkpt lat="46.06954" lon="-0.36578">
        <ele>78.1</ele>
        <time>2013-03-10T09:15:45.000Z</time>
      </trkpt>
      <trkpt lat="46.06963" lon="-0.36576">
        <ele>77.9</ele>
        <time>2013-03-10T09:15:46.000Z</time>
      </trkpt>
      <trkpt lat="46.06971" lon="-0.36573">
        <ele>77.5</ele>
        <time>2013-03-10T09:15:47.000Z</time>
      </trkpt>
      <trkpt lat="46.0698" lon="-0.3657">
        <ele>77.2</ele>
        <time>2013-03-10T09:15:48.000Z</time>
      </trkpt>
      <trkpt lat="46.06989" lon="-0.36567">
        <ele>77</ele>
        <time>2013-03-10T09:15:49.000Z</time>
      </trkpt>
      <trkpt lat="46.06998" lon="-0.36564">
        <ele>76.9</ele>
        <time>2013-03-10T09:15:50.000Z</time>
      </trkpt>
      <trkpt lat="46.07007" lon="-0.36561">
        <ele>76.8</ele>
        <time>2013-03-10T09:15:51.000Z</time>
      </trkpt>
      <trkpt lat="46.07016" lon="-0.36557">
        <ele>76.2</ele>
        <time>2013-03-10T09:15:52.000Z</time>
      </trkpt>
      <trkpt lat="46.07025" lon="-0.36553">
        <ele>75.7</ele>
        <time>2013-03-10T09:15:53.000Z</time>
      </trkpt>
      <trkpt lat="46.07035" lon="-0.36549">
        <ele>75</ele>
        <time>2013-03-10T09:15:54.000Z</time>
      </trkpt>
      <trkpt lat="46.07044" lon="-0.36544">
        <ele>74.5</ele>
        <time>2013-03-10T09:15:55.000Z</time>
      </trkpt>
      <trkpt lat="46.07053" lon="-0.36538">
        <ele>74.2</ele>
        <time>2013-03-10T09:15:56.000Z</time>
      </trkpt>
      <trkpt lat="46.07063" lon="-0.36532">
        <ele>74</ele>
        <time>2013-03-10T09:15:57.000Z</time>
      </trkpt>
      <trkpt lat="46.07072" lon="-0.36526">
        <ele>73.8</ele>
        <time>2013-03-10T09:15:58.000Z</time>
      </trkpt>
      <trkpt lat="46.07082" lon="-0.36519">
        <ele>73</ele>
        <time>2013-03-10T09:15:59.000Z</time>
      </trkpt>
      <trkpt lat="46.07091" lon="-0.36513">
        <ele>72.4</ele>
        <time>2013-03-10T09:16:00.000Z</time>
      </trkpt>
      <trkpt lat="46.07101" lon="-0.36506">
        <ele>71.3</ele>
        <time>2013-03-10T09:16:01.000Z</time>
      </trkpt>
      <trkpt lat="46.07111" lon="-0.36497">
        <ele>70.6</ele>
        <time>2013-03-10T09:16:02.000Z</time>
      </trkpt>
      <trkpt lat="46.07119" lon="-0.36487">
        <ele>70</ele>
        <time>2013-03-10T09:16:03.000Z</time>
      </trkpt>
      <trkpt lat="46.07127" lon="-0.36475">
        <ele>69.3</ele>
        <time>2013-03-10T09:16:04.000Z</time>
      </trkpt>
      <trkpt lat="46.07133" lon="-0.36461">
        <ele>68.8</ele>
        <time>2013-03-10T09:16:05.000Z</time>
      </trkpt>
      <trkpt lat="46.0714" lon="-0.36448">
        <ele>68</ele>
        <time>2013-03-10T09:16:06.000Z</time>
      </trkpt>
      <trkpt lat="46.07147" lon="-0.36437">
        <ele>67.3</ele>
        <time>2013-03-10T09:16:07.000Z</time>
      </trkpt>
      <trkpt lat="46.07156" lon="-0.36427">
        <ele>66.8</ele>
        <time>2013-03-10T09:16:08.000Z</time>
      </trkpt>
      <trkpt lat="46.07165" lon="-0.36419">
        <ele>66.3</ele>
        <time>2013-03-10T09:16:09.000Z</time>
      </trkpt>
      <trkpt lat="46.07175" lon="-0.36412">
        <ele>66</ele>
        <time>2013-03-10T09:16:10.000Z</time>
      </trkpt>
      <trkpt lat="46.07185" lon="-0.36405">
        <ele>65.6</ele>
        <time>2013-03-10T09:16:11.000Z</time>
      </trkpt>
      <trkpt lat="46.07195" lon="-0.36399">
        <ele>65.3</ele>
        <time>2013-03-10T09:16:12.000Z</time>
      </trkpt>
      <trkpt lat="46.07205" lon="-0.36393">
        <ele>64.6</ele>
        <time>2013-03-10T09:16:13.000Z</time>
      </trkpt>
      <trkpt lat="46.07215" lon="-0.36388">
        <ele>64</ele>
        <time>2013-03-10T09:16:14.000Z</time>
      </trkpt>
      <trkpt lat="46.07225" lon="-0.36383">
        <ele>63.6</ele>
        <time>2013-03-10T09:16:15.000Z</time>
      </trkpt>
      <trkpt lat="46.07236" lon="-0.36379">
        <ele>63.3</ele>
        <time>2013-03-10T09:16:16.000Z</time>
      </trkpt>
      <trkpt lat="46.07246" lon="-0.36375">
        <ele>63.1</ele>
        <time>2013-03-10T09:16:17.000Z</time>
      </trkpt>
      <trkpt lat="46.07256" lon="-0.36372">
        <ele>62.8</ele>
        <time>2013-03-10T09:16:18.000Z</time>
      </trkpt>
      <trkpt lat="46.07266" lon="-0.36369">
        <ele>62.5</ele>
        <time>2013-03-10T09:16:19.000Z</time>
      </trkpt>
      <trkpt lat="46.07276" lon="-0.36368">
        <ele>61.9</ele>
        <time>2013-03-10T09:16:20.000Z</time>
      </trkpt>
      <trkpt lat="46.07287" lon="-0.36368">
        <ele>61.5</ele>
        <time>2013-03-10T09:16:21.000Z</time>
      </trkpt>
      <trkpt lat="46.07297" lon="-0.36369">
        <ele>61.1</ele>
        <time>2013-03-10T09:16:22.000Z</time>
      </trkpt>
      <trkpt lat="46.07307" lon="-0.36371">
        <ele>61</ele>
        <time>2013-03-10T09:16:23.000Z</time>
      </trkpt>
      <trkpt lat="46.07317" lon="-0.36373">
        <ele>60.9</ele>
        <time>2013-03-10T09:16:24.000Z</time>
      </trkpt>
      <trkpt lat="46.07327" lon="-0.36375">
        <ele>60.9</ele>
        <time>2013-03-10T09:16:25.000Z</time>
      </trkpt>
      <trkpt lat="46.07337" lon="-0.36378">
        <ele>61</ele>
        <time>2013-03-10T09:16:26.000Z</time>
      </trkpt>
      <trkpt lat="46.07346" lon="-0.3638">
        <ele>61</ele>
        <time>2013-03-10T09:16:27.000Z</time>
      </trkpt>
      <trkpt lat="46.07355" lon="-0.36382">
        <ele>61</ele>
        <time>2013-03-10T09:16:28.000Z</time>
      </trkpt>
      <trkpt lat="46.07364" lon="-0.36385">
        <ele>61</ele>
        <time>2013-03-10T09:16:29.000Z</time>
      </trkpt>
      <trkpt lat="46.07372" lon="-0.36387">
        <ele>61</ele>
        <time>2013-03-10T09:16:30.000Z</time>
      </trkpt>
      <trkpt lat="46.0738" lon="-0.3639">
        <ele>61</ele>
        <time>2013-03-10T09:16:31.000Z</time>
      </trkpt>
      <trkpt lat="46.07387" lon="-0.36393">
        <ele>61.2</ele>
        <time>2013-03-10T09:16:32.000Z</time>
      </trkpt>
      <trkpt lat="46.07393" lon="-0.36395">
        <ele>61.3</ele>
        <time>2013-03-10T09:16:33.000Z</time>
      </trkpt>
      <trkpt lat="46.074" lon="-0.36397">
        <ele>61.5</ele>
        <time>2013-03-10T09:16:34.000Z</time>
      </trkpt>
      <trkpt lat="46.07405" lon="-0.364">
        <ele>61.6</ele>
        <time>2013-03-10T09:16:35.000Z</time>
      </trkpt>
      <trkpt lat="46.0741" lon="-0.36401">
        <ele>61.7</ele>
        <time>2013-03-10T09:16:36.000Z</time>
      </trkpt>
      <trkpt lat="46.07415" lon="-0.36403">
        <ele>62.1</ele>
        <time>2013-03-10T09:16:37.000Z</time>
      </trkpt>
      <trkpt lat="46.07424" lon="-0.36406">
        <ele>62.8</ele>
        <time>2013-03-10T09:16:39.000Z</time>
      </trkpt>
      <trkpt lat="46.07424" lon="-0.36406">
        <ele>62.8</ele>
        <time>2013-03-10T09:16:39.000Z</time>
      </trkpt>
      <trkpt lat="46.07432" lon="-0.3641">
        <ele>63.1</ele>
        <time>2013-03-10T09:16:41.000Z</time>
      </trkpt>
      <trkpt lat="46.0744" lon="-0.36415">
        <ele>63.1</ele>
        <time>2013-03-10T09:16:43.000Z</time>
      </trkpt>
      <trkpt lat="46.07447" lon="-0.36419">
        <ele>63.6</ele>
        <time>2013-03-10T09:16:45.000Z</time>
      </trkpt>
      <trkpt lat="46.07452" lon="-0.36425">
        <ele>64.3</ele>
        <time>2013-03-10T09:16:47.000Z</time>
      </trkpt>
      <trkpt lat="46.07454" lon="-0.36434">
        <ele>64.6</ele>
        <time>2013-03-10T09:16:49.000Z</time>
      </trkpt>
      <trkpt lat="46.07458" lon="-0.36445">
        <ele>64</ele>
        <time>2013-03-10T09:22:40.000Z</time>
      </trkpt>
      <trkpt lat="46.07458" lon="-0.36445">
        <ele>64</ele>
        <time>2013-03-10T09:22:41.000Z</time>
      </trkpt>
      <trkpt lat="46.07462" lon="-0.36433">
        <ele>63.6</ele>
        <time>2013-03-10T09:26:38.000Z</time>
      </trkpt>
      <trkpt lat="46.07474" lon="-0.36424">
        <ele>64.2</ele>
        <time>2013-03-10T09:26:50.000Z</time>
      </trkpt>
      <trkpt lat="46.07482" lon="-0.36424">
        <ele>64.4</ele>
        <time>2013-03-10T09:26:54.000Z</time>
      </trkpt>
      <trkpt lat="46.0749" lon="-0.36425">
        <ele>64.7</ele>
        <time>2013-03-10T09:26:58.000Z</time>
      </trkpt>
      <trkpt lat="46.07488" lon="-0.36412">
        <ele>65.6</ele>
        <time>2013-03-10T09:27:03.000Z</time>
      </trkpt>
      <trkpt lat="46.07488" lon="-0.36401">
        <ele>65.7</ele>
        <time>2013-03-10T09:27:06.000Z</time>
      </trkpt>
      <trkpt lat="46.07489" lon="-0.3639">
        <ele>66</ele>
        <time>2013-03-10T09:27:09.000Z</time>
      </trkpt>
      <trkpt lat="46.0749" lon="-0.36379">
        <ele>65.8</ele>
        <time>2013-03-10T09:27:12.000Z</time>
      </trkpt>
      <trkpt lat="46.0749" lon="-0.36367">
        <ele>65.7</ele>
        <time>2013-03-10T09:27:15.000Z</time>
      </trkpt>
      <trkpt lat="46.07491" lon="-0.36356">
        <ele>65.8</ele>
        <time>2013-03-10T09:27:18.000Z</time>
      </trkpt>
      <trkpt lat="46.07492" lon="-0.36348">
        <ele>66.1</ele>
        <time>2013-03-10T09:27:20.000Z</time>
      </trkpt>
      <trkpt lat="46.07492" lon="-0.36339">
        <ele>66.2</ele>
        <time>2013-03-10T09:27:22.000Z</time>
      </trkpt>
      <trkpt lat="46.07493" lon="-0.36329">
        <ele>66.1</ele>
        <time>2013-03-10T09:27:24.000Z</time>
      </trkpt>
      <trkpt lat="46.07494" lon="-0.36318">
        <ele>66.6</ele>
        <time>2013-03-10T09:27:26.000Z</time>
      </trkpt>
      <trkpt lat="46.07496" lon="-0.36308">
        <ele>66.9</ele>
        <time>2013-03-10T09:27:28.000Z</time>
      </trkpt>
      <trkpt lat="46.07497" lon="-0.36299">
        <ele>67.7</ele>
        <time>2013-03-10T09:27:30.000Z</time>
      </trkpt>
      <trkpt lat="46.07498" lon="-0.36286">
        <ele>68.3</ele>
        <time>2013-03-10T09:27:33.000Z</time>
      </trkpt>
      <trkpt lat="46.07492" lon="-0.36284">
        <ele>68.8</ele>
        <time>2013-03-10T09:27:35.000Z</time>
      </trkpt>
      <trkpt lat="46.07488" lon="-0.36283">
        <ele>68.5</ele>
        <time>2013-03-10T09:27:36.000Z</time>
      </trkpt>
      <trkpt lat="46.07483" lon="-0.36282">
        <ele>68.3</ele>
        <time>2013-03-10T09:27:37.000Z</time>
      </trkpt>
      <trkpt lat="46.07478" lon="-0.36281">
        <ele>68.2</ele>
        <time>2013-03-10T09:27:38.000Z</time>
      </trkpt>
      <trkpt lat="46.07473" lon="-0.36279">
        <ele>67.9</ele>
        <time>2013-03-10T09:27:39.000Z</time>
      </trkpt>
      <trkpt lat="46.07467" lon="-0.36278">
        <ele>67.7</ele>
        <time>2013-03-10T09:27:40.000Z</time>
      </trkpt>
      <trkpt lat="46.07461" lon="-0.36277">
        <ele>67.6</ele>
        <time>2013-03-10T09:27:41.000Z</time>
      </trkpt>
      <trkpt lat="46.07456" lon="-0.36275">
        <ele>67.5</ele>
        <time>2013-03-10T09:27:42.000Z</time>
      </trkpt>
      <trkpt lat="46.0745" lon="-0.36274">
        <ele>67.3</ele>
        <time>2013-03-10T09:27:43.000Z</time>
      </trkpt>
      <trkpt lat="46.07444" lon="-0.36273">
        <ele>67.1</ele>
        <time>2013-03-10T09:27:44.000Z</time>
      </trkpt>
      <trkpt lat="46.07436" lon="-0.36271">
        <ele>66.5</ele>
        <time>2013-03-10T09:27:46.000Z</time>
      </trkpt>
      <trkpt lat="46.07429" lon="-0.36269">
        <ele>65.9</ele>
        <time>2013-03-10T09:27:48.000Z</time>
      </trkpt>
      <trkpt lat="46.07421" lon="-0.36267">
        <ele>65.5</ele>
        <time>2013-03-10T09:27:50.000Z</time>
      </trkpt>
      <trkpt lat="46.07417" lon="-0.36265">
        <ele>64.9</ele>
        <time>2013-03-10T09:27:51.000Z</time>
      </trkpt>
      <trkpt lat="46.07412" lon="-0.36262">
        <ele>64.5</ele>
        <time>2013-03-10T09:27:52.000Z</time>
      </trkpt>
      <trkpt lat="46.07407" lon="-0.3626">
        <ele>64.2</ele>
        <time>2013-03-10T09:27:53.000Z</time>
      </trkpt>
      <trkpt lat="46.07402" lon="-0.36257">
        <ele>63.9</ele>
        <time>2013-03-10T09:27:54.000Z</time>
      </trkpt>
      <trkpt lat="46.07396" lon="-0.36254">
        <ele>63.6</ele>
        <time>2013-03-10T09:27:55.000Z</time>
      </trkpt>
      <trkpt lat="46.07391" lon="-0.3625">
        <ele>63.4</ele>
        <time>2013-03-10T09:27:56.000Z</time>
      </trkpt>
      <trkpt lat="46.07385" lon="-0.36244">
        <ele>63.2</ele>
        <time>2013-03-10T09:27:57.000Z</time>
      </trkpt>
      <trkpt lat="46.0738" lon="-0.36238">
        <ele>62.8</ele>
        <time>2013-03-10T09:27:58.000Z</time>
      </trkpt>
      <trkpt lat="46.07376" lon="-0.36231">
        <ele>62.5</ele>
        <time>2013-03-10T09:27:59.000Z</time>
      </trkpt>
      <trkpt lat="46.07371" lon="-0.36224">
        <ele>62.1</ele>
        <time>2013-03-10T09:28:00.000Z</time>
      </trkpt>
      <trkpt lat="46.07366" lon="-0.3622">
        <ele>61.8</ele>
        <time>2013-03-10T09:28:01.000Z</time>
      </trkpt>
      <trkpt lat="46.0736" lon="-0.36217">
        <ele>61.7</ele>
        <time>2013-03-10T09:28:02.000Z</time>
      </trkpt>
      <trkpt lat="46.07355" lon="-0.36216">
        <ele>61.6</ele>
        <time>2013-03-10T09:28:03.000Z</time>
      </trkpt>
      <trkpt lat="46.0735" lon="-0.36214">
        <ele>61.5</ele>
        <time>2013-03-10T09:28:04.000Z</time>
      </trkpt>
      <trkpt lat="46.07344" lon="-0.36213">
        <ele>61.5</ele>
        <time>2013-03-10T09:28:05.000Z</time>
      </trkpt>
      <trkpt lat="46.0734" lon="-0.36211">
        <ele>61.6</ele>
        <time>2013-03-10T09:28:06.000Z</time>
      </trkpt>
      <trkpt lat="46.07335" lon="-0.3621">
        <ele>61.5</ele>
        <time>2013-03-10T09:28:07.000Z</time>
      </trkpt>
      <trkpt lat="46.07326" lon="-0.36206">
        <ele>61.5</ele>
        <time>2013-03-10T09:28:09.000Z</time>
      </trkpt>
      <trkpt lat="46.07322" lon="-0.36204">
        <ele>61.3</ele>
        <time>2013-03-10T09:28:10.000Z</time>
      </trkpt>
      <trkpt lat="46.07317" lon="-0.36202">
        <ele>61.1</ele>
        <time>2013-03-10T09:28:11.000Z</time>
      </trkpt>
      <trkpt lat="46.07313" lon="-0.36201">
        <ele>60.9</ele>
        <time>2013-03-10T09:28:12.000Z</time>
      </trkpt>
      <trkpt lat="46.07304" lon="-0.36198">
        <ele>60.5</ele>
        <time>2013-03-10T09:28:14.000Z</time>
      </trkpt>
      <trkpt lat="46.073" lon="-0.36196">
        <ele>60.5</ele>
        <time>2013-03-10T09:28:15.000Z</time>
      </trkpt>
      <trkpt lat="46.07295" lon="-0.36194">
        <ele>60.4</ele>
        <time>2013-03-10T09:28:16.000Z</time>
      </trkpt>
      <trkpt lat="46.07291" lon="-0.36191">
        <ele>60.6</ele>
        <time>2013-03-10T09:28:17.000Z</time>
      </trkpt>
      <trkpt lat="46.07287" lon="-0.36187">
        <ele>60.7</ele>
        <time>2013-03-10T09:28:18.000Z</time>
      </trkpt>
      <trkpt lat="46.07284" lon="-0.36183">
        <ele>60.9</ele>
        <time>2013-03-10T09:28:19.000Z</time>
      </trkpt>
      <trkpt lat="46.0728" lon="-0.36178">
        <ele>61</ele>
        <time>2013-03-10T09:28:20.000Z</time>
      </trkpt>
      <trkpt lat="46.07277" lon="-0.36173">
        <ele>61.1</ele>
        <time>2013-03-10T09:28:21.000Z</time>
      </trkpt>
      <trkpt lat="46.07274" lon="-0.36168">
        <ele>61.2</ele>
        <time>2013-03-10T09:28:22.000Z</time>
      </trkpt>
      <trkpt lat="46.0727" lon="-0.36164">
        <ele>61.2</ele>
        <time>2013-03-10T09:28:23.000Z</time>
      </trkpt>
      <trkpt lat="46.07266" lon="-0.3616">
        <ele>61.5</ele>
        <time>2013-03-10T09:28:24.000Z</time>
      </trkpt>
      <trkpt lat="46.07263" lon="-0.36156">
        <ele>61.8</ele>
        <time>2013-03-10T09:28:25.000Z</time>
      </trkpt>
      <trkpt lat="46.07259" lon="-0.36151">
        <ele>62.2</ele>
        <time>2013-03-10T09:28:26.000Z</time>
      </trkpt>
      <trkpt lat="46.07253" lon="-0.36143">
        <ele>62.3</ele>
        <time>2013-03-10T09:28:28.000Z</time>
      </trkpt>
      <trkpt lat="46.07246" lon="-0.36134">
        <ele>62.1</ele>
        <time>2013-03-10T09:28:30.000Z</time>
      </trkpt>
      <trkpt lat="46.0724" lon="-0.36126">
        <ele>62.1</ele>
        <time>2013-03-10T09:28:32.000Z</time>
      </trkpt>
      <trkpt lat="46.07237" lon="-0.36121">
        <ele>62.1</ele>
        <time>2013-03-10T09:28:33.000Z</time>
      </trkpt>
      <trkpt lat="46.07233" lon="-0.36116">
        <ele>62.1</ele>
        <time>2013-03-10T09:28:34.000Z</time>
      </trkpt>
      <trkpt lat="46.0723" lon="-0.36112">
        <ele>62.1</ele>
        <time>2013-03-10T09:28:35.000Z</time>
      </trkpt>
      <trkpt lat="46.07227" lon="-0.36107">
        <ele>62.1</ele>
        <time>2013-03-10T09:28:36.000Z</time>
      </trkpt>
      <trkpt lat="46.07224" lon="-0.36102">
        <ele>62.1</ele>
        <time>2013-03-10T09:28:37.000Z</time>
      </trkpt>
      <trkpt lat="46.07221" lon="-0.36097">
        <ele>62.4</ele>
        <time>2013-03-10T09:28:38.000Z</time>
      </trkpt>
      <trkpt lat="46.07218" lon="-0.36092">
        <ele>62.6</ele>
        <time>2013-03-10T09:28:39.000Z</time>
      </trkpt>
      <trkpt lat="46.07216" lon="-0.36086">
        <ele>62.7</ele>
        <time>2013-03-10T09:28:40.000Z</time>
      </trkpt>
      <trkpt lat="46.07214" lon="-0.36073">
        <ele>62.8</ele>
        <time>2013-03-10T09:28:42.000Z</time>
      </trkpt>
      <trkpt lat="46.07215" lon="-0.36062">
        <ele>62.7</ele>
        <time>2013-03-10T09:28:44.000Z</time>
      </trkpt>
      <trkpt lat="46.07217" lon="-0.36051">
        <ele>63</ele>
        <time>2013-03-10T09:28:46.000Z</time>
      </trkpt>
      <trkpt lat="46.07219" lon="-0.3604">
        <ele>63.5</ele>
        <time>2013-03-10T09:28:48.000Z</time>
      </trkpt>
      <trkpt lat="46.07222" lon="-0.3603">
        <ele>63.6</ele>
        <time>2013-03-10T09:28:50.000Z</time>
      </trkpt>
      <trkpt lat="46.07224" lon="-0.3602">
        <ele>63.9</ele>
        <time>2013-03-10T09:28:52.000Z</time>
      </trkpt>
      <trkpt lat="46.07226" lon="-0.3601">
        <ele>64.5</ele>
        <time>2013-03-10T09:28:54.000Z</time>
      </trkpt>
      <trkpt lat="46.07228" lon="-0.35999">
        <ele>65.1</ele>
        <time>2013-03-10T09:28:56.000Z</time>
      </trkpt>
      <trkpt lat="46.0723" lon="-0.35989">
        <ele>65.2</ele>
        <time>2013-03-10T09:28:58.000Z</time>
      </trkpt>
      <trkpt lat="46.07232" lon="-0.35979">
        <ele>65.9</ele>
        <time>2013-03-10T09:29:00.000Z</time>
      </trkpt>
      <trkpt lat="46.07234" lon="-0.35968">
        <ele>66.5</ele>
        <time>2013-03-10T09:29:02.000Z</time>
      </trkpt>
      <trkpt lat="46.07236" lon="-0.35958">
        <ele>66.8</ele>
        <time>2013-03-10T09:29:04.000Z</time>
      </trkpt>
      <trkpt lat="46.07238" lon="-0.35948">
        <ele>66.9</ele>
        <time>2013-03-10T09:29:06.000Z</time>
      </trkpt>
      <trkpt lat="46.0724" lon="-0.35938">
        <ele>66.8</ele>
        <time>2013-03-10T09:29:08.000Z</time>
      </trkpt>
      <trkpt lat="46.07243" lon="-0.35928">
        <ele>67</ele>
        <time>2013-03-10T09:29:10.000Z</time>
      </trkpt>
      <trkpt lat="46.07245" lon="-0.35918">
        <ele>67.2</ele>
        <time>2013-03-10T09:29:12.000Z</time>
      </trkpt>
      <trkpt lat="46.07247" lon="-0.35907">
        <ele>67.4</ele>
        <time>2013-03-10T09:29:14.000Z</time>
      </trkpt>
      <trkpt lat="46.0725" lon="-0.35897">
        <ele>67.8</ele>
        <time>2013-03-10T09:29:16.000Z</time>
      </trkpt>
      <trkpt lat="46.07252" lon="-0.35887">
        <ele>68.1</ele>
        <time>2013-03-10T09:29:18.000Z</time>
      </trkpt>
      <trkpt lat="46.07255" lon="-0.35878">
        <ele>68.1</ele>
        <time>2013-03-10T09:29:20.000Z</time>
      </trkpt>
      <trkpt lat="46.07257" lon="-0.35868">
        <ele>68.3</ele>
        <time>2013-03-10T09:29:22.000Z</time>
      </trkpt>
      <trkpt lat="46.07259" lon="-0.35859">
        <ele>68.7</ele>
        <time>2013-03-10T09:29:24.000Z</time>
      </trkpt>
      <trkpt lat="46.07261" lon="-0.3585">
        <ele>69.1</ele>
        <time>2013-03-10T09:29:26.000Z</time>
      </trkpt>
      <trkpt lat="46.07263" lon="-0.35842">
        <ele>69.3</ele>
        <time>2013-03-10T09:29:28.000Z</time>
      </trkpt>
      <trkpt lat="46.07265" lon="-0.35833">
        <ele>69.8</ele>
        <time>2013-03-10T09:29:30.000Z</time>
      </trkpt>
      <trkpt lat="46.07267" lon="-0.35824">
        <ele>70.3</ele>
        <time>2013-03-10T09:29:32.000Z</time>
      </trkpt>
      <trkpt lat="46.07268" lon="-0.35815">
        <ele>70.8</ele>
        <time>2013-03-10T09:29:34.000Z</time>
      </trkpt>
      <trkpt lat="46.0727" lon="-0.35806">
        <ele>70.7</ele>
        <time>2013-03-10T09:29:36.000Z</time>
      </trkpt>
      <trkpt lat="46.07271" lon="-0.35797">
        <ele>71.2</ele>
        <time>2013-03-10T09:29:38.000Z</time>
      </trkpt>
      <trkpt lat="46.07273" lon="-0.35788">
        <ele>71.4</ele>
        <time>2013-03-10T09:29:40.000Z</time>
      </trkpt>
      <trkpt lat="46.07274" lon="-0.35784">
        <ele>71.5</ele>
        <time>2013-03-10T09:29:41.000Z</time>
      </trkpt>
      <trkpt lat="46.07277" lon="-0.35771">
        <ele>71.4</ele>
        <time>2013-03-10T09:29:44.000Z</time>
      </trkpt>
      <trkpt lat="46.07279" lon="-0.35763">
        <ele>71.5</ele>
        <time>2013-03-10T09:29:46.000Z</time>
      </trkpt>
      <trkpt lat="46.07281" lon="-0.35754">
        <ele>71.8</ele>
        <time>2013-03-10T09:29:48.000Z</time>
      </trkpt>
      <trkpt lat="46.07283" lon="-0.35746">
        <ele>72</ele>
        <time>2013-03-10T09:29:50.000Z</time>
      </trkpt>
      <trkpt lat="46.07286" lon="-0.35738">
        <ele>72.3</ele>
        <time>2013-03-10T09:29:52.000Z</time>
      </trkpt>
      <trkpt lat="46.07288" lon="-0.3573">
        <ele>72.6</ele>
        <time>2013-03-10T09:29:54.000Z</time>
      </trkpt>
      <trkpt lat="46.07291" lon="-0.35722">
        <ele>72.6</ele>
        <time>2013-03-10T09:29:56.000Z</time>
      </trkpt>
      <trkpt lat="46.07293" lon="-0.35714">
        <ele>72.5</ele>
        <time>2013-03-10T09:29:58.000Z</time>
      </trkpt>
      <trkpt lat="46.07296" lon="-0.35701">
        <ele>73.1</ele>
        <time>2013-03-10T09:30:01.000Z</time>
      </trkpt>
      <trkpt lat="46.07299" lon="-0.3569">
        <ele>73.5</ele>
        <time>2013-03-10T09:30:04.000Z</time>
      </trkpt>
      <trkpt lat="46.07301" lon="-0.35681">
        <ele>73.3</ele>
        <time>2013-03-10T09:30:06.000Z</time>
      </trkpt>
      <trkpt lat="46.07303" lon="-0.35672">
        <ele>73.4</ele>
        <time>2013-03-10T09:30:08.000Z</time>
      </trkpt>
      <trkpt lat="46.07304" lon="-0.35663">
        <ele>73.6</ele>
        <time>2013-03-10T09:30:10.000Z</time>
      </trkpt>
      <trkpt lat="46.07306" lon="-0.35655">
        <ele>73.4</ele>
        <time>2013-03-10T09:30:12.000Z</time>
      </trkpt>
      <trkpt lat="46.07308" lon="-0.35646">
        <ele>74</ele>
        <time>2013-03-10T09:30:14.000Z</time>
      </trkpt>
      <trkpt lat="46.0731" lon="-0.35637">
        <ele>74</ele>
        <time>2013-03-10T09:30:16.000Z</time>
      </trkpt>
      <trkpt lat="46.07311" lon="-0.35627">
        <ele>74.3</ele>
        <time>2013-03-10T09:30:18.000Z</time>
      </trkpt>
      <trkpt lat="46.07314" lon="-0.35618">
        <ele>74.7</ele>
        <time>2013-03-10T09:30:20.000Z</time>
      </trkpt>
      <trkpt lat="46.07316" lon="-0.35609">
        <ele>75.1</ele>
        <time>2013-03-10T09:30:22.000Z</time>
      </trkpt>
      <trkpt lat="46.07318" lon="-0.35599">
        <ele>75.3</ele>
        <time>2013-03-10T09:30:24.000Z</time>
      </trkpt>
      <trkpt lat="46.0732" lon="-0.35587">
        <ele>75.4</ele>
        <time>2013-03-10T09:30:27.000Z</time>
      </trkpt>
      <trkpt lat="46.07324" lon="-0.35576">
        <ele>75.7</ele>
        <time>2013-03-10T09:30:30.000Z</time>
      </trkpt>
      <trkpt lat="46.07325" lon="-0.35567">
        <ele>76</ele>
        <time>2013-03-10T09:30:32.000Z</time>
      </trkpt>
      <trkpt lat="46.07327" lon="-0.35558">
        <ele>76.2</ele>
        <time>2013-03-10T09:30:34.000Z</time>
      </trkpt>
      <trkpt lat="46.07329" lon="-0.35549">
        <ele>76.3</ele>
        <time>2013-03-10T09:30:36.000Z</time>
      </trkpt>
      <trkpt lat="46.07332" lon="-0.35537">
        <ele>76.3</ele>
        <time>2013-03-10T09:30:39.000Z</time>
      </trkpt>
      <trkpt lat="46.07333" lon="-0.35528">
        <ele>76.2</ele>
        <time>2013-03-10T09:30:41.000Z</time>
      </trkpt>
      <trkpt lat="46.07334" lon="-0.35524">
        <ele>76.2</ele>
        <time>2013-03-10T09:30:42.000Z</time>
      </trkpt>
      <trkpt lat="46.07337" lon="-0.3551">
        <ele>76.3</ele>
        <time>2013-03-10T09:30:45.000Z</time>
      </trkpt>
      <trkpt lat="46.07339" lon="-0.355">
        <ele>76</ele>
        <time>2013-03-10T09:30:47.000Z</time>
      </trkpt>
      <trkpt lat="46.07342" lon="-0.35491">
        <ele>75.8</ele>
        <time>2013-03-10T09:30:49.000Z</time>
      </trkpt>
      <trkpt lat="46.07344" lon="-0.35481">
        <ele>76.1</ele>
        <time>2013-03-10T09:30:51.000Z</time>
      </trkpt>
      <trkpt lat="46.07346" lon="-0.35471">
        <ele>76.5</ele>
        <time>2013-03-10T09:30:53.000Z</time>
      </trkpt>
      <trkpt lat="46.07348" lon="-0.35461">
        <ele>76.6</ele>
        <time>2013-03-10T09:30:55.000Z</time>
      </trkpt>
      <trkpt lat="46.0735" lon="-0.35452">
        <ele>76.6</ele>
        <time>2013-03-10T09:30:57.000Z</time>
      </trkpt>
      <trkpt lat="46.07352" lon="-0.35443">
        <ele>76.7</ele>
        <time>2013-03-10T09:30:59.000Z</time>
      </trkpt>
      <trkpt lat="46.07354" lon="-0.35434">
        <ele>76.7</ele>
        <time>2013-03-10T09:31:01.000Z</time>
      </trkpt>
      <trkpt lat="46.07357" lon="-0.35425">
        <ele>76.7</ele>
        <time>2013-03-10T09:31:03.000Z</time>
      </trkpt>
      <trkpt lat="46.07358" lon="-0.35416">
        <ele>76.9</ele>
        <time>2013-03-10T09:31:05.000Z</time>
      </trkpt>
      <trkpt lat="46.0736" lon="-0.35407">
        <ele>77.3</ele>
        <time>2013-03-10T09:31:07.000Z</time>
      </trkpt>
      <trkpt lat="46.07362" lon="-0.35398">
        <ele>77.7</ele>
        <time>2013-03-10T09:31:09.000Z</time>
      </trkpt>
      <trkpt lat="46.07364" lon="-0.35389">
        <ele>77.5</ele>
        <time>2013-03-10T09:31:11.000Z</time>
      </trkpt>
      <trkpt lat="46.07366" lon="-0.3538">
        <ele>77.4</ele>
        <time>2013-03-10T09:31:13.000Z</time>
      </trkpt>
      <trkpt lat="46.07368" lon="-0.35368">
        <ele>77.9</ele>
        <time>2013-03-10T09:31:16.000Z</time>
      </trkpt>
      <trkpt lat="46.07361" lon="-0.35362">
        <ele>77.3</ele>
        <time>2013-03-10T09:31:21.000Z</time>
      </trkpt>
      <trkpt lat="46.07353" lon="-0.35359">
        <ele>78.2</ele>
        <time>2013-03-10T09:31:25.000Z</time>
      </trkpt>
      <trkpt lat="46.07346" lon="-0.35356">
        <ele>78.7</ele>
        <time>2013-03-10T09:31:28.000Z</time>
      </trkpt>
      <trkpt lat="46.07339" lon="-0.35353">
        <ele>79.3</ele>
        <time>2013-03-10T09:31:31.000Z</time>
      </trkpt>
      <trkpt lat="46.07332" lon="-0.3535">
        <ele>79.4</ele>
        <time>2013-03-10T09:31:34.000Z</time>
      </trkpt>
      <trkpt lat="46.07325" lon="-0.35347">
        <ele>79.7</ele>
        <time>2013-03-10T09:31:37.000Z</time>
      </trkpt>
      <trkpt lat="46.07317" lon="-0.35345">
        <ele>79.9</ele>
        <time>2013-03-10T09:31:40.000Z</time>
      </trkpt>
      <trkpt lat="46.0731" lon="-0.35341">
        <ele>80.1</ele>
        <time>2013-03-10T09:31:43.000Z</time>
      </trkpt>
      <trkpt lat="46.07307" lon="-0.3534">
        <ele>79.9</ele>
        <time>2013-03-10T09:31:44.000Z</time>
      </trkpt>
      <trkpt lat="46.07294" lon="-0.35331">
        <ele>80.4</ele>
        <time>2013-03-10T09:31:49.000Z</time>
      </trkpt>
      <trkpt lat="46.07288" lon="-0.35329">
        <ele>80.2</ele>
        <time>2013-03-10T09:31:51.000Z</time>
      </trkpt>
      <trkpt lat="46.07281" lon="-0.35327">
        <ele>80.5</ele>
        <time>2013-03-10T09:31:53.000Z</time>
      </trkpt>
      <trkpt lat="46.07273" lon="-0.35321">
        <ele>81</ele>
        <time>2013-03-10T09:31:56.000Z</time>
      </trkpt>
      <trkpt lat="46.07265" lon="-0.35317">
        <ele>81.3</ele>
        <time>2013-03-10T09:31:59.000Z</time>
      </trkpt>
      <trkpt lat="46.07259" lon="-0.35315">
        <ele>81.3</ele>
        <time>2013-03-10T09:32:01.000Z</time>
      </trkpt>
      <trkpt lat="46.07252" lon="-0.35311">
        <ele>81.9</ele>
        <time>2013-03-10T09:32:03.000Z</time>
      </trkpt>
      <trkpt lat="46.07245" lon="-0.35307">
        <ele>81.8</ele>
        <time>2013-03-10T09:32:05.000Z</time>
      </trkpt>
      <trkpt lat="46.07239" lon="-0.35303">
        <ele>82.5</ele>
        <time>2013-03-10T09:32:07.000Z</time>
      </trkpt>
      <trkpt lat="46.07233" lon="-0.35299">
        <ele>83.1</ele>
        <time>2013-03-10T09:32:09.000Z</time>
      </trkpt>
      <trkpt lat="46.07226" lon="-0.35297">
        <ele>83.3</ele>
        <time>2013-03-10T09:32:11.000Z</time>
      </trkpt>
      <trkpt lat="46.0722" lon="-0.35294">
        <ele>82.7</ele>
        <time>2013-03-10T09:32:13.000Z</time>
      </trkpt>
      <trkpt lat="46.07213" lon="-0.35291">
        <ele>82.4</ele>
        <time>2013-03-10T09:32:15.000Z</time>
      </trkpt>
      <trkpt lat="46.07206" lon="-0.3529">
        <ele>82.4</ele>
        <time>2013-03-10T09:32:17.000Z</time>
      </trkpt>
      <trkpt lat="46.07198" lon="-0.3529">
        <ele>82.6</ele>
        <time>2013-03-10T09:32:19.000Z</time>
      </trkpt>
      <trkpt lat="46.0719" lon="-0.35287">
        <ele>82.6</ele>
        <time>2013-03-10T09:32:21.000Z</time>
      </trkpt>
      <trkpt lat="46.07184" lon="-0.35281">
        <ele>82.5</ele>
        <time>2013-03-10T09:32:23.000Z</time>
      </trkpt>
      <trkpt lat="46.07178" lon="-0.35277">
        <ele>82.6</ele>
        <time>2013-03-10T09:32:25.000Z</time>
      </trkpt>
      <trkpt lat="46.07171" lon="-0.35274">
        <ele>82.1</ele>
        <time>2013-03-10T09:32:27.000Z</time>
      </trkpt>
      <trkpt lat="46.07163" lon="-0.35272">
        <ele>82.1</ele>
        <time>2013-03-10T09:32:29.000Z</time>
      </trkpt>
      <trkpt lat="46.07155" lon="-0.35268">
        <ele>81.9</ele>
        <time>2013-03-10T09:32:31.000Z</time>
      </trkpt>
      <trkpt lat="46.07151" lon="-0.35265">
        <ele>81.8</ele>
        <time>2013-03-10T09:32:32.000Z</time>
      </trkpt>
      <trkpt lat="46.07147" lon="-0.35262">
        <ele>81.8</ele>
        <time>2013-03-10T09:32:33.000Z</time>
      </trkpt>
      <trkpt lat="46.07142" lon="-0.35258">
        <ele>81.9</ele>
        <time>2013-03-10T09:32:34.000Z</time>
      </trkpt>
      <trkpt lat="46.07138" lon="-0.35253">
        <ele>81.9</ele>
        <time>2013-03-10T09:32:35.000Z</time>
      </trkpt>
      <trkpt lat="46.07134" lon="-0.35248">
        <ele>81.9</ele>
        <time>2013-03-10T09:32:36.000Z</time>
      </trkpt>
      <trkpt lat="46.07131" lon="-0.35242">
        <ele>81.9</ele>
        <time>2013-03-10T09:32:37.000Z</time>
      </trkpt>
      <trkpt lat="46.07129" lon="-0.35235">
        <ele>81.8</ele>
        <time>2013-03-10T09:32:38.000Z</time>
      </trkpt>
      <trkpt lat="46.07127" lon="-0.35228">
        <ele>81.8</ele>
        <time>2013-03-10T09:32:39.000Z</time>
      </trkpt>
      <trkpt lat="46.07124" lon="-0.35216">
        <ele>81.5</ele>
        <time>2013-03-10T09:32:41.000Z</time>
      </trkpt>
      <trkpt lat="46.0712" lon="-0.35204">
        <ele>81.7</ele>
        <time>2013-03-10T09:32:43.000Z</time>
      </trkpt>
      <trkpt lat="46.07118" lon="-0.35199">
        <ele>81.7</ele>
        <time>2013-03-10T09:32:44.000Z</time>
      </trkpt>
      <trkpt lat="46.07116" lon="-0.35192">
        <ele>81.4</ele>
        <time>2013-03-10T09:32:45.000Z</time>
      </trkpt>
      <trkpt lat="46.07113" lon="-0.3518">
        <ele>81.2</ele>
        <time>2013-03-10T09:32:47.000Z</time>
      </trkpt>
      <trkpt lat="46.07111" lon="-0.35168">
        <ele>81.4</ele>
        <time>2013-03-10T09:32:49.000Z</time>
      </trkpt>
      <trkpt lat="46.0711" lon="-0.35162">
        <ele>81.6</ele>
        <time>2013-03-10T09:32:50.000Z</time>
      </trkpt>
      <trkpt lat="46.07108" lon="-0.35155">
        <ele>81.6</ele>
        <time>2013-03-10T09:32:51.000Z</time>
      </trkpt>
      <trkpt lat="46.07106" lon="-0.35148">
        <ele>81.7</ele>
        <time>2013-03-10T09:32:52.000Z</time>
      </trkpt>
      <trkpt lat="46.07105" lon="-0.35141">
        <ele>81.8</ele>
        <time>2013-03-10T09:32:53.000Z</time>
      </trkpt>
      <trkpt lat="46.07103" lon="-0.35134">
        <ele>81.7</ele>
        <time>2013-03-10T09:32:54.000Z</time>
      </trkpt>
      <trkpt lat="46.07101" lon="-0.35127">
        <ele>81.7</ele>
        <time>2013-03-10T09:32:55.000Z</time>
      </trkpt>
      <trkpt lat="46.071" lon="-0.3512">
        <ele>81.7</ele>
        <time>2013-03-10T09:32:56.000Z</time>
      </trkpt>
      <trkpt lat="46.07099" lon="-0.35113">
        <ele>81.5</ele>
        <time>2013-03-10T09:32:57.000Z</time>
      </trkpt>
      <trkpt lat="46.07097" lon="-0.35106">
        <ele>81.4</ele>
        <time>2013-03-10T09:32:58.000Z</time>
      </trkpt>
      <trkpt lat="46.07095" lon="-0.35099">
        <ele>81.3</ele>
        <time>2013-03-10T09:32:59.000Z</time>
      </trkpt>
      <trkpt lat="46.07094" lon="-0.35091">
        <ele>81.2</ele>
        <time>2013-03-10T09:33:00.000Z</time>
      </trkpt>
      <trkpt lat="46.07092" lon="-0.35084">
        <ele>81.1</ele>
        <time>2013-03-10T09:33:01.000Z</time>
      </trkpt>
      <trkpt lat="46.07091" lon="-0.35077">
        <ele>81</ele>
        <time>2013-03-10T09:33:02.000Z</time>
      </trkpt>
      <trkpt lat="46.07089" lon="-0.35069">
        <ele>80.9</ele>
        <time>2013-03-10T09:33:03.000Z</time>
      </trkpt>
      <trkpt lat="46.07088" lon="-0.35062">
        <ele>81</ele>
        <time>2013-03-10T09:33:04.000Z</time>
      </trkpt>
      <trkpt lat="46.07087" lon="-0.35055">
        <ele>81.1</ele>
        <time>2013-03-10T09:33:05.000Z</time>
      </trkpt>
      <trkpt lat="46.07085" lon="-0.35047">
        <ele>80.9</ele>
        <time>2013-03-10T09:33:06.000Z</time>
      </trkpt>
      <trkpt lat="46.07084" lon="-0.35039">
        <ele>80.8</ele>
        <time>2013-03-10T09:33:07.000Z</time>
      </trkpt>
      <trkpt lat="46.07082" lon="-0.35031">
        <ele>80.8</ele>
        <time>2013-03-10T09:33:08.000Z</time>
      </trkpt>
      <trkpt lat="46.0708" lon="-0.35023">
        <ele>81.2</ele>
        <time>2013-03-10T09:33:09.000Z</time>
      </trkpt>
      <trkpt lat="46.07079" lon="-0.35015">
        <ele>81.6</ele>
        <time>2013-03-10T09:33:10.000Z</time>
      </trkpt>
      <trkpt lat="46.07077" lon="-0.35007">
        <ele>81.3</ele>
        <time>2013-03-10T09:33:11.000Z</time>
      </trkpt>
      <trkpt lat="46.07076" lon="-0.35">
        <ele>81</ele>
        <time>2013-03-10T09:33:12.000Z</time>
      </trkpt>
      <trkpt lat="46.07074" lon="-0.34993">
        <ele>81</ele>
        <time>2013-03-10T09:33:13.000Z</time>
      </trkpt>
      <trkpt lat="46.07073" lon="-0.34986">
        <ele>81</ele>
        <time>2013-03-10T09:33:14.000Z</time>
      </trkpt>
      <trkpt lat="46.07072" lon="-0.34979">
        <ele>81</ele>
        <time>2013-03-10T09:33:15.000Z</time>
      </trkpt>
      <trkpt lat="46.07071" lon="-0.34972">
        <ele>80.8</ele>
        <time>2013-03-10T09:33:16.000Z</time>
      </trkpt>
      <trkpt lat="46.0707" lon="-0.34965">
        <ele>80.7</ele>
        <time>2013-03-10T09:33:17.000Z</time>
      </trkpt>
      <trkpt lat="46.07068" lon="-0.34957">
        <ele>80.7</ele>
        <time>2013-03-10T09:33:18.000Z</time>
      </trkpt>
      <trkpt lat="46.07066" lon="-0.34949">
        <ele>80.8</ele>
        <time>2013-03-10T09:33:19.000Z</time>
      </trkpt>
      <trkpt lat="46.07063" lon="-0.34941">
        <ele>80.5</ele>
        <time>2013-03-10T09:33:20.000Z</time>
      </trkpt>
      <trkpt lat="46.07061" lon="-0.34932">
        <ele>80.3</ele>
        <time>2013-03-10T09:33:21.000Z</time>
      </trkpt>
      <trkpt lat="46.07059" lon="-0.34924">
        <ele>80.2</ele>
        <time>2013-03-10T09:33:22.000Z</time>
      </trkpt>
      <trkpt lat="46.07056" lon="-0.34916">
        <ele>80.3</ele>
        <time>2013-03-10T09:33:23.000Z</time>
      </trkpt>
      <trkpt lat="46.07054" lon="-0.34907">
        <ele>80.4</ele>
        <time>2013-03-10T09:33:24.000Z</time>
      </trkpt>
      <trkpt lat="46.07052" lon="-0.34898">
        <ele>80</ele>
        <time>2013-03-10T09:33:25.000Z</time>
      </trkpt>
      <trkpt lat="46.0705" lon="-0.34889">
        <ele>79.8</ele>
        <time>2013-03-10T09:33:26.000Z</time>
      </trkpt>
      <trkpt lat="46.07048" lon="-0.34881">
        <ele>79.9</ele>
        <time>2013-03-10T09:33:27.000Z</time>
      </trkpt>
      <trkpt lat="46.07046" lon="-0.34873">
        <ele>80</ele>
        <time>2013-03-10T09:33:28.000Z</time>
      </trkpt>
      <trkpt lat="46.07044" lon="-0.34864">
        <ele>80.1</ele>
        <time>2013-03-10T09:33:29.000Z</time>
      </trkpt>
      <trkpt lat="46.07042" lon="-0.34854">
        <ele>79.5</ele>
        <time>2013-03-10T09:33:30.000Z</time>
      </trkpt>
      <trkpt lat="46.0704" lon="-0.34846">
        <ele>79</ele>
        <time>2013-03-10T09:33:31.000Z</time>
      </trkpt>
      <trkpt lat="46.07038" lon="-0.34837">
        <ele>78.8</ele>
        <time>2013-03-10T09:33:32.000Z</time>
      </trkpt>
      <trkpt lat="46.07036" lon="-0.34828">
        <ele>78.7</ele>
        <time>2013-03-10T09:33:33.000Z</time>
      </trkpt>
      <trkpt lat="46.07033" lon="-0.34818">
        <ele>78.6</ele>
        <time>2013-03-10T09:33:34.000Z</time>
      </trkpt>
      <trkpt lat="46.07029" lon="-0.34809">
        <ele>78.6</ele>
        <time>2013-03-10T09:33:35.000Z</time>
      </trkpt>
      <trkpt lat="46.07026" lon="-0.34799">
        <ele>78.6</ele>
        <time>2013-03-10T09:33:36.000Z</time>
      </trkpt>
      <trkpt lat="46.07022" lon="-0.3479">
        <ele>78.6</ele>
        <time>2013-03-10T09:33:37.000Z</time>
      </trkpt>
      <trkpt lat="46.07018" lon="-0.34781">
        <ele>78.7</ele>
        <time>2013-03-10T09:33:38.000Z</time>
      </trkpt>
      <trkpt lat="46.07014" lon="-0.34772">
        <ele>78.5</ele>
        <time>2013-03-10T09:33:39.000Z</time>
      </trkpt>
      <trkpt lat="46.0701" lon="-0.34762">
        <ele>78.4</ele>
        <time>2013-03-10T09:33:40.000Z</time>
      </trkpt>
      <trkpt lat="46.07006" lon="-0.34753">
        <ele>78.4</ele>
        <time>2013-03-10T09:33:41.000Z</time>
      </trkpt>
      <trkpt lat="46.07002" lon="-0.34743">
        <ele>78.2</ele>
        <time>2013-03-10T09:33:42.000Z</time>
      </trkpt>
      <trkpt lat="46.06999" lon="-0.34734">
        <ele>78.2</ele>
        <time>2013-03-10T09:33:43.000Z</time>
      </trkpt>
      <trkpt lat="46.06995" lon="-0.34724">
        <ele>77.6</ele>
        <time>2013-03-10T09:33:44.000Z</time>
      </trkpt>
      <trkpt lat="46.0699" lon="-0.34715">
        <ele>77.2</ele>
        <time>2013-03-10T09:33:45.000Z</time>
      </trkpt>
      <trkpt lat="46.06986" lon="-0.34706">
        <ele>76.2</ele>
        <time>2013-03-10T09:33:46.000Z</time>
      </trkpt>
      <trkpt lat="46.06982" lon="-0.34697">
        <ele>75.5</ele>
        <time>2013-03-10T09:33:47.000Z</time>
      </trkpt>
      <trkpt lat="46.06977" lon="-0.34688">
        <ele>75</ele>
        <time>2013-03-10T09:33:48.000Z</time>
      </trkpt>
      <trkpt lat="46.06973" lon="-0.3468">
        <ele>75</ele>
        <time>2013-03-10T09:33:49.000Z</time>
      </trkpt>
      <trkpt lat="46.06968" lon="-0.34672">
        <ele>75</ele>
        <time>2013-03-10T09:33:50.000Z</time>
      </trkpt>
      <trkpt lat="46.06963" lon="-0.34664">
        <ele>74.2</ele>
        <time>2013-03-10T09:33:51.000Z</time>
      </trkpt>
      <trkpt lat="46.06959" lon="-0.34657">
        <ele>73.7</ele>
        <time>2013-03-10T09:33:52.000Z</time>
      </trkpt>
      <trkpt lat="46.06954" lon="-0.34649">
        <ele>73.2</ele>
        <time>2013-03-10T09:33:53.000Z</time>
      </trkpt>
      <trkpt lat="46.06949" lon="-0.34641">
        <ele>73</ele>
        <time>2013-03-10T09:33:54.000Z</time>
      </trkpt>
      <trkpt lat="46.06944" lon="-0.34633">
        <ele>72.8</ele>
        <time>2013-03-10T09:33:55.000Z</time>
      </trkpt>
      <trkpt lat="46.06939" lon="-0.34625">
        <ele>72.3</ele>
        <time>2013-03-10T09:33:56.000Z</time>
      </trkpt>
      <trkpt lat="46.06935" lon="-0.34616">
        <ele>72</ele>
        <time>2013-03-10T09:33:57.000Z</time>
      </trkpt>
      <trkpt lat="46.0693" lon="-0.34609">
        <ele>71.7</ele>
        <time>2013-03-10T09:33:58.000Z</time>
      </trkpt>
      <trkpt lat="46.06925" lon="-0.34601">
        <ele>71.5</ele>
        <time>2013-03-10T09:33:59.000Z</time>
      </trkpt>
      <trkpt lat="46.06921" lon="-0.34594">
        <ele>71.3</ele>
        <time>2013-03-10T09:34:00.000Z</time>
      </trkpt>
      <trkpt lat="46.06916" lon="-0.34586">
        <ele>71.5</ele>
        <time>2013-03-10T09:34:01.000Z</time>
      </trkpt>
      <trkpt lat="46.06911" lon="-0.34579">
        <ele>71.6</ele>
        <time>2013-03-10T09:34:02.000Z</time>
      </trkpt>
      <trkpt lat="46.06907" lon="-0.34572">
        <ele>71.5</ele>
        <time>2013-03-10T09:34:03.000Z</time>
      </trkpt>
      <trkpt lat="46.06902" lon="-0.34564">
        <ele>71.5</ele>
        <time>2013-03-10T09:34:04.000Z</time>
      </trkpt>
      <trkpt lat="46.06897" lon="-0.34556">
        <ele>71.4</ele>
        <time>2013-03-10T09:34:05.000Z</time>
      </trkpt>
      <trkpt lat="46.06893" lon="-0.34548">
        <ele>70.9</ele>
        <time>2013-03-10T09:34:06.000Z</time>
      </trkpt>
      <trkpt lat="46.06888" lon="-0.3454">
        <ele>70.5</ele>
        <time>2013-03-10T09:34:07.000Z</time>
      </trkpt>
      <trkpt lat="46.06883" lon="-0.34531">
        <ele>69.6</ele>
        <time>2013-03-10T09:34:08.000Z</time>
      </trkpt>
      <trkpt lat="46.06879" lon="-0.34523">
        <ele>69</ele>
        <time>2013-03-10T09:34:09.000Z</time>
      </trkpt>
      <trkpt lat="46.06875" lon="-0.34514">
        <ele>68.7</ele>
        <time>2013-03-10T09:34:10.000Z</time>
      </trkpt>
      <trkpt lat="46.06871" lon="-0.34505">
        <ele>68.5</ele>
        <time>2013-03-10T09:34:11.000Z</time>
      </trkpt>
      <trkpt lat="46.06868" lon="-0.34496">
        <ele>68.3</ele>
        <time>2013-03-10T09:34:12.000Z</time>
      </trkpt>
      <trkpt lat="46.06867" lon="-0.34486">
        <ele>68</ele>
        <time>2013-03-10T09:34:13.000Z</time>
      </trkpt>
      <trkpt lat="46.06865" lon="-0.34477">
        <ele>67.8</ele>
        <time>2013-03-10T09:34:14.000Z</time>
      </trkpt>
      <trkpt lat="46.06863" lon="-0.34468">
        <ele>67.1</ele>
        <time>2013-03-10T09:34:15.000Z</time>
      </trkpt>
      <trkpt lat="46.06862" lon="-0.3446">
        <ele>66.6</ele>
        <time>2013-03-10T09:34:16.000Z</time>
      </trkpt>
      <trkpt lat="46.0686" lon="-0.34452">
        <ele>66.1</ele>
        <time>2013-03-10T09:34:17.000Z</time>
      </trkpt>
      <trkpt lat="46.06858" lon="-0.3444">
        <ele>65.6</ele>
        <time>2013-03-10T09:34:19.000Z</time>
      </trkpt>
      <trkpt lat="46.06856" lon="-0.3443">
        <ele>65.8</ele>
        <time>2013-03-10T09:34:21.000Z</time>
      </trkpt>
      <trkpt lat="46.06848" lon="-0.34425">
        <ele>65.7</ele>
        <time>2013-03-10T09:34:25.000Z</time>
      </trkpt>
      <trkpt lat="46.06842" lon="-0.34416">
        <ele>64.8</ele>
        <time>2013-03-10T09:34:46.000Z</time>
      </trkpt>
      <trkpt lat="46.06842" lon="-0.34416">
        <ele>65</ele>
        <time>2013-03-10T09:34:47.000Z</time>
      </trkpt>
      <trkpt lat="46.06827" lon="-0.34413">
        <ele>65</ele>
        <time>2013-03-10T09:35:35.000Z</time>
      </trkpt>
      <trkpt lat="46.06819" lon="-0.34414">
        <ele>65.2</ele>
        <time>2013-03-10T09:35:38.000Z</time>
      </trkpt>
      <trkpt lat="46.06812" lon="-0.34415">
        <ele>65.1</ele>
        <time>2013-03-10T09:35:40.000Z</time>
      </trkpt>
      <trkpt lat="46.06805" lon="-0.34417">
        <ele>64.9</ele>
        <time>2013-03-10T09:35:42.000Z</time>
      </trkpt>
      <trkpt lat="46.06797" lon="-0.34418">
        <ele>64.7</ele>
        <time>2013-03-10T09:35:44.000Z</time>
      </trkpt>
      <trkpt lat="46.06789" lon="-0.34419">
        <ele>64.8</ele>
        <time>2013-03-10T09:35:46.000Z</time>
      </trkpt>
      <trkpt lat="46.0678" lon="-0.3442">
        <ele>65</ele>
        <time>2013-03-10T09:35:48.000Z</time>
      </trkpt>
      <trkpt lat="46.06776" lon="-0.34421">
        <ele>65</ele>
        <time>2013-03-10T09:35:49.000Z</time>
      </trkpt>
      <trkpt lat="46.06762" lon="-0.34423">
        <ele>65.1</ele>
        <time>2013-03-10T09:35:52.000Z</time>
      </trkpt>
      <trkpt lat="46.06755" lon="-0.34419">
        <ele>64.9</ele>
        <time>2013-03-10T09:35:54.000Z</time>
      </trkpt>
      <trkpt lat="46.06752" lon="-0.34408">
        <ele>64.9</ele>
        <time>2013-03-10T09:35:56.000Z</time>
      </trkpt>
      <trkpt lat="46.06749" lon="-0.34398">
        <ele>64.9</ele>
        <time>2013-03-10T09:35:58.000Z</time>
      </trkpt>
      <trkpt lat="46.06747" lon="-0.34387">
        <ele>65</ele>
        <time>2013-03-10T09:36:00.000Z</time>
      </trkpt>
      <trkpt lat="46.06744" lon="-0.34375">
        <ele>65.3</ele>
        <time>2013-03-10T09:36:02.000Z</time>
      </trkpt>
      <trkpt lat="46.06742" lon="-0.34363">
        <ele>65.8</ele>
        <time>2013-03-10T09:36:04.000Z</time>
      </trkpt>
      <trkpt lat="46.0674" lon="-0.34352">
        <ele>66.3</ele>
        <time>2013-03-10T09:36:06.000Z</time>
      </trkpt>
      <trkpt lat="46.06739" lon="-0.34345">
        <ele>66.2</ele>
        <time>2013-03-10T09:36:07.000Z</time>
      </trkpt>
      <trkpt lat="46.06738" lon="-0.34339">
        <ele>66.2</ele>
        <time>2013-03-10T09:36:08.000Z</time>
      </trkpt>
      <trkpt lat="46.06737" lon="-0.34332">
        <ele>66.3</ele>
        <time>2013-03-10T09:36:09.000Z</time>
      </trkpt>
      <trkpt lat="46.06737" lon="-0.34325">
        <ele>66.4</ele>
        <time>2013-03-10T09:36:10.000Z</time>
      </trkpt>
      <trkpt lat="46.06738" lon="-0.34318">
        <ele>66.5</ele>
        <time>2013-03-10T09:36:11.000Z</time>
      </trkpt>
      <trkpt lat="46.06739" lon="-0.34311">
        <ele>66.6</ele>
        <time>2013-03-10T09:36:12.000Z</time>
      </trkpt>
      <trkpt lat="46.0674" lon="-0.34304">
        <ele>66.6</ele>
        <time>2013-03-10T09:36:13.000Z</time>
      </trkpt>
      <trkpt lat="46.06742" lon="-0.34297">
        <ele>66.5</ele>
        <time>2013-03-10T09:36:14.000Z</time>
      </trkpt>
      <trkpt lat="46.06744" lon="-0.3429">
        <ele>66.5</ele>
        <time>2013-03-10T09:36:15.000Z</time>
      </trkpt>
      <trkpt lat="46.06745" lon="-0.34283">
        <ele>66.9</ele>
        <time>2013-03-10T09:36:16.000Z</time>
      </trkpt>
      <trkpt lat="46.06747" lon="-0.34276">
        <ele>67.2</ele>
        <time>2013-03-10T09:36:17.000Z</time>
      </trkpt>
      <trkpt lat="46.06749" lon="-0.34269">
        <ele>67.1</ele>
        <time>2013-03-10T09:36:18.000Z</time>
      </trkpt>
      <trkpt lat="46.0675" lon="-0.34261">
        <ele>67</ele>
        <time>2013-03-10T09:36:19.000Z</time>
      </trkpt>
      <trkpt lat="46.06752" lon="-0.34254">
        <ele>66.9</ele>
        <time>2013-03-10T09:36:20.000Z</time>
      </trkpt>
      <trkpt lat="46.06753" lon="-0.34247">
        <ele>67.2</ele>
        <time>2013-03-10T09:36:21.000Z</time>
      </trkpt>
      <trkpt lat="46.06755" lon="-0.34239">
        <ele>67.5</ele>
        <time>2013-03-10T09:36:22.000Z</time>
      </trkpt>
      <trkpt lat="46.06756" lon="-0.34232">
        <ele>67.6</ele>
        <time>2013-03-10T09:36:23.000Z</time>
      </trkpt>
      <trkpt lat="46.06758" lon="-0.34225">
        <ele>67.6</ele>
        <time>2013-03-10T09:36:24.000Z</time>
      </trkpt>
      <trkpt lat="46.06759" lon="-0.34218">
        <ele>67.6</ele>
        <time>2013-03-10T09:36:25.000Z</time>
      </trkpt>
      <trkpt lat="46.06761" lon="-0.34211">
        <ele>67.6</ele>
        <time>2013-03-10T09:36:26.000Z</time>
      </trkpt>
      <trkpt lat="46.06763" lon="-0.34204">
        <ele>67.6</ele>
        <time>2013-03-10T09:36:27.000Z</time>
      </trkpt>
      <trkpt lat="46.06765" lon="-0.34197">
        <ele>67.6</ele>
        <time>2013-03-10T09:36:28.000Z</time>
      </trkpt>
      <trkpt lat="46.06767" lon="-0.3419">
        <ele>67.5</ele>
        <time>2013-03-10T09:36:29.000Z</time>
      </trkpt>
      <trkpt lat="46.06769" lon="-0.34183">
        <ele>67.4</ele>
        <time>2013-03-10T09:36:30.000Z</time>
      </trkpt>
      <trkpt lat="46.06771" lon="-0.34176">
        <ele>67.3</ele>
        <time>2013-03-10T09:36:31.000Z</time>
      </trkpt>
      <trkpt lat="46.06774" lon="-0.34169">
        <ele>67.2</ele>
        <time>2013-03-10T09:36:32.000Z</time>
      </trkpt>
      <trkpt lat="46.06776" lon="-0.34162">
        <ele>67.3</ele>
        <time>2013-03-10T09:36:33.000Z</time>
      </trkpt>
      <trkpt lat="46.06779" lon="-0.34156">
        <ele>67.3</ele>
        <time>2013-03-10T09:36:34.000Z</time>
      </trkpt>
      <trkpt lat="46.06781" lon="-0.34149">
        <ele>67.6</ele>
        <time>2013-03-10T09:36:35.000Z</time>
      </trkpt>
      <trkpt lat="46.06783" lon="-0.34142">
        <ele>67.9</ele>
        <time>2013-03-10T09:36:36.000Z</time>
      </trkpt>
      <trkpt lat="46.06786" lon="-0.34136">
        <ele>68</ele>
        <time>2013-03-10T09:36:37.000Z</time>
      </trkpt>
      <trkpt lat="46.06788" lon="-0.3413">
        <ele>68.1</ele>
        <time>2013-03-10T09:36:38.000Z</time>
      </trkpt>
      <trkpt lat="46.0679" lon="-0.34123">
        <ele>68.1</ele>
        <time>2013-03-10T09:36:39.000Z</time>
      </trkpt>
      <trkpt lat="46.06793" lon="-0.34117">
        <ele>68</ele>
        <time>2013-03-10T09:36:40.000Z</time>
      </trkpt>
      <trkpt lat="46.06796" lon="-0.34111">
        <ele>68</ele>
        <time>2013-03-10T09:36:41.000Z</time>
      </trkpt>
      <trkpt lat="46.06798" lon="-0.34104">
        <ele>68.1</ele>
        <time>2013-03-10T09:36:42.000Z</time>
      </trkpt>
      <trkpt lat="46.06801" lon="-0.34098">
        <ele>68.3</ele>
        <time>2013-03-10T09:36:43.000Z</time>
      </trkpt>
      <trkpt lat="46.06804" lon="-0.34092">
        <ele>68.5</ele>
        <time>2013-03-10T09:36:44.000Z</time>
      </trkpt>
      <trkpt lat="46.06806" lon="-0.34085">
        <ele>68.7</ele>
        <time>2013-03-10T09:36:45.000Z</time>
      </trkpt>
      <trkpt lat="46.06809" lon="-0.34079">
        <ele>68.9</ele>
        <time>2013-03-10T09:36:46.000Z</time>
      </trkpt>
      <trkpt lat="46.06811" lon="-0.34073">
        <ele>69.2</ele>
        <time>2013-03-10T09:36:47.000Z</time>
      </trkpt>
      <trkpt lat="46.06813" lon="-0.34067">
        <ele>69.4</ele>
        <time>2013-03-10T09:36:48.000Z</time>
      </trkpt>
      <trkpt lat="46.06816" lon="-0.3406">
        <ele>69.3</ele>
        <time>2013-03-10T09:36:49.000Z</time>
      </trkpt>
      <trkpt lat="46.06818" lon="-0.34054">
        <ele>69.3</ele>
        <time>2013-03-10T09:36:50.000Z</time>
      </trkpt>
      <trkpt lat="46.0682" lon="-0.34047">
        <ele>69.2</ele>
        <time>2013-03-10T09:36:51.000Z</time>
      </trkpt>
      <trkpt lat="46.06822" lon="-0.3404">
        <ele>69.2</ele>
        <time>2013-03-10T09:36:52.000Z</time>
      </trkpt>
      <trkpt lat="46.06824" lon="-0.34034">
        <ele>69.2</ele>
        <time>2013-03-10T09:36:53.000Z</time>
      </trkpt>
      <trkpt lat="46.06825" lon="-0.34027">
        <ele>68.9</ele>
        <time>2013-03-10T09:36:54.000Z</time>
      </trkpt>
      <trkpt lat="46.06827" lon="-0.3402">
        <ele>68.6</ele>
        <time>2013-03-10T09:36:55.000Z</time>
      </trkpt>
      <trkpt lat="46.06829" lon="-0.34013">
        <ele>68.6</ele>
        <time>2013-03-10T09:36:56.000Z</time>
      </trkpt>
      <trkpt lat="46.06831" lon="-0.34006">
        <ele>68.6</ele>
        <time>2013-03-10T09:36:57.000Z</time>
      </trkpt>
      <trkpt lat="46.06833" lon="-0.33999">
        <ele>68.6</ele>
        <time>2013-03-10T09:36:58.000Z</time>
      </trkpt>
      <trkpt lat="46.06834" lon="-0.33992">
        <ele>68.5</ele>
        <time>2013-03-10T09:36:59.000Z</time>
      </trkpt>
      <trkpt lat="46.06836" lon="-0.33984">
        <ele>68.4</ele>
        <time>2013-03-10T09:37:00.000Z</time>
      </trkpt>
      <trkpt lat="46.06838" lon="-0.33977">
        <ele>68.5</ele>
        <time>2013-03-10T09:37:01.000Z</time>
      </trkpt>
      <trkpt lat="46.06839" lon="-0.3397">
        <ele>68.6</ele>
        <time>2013-03-10T09:37:02.000Z</time>
      </trkpt>
      <trkpt lat="46.0684" lon="-0.33963">
        <ele>68.6</ele>
        <time>2013-03-10T09:37:03.000Z</time>
      </trkpt>
      <trkpt lat="46.06841" lon="-0.33956">
        <ele>68.6</ele>
        <time>2013-03-10T09:37:04.000Z</time>
      </trkpt>
      <trkpt lat="46.06841" lon="-0.33948">
        <ele>68.6</ele>
        <time>2013-03-10T09:37:05.000Z</time>
      </trkpt>
      <trkpt lat="46.06841" lon="-0.33941">
        <ele>69</ele>
        <time>2013-03-10T09:37:06.000Z</time>
      </trkpt>
      <trkpt lat="46.06842" lon="-0.33934">
        <ele>69.3</ele>
        <time>2013-03-10T09:37:07.000Z</time>
      </trkpt>
      <trkpt lat="46.06842" lon="-0.33927">
        <ele>69.3</ele>
        <time>2013-03-10T09:37:08.000Z</time>
      </trkpt>
      <trkpt lat="46.06843" lon="-0.33921">
        <ele>69.3</ele>
        <time>2013-03-10T09:37:09.000Z</time>
      </trkpt>
      <trkpt lat="46.06843" lon="-0.33914">
        <ele>69.3</ele>
        <time>2013-03-10T09:37:10.000Z</time>
      </trkpt>
      <trkpt lat="46.06843" lon="-0.33907">
        <ele>69.2</ele>
        <time>2013-03-10T09:37:11.000Z</time>
      </trkpt>
      <trkpt lat="46.06843" lon="-0.33901">
        <ele>69.2</ele>
        <time>2013-03-10T09:37:12.000Z</time>
      </trkpt>
      <trkpt lat="46.06844" lon="-0.33889">
        <ele>68.8</ele>
        <time>2013-03-10T09:37:14.000Z</time>
      </trkpt>
      <trkpt lat="46.06844" lon="-0.33877">
        <ele>68.5</ele>
        <time>2013-03-10T09:37:16.000Z</time>
      </trkpt>
      <trkpt lat="46.06845" lon="-0.33866">
        <ele>68.5</ele>
        <time>2013-03-10T09:37:18.000Z</time>
      </trkpt>
      <trkpt lat="46.06844" lon="-0.33857">
        <ele>68.5</ele>
        <time>2013-03-10T09:37:20.000Z</time>
      </trkpt>
      <trkpt lat="46.06848" lon="-0.33848">
        <ele>68.2</ele>
        <time>2013-03-10T09:37:22.000Z</time>
      </trkpt>
      <trkpt lat="46.06854" lon="-0.33843">
        <ele>68.1</ele>
        <time>2013-03-10T09:37:25.000Z</time>
      </trkpt>
      <trkpt lat="46.06861" lon="-0.3384">
        <ele>68.8</ele>
        <time>2013-03-10T09:37:28.000Z</time>
      </trkpt>
      <trkpt lat="46.06868" lon="-0.33837">
        <ele>69.6</ele>
        <time>2013-03-10T09:37:31.000Z</time>
      </trkpt>
      <trkpt lat="46.06876" lon="-0.33836">
        <ele>71.4</ele>
        <time>2013-03-10T09:37:34.000Z</time>
      </trkpt>
      <trkpt lat="46.06885" lon="-0.33833">
        <ele>71.7</ele>
        <time>2013-03-10T09:37:37.000Z</time>
      </trkpt>
      <trkpt lat="46.06892" lon="-0.33831">
        <ele>72.7</ele>
        <time>2013-03-10T09:37:40.000Z</time>
      </trkpt>
      <trkpt lat="46.069" lon="-0.33828">
        <ele>73</ele>
        <time>2013-03-10T09:37:43.000Z</time>
      </trkpt>
      <trkpt lat="46.06909" lon="-0.33825">
        <ele>73.7</ele>
        <time>2013-03-10T09:37:46.000Z</time>
      </trkpt>
      <trkpt lat="46.06917" lon="-0.33823">
        <ele>74.7</ele>
        <time>2013-03-10T09:37:49.000Z</time>
      </trkpt>
      <trkpt lat="46.06925" lon="-0.33821">
        <ele>75.2</ele>
        <time>2013-03-10T09:37:52.000Z</time>
      </trkpt>
      <trkpt lat="46.06928" lon="-0.3382">
        <ele>75.4</ele>
        <time>2013-03-10T09:37:53.000Z</time>
      </trkpt>
      <trkpt lat="46.06941" lon="-0.33816">
        <ele>76</ele>
        <time>2013-03-10T09:37:58.000Z</time>
      </trkpt>
      <trkpt lat="46.06947" lon="-0.33815">
        <ele>76.3</ele>
        <time>2013-03-10T09:38:00.000Z</time>
      </trkpt>
      <trkpt lat="46.06954" lon="-0.33814">
        <ele>76.6</ele>
        <time>2013-03-10T09:38:02.000Z</time>
      </trkpt>
      <trkpt lat="46.0696" lon="-0.33812">
        <ele>77.3</ele>
        <time>2013-03-10T09:38:04.000Z</time>
      </trkpt>
      <trkpt lat="46.06966" lon="-0.33811">
        <ele>77.9</ele>
        <time>2013-03-10T09:38:06.000Z</time>
      </trkpt>
      <trkpt lat="46.06972" lon="-0.3381">
        <ele>77.8</ele>
        <time>2013-03-10T09:38:08.000Z</time>
      </trkpt>
      <trkpt lat="46.06978" lon="-0.33809">
        <ele>77.4</ele>
        <time>2013-03-10T09:38:10.000Z</time>
      </trkpt>
      <trkpt lat="46.06984" lon="-0.33809">
        <ele>77.8</ele>
        <time>2013-03-10T09:38:12.000Z</time>
      </trkpt>
      <trkpt lat="46.0699" lon="-0.33807">
        <ele>78.5</ele>
        <time>2013-03-10T09:38:14.000Z</time>
      </trkpt>
      <trkpt lat="46.06996" lon="-0.33807">
        <ele>78.4</ele>
        <time>2013-03-10T09:38:16.000Z</time>
      </trkpt>
      <trkpt lat="46.07003" lon="-0.33806">
        <ele>78.8</ele>
        <time>2013-03-10T09:38:18.000Z</time>
      </trkpt>
      <trkpt lat="46.0701" lon="-0.33803">
        <ele>78.9</ele>
        <time>2013-03-10T09:38:20.000Z</time>
      </trkpt>
      <trkpt lat="46.07016" lon="-0.338">
        <ele>79.3</ele>
        <time>2013-03-10T09:38:22.000Z</time>
      </trkpt>
      <trkpt lat="46.07023" lon="-0.33795">
        <ele>79.5</ele>
        <time>2013-03-10T09:38:24.000Z</time>
      </trkpt>
      <trkpt lat="46.0703" lon="-0.33791">
        <ele>79.5</ele>
        <time>2013-03-10T09:38:26.000Z</time>
      </trkpt>
      <trkpt lat="46.07036" lon="-0.33788">
        <ele>79.6</ele>
        <time>2013-03-10T09:38:28.000Z</time>
      </trkpt>
      <trkpt lat="46.07044" lon="-0.33785">
        <ele>79.7</ele>
        <time>2013-03-10T09:38:30.000Z</time>
      </trkpt>
      <trkpt lat="46.07051" lon="-0.33782">
        <ele>79.4</ele>
        <time>2013-03-10T09:38:32.000Z</time>
      </trkpt>
      <trkpt lat="46.07058" lon="-0.33779">
        <ele>79.6</ele>
        <time>2013-03-10T09:38:34.000Z</time>
      </trkpt>
      <trkpt lat="46.07066" lon="-0.33776">
        <ele>79.7</ele>
        <time>2013-03-10T09:38:36.000Z</time>
      </trkpt>
      <trkpt lat="46.07074" lon="-0.33772">
        <ele>79.8</ele>
        <time>2013-03-10T09:38:38.000Z</time>
      </trkpt>
      <trkpt lat="46.07081" lon="-0.33769">
        <ele>79.9</ele>
        <time>2013-03-10T09:38:40.000Z</time>
      </trkpt>
      <trkpt lat="46.07088" lon="-0.33766">
        <ele>79.8</ele>
        <time>2013-03-10T09:38:42.000Z</time>
      </trkpt>
      <trkpt lat="46.07097" lon="-0.33764">
        <ele>80.3</ele>
        <time>2013-03-10T09:38:44.000Z</time>
      </trkpt>
      <trkpt lat="46.07105" lon="-0.33762">
        <ele>80.3</ele>
        <time>2013-03-10T09:38:46.000Z</time>
      </trkpt>
      <trkpt lat="46.07113" lon="-0.33761">
        <ele>80.5</ele>
        <time>2013-03-10T09:38:48.000Z</time>
      </trkpt>
      <trkpt lat="46.07122" lon="-0.3376">
        <ele>80.6</ele>
        <time>2013-03-10T09:38:50.000Z</time>
      </trkpt>
      <trkpt lat="46.07126" lon="-0.33758">
        <ele>80.5</ele>
        <time>2013-03-10T09:38:51.000Z</time>
      </trkpt>
      <trkpt lat="46.07131" lon="-0.33757">
        <ele>80.5</ele>
        <time>2013-03-10T09:38:52.000Z</time>
      </trkpt>
      <trkpt lat="46.07135" lon="-0.33756">
        <ele>80.3</ele>
        <time>2013-03-10T09:38:53.000Z</time>
      </trkpt>
      <trkpt lat="46.0714" lon="-0.33755">
        <ele>80.1</ele>
        <time>2013-03-10T09:38:54.000Z</time>
      </trkpt>
      <trkpt lat="46.07144" lon="-0.33753">
        <ele>79.8</ele>
        <time>2013-03-10T09:38:55.000Z</time>
      </trkpt>
      <trkpt lat="46.07149" lon="-0.33752">
        <ele>79.6</ele>
        <time>2013-03-10T09:38:56.000Z</time>
      </trkpt>
      <trkpt lat="46.07154" lon="-0.33751">
        <ele>79.5</ele>
        <time>2013-03-10T09:38:57.000Z</time>
      </trkpt>
      <trkpt lat="46.0716" lon="-0.3375">
        <ele>79.5</ele>
        <time>2013-03-10T09:38:58.000Z</time>
      </trkpt>
      <trkpt lat="46.07165" lon="-0.33749">
        <ele>79.4</ele>
        <time>2013-03-10T09:38:59.000Z</time>
      </trkpt>
      <trkpt lat="46.0717" lon="-0.33748">
        <ele>79.3</ele>
        <time>2013-03-10T09:39:00.000Z</time>
      </trkpt>
      <trkpt lat="46.07175" lon="-0.33746">
        <ele>79.2</ele>
        <time>2013-03-10T09:39:01.000Z</time>
      </trkpt>
      <trkpt lat="46.07181" lon="-0.33744">
        <ele>79</ele>
        <time>2013-03-10T09:39:02.000Z</time>
      </trkpt>
      <trkpt lat="46.07186" lon="-0.33743">
        <ele>78.8</ele>
        <time>2013-03-10T09:39:03.000Z</time>
      </trkpt>
      <trkpt lat="46.07192" lon="-0.33741">
        <ele>78.3</ele>
        <time>2013-03-10T09:39:04.000Z</time>
      </trkpt>
      <trkpt lat="46.07198" lon="-0.33739">
        <ele>78</ele>
        <time>2013-03-10T09:39:05.000Z</time>
      </trkpt>
      <trkpt lat="46.07203" lon="-0.33738">
        <ele>77.7</ele>
        <time>2013-03-10T09:39:06.000Z</time>
      </trkpt>
      <trkpt lat="46.07209" lon="-0.33736">
        <ele>77.6</ele>
        <time>2013-03-10T09:39:07.000Z</time>
      </trkpt>
      <trkpt lat="46.07214" lon="-0.33734">
        <ele>77.5</ele>
        <time>2013-03-10T09:39:08.000Z</time>
      </trkpt>
      <trkpt lat="46.0722" lon="-0.33732">
        <ele>77.1</ele>
        <time>2013-03-10T09:39:09.000Z</time>
      </trkpt>
      <trkpt lat="46.07225" lon="-0.33731">
        <ele>76.8</ele>
        <time>2013-03-10T09:39:10.000Z</time>
      </trkpt>
      <trkpt lat="46.07231" lon="-0.33729">
        <ele>76.6</ele>
        <time>2013-03-10T09:39:11.000Z</time>
      </trkpt>
      <trkpt lat="46.07236" lon="-0.33727">
        <ele>76.3</ele>
        <time>2013-03-10T09:39:12.000Z</time>
      </trkpt>
      <trkpt lat="46.07243" lon="-0.33727">
        <ele>76.2</ele>
        <time>2013-03-10T09:39:13.000Z</time>
      </trkpt>
      <trkpt lat="46.07249" lon="-0.33729">
        <ele>75.6</ele>
        <time>2013-03-10T09:39:14.000Z</time>
      </trkpt>
      <trkpt lat="46.07255" lon="-0.3373">
        <ele>75.2</ele>
        <time>2013-03-10T09:39:15.000Z</time>
      </trkpt>
      <trkpt lat="46.07262" lon="-0.33732">
        <ele>74.9</ele>
        <time>2013-03-10T09:39:16.000Z</time>
      </trkpt>
      <trkpt lat="46.07267" lon="-0.33734">
        <ele>74.6</ele>
        <time>2013-03-10T09:39:17.000Z</time>
      </trkpt>
      <trkpt lat="46.07273" lon="-0.33736">
        <ele>74.4</ele>
        <time>2013-03-10T09:39:18.000Z</time>
      </trkpt>
      <trkpt lat="46.07278" lon="-0.33738">
        <ele>73.8</ele>
        <time>2013-03-10T09:39:19.000Z</time>
      </trkpt>
      <trkpt lat="46.07283" lon="-0.3374">
        <ele>73.3</ele>
        <time>2013-03-10T09:39:20.000Z</time>
      </trkpt>
      <trkpt lat="46.07287" lon="-0.33742">
        <ele>73.1</ele>
        <time>2013-03-10T09:39:21.000Z</time>
      </trkpt>
      <trkpt lat="46.07292" lon="-0.33743">
        <ele>72.9</ele>
        <time>2013-03-10T09:39:22.000Z</time>
      </trkpt>
      <trkpt lat="46.07296" lon="-0.33746">
        <ele>72.8</ele>
        <time>2013-03-10T09:39:23.000Z</time>
      </trkpt>
      <trkpt lat="46.073" lon="-0.33748">
        <ele>72.8</ele>
        <time>2013-03-10T09:39:24.000Z</time>
      </trkpt>
      <trkpt lat="46.07305" lon="-0.3375">
        <ele>72.8</ele>
        <time>2013-03-10T09:39:25.000Z</time>
      </trkpt>
      <trkpt lat="46.07309" lon="-0.33752">
        <ele>72.7</ele>
        <time>2013-03-10T09:39:26.000Z</time>
      </trkpt>
      <trkpt lat="46.07314" lon="-0.33754">
        <ele>72.7</ele>
        <time>2013-03-10T09:39:27.000Z</time>
      </trkpt>
      <trkpt lat="46.07319" lon="-0.33756">
        <ele>72.5</ele>
        <time>2013-03-10T09:39:28.000Z</time>
      </trkpt>
      <trkpt lat="46.07325" lon="-0.33757">
        <ele>72.4</ele>
        <time>2013-03-10T09:39:29.000Z</time>
      </trkpt>
      <trkpt lat="46.0733" lon="-0.33758">
        <ele>72.3</ele>
        <time>2013-03-10T09:39:30.000Z</time>
      </trkpt>
      <trkpt lat="46.07335" lon="-0.33759">
        <ele>72.4</ele>
        <time>2013-03-10T09:39:31.000Z</time>
      </trkpt>
      <trkpt lat="46.07339" lon="-0.33759">
        <ele>72.4</ele>
        <time>2013-03-10T09:39:32.000Z</time>
      </trkpt>
      <trkpt lat="46.07344" lon="-0.33761">
        <ele>72.3</ele>
        <time>2013-03-10T09:39:33.000Z</time>
      </trkpt>
      <trkpt lat="46.07351" lon="-0.33764">
        <ele>72.1</ele>
        <time>2013-03-10T09:39:35.000Z</time>
      </trkpt>
      <trkpt lat="46.07358" lon="-0.33766">
        <ele>72</ele>
        <time>2013-03-10T09:39:37.000Z</time>
      </trkpt>
      <trkpt lat="46.07367" lon="-0.33768">
        <ele>71.9</ele>
        <time>2013-03-10T09:39:39.000Z</time>
      </trkpt>
      <trkpt lat="46.07371" lon="-0.33766">
        <ele>72</ele>
        <time>2013-03-10T09:39:40.000Z</time>
      </trkpt>
      <trkpt lat="46.07375" lon="-0.33763">
        <ele>72</ele>
        <time>2013-03-10T09:39:41.000Z</time>
      </trkpt>
      <trkpt lat="46.07379" lon="-0.33759">
        <ele>72.1</ele>
        <time>2013-03-10T09:39:42.000Z</time>
      </trkpt>
      <trkpt lat="46.07383" lon="-0.33756">
        <ele>72.4</ele>
        <time>2013-03-10T09:39:43.000Z</time>
      </trkpt>
      <trkpt lat="46.07391" lon="-0.33749">
        <ele>72.9</ele>
        <time>2013-03-10T09:39:45.000Z</time>
      </trkpt>
      <trkpt lat="46.07395" lon="-0.33746">
        <ele>73</ele>
        <time>2013-03-10T09:39:46.000Z</time>
      </trkpt>
      <trkpt lat="46.07399" lon="-0.33743">
        <ele>73.1</ele>
        <time>2013-03-10T09:39:47.000Z</time>
      </trkpt>
      <trkpt lat="46.07404" lon="-0.3374">
        <ele>73.1</ele>
        <time>2013-03-10T09:39:48.000Z</time>
      </trkpt>
      <trkpt lat="46.07411" lon="-0.33735">
        <ele>72.9</ele>
        <time>2013-03-10T09:39:50.000Z</time>
      </trkpt>
      <trkpt lat="46.07419" lon="-0.33729">
        <ele>73.2</ele>
        <time>2013-03-10T09:39:52.000Z</time>
      </trkpt>
      <trkpt lat="46.07427" lon="-0.33722">
        <ele>73.4</ele>
        <time>2013-03-10T09:39:54.000Z</time>
      </trkpt>
      <trkpt lat="46.07433" lon="-0.33716">
        <ele>73.3</ele>
        <time>2013-03-10T09:39:56.000Z</time>
      </trkpt>
      <trkpt lat="46.07437" lon="-0.33713">
        <ele>73.7</ele>
        <time>2013-03-10T09:39:57.000Z</time>
      </trkpt>
      <trkpt lat="46.07449" lon="-0.33704">
        <ele>74.1</ele>
        <time>2013-03-10T09:40:00.000Z</time>
      </trkpt>
      <trkpt lat="46.07456" lon="-0.33698">
        <ele>73.9</ele>
        <time>2013-03-10T09:40:02.000Z</time>
      </trkpt>
      <trkpt lat="46.0746" lon="-0.33695">
        <ele>73.8</ele>
        <time>2013-03-10T09:40:03.000Z</time>
      </trkpt>
      <trkpt lat="46.07468" lon="-0.33689">
        <ele>74</ele>
        <time>2013-03-10T09:40:05.000Z</time>
      </trkpt>
      <trkpt lat="46.07472" lon="-0.33686">
        <ele>74.3</ele>
        <time>2013-03-10T09:40:06.000Z</time>
      </trkpt>
      <trkpt lat="46.07476" lon="-0.33682">
        <ele>74.4</ele>
        <time>2013-03-10T09:40:07.000Z</time>
      </trkpt>
      <trkpt lat="46.07485" lon="-0.33678">
        <ele>74.8</ele>
        <time>2013-03-10T09:40:09.000Z</time>
      </trkpt>
      <trkpt lat="46.07492" lon="-0.33672">
        <ele>74.9</ele>
        <time>2013-03-10T09:40:11.000Z</time>
      </trkpt>
      <trkpt lat="46.07499" lon="-0.33665">
        <ele>74.8</ele>
        <time>2013-03-10T09:40:13.000Z</time>
      </trkpt>
      <trkpt lat="46.07505" lon="-0.33657">
        <ele>74.7</ele>
        <time>2013-03-10T09:40:15.000Z</time>
      </trkpt>
      <trkpt lat="46.07512" lon="-0.33651">
        <ele>74.4</ele>
        <time>2013-03-10T09:40:17.000Z</time>
      </trkpt>
      <trkpt lat="46.0752" lon="-0.33644">
        <ele>74.5</ele>
        <time>2013-03-10T09:40:19.000Z</time>
      </trkpt>
      <trkpt lat="46.07527" lon="-0.33638">
        <ele>74.6</ele>
        <time>2013-03-10T09:40:21.000Z</time>
      </trkpt>
      <trkpt lat="46.07532" lon="-0.33635">
        <ele>74.6</ele>
        <time>2013-03-10T09:40:22.000Z</time>
      </trkpt>
      <trkpt lat="46.07539" lon="-0.33628">
        <ele>74.7</ele>
        <time>2013-03-10T09:40:24.000Z</time>
      </trkpt>
      <trkpt lat="46.07546" lon="-0.33621">
        <ele>75.4</ele>
        <time>2013-03-10T09:40:26.000Z</time>
      </trkpt>
      <trkpt lat="46.0755" lon="-0.33618">
        <ele>75.6</ele>
        <time>2013-03-10T09:40:27.000Z</time>
      </trkpt>
      <trkpt lat="46.07554" lon="-0.33614">
        <ele>75.7</ele>
        <time>2013-03-10T09:40:28.000Z</time>
      </trkpt>
      <trkpt lat="46.07561" lon="-0.33607">
        <ele>75.7</ele>
        <time>2013-03-10T09:40:30.000Z</time>
      </trkpt>
      <trkpt lat="46.07568" lon="-0.33601">
        <ele>75.7</ele>
        <time>2013-03-10T09:40:32.000Z</time>
      </trkpt>
      <trkpt lat="46.07575" lon="-0.33594">
        <ele>75.8</ele>
        <time>2013-03-10T09:40:34.000Z</time>
      </trkpt>
      <trkpt lat="46.07581" lon="-0.33587">
        <ele>75.9</ele>
        <time>2013-03-10T09:40:36.000Z</time>
      </trkpt>
      <trkpt lat="46.07586" lon="-0.33581">
        <ele>75.5</ele>
        <time>2013-03-10T09:40:38.000Z</time>
      </trkpt>
      <trkpt lat="46.07592" lon="-0.33573">
        <ele>75.4</ele>
        <time>2013-03-10T09:40:40.000Z</time>
      </trkpt>
      <trkpt lat="46.07598" lon="-0.33566">
        <ele>75.5</ele>
        <time>2013-03-10T09:40:42.000Z</time>
      </trkpt>
      <trkpt lat="46.07604" lon="-0.33558">
        <ele>75.7</ele>
        <time>2013-03-10T09:40:44.000Z</time>
      </trkpt>
      <trkpt lat="46.0761" lon="-0.33549">
        <ele>75.8</ele>
        <time>2013-03-10T09:40:46.000Z</time>
      </trkpt>
      <trkpt lat="46.07616" lon="-0.3354">
        <ele>75.7</ele>
        <time>2013-03-10T09:40:48.000Z</time>
      </trkpt>
      <trkpt lat="46.07622" lon="-0.33532">
        <ele>75.8</ele>
        <time>2013-03-10T09:40:50.000Z</time>
      </trkpt>
      <trkpt lat="46.07628" lon="-0.33523">
        <ele>75.8</ele>
        <time>2013-03-10T09:40:52.000Z</time>
      </trkpt>
      <trkpt lat="46.07634" lon="-0.33516">
        <ele>75.7</ele>
        <time>2013-03-10T09:40:54.000Z</time>
      </trkpt>
      <trkpt lat="46.0764" lon="-0.33509">
        <ele>75.8</ele>
        <time>2013-03-10T09:40:56.000Z</time>
      </trkpt>
      <trkpt lat="46.07647" lon="-0.33502">
        <ele>75.9</ele>
        <time>2013-03-10T09:40:58.000Z</time>
      </trkpt>
      <trkpt lat="46.0765" lon="-0.33499">
        <ele>75.9</ele>
        <time>2013-03-10T09:40:59.000Z</time>
      </trkpt>
      <trkpt lat="46.07661" lon="-0.33488">
        <ele>76.2</ele>
        <time>2013-03-10T09:41:02.000Z</time>
      </trkpt>
      <trkpt lat="46.07668" lon="-0.33481">
        <ele>76.6</ele>
        <time>2013-03-10T09:41:04.000Z</time>
      </trkpt>
      <trkpt lat="46.07676" lon="-0.33474">
        <ele>76.7</ele>
        <time>2013-03-10T09:41:06.000Z</time>
      </trkpt>
      <trkpt lat="46.07683" lon="-0.33468">
        <ele>76.9</ele>
        <time>2013-03-10T09:41:08.000Z</time>
      </trkpt>
      <trkpt lat="46.0769" lon="-0.33461">
        <ele>77</ele>
        <time>2013-03-10T09:41:10.000Z</time>
      </trkpt>
      <trkpt lat="46.07697" lon="-0.33454">
        <ele>77</ele>
        <time>2013-03-10T09:41:12.000Z</time>
      </trkpt>
      <trkpt lat="46.07703" lon="-0.33445">
        <ele>77.2</ele>
        <time>2013-03-10T09:41:14.000Z</time>
      </trkpt>
      <trkpt lat="46.0771" lon="-0.33437">
        <ele>77.8</ele>
        <time>2013-03-10T09:41:16.000Z</time>
      </trkpt>
      <trkpt lat="46.07717" lon="-0.33431">
        <ele>77.9</ele>
        <time>2013-03-10T09:41:18.000Z</time>
      </trkpt>
      <trkpt lat="46.07725" lon="-0.33424">
        <ele>78</ele>
        <time>2013-03-10T09:41:20.000Z</time>
      </trkpt>
      <trkpt lat="46.07732" lon="-0.33418">
        <ele>78.3</ele>
        <time>2013-03-10T09:41:22.000Z</time>
      </trkpt>
      <trkpt lat="46.07739" lon="-0.33412">
        <ele>78.6</ele>
        <time>2013-03-10T09:41:24.000Z</time>
      </trkpt>
      <trkpt lat="46.07746" lon="-0.33406">
        <ele>78.5</ele>
        <time>2013-03-10T09:41:26.000Z</time>
      </trkpt>
      <trkpt lat="46.07754" lon="-0.33401">
        <ele>78.6</ele>
        <time>2013-03-10T09:41:28.000Z</time>
      </trkpt>
      <trkpt lat="46.07761" lon="-0.33394">
        <ele>79</ele>
        <time>2013-03-10T09:41:30.000Z</time>
      </trkpt>
      <trkpt lat="46.07769" lon="-0.33388">
        <ele>79.3</ele>
        <time>2013-03-10T09:41:32.000Z</time>
      </trkpt>
      <trkpt lat="46.07777" lon="-0.33382">
        <ele>79.6</ele>
        <time>2013-03-10T09:41:34.000Z</time>
      </trkpt>
      <trkpt lat="46.07784" lon="-0.33376">
        <ele>79.6</ele>
        <time>2013-03-10T09:41:36.000Z</time>
      </trkpt>
      <trkpt lat="46.07792" lon="-0.33369">
        <ele>79.4</ele>
        <time>2013-03-10T09:41:38.000Z</time>
      </trkpt>
      <trkpt lat="46.07798" lon="-0.33362">
        <ele>79.6</ele>
        <time>2013-03-10T09:41:40.000Z</time>
      </trkpt>
      <trkpt lat="46.07803" lon="-0.33356">
        <ele>79.5</ele>
        <time>2013-03-10T09:41:42.000Z</time>
      </trkpt>
      <trkpt lat="46.07808" lon="-0.3335">
        <ele>79.5</ele>
        <time>2013-03-10T09:41:44.000Z</time>
      </trkpt>
      <trkpt lat="46.07816" lon="-0.33354">
        <ele>79.3</ele>
        <time>2013-03-10T09:41:47.000Z</time>
      </trkpt>
      <trkpt lat="46.07821" lon="-0.33361">
        <ele>80.2</ele>
        <time>2013-03-10T09:41:51.000Z</time>
      </trkpt>
      <trkpt lat="46.07828" lon="-0.33365">
        <ele>81</ele>
        <time>2013-03-10T09:41:54.000Z</time>
      </trkpt>
      <trkpt lat="46.07832" lon="-0.33374">
        <ele>81.9</ele>
        <time>2013-03-10T09:41:58.000Z</time>
      </trkpt>
      <trkpt lat="46.0783" lon="-0.33386">
        <ele>83</ele>
        <time>2013-03-10T09:42:02.000Z</time>
      </trkpt>
      <trkpt lat="46.0783" lon="-0.3339">
        <ele>83.1</ele>
        <time>2013-03-10T09:42:03.000Z</time>
      </trkpt>
      <trkpt lat="46.07826" lon="-0.33407">
        <ele>83.7</ele>
        <time>2013-03-10T09:42:08.000Z</time>
      </trkpt>
      <trkpt lat="46.07825" lon="-0.33418">
        <ele>83.9</ele>
        <time>2013-03-10T09:42:11.000Z</time>
      </trkpt>
      <trkpt lat="46.07823" lon="-0.33428">
        <ele>84.3</ele>
        <time>2013-03-10T09:42:14.000Z</time>
      </trkpt>
      <trkpt lat="46.07821" lon="-0.33438">
        <ele>84.8</ele>
        <time>2013-03-10T09:42:17.000Z</time>
      </trkpt>
      <trkpt lat="46.07819" lon="-0.33449">
        <ele>85.5</ele>
        <time>2013-03-10T09:42:20.000Z</time>
      </trkpt>
      <trkpt lat="46.07816" lon="-0.3346">
        <ele>86.1</ele>
        <time>2013-03-10T09:42:23.000Z</time>
      </trkpt>
      <trkpt lat="46.07814" lon="-0.33472">
        <ele>85.7</ele>
        <time>2013-03-10T09:42:26.000Z</time>
      </trkpt>
      <trkpt lat="46.07811" lon="-0.33483">
        <ele>85.6</ele>
        <time>2013-03-10T09:42:29.000Z</time>
      </trkpt>
      <trkpt lat="46.07809" lon="-0.33492">
        <ele>85.7</ele>
        <time>2013-03-10T09:42:31.000Z</time>
      </trkpt>
      <trkpt lat="46.07807" lon="-0.335">
        <ele>85.9</ele>
        <time>2013-03-10T09:42:33.000Z</time>
      </trkpt>
      <trkpt lat="46.07805" lon="-0.33508">
        <ele>86</ele>
        <time>2013-03-10T09:42:35.000Z</time>
      </trkpt>
      <trkpt lat="46.07802" lon="-0.33521">
        <ele>86.8</ele>
        <time>2013-03-10T09:42:38.000Z</time>
      </trkpt>
      <trkpt lat="46.078" lon="-0.33533">
        <ele>86.7</ele>
        <time>2013-03-10T09:42:41.000Z</time>
      </trkpt>
      <trkpt lat="46.07798" lon="-0.33541">
        <ele>86.8</ele>
        <time>2013-03-10T09:42:43.000Z</time>
      </trkpt>
      <trkpt lat="46.07796" lon="-0.3355">
        <ele>87.1</ele>
        <time>2013-03-10T09:42:45.000Z</time>
      </trkpt>
      <trkpt lat="46.07794" lon="-0.33559">
        <ele>87.2</ele>
        <time>2013-03-10T09:42:47.000Z</time>
      </trkpt>
      <trkpt lat="46.07793" lon="-0.33568">
        <ele>87.2</ele>
        <time>2013-03-10T09:42:49.000Z</time>
      </trkpt>
      <trkpt lat="46.0779" lon="-0.33577">
        <ele>87.5</ele>
        <time>2013-03-10T09:42:51.000Z</time>
      </trkpt>
      <trkpt lat="46.07788" lon="-0.33586">
        <ele>87.5</ele>
        <time>2013-03-10T09:42:53.000Z</time>
      </trkpt>
      <trkpt lat="46.07786" lon="-0.33594">
        <ele>87.7</ele>
        <time>2013-03-10T09:42:55.000Z</time>
      </trkpt>
      <trkpt lat="46.07785" lon="-0.33603">
        <ele>88</ele>
        <time>2013-03-10T09:42:57.000Z</time>
      </trkpt>
      <trkpt lat="46.07783" lon="-0.33612">
        <ele>88.2</ele>
        <time>2013-03-10T09:42:59.000Z</time>
      </trkpt>
      <trkpt lat="46.07781" lon="-0.33621">
        <ele>88.8</ele>
        <time>2013-03-10T09:43:01.000Z</time>
      </trkpt>
      <trkpt lat="46.07779" lon="-0.3363">
        <ele>89.2</ele>
        <time>2013-03-10T09:43:03.000Z</time>
      </trkpt>
      <trkpt lat="46.07777" lon="-0.33639">
        <ele>88.9</ele>
        <time>2013-03-10T09:43:05.000Z</time>
      </trkpt>
      <trkpt lat="46.07776" lon="-0.33643">
        <ele>88.8</ele>
        <time>2013-03-10T09:43:06.000Z</time>
      </trkpt>
      <trkpt lat="46.07773" lon="-0.33657">
        <ele>89.3</ele>
        <time>2013-03-10T09:43:09.000Z</time>
      </trkpt>
      <trkpt lat="46.07771" lon="-0.33666">
        <ele>89.7</ele>
        <time>2013-03-10T09:43:11.000Z</time>
      </trkpt>
      <trkpt lat="46.07769" lon="-0.33676">
        <ele>89.7</ele>
        <time>2013-03-10T09:43:13.000Z</time>
      </trkpt>
      <trkpt lat="46.07767" lon="-0.33686">
        <ele>89.9</ele>
        <time>2013-03-10T09:43:15.000Z</time>
      </trkpt>
      <trkpt lat="46.07764" lon="-0.33696">
        <ele>90.7</ele>
        <time>2013-03-10T09:43:17.000Z</time>
      </trkpt>
      <trkpt lat="46.07762" lon="-0.33706">
        <ele>90.8</ele>
        <time>2013-03-10T09:43:19.000Z</time>
      </trkpt>
      <trkpt lat="46.07759" lon="-0.33716">
        <ele>90.7</ele>
        <time>2013-03-10T09:43:21.000Z</time>
      </trkpt>
      <trkpt lat="46.07757" lon="-0.33725">
        <ele>90.7</ele>
        <time>2013-03-10T09:43:23.000Z</time>
      </trkpt>
      <trkpt lat="46.07754" lon="-0.33736">
        <ele>90.9</ele>
        <time>2013-03-10T09:43:25.000Z</time>
      </trkpt>
      <trkpt lat="46.07752" lon="-0.33745">
        <ele>91.4</ele>
        <time>2013-03-10T09:43:27.000Z</time>
      </trkpt>
      <trkpt lat="46.0775" lon="-0.33755">
        <ele>91.1</ele>
        <time>2013-03-10T09:43:29.000Z</time>
      </trkpt>
      <trkpt lat="46.07748" lon="-0.33765">
        <ele>91.6</ele>
        <time>2013-03-10T09:43:31.000Z</time>
      </trkpt>
      <trkpt lat="46.07746" lon="-0.33775">
        <ele>91.7</ele>
        <time>2013-03-10T09:43:33.000Z</time>
      </trkpt>
      <trkpt lat="46.07743" lon="-0.33785">
        <ele>91.5</ele>
        <time>2013-03-10T09:43:35.000Z</time>
      </trkpt>
      <trkpt lat="46.07741" lon="-0.33795">
        <ele>91.5</ele>
        <time>2013-03-10T09:43:37.000Z</time>
      </trkpt>
      <trkpt lat="46.07739" lon="-0.33805">
        <ele>91.5</ele>
        <time>2013-03-10T09:43:39.000Z</time>
      </trkpt>
      <trkpt lat="46.07738" lon="-0.33814">
        <ele>91.5</ele>
        <time>2013-03-10T09:43:41.000Z</time>
      </trkpt>
      <trkpt lat="46.07736" lon="-0.33824">
        <ele>91.6</ele>
        <time>2013-03-10T09:43:43.000Z</time>
      </trkpt>
      <trkpt lat="46.07734" lon="-0.33834">
        <ele>91.8</ele>
        <time>2013-03-10T09:43:45.000Z</time>
      </trkpt>
      <trkpt lat="46.07732" lon="-0.33844">
        <ele>92</ele>
        <time>2013-03-10T09:43:47.000Z</time>
      </trkpt>
      <trkpt lat="46.0773" lon="-0.33854">
        <ele>92.2</ele>
        <time>2013-03-10T09:43:49.000Z</time>
      </trkpt>
      <trkpt lat="46.07727" lon="-0.33865">
        <ele>92.3</ele>
        <time>2013-03-10T09:43:51.000Z</time>
      </trkpt>
      <trkpt lat="46.07724" lon="-0.33875">
        <ele>92.3</ele>
        <time>2013-03-10T09:43:53.000Z</time>
      </trkpt>
      <trkpt lat="46.07722" lon="-0.33885">
        <ele>91.9</ele>
        <time>2013-03-10T09:43:55.000Z</time>
      </trkpt>
      <trkpt lat="46.07719" lon="-0.33896">
        <ele>92.2</ele>
        <time>2013-03-10T09:43:57.000Z</time>
      </trkpt>
      <trkpt lat="46.07716" lon="-0.33906">
        <ele>92.2</ele>
        <time>2013-03-10T09:43:59.000Z</time>
      </trkpt>
      <trkpt lat="46.07714" lon="-0.33917">
        <ele>92.3</ele>
        <time>2013-03-10T09:44:01.000Z</time>
      </trkpt>
      <trkpt lat="46.07711" lon="-0.33927">
        <ele>92.5</ele>
        <time>2013-03-10T09:44:03.000Z</time>
      </trkpt>
      <trkpt lat="46.07709" lon="-0.33937">
        <ele>92.5</ele>
        <time>2013-03-10T09:44:05.000Z</time>
      </trkpt>
      <trkpt lat="46.07707" lon="-0.33948">
        <ele>93.1</ele>
        <time>2013-03-10T09:44:07.000Z</time>
      </trkpt>
      <trkpt lat="46.07705" lon="-0.33953">
        <ele>93.2</ele>
        <time>2013-03-10T09:44:08.000Z</time>
      </trkpt>
      <trkpt lat="46.07702" lon="-0.33968">
        <ele>92.9</ele>
        <time>2013-03-10T09:44:11.000Z</time>
      </trkpt>
      <trkpt lat="46.077" lon="-0.33977">
        <ele>92.7</ele>
        <time>2013-03-10T09:44:13.000Z</time>
      </trkpt>
      <trkpt lat="46.07697" lon="-0.33987">
        <ele>93</ele>
        <time>2013-03-10T09:44:15.000Z</time>
      </trkpt>
      <trkpt lat="46.07695" lon="-0.33997">
        <ele>93.3</ele>
        <time>2013-03-10T09:44:17.000Z</time>
      </trkpt>
      <trkpt lat="46.07692" lon="-0.34006">
        <ele>93.4</ele>
        <time>2013-03-10T09:44:19.000Z</time>
      </trkpt>
      <trkpt lat="46.07689" lon="-0.34018">
        <ele>93.1</ele>
        <time>2013-03-10T09:44:24.000Z</time>
      </trkpt>
      <trkpt lat="46.07687" lon="-0.34028">
        <ele>93.8</ele>
        <time>2013-03-10T09:44:30.000Z</time>
      </trkpt>
      <trkpt lat="46.07684" lon="-0.34038">
        <ele>93.4</ele>
        <time>2013-03-10T09:44:33.000Z</time>
      </trkpt>
      <trkpt lat="46.07682" lon="-0.34046">
        <ele>93.2</ele>
        <time>2013-03-10T09:44:35.000Z</time>
      </trkpt>
      <trkpt lat="46.0768" lon="-0.34055">
        <ele>93.4</ele>
        <time>2013-03-10T09:44:37.000Z</time>
      </trkpt>
      <trkpt lat="46.07678" lon="-0.34064">
        <ele>93.6</ele>
        <time>2013-03-10T09:44:39.000Z</time>
      </trkpt>
      <trkpt lat="46.07676" lon="-0.34073">
        <ele>93.6</ele>
        <time>2013-03-10T09:44:41.000Z</time>
      </trkpt>
      <trkpt lat="46.07674" lon="-0.34082">
        <ele>93.4</ele>
        <time>2013-03-10T09:44:43.000Z</time>
      </trkpt>
      <trkpt lat="46.07672" lon="-0.34092">
        <ele>93.3</ele>
        <time>2013-03-10T09:44:45.000Z</time>
      </trkpt>
      <trkpt lat="46.0767" lon="-0.34102">
        <ele>93.8</ele>
        <time>2013-03-10T09:44:47.000Z</time>
      </trkpt>
      <trkpt lat="46.07668" lon="-0.34112">
        <ele>94.1</ele>
        <time>2013-03-10T09:44:49.000Z</time>
      </trkpt>
      <trkpt lat="46.07665" lon="-0.34122">
        <ele>94.2</ele>
        <time>2013-03-10T09:44:51.000Z</time>
      </trkpt>
      <trkpt lat="46.07662" lon="-0.34133">
        <ele>94</ele>
        <time>2013-03-10T09:44:53.000Z</time>
      </trkpt>
      <trkpt lat="46.07659" lon="-0.34145">
        <ele>93.9</ele>
        <time>2013-03-10T09:44:55.000Z</time>
      </trkpt>
      <trkpt lat="46.07657" lon="-0.34151">
        <ele>93.9</ele>
        <time>2013-03-10T09:44:56.000Z</time>
      </trkpt>
      <trkpt lat="46.07656" lon="-0.34158">
        <ele>93.9</ele>
        <time>2013-03-10T09:44:57.000Z</time>
      </trkpt>
      <trkpt lat="46.07654" lon="-0.34164">
        <ele>94</ele>
        <time>2013-03-10T09:44:58.000Z</time>
      </trkpt>
      <trkpt lat="46.07652" lon="-0.34171">
        <ele>94</ele>
        <time>2013-03-10T09:44:59.000Z</time>
      </trkpt>
      <trkpt lat="46.07651" lon="-0.34178">
        <ele>94</ele>
        <time>2013-03-10T09:45:00.000Z</time>
      </trkpt>
      <trkpt lat="46.07649" lon="-0.34185">
        <ele>94</ele>
        <time>2013-03-10T09:45:01.000Z</time>
      </trkpt>
      <trkpt lat="46.07648" lon="-0.34193">
        <ele>94</ele>
        <time>2013-03-10T09:45:02.000Z</time>
      </trkpt>
      <trkpt lat="46.07646" lon="-0.342">
        <ele>94.1</ele>
        <time>2013-03-10T09:45:03.000Z</time>
      </trkpt>
      <trkpt lat="46.07644" lon="-0.34207">
        <ele>94.2</ele>
        <time>2013-03-10T09:45:04.000Z</time>
      </trkpt>
      <trkpt lat="46.07642" lon="-0.34214">
        <ele>94.3</ele>
        <time>2013-03-10T09:45:05.000Z</time>
      </trkpt>
      <trkpt lat="46.07641" lon="-0.3422">
        <ele>94.3</ele>
        <time>2013-03-10T09:45:06.000Z</time>
      </trkpt>
      <trkpt lat="46.07639" lon="-0.34227">
        <ele>94.4</ele>
        <time>2013-03-10T09:45:07.000Z</time>
      </trkpt>
      <trkpt lat="46.07638" lon="-0.34233">
        <ele>94.6</ele>
        <time>2013-03-10T09:45:08.000Z</time>
      </trkpt>
      <trkpt lat="46.07636" lon="-0.3424">
        <ele>94.7</ele>
        <time>2013-03-10T09:45:09.000Z</time>
      </trkpt>
      <trkpt lat="46.07634" lon="-0.34246">
        <ele>94.5</ele>
        <time>2013-03-10T09:45:10.000Z</time>
      </trkpt>
      <trkpt lat="46.07633" lon="-0.34253">
        <ele>94.4</ele>
        <time>2013-03-10T09:45:11.000Z</time>
      </trkpt>
      <trkpt lat="46.07631" lon="-0.34259">
        <ele>94.6</ele>
        <time>2013-03-10T09:45:12.000Z</time>
      </trkpt>
      <trkpt lat="46.0763" lon="-0.34266">
        <ele>94.7</ele>
        <time>2013-03-10T09:45:13.000Z</time>
      </trkpt>
      <trkpt lat="46.07628" lon="-0.34273">
        <ele>94.8</ele>
        <time>2013-03-10T09:45:14.000Z</time>
      </trkpt>
      <trkpt lat="46.07627" lon="-0.34279">
        <ele>94.7</ele>
        <time>2013-03-10T09:45:15.000Z</time>
      </trkpt>
      <trkpt lat="46.07625" lon="-0.34286">
        <ele>94.6</ele>
        <time>2013-03-10T09:45:16.000Z</time>
      </trkpt>
      <trkpt lat="46.07624" lon="-0.34293">
        <ele>94.3</ele>
        <time>2013-03-10T09:45:17.000Z</time>
      </trkpt>
      <trkpt lat="46.07622" lon="-0.343">
        <ele>94.1</ele>
        <time>2013-03-10T09:45:18.000Z</time>
      </trkpt>
      <trkpt lat="46.0762" lon="-0.34307">
        <ele>93.9</ele>
        <time>2013-03-10T09:45:19.000Z</time>
      </trkpt>
      <trkpt lat="46.07619" lon="-0.34314">
        <ele>93.9</ele>
        <time>2013-03-10T09:45:20.000Z</time>
      </trkpt>
      <trkpt lat="46.07617" lon="-0.34321">
        <ele>93.9</ele>
        <time>2013-03-10T09:45:21.000Z</time>
      </trkpt>
      <trkpt lat="46.07616" lon="-0.34328">
        <ele>93.6</ele>
        <time>2013-03-10T09:45:22.000Z</time>
      </trkpt>
      <trkpt lat="46.07614" lon="-0.34334">
        <ele>93.3</ele>
        <time>2013-03-10T09:45:23.000Z</time>
      </trkpt>
      <trkpt lat="46.07612" lon="-0.34341">
        <ele>93.7</ele>
        <time>2013-03-10T09:45:24.000Z</time>
      </trkpt>
      <trkpt lat="46.07611" lon="-0.34348">
        <ele>94</ele>
        <time>2013-03-10T09:45:25.000Z</time>
      </trkpt>
      <trkpt lat="46.07609" lon="-0.34355">
        <ele>94.2</ele>
        <time>2013-03-10T09:45:26.000Z</time>
      </trkpt>
      <trkpt lat="46.07607" lon="-0.34362">
        <ele>94.2</ele>
        <time>2013-03-10T09:45:27.000Z</time>
      </trkpt>
      <trkpt lat="46.07606" lon="-0.34369">
        <ele>94.2</ele>
        <time>2013-03-10T09:45:28.000Z</time>
      </trkpt>
      <trkpt lat="46.07604" lon="-0.34377">
        <ele>94</ele>
        <time>2013-03-10T09:45:29.000Z</time>
      </trkpt>
      <trkpt lat="46.07602" lon="-0.34384">
        <ele>93.8</ele>
        <time>2013-03-10T09:45:30.000Z</time>
      </trkpt>
      <trkpt lat="46.076" lon="-0.34391">
        <ele>93.9</ele>
        <time>2013-03-10T09:45:31.000Z</time>
      </trkpt>
      <trkpt lat="46.07598" lon="-0.34399">
        <ele>93.9</ele>
        <time>2013-03-10T09:45:32.000Z</time>
      </trkpt>
      <trkpt lat="46.07596" lon="-0.34406">
        <ele>94</ele>
        <time>2013-03-10T09:45:33.000Z</time>
      </trkpt>
      <trkpt lat="46.07595" lon="-0.34413">
        <ele>94.2</ele>
        <time>2013-03-10T09:45:34.000Z</time>
      </trkpt>
      <trkpt lat="46.07593" lon="-0.3442">
        <ele>94.3</ele>
        <time>2013-03-10T09:45:35.000Z</time>
      </trkpt>
      <trkpt lat="46.07591" lon="-0.34427">
        <ele>94.5</ele>
        <time>2013-03-10T09:45:36.000Z</time>
      </trkpt>
      <trkpt lat="46.07589" lon="-0.34435">
        <ele>94.6</ele>
        <time>2013-03-10T09:45:37.000Z</time>
      </trkpt>
      <trkpt lat="46.07588" lon="-0.34442">
        <ele>94.7</ele>
        <time>2013-03-10T09:45:38.000Z</time>
      </trkpt>
      <trkpt lat="46.07585" lon="-0.3445">
        <ele>94.8</ele>
        <time>2013-03-10T09:45:39.000Z</time>
      </trkpt>
      <trkpt lat="46.07583" lon="-0.34458">
        <ele>94.8</ele>
        <time>2013-03-10T09:45:40.000Z</time>
      </trkpt>
      <trkpt lat="46.07582" lon="-0.34465">
        <ele>94.5</ele>
        <time>2013-03-10T09:45:41.000Z</time>
      </trkpt>
      <trkpt lat="46.0758" lon="-0.34473">
        <ele>94.3</ele>
        <time>2013-03-10T09:45:42.000Z</time>
      </trkpt>
      <trkpt lat="46.07578" lon="-0.34481">
        <ele>93.9</ele>
        <time>2013-03-10T09:45:43.000Z</time>
      </trkpt>
      <trkpt lat="46.07576" lon="-0.34489">
        <ele>93.5</ele>
        <time>2013-03-10T09:45:44.000Z</time>
      </trkpt>
      <trkpt lat="46.07574" lon="-0.34497">
        <ele>93.3</ele>
        <time>2013-03-10T09:45:45.000Z</time>
      </trkpt>
      <trkpt lat="46.07572" lon="-0.34504">
        <ele>93.6</ele>
        <time>2013-03-10T09:45:46.000Z</time>
      </trkpt>
      <trkpt lat="46.07571" lon="-0.34512">
        <ele>93.9</ele>
        <time>2013-03-10T09:45:47.000Z</time>
      </trkpt>
      <trkpt lat="46.07569" lon="-0.34519">
        <ele>93.9</ele>
        <time>2013-03-10T09:45:48.000Z</time>
      </trkpt>
      <trkpt lat="46.07567" lon="-0.34527">
        <ele>94</ele>
        <time>2013-03-10T09:45:49.000Z</time>
      </trkpt>
      <trkpt lat="46.07565" lon="-0.34535">
        <ele>93.8</ele>
        <time>2013-03-10T09:45:50.000Z</time>
      </trkpt>
      <trkpt lat="46.07564" lon="-0.34542">
        <ele>93.7</ele>
        <time>2013-03-10T09:45:51.000Z</time>
      </trkpt>
      <trkpt lat="46.07562" lon="-0.3455">
        <ele>93.6</ele>
        <time>2013-03-10T09:45:52.000Z</time>
      </trkpt>
      <trkpt lat="46.0756" lon="-0.34558">
        <ele>93.4</ele>
        <time>2013-03-10T09:45:53.000Z</time>
      </trkpt>
      <trkpt lat="46.07558" lon="-0.34566">
        <ele>93.4</ele>
        <time>2013-03-10T09:45:54.000Z</time>
      </trkpt>
      <trkpt lat="46.07556" lon="-0.34573">
        <ele>93.6</ele>
        <time>2013-03-10T09:45:55.000Z</time>
      </trkpt>
      <trkpt lat="46.07554" lon="-0.34581">
        <ele>93.8</ele>
        <time>2013-03-10T09:45:56.000Z</time>
      </trkpt>
      <trkpt lat="46.07552" lon="-0.34589">
        <ele>94</ele>
        <time>2013-03-10T09:45:57.000Z</time>
      </trkpt>
      <trkpt lat="46.07551" lon="-0.34597">
        <ele>93.9</ele>
        <time>2013-03-10T09:45:58.000Z</time>
      </trkpt>
      <trkpt lat="46.07549" lon="-0.34604">
        <ele>93.9</ele>
        <time>2013-03-10T09:45:59.000Z</time>
      </trkpt>
      <trkpt lat="46.07547" lon="-0.34612">
        <ele>93.8</ele>
        <time>2013-03-10T09:46:00.000Z</time>
      </trkpt>
      <trkpt lat="46.07545" lon="-0.3462">
        <ele>93.8</ele>
        <time>2013-03-10T09:46:01.000Z</time>
      </trkpt>
      <trkpt lat="46.07543" lon="-0.34627">
        <ele>93.3</ele>
        <time>2013-03-10T09:46:02.000Z</time>
      </trkpt>
      <trkpt lat="46.07542" lon="-0.34635">
        <ele>92.9</ele>
        <time>2013-03-10T09:46:03.000Z</time>
      </trkpt>
      <trkpt lat="46.0754" lon="-0.34643">
        <ele>92.7</ele>
        <time>2013-03-10T09:46:04.000Z</time>
      </trkpt>
      <trkpt lat="46.07539" lon="-0.34651">
        <ele>92.8</ele>
        <time>2013-03-10T09:46:05.000Z</time>
      </trkpt>
      <trkpt lat="46.07537" lon="-0.34659">
        <ele>93</ele>
        <time>2013-03-10T09:46:06.000Z</time>
      </trkpt>
      <trkpt lat="46.07535" lon="-0.34667">
        <ele>93</ele>
        <time>2013-03-10T09:46:07.000Z</time>
      </trkpt>
      <trkpt lat="46.07533" lon="-0.34674">
        <ele>93</ele>
        <time>2013-03-10T09:46:08.000Z</time>
      </trkpt>
      <trkpt lat="46.07531" lon="-0.34682">
        <ele>92.7</ele>
        <time>2013-03-10T09:46:09.000Z</time>
      </trkpt>
      <trkpt lat="46.07529" lon="-0.34689">
        <ele>92.5</ele>
        <time>2013-03-10T09:46:10.000Z</time>
      </trkpt>
      <trkpt lat="46.07527" lon="-0.34696">
        <ele>92.4</ele>
        <time>2013-03-10T09:46:11.000Z</time>
      </trkpt>
      <trkpt lat="46.07525" lon="-0.34704">
        <ele>91.9</ele>
        <time>2013-03-10T09:46:12.000Z</time>
      </trkpt>
      <trkpt lat="46.07523" lon="-0.34711">
        <ele>91.5</ele>
        <time>2013-03-10T09:46:13.000Z</time>
      </trkpt>
      <trkpt lat="46.07522" lon="-0.34718">
        <ele>91.6</ele>
        <time>2013-03-10T09:46:14.000Z</time>
      </trkpt>
      <trkpt lat="46.0752" lon="-0.34726">
        <ele>91.7</ele>
        <time>2013-03-10T09:46:15.000Z</time>
      </trkpt>
      <trkpt lat="46.07518" lon="-0.34733">
        <ele>91.5</ele>
        <time>2013-03-10T09:46:16.000Z</time>
      </trkpt>
      <trkpt lat="46.07516" lon="-0.34744">
        <ele>91.1</ele>
        <time>2013-03-10T09:46:18.000Z</time>
      </trkpt>
      <trkpt lat="46.07522" lon="-0.34752">
        <ele>89.8</ele>
        <time>2013-03-10T09:46:22.000Z</time>
      </trkpt>
      <trkpt lat="46.07528" lon="-0.34755">
        <ele>89.5</ele>
        <time>2013-03-10T09:46:24.000Z</time>
      </trkpt>
      <trkpt lat="46.07536" lon="-0.34757">
        <ele>89.6</ele>
        <time>2013-03-10T09:46:26.000Z</time>
      </trkpt>
      <trkpt lat="46.07543" lon="-0.3476">
        <ele>89.7</ele>
        <time>2013-03-10T09:46:28.000Z</time>
      </trkpt>
      <trkpt lat="46.07551" lon="-0.34765">
        <ele>89.7</ele>
        <time>2013-03-10T09:46:30.000Z</time>
      </trkpt>
      <trkpt lat="46.07556" lon="-0.34766">
        <ele>89.4</ele>
        <time>2013-03-10T09:46:31.000Z</time>
      </trkpt>
      <trkpt lat="46.07561" lon="-0.34766">
        <ele>89.1</ele>
        <time>2013-03-10T09:46:32.000Z</time>
      </trkpt>
      <trkpt lat="46.07565" lon="-0.34769">
        <ele>89.2</ele>
        <time>2013-03-10T09:46:33.000Z</time>
      </trkpt>
      <trkpt lat="46.0757" lon="-0.34772">
        <ele>89.2</ele>
        <time>2013-03-10T09:46:34.000Z</time>
      </trkpt>
      <trkpt lat="46.07575" lon="-0.34775">
        <ele>89.2</ele>
        <time>2013-03-10T09:46:35.000Z</time>
      </trkpt>
      <trkpt lat="46.07579" lon="-0.34777">
        <ele>89</ele>
        <time>2013-03-10T09:46:36.000Z</time>
      </trkpt>
      <trkpt lat="46.07584" lon="-0.34779">
        <ele>88.9</ele>
        <time>2013-03-10T09:46:37.000Z</time>
      </trkpt>
      <trkpt lat="46.07589" lon="-0.34781">
        <ele>88.6</ele>
        <time>2013-03-10T09:46:38.000Z</time>
      </trkpt>
      <trkpt lat="46.07594" lon="-0.34782">
        <ele>88.4</ele>
        <time>2013-03-10T09:46:39.000Z</time>
      </trkpt>
      <trkpt lat="46.07599" lon="-0.34784">
        <ele>88.5</ele>
        <time>2013-03-10T09:46:40.000Z</time>
      </trkpt>
      <trkpt lat="46.07605" lon="-0.34787">
        <ele>88.5</ele>
        <time>2013-03-10T09:46:41.000Z</time>
      </trkpt>
      <trkpt lat="46.0761" lon="-0.34791">
        <ele>88.5</ele>
        <time>2013-03-10T09:46:42.000Z</time>
      </trkpt>
      <trkpt lat="46.07615" lon="-0.34795">
        <ele>88.3</ele>
        <time>2013-03-10T09:46:43.000Z</time>
      </trkpt>
      <trkpt lat="46.0762" lon="-0.34797">
        <ele>88.2</ele>
        <time>2013-03-10T09:46:44.000Z</time>
      </trkpt>
      <trkpt lat="46.07625" lon="-0.34799">
        <ele>88.1</ele>
        <time>2013-03-10T09:46:45.000Z</time>
      </trkpt>
      <trkpt lat="46.07631" lon="-0.34802">
        <ele>88.1</ele>
        <time>2013-03-10T09:46:46.000Z</time>
      </trkpt>
      <trkpt lat="46.07636" lon="-0.34804">
        <ele>88</ele>
        <time>2013-03-10T09:46:47.000Z</time>
      </trkpt>
      <trkpt lat="46.07642" lon="-0.34807">
        <ele>88</ele>
        <time>2013-03-10T09:46:48.000Z</time>
      </trkpt>
      <trkpt lat="46.07647" lon="-0.34809">
        <ele>88</ele>
        <time>2013-03-10T09:46:49.000Z</time>
      </trkpt>
      <trkpt lat="46.07653" lon="-0.34811">
        <ele>87.5</ele>
        <time>2013-03-10T09:46:50.000Z</time>
      </trkpt>
      <trkpt lat="46.07659" lon="-0.34813">
        <ele>87.2</ele>
        <time>2013-03-10T09:46:51.000Z</time>
      </trkpt>
      <trkpt lat="46.07664" lon="-0.34815">
        <ele>87.2</ele>
        <time>2013-03-10T09:46:52.000Z</time>
      </trkpt>
      <trkpt lat="46.07671" lon="-0.34818">
        <ele>87.2</ele>
        <time>2013-03-10T09:46:53.000Z</time>
      </trkpt>
      <trkpt lat="46.07677" lon="-0.34821">
        <ele>87.2</ele>
        <time>2013-03-10T09:46:54.000Z</time>
      </trkpt>
      <trkpt lat="46.07683" lon="-0.34825">
        <ele>86.9</ele>
        <time>2013-03-10T09:46:55.000Z</time>
      </trkpt>
      <trkpt lat="46.07689" lon="-0.34828">
        <ele>86.7</ele>
        <time>2013-03-10T09:46:56.000Z</time>
      </trkpt>
      <trkpt lat="46.07695" lon="-0.34832">
        <ele>86.5</ele>
        <time>2013-03-10T09:46:57.000Z</time>
      </trkpt>
      <trkpt lat="46.07701" lon="-0.34835">
        <ele>86.4</ele>
        <time>2013-03-10T09:46:58.000Z</time>
      </trkpt>
      <trkpt lat="46.07707" lon="-0.34838">
        <ele>85.5</ele>
        <time>2013-03-10T09:46:59.000Z</time>
      </trkpt>
      <trkpt lat="46.07713" lon="-0.34841">
        <ele>84.8</ele>
        <time>2013-03-10T09:47:00.000Z</time>
      </trkpt>
      <trkpt lat="46.07719" lon="-0.34844">
        <ele>84.3</ele>
        <time>2013-03-10T09:47:01.000Z</time>
      </trkpt>
      <trkpt lat="46.07726" lon="-0.34847">
        <ele>84.2</ele>
        <time>2013-03-10T09:47:02.000Z</time>
      </trkpt>
      <trkpt lat="46.07733" lon="-0.34851">
        <ele>84.2</ele>
        <time>2013-03-10T09:47:03.000Z</time>
      </trkpt>
      <trkpt lat="46.07739" lon="-0.34855">
        <ele>83.7</ele>
        <time>2013-03-10T09:47:04.000Z</time>
      </trkpt>
      <trkpt lat="46.07746" lon="-0.34858">
        <ele>83.3</ele>
        <time>2013-03-10T09:47:05.000Z</time>
      </trkpt>
      <trkpt lat="46.07753" lon="-0.34859">
        <ele>83</ele>
        <time>2013-03-10T09:47:06.000Z</time>
      </trkpt>
      <trkpt lat="46.0776" lon="-0.34861">
        <ele>82.8</ele>
        <time>2013-03-10T09:47:07.000Z</time>
      </trkpt>
      <trkpt lat="46.07767" lon="-0.34864">
        <ele>82.7</ele>
        <time>2013-03-10T09:47:08.000Z</time>
      </trkpt>
      <trkpt lat="46.07772" lon="-0.34867">
        <ele>82.2</ele>
        <time>2013-03-10T09:47:09.000Z</time>
      </trkpt>
      <trkpt lat="46.07777" lon="-0.34871">
        <ele>81.8</ele>
        <time>2013-03-10T09:47:10.000Z</time>
      </trkpt>
      <trkpt lat="46.07782" lon="-0.34874">
        <ele>81.6</ele>
        <time>2013-03-10T09:47:11.000Z</time>
      </trkpt>
      <trkpt lat="46.07787" lon="-0.34877">
        <ele>81.4</ele>
        <time>2013-03-10T09:47:12.000Z</time>
      </trkpt>
      <trkpt lat="46.07794" lon="-0.34882">
        <ele>82</ele>
        <time>2013-03-10T09:47:14.000Z</time>
      </trkpt>
      <trkpt lat="46.07798" lon="-0.34885">
        <ele>82.2</ele>
        <time>2013-03-10T09:47:15.000Z</time>
      </trkpt>
      <trkpt lat="46.07809" lon="-0.34891">
        <ele>83.1</ele>
        <time>2013-03-10T09:47:18.000Z</time>
      </trkpt>
      <trkpt lat="46.07816" lon="-0.34895">
        <ele>83.8</ele>
        <time>2013-03-10T09:47:20.000Z</time>
      </trkpt>
      <trkpt lat="46.07822" lon="-0.34898">
        <ele>83.8</ele>
        <time>2013-03-10T09:47:22.000Z</time>
      </trkpt>
      <trkpt lat="46.07829" lon="-0.34902">
        <ele>84.2</ele>
        <time>2013-03-10T09:47:24.000Z</time>
      </trkpt>
      <trkpt lat="46.07836" lon="-0.34906">
        <ele>84.4</ele>
        <time>2013-03-10T09:47:26.000Z</time>
      </trkpt>
      <trkpt lat="46.07843" lon="-0.3491">
        <ele>84.9</ele>
        <time>2013-03-10T09:47:28.000Z</time>
      </trkpt>
      <trkpt lat="46.07849" lon="-0.34913">
        <ele>85</ele>
        <time>2013-03-10T09:47:30.000Z</time>
      </trkpt>
      <trkpt lat="46.07856" lon="-0.34917">
        <ele>85</ele>
        <time>2013-03-10T09:47:32.000Z</time>
      </trkpt>
      <trkpt lat="46.07863" lon="-0.34916">
        <ele>85.1</ele>
        <time>2013-03-10T09:47:34.000Z</time>
      </trkpt>
      <trkpt lat="46.07868" lon="-0.34907">
        <ele>85.6</ele>
        <time>2013-03-10T09:47:37.000Z</time>
      </trkpt>
      <trkpt lat="46.07872" lon="-0.34899">
        <ele>86.2</ele>
        <time>2013-03-10T09:47:39.000Z</time>
      </trkpt>
      <trkpt lat="46.07875" lon="-0.34891">
        <ele>86.4</ele>
        <time>2013-03-10T09:47:41.000Z</time>
      </trkpt>
      <trkpt lat="46.07878" lon="-0.34882">
        <ele>86.6</ele>
        <time>2013-03-10T09:47:43.000Z</time>
      </trkpt>
      <trkpt lat="46.07881" lon="-0.34872">
        <ele>86.4</ele>
        <time>2013-03-10T09:47:45.000Z</time>
      </trkpt>
      <trkpt lat="46.07885" lon="-0.34862">
        <ele>86.5</ele>
        <time>2013-03-10T09:47:47.000Z</time>
      </trkpt>
      <trkpt lat="46.07888" lon="-0.34851">
        <ele>86.8</ele>
        <time>2013-03-10T09:47:49.000Z</time>
      </trkpt>
      <trkpt lat="46.07892" lon="-0.3484">
        <ele>87</ele>
        <time>2013-03-10T09:47:51.000Z</time>
      </trkpt>
      <trkpt lat="46.07895" lon="-0.34829">
        <ele>86.9</ele>
        <time>2013-03-10T09:47:53.000Z</time>
      </trkpt>
      <trkpt lat="46.07898" lon="-0.34817">
        <ele>86.8</ele>
        <time>2013-03-10T09:47:55.000Z</time>
      </trkpt>
      <trkpt lat="46.07902" lon="-0.34806">
        <ele>86.4</ele>
        <time>2013-03-10T09:47:57.000Z</time>
      </trkpt>
      <trkpt lat="46.07908" lon="-0.34801">
        <ele>86.4</ele>
        <time>2013-03-10T09:48:00.000Z</time>
      </trkpt>
      <trkpt lat="46.07916" lon="-0.348">
        <ele>86.2</ele>
        <time>2013-03-10T09:48:03.000Z</time>
      </trkpt>
      <trkpt lat="46.07924" lon="-0.34797">
        <ele>85.9</ele>
        <time>2013-03-10T09:48:06.000Z</time>
      </trkpt>
      <trkpt lat="46.07932" lon="-0.34794">
        <ele>86.1</ele>
        <time>2013-03-10T09:48:09.000Z</time>
      </trkpt>
      <trkpt lat="46.0794" lon="-0.34792">
        <ele>86.6</ele>
        <time>2013-03-10T09:48:12.000Z</time>
      </trkpt>
      <trkpt lat="46.07948" lon="-0.34789">
        <ele>86.9</ele>
        <time>2013-03-10T09:48:15.000Z</time>
      </trkpt>
      <trkpt lat="46.07955" lon="-0.34785">
        <ele>86.7</ele>
        <time>2013-03-10T09:48:18.000Z</time>
      </trkpt>
      <trkpt lat="46.07958" lon="-0.34785">
        <ele>86.7</ele>
        <time>2013-03-10T09:48:19.000Z</time>
      </trkpt>
      <trkpt lat="46.07971" lon="-0.34779">
        <ele>87.5</ele>
        <time>2013-03-10T09:48:24.000Z</time>
      </trkpt>
      <trkpt lat="46.07978" lon="-0.34777">
        <ele>87.8</ele>
        <time>2013-03-10T09:48:27.000Z</time>
      </trkpt>
      <trkpt lat="46.07986" lon="-0.34774">
        <ele>87.9</ele>
        <time>2013-03-10T09:48:30.000Z</time>
      </trkpt>
      <trkpt lat="46.07993" lon="-0.34771">
        <ele>88.4</ele>
        <time>2013-03-10T09:48:33.000Z</time>
      </trkpt>
      <trkpt lat="46.08001" lon="-0.34769">
        <ele>87.7</ele>
        <time>2013-03-10T09:48:36.000Z</time>
      </trkpt>
      <trkpt lat="46.08009" lon="-0.34767">
        <ele>87.9</ele>
        <time>2013-03-10T09:48:39.000Z</time>
      </trkpt>
      <trkpt lat="46.08017" lon="-0.34764">
        <ele>88.1</ele>
        <time>2013-03-10T09:48:42.000Z</time>
      </trkpt>
      <trkpt lat="46.08024" lon="-0.3476">
        <ele>87.9</ele>
        <time>2013-03-10T09:48:45.000Z</time>
      </trkpt>
      <trkpt lat="46.08031" lon="-0.34758">
        <ele>88.5</ele>
        <time>2013-03-10T09:48:48.000Z</time>
      </trkpt>
      <trkpt lat="46.08038" lon="-0.34755">
        <ele>88.8</ele>
        <time>2013-03-10T09:48:51.000Z</time>
      </trkpt>
      <trkpt lat="46.08045" lon="-0.34752">
        <ele>89.4</ele>
        <time>2013-03-10T09:48:54.000Z</time>
      </trkpt>
      <trkpt lat="46.08052" lon="-0.34749">
        <ele>90.2</ele>
        <time>2013-03-10T09:48:57.000Z</time>
      </trkpt>
      <trkpt lat="46.08059" lon="-0.34746">
        <ele>90.6</ele>
        <time>2013-03-10T09:49:00.000Z</time>
      </trkpt>
      <trkpt lat="46.08066" lon="-0.34744">
        <ele>90.9</ele>
        <time>2013-03-10T09:49:03.000Z</time>
      </trkpt>
      <trkpt lat="46.08074" lon="-0.34742">
        <ele>91.2</ele>
        <time>2013-03-10T09:49:06.000Z</time>
      </trkpt>
      <trkpt lat="46.08081" lon="-0.3474">
        <ele>91.5</ele>
        <time>2013-03-10T09:49:09.000Z</time>
      </trkpt>
      <trkpt lat="46.08089" lon="-0.34737">
        <ele>92.2</ele>
        <time>2013-03-10T09:49:12.000Z</time>
      </trkpt>
      <trkpt lat="46.08096" lon="-0.34735">
        <ele>92.6</ele>
        <time>2013-03-10T09:49:15.000Z</time>
      </trkpt>
      <trkpt lat="46.08104" lon="-0.34732">
        <ele>93</ele>
        <time>2013-03-10T09:49:18.000Z</time>
      </trkpt>
      <trkpt lat="46.08112" lon="-0.34729">
        <ele>93.1</ele>
        <time>2013-03-10T09:49:21.000Z</time>
      </trkpt>
      <trkpt lat="46.08114" lon="-0.34728">
        <ele>93.4</ele>
        <time>2013-03-10T09:49:22.000Z</time>
      </trkpt>
      <trkpt lat="46.08128" lon="-0.34723">
        <ele>94.3</ele>
        <time>2013-03-10T09:49:27.000Z</time>
      </trkpt>
      <trkpt lat="46.08135" lon="-0.34719">
        <ele>94.5</ele>
        <time>2013-03-10T09:49:30.000Z</time>
      </trkpt>
      <trkpt lat="46.08142" lon="-0.34716">
        <ele>94.7</ele>
        <time>2013-03-10T09:49:33.000Z</time>
      </trkpt>
      <trkpt lat="46.0815" lon="-0.34714">
        <ele>95.1</ele>
        <time>2013-03-10T09:49:36.000Z</time>
      </trkpt>
      <trkpt lat="46.08158" lon="-0.34711">
        <ele>94.8</ele>
        <time>2013-03-10T09:49:39.000Z</time>
      </trkpt>
      <trkpt lat="46.08166" lon="-0.34708">
        <ele>95</ele>
        <time>2013-03-10T09:49:42.000Z</time>
      </trkpt>
      <trkpt lat="46.08173" lon="-0.34705">
        <ele>95.4</ele>
        <time>2013-03-10T09:49:45.000Z</time>
      </trkpt>
      <trkpt lat="46.0818" lon="-0.34702">
        <ele>95.8</ele>
        <time>2013-03-10T09:49:48.000Z</time>
      </trkpt>
      <trkpt lat="46.08187" lon="-0.34699">
        <ele>96.1</ele>
        <time>2013-03-10T09:49:51.000Z</time>
      </trkpt>
      <trkpt lat="46.08194" lon="-0.34696">
        <ele>96</ele>
        <time>2013-03-10T09:49:54.000Z</time>
      </trkpt>
      <trkpt lat="46.08202" lon="-0.34695">
        <ele>96</ele>
        <time>2013-03-10T09:49:57.000Z</time>
      </trkpt>
      <trkpt lat="46.0821" lon="-0.34696">
        <ele>96.3</ele>
        <time>2013-03-10T09:50:00.000Z</time>
      </trkpt>
      <trkpt lat="46.08214" lon="-0.34705">
        <ele>96.6</ele>
        <time>2013-03-10T09:50:03.000Z</time>
      </trkpt>
      <trkpt lat="46.08215" lon="-0.34715">
        <ele>96.1</ele>
        <time>2013-03-10T09:50:06.000Z</time>
      </trkpt>
      <trkpt lat="46.08216" lon="-0.34728">
        <ele>96.8</ele>
        <time>2013-03-10T09:50:09.000Z</time>
      </trkpt>
      <trkpt lat="46.08217" lon="-0.3474">
        <ele>96.2</ele>
        <time>2013-03-10T09:50:12.000Z</time>
      </trkpt>
      <trkpt lat="46.08217" lon="-0.34749">
        <ele>96</ele>
        <time>2013-03-10T09:50:14.000Z</time>
      </trkpt>
      <trkpt lat="46.08217" lon="-0.34758">
        <ele>96.2</ele>
        <time>2013-03-10T09:50:16.000Z</time>
      </trkpt>
      <trkpt lat="46.08218" lon="-0.34767">
        <ele>96.7</ele>
        <time>2013-03-10T09:50:18.000Z</time>
      </trkpt>
      <trkpt lat="46.08218" lon="-0.34777">
        <ele>96.2</ele>
        <time>2013-03-10T09:50:20.000Z</time>
      </trkpt>
      <trkpt lat="46.0822" lon="-0.34786">
        <ele>96.2</ele>
        <time>2013-03-10T09:50:22.000Z</time>
      </trkpt>
      <trkpt lat="46.08221" lon="-0.34791">
        <ele>96.2</ele>
        <time>2013-03-10T09:50:23.000Z</time>
      </trkpt>
      <trkpt lat="46.08226" lon="-0.34804">
        <ele>96</ele>
        <time>2013-03-10T09:50:26.000Z</time>
      </trkpt>
      <trkpt lat="46.0823" lon="-0.34813">
        <ele>95.5</ele>
        <time>2013-03-10T09:50:28.000Z</time>
      </trkpt>
      <trkpt lat="46.08234" lon="-0.34823">
        <ele>95.4</ele>
        <time>2013-03-10T09:50:30.000Z</time>
      </trkpt>
      <trkpt lat="46.08237" lon="-0.34833">
        <ele>95.5</ele>
        <time>2013-03-10T09:50:32.000Z</time>
      </trkpt>
      <trkpt lat="46.0824" lon="-0.34842">
        <ele>95.4</ele>
        <time>2013-03-10T09:50:34.000Z</time>
      </trkpt>
      <trkpt lat="46.08244" lon="-0.34851">
        <ele>95.4</ele>
        <time>2013-03-10T09:50:36.000Z</time>
      </trkpt>
      <trkpt lat="46.08248" lon="-0.34859">
        <ele>95.2</ele>
        <time>2013-03-10T09:50:38.000Z</time>
      </trkpt>
      <trkpt lat="46.08252" lon="-0.34868">
        <ele>95.3</ele>
        <time>2013-03-10T09:50:40.000Z</time>
      </trkpt>
      <trkpt lat="46.08256" lon="-0.34878">
        <ele>95.4</ele>
        <time>2013-03-10T09:50:42.000Z</time>
      </trkpt>
      <trkpt lat="46.08258" lon="-0.34888">
        <ele>95.3</ele>
        <time>2013-03-10T09:50:44.000Z</time>
      </trkpt>
      <trkpt lat="46.08261" lon="-0.349">
        <ele>95.8</ele>
        <time>2013-03-10T09:50:46.000Z</time>
      </trkpt>
      <trkpt lat="46.08264" lon="-0.34912">
        <ele>96.2</ele>
        <time>2013-03-10T09:50:48.000Z</time>
      </trkpt>
      <trkpt lat="46.08266" lon="-0.34918">
        <ele>96</ele>
        <time>2013-03-10T09:50:49.000Z</time>
      </trkpt>
      <trkpt lat="46.0827" lon="-0.3493">
        <ele>95.7</ele>
        <time>2013-03-10T09:50:51.000Z</time>
      </trkpt>
      <trkpt lat="46.08272" lon="-0.34942">
        <ele>95.4</ele>
        <time>2013-03-10T09:50:53.000Z</time>
      </trkpt>
      <trkpt lat="46.08273" lon="-0.34948">
        <ele>95.1</ele>
        <time>2013-03-10T09:50:54.000Z</time>
      </trkpt>
      <trkpt lat="46.08274" lon="-0.34955">
        <ele>94.8</ele>
        <time>2013-03-10T09:50:55.000Z</time>
      </trkpt>
      <trkpt lat="46.08275" lon="-0.34962">
        <ele>94.7</ele>
        <time>2013-03-10T09:50:56.000Z</time>
      </trkpt>
      <trkpt lat="46.08276" lon="-0.34969">
        <ele>94.5</ele>
        <time>2013-03-10T09:50:57.000Z</time>
      </trkpt>
      <trkpt lat="46.08276" lon="-0.34976">
        <ele>94.4</ele>
        <time>2013-03-10T09:50:58.000Z</time>
      </trkpt>
      <trkpt lat="46.08277" lon="-0.34982">
        <ele>94.1</ele>
        <time>2013-03-10T09:50:59.000Z</time>
      </trkpt>
      <trkpt lat="46.08278" lon="-0.34989">
        <ele>93.8</ele>
        <time>2013-03-10T09:51:00.000Z</time>
      </trkpt>
      <trkpt lat="46.08279" lon="-0.34997">
        <ele>94.1</ele>
        <time>2013-03-10T09:51:01.000Z</time>
      </trkpt>
      <trkpt lat="46.08281" lon="-0.35004">
        <ele>94.2</ele>
        <time>2013-03-10T09:51:02.000Z</time>
      </trkpt>
      <trkpt lat="46.08283" lon="-0.35011">
        <ele>94.4</ele>
        <time>2013-03-10T09:51:03.000Z</time>
      </trkpt>
      <trkpt lat="46.08285" lon="-0.35018">
        <ele>94.4</ele>
        <time>2013-03-10T09:51:04.000Z</time>
      </trkpt>
      <trkpt lat="46.08287" lon="-0.35024">
        <ele>94.4</ele>
        <time>2013-03-10T09:51:05.000Z</time>
      </trkpt>
      <trkpt lat="46.08288" lon="-0.35031">
        <ele>94.2</ele>
        <time>2013-03-10T09:51:06.000Z</time>
      </trkpt>
      <trkpt lat="46.0829" lon="-0.35039">
        <ele>94.1</ele>
        <time>2013-03-10T09:51:07.000Z</time>
      </trkpt>
      <trkpt lat="46.08292" lon="-0.35046">
        <ele>94.3</ele>
        <time>2013-03-10T09:51:08.000Z</time>
      </trkpt>
      <trkpt lat="46.08295" lon="-0.35052">
        <ele>94.4</ele>
        <time>2013-03-10T09:51:09.000Z</time>
      </trkpt>
      <trkpt lat="46.08297" lon="-0.35059">
        <ele>94.5</ele>
        <time>2013-03-10T09:51:10.000Z</time>
      </trkpt>
      <trkpt lat="46.08299" lon="-0.35065">
        <ele>94.4</ele>
        <time>2013-03-10T09:51:11.000Z</time>
      </trkpt>
      <trkpt lat="46.08301" lon="-0.35072">
        <ele>94.4</ele>
        <time>2013-03-10T09:51:12.000Z</time>
      </trkpt>
      <trkpt lat="46.08303" lon="-0.35079">
        <ele>94.2</ele>
        <time>2013-03-10T09:51:13.000Z</time>
      </trkpt>
      <trkpt lat="46.08306" lon="-0.35086">
        <ele>94.2</ele>
        <time>2013-03-10T09:51:14.000Z</time>
      </trkpt>
      <trkpt lat="46.08309" lon="-0.35091">
        <ele>93.6</ele>
        <time>2013-03-10T09:51:15.000Z</time>
      </trkpt>
      <trkpt lat="46.08314" lon="-0.35095">
        <ele>93.2</ele>
        <time>2013-03-10T09:51:16.000Z</time>
      </trkpt>
      <trkpt lat="46.08318" lon="-0.35099">
        <ele>92.9</ele>
        <time>2013-03-10T09:51:17.000Z</time>
      </trkpt>
      <trkpt lat="46.08322" lon="-0.35104">
        <ele>93</ele>
        <time>2013-03-10T09:51:18.000Z</time>
      </trkpt>
      <trkpt lat="46.08326" lon="-0.35109">
        <ele>93.2</ele>
        <time>2013-03-10T09:51:19.000Z</time>
      </trkpt>
      <trkpt lat="46.08329" lon="-0.35115">
        <ele>93.2</ele>
        <time>2013-03-10T09:51:20.000Z</time>
      </trkpt>
      <trkpt lat="46.08332" lon="-0.35121">
        <ele>93.1</ele>
        <time>2013-03-10T09:51:21.000Z</time>
      </trkpt>
      <trkpt lat="46.08334" lon="-0.35133">
        <ele>93</ele>
        <time>2013-03-10T09:51:24.000Z</time>
      </trkpt>
      <trkpt lat="46.08332" lon="-0.35135">
        <ele>93.3</ele>
        <time>2013-03-10T09:51:25.000Z</time>
      </trkpt>
      <trkpt lat="46.08319" lon="-0.35144">
        <ele>92.4</ele>
        <time>2013-03-10T09:51:38.000Z</time>
      </trkpt>
      <trkpt lat="46.08312" lon="-0.35144">
        <ele>92.4</ele>
        <time>2013-03-10T09:51:41.000Z</time>
      </trkpt>
      <trkpt lat="46.08303" lon="-0.35144">
        <ele>91.5</ele>
        <time>2013-03-10T09:51:45.000Z</time>
      </trkpt>
      <trkpt lat="46.08295" lon="-0.35141">
        <ele>91.2</ele>
        <time>2013-03-10T09:51:49.000Z</time>
      </trkpt>
      <trkpt lat="46.08288" lon="-0.35139">
        <ele>91.1</ele>
        <time>2013-03-10T09:51:52.000Z</time>
      </trkpt>
      <trkpt lat="46.08282" lon="-0.35137">
        <ele>91.4</ele>
        <time>2013-03-10T09:51:54.000Z</time>
      </trkpt>
      <trkpt lat="46.08275" lon="-0.35136">
        <ele>91.5</ele>
        <time>2013-03-10T09:51:56.000Z</time>
      </trkpt>
      <trkpt lat="46.08267" lon="-0.35135">
        <ele>91.2</ele>
        <time>2013-03-10T09:51:59.000Z</time>
      </trkpt>
      <trkpt lat="46.0826" lon="-0.35135">
        <ele>90.8</ele>
        <time>2013-03-10T09:52:01.000Z</time>
      </trkpt>
      <trkpt lat="46.08254" lon="-0.35134">
        <ele>90.5</ele>
        <time>2013-03-10T09:52:03.000Z</time>
      </trkpt>
      <trkpt lat="46.08246" lon="-0.35133">
        <ele>90.4</ele>
        <time>2013-03-10T09:52:05.000Z</time>
      </trkpt>
      <trkpt lat="46.08238" lon="-0.35133">
        <ele>90.3</ele>
        <time>2013-03-10T09:52:07.000Z</time>
      </trkpt>
      <trkpt lat="46.08233" lon="-0.35132">
        <ele>90.2</ele>
        <time>2013-03-10T09:52:08.000Z</time>
      </trkpt>
      <trkpt lat="46.08228" lon="-0.35133">
        <ele>90.1</ele>
        <time>2013-03-10T09:52:09.000Z</time>
      </trkpt>
      <trkpt lat="46.08223" lon="-0.35135">
        <ele>90.1</ele>
        <time>2013-03-10T09:52:10.000Z</time>
      </trkpt>
      <trkpt lat="46.08218" lon="-0.35137">
        <ele>90</ele>
        <time>2013-03-10T09:52:11.000Z</time>
      </trkpt>
      <trkpt lat="46.08213" lon="-0.35138">
        <ele>89.9</ele>
        <time>2013-03-10T09:52:12.000Z</time>
      </trkpt>
      <trkpt lat="46.08207" lon="-0.3514">
        <ele>89.8</ele>
        <time>2013-03-10T09:52:13.000Z</time>
      </trkpt>
      <trkpt lat="46.08202" lon="-0.35141">
        <ele>89.7</ele>
        <time>2013-03-10T09:52:14.000Z</time>
      </trkpt>
      <trkpt lat="46.08196" lon="-0.35142">
        <ele>89.3</ele>
        <time>2013-03-10T09:52:15.000Z</time>
      </trkpt>
      <trkpt lat="46.08191" lon="-0.35143">
        <ele>89</ele>
        <time>2013-03-10T09:52:16.000Z</time>
      </trkpt>
      <trkpt lat="46.08185" lon="-0.35146">
        <ele>89</ele>
        <time>2013-03-10T09:52:17.000Z</time>
      </trkpt>
      <trkpt lat="46.0818" lon="-0.35149">
        <ele>89</ele>
        <time>2013-03-10T09:52:18.000Z</time>
      </trkpt>
      <trkpt lat="46.08174" lon="-0.35152">
        <ele>88.9</ele>
        <time>2013-03-10T09:52:19.000Z</time>
      </trkpt>
      <trkpt lat="46.08169" lon="-0.35154">
        <ele>88.5</ele>
        <time>2013-03-10T09:52:20.000Z</time>
      </trkpt>
      <trkpt lat="46.08164" lon="-0.35156">
        <ele>88.2</ele>
        <time>2013-03-10T09:52:21.000Z</time>
      </trkpt>
      <trkpt lat="46.08159" lon="-0.35158">
        <ele>87.9</ele>
        <time>2013-03-10T09:52:22.000Z</time>
      </trkpt>
      <trkpt lat="46.08151" lon="-0.3516">
        <ele>87.5</ele>
        <time>2013-03-10T09:52:24.000Z</time>
      </trkpt>
      <trkpt lat="46.08143" lon="-0.35163">
        <ele>87.3</ele>
        <time>2013-03-10T09:52:26.000Z</time>
      </trkpt>
      <trkpt lat="46.08139" lon="-0.35166">
        <ele>87.3</ele>
        <time>2013-03-10T09:52:27.000Z</time>
      </trkpt>
      <trkpt lat="46.08127" lon="-0.35172">
        <ele>86.7</ele>
        <time>2013-03-10T09:52:30.000Z</time>
      </trkpt>
      <trkpt lat="46.08118" lon="-0.35173">
        <ele>85.8</ele>
        <time>2013-03-10T09:52:36.000Z</time>
      </trkpt>
      <trkpt lat="46.0811" lon="-0.35176">
        <ele>85.8</ele>
        <time>2013-03-10T09:52:41.000Z</time>
      </trkpt>
      <trkpt lat="46.08102" lon="-0.35179">
        <ele>86.2</ele>
        <time>2013-03-10T09:52:44.000Z</time>
      </trkpt>
      <trkpt lat="46.08096" lon="-0.35182">
        <ele>86.3</ele>
        <time>2013-03-10T09:52:46.000Z</time>
      </trkpt>
      <trkpt lat="46.08091" lon="-0.35185">
        <ele>86.2</ele>
        <time>2013-03-10T09:52:48.000Z</time>
      </trkpt>
      <trkpt lat="46.08085" lon="-0.35191">
        <ele>86.1</ele>
        <time>2013-03-10T09:52:50.000Z</time>
      </trkpt>
      <trkpt lat="46.0808" lon="-0.35197">
        <ele>86</ele>
        <time>2013-03-10T09:52:52.000Z</time>
      </trkpt>
      <trkpt lat="46.08076" lon="-0.35204">
        <ele>86</ele>
        <time>2013-03-10T09:52:54.000Z</time>
      </trkpt>
      <trkpt lat="46.0807" lon="-0.35213">
        <ele>85</ele>
        <time>2013-03-10T09:52:58.000Z</time>
      </trkpt>
      <trkpt lat="46.08064" lon="-0.35221">
        <ele>84.9</ele>
        <time>2013-03-10T09:53:01.000Z</time>
      </trkpt>
      <trkpt lat="46.0806" lon="-0.35227">
        <ele>85.4</ele>
        <time>2013-03-10T09:53:03.000Z</time>
      </trkpt>
      <trkpt lat="46.08056" lon="-0.35234">
        <ele>85.4</ele>
        <time>2013-03-10T09:53:05.000Z</time>
      </trkpt>
      <trkpt lat="46.08052" lon="-0.3524">
        <ele>85.4</ele>
        <time>2013-03-10T09:53:07.000Z</time>
      </trkpt>
      <trkpt lat="46.08047" lon="-0.35246">
        <ele>85.7</ele>
        <time>2013-03-10T09:53:09.000Z</time>
      </trkpt>
      <trkpt lat="46.08041" lon="-0.35252">
        <ele>85.8</ele>
        <time>2013-03-10T09:53:11.000Z</time>
      </trkpt>
      <trkpt lat="46.08034" lon="-0.35258">
        <ele>84.9</ele>
        <time>2013-03-10T09:53:13.000Z</time>
      </trkpt>
      <trkpt lat="46.08027" lon="-0.35265">
        <ele>84.4</ele>
        <time>2013-03-10T09:53:15.000Z</time>
      </trkpt>
      <trkpt lat="46.0802" lon="-0.35271">
        <ele>84.5</ele>
        <time>2013-03-10T09:53:17.000Z</time>
      </trkpt>
      <trkpt lat="46.08018" lon="-0.35281">
        <ele>84.3</ele>
        <time>2013-03-10T09:53:19.000Z</time>
      </trkpt>
      <trkpt lat="46.08019" lon="-0.35291">
        <ele>84.2</ele>
        <time>2013-03-10T09:53:21.000Z</time>
      </trkpt>
      <trkpt lat="46.0802" lon="-0.35303">
        <ele>84.3</ele>
        <time>2013-03-10T09:53:23.000Z</time>
      </trkpt>
      <trkpt lat="46.08023" lon="-0.35313">
        <ele>83.6</ele>
        <time>2013-03-10T09:53:25.000Z</time>
      </trkpt>
      <trkpt lat="46.08025" lon="-0.35323">
        <ele>83.3</ele>
        <time>2013-03-10T09:53:27.000Z</time>
      </trkpt>
      <trkpt lat="46.08027" lon="-0.35333">
        <ele>83.3</ele>
        <time>2013-03-10T09:53:29.000Z</time>
      </trkpt>
      <trkpt lat="46.08028" lon="-0.35338">
        <ele>83.3</ele>
        <time>2013-03-10T09:53:30.000Z</time>
      </trkpt>
      <trkpt lat="46.08031" lon="-0.35352">
        <ele>82.9</ele>
        <time>2013-03-10T09:53:33.000Z</time>
      </trkpt>
      <trkpt lat="46.08033" lon="-0.35363">
        <ele>82.6</ele>
        <time>2013-03-10T09:53:35.000Z</time>
      </trkpt>
      <trkpt lat="46.08035" lon="-0.35373">
        <ele>82.6</ele>
        <time>2013-03-10T09:53:37.000Z</time>
      </trkpt>
      <trkpt lat="46.08037" lon="-0.35385">
        <ele>82.7</ele>
        <time>2013-03-10T09:53:39.000Z</time>
      </trkpt>
      <trkpt lat="46.08039" lon="-0.35396">
        <ele>82.7</ele>
        <time>2013-03-10T09:53:41.000Z</time>
      </trkpt>
      <trkpt lat="46.0804" lon="-0.35406">
        <ele>82.4</ele>
        <time>2013-03-10T09:53:43.000Z</time>
      </trkpt>
      <trkpt lat="46.08042" lon="-0.35416">
        <ele>82.1</ele>
        <time>2013-03-10T09:53:46.000Z</time>
      </trkpt>
      <trkpt lat="46.08042" lon="-0.35428">
        <ele>82.6</ele>
        <time>2013-03-10T09:54:02.000Z</time>
      </trkpt>
      <trkpt lat="46.08043" lon="-0.35441">
        <ele>82.1</ele>
        <time>2013-03-10T09:54:20.000Z</time>
      </trkpt>
      <trkpt lat="46.08046" lon="-0.35453">
        <ele>82.4</ele>
        <time>2013-03-10T09:54:27.000Z</time>
      </trkpt>
      <trkpt lat="46.08048" lon="-0.35464">
        <ele>82.3</ele>
        <time>2013-03-10T09:54:33.000Z</time>
      </trkpt>
      <trkpt lat="46.08048" lon="-0.35466">
        <ele>82.3</ele>
        <time>2013-03-10T09:54:34.000Z</time>
      </trkpt>
      <trkpt lat="46.08051" lon="-0.35487">
        <ele>82</ele>
        <time>2013-03-10T09:54:40.000Z</time>
      </trkpt>
      <trkpt lat="46.08053" lon="-0.35497">
        <ele>81.8</ele>
        <time>2013-03-10T09:54:42.000Z</time>
      </trkpt>
      <trkpt lat="46.08055" lon="-0.35506">
        <ele>81.6</ele>
        <time>2013-03-10T09:54:44.000Z</time>
      </trkpt>
      <trkpt lat="46.08056" lon="-0.35515">
        <ele>81.6</ele>
        <time>2013-03-10T09:54:46.000Z</time>
      </trkpt>
      <trkpt lat="46.08058" lon="-0.35527">
        <ele>81.1</ele>
        <time>2013-03-10T09:54:50.000Z</time>
      </trkpt>
      <trkpt lat="46.08059" lon="-0.35539">
        <ele>81</ele>
        <time>2013-03-10T09:55:00.000Z</time>
      </trkpt>
      <trkpt lat="46.08061" lon="-0.35549">
        <ele>81.1</ele>
        <time>2013-03-10T09:55:04.000Z</time>
      </trkpt>
      <trkpt lat="46.08062" lon="-0.35561">
        <ele>81.3</ele>
        <time>2013-03-10T09:55:08.000Z</time>
      </trkpt>
      <trkpt lat="46.08064" lon="-0.35573">
        <ele>80.9</ele>
        <time>2013-03-10T09:55:12.000Z</time>
      </trkpt>
      <trkpt lat="46.08067" lon="-0.35585">
        <ele>80.3</ele>
        <time>2013-03-10T09:55:16.000Z</time>
      </trkpt>
      <trkpt lat="46.08073" lon="-0.35594">
        <ele>79.9</ele>
        <time>2013-03-10T09:55:34.000Z</time>
      </trkpt>
      <trkpt lat="46.08078" lon="-0.35586">
        <ele>79.9</ele>
        <time>2013-03-10T09:55:42.000Z</time>
      </trkpt>
      <trkpt lat="46.0808" lon="-0.35584">
        <ele>79.9</ele>
        <time>2013-03-10T09:55:43.000Z</time>
      </trkpt>
      <trkpt lat="46.08089" lon="-0.35574">
        <ele>79.9</ele>
        <time>2013-03-10T09:55:47.000Z</time>
      </trkpt>
      <trkpt lat="46.08096" lon="-0.35568">
        <ele>80</ele>
        <time>2013-03-10T09:55:49.000Z</time>
      </trkpt>
      <trkpt lat="46.08102" lon="-0.35563">
        <ele>79.6</ele>
        <time>2013-03-10T09:55:51.000Z</time>
      </trkpt>
      <trkpt lat="46.0811" lon="-0.35558">
        <ele>79</ele>
        <time>2013-03-10T09:55:53.000Z</time>
      </trkpt>
      <trkpt lat="46.08117" lon="-0.35551">
        <ele>78.6</ele>
        <time>2013-03-10T09:55:55.000Z</time>
      </trkpt>
      <trkpt lat="46.08124" lon="-0.35544">
        <ele>78.2</ele>
        <time>2013-03-10T09:55:57.000Z</time>
      </trkpt>
      <trkpt lat="46.08131" lon="-0.35538">
        <ele>78.6</ele>
        <time>2013-03-10T09:55:59.000Z</time>
      </trkpt>
      <trkpt lat="46.08139" lon="-0.35534">
        <ele>78.8</ele>
        <time>2013-03-10T09:56:01.000Z</time>
      </trkpt>
      <trkpt lat="46.08146" lon="-0.35529">
        <ele>78.7</ele>
        <time>2013-03-10T09:56:03.000Z</time>
      </trkpt>
      <trkpt lat="46.08153" lon="-0.35525">
        <ele>78.9</ele>
        <time>2013-03-10T09:56:05.000Z</time>
      </trkpt>
      <trkpt lat="46.0816" lon="-0.3552">
        <ele>79.2</ele>
        <time>2013-03-10T09:56:07.000Z</time>
      </trkpt>
      <trkpt lat="46.08166" lon="-0.35515">
        <ele>79.5</ele>
        <time>2013-03-10T09:56:09.000Z</time>
      </trkpt>
      <trkpt lat="46.08173" lon="-0.35511">
        <ele>80</ele>
        <time>2013-03-10T09:56:11.000Z</time>
      </trkpt>
      <trkpt lat="46.08179" lon="-0.35508">
        <ele>80.5</ele>
        <time>2013-03-10T09:56:13.000Z</time>
      </trkpt>
      <trkpt lat="46.08186" lon="-0.35505">
        <ele>80.9</ele>
        <time>2013-03-10T09:56:15.000Z</time>
      </trkpt>
      <trkpt lat="46.08192" lon="-0.35503">
        <ele>81</ele>
        <time>2013-03-10T09:56:17.000Z</time>
      </trkpt>
      <trkpt lat="46.08198" lon="-0.355">
        <ele>81.4</ele>
        <time>2013-03-10T09:56:19.000Z</time>
      </trkpt>
      <trkpt lat="46.08204" lon="-0.35497">
        <ele>81.9</ele>
        <time>2013-03-10T09:56:21.000Z</time>
      </trkpt>
      <trkpt lat="46.0821" lon="-0.35493">
        <ele>82.2</ele>
        <time>2013-03-10T09:56:23.000Z</time>
      </trkpt>
      <trkpt lat="46.08216" lon="-0.35489">
        <ele>82.4</ele>
        <time>2013-03-10T09:56:25.000Z</time>
      </trkpt>
      <trkpt lat="46.08221" lon="-0.35485">
        <ele>82.8</ele>
        <time>2013-03-10T09:56:27.000Z</time>
      </trkpt>
      <trkpt lat="46.08228" lon="-0.35481">
        <ele>83.1</ele>
        <time>2013-03-10T09:56:29.000Z</time>
      </trkpt>
      <trkpt lat="46.08233" lon="-0.35477">
        <ele>83.5</ele>
        <time>2013-03-10T09:56:31.000Z</time>
      </trkpt>
      <trkpt lat="46.08239" lon="-0.35472">
        <ele>83.9</ele>
        <time>2013-03-10T09:56:33.000Z</time>
      </trkpt>
      <trkpt lat="46.08244" lon="-0.35467">
        <ele>83.9</ele>
        <time>2013-03-10T09:56:35.000Z</time>
      </trkpt>
      <trkpt lat="46.0825" lon="-0.35463">
        <ele>84</ele>
        <time>2013-03-10T09:56:37.000Z</time>
      </trkpt>
      <trkpt lat="46.08256" lon="-0.35459">
        <ele>83.9</ele>
        <time>2013-03-10T09:56:39.000Z</time>
      </trkpt>
      <trkpt lat="46.08262" lon="-0.35454">
        <ele>84</ele>
        <time>2013-03-10T09:56:41.000Z</time>
      </trkpt>
      <trkpt lat="46.08267" lon="-0.3545">
        <ele>84.3</ele>
        <time>2013-03-10T09:56:43.000Z</time>
      </trkpt>
      <trkpt lat="46.08275" lon="-0.35445">
        <ele>84.6</ele>
        <time>2013-03-10T09:56:46.000Z</time>
      </trkpt>
      <trkpt lat="46.08278" lon="-0.35443">
        <ele>84.7</ele>
        <time>2013-03-10T09:56:47.000Z</time>
      </trkpt>
      <trkpt lat="46.08286" lon="-0.35438">
        <ele>84.9</ele>
        <time>2013-03-10T09:56:50.000Z</time>
      </trkpt>
      <trkpt lat="46.08292" lon="-0.35434">
        <ele>85</ele>
        <time>2013-03-10T09:56:52.000Z</time>
      </trkpt>
      <trkpt lat="46.08298" lon="-0.3543">
        <ele>85.8</ele>
        <time>2013-03-10T09:56:54.000Z</time>
      </trkpt>
      <trkpt lat="46.08304" lon="-0.35427">
        <ele>85.8</ele>
        <time>2013-03-10T09:56:56.000Z</time>
      </trkpt>
      <trkpt lat="46.08311" lon="-0.35423">
        <ele>86.3</ele>
        <time>2013-03-10T09:56:58.000Z</time>
      </trkpt>
      <trkpt lat="46.08318" lon="-0.3542">
        <ele>86.3</ele>
        <time>2013-03-10T09:57:00.000Z</time>
      </trkpt>
      <trkpt lat="46.08325" lon="-0.35417">
        <ele>86.1</ele>
        <time>2013-03-10T09:57:02.000Z</time>
      </trkpt>
      <trkpt lat="46.08332" lon="-0.35414">
        <ele>86.4</ele>
        <time>2013-03-10T09:57:04.000Z</time>
      </trkpt>
      <trkpt lat="46.08338" lon="-0.35411">
        <ele>86.8</ele>
        <time>2013-03-10T09:57:06.000Z</time>
      </trkpt>
      <trkpt lat="46.08344" lon="-0.35409">
        <ele>87.4</ele>
        <time>2013-03-10T09:57:08.000Z</time>
      </trkpt>
      <trkpt lat="46.0835" lon="-0.35406">
        <ele>87.3</ele>
        <time>2013-03-10T09:57:10.000Z</time>
      </trkpt>
      <trkpt lat="46.08357" lon="-0.35403">
        <ele>87.5</ele>
        <time>2013-03-10T09:57:12.000Z</time>
      </trkpt>
      <trkpt lat="46.08365" lon="-0.354">
        <ele>87.8</ele>
        <time>2013-03-10T09:57:14.000Z</time>
      </trkpt>
      <trkpt lat="46.08372" lon="-0.35398">
        <ele>87.7</ele>
        <time>2013-03-10T09:57:16.000Z</time>
      </trkpt>
      <trkpt lat="46.08379" lon="-0.35396">
        <ele>87.6</ele>
        <time>2013-03-10T09:57:18.000Z</time>
      </trkpt>
      <trkpt lat="46.08386" lon="-0.35394">
        <ele>87.6</ele>
        <time>2013-03-10T09:57:20.000Z</time>
      </trkpt>
      <trkpt lat="46.08394" lon="-0.35391">
        <ele>87.7</ele>
        <time>2013-03-10T09:57:22.000Z</time>
      </trkpt>
      <trkpt lat="46.08401" lon="-0.35388">
        <ele>87.5</ele>
        <time>2013-03-10T09:57:24.000Z</time>
      </trkpt>
      <trkpt lat="46.08408" lon="-0.35386">
        <ele>87.5</ele>
        <time>2013-03-10T09:57:26.000Z</time>
      </trkpt>
      <trkpt lat="46.08416" lon="-0.35384">
        <ele>87.5</ele>
        <time>2013-03-10T09:57:28.000Z</time>
      </trkpt>
      <trkpt lat="46.08423" lon="-0.35381">
        <ele>87.4</ele>
        <time>2013-03-10T09:57:30.000Z</time>
      </trkpt>
      <trkpt lat="46.0843" lon="-0.35377">
        <ele>87.9</ele>
        <time>2013-03-10T09:57:32.000Z</time>
      </trkpt>
      <trkpt lat="46.08438" lon="-0.35374">
        <ele>87.8</ele>
        <time>2013-03-10T09:57:34.000Z</time>
      </trkpt>
      <trkpt lat="46.08446" lon="-0.35371">
        <ele>88.4</ele>
        <time>2013-03-10T09:57:36.000Z</time>
      </trkpt>
      <trkpt lat="46.08454" lon="-0.35368">
        <ele>88.4</ele>
        <time>2013-03-10T09:57:38.000Z</time>
      </trkpt>
      <trkpt lat="46.08458" lon="-0.35366">
        <ele>88.2</ele>
        <time>2013-03-10T09:57:39.000Z</time>
      </trkpt>
      <trkpt lat="46.08463" lon="-0.35365">
        <ele>88.3</ele>
        <time>2013-03-10T09:57:40.000Z</time>
      </trkpt>
      <trkpt lat="46.08467" lon="-0.35363">
        <ele>88.4</ele>
        <time>2013-03-10T09:57:41.000Z</time>
      </trkpt>
      <trkpt lat="46.08472" lon="-0.35362">
        <ele>88.3</ele>
        <time>2013-03-10T09:57:42.000Z</time>
      </trkpt>
      <trkpt lat="46.08476" lon="-0.3536">
        <ele>88.3</ele>
        <time>2013-03-10T09:57:43.000Z</time>
      </trkpt>
      <trkpt lat="46.08481" lon="-0.35358">
        <ele>88.3</ele>
        <time>2013-03-10T09:57:44.000Z</time>
      </trkpt>
      <trkpt lat="46.08486" lon="-0.35356">
        <ele>88.3</ele>
        <time>2013-03-10T09:57:45.000Z</time>
      </trkpt>
      <trkpt lat="46.08491" lon="-0.35354">
        <ele>88.2</ele>
        <time>2013-03-10T09:57:46.000Z</time>
      </trkpt>
      <trkpt lat="46.08495" lon="-0.35352">
        <ele>88</ele>
        <time>2013-03-10T09:57:47.000Z</time>
      </trkpt>
      <trkpt lat="46.085" lon="-0.3535">
        <ele>87.9</ele>
        <time>2013-03-10T09:57:48.000Z</time>
      </trkpt>
      <trkpt lat="46.08505" lon="-0.35347">
        <ele>87.6</ele>
        <time>2013-03-10T09:57:49.000Z</time>
      </trkpt>
      <trkpt lat="46.0851" lon="-0.35344">
        <ele>87.4</ele>
        <time>2013-03-10T09:57:50.000Z</time>
      </trkpt>
      <trkpt lat="46.08516" lon="-0.35341">
        <ele>87.2</ele>
        <time>2013-03-10T09:57:51.000Z</time>
      </trkpt>
      <trkpt lat="46.08521" lon="-0.35336">
        <ele>87.1</ele>
        <time>2013-03-10T09:57:52.000Z</time>
      </trkpt>
      <trkpt lat="46.08526" lon="-0.35331">
        <ele>87</ele>
        <time>2013-03-10T09:57:53.000Z</time>
      </trkpt>
      <trkpt lat="46.08532" lon="-0.35327">
        <ele>87.1</ele>
        <time>2013-03-10T09:57:54.000Z</time>
      </trkpt>
      <trkpt lat="46.08537" lon="-0.35324">
        <ele>87.1</ele>
        <time>2013-03-10T09:57:55.000Z</time>
      </trkpt>
      <trkpt lat="46.08542" lon="-0.35322">
        <ele>87.1</ele>
        <time>2013-03-10T09:57:56.000Z</time>
      </trkpt>
      <trkpt lat="46.08547" lon="-0.35321">
        <ele>86.8</ele>
        <time>2013-03-10T09:57:57.000Z</time>
      </trkpt>
      <trkpt lat="46.08553" lon="-0.3532">
        <ele>86.5</ele>
        <time>2013-03-10T09:57:58.000Z</time>
      </trkpt>
      <trkpt lat="46.08558" lon="-0.35319">
        <ele>86.3</ele>
        <time>2013-03-10T09:57:59.000Z</time>
      </trkpt>
      <trkpt lat="46.08563" lon="-0.35317">
        <ele>86.1</ele>
        <time>2013-03-10T09:58:00.000Z</time>
      </trkpt>
      <trkpt lat="46.08568" lon="-0.35315">
        <ele>85.8</ele>
        <time>2013-03-10T09:58:01.000Z</time>
      </trkpt>
      <trkpt lat="46.08573" lon="-0.35314">
        <ele>85.5</ele>
        <time>2013-03-10T09:58:02.000Z</time>
      </trkpt>
      <trkpt lat="46.08578" lon="-0.35312">
        <ele>85.4</ele>
        <time>2013-03-10T09:58:03.000Z</time>
      </trkpt>
      <trkpt lat="46.08583" lon="-0.3531">
        <ele>85.4</ele>
        <time>2013-03-10T09:58:04.000Z</time>
      </trkpt>
      <trkpt lat="46.08588" lon="-0.35307">
        <ele>85.4</ele>
        <time>2013-03-10T09:58:05.000Z</time>
      </trkpt>
      <trkpt lat="46.08593" lon="-0.35304">
        <ele>85.5</ele>
        <time>2013-03-10T09:58:06.000Z</time>
      </trkpt>
      <trkpt lat="46.08599" lon="-0.35302">
        <ele>85.7</ele>
        <time>2013-03-10T09:58:07.000Z</time>
      </trkpt>
      <trkpt lat="46.08604" lon="-0.35299">
        <ele>85.6</ele>
        <time>2013-03-10T09:58:08.000Z</time>
      </trkpt>
      <trkpt lat="46.0861" lon="-0.35296">
        <ele>85.5</ele>
        <time>2013-03-10T09:58:09.000Z</time>
      </trkpt>
      <trkpt lat="46.08616" lon="-0.35294">
        <ele>85.5</ele>
        <time>2013-03-10T09:58:10.000Z</time>
      </trkpt>
      <trkpt lat="46.08622" lon="-0.35291">
        <ele>85.4</ele>
        <time>2013-03-10T09:58:11.000Z</time>
      </trkpt>
      <trkpt lat="46.08628" lon="-0.35289">
        <ele>85.3</ele>
        <time>2013-03-10T09:58:12.000Z</time>
      </trkpt>
      <trkpt lat="46.08634" lon="-0.35286">
        <ele>85.2</ele>
        <time>2013-03-10T09:58:13.000Z</time>
      </trkpt>
      <trkpt lat="46.0864" lon="-0.35284">
        <ele>85.2</ele>
        <time>2013-03-10T09:58:14.000Z</time>
      </trkpt>
      <trkpt lat="46.08646" lon="-0.35281">
        <ele>85.2</ele>
        <time>2013-03-10T09:58:15.000Z</time>
      </trkpt>
      <trkpt lat="46.08652" lon="-0.35278">
        <ele>85.4</ele>
        <time>2013-03-10T09:58:16.000Z</time>
      </trkpt>
      <trkpt lat="46.08658" lon="-0.35275">
        <ele>85.5</ele>
        <time>2013-03-10T09:58:17.000Z</time>
      </trkpt>
      <trkpt lat="46.08664" lon="-0.35272">
        <ele>85.3</ele>
        <time>2013-03-10T09:58:18.000Z</time>
      </trkpt>
      <trkpt lat="46.0867" lon="-0.35268">
        <ele>85.1</ele>
        <time>2013-03-10T09:58:19.000Z</time>
      </trkpt>
      <trkpt lat="46.08676" lon="-0.35263">
        <ele>85.3</ele>
        <time>2013-03-10T09:58:20.000Z</time>
      </trkpt>
      <trkpt lat="46.08682" lon="-0.35259">
        <ele>85.4</ele>
        <time>2013-03-10T09:58:21.000Z</time>
      </trkpt>
      <trkpt lat="46.08688" lon="-0.35256">
        <ele>85.5</ele>
        <time>2013-03-10T09:58:22.000Z</time>
      </trkpt>
      <trkpt lat="46.08694" lon="-0.35253">
        <ele>85.5</ele>
        <time>2013-03-10T09:58:23.000Z</time>
      </trkpt>
      <trkpt lat="46.08701" lon="-0.35251">
        <ele>85.4</ele>
        <time>2013-03-10T09:58:24.000Z</time>
      </trkpt>
      <trkpt lat="46.08706" lon="-0.35248">
        <ele>85</ele>
        <time>2013-03-10T09:58:25.000Z</time>
      </trkpt>
      <trkpt lat="46.08713" lon="-0.35244">
        <ele>84.4</ele>
        <time>2013-03-10T09:58:27.000Z</time>
      </trkpt>
      <trkpt lat="46.0872" lon="-0.35251">
        <ele>84</ele>
        <time>2013-03-10T09:58:31.000Z</time>
      </trkpt>
      <trkpt lat="46.08721" lon="-0.35259">
        <ele>83.6</ele>
        <time>2013-03-10T09:58:33.000Z</time>
      </trkpt>
      <trkpt lat="46.08724" lon="-0.3527">
        <ele>83.6</ele>
        <time>2013-03-10T09:58:35.000Z</time>
      </trkpt>
      <trkpt lat="46.08726" lon="-0.35277">
        <ele>83.8</ele>
        <time>2013-03-10T09:58:36.000Z</time>
      </trkpt>
      <trkpt lat="46.08728" lon="-0.35284">
        <ele>83.7</ele>
        <time>2013-03-10T09:58:37.000Z</time>
      </trkpt>
      <trkpt lat="46.08728" lon="-0.35291">
        <ele>83.7</ele>
        <time>2013-03-10T09:58:38.000Z</time>
      </trkpt>
      <trkpt lat="46.08729" lon="-0.35299">
        <ele>83.3</ele>
        <time>2013-03-10T09:58:39.000Z</time>
      </trkpt>
      <trkpt lat="46.08728" lon="-0.35307">
        <ele>83</ele>
        <time>2013-03-10T09:58:40.000Z</time>
      </trkpt>
      <trkpt lat="46.08728" lon="-0.35315">
        <ele>82.8</ele>
        <time>2013-03-10T09:58:41.000Z</time>
      </trkpt>
      <trkpt lat="46.08728" lon="-0.35326">
        <ele>82.4</ele>
        <time>2013-03-10T09:58:43.000Z</time>
      </trkpt>
      <trkpt lat="46.08731" lon="-0.35337">
        <ele>80.9</ele>
        <time>2013-03-10T09:58:46.000Z</time>
      </trkpt>
      <trkpt lat="46.08737" lon="-0.35345">
        <ele>80.2</ele>
        <time>2013-03-10T09:58:48.000Z</time>
      </trkpt>
      <trkpt lat="46.08741" lon="-0.35357">
        <ele>80.1</ele>
        <time>2013-03-10T09:58:50.000Z</time>
      </trkpt>
      <trkpt lat="46.08743" lon="-0.35363">
        <ele>79.8</ele>
        <time>2013-03-10T09:58:51.000Z</time>
      </trkpt>
      <trkpt lat="46.08743" lon="-0.35371">
        <ele>79.5</ele>
        <time>2013-03-10T09:58:52.000Z</time>
      </trkpt>
      <trkpt lat="46.08744" lon="-0.35379">
        <ele>79.3</ele>
        <time>2013-03-10T09:58:53.000Z</time>
      </trkpt>
      <trkpt lat="46.08745" lon="-0.35388">
        <ele>79.5</ele>
        <time>2013-03-10T09:58:54.000Z</time>
      </trkpt>
      <trkpt lat="46.08746" lon="-0.35396">
        <ele>79.6</ele>
        <time>2013-03-10T09:58:55.000Z</time>
      </trkpt>
      <trkpt lat="46.08747" lon="-0.35405">
        <ele>79.5</ele>
        <time>2013-03-10T09:58:56.000Z</time>
      </trkpt>
      <trkpt lat="46.08748" lon="-0.35413">
        <ele>79.4</ele>
        <time>2013-03-10T09:58:57.000Z</time>
      </trkpt>
      <trkpt lat="46.08749" lon="-0.35421">
        <ele>79.1</ele>
        <time>2013-03-10T09:58:58.000Z</time>
      </trkpt>
      <trkpt lat="46.0875" lon="-0.35429">
        <ele>78.8</ele>
        <time>2013-03-10T09:58:59.000Z</time>
      </trkpt>
      <trkpt lat="46.08751" lon="-0.35437">
        <ele>78.6</ele>
        <time>2013-03-10T09:59:00.000Z</time>
      </trkpt>
      <trkpt lat="46.08753" lon="-0.35445">
        <ele>78.6</ele>
        <time>2013-03-10T09:59:01.000Z</time>
      </trkpt>
      <trkpt lat="46.08754" lon="-0.35453">
        <ele>78.6</ele>
        <time>2013-03-10T09:59:02.000Z</time>
      </trkpt>
      <trkpt lat="46.08756" lon="-0.35462">
        <ele>78.4</ele>
        <time>2013-03-10T09:59:03.000Z</time>
      </trkpt>
      <trkpt lat="46.08756" lon="-0.35469">
        <ele>78.3</ele>
        <time>2013-03-10T09:59:04.000Z</time>
      </trkpt>
      <trkpt lat="46.08757" lon="-0.35477">
        <ele>78.2</ele>
        <time>2013-03-10T09:59:05.000Z</time>
      </trkpt>
      <trkpt lat="46.08757" lon="-0.35485">
        <ele>77.8</ele>
        <time>2013-03-10T09:59:06.000Z</time>
      </trkpt>
      <trkpt lat="46.08758" lon="-0.35493">
        <ele>77.5</ele>
        <time>2013-03-10T09:59:07.000Z</time>
      </trkpt>
      <trkpt lat="46.08759" lon="-0.35501">
        <ele>77.2</ele>
        <time>2013-03-10T09:59:08.000Z</time>
      </trkpt>
      <trkpt lat="46.0876" lon="-0.3551">
        <ele>77.1</ele>
        <time>2013-03-10T09:59:09.000Z</time>
      </trkpt>
      <trkpt lat="46.08761" lon="-0.35519">
        <ele>77.2</ele>
        <time>2013-03-10T09:59:10.000Z</time>
      </trkpt>
      <trkpt lat="46.08762" lon="-0.35528">
        <ele>77.2</ele>
        <time>2013-03-10T09:59:11.000Z</time>
      </trkpt>
      <trkpt lat="46.08763" lon="-0.35537">
        <ele>77.3</ele>
        <time>2013-03-10T09:59:12.000Z</time>
      </trkpt>
      <trkpt lat="46.08764" lon="-0.35546">
        <ele>76.6</ele>
        <time>2013-03-10T09:59:13.000Z</time>
      </trkpt>
      <trkpt lat="46.08765" lon="-0.35555">
        <ele>76.1</ele>
        <time>2013-03-10T09:59:14.000Z</time>
      </trkpt>
      <trkpt lat="46.08766" lon="-0.35564">
        <ele>76</ele>
        <time>2013-03-10T09:59:15.000Z</time>
      </trkpt>
      <trkpt lat="46.08767" lon="-0.35574">
        <ele>75.9</ele>
        <time>2013-03-10T09:59:16.000Z</time>
      </trkpt>
      <trkpt lat="46.08767" lon="-0.35583">
        <ele>75.4</ele>
        <time>2013-03-10T09:59:17.000Z</time>
      </trkpt>
      <trkpt lat="46.08768" lon="-0.35593">
        <ele>75.1</ele>
        <time>2013-03-10T09:59:18.000Z</time>
      </trkpt>
      <trkpt lat="46.08769" lon="-0.35602">
        <ele>74.8</ele>
        <time>2013-03-10T09:59:19.000Z</time>
      </trkpt>
      <trkpt lat="46.0877" lon="-0.35611">
        <ele>74.6</ele>
        <time>2013-03-10T09:59:20.000Z</time>
      </trkpt>
      <trkpt lat="46.08771" lon="-0.35621">
        <ele>74.4</ele>
        <time>2013-03-10T09:59:21.000Z</time>
      </trkpt>
      <trkpt lat="46.08772" lon="-0.3563">
        <ele>73.8</ele>
        <time>2013-03-10T09:59:22.000Z</time>
      </trkpt>
      <trkpt lat="46.08772" lon="-0.3564">
        <ele>73.4</ele>
        <time>2013-03-10T09:59:23.000Z</time>
      </trkpt>
      <trkpt lat="46.08773" lon="-0.35651">
        <ele>73.5</ele>
        <time>2013-03-10T09:59:24.000Z</time>
      </trkpt>
      <trkpt lat="46.08773" lon="-0.35661">
        <ele>73.5</ele>
        <time>2013-03-10T09:59:25.000Z</time>
      </trkpt>
      <trkpt lat="46.08773" lon="-0.35671">
        <ele>73.5</ele>
        <time>2013-03-10T09:59:26.000Z</time>
      </trkpt>
      <trkpt lat="46.08773" lon="-0.3568">
        <ele>73.5</ele>
        <time>2013-03-10T09:59:27.000Z</time>
      </trkpt>
      <trkpt lat="46.08773" lon="-0.35689">
        <ele>73.5</ele>
        <time>2013-03-10T09:59:28.000Z</time>
      </trkpt>
      <trkpt lat="46.08773" lon="-0.35699">
        <ele>73.4</ele>
        <time>2013-03-10T09:59:29.000Z</time>
      </trkpt>
      <trkpt lat="46.08774" lon="-0.35708">
        <ele>73.4</ele>
        <time>2013-03-10T09:59:30.000Z</time>
      </trkpt>
      <trkpt lat="46.08774" lon="-0.35717">
        <ele>73.4</ele>
        <time>2013-03-10T09:59:31.000Z</time>
      </trkpt>
      <trkpt lat="46.08775" lon="-0.35727">
        <ele>73.3</ele>
        <time>2013-03-10T09:59:32.000Z</time>
      </trkpt>
      <trkpt lat="46.08776" lon="-0.35736">
        <ele>73.3</ele>
        <time>2013-03-10T09:59:33.000Z</time>
      </trkpt>
      <trkpt lat="46.08777" lon="-0.35745">
        <ele>73.1</ele>
        <time>2013-03-10T09:59:34.000Z</time>
      </trkpt>
      <trkpt lat="46.08779" lon="-0.35754">
        <ele>72.9</ele>
        <time>2013-03-10T09:59:35.000Z</time>
      </trkpt>
      <trkpt lat="46.0878" lon="-0.35762">
        <ele>73</ele>
        <time>2013-03-10T09:59:36.000Z</time>
      </trkpt>
      <trkpt lat="46.08782" lon="-0.35771">
        <ele>73.1</ele>
        <time>2013-03-10T09:59:37.000Z</time>
      </trkpt>
      <trkpt lat="46.08784" lon="-0.35781">
        <ele>73.2</ele>
        <time>2013-03-10T09:59:38.000Z</time>
      </trkpt>
      <trkpt lat="46.08785" lon="-0.3579">
        <ele>73.4</ele>
        <time>2013-03-10T09:59:39.000Z</time>
      </trkpt>
      <trkpt lat="46.08787" lon="-0.358">
        <ele>73.6</ele>
        <time>2013-03-10T09:59:40.000Z</time>
      </trkpt>
      <trkpt lat="46.08789" lon="-0.3581">
        <ele>73.2</ele>
        <time>2013-03-10T09:59:41.000Z</time>
      </trkpt>
      <trkpt lat="46.08791" lon="-0.3582">
        <ele>73</ele>
        <time>2013-03-10T09:59:42.000Z</time>
      </trkpt>
      <trkpt lat="46.08793" lon="-0.3583">
        <ele>72.3</ele>
        <time>2013-03-10T09:59:43.000Z</time>
      </trkpt>
      <trkpt lat="46.08795" lon="-0.3584">
        <ele>71.8</ele>
        <time>2013-03-10T09:59:44.000Z</time>
      </trkpt>
      <trkpt lat="46.08797" lon="-0.3585">
        <ele>71.5</ele>
        <time>2013-03-10T09:59:45.000Z</time>
      </trkpt>
      <trkpt lat="46.088" lon="-0.35861">
        <ele>71.5</ele>
        <time>2013-03-10T09:59:46.000Z</time>
      </trkpt>
      <trkpt lat="46.08802" lon="-0.35871">
        <ele>71.5</ele>
        <time>2013-03-10T09:59:47.000Z</time>
      </trkpt>
      <trkpt lat="46.08805" lon="-0.35882">
        <ele>71</ele>
        <time>2013-03-10T09:59:48.000Z</time>
      </trkpt>
      <trkpt lat="46.08807" lon="-0.35892">
        <ele>70.7</ele>
        <time>2013-03-10T09:59:49.000Z</time>
      </trkpt>
      <trkpt lat="46.0881" lon="-0.35903">
        <ele>70.4</ele>
        <time>2013-03-10T09:59:50.000Z</time>
      </trkpt>
      <trkpt lat="46.08813" lon="-0.35913">
        <ele>70.6</ele>
        <time>2013-03-10T09:59:51.000Z</time>
      </trkpt>
      <trkpt lat="46.08817" lon="-0.35924">
        <ele>70.8</ele>
        <time>2013-03-10T09:59:52.000Z</time>
      </trkpt>
      <trkpt lat="46.0882" lon="-0.35934">
        <ele>70.6</ele>
        <time>2013-03-10T09:59:53.000Z</time>
      </trkpt>
      <trkpt lat="46.08823" lon="-0.35945">
        <ele>70.6</ele>
        <time>2013-03-10T09:59:54.000Z</time>
      </trkpt>
      <trkpt lat="46.08827" lon="-0.35955">
        <ele>70.4</ele>
        <time>2013-03-10T09:59:55.000Z</time>
      </trkpt>
      <trkpt lat="46.08831" lon="-0.35966">
        <ele>70.3</ele>
        <time>2013-03-10T09:59:56.000Z</time>
      </trkpt>
      <trkpt lat="46.08834" lon="-0.35976">
        <ele>70.2</ele>
        <time>2013-03-10T09:59:57.000Z</time>
      </trkpt>
      <trkpt lat="46.08837" lon="-0.35988">
        <ele>69.8</ele>
        <time>2013-03-10T09:59:58.000Z</time>
      </trkpt>
      <trkpt lat="46.08841" lon="-0.35999">
        <ele>69.4</ele>
        <time>2013-03-10T09:59:59.000Z</time>
      </trkpt>
      <trkpt lat="46.08844" lon="-0.3601">
        <ele>69</ele>
        <time>2013-03-10T10:00:00.000Z</time>
      </trkpt>
      <trkpt lat="46.08848" lon="-0.36021">
        <ele>68.8</ele>
        <time>2013-03-10T10:00:01.000Z</time>
      </trkpt>
      <trkpt lat="46.08851" lon="-0.36033">
        <ele>68.2</ele>
        <time>2013-03-10T10:00:02.000Z</time>
      </trkpt>
      <trkpt lat="46.08854" lon="-0.36044">
        <ele>67.8</ele>
        <time>2013-03-10T10:00:03.000Z</time>
      </trkpt>
      <trkpt lat="46.08856" lon="-0.36057">
        <ele>67.5</ele>
        <time>2013-03-10T10:00:04.000Z</time>
      </trkpt>
      <trkpt lat="46.08857" lon="-0.36069">
        <ele>67.4</ele>
        <time>2013-03-10T10:00:05.000Z</time>
      </trkpt>
      <trkpt lat="46.08858" lon="-0.36082">
        <ele>67.3</ele>
        <time>2013-03-10T10:00:06.000Z</time>
      </trkpt>
      <trkpt lat="46.08857" lon="-0.36094">
        <ele>66.9</ele>
        <time>2013-03-10T10:00:07.000Z</time>
      </trkpt>
      <trkpt lat="46.08855" lon="-0.36107">
        <ele>66.7</ele>
        <time>2013-03-10T10:00:08.000Z</time>
      </trkpt>
      <trkpt lat="46.08852" lon="-0.36119">
        <ele>66.5</ele>
        <time>2013-03-10T10:00:09.000Z</time>
      </trkpt>
      <trkpt lat="46.08849" lon="-0.36131">
        <ele>66.6</ele>
        <time>2013-03-10T10:00:10.000Z</time>
      </trkpt>
      <trkpt lat="46.08844" lon="-0.36142">
        <ele>66.7</ele>
        <time>2013-03-10T10:00:11.000Z</time>
      </trkpt>
      <trkpt lat="46.0884" lon="-0.36153">
        <ele>66.6</ele>
        <time>2013-03-10T10:00:12.000Z</time>
      </trkpt>
      <trkpt lat="46.08835" lon="-0.36164">
        <ele>66.6</ele>
        <time>2013-03-10T10:00:13.000Z</time>
      </trkpt>
      <trkpt lat="46.08832" lon="-0.36176">
        <ele>66</ele>
        <time>2013-03-10T10:00:14.000Z</time>
      </trkpt>
      <trkpt lat="46.08829" lon="-0.36188">
        <ele>65.6</ele>
        <time>2013-03-10T10:00:15.000Z</time>
      </trkpt>
      <trkpt lat="46.08826" lon="-0.362">
        <ele>65.2</ele>
        <time>2013-03-10T10:00:16.000Z</time>
      </trkpt>
      <trkpt lat="46.08823" lon="-0.36211">
        <ele>64.8</ele>
        <time>2013-03-10T10:00:17.000Z</time>
      </trkpt>
      <trkpt lat="46.08821" lon="-0.36223">
        <ele>64.5</ele>
        <time>2013-03-10T10:00:18.000Z</time>
      </trkpt>
      <trkpt lat="46.08819" lon="-0.36235">
        <ele>64</ele>
        <time>2013-03-10T10:00:19.000Z</time>
      </trkpt>
      <trkpt lat="46.08817" lon="-0.36247">
        <ele>63.6</ele>
        <time>2013-03-10T10:00:20.000Z</time>
      </trkpt>
      <trkpt lat="46.08816" lon="-0.36258">
        <ele>62.8</ele>
        <time>2013-03-10T10:00:21.000Z</time>
      </trkpt>
      <trkpt lat="46.08815" lon="-0.3627">
        <ele>62.3</ele>
        <time>2013-03-10T10:00:22.000Z</time>
      </trkpt>
      <trkpt lat="46.08814" lon="-0.36281">
        <ele>61.8</ele>
        <time>2013-03-10T10:00:23.000Z</time>
      </trkpt>
      <trkpt lat="46.08813" lon="-0.36293">
        <ele>61.5</ele>
        <time>2013-03-10T10:00:24.000Z</time>
      </trkpt>
      <trkpt lat="46.08812" lon="-0.36304">
        <ele>61.3</ele>
        <time>2013-03-10T10:00:25.000Z</time>
      </trkpt>
      <trkpt lat="46.08812" lon="-0.36316">
        <ele>60.9</ele>
        <time>2013-03-10T10:00:26.000Z</time>
      </trkpt>
      <trkpt lat="46.08812" lon="-0.36327">
        <ele>60.6</ele>
        <time>2013-03-10T10:00:27.000Z</time>
      </trkpt>
      <trkpt lat="46.08813" lon="-0.36339">
        <ele>60.4</ele>
        <time>2013-03-10T10:00:28.000Z</time>
      </trkpt>
      <trkpt lat="46.08814" lon="-0.3635">
        <ele>60</ele>
        <time>2013-03-10T10:00:29.000Z</time>
      </trkpt>
      <trkpt lat="46.08816" lon="-0.36361">
        <ele>59.7</ele>
        <time>2013-03-10T10:00:30.000Z</time>
      </trkpt>
      <trkpt lat="46.08817" lon="-0.36372">
        <ele>59.5</ele>
        <time>2013-03-10T10:00:31.000Z</time>
      </trkpt>
      <trkpt lat="46.08819" lon="-0.36383">
        <ele>59.4</ele>
        <time>2013-03-10T10:00:32.000Z</time>
      </trkpt>
      <trkpt lat="46.08821" lon="-0.36392">
        <ele>58.5</ele>
        <time>2013-03-10T10:00:33.000Z</time>
      </trkpt>
      <trkpt lat="46.08823" lon="-0.36401">
        <ele>57.7</ele>
        <time>2013-03-10T10:00:34.000Z</time>
      </trkpt>
      <trkpt lat="46.08821" lon="-0.36413">
        <ele>56.9</ele>
        <time>2013-03-10T10:00:36.000Z</time>
      </trkpt>
      <trkpt lat="46.08814" lon="-0.36417">
        <ele>56.5</ele>
        <time>2013-03-10T10:00:38.000Z</time>
      </trkpt>
      <trkpt lat="46.08807" lon="-0.36415">
        <ele>56.5</ele>
        <time>2013-03-10T10:00:40.000Z</time>
      </trkpt>
      <trkpt lat="46.08799" lon="-0.36415">
        <ele>56.6</ele>
        <time>2013-03-10T10:00:42.000Z</time>
      </trkpt>
      <trkpt lat="46.0879" lon="-0.36413">
        <ele>56.5</ele>
        <time>2013-03-10T10:00:44.000Z</time>
      </trkpt>
      <trkpt lat="46.08782" lon="-0.36409">
        <ele>56.6</ele>
        <time>2013-03-10T10:00:46.000Z</time>
      </trkpt>
      <trkpt lat="46.08778" lon="-0.36405">
        <ele>56.7</ele>
        <time>2013-03-10T10:00:47.000Z</time>
      </trkpt>
      <trkpt lat="46.08774" lon="-0.36401">
        <ele>56.8</ele>
        <time>2013-03-10T10:00:48.000Z</time>
      </trkpt>
      <trkpt lat="46.08771" lon="-0.36397">
        <ele>56.9</ele>
        <time>2013-03-10T10:00:49.000Z</time>
      </trkpt>
      <trkpt lat="46.08767" lon="-0.36392">
        <ele>57.2</ele>
        <time>2013-03-10T10:00:50.000Z</time>
      </trkpt>
      <trkpt lat="46.08763" lon="-0.36389">
        <ele>57.4</ele>
        <time>2013-03-10T10:00:51.000Z</time>
      </trkpt>
      <trkpt lat="46.08758" lon="-0.36384">
        <ele>57.7</ele>
        <time>2013-03-10T10:00:52.000Z</time>
      </trkpt>
      <trkpt lat="46.08754" lon="-0.3638">
        <ele>57.9</ele>
        <time>2013-03-10T10:00:53.000Z</time>
      </trkpt>
      <trkpt lat="46.0875" lon="-0.36376">
        <ele>58</ele>
        <time>2013-03-10T10:00:54.000Z</time>
      </trkpt>
      <trkpt lat="46.08746" lon="-0.36372">
        <ele>58.2</ele>
        <time>2013-03-10T10:00:55.000Z</time>
      </trkpt>
      <trkpt lat="46.08743" lon="-0.36367">
        <ele>58.3</ele>
        <time>2013-03-10T10:00:56.000Z</time>
      </trkpt>
      <trkpt lat="46.08739" lon="-0.36362">
        <ele>58.2</ele>
        <time>2013-03-10T10:00:57.000Z</time>
      </trkpt>
      <trkpt lat="46.08735" lon="-0.36357">
        <ele>58</ele>
        <time>2013-03-10T10:00:58.000Z</time>
      </trkpt>
      <trkpt lat="46.08732" lon="-0.36352">
        <ele>58.4</ele>
        <time>2013-03-10T10:00:59.000Z</time>
      </trkpt>
      <trkpt lat="46.08728" lon="-0.36347">
        <ele>58.7</ele>
        <time>2013-03-10T10:01:00.000Z</time>
      </trkpt>
      <trkpt lat="46.08725" lon="-0.36342">
        <ele>58.9</ele>
        <time>2013-03-10T10:01:01.000Z</time>
      </trkpt>
      <trkpt lat="46.08722" lon="-0.36337">
        <ele>59.1</ele>
        <time>2013-03-10T10:01:02.000Z</time>
      </trkpt>
      <trkpt lat="46.08716" lon="-0.36328">
        <ele>59.6</ele>
        <time>2013-03-10T10:01:04.000Z</time>
      </trkpt>
      <trkpt lat="46.0871" lon="-0.36318">
        <ele>59.9</ele>
        <time>2013-03-10T10:01:06.000Z</time>
      </trkpt>
      <trkpt lat="46.08707" lon="-0.36313">
        <ele>60.1</ele>
        <time>2013-03-10T10:01:07.000Z</time>
      </trkpt>
      <trkpt lat="46.08704" lon="-0.36309">
        <ele>60.3</ele>
        <time>2013-03-10T10:01:08.000Z</time>
      </trkpt>
      <trkpt lat="46.08701" lon="-0.36304">
        <ele>60.3</ele>
        <time>2013-03-10T10:01:09.000Z</time>
      </trkpt>
      <trkpt lat="46.08698" lon="-0.36299">
        <ele>60.3</ele>
        <time>2013-03-10T10:01:10.000Z</time>
      </trkpt>
      <trkpt lat="46.08695" lon="-0.36294">
        <ele>60.2</ele>
        <time>2013-03-10T10:01:11.000Z</time>
      </trkpt>
      <trkpt lat="46.08692" lon="-0.36289">
        <ele>60.2</ele>
        <time>2013-03-10T10:01:12.000Z</time>
      </trkpt>
      <trkpt lat="46.08688" lon="-0.36285">
        <ele>60.2</ele>
        <time>2013-03-10T10:01:13.000Z</time>
      </trkpt>
      <trkpt lat="46.08685" lon="-0.3628">
        <ele>60.5</ele>
        <time>2013-03-10T10:01:14.000Z</time>
      </trkpt>
      <trkpt lat="46.08683" lon="-0.36274">
        <ele>60.7</ele>
        <time>2013-03-10T10:01:15.000Z</time>
      </trkpt>
      <trkpt lat="46.0868" lon="-0.36269">
        <ele>60.8</ele>
        <time>2013-03-10T10:01:16.000Z</time>
      </trkpt>
      <trkpt lat="46.08677" lon="-0.36264">
        <ele>60.9</ele>
        <time>2013-03-10T10:01:17.000Z</time>
      </trkpt>
      <trkpt lat="46.08674" lon="-0.36259">
        <ele>61.1</ele>
        <time>2013-03-10T10:01:18.000Z</time>
      </trkpt>
      <trkpt lat="46.08671" lon="-0.36254">
        <ele>61.2</ele>
        <time>2013-03-10T10:01:19.000Z</time>
      </trkpt>
      <trkpt lat="46.08666" lon="-0.36244">
        <ele>61.7</ele>
        <time>2013-03-10T10:01:21.000Z</time>
      </trkpt>
      <trkpt lat="46.0866" lon="-0.36234">
        <ele>62</ele>
        <time>2013-03-10T10:01:23.000Z</time>
      </trkpt>
      <trkpt lat="46.08657" lon="-0.36229">
        <ele>62.1</ele>
        <time>2013-03-10T10:01:24.000Z</time>
      </trkpt>
      <trkpt lat="46.08655" lon="-0.36223">
        <ele>62.2</ele>
        <time>2013-03-10T10:01:25.000Z</time>
      </trkpt>
      <trkpt lat="46.08652" lon="-0.36218">
        <ele>62.1</ele>
        <time>2013-03-10T10:01:26.000Z</time>
      </trkpt>
      <trkpt lat="46.08649" lon="-0.36213">
        <ele>62.1</ele>
        <time>2013-03-10T10:01:27.000Z</time>
      </trkpt>
      <trkpt lat="46.08646" lon="-0.36208">
        <ele>62.4</ele>
        <time>2013-03-10T10:01:28.000Z</time>
      </trkpt>
      <trkpt lat="46.08643" lon="-0.36203">
        <ele>62.7</ele>
        <time>2013-03-10T10:01:29.000Z</time>
      </trkpt>
      <trkpt lat="46.08638" lon="-0.36193">
        <ele>62.3</ele>
        <time>2013-03-10T10:01:31.000Z</time>
      </trkpt>
      <trkpt lat="46.08632" lon="-0.36184">
        <ele>62.2</ele>
        <time>2013-03-10T10:01:33.000Z</time>
      </trkpt>
      <trkpt lat="46.08627" lon="-0.36175">
        <ele>62.5</ele>
        <time>2013-03-10T10:01:35.000Z</time>
      </trkpt>
      <trkpt lat="46.08622" lon="-0.36167">
        <ele>63.1</ele>
        <time>2013-03-10T10:01:37.000Z</time>
      </trkpt>
      <trkpt lat="46.08617" lon="-0.36159">
        <ele>63.8</ele>
        <time>2013-03-10T10:01:39.000Z</time>
      </trkpt>
      <trkpt lat="46.08613" lon="-0.36151">
        <ele>64.1</ele>
        <time>2013-03-10T10:01:41.000Z</time>
      </trkpt>
      <trkpt lat="46.08609" lon="-0.36144">
        <ele>64.5</ele>
        <time>2013-03-10T10:01:43.000Z</time>
      </trkpt>
      <trkpt lat="46.08606" lon="-0.36137">
        <ele>64.5</ele>
        <time>2013-03-10T10:01:45.000Z</time>
      </trkpt>
      <trkpt lat="46.08602" lon="-0.3613">
        <ele>65</ele>
        <time>2013-03-10T10:01:47.000Z</time>
      </trkpt>
      <trkpt lat="46.08599" lon="-0.36122">
        <ele>65.8</ele>
        <time>2013-03-10T10:01:49.000Z</time>
      </trkpt>
      <trkpt lat="46.08595" lon="-0.36115">
        <ele>66.4</ele>
        <time>2013-03-10T10:01:51.000Z</time>
      </trkpt>
      <trkpt lat="46.08592" lon="-0.36107">
        <ele>66.3</ele>
        <time>2013-03-10T10:01:53.000Z</time>
      </trkpt>
      <trkpt lat="46.08587" lon="-0.361">
        <ele>67.3</ele>
        <time>2013-03-10T10:01:55.000Z</time>
      </trkpt>
      <trkpt lat="46.08583" lon="-0.36093">
        <ele>67.4</ele>
        <time>2013-03-10T10:01:57.000Z</time>
      </trkpt>
      <trkpt lat="46.0858" lon="-0.3609">
        <ele>67.4</ele>
        <time>2013-03-10T10:01:58.000Z</time>
      </trkpt>
      <trkpt lat="46.08569" lon="-0.36083">
        <ele>68</ele>
        <time>2013-03-10T10:02:02.000Z</time>
      </trkpt>
      <trkpt lat="46.08563" lon="-0.36081">
        <ele>68.7</ele>
        <time>2013-03-10T10:02:04.000Z</time>
      </trkpt>
      <trkpt lat="46.08557" lon="-0.36079">
        <ele>69.1</ele>
        <time>2013-03-10T10:02:06.000Z</time>
      </trkpt>
      <trkpt lat="46.08551" lon="-0.36078">
        <ele>69.6</ele>
        <time>2013-03-10T10:02:08.000Z</time>
      </trkpt>
      <trkpt lat="46.08545" lon="-0.36076">
        <ele>70</ele>
        <time>2013-03-10T10:02:10.000Z</time>
      </trkpt>
      <trkpt lat="46.08536" lon="-0.36075">
        <ele>69.9</ele>
        <time>2013-03-10T10:02:13.000Z</time>
      </trkpt>
      <trkpt lat="46.08527" lon="-0.36073">
        <ele>69.9</ele>
        <time>2013-03-10T10:02:16.000Z</time>
      </trkpt>
      <trkpt lat="46.0852" lon="-0.36072">
        <ele>70.1</ele>
        <time>2013-03-10T10:02:18.000Z</time>
      </trkpt>
      <trkpt lat="46.08513" lon="-0.3607">
        <ele>70</ele>
        <time>2013-03-10T10:02:20.000Z</time>
      </trkpt>
      <trkpt lat="46.08506" lon="-0.36068">
        <ele>69.8</ele>
        <time>2013-03-10T10:02:22.000Z</time>
      </trkpt>
      <trkpt lat="46.08499" lon="-0.36065">
        <ele>69.8</ele>
        <time>2013-03-10T10:02:24.000Z</time>
      </trkpt>
      <trkpt lat="46.08492" lon="-0.36061">
        <ele>70.2</ele>
        <time>2013-03-10T10:02:26.000Z</time>
      </trkpt>
      <trkpt lat="46.08485" lon="-0.36056">
        <ele>70.4</ele>
        <time>2013-03-10T10:02:28.000Z</time>
      </trkpt>
      <trkpt lat="46.0848" lon="-0.36052">
        <ele>70.4</ele>
        <time>2013-03-10T10:02:30.000Z</time>
      </trkpt>
      <trkpt lat="46.08473" lon="-0.36048">
        <ele>70.3</ele>
        <time>2013-03-10T10:02:32.000Z</time>
      </trkpt>
      <trkpt lat="46.08467" lon="-0.36044">
        <ele>70.3</ele>
        <time>2013-03-10T10:02:34.000Z</time>
      </trkpt>
      <trkpt lat="46.0846" lon="-0.3604">
        <ele>70.5</ele>
        <time>2013-03-10T10:02:36.000Z</time>
      </trkpt>
      <trkpt lat="46.08453" lon="-0.36036">
        <ele>70.2</ele>
        <time>2013-03-10T10:02:38.000Z</time>
      </trkpt>
      <trkpt lat="46.08445" lon="-0.36034">
        <ele>70.5</ele>
        <time>2013-03-10T10:02:40.000Z</time>
      </trkpt>
      <trkpt lat="46.08437" lon="-0.36032">
        <ele>70.6</ele>
        <time>2013-03-10T10:02:42.000Z</time>
      </trkpt>
      <trkpt lat="46.08429" lon="-0.3603">
        <ele>70.5</ele>
        <time>2013-03-10T10:02:44.000Z</time>
      </trkpt>
      <trkpt lat="46.08421" lon="-0.36029">
        <ele>70.3</ele>
        <time>2013-03-10T10:02:46.000Z</time>
      </trkpt>
      <trkpt lat="46.08412" lon="-0.36027">
        <ele>70.2</ele>
        <time>2013-03-10T10:02:48.000Z</time>
      </trkpt>
      <trkpt lat="46.08404" lon="-0.36022">
        <ele>70.8</ele>
        <time>2013-03-10T10:02:50.000Z</time>
      </trkpt>
      <trkpt lat="46.08397" lon="-0.36015">
        <ele>70.5</ele>
        <time>2013-03-10T10:02:52.000Z</time>
      </trkpt>
      <trkpt lat="46.08393" lon="-0.3601">
        <ele>70.4</ele>
        <time>2013-03-10T10:02:53.000Z</time>
      </trkpt>
      <trkpt lat="46.0839" lon="-0.36005">
        <ele>70.3</ele>
        <time>2013-03-10T10:02:54.000Z</time>
      </trkpt>
      <trkpt lat="46.08386" lon="-0.36">
        <ele>70.2</ele>
        <time>2013-03-10T10:02:55.000Z</time>
      </trkpt>
      <trkpt lat="46.08382" lon="-0.35994">
        <ele>70.4</ele>
        <time>2013-03-10T10:02:56.000Z</time>
      </trkpt>
      <trkpt lat="46.08378" lon="-0.35988">
        <ele>70.5</ele>
        <time>2013-03-10T10:02:57.000Z</time>
      </trkpt>
      <trkpt lat="46.08374" lon="-0.35982">
        <ele>70.2</ele>
        <time>2013-03-10T10:02:58.000Z</time>
      </trkpt>
      <trkpt lat="46.08371" lon="-0.35976">
        <ele>70</ele>
        <time>2013-03-10T10:02:59.000Z</time>
      </trkpt>
      <trkpt lat="46.08368" lon="-0.3597">
        <ele>70</ele>
        <time>2013-03-10T10:03:00.000Z</time>
      </trkpt>
      <trkpt lat="46.08365" lon="-0.35963">
        <ele>69.9</ele>
        <time>2013-03-10T10:03:01.000Z</time>
      </trkpt>
      <trkpt lat="46.08362" lon="-0.35957">
        <ele>69.9</ele>
        <time>2013-03-10T10:03:02.000Z</time>
      </trkpt>
      <trkpt lat="46.08359" lon="-0.35951">
        <ele>70.4</ele>
        <time>2013-03-10T10:03:03.000Z</time>
      </trkpt>
      <trkpt lat="46.08356" lon="-0.35945">
        <ele>70.7</ele>
        <time>2013-03-10T10:03:04.000Z</time>
      </trkpt>
      <trkpt lat="46.08353" lon="-0.3594">
        <ele>70.1</ele>
        <time>2013-03-10T10:03:05.000Z</time>
      </trkpt>
      <trkpt lat="46.08351" lon="-0.35934">
        <ele>69.6</ele>
        <time>2013-03-10T10:03:06.000Z</time>
      </trkpt>
      <trkpt lat="46.08348" lon="-0.35929">
        <ele>69.3</ele>
        <time>2013-03-10T10:03:07.000Z</time>
      </trkpt>
      <trkpt lat="46.08343" lon="-0.35918">
        <ele>69.5</ele>
        <time>2013-03-10T10:03:09.000Z</time>
      </trkpt>
      <trkpt lat="46.08338" lon="-0.35908">
        <ele>70.1</ele>
        <time>2013-03-10T10:03:11.000Z</time>
      </trkpt>
      <trkpt lat="46.08333" lon="-0.35899">
        <ele>69.8</ele>
        <time>2013-03-10T10:03:13.000Z</time>
      </trkpt>
      <trkpt lat="46.08328" lon="-0.35891">
        <ele>69.9</ele>
        <time>2013-03-10T10:03:15.000Z</time>
      </trkpt>
      <trkpt lat="46.08322" lon="-0.35883">
        <ele>70.4</ele>
        <time>2013-03-10T10:03:17.000Z</time>
      </trkpt>
      <trkpt lat="46.08316" lon="-0.35876">
        <ele>70.6</ele>
        <time>2013-03-10T10:03:19.000Z</time>
      </trkpt>
      <trkpt lat="46.0831" lon="-0.35871">
        <ele>70.5</ele>
        <time>2013-03-10T10:03:21.000Z</time>
      </trkpt>
      <trkpt lat="46.08303" lon="-0.35865">
        <ele>71.1</ele>
        <time>2013-03-10T10:03:24.000Z</time>
      </trkpt>
      <trkpt lat="46.08297" lon="-0.35859">
        <ele>71.7</ele>
        <time>2013-03-10T10:03:26.000Z</time>
      </trkpt>
      <trkpt lat="46.08292" lon="-0.35853">
        <ele>71.6</ele>
        <time>2013-03-10T10:03:28.000Z</time>
      </trkpt>
      <trkpt lat="46.08287" lon="-0.35846">
        <ele>71.7</ele>
        <time>2013-03-10T10:03:30.000Z</time>
      </trkpt>
      <trkpt lat="46.08281" lon="-0.35839">
        <ele>72</ele>
        <time>2013-03-10T10:03:32.000Z</time>
      </trkpt>
      <trkpt lat="46.08275" lon="-0.35834">
        <ele>72.7</ele>
        <time>2013-03-10T10:03:34.000Z</time>
      </trkpt>
      <trkpt lat="46.08269" lon="-0.35831">
        <ele>73</ele>
        <time>2013-03-10T10:03:36.000Z</time>
      </trkpt>
      <trkpt lat="46.08263" lon="-0.35831">
        <ele>73</ele>
        <time>2013-03-10T10:03:38.000Z</time>
      </trkpt>
      <trkpt lat="46.08256" lon="-0.35834">
        <ele>73.2</ele>
        <time>2013-03-10T10:03:40.000Z</time>
      </trkpt>
      <trkpt lat="46.0825" lon="-0.35837">
        <ele>73.3</ele>
        <time>2013-03-10T10:03:42.000Z</time>
      </trkpt>
      <trkpt lat="46.08243" lon="-0.35843">
        <ele>73.7</ele>
        <time>2013-03-10T10:03:45.000Z</time>
      </trkpt>
      <trkpt lat="46.08235" lon="-0.35846">
        <ele>74.3</ele>
        <time>2013-03-10T10:03:48.000Z</time>
      </trkpt>
      <trkpt lat="46.08226" lon="-0.35844">
        <ele>74.9</ele>
        <time>2013-03-10T10:03:51.000Z</time>
      </trkpt>
      <trkpt lat="46.08219" lon="-0.35837">
        <ele>75.3</ele>
        <time>2013-03-10T10:03:54.000Z</time>
      </trkpt>
      <trkpt lat="46.08212" lon="-0.3583">
        <ele>75.8</ele>
        <time>2013-03-10T10:03:58.000Z</time>
      </trkpt>
      <trkpt lat="46.08207" lon="-0.35824">
        <ele>76.4</ele>
        <time>2013-03-10T10:04:01.000Z</time>
      </trkpt>
      <trkpt lat="46.08205" lon="-0.35821">
        <ele>76.8</ele>
        <time>2013-03-10T10:04:02.000Z</time>
      </trkpt>
      <trkpt lat="46.08194" lon="-0.35807">
        <ele>77.5</ele>
        <time>2013-03-10T10:04:07.000Z</time>
      </trkpt>
      <trkpt lat="46.08188" lon="-0.35801">
        <ele>77.9</ele>
        <time>2013-03-10T10:04:10.000Z</time>
      </trkpt>
      <trkpt lat="46.08183" lon="-0.35794">
        <ele>78.2</ele>
        <time>2013-03-10T10:04:13.000Z</time>
      </trkpt>
      <trkpt lat="46.08178" lon="-0.35788">
        <ele>78.3</ele>
        <time>2013-03-10T10:04:16.000Z</time>
      </trkpt>
      <trkpt lat="46.08172" lon="-0.3578">
        <ele>78.1</ele>
        <time>2013-03-10T10:04:19.000Z</time>
      </trkpt>
      <trkpt lat="46.08166" lon="-0.35773">
        <ele>78.2</ele>
        <time>2013-03-10T10:04:22.000Z</time>
      </trkpt>
      <trkpt lat="46.0816" lon="-0.35765">
        <ele>78.3</ele>
        <time>2013-03-10T10:04:25.000Z</time>
      </trkpt>
      <trkpt lat="46.08154" lon="-0.35758">
        <ele>79</ele>
        <time>2013-03-10T10:04:28.000Z</time>
      </trkpt>
      <trkpt lat="46.08149" lon="-0.35751">
        <ele>79.5</ele>
        <time>2013-03-10T10:04:31.000Z</time>
      </trkpt>
      <trkpt lat="46.08142" lon="-0.35742">
        <ele>79.5</ele>
        <time>2013-03-10T10:04:35.000Z</time>
      </trkpt>
      <trkpt lat="46.08137" lon="-0.35736">
        <ele>79.6</ele>
        <time>2013-03-10T10:04:37.000Z</time>
      </trkpt>
      <trkpt lat="46.08133" lon="-0.35728">
        <ele>80</ele>
        <time>2013-03-10T10:04:39.000Z</time>
      </trkpt>
      <trkpt lat="46.08127" lon="-0.3572">
        <ele>80.5</ele>
        <time>2013-03-10T10:04:42.000Z</time>
      </trkpt>
      <trkpt lat="46.08121" lon="-0.35712">
        <ele>80.9</ele>
        <time>2013-03-10T10:04:45.000Z</time>
      </trkpt>
      <trkpt lat="46.08114" lon="-0.35705">
        <ele>80.8</ele>
        <time>2013-03-10T10:04:48.000Z</time>
      </trkpt>
      <trkpt lat="46.08108" lon="-0.35697">
        <ele>81</ele>
        <time>2013-03-10T10:04:51.000Z</time>
      </trkpt>
      <trkpt lat="46.08103" lon="-0.3569">
        <ele>81</ele>
        <time>2013-03-10T10:04:54.000Z</time>
      </trkpt>
      <trkpt lat="46.08098" lon="-0.35682">
        <ele>81.3</ele>
        <time>2013-03-10T10:04:57.000Z</time>
      </trkpt>
      <trkpt lat="46.08093" lon="-0.35673">
        <ele>80.9</ele>
        <time>2013-03-10T10:05:00.000Z</time>
      </trkpt>
      <trkpt lat="46.08086" lon="-0.35666">
        <ele>80.9</ele>
        <time>2013-03-10T10:05:03.000Z</time>
      </trkpt>
      <trkpt lat="46.08083" lon="-0.35664">
        <ele>81</ele>
        <time>2013-03-10T10:05:04.000Z</time>
      </trkpt>
      <trkpt lat="46.08071" lon="-0.3567">
        <ele>82.5</ele>
        <time>2013-03-10T10:05:09.000Z</time>
      </trkpt>
      <trkpt lat="46.08065" lon="-0.35674">
        <ele>82.5</ele>
        <time>2013-03-10T10:05:12.000Z</time>
      </trkpt>
      <trkpt lat="46.08057" lon="-0.35681">
        <ele>82.4</ele>
        <time>2013-03-10T10:05:16.000Z</time>
      </trkpt>
      <trkpt lat="46.0805" lon="-0.35687">
        <ele>82.7</ele>
        <time>2013-03-10T10:05:19.000Z</time>
      </trkpt>
      <trkpt lat="46.08044" lon="-0.35693">
        <ele>82.9</ele>
        <time>2013-03-10T10:05:23.000Z</time>
      </trkpt>
      <trkpt lat="46.08038" lon="-0.35699">
        <ele>82.7</ele>
        <time>2013-03-10T10:05:26.000Z</time>
      </trkpt>
      <trkpt lat="46.08031" lon="-0.35707">
        <ele>83.1</ele>
        <time>2013-03-10T10:05:29.000Z</time>
      </trkpt>
      <trkpt lat="46.08026" lon="-0.35712">
        <ele>83.5</ele>
        <time>2013-03-10T10:05:31.000Z</time>
      </trkpt>
      <trkpt lat="46.08021" lon="-0.35719">
        <ele>83.5</ele>
        <time>2013-03-10T10:05:33.000Z</time>
      </trkpt>
      <trkpt lat="46.08016" lon="-0.35726">
        <ele>83.5</ele>
        <time>2013-03-10T10:05:35.000Z</time>
      </trkpt>
      <trkpt lat="46.0801" lon="-0.35732">
        <ele>83.6</ele>
        <time>2013-03-10T10:05:37.000Z</time>
      </trkpt>
      <trkpt lat="46.08003" lon="-0.35739">
        <ele>83.5</ele>
        <time>2013-03-10T10:05:39.000Z</time>
      </trkpt>
      <trkpt lat="46.07996" lon="-0.35746">
        <ele>83.4</ele>
        <time>2013-03-10T10:05:41.000Z</time>
      </trkpt>
      <trkpt lat="46.0799" lon="-0.35752">
        <ele>83.8</ele>
        <time>2013-03-10T10:05:43.000Z</time>
      </trkpt>
      <trkpt lat="46.07983" lon="-0.3576">
        <ele>84.2</ele>
        <time>2013-03-10T10:05:45.000Z</time>
      </trkpt>
      <trkpt lat="46.07976" lon="-0.35767">
        <ele>84.5</ele>
        <time>2013-03-10T10:05:47.000Z</time>
      </trkpt>
      <trkpt lat="46.07972" lon="-0.35771">
        <ele>84.5</ele>
        <time>2013-03-10T10:05:48.000Z</time>
      </trkpt>
      <trkpt lat="46.07969" lon="-0.35775">
        <ele>84.7</ele>
        <time>2013-03-10T10:05:49.000Z</time>
      </trkpt>
      <trkpt lat="46.07965" lon="-0.35779">
        <ele>84.9</ele>
        <time>2013-03-10T10:05:50.000Z</time>
      </trkpt>
      <trkpt lat="46.07962" lon="-0.35784">
        <ele>85.1</ele>
        <time>2013-03-10T10:05:51.000Z</time>
      </trkpt>
      <trkpt lat="46.07955" lon="-0.35792">
        <ele>85.3</ele>
        <time>2013-03-10T10:05:53.000Z</time>
      </trkpt>
      <trkpt lat="46.07949" lon="-0.358">
        <ele>85</ele>
        <time>2013-03-10T10:05:55.000Z</time>
      </trkpt>
      <trkpt lat="46.07942" lon="-0.35807">
        <ele>85.2</ele>
        <time>2013-03-10T10:05:57.000Z</time>
      </trkpt>
      <trkpt lat="46.07936" lon="-0.35814">
        <ele>85.2</ele>
        <time>2013-03-10T10:05:59.000Z</time>
      </trkpt>
      <trkpt lat="46.07931" lon="-0.35821">
        <ele>85</ele>
        <time>2013-03-10T10:06:01.000Z</time>
      </trkpt>
      <trkpt lat="46.07926" lon="-0.35827">
        <ele>84.7</ele>
        <time>2013-03-10T10:06:03.000Z</time>
      </trkpt>
      <trkpt lat="46.0792" lon="-0.35833">
        <ele>84.6</ele>
        <time>2013-03-10T10:06:05.000Z</time>
      </trkpt>
      <trkpt lat="46.07917" lon="-0.35836">
        <ele>84.6</ele>
        <time>2013-03-10T10:06:06.000Z</time>
      </trkpt>
      <trkpt lat="46.07908" lon="-0.35848">
        <ele>84.5</ele>
        <time>2013-03-10T10:06:09.000Z</time>
      </trkpt>
      <trkpt lat="46.07904" lon="-0.35852">
        <ele>84.7</ele>
        <time>2013-03-10T10:06:10.000Z</time>
      </trkpt>
      <trkpt lat="46.07901" lon="-0.35857">
        <ele>84.8</ele>
        <time>2013-03-10T10:06:11.000Z</time>
      </trkpt>
      <trkpt lat="46.07897" lon="-0.35862">
        <ele>84.9</ele>
        <time>2013-03-10T10:06:12.000Z</time>
      </trkpt>
      <trkpt lat="46.07893" lon="-0.35866">
        <ele>84.8</ele>
        <time>2013-03-10T10:06:13.000Z</time>
      </trkpt>
      <trkpt lat="46.0789" lon="-0.35871">
        <ele>84.7</ele>
        <time>2013-03-10T10:06:14.000Z</time>
      </trkpt>
      <trkpt lat="46.07886" lon="-0.35876">
        <ele>84.8</ele>
        <time>2013-03-10T10:06:15.000Z</time>
      </trkpt>
      <trkpt lat="46.07883" lon="-0.3588">
        <ele>84.9</ele>
        <time>2013-03-10T10:06:16.000Z</time>
      </trkpt>
      <trkpt lat="46.07879" lon="-0.35884">
        <ele>85.1</ele>
        <time>2013-03-10T10:06:17.000Z</time>
      </trkpt>
      <trkpt lat="46.07876" lon="-0.35888">
        <ele>85.2</ele>
        <time>2013-03-10T10:06:18.000Z</time>
      </trkpt>
      <trkpt lat="46.07872" lon="-0.35893">
        <ele>85.3</ele>
        <time>2013-03-10T10:06:19.000Z</time>
      </trkpt>
      <trkpt lat="46.07869" lon="-0.35897">
        <ele>84.8</ele>
        <time>2013-03-10T10:06:20.000Z</time>
      </trkpt>
      <trkpt lat="46.07865" lon="-0.35901">
        <ele>84.4</ele>
        <time>2013-03-10T10:06:21.000Z</time>
      </trkpt>
      <trkpt lat="46.07861" lon="-0.35906">
        <ele>84.2</ele>
        <time>2013-03-10T10:06:22.000Z</time>
      </trkpt>
      <trkpt lat="46.07857" lon="-0.35911">
        <ele>84.1</ele>
        <time>2013-03-10T10:06:23.000Z</time>
      </trkpt>
      <trkpt lat="46.07853" lon="-0.35916">
        <ele>84</ele>
        <time>2013-03-10T10:06:24.000Z</time>
      </trkpt>
      <trkpt lat="46.07849" lon="-0.35921">
        <ele>83.9</ele>
        <time>2013-03-10T10:06:25.000Z</time>
      </trkpt>
      <trkpt lat="46.07845" lon="-0.35926">
        <ele>83.8</ele>
        <time>2013-03-10T10:06:26.000Z</time>
      </trkpt>
      <trkpt lat="46.07841" lon="-0.35931">
        <ele>83.8</ele>
        <time>2013-03-10T10:06:27.000Z</time>
      </trkpt>
      <trkpt lat="46.07837" lon="-0.35936">
        <ele>83.8</ele>
        <time>2013-03-10T10:06:28.000Z</time>
      </trkpt>
      <trkpt lat="46.07833" lon="-0.35941">
        <ele>83.6</ele>
        <time>2013-03-10T10:06:29.000Z</time>
      </trkpt>
      <trkpt lat="46.07829" lon="-0.35947">
        <ele>83.4</ele>
        <time>2013-03-10T10:06:30.000Z</time>
      </trkpt>
      <trkpt lat="46.07824" lon="-0.35952">
        <ele>83.3</ele>
        <time>2013-03-10T10:06:31.000Z</time>
      </trkpt>
      <trkpt lat="46.0782" lon="-0.35957">
        <ele>83.4</ele>
        <time>2013-03-10T10:06:32.000Z</time>
      </trkpt>
      <trkpt lat="46.07816" lon="-0.35963">
        <ele>83.4</ele>
        <time>2013-03-10T10:06:33.000Z</time>
      </trkpt>
      <trkpt lat="46.07812" lon="-0.35969">
        <ele>83.2</ele>
        <time>2013-03-10T10:06:34.000Z</time>
      </trkpt>
      <trkpt lat="46.07808" lon="-0.35974">
        <ele>83</ele>
        <time>2013-03-10T10:06:35.000Z</time>
      </trkpt>
      <trkpt lat="46.07803" lon="-0.3598">
        <ele>82.7</ele>
        <time>2013-03-10T10:06:36.000Z</time>
      </trkpt>
      <trkpt lat="46.07799" lon="-0.35986">
        <ele>82.5</ele>
        <time>2013-03-10T10:06:37.000Z</time>
      </trkpt>
      <trkpt lat="46.07794" lon="-0.35992">
        <ele>82.3</ele>
        <time>2013-03-10T10:06:38.000Z</time>
      </trkpt>
      <trkpt lat="46.0779" lon="-0.35998">
        <ele>82.4</ele>
        <time>2013-03-10T10:06:39.000Z</time>
      </trkpt>
      <trkpt lat="46.07785" lon="-0.36003">
        <ele>82.4</ele>
        <time>2013-03-10T10:06:40.000Z</time>
      </trkpt>
      <trkpt lat="46.07781" lon="-0.36009">
        <ele>82.3</ele>
        <time>2013-03-10T10:06:41.000Z</time>
      </trkpt>
      <trkpt lat="46.07777" lon="-0.36013">
        <ele>82.3</ele>
        <time>2013-03-10T10:06:42.000Z</time>
      </trkpt>
      <trkpt lat="46.07775" lon="-0.36023">
        <ele>81.9</ele>
        <time>2013-03-10T10:06:44.000Z</time>
      </trkpt>
      <trkpt lat="46.07778" lon="-0.36031">
        <ele>81.6</ele>
        <time>2013-03-10T10:06:46.000Z</time>
      </trkpt>
      <trkpt lat="46.07784" lon="-0.36039">
        <ele>81.5</ele>
        <time>2013-03-10T10:06:48.000Z</time>
      </trkpt>
      <trkpt lat="46.0779" lon="-0.36046">
        <ele>81.4</ele>
        <time>2013-03-10T10:06:50.000Z</time>
      </trkpt>
      <trkpt lat="46.07796" lon="-0.36054">
        <ele>81.3</ele>
        <time>2013-03-10T10:06:52.000Z</time>
      </trkpt>
      <trkpt lat="46.07801" lon="-0.36062">
        <ele>81.4</ele>
        <time>2013-03-10T10:06:54.000Z</time>
      </trkpt>
      <trkpt lat="46.07807" lon="-0.36071">
        <ele>81.1</ele>
        <time>2013-03-10T10:06:56.000Z</time>
      </trkpt>
      <trkpt lat="46.07813" lon="-0.3608">
        <ele>80.9</ele>
        <time>2013-03-10T10:06:58.000Z</time>
      </trkpt>
      <trkpt lat="46.07819" lon="-0.3609">
        <ele>80.7</ele>
        <time>2013-03-10T10:07:00.000Z</time>
      </trkpt>
      <trkpt lat="46.07824" lon="-0.361">
        <ele>80.7</ele>
        <time>2013-03-10T10:07:02.000Z</time>
      </trkpt>
      <trkpt lat="46.07827" lon="-0.36105">
        <ele>80.4</ele>
        <time>2013-03-10T10:07:03.000Z</time>
      </trkpt>
      <trkpt lat="46.0783" lon="-0.3611">
        <ele>80.2</ele>
        <time>2013-03-10T10:07:04.000Z</time>
      </trkpt>
      <trkpt lat="46.07834" lon="-0.36115">
        <ele>80.3</ele>
        <time>2013-03-10T10:07:05.000Z</time>
      </trkpt>
      <trkpt lat="46.07837" lon="-0.3612">
        <ele>80.5</ele>
        <time>2013-03-10T10:07:06.000Z</time>
      </trkpt>
      <trkpt lat="46.0784" lon="-0.36126">
        <ele>80.6</ele>
        <time>2013-03-10T10:07:07.000Z</time>
      </trkpt>
      <trkpt lat="46.07843" lon="-0.36131">
        <ele>80.7</ele>
        <time>2013-03-10T10:07:08.000Z</time>
      </trkpt>
      <trkpt lat="46.07846" lon="-0.36137">
        <ele>80.8</ele>
        <time>2013-03-10T10:07:09.000Z</time>
      </trkpt>
      <trkpt lat="46.07849" lon="-0.36142">
        <ele>80.7</ele>
        <time>2013-03-10T10:07:10.000Z</time>
      </trkpt>
      <trkpt lat="46.07853" lon="-0.36147">
        <ele>80.7</ele>
        <time>2013-03-10T10:07:11.000Z</time>
      </trkpt>
      <trkpt lat="46.07856" lon="-0.36153">
        <ele>80.8</ele>
        <time>2013-03-10T10:07:12.000Z</time>
      </trkpt>
      <trkpt lat="46.07859" lon="-0.36158">
        <ele>80.9</ele>
        <time>2013-03-10T10:07:13.000Z</time>
      </trkpt>
      <trkpt lat="46.07863" lon="-0.36163">
        <ele>81.1</ele>
        <time>2013-03-10T10:07:14.000Z</time>
      </trkpt>
      <trkpt lat="46.07866" lon="-0.36168">
        <ele>81.3</ele>
        <time>2013-03-10T10:07:15.000Z</time>
      </trkpt>
      <trkpt lat="46.07869" lon="-0.36173">
        <ele>81.4</ele>
        <time>2013-03-10T10:07:16.000Z</time>
      </trkpt>
      <trkpt lat="46.07873" lon="-0.36178">
        <ele>81.1</ele>
        <time>2013-03-10T10:07:17.000Z</time>
      </trkpt>
      <trkpt lat="46.07876" lon="-0.36183">
        <ele>80.9</ele>
        <time>2013-03-10T10:07:18.000Z</time>
      </trkpt>
      <trkpt lat="46.07879" lon="-0.36188">
        <ele>81.1</ele>
        <time>2013-03-10T10:07:19.000Z</time>
      </trkpt>
      <trkpt lat="46.07883" lon="-0.36194">
        <ele>81.3</ele>
        <time>2013-03-10T10:07:20.000Z</time>
      </trkpt>
      <trkpt lat="46.07886" lon="-0.36199">
        <ele>81.4</ele>
        <time>2013-03-10T10:07:21.000Z</time>
      </trkpt>
      <trkpt lat="46.07889" lon="-0.36204">
        <ele>81.4</ele>
        <time>2013-03-10T10:07:22.000Z</time>
      </trkpt>
      <trkpt lat="46.07892" lon="-0.3621">
        <ele>81.4</ele>
        <time>2013-03-10T10:07:23.000Z</time>
      </trkpt>
      <trkpt lat="46.07896" lon="-0.36215">
        <ele>81.2</ele>
        <time>2013-03-10T10:07:24.000Z</time>
      </trkpt>
      <trkpt lat="46.079" lon="-0.3622">
        <ele>81</ele>
        <time>2013-03-10T10:07:25.000Z</time>
      </trkpt>
      <trkpt lat="46.07903" lon="-0.36226">
        <ele>81.4</ele>
        <time>2013-03-10T10:07:26.000Z</time>
      </trkpt>
      <trkpt lat="46.07906" lon="-0.36231">
        <ele>81.8</ele>
        <time>2013-03-10T10:07:27.000Z</time>
      </trkpt>
      <trkpt lat="46.0791" lon="-0.36237">
        <ele>82</ele>
        <time>2013-03-10T10:07:28.000Z</time>
      </trkpt>
      <trkpt lat="46.07914" lon="-0.36242">
        <ele>82.1</ele>
        <time>2013-03-10T10:07:29.000Z</time>
      </trkpt>
      <trkpt lat="46.07918" lon="-0.36248">
        <ele>82.1</ele>
        <time>2013-03-10T10:07:30.000Z</time>
      </trkpt>
      <trkpt lat="46.07921" lon="-0.36254">
        <ele>82.1</ele>
        <time>2013-03-10T10:07:31.000Z</time>
      </trkpt>
      <trkpt lat="46.07925" lon="-0.3626">
        <ele>82.1</ele>
        <time>2013-03-10T10:07:32.000Z</time>
      </trkpt>
      <trkpt lat="46.07928" lon="-0.36265">
        <ele>82.1</ele>
        <time>2013-03-10T10:07:33.000Z</time>
      </trkpt>
      <trkpt lat="46.07932" lon="-0.36271">
        <ele>82.2</ele>
        <time>2013-03-10T10:07:34.000Z</time>
      </trkpt>
      <trkpt lat="46.07935" lon="-0.36277">
        <ele>82.2</ele>
        <time>2013-03-10T10:07:35.000Z</time>
      </trkpt>
      <trkpt lat="46.07939" lon="-0.36283">
        <ele>82.3</ele>
        <time>2013-03-10T10:07:36.000Z</time>
      </trkpt>
      <trkpt lat="46.07942" lon="-0.36289">
        <ele>82.3</ele>
        <time>2013-03-10T10:07:37.000Z</time>
      </trkpt>
      <trkpt lat="46.07946" lon="-0.36295">
        <ele>82</ele>
        <time>2013-03-10T10:07:38.000Z</time>
      </trkpt>
      <trkpt lat="46.07949" lon="-0.36301">
        <ele>81.8</ele>
        <time>2013-03-10T10:07:39.000Z</time>
      </trkpt>
      <trkpt lat="46.07952" lon="-0.36307">
        <ele>81.7</ele>
        <time>2013-03-10T10:07:40.000Z</time>
      </trkpt>
      <trkpt lat="46.07955" lon="-0.36314">
        <ele>81.7</ele>
        <time>2013-03-10T10:07:41.000Z</time>
      </trkpt>
      <trkpt lat="46.07957" lon="-0.3632">
        <ele>81.7</ele>
        <time>2013-03-10T10:07:42.000Z</time>
      </trkpt>
      <trkpt lat="46.07961" lon="-0.36326">
        <ele>82</ele>
        <time>2013-03-10T10:07:43.000Z</time>
      </trkpt>
      <trkpt lat="46.07964" lon="-0.36331">
        <ele>82.3</ele>
        <time>2013-03-10T10:07:44.000Z</time>
      </trkpt>
      <trkpt lat="46.07967" lon="-0.36337">
        <ele>82</ele>
        <time>2013-03-10T10:07:45.000Z</time>
      </trkpt>
      <trkpt lat="46.0797" lon="-0.36342">
        <ele>81.8</ele>
        <time>2013-03-10T10:07:46.000Z</time>
      </trkpt>
      <trkpt lat="46.07973" lon="-0.36354">
        <ele>81.4</ele>
        <time>2013-03-10T10:07:48.000Z</time>
      </trkpt>
      <trkpt lat="46.07969" lon="-0.36364">
        <ele>81.3</ele>
        <time>2013-03-10T10:07:50.000Z</time>
      </trkpt>
      <trkpt lat="46.07964" lon="-0.36373">
        <ele>81.3</ele>
        <time>2013-03-10T10:07:52.000Z</time>
      </trkpt>
      <trkpt lat="46.0796" lon="-0.36382">
        <ele>81.2</ele>
        <time>2013-03-10T10:07:54.000Z</time>
      </trkpt>
      <trkpt lat="46.07957" lon="-0.36391">
        <ele>80.9</ele>
        <time>2013-03-10T10:07:56.000Z</time>
      </trkpt>
      <trkpt lat="46.07953" lon="-0.36399">
        <ele>80.8</ele>
        <time>2013-03-10T10:07:58.000Z</time>
      </trkpt>
      <trkpt lat="46.0795" lon="-0.36408">
        <ele>80.6</ele>
        <time>2013-03-10T10:08:00.000Z</time>
      </trkpt>
      <trkpt lat="46.07947" lon="-0.36418">
        <ele>80.4</ele>
        <time>2013-03-10T10:08:02.000Z</time>
      </trkpt>
      <trkpt lat="46.07943" lon="-0.36429">
        <ele>80.1</ele>
        <time>2013-03-10T10:08:04.000Z</time>
      </trkpt>
      <trkpt lat="46.07942" lon="-0.36435">
        <ele>80</ele>
        <time>2013-03-10T10:08:05.000Z</time>
      </trkpt>
      <trkpt lat="46.0794" lon="-0.36441">
        <ele>79.9</ele>
        <time>2013-03-10T10:08:06.000Z</time>
      </trkpt>
      <trkpt lat="46.07938" lon="-0.36448">
        <ele>79.9</ele>
        <time>2013-03-10T10:08:07.000Z</time>
      </trkpt>
      <trkpt lat="46.07935" lon="-0.36454">
        <ele>79.9</ele>
        <time>2013-03-10T10:08:08.000Z</time>
      </trkpt>
      <trkpt lat="46.07933" lon="-0.3646">
        <ele>79.7</ele>
        <time>2013-03-10T10:08:09.000Z</time>
      </trkpt>
      <trkpt lat="46.07931" lon="-0.36466">
        <ele>79.6</ele>
        <time>2013-03-10T10:08:10.000Z</time>
      </trkpt>
      <trkpt lat="46.07929" lon="-0.36473">
        <ele>79.5</ele>
        <time>2013-03-10T10:08:11.000Z</time>
      </trkpt>
      <trkpt lat="46.07927" lon="-0.36479">
        <ele>79.4</ele>
        <time>2013-03-10T10:08:12.000Z</time>
      </trkpt>
      <trkpt lat="46.07925" lon="-0.36486">
        <ele>79.3</ele>
        <time>2013-03-10T10:08:13.000Z</time>
      </trkpt>
      <trkpt lat="46.07923" lon="-0.36492">
        <ele>79.7</ele>
        <time>2013-03-10T10:08:14.000Z</time>
      </trkpt>
      <trkpt lat="46.07919" lon="-0.36503">
        <ele>79.9</ele>
        <time>2013-03-10T10:08:16.000Z</time>
      </trkpt>
      <trkpt lat="46.07919" lon="-0.36515">
        <ele>79.4</ele>
        <time>2013-03-10T10:08:18.000Z</time>
      </trkpt>
      <trkpt lat="46.07925" lon="-0.36523">
        <ele>78.8</ele>
        <time>2013-03-10T10:08:20.000Z</time>
      </trkpt>
      <trkpt lat="46.07932" lon="-0.36529">
        <ele>78.9</ele>
        <time>2013-03-10T10:08:22.000Z</time>
      </trkpt>
      <trkpt lat="46.07939" lon="-0.36532">
        <ele>78.9</ele>
        <time>2013-03-10T10:08:24.000Z</time>
      </trkpt>
      <trkpt lat="46.07947" lon="-0.36535">
        <ele>79</ele>
        <time>2013-03-10T10:08:26.000Z</time>
      </trkpt>
      <trkpt lat="46.07955" lon="-0.36537">
        <ele>79</ele>
        <time>2013-03-10T10:08:28.000Z</time>
      </trkpt>
      <trkpt lat="46.07963" lon="-0.36538">
        <ele>79</ele>
        <time>2013-03-10T10:08:30.000Z</time>
      </trkpt>
      <trkpt lat="46.07967" lon="-0.36539">
        <ele>79.1</ele>
        <time>2013-03-10T10:08:31.000Z</time>
      </trkpt>
      <trkpt lat="46.07972" lon="-0.36542">
        <ele>79.1</ele>
        <time>2013-03-10T10:08:32.000Z</time>
      </trkpt>
      <trkpt lat="46.07977" lon="-0.36545">
        <ele>79</ele>
        <time>2013-03-10T10:08:33.000Z</time>
      </trkpt>
      <trkpt lat="46.07981" lon="-0.36548">
        <ele>79</ele>
        <time>2013-03-10T10:08:34.000Z</time>
      </trkpt>
      <trkpt lat="46.07985" lon="-0.36552">
        <ele>78.7</ele>
        <time>2013-03-10T10:08:35.000Z</time>
      </trkpt>
      <trkpt lat="46.07989" lon="-0.36558">
        <ele>78.5</ele>
        <time>2013-03-10T10:08:36.000Z</time>
      </trkpt>
      <trkpt lat="46.07992" lon="-0.36563">
        <ele>78.4</ele>
        <time>2013-03-10T10:08:37.000Z</time>
      </trkpt>
      <trkpt lat="46.07996" lon="-0.36569">
        <ele>78.3</ele>
        <time>2013-03-10T10:08:38.000Z</time>
      </trkpt>
      <trkpt lat="46.08" lon="-0.36576">
        <ele>78.3</ele>
        <time>2013-03-10T10:08:39.000Z</time>
      </trkpt>
      <trkpt lat="46.08004" lon="-0.36583">
        <ele>78.6</ele>
        <time>2013-03-10T10:08:40.000Z</time>
      </trkpt>
      <trkpt lat="46.08008" lon="-0.36589">
        <ele>78.9</ele>
        <time>2013-03-10T10:08:41.000Z</time>
      </trkpt>
      <trkpt lat="46.08013" lon="-0.36596">
        <ele>78.6</ele>
        <time>2013-03-10T10:08:42.000Z</time>
      </trkpt>
      <trkpt lat="46.08017" lon="-0.36603">
        <ele>78.4</ele>
        <time>2013-03-10T10:08:43.000Z</time>
      </trkpt>
      <trkpt lat="46.08021" lon="-0.3661">
        <ele>78.2</ele>
        <time>2013-03-10T10:08:44.000Z</time>
      </trkpt>
      <trkpt lat="46.08025" lon="-0.36616">
        <ele>78.3</ele>
        <time>2013-03-10T10:08:45.000Z</time>
      </trkpt>
      <trkpt lat="46.0803" lon="-0.36622">
        <ele>78.4</ele>
        <time>2013-03-10T10:08:46.000Z</time>
      </trkpt>
      <trkpt lat="46.08034" lon="-0.36627">
        <ele>77.9</ele>
        <time>2013-03-10T10:08:47.000Z</time>
      </trkpt>
      <trkpt lat="46.08038" lon="-0.36632">
        <ele>77.6</ele>
        <time>2013-03-10T10:08:48.000Z</time>
      </trkpt>
      <trkpt lat="46.08043" lon="-0.36638">
        <ele>77.4</ele>
        <time>2013-03-10T10:08:49.000Z</time>
      </trkpt>
      <trkpt lat="46.08047" lon="-0.36643">
        <ele>77.2</ele>
        <time>2013-03-10T10:08:50.000Z</time>
      </trkpt>
      <trkpt lat="46.08052" lon="-0.36648">
        <ele>77.1</ele>
        <time>2013-03-10T10:08:51.000Z</time>
      </trkpt>
      <trkpt lat="46.08056" lon="-0.36654">
        <ele>76.9</ele>
        <time>2013-03-10T10:08:52.000Z</time>
      </trkpt>
      <trkpt lat="46.0806" lon="-0.36659">
        <ele>76.7</ele>
        <time>2013-03-10T10:08:53.000Z</time>
      </trkpt>
      <trkpt lat="46.08064" lon="-0.36665">
        <ele>76.3</ele>
        <time>2013-03-10T10:08:54.000Z</time>
      </trkpt>
      <trkpt lat="46.08069" lon="-0.36671">
        <ele>76</ele>
        <time>2013-03-10T10:08:55.000Z</time>
      </trkpt>
      <trkpt lat="46.08075" lon="-0.36677">
        <ele>75.8</ele>
        <time>2013-03-10T10:08:56.000Z</time>
      </trkpt>
      <trkpt lat="46.08081" lon="-0.36683">
        <ele>75.9</ele>
        <time>2013-03-10T10:08:57.000Z</time>
      </trkpt>
      <trkpt lat="46.08087" lon="-0.36689">
        <ele>76</ele>
        <time>2013-03-10T10:08:58.000Z</time>
      </trkpt>
      <trkpt lat="46.08094" lon="-0.36694">
        <ele>76.5</ele>
        <time>2013-03-10T10:08:59.000Z</time>
      </trkpt>
      <trkpt lat="46.081" lon="-0.36699">
        <ele>76.9</ele>
        <time>2013-03-10T10:09:00.000Z</time>
      </trkpt>
      <trkpt lat="46.08106" lon="-0.36703">
        <ele>76.7</ele>
        <time>2013-03-10T10:09:01.000Z</time>
      </trkpt>
      <trkpt lat="46.08112" lon="-0.36708">
        <ele>76.5</ele>
        <time>2013-03-10T10:09:02.000Z</time>
      </trkpt>
      <trkpt lat="46.08119" lon="-0.36712">
        <ele>76.4</ele>
        <time>2013-03-10T10:09:03.000Z</time>
      </trkpt>
      <trkpt lat="46.08125" lon="-0.36716">
        <ele>76.1</ele>
        <time>2013-03-10T10:09:04.000Z</time>
      </trkpt>
      <trkpt lat="46.08131" lon="-0.3672">
        <ele>75.8</ele>
        <time>2013-03-10T10:09:05.000Z</time>
      </trkpt>
      <trkpt lat="46.08138" lon="-0.36724">
        <ele>75.7</ele>
        <time>2013-03-10T10:09:06.000Z</time>
      </trkpt>
      <trkpt lat="46.08145" lon="-0.36728">
        <ele>75.6</ele>
        <time>2013-03-10T10:09:07.000Z</time>
      </trkpt>
      <trkpt lat="46.08151" lon="-0.36732">
        <ele>75.3</ele>
        <time>2013-03-10T10:09:08.000Z</time>
      </trkpt>
      <trkpt lat="46.08157" lon="-0.36738">
        <ele>75</ele>
        <time>2013-03-10T10:09:09.000Z</time>
      </trkpt>
      <trkpt lat="46.0816" lon="-0.36747">
        <ele>74.9</ele>
        <time>2013-03-10T10:09:10.000Z</time>
      </trkpt>
      <trkpt lat="46.0816" lon="-0.36757">
        <ele>74.9</ele>
        <time>2013-03-10T10:09:11.000Z</time>
      </trkpt>
      <trkpt lat="46.08159" lon="-0.36766">
        <ele>74.8</ele>
        <time>2013-03-10T10:09:12.000Z</time>
      </trkpt>
      <trkpt lat="46.08158" lon="-0.36776">
        <ele>74.9</ele>
        <time>2013-03-10T10:09:13.000Z</time>
      </trkpt>
      <trkpt lat="46.08157" lon="-0.36785">
        <ele>74.9</ele>
        <time>2013-03-10T10:09:14.000Z</time>
      </trkpt>
      <trkpt lat="46.08156" lon="-0.36794">
        <ele>74.5</ele>
        <time>2013-03-10T10:09:15.000Z</time>
      </trkpt>
      <trkpt lat="46.08155" lon="-0.36803">
        <ele>74.3</ele>
        <time>2013-03-10T10:09:16.000Z</time>
      </trkpt>
      <trkpt lat="46.08154" lon="-0.36811">
        <ele>74.1</ele>
        <time>2013-03-10T10:09:17.000Z</time>
      </trkpt>
      <trkpt lat="46.08153" lon="-0.3682">
        <ele>74.1</ele>
        <time>2013-03-10T10:09:18.000Z</time>
      </trkpt>
      <trkpt lat="46.08152" lon="-0.36829">
        <ele>74</ele>
        <time>2013-03-10T10:09:19.000Z</time>
      </trkpt>
      <trkpt lat="46.08151" lon="-0.36837">
        <ele>73.8</ele>
        <time>2013-03-10T10:09:20.000Z</time>
      </trkpt>
      <trkpt lat="46.0815" lon="-0.36846">
        <ele>73.6</ele>
        <time>2013-03-10T10:09:21.000Z</time>
      </trkpt>
      <trkpt lat="46.08149" lon="-0.36855">
        <ele>73.5</ele>
        <time>2013-03-10T10:09:22.000Z</time>
      </trkpt>
      <trkpt lat="46.08148" lon="-0.36864">
        <ele>73.5</ele>
        <time>2013-03-10T10:09:23.000Z</time>
      </trkpt>
      <trkpt lat="46.08147" lon="-0.36873">
        <ele>73.6</ele>
        <time>2013-03-10T10:09:24.000Z</time>
      </trkpt>
      <trkpt lat="46.08145" lon="-0.36882">
        <ele>73.7</ele>
        <time>2013-03-10T10:09:25.000Z</time>
      </trkpt>
      <trkpt lat="46.08144" lon="-0.36891">
        <ele>73.7</ele>
        <time>2013-03-10T10:09:26.000Z</time>
      </trkpt>
      <trkpt lat="46.08143" lon="-0.36899">
        <ele>73.9</ele>
        <time>2013-03-10T10:09:27.000Z</time>
      </trkpt>
      <trkpt lat="46.08142" lon="-0.36908">
        <ele>74</ele>
        <time>2013-03-10T10:09:28.000Z</time>
      </trkpt>
      <trkpt lat="46.08141" lon="-0.36917">
        <ele>74.1</ele>
        <time>2013-03-10T10:09:29.000Z</time>
      </trkpt>
      <trkpt lat="46.08139" lon="-0.36925">
        <ele>74.2</ele>
        <time>2013-03-10T10:09:30.000Z</time>
      </trkpt>
      <trkpt lat="46.08138" lon="-0.36934">
        <ele>74.3</ele>
        <time>2013-03-10T10:09:31.000Z</time>
      </trkpt>
      <trkpt lat="46.08137" lon="-0.36942">
        <ele>74.4</ele>
        <time>2013-03-10T10:09:32.000Z</time>
      </trkpt>
      <trkpt lat="46.08136" lon="-0.36951">
        <ele>74.5</ele>
        <time>2013-03-10T10:09:33.000Z</time>
      </trkpt>
      <trkpt lat="46.08135" lon="-0.36959">
        <ele>74.6</ele>
        <time>2013-03-10T10:09:34.000Z</time>
      </trkpt>
      <trkpt lat="46.08134" lon="-0.36968">
        <ele>74.7</ele>
        <time>2013-03-10T10:09:35.000Z</time>
      </trkpt>
      <trkpt lat="46.08133" lon="-0.36976">
        <ele>74.8</ele>
        <time>2013-03-10T10:09:36.000Z</time>
      </trkpt>
      <trkpt lat="46.08132" lon="-0.36985">
        <ele>74.9</ele>
        <time>2013-03-10T10:09:37.000Z</time>
      </trkpt>
      <trkpt lat="46.0813" lon="-0.36994">
        <ele>75.1</ele>
        <time>2013-03-10T10:09:38.000Z</time>
      </trkpt>
      <trkpt lat="46.08129" lon="-0.37002">
        <ele>74.6</ele>
        <time>2013-03-10T10:09:39.000Z</time>
      </trkpt>
      <trkpt lat="46.08128" lon="-0.3701">
        <ele>74.2</ele>
        <time>2013-03-10T10:09:40.000Z</time>
      </trkpt>
      <trkpt lat="46.08127" lon="-0.37018">
        <ele>73.9</ele>
        <time>2013-03-10T10:09:41.000Z</time>
      </trkpt>
      <trkpt lat="46.08122" lon="-0.37027">
        <ele>73.9</ele>
        <time>2013-03-10T10:09:43.000Z</time>
      </trkpt>
      <trkpt lat="46.08114" lon="-0.37026">
        <ele>74.4</ele>
        <time>2013-03-10T10:09:45.000Z</time>
      </trkpt>
      <trkpt lat="46.08108" lon="-0.37022">
        <ele>73.5</ele>
        <time>2013-03-10T10:09:47.000Z</time>
      </trkpt>
      <trkpt lat="46.08101" lon="-0.37019">
        <ele>73.6</ele>
        <time>2013-03-10T10:09:49.000Z</time>
      </trkpt>
      <trkpt lat="46.08093" lon="-0.37016">
        <ele>73.9</ele>
        <time>2013-03-10T10:09:51.000Z</time>
      </trkpt>
      <trkpt lat="46.08086" lon="-0.37012">
        <ele>74.3</ele>
        <time>2013-03-10T10:09:53.000Z</time>
      </trkpt>
      <trkpt lat="46.08079" lon="-0.37009">
        <ele>75</ele>
        <time>2013-03-10T10:09:55.000Z</time>
      </trkpt>
      <trkpt lat="46.08072" lon="-0.37006">
        <ele>75.3</ele>
        <time>2013-03-10T10:09:57.000Z</time>
      </trkpt>
      <trkpt lat="46.08064" lon="-0.37004">
        <ele>75.6</ele>
        <time>2013-03-10T10:09:59.000Z</time>
      </trkpt>
      <trkpt lat="46.08057" lon="-0.37">
        <ele>75.7</ele>
        <time>2013-03-10T10:10:01.000Z</time>
      </trkpt>
      <trkpt lat="46.08049" lon="-0.36997">
        <ele>75.6</ele>
        <time>2013-03-10T10:10:03.000Z</time>
      </trkpt>
      <trkpt lat="46.0804" lon="-0.36993">
        <ele>75.5</ele>
        <time>2013-03-10T10:10:05.000Z</time>
      </trkpt>
      <trkpt lat="46.08032" lon="-0.36989">
        <ele>75.5</ele>
        <time>2013-03-10T10:10:07.000Z</time>
      </trkpt>
      <trkpt lat="46.08024" lon="-0.36985">
        <ele>76.1</ele>
        <time>2013-03-10T10:10:09.000Z</time>
      </trkpt>
      <trkpt lat="46.08016" lon="-0.36981">
        <ele>76.9</ele>
        <time>2013-03-10T10:10:11.000Z</time>
      </trkpt>
      <trkpt lat="46.08008" lon="-0.36977">
        <ele>76.8</ele>
        <time>2013-03-10T10:10:13.000Z</time>
      </trkpt>
      <trkpt lat="46.08004" lon="-0.36976">
        <ele>76.8</ele>
        <time>2013-03-10T10:10:14.000Z</time>
      </trkpt>
      <trkpt lat="46.07992" lon="-0.36971">
        <ele>76.8</ele>
        <time>2013-03-10T10:10:17.000Z</time>
      </trkpt>
      <trkpt lat="46.07984" lon="-0.36968">
        <ele>76.9</ele>
        <time>2013-03-10T10:10:19.000Z</time>
      </trkpt>
      <trkpt lat="46.07975" lon="-0.36964">
        <ele>77.4</ele>
        <time>2013-03-10T10:10:21.000Z</time>
      </trkpt>
      <trkpt lat="46.07967" lon="-0.36958">
        <ele>77.8</ele>
        <time>2013-03-10T10:10:23.000Z</time>
      </trkpt>
      <trkpt lat="46.0796" lon="-0.36951">
        <ele>77.8</ele>
        <time>2013-03-10T10:10:25.000Z</time>
      </trkpt>
      <trkpt lat="46.07952" lon="-0.36944">
        <ele>78.1</ele>
        <time>2013-03-10T10:10:27.000Z</time>
      </trkpt>
      <trkpt lat="46.07948" lon="-0.36941">
        <ele>78.3</ele>
        <time>2013-03-10T10:10:28.000Z</time>
      </trkpt>
      <trkpt lat="46.07944" lon="-0.36938">
        <ele>78.1</ele>
        <time>2013-03-10T10:10:29.000Z</time>
      </trkpt>
      <trkpt lat="46.07935" lon="-0.36936">
        <ele>78.1</ele>
        <time>2013-03-10T10:10:31.000Z</time>
      </trkpt>
      <trkpt lat="46.07931" lon="-0.36936">
        <ele>78.2</ele>
        <time>2013-03-10T10:10:32.000Z</time>
      </trkpt>
      <trkpt lat="46.07926" lon="-0.36936">
        <ele>78.2</ele>
        <time>2013-03-10T10:10:33.000Z</time>
      </trkpt>
      <trkpt lat="46.07921" lon="-0.36935">
        <ele>78.2</ele>
        <time>2013-03-10T10:10:34.000Z</time>
      </trkpt>
      <trkpt lat="46.07917" lon="-0.36935">
        <ele>78.2</ele>
        <time>2013-03-10T10:10:35.000Z</time>
      </trkpt>
      <trkpt lat="46.07912" lon="-0.36935">
        <ele>78.3</ele>
        <time>2013-03-10T10:10:36.000Z</time>
      </trkpt>
      <trkpt lat="46.07903" lon="-0.36935">
        <ele>78.4</ele>
        <time>2013-03-10T10:10:38.000Z</time>
      </trkpt>
      <trkpt lat="46.07899" lon="-0.36935">
        <ele>78.2</ele>
        <time>2013-03-10T10:10:39.000Z</time>
      </trkpt>
      <trkpt lat="46.07894" lon="-0.36934">
        <ele>78.1</ele>
        <time>2013-03-10T10:10:40.000Z</time>
      </trkpt>
      <trkpt lat="46.07889" lon="-0.36934">
        <ele>78</ele>
        <time>2013-03-10T10:10:41.000Z</time>
      </trkpt>
      <trkpt lat="46.07884" lon="-0.36933">
        <ele>77.9</ele>
        <time>2013-03-10T10:10:42.000Z</time>
      </trkpt>
      <trkpt lat="46.07879" lon="-0.36933">
        <ele>77.8</ele>
        <time>2013-03-10T10:10:43.000Z</time>
      </trkpt>
      <trkpt lat="46.07874" lon="-0.36932">
        <ele>77.7</ele>
        <time>2013-03-10T10:10:44.000Z</time>
      </trkpt>
      <trkpt lat="46.07869" lon="-0.36931">
        <ele>77.6</ele>
        <time>2013-03-10T10:10:45.000Z</time>
      </trkpt>
      <trkpt lat="46.07864" lon="-0.3693">
        <ele>77.3</ele>
        <time>2013-03-10T10:10:46.000Z</time>
      </trkpt>
      <trkpt lat="46.07859" lon="-0.36929">
        <ele>77</ele>
        <time>2013-03-10T10:10:47.000Z</time>
      </trkpt>
      <trkpt lat="46.07855" lon="-0.36929">
        <ele>76.9</ele>
        <time>2013-03-10T10:10:48.000Z</time>
      </trkpt>
      <trkpt lat="46.0785" lon="-0.36929">
        <ele>76.9</ele>
        <time>2013-03-10T10:10:49.000Z</time>
      </trkpt>
      <trkpt lat="46.07845" lon="-0.36928">
        <ele>76.7</ele>
        <time>2013-03-10T10:10:50.000Z</time>
      </trkpt>
      <trkpt lat="46.0784" lon="-0.36927">
        <ele>76.6</ele>
        <time>2013-03-10T10:10:51.000Z</time>
      </trkpt>
      <trkpt lat="46.07834" lon="-0.36927">
        <ele>76.5</ele>
        <time>2013-03-10T10:10:52.000Z</time>
      </trkpt>
      <trkpt lat="46.07829" lon="-0.36927">
        <ele>76.3</ele>
        <time>2013-03-10T10:10:53.000Z</time>
      </trkpt>
      <trkpt lat="46.07823" lon="-0.36928">
        <ele>76.2</ele>
        <time>2013-03-10T10:10:54.000Z</time>
      </trkpt>
      <trkpt lat="46.07818" lon="-0.36929">
        <ele>75.9</ele>
        <time>2013-03-10T10:10:55.000Z</time>
      </trkpt>
      <trkpt lat="46.07813" lon="-0.36929">
        <ele>75.7</ele>
        <time>2013-03-10T10:10:56.000Z</time>
      </trkpt>
      <trkpt lat="46.07807" lon="-0.3693">
        <ele>75.5</ele>
        <time>2013-03-10T10:10:57.000Z</time>
      </trkpt>
      <trkpt lat="46.07801" lon="-0.36931">
        <ele>75.5</ele>
        <time>2013-03-10T10:10:58.000Z</time>
      </trkpt>
      <trkpt lat="46.07796" lon="-0.36931">
        <ele>75.5</ele>
        <time>2013-03-10T10:10:59.000Z</time>
      </trkpt>
      <trkpt lat="46.0779" lon="-0.36932">
        <ele>75.5</ele>
        <time>2013-03-10T10:11:00.000Z</time>
      </trkpt>
      <trkpt lat="46.07785" lon="-0.36933">
        <ele>75.5</ele>
        <time>2013-03-10T10:11:01.000Z</time>
      </trkpt>
      <trkpt lat="46.07779" lon="-0.36934">
        <ele>75.4</ele>
        <time>2013-03-10T10:11:02.000Z</time>
      </trkpt>
      <trkpt lat="46.07773" lon="-0.36936">
        <ele>75.3</ele>
        <time>2013-03-10T10:11:03.000Z</time>
      </trkpt>
      <trkpt lat="46.07767" lon="-0.36938">
        <ele>75.3</ele>
        <time>2013-03-10T10:11:04.000Z</time>
      </trkpt>
      <trkpt lat="46.07761" lon="-0.3694">
        <ele>75</ele>
        <time>2013-03-10T10:11:05.000Z</time>
      </trkpt>
      <trkpt lat="46.07756" lon="-0.36943">
        <ele>74.8</ele>
        <time>2013-03-10T10:11:06.000Z</time>
      </trkpt>
      <trkpt lat="46.07751" lon="-0.36947">
        <ele>74.3</ele>
        <time>2013-03-10T10:11:07.000Z</time>
      </trkpt>
      <trkpt lat="46.07745" lon="-0.3695">
        <ele>73.9</ele>
        <time>2013-03-10T10:11:08.000Z</time>
      </trkpt>
      <trkpt lat="46.0774" lon="-0.36954">
        <ele>73.9</ele>
        <time>2013-03-10T10:11:09.000Z</time>
      </trkpt>
      <trkpt lat="46.07735" lon="-0.36958">
        <ele>73.9</ele>
        <time>2013-03-10T10:11:10.000Z</time>
      </trkpt>
      <trkpt lat="46.07729" lon="-0.36963">
        <ele>73.9</ele>
        <time>2013-03-10T10:11:11.000Z</time>
      </trkpt>
      <trkpt lat="46.07723" lon="-0.36966">
        <ele>73.8</ele>
        <time>2013-03-10T10:11:12.000Z</time>
      </trkpt>
      <trkpt lat="46.07717" lon="-0.36968">
        <ele>73.8</ele>
        <time>2013-03-10T10:11:13.000Z</time>
      </trkpt>
      <trkpt lat="46.0771" lon="-0.3697">
        <ele>73.7</ele>
        <time>2013-03-10T10:11:14.000Z</time>
      </trkpt>
      <trkpt lat="46.07704" lon="-0.36972">
        <ele>73.6</ele>
        <time>2013-03-10T10:11:15.000Z</time>
      </trkpt>
      <trkpt lat="46.07697" lon="-0.36974">
        <ele>73.3</ele>
        <time>2013-03-10T10:11:16.000Z</time>
      </trkpt>
      <trkpt lat="46.07691" lon="-0.36975">
        <ele>73.2</ele>
        <time>2013-03-10T10:11:17.000Z</time>
      </trkpt>
      <trkpt lat="46.07684" lon="-0.36975">
        <ele>73</ele>
        <time>2013-03-10T10:11:18.000Z</time>
      </trkpt>
      <trkpt lat="46.07678" lon="-0.36975">
        <ele>72.9</ele>
        <time>2013-03-10T10:11:19.000Z</time>
      </trkpt>
      <trkpt lat="46.07672" lon="-0.36974">
        <ele>72.7</ele>
        <time>2013-03-10T10:11:20.000Z</time>
      </trkpt>
      <trkpt lat="46.07666" lon="-0.36974">
        <ele>72</ele>
        <time>2013-03-10T10:11:21.000Z</time>
      </trkpt>
      <trkpt lat="46.07661" lon="-0.36973">
        <ele>71.5</ele>
        <time>2013-03-10T10:11:22.000Z</time>
      </trkpt>
      <trkpt lat="46.07655" lon="-0.36971">
        <ele>71</ele>
        <time>2013-03-10T10:11:23.000Z</time>
      </trkpt>
      <trkpt lat="46.07649" lon="-0.3697">
        <ele>70.9</ele>
        <time>2013-03-10T10:11:24.000Z</time>
      </trkpt>
      <trkpt lat="46.07644" lon="-0.36969">
        <ele>70.7</ele>
        <time>2013-03-10T10:11:25.000Z</time>
      </trkpt>
      <trkpt lat="46.07638" lon="-0.36967">
        <ele>70.2</ele>
        <time>2013-03-10T10:11:26.000Z</time>
      </trkpt>
      <trkpt lat="46.07633" lon="-0.36965">
        <ele>69.9</ele>
        <time>2013-03-10T10:11:27.000Z</time>
      </trkpt>
      <trkpt lat="46.07628" lon="-0.36963">
        <ele>69.5</ele>
        <time>2013-03-10T10:11:28.000Z</time>
      </trkpt>
      <trkpt lat="46.07623" lon="-0.36962">
        <ele>69.3</ele>
        <time>2013-03-10T10:11:29.000Z</time>
      </trkpt>
      <trkpt lat="46.07614" lon="-0.36963">
        <ele>68.4</ele>
        <time>2013-03-10T10:11:31.000Z</time>
      </trkpt>
      <trkpt lat="46.07609" lon="-0.36964">
        <ele>67.9</ele>
        <time>2013-03-10T10:11:32.000Z</time>
      </trkpt>
      <trkpt lat="46.07603" lon="-0.36965">
        <ele>67.5</ele>
        <time>2013-03-10T10:11:33.000Z</time>
      </trkpt>
      <trkpt lat="46.07597" lon="-0.36966">
        <ele>67.3</ele>
        <time>2013-03-10T10:11:34.000Z</time>
      </trkpt>
      <trkpt lat="46.0759" lon="-0.36966">
        <ele>66.8</ele>
        <time>2013-03-10T10:11:35.000Z</time>
      </trkpt>
      <trkpt lat="46.07584" lon="-0.36967">
        <ele>66.4</ele>
        <time>2013-03-10T10:11:36.000Z</time>
      </trkpt>
      <trkpt lat="46.07578" lon="-0.36969">
        <ele>66.1</ele>
        <time>2013-03-10T10:11:37.000Z</time>
      </trkpt>
      <trkpt lat="46.07573" lon="-0.36974">
        <ele>65.7</ele>
        <time>2013-03-10T10:11:38.000Z</time>
      </trkpt>
      <trkpt lat="46.0757" lon="-0.36981">
        <ele>65.4</ele>
        <time>2013-03-10T10:11:39.000Z</time>
      </trkpt>
      <trkpt lat="46.07568" lon="-0.36988">
        <ele>64.6</ele>
        <time>2013-03-10T10:11:40.000Z</time>
      </trkpt>
      <trkpt lat="46.07567" lon="-0.36996">
        <ele>64</ele>
        <time>2013-03-10T10:11:41.000Z</time>
      </trkpt>
      <trkpt lat="46.07566" lon="-0.37003">
        <ele>63.5</ele>
        <time>2013-03-10T10:11:42.000Z</time>
      </trkpt>
      <trkpt lat="46.07565" lon="-0.37011">
        <ele>62.7</ele>
        <time>2013-03-10T10:11:43.000Z</time>
      </trkpt>
      <trkpt lat="46.07564" lon="-0.37019">
        <ele>62.1</ele>
        <time>2013-03-10T10:11:44.000Z</time>
      </trkpt>
      <trkpt lat="46.07563" lon="-0.37026">
        <ele>61.9</ele>
        <time>2013-03-10T10:11:45.000Z</time>
      </trkpt>
      <trkpt lat="46.07562" lon="-0.37034">
        <ele>61.7</ele>
        <time>2013-03-10T10:11:46.000Z</time>
      </trkpt>
      <trkpt lat="46.07561" lon="-0.37042">
        <ele>61.4</ele>
        <time>2013-03-10T10:11:47.000Z</time>
      </trkpt>
      <trkpt lat="46.0756" lon="-0.37049">
        <ele>61.1</ele>
        <time>2013-03-10T10:11:48.000Z</time>
      </trkpt>
      <trkpt lat="46.07559" lon="-0.37062">
        <ele>60.9</ele>
        <time>2013-03-10T10:11:50.000Z</time>
      </trkpt>
      <trkpt lat="46.07557" lon="-0.37073">
        <ele>60.7</ele>
        <time>2013-03-10T10:11:52.000Z</time>
      </trkpt>
      <trkpt lat="46.07557" lon="-0.37081">
        <ele>60.5</ele>
        <time>2013-03-10T10:11:53.000Z</time>
      </trkpt>
      <trkpt lat="46.07556" lon="-0.37088">
        <ele>60.4</ele>
        <time>2013-03-10T10:11:54.000Z</time>
      </trkpt>
      <trkpt lat="46.07555" lon="-0.37096">
        <ele>60.4</ele>
        <time>2013-03-10T10:11:55.000Z</time>
      </trkpt>
      <trkpt lat="46.07554" lon="-0.37104">
        <ele>60.3</ele>
        <time>2013-03-10T10:11:56.000Z</time>
      </trkpt>
      <trkpt lat="46.07553" lon="-0.37112">
        <ele>60</ele>
        <time>2013-03-10T10:11:57.000Z</time>
      </trkpt>
      <trkpt lat="46.07552" lon="-0.3712">
        <ele>59.7</ele>
        <time>2013-03-10T10:11:58.000Z</time>
      </trkpt>
      <trkpt lat="46.07551" lon="-0.37127">
        <ele>59.9</ele>
        <time>2013-03-10T10:11:59.000Z</time>
      </trkpt>
      <trkpt lat="46.07549" lon="-0.37139">
        <ele>60.1</ele>
        <time>2013-03-10T10:12:01.000Z</time>
      </trkpt>
      <trkpt lat="46.07545" lon="-0.37151">
        <ele>59.7</ele>
        <time>2013-03-10T10:12:03.000Z</time>
      </trkpt>
      <trkpt lat="46.07543" lon="-0.37158">
        <ele>59.4</ele>
        <time>2013-03-10T10:12:04.000Z</time>
      </trkpt>
      <trkpt lat="46.07541" lon="-0.37165">
        <ele>59.3</ele>
        <time>2013-03-10T10:12:05.000Z</time>
      </trkpt>
      <trkpt lat="46.07539" lon="-0.37172">
        <ele>59.4</ele>
        <time>2013-03-10T10:12:06.000Z</time>
      </trkpt>
      <trkpt lat="46.07536" lon="-0.37183">
        <ele>59.5</ele>
        <time>2013-03-10T10:12:08.000Z</time>
      </trkpt>
      <trkpt lat="46.07533" lon="-0.37194">
        <ele>59.3</ele>
        <time>2013-03-10T10:12:10.000Z</time>
      </trkpt>
      <trkpt lat="46.07531" lon="-0.37201">
        <ele>59.3</ele>
        <time>2013-03-10T10:12:11.000Z</time>
      </trkpt>
      <trkpt lat="46.07529" lon="-0.37207">
        <ele>59.3</ele>
        <time>2013-03-10T10:12:12.000Z</time>
      </trkpt>
      <trkpt lat="46.07528" lon="-0.37213">
        <ele>59.2</ele>
        <time>2013-03-10T10:12:13.000Z</time>
      </trkpt>
      <trkpt lat="46.07523" lon="-0.37224">
        <ele>59</ele>
        <time>2013-03-10T10:12:15.000Z</time>
      </trkpt>
      <trkpt lat="46.07523" lon="-0.37237">
        <ele>59</ele>
        <time>2013-03-10T10:12:23.000Z</time>
      </trkpt>
      <trkpt lat="46.07523" lon="-0.37238">
        <ele>59.3</ele>
        <time>2013-03-10T10:12:24.000Z</time>
      </trkpt>
      <trkpt lat="46.07527" lon="-0.37259">
        <ele>61.7</ele>
        <time>2013-03-10T10:12:39.000Z</time>
      </trkpt>
      <trkpt lat="46.07526" lon="-0.3727">
        <ele>62.1</ele>
        <time>2013-03-10T10:12:48.000Z</time>
      </trkpt>
      <trkpt lat="46.07525" lon="-0.37282">
        <ele>62</ele>
        <time>2013-03-10T10:12:53.000Z</time>
      </trkpt>
      <trkpt lat="46.07531" lon="-0.3729">
        <ele>62.9</ele>
        <time>2013-03-10T10:13:01.000Z</time>
      </trkpt>
      <trkpt lat="46.07537" lon="-0.37299">
        <ele>64</ele>
        <time>2013-03-10T10:13:11.000Z</time>
      </trkpt>
      <trkpt lat="46.07543" lon="-0.37306">
        <ele>64.1</ele>
        <time>2013-03-10T10:13:15.000Z</time>
      </trkpt>
      <trkpt lat="46.0755" lon="-0.37313">
        <ele>65.1</ele>
        <time>2013-03-10T10:13:20.000Z</time>
      </trkpt>
      <trkpt lat="46.07556" lon="-0.37307">
        <ele>65.5</ele>
        <time>2013-03-10T10:13:25.000Z</time>
      </trkpt>
      <trkpt lat="46.07558" lon="-0.37306">
        <ele>65.5</ele>
        <time>2013-03-10T10:13:26.000Z</time>
      </trkpt>
      <trkpt lat="46.07569" lon="-0.37317">
        <ele>66.4</ele>
        <time>2013-03-10T10:13:33.000Z</time>
      </trkpt>
      <trkpt lat="46.07576" lon="-0.37324">
        <ele>66.6</ele>
        <time>2013-03-10T10:13:42.000Z</time>
      </trkpt>
      <trkpt lat="46.07582" lon="-0.37333">
        <ele>67.1</ele>
        <time>2013-03-10T10:13:53.000Z</time>
      </trkpt>
      <trkpt lat="46.07577" lon="-0.37341">
        <ele>67.5</ele>
        <time>2013-03-10T10:13:58.000Z</time>
      </trkpt>
      <trkpt lat="46.07575" lon="-0.37352">
        <ele>66.7</ele>
        <time>2013-03-10T10:14:02.000Z</time>
      </trkpt>
      <trkpt lat="46.07573" lon="-0.37363">
        <ele>66.8</ele>
        <time>2013-03-10T10:14:05.000Z</time>
      </trkpt>
      <trkpt lat="46.0757" lon="-0.37374">
        <ele>66.7</ele>
        <time>2013-03-10T10:14:08.000Z</time>
      </trkpt>
      <trkpt lat="46.07571" lon="-0.37386">
        <ele>66.4</ele>
        <time>2013-03-10T10:14:12.000Z</time>
      </trkpt>
      <trkpt lat="46.07576" lon="-0.37397">
        <ele>67.2</ele>
        <time>2013-03-10T10:14:16.000Z</time>
      </trkpt>
      <trkpt lat="46.07583" lon="-0.37401">
        <ele>67</ele>
        <time>2013-03-10T10:14:21.000Z</time>
      </trkpt>
      <trkpt lat="46.07591" lon="-0.37404">
        <ele>66.8</ele>
        <time>2013-03-10T10:14:25.000Z</time>
      </trkpt>
      <trkpt lat="46.07596" lon="-0.37395">
        <ele>67.5</ele>
        <time>2013-03-10T10:14:31.000Z</time>
      </trkpt>
      <trkpt lat="46.07596" lon="-0.37391">
        <ele>67.3</ele>
        <time>2013-03-10T10:14:32.000Z</time>
      </trkpt>
      <trkpt lat="46.07601" lon="-0.37376">
        <ele>67.4</ele>
        <time>2013-03-10T10:14:37.000Z</time>
      </trkpt>
      <trkpt lat="46.07609" lon="-0.37381">
        <ele>68.1</ele>
        <time>2013-03-10T10:14:41.000Z</time>
      </trkpt>
      <trkpt lat="46.07614" lon="-0.37389">
        <ele>68.9</ele>
        <time>2013-03-10T10:14:44.000Z</time>
      </trkpt>
      <trkpt lat="46.07621" lon="-0.37394">
        <ele>69.1</ele>
        <time>2013-03-10T10:14:47.000Z</time>
      </trkpt>
      <trkpt lat="46.07629" lon="-0.37398">
        <ele>69.5</ele>
        <time>2013-03-10T10:14:50.000Z</time>
      </trkpt>
      <trkpt lat="46.07635" lon="-0.37397">
        <ele>69.8</ele>
        <time>2013-03-10T10:14:52.000Z</time>
      </trkpt>
      <trkpt lat="46.07642" lon="-0.37398">
        <ele>69.2</ele>
        <time>2013-03-10T10:14:54.000Z</time>
      </trkpt>
      <trkpt lat="46.07648" lon="-0.37398">
        <ele>68.9</ele>
        <time>2013-03-10T10:14:56.000Z</time>
      </trkpt>
      <trkpt lat="46.07657" lon="-0.374">
        <ele>69.4</ele>
        <time>2013-03-10T10:14:59.000Z</time>
      </trkpt>
      <trkpt lat="46.07663" lon="-0.374">
        <ele>69.4</ele>
        <time>2013-03-10T10:15:01.000Z</time>
      </trkpt>
      <trkpt lat="46.07669" lon="-0.374">
        <ele>69.5</ele>
        <time>2013-03-10T10:15:03.000Z</time>
      </trkpt>
      <trkpt lat="46.07678" lon="-0.37401">
        <ele>69.2</ele>
        <time>2013-03-10T10:15:06.000Z</time>
      </trkpt>
      <trkpt lat="46.07682" lon="-0.37408">
        <ele>69.2</ele>
        <time>2013-03-10T10:15:08.000Z</time>
      </trkpt>
      <trkpt lat="46.07683" lon="-0.37417">
        <ele>69.6</ele>
        <time>2013-03-10T10:15:10.000Z</time>
      </trkpt>
      <trkpt lat="46.07682" lon="-0.37426">
        <ele>69.2</ele>
        <time>2013-03-10T10:15:12.000Z</time>
      </trkpt>
      <trkpt lat="46.07682" lon="-0.37435">
        <ele>69.2</ele>
        <time>2013-03-10T10:15:14.000Z</time>
      </trkpt>
      <trkpt lat="46.07681" lon="-0.37445">
        <ele>69.5</ele>
        <time>2013-03-10T10:15:16.000Z</time>
      </trkpt>
      <trkpt lat="46.07681" lon="-0.37455">
        <ele>69.7</ele>
        <time>2013-03-10T10:15:18.000Z</time>
      </trkpt>
      <trkpt lat="46.0768" lon="-0.37465">
        <ele>70.1</ele>
        <time>2013-03-10T10:15:20.000Z</time>
      </trkpt>
      <trkpt lat="46.07679" lon="-0.37476">
        <ele>70.6</ele>
        <time>2013-03-10T10:15:22.000Z</time>
      </trkpt>
      <trkpt lat="46.07677" lon="-0.37486">
        <ele>70.6</ele>
        <time>2013-03-10T10:15:24.000Z</time>
      </trkpt>
      <trkpt lat="46.07676" lon="-0.37498">
        <ele>70.7</ele>
        <time>2013-03-10T10:15:26.000Z</time>
      </trkpt>
      <trkpt lat="46.07675" lon="-0.37509">
        <ele>70.7</ele>
        <time>2013-03-10T10:15:28.000Z</time>
      </trkpt>
      <trkpt lat="46.07674" lon="-0.37521">
        <ele>70.5</ele>
        <time>2013-03-10T10:15:30.000Z</time>
      </trkpt>
      <trkpt lat="46.07673" lon="-0.37533">
        <ele>70.4</ele>
        <time>2013-03-10T10:15:32.000Z</time>
      </trkpt>
      <trkpt lat="46.07672" lon="-0.37545">
        <ele>70.5</ele>
        <time>2013-03-10T10:15:34.000Z</time>
      </trkpt>
      <trkpt lat="46.07672" lon="-0.37551">
        <ele>70.7</ele>
        <time>2013-03-10T10:15:35.000Z</time>
      </trkpt>
      <trkpt lat="46.07669" lon="-0.3757">
        <ele>70.9</ele>
        <time>2013-03-10T10:15:38.000Z</time>
      </trkpt>
      <trkpt lat="46.07667" lon="-0.37576">
        <ele>70.8</ele>
        <time>2013-03-10T10:15:39.000Z</time>
      </trkpt>
      <trkpt lat="46.07666" lon="-0.37583">
        <ele>70.7</ele>
        <time>2013-03-10T10:15:40.000Z</time>
      </trkpt>
      <trkpt lat="46.07664" lon="-0.37589">
        <ele>70.6</ele>
        <time>2013-03-10T10:15:41.000Z</time>
      </trkpt>
      <trkpt lat="46.07663" lon="-0.37596">
        <ele>70.5</ele>
        <time>2013-03-10T10:15:42.000Z</time>
      </trkpt>
      <trkpt lat="46.0766" lon="-0.37608">
        <ele>70.4</ele>
        <time>2013-03-10T10:15:44.000Z</time>
      </trkpt>
      <trkpt lat="46.07658" lon="-0.37619">
        <ele>70.5</ele>
        <time>2013-03-10T10:15:46.000Z</time>
      </trkpt>
      <trkpt lat="46.07655" lon="-0.3763">
        <ele>70.3</ele>
        <time>2013-03-10T10:15:48.000Z</time>
      </trkpt>
      <trkpt lat="46.07653" lon="-0.37642">
        <ele>70.4</ele>
        <time>2013-03-10T10:15:50.000Z</time>
      </trkpt>
      <trkpt lat="46.0765" lon="-0.37654">
        <ele>70.2</ele>
        <time>2013-03-10T10:15:52.000Z</time>
      </trkpt>
      <trkpt lat="46.07649" lon="-0.3766">
        <ele>70</ele>
        <time>2013-03-10T10:15:53.000Z</time>
      </trkpt>
      <trkpt lat="46.07647" lon="-0.37666">
        <ele>70</ele>
        <time>2013-03-10T10:15:54.000Z</time>
      </trkpt>
      <trkpt lat="46.07646" lon="-0.37672">
        <ele>70</ele>
        <time>2013-03-10T10:15:55.000Z</time>
      </trkpt>
      <trkpt lat="46.07644" lon="-0.37679">
        <ele>70</ele>
        <time>2013-03-10T10:15:56.000Z</time>
      </trkpt>
      <trkpt lat="46.07643" lon="-0.37685">
        <ele>69.7</ele>
        <time>2013-03-10T10:15:57.000Z</time>
      </trkpt>
      <trkpt lat="46.07641" lon="-0.37692">
        <ele>69.5</ele>
        <time>2013-03-10T10:15:58.000Z</time>
      </trkpt>
      <trkpt lat="46.0764" lon="-0.37699">
        <ele>69.4</ele>
        <time>2013-03-10T10:15:59.000Z</time>
      </trkpt>
      <trkpt lat="46.07638" lon="-0.37706">
        <ele>69.4</ele>
        <time>2013-03-10T10:16:00.000Z</time>
      </trkpt>
      <trkpt lat="46.07636" lon="-0.37713">
        <ele>69.6</ele>
        <time>2013-03-10T10:16:01.000Z</time>
      </trkpt>
      <trkpt lat="46.07635" lon="-0.3772">
        <ele>69.7</ele>
        <time>2013-03-10T10:16:02.000Z</time>
      </trkpt>
      <trkpt lat="46.07633" lon="-0.37727">
        <ele>69.8</ele>
        <time>2013-03-10T10:16:03.000Z</time>
      </trkpt>
      <trkpt lat="46.07631" lon="-0.37735">
        <ele>69.8</ele>
        <time>2013-03-10T10:16:04.000Z</time>
      </trkpt>
      <trkpt lat="46.0763" lon="-0.37742">
        <ele>69.9</ele>
        <time>2013-03-10T10:16:05.000Z</time>
      </trkpt>
      <trkpt lat="46.07628" lon="-0.3775">
        <ele>70.1</ele>
        <time>2013-03-10T10:16:06.000Z</time>
      </trkpt>
      <trkpt lat="46.07626" lon="-0.37757">
        <ele>70.2</ele>
        <time>2013-03-10T10:16:07.000Z</time>
      </trkpt>
      <trkpt lat="46.07624" lon="-0.37765">
        <ele>69.8</ele>
        <time>2013-03-10T10:16:08.000Z</time>
      </trkpt>
      <trkpt lat="46.07623" lon="-0.37772">
        <ele>69.6</ele>
        <time>2013-03-10T10:16:09.000Z</time>
      </trkpt>
      <trkpt lat="46.07621" lon="-0.3778">
        <ele>69.4</ele>
        <time>2013-03-10T10:16:10.000Z</time>
      </trkpt>
      <trkpt lat="46.07619" lon="-0.37787">
        <ele>69.5</ele>
        <time>2013-03-10T10:16:11.000Z</time>
      </trkpt>
      <trkpt lat="46.07617" lon="-0.37795">
        <ele>69.6</ele>
        <time>2013-03-10T10:16:12.000Z</time>
      </trkpt>
      <trkpt lat="46.07615" lon="-0.37803">
        <ele>69.4</ele>
        <time>2013-03-10T10:16:13.000Z</time>
      </trkpt>
      <trkpt lat="46.07614" lon="-0.3781">
        <ele>69.3</ele>
        <time>2013-03-10T10:16:14.000Z</time>
      </trkpt>
      <trkpt lat="46.07612" lon="-0.37818">
        <ele>69.1</ele>
        <time>2013-03-10T10:16:15.000Z</time>
      </trkpt>
      <trkpt lat="46.0761" lon="-0.37826">
        <ele>69</ele>
        <time>2013-03-10T10:16:16.000Z</time>
      </trkpt>
      <trkpt lat="46.07608" lon="-0.37833">
        <ele>68.9</ele>
        <time>2013-03-10T10:16:17.000Z</time>
      </trkpt>
      <trkpt lat="46.07606" lon="-0.37841">
        <ele>69</ele>
        <time>2013-03-10T10:16:18.000Z</time>
      </trkpt>
      <trkpt lat="46.07605" lon="-0.37849">
        <ele>69.1</ele>
        <time>2013-03-10T10:16:19.000Z</time>
      </trkpt>
      <trkpt lat="46.07603" lon="-0.37856">
        <ele>69.2</ele>
        <time>2013-03-10T10:16:20.000Z</time>
      </trkpt>
      <trkpt lat="46.07601" lon="-0.37864">
        <ele>69.3</ele>
        <time>2013-03-10T10:16:21.000Z</time>
      </trkpt>
      <trkpt lat="46.076" lon="-0.37871">
        <ele>69.3</ele>
        <time>2013-03-10T10:16:22.000Z</time>
      </trkpt>
      <trkpt lat="46.07598" lon="-0.37879">
        <ele>69.1</ele>
        <time>2013-03-10T10:16:23.000Z</time>
      </trkpt>
      <trkpt lat="46.07596" lon="-0.37886">
        <ele>68.9</ele>
        <time>2013-03-10T10:16:24.000Z</time>
      </trkpt>
      <trkpt lat="46.07594" lon="-0.37893">
        <ele>68.9</ele>
        <time>2013-03-10T10:16:25.000Z</time>
      </trkpt>
      <trkpt lat="46.07593" lon="-0.37901">
        <ele>68.9</ele>
        <time>2013-03-10T10:16:26.000Z</time>
      </trkpt>
      <trkpt lat="46.07591" lon="-0.37909">
        <ele>68.8</ele>
        <time>2013-03-10T10:16:27.000Z</time>
      </trkpt>
      <trkpt lat="46.07589" lon="-0.37916">
        <ele>68.7</ele>
        <time>2013-03-10T10:16:28.000Z</time>
      </trkpt>
      <trkpt lat="46.07587" lon="-0.37924">
        <ele>68.6</ele>
        <time>2013-03-10T10:16:29.000Z</time>
      </trkpt>
      <trkpt lat="46.07586" lon="-0.37932">
        <ele>68.8</ele>
        <time>2013-03-10T10:16:30.000Z</time>
      </trkpt>
      <trkpt lat="46.07584" lon="-0.3794">
        <ele>68.9</ele>
        <time>2013-03-10T10:16:31.000Z</time>
      </trkpt>
      <trkpt lat="46.07582" lon="-0.37948">
        <ele>68.7</ele>
        <time>2013-03-10T10:16:32.000Z</time>
      </trkpt>
      <trkpt lat="46.0758" lon="-0.37956">
        <ele>68.5</ele>
        <time>2013-03-10T10:16:33.000Z</time>
      </trkpt>
      <trkpt lat="46.07578" lon="-0.37964">
        <ele>68.4</ele>
        <time>2013-03-10T10:16:34.000Z</time>
      </trkpt>
      <trkpt lat="46.07576" lon="-0.37972">
        <ele>68.3</ele>
        <time>2013-03-10T10:16:35.000Z</time>
      </trkpt>
      <trkpt lat="46.07574" lon="-0.3798">
        <ele>68.3</ele>
        <time>2013-03-10T10:16:36.000Z</time>
      </trkpt>
      <trkpt lat="46.07572" lon="-0.37988">
        <ele>68.1</ele>
        <time>2013-03-10T10:16:37.000Z</time>
      </trkpt>
      <trkpt lat="46.0757" lon="-0.37996">
        <ele>67.9</ele>
        <time>2013-03-10T10:16:38.000Z</time>
      </trkpt>
      <trkpt lat="46.07568" lon="-0.38004">
        <ele>67.9</ele>
        <time>2013-03-10T10:16:39.000Z</time>
      </trkpt>
      <trkpt lat="46.0757" lon="-0.37996">
        <ele>67.9</ele>
        <time>2013-03-10T10:16:38.000Z</time>
      </trkpt>
      <trkpt lat="46.07568" lon="-0.38004">
        <ele>67.9</ele>
        <time>2013-03-10T10:16:39.000Z</time>
      </trkpt>
      <trkpt lat="46.07567" lon="-0.38012">
        <ele>67.8</ele>
        <time>2013-03-10T10:16:40.000Z</time>
      </trkpt>
      <trkpt lat="46.07564" lon="-0.3802">
        <ele>67.8</ele>
        <time>2013-03-10T10:16:41.000Z</time>
      </trkpt>
      <trkpt lat="46.07561" lon="-0.38028">
        <ele>68</ele>
        <time>2013-03-10T10:16:42.000Z</time>
      </trkpt>
      <trkpt lat="46.07559" lon="-0.38036">
        <ele>68.1</ele>
        <time>2013-03-10T10:16:43.000Z</time>
      </trkpt>
      <trkpt lat="46.07557" lon="-0.38045">
        <ele>67.8</ele>
        <time>2013-03-10T10:16:44.000Z</time>
      </trkpt>
      <trkpt lat="46.07555" lon="-0.38053">
        <ele>67.6</ele>
        <time>2013-03-10T10:16:45.000Z</time>
      </trkpt>
      <trkpt lat="46.07553" lon="-0.38062">
        <ele>67.9</ele>
        <time>2013-03-10T10:16:46.000Z</time>
      </trkpt>
      <trkpt lat="46.07551" lon="-0.3807">
        <ele>68</ele>
        <time>2013-03-10T10:16:47.000Z</time>
      </trkpt>
      <trkpt lat="46.07549" lon="-0.38079">
        <ele>68.2</ele>
        <time>2013-03-10T10:16:48.000Z</time>
      </trkpt>
      <trkpt lat="46.07547" lon="-0.38088">
        <ele>68</ele>
        <time>2013-03-10T10:16:49.000Z</time>
      </trkpt>
      <trkpt lat="46.07545" lon="-0.38096">
        <ele>67.9</ele>
        <time>2013-03-10T10:16:50.000Z</time>
      </trkpt>
      <trkpt lat="46.07544" lon="-0.38105">
        <ele>67.9</ele>
        <time>2013-03-10T10:16:51.000Z</time>
      </trkpt>
      <trkpt lat="46.07543" lon="-0.38114">
        <ele>68</ele>
        <time>2013-03-10T10:16:52.000Z</time>
      </trkpt>
      <trkpt lat="46.07541" lon="-0.38122">
        <ele>68</ele>
        <time>2013-03-10T10:16:53.000Z</time>
      </trkpt>
      <trkpt lat="46.07539" lon="-0.3813">
        <ele>68</ele>
        <time>2013-03-10T10:16:54.000Z</time>
      </trkpt>
      <trkpt lat="46.07537" lon="-0.38139">
        <ele>68</ele>
        <time>2013-03-10T10:16:55.000Z</time>
      </trkpt>
      <trkpt lat="46.07535" lon="-0.38147">
        <ele>68</ele>
        <time>2013-03-10T10:16:56.000Z</time>
      </trkpt>
      <trkpt lat="46.07533" lon="-0.38155">
        <ele>68.1</ele>
        <time>2013-03-10T10:16:57.000Z</time>
      </trkpt>
      <trkpt lat="46.07531" lon="-0.38164">
        <ele>67.8</ele>
        <time>2013-03-10T10:16:58.000Z</time>
      </trkpt>
      <trkpt lat="46.07529" lon="-0.38172">
        <ele>67.5</ele>
        <time>2013-03-10T10:16:59.000Z</time>
      </trkpt>
      <trkpt lat="46.07527" lon="-0.3818">
        <ele>67.3</ele>
        <time>2013-03-10T10:17:00.000Z</time>
      </trkpt>
      <trkpt lat="46.07525" lon="-0.38188">
        <ele>66.8</ele>
        <time>2013-03-10T10:17:01.000Z</time>
      </trkpt>
      <trkpt lat="46.07523" lon="-0.38196">
        <ele>66.5</ele>
        <time>2013-03-10T10:17:02.000Z</time>
      </trkpt>
      <trkpt lat="46.07521" lon="-0.38204">
        <ele>66.3</ele>
        <time>2013-03-10T10:17:03.000Z</time>
      </trkpt>
      <trkpt lat="46.07519" lon="-0.38212">
        <ele>66.2</ele>
        <time>2013-03-10T10:17:04.000Z</time>
      </trkpt>
      <trkpt lat="46.07518" lon="-0.3822">
        <ele>66.2</ele>
        <time>2013-03-10T10:17:05.000Z</time>
      </trkpt>
      <trkpt lat="46.07516" lon="-0.38227">
        <ele>66.1</ele>
        <time>2013-03-10T10:17:06.000Z</time>
      </trkpt>
      <trkpt lat="46.07514" lon="-0.38234">
        <ele>66.1</ele>
        <time>2013-03-10T10:17:07.000Z</time>
      </trkpt>
      <trkpt lat="46.07513" lon="-0.38242">
        <ele>65.8</ele>
        <time>2013-03-10T10:17:08.000Z</time>
      </trkpt>
      <trkpt lat="46.07511" lon="-0.38248">
        <ele>65.6</ele>
        <time>2013-03-10T10:17:09.000Z</time>
      </trkpt>
      <trkpt lat="46.07509" lon="-0.38255">
        <ele>65.5</ele>
        <time>2013-03-10T10:17:10.000Z</time>
      </trkpt>
      <trkpt lat="46.07507" lon="-0.38262">
        <ele>65.5</ele>
        <time>2013-03-10T10:17:11.000Z</time>
      </trkpt>
      <trkpt lat="46.07505" lon="-0.38268">
        <ele>65.5</ele>
        <time>2013-03-10T10:17:12.000Z</time>
      </trkpt>
      <trkpt lat="46.07503" lon="-0.38276">
        <ele>65.5</ele>
        <time>2013-03-10T10:17:13.000Z</time>
      </trkpt>
      <trkpt lat="46.07501" lon="-0.38283">
        <ele>65.5</ele>
        <time>2013-03-10T10:17:14.000Z</time>
      </trkpt>
      <trkpt lat="46.075" lon="-0.3829">
        <ele>65.3</ele>
        <time>2013-03-10T10:17:15.000Z</time>
      </trkpt>
      <trkpt lat="46.07498" lon="-0.38298">
        <ele>65.2</ele>
        <time>2013-03-10T10:17:16.000Z</time>
      </trkpt>
      <trkpt lat="46.07496" lon="-0.38305">
        <ele>64.8</ele>
        <time>2013-03-10T10:17:17.000Z</time>
      </trkpt>
      <trkpt lat="46.07495" lon="-0.38312">
        <ele>64.5</ele>
        <time>2013-03-10T10:17:18.000Z</time>
      </trkpt>
      <trkpt lat="46.07493" lon="-0.38319">
        <ele>64.3</ele>
        <time>2013-03-10T10:17:19.000Z</time>
      </trkpt>
      <trkpt lat="46.0749" lon="-0.3833">
        <ele>64.5</ele>
        <time>2013-03-10T10:17:21.000Z</time>
      </trkpt>
      <trkpt lat="46.07484" lon="-0.38335">
        <ele>64.2</ele>
        <time>2013-03-10T10:17:23.000Z</time>
      </trkpt>
      <trkpt lat="46.07476" lon="-0.38337">
        <ele>64</ele>
        <time>2013-03-10T10:17:25.000Z</time>
      </trkpt>
      <trkpt lat="46.07471" lon="-0.38337">
        <ele>63.9</ele>
        <time>2013-03-10T10:17:26.000Z</time>
      </trkpt>
      <trkpt lat="46.07466" lon="-0.38336">
        <ele>63.5</ele>
        <time>2013-03-10T10:17:27.000Z</time>
      </trkpt>
      <trkpt lat="46.07461" lon="-0.38336">
        <ele>63.3</ele>
        <time>2013-03-10T10:17:28.000Z</time>
      </trkpt>
      <trkpt lat="46.07456" lon="-0.38336">
        <ele>63.6</ele>
        <time>2013-03-10T10:17:29.000Z</time>
      </trkpt>
      <trkpt lat="46.0745" lon="-0.38336">
        <ele>63.9</ele>
        <time>2013-03-10T10:17:30.000Z</time>
      </trkpt>
      <trkpt lat="46.07445" lon="-0.38337">
        <ele>64.1</ele>
        <time>2013-03-10T10:17:31.000Z</time>
      </trkpt>
      <trkpt lat="46.07439" lon="-0.38337">
        <ele>64</ele>
        <time>2013-03-10T10:17:32.000Z</time>
      </trkpt>
      <trkpt lat="46.07433" lon="-0.38337">
        <ele>63.9</ele>
        <time>2013-03-10T10:17:33.000Z</time>
      </trkpt>
      <trkpt lat="46.07427" lon="-0.38337">
        <ele>63.7</ele>
        <time>2013-03-10T10:17:34.000Z</time>
      </trkpt>
      <trkpt lat="46.0742" lon="-0.38337">
        <ele>63.6</ele>
        <time>2013-03-10T10:17:35.000Z</time>
      </trkpt>
      <trkpt lat="46.07414" lon="-0.38338">
        <ele>63.3</ele>
        <time>2013-03-10T10:17:36.000Z</time>
      </trkpt>
      <trkpt lat="46.07407" lon="-0.38338">
        <ele>63.2</ele>
        <time>2013-03-10T10:17:37.000Z</time>
      </trkpt>
      <trkpt lat="46.074" lon="-0.38338">
        <ele>63</ele>
        <time>2013-03-10T10:17:38.000Z</time>
      </trkpt>
      <trkpt lat="46.07392" lon="-0.38337">
        <ele>63.1</ele>
        <time>2013-03-10T10:17:39.000Z</time>
      </trkpt>
      <trkpt lat="46.07385" lon="-0.38336">
        <ele>63.1</ele>
        <time>2013-03-10T10:17:40.000Z</time>
      </trkpt>
      <trkpt lat="46.07378" lon="-0.38334">
        <ele>62.7</ele>
        <time>2013-03-10T10:17:41.000Z</time>
      </trkpt>
      <trkpt lat="46.0737" lon="-0.38331">
        <ele>62.5</ele>
        <time>2013-03-10T10:17:42.000Z</time>
      </trkpt>
      <trkpt lat="46.07362" lon="-0.38327">
        <ele>62</ele>
        <time>2013-03-10T10:17:43.000Z</time>
      </trkpt>
      <trkpt lat="46.07355" lon="-0.38323">
        <ele>61.6</ele>
        <time>2013-03-10T10:17:44.000Z</time>
      </trkpt>
      <trkpt lat="46.07346" lon="-0.38319">
        <ele>61.3</ele>
        <time>2013-03-10T10:17:45.000Z</time>
      </trkpt>
      <trkpt lat="46.07338" lon="-0.38315">
        <ele>60.4</ele>
        <time>2013-03-10T10:17:46.000Z</time>
      </trkpt>
      <trkpt lat="46.07329" lon="-0.3831">
        <ele>59.8</ele>
        <time>2013-03-10T10:17:47.000Z</time>
      </trkpt>
      <trkpt lat="46.07321" lon="-0.38306">
        <ele>59.3</ele>
        <time>2013-03-10T10:17:48.000Z</time>
      </trkpt>
      <trkpt lat="46.07312" lon="-0.38301">
        <ele>59</ele>
        <time>2013-03-10T10:17:49.000Z</time>
      </trkpt>
      <trkpt lat="46.07305" lon="-0.38296">
        <ele>58.8</ele>
        <time>2013-03-10T10:17:50.000Z</time>
      </trkpt>
      <trkpt lat="46.07297" lon="-0.38292">
        <ele>58.1</ele>
        <time>2013-03-10T10:17:51.000Z</time>
      </trkpt>
      <trkpt lat="46.0729" lon="-0.38287">
        <ele>57.6</ele>
        <time>2013-03-10T10:17:52.000Z</time>
      </trkpt>
      <trkpt lat="46.07283" lon="-0.38282">
        <ele>57</ele>
        <time>2013-03-10T10:17:53.000Z</time>
      </trkpt>
      <trkpt lat="46.07276" lon="-0.38277">
        <ele>56.5</ele>
        <time>2013-03-10T10:17:54.000Z</time>
      </trkpt>
      <trkpt lat="46.07269" lon="-0.38273">
        <ele>56.2</ele>
        <time>2013-03-10T10:17:55.000Z</time>
      </trkpt>
      <trkpt lat="46.07262" lon="-0.38269">
        <ele>56</ele>
        <time>2013-03-10T10:17:56.000Z</time>
      </trkpt>
      <trkpt lat="46.07255" lon="-0.38265">
        <ele>55.9</ele>
        <time>2013-03-10T10:17:57.000Z</time>
      </trkpt>
      <trkpt lat="46.07249" lon="-0.38261">
        <ele>56.3</ele>
        <time>2013-03-10T10:17:58.000Z</time>
      </trkpt>
      <trkpt lat="46.07244" lon="-0.38258">
        <ele>56.7</ele>
        <time>2013-03-10T10:17:59.000Z</time>
      </trkpt>
      <trkpt lat="46.07238" lon="-0.38254">
        <ele>57</ele>
        <time>2013-03-10T10:18:00.000Z</time>
      </trkpt>
      <trkpt lat="46.07233" lon="-0.38251">
        <ele>57.2</ele>
        <time>2013-03-10T10:18:01.000Z</time>
      </trkpt>
      <trkpt lat="46.07228" lon="-0.38248">
        <ele>57.7</ele>
        <time>2013-03-10T10:18:02.000Z</time>
      </trkpt>
      <trkpt lat="46.07223" lon="-0.38244">
        <ele>58</ele>
        <time>2013-03-10T10:18:03.000Z</time>
      </trkpt>
      <trkpt lat="46.07219" lon="-0.38242">
        <ele>58.3</ele>
        <time>2013-03-10T10:18:04.000Z</time>
      </trkpt>
      <trkpt lat="46.07211" lon="-0.38237">
        <ele>59.2</ele>
        <time>2013-03-10T10:18:06.000Z</time>
      </trkpt>
      <trkpt lat="46.07206" lon="-0.38234">
        <ele>59.8</ele>
        <time>2013-03-10T10:18:07.000Z</time>
      </trkpt>
      <trkpt lat="46.07202" lon="-0.38232">
        <ele>60.1</ele>
        <time>2013-03-10T10:18:08.000Z</time>
      </trkpt>
      <trkpt lat="46.07198" lon="-0.38229">
        <ele>60.4</ele>
        <time>2013-03-10T10:18:09.000Z</time>
      </trkpt>
      <trkpt lat="46.07193" lon="-0.38226">
        <ele>60.6</ele>
        <time>2013-03-10T10:18:10.000Z</time>
      </trkpt>
      <trkpt lat="46.07185" lon="-0.38222">
        <ele>61.1</ele>
        <time>2013-03-10T10:18:12.000Z</time>
      </trkpt>
      <trkpt lat="46.07181" lon="-0.38219">
        <ele>61.4</ele>
        <time>2013-03-10T10:18:13.000Z</time>
      </trkpt>
      <trkpt lat="46.07177" lon="-0.38216">
        <ele>61.4</ele>
        <time>2013-03-10T10:18:14.000Z</time>
      </trkpt>
      <trkpt lat="46.07173" lon="-0.38213">
        <ele>61.4</ele>
        <time>2013-03-10T10:18:15.000Z</time>
      </trkpt>
      <trkpt lat="46.07165" lon="-0.38207">
        <ele>61.4</ele>
        <time>2013-03-10T10:18:17.000Z</time>
      </trkpt>
      <trkpt lat="46.07157" lon="-0.38202">
        <ele>61.5</ele>
        <time>2013-03-10T10:18:19.000Z</time>
      </trkpt>
      <trkpt lat="46.07149" lon="-0.38197">
        <ele>61.4</ele>
        <time>2013-03-10T10:18:21.000Z</time>
      </trkpt>
      <trkpt lat="46.07142" lon="-0.38191">
        <ele>61.2</ele>
        <time>2013-03-10T10:18:23.000Z</time>
      </trkpt>
      <trkpt lat="46.07134" lon="-0.38185">
        <ele>61.7</ele>
        <time>2013-03-10T10:18:25.000Z</time>
      </trkpt>
      <trkpt lat="46.07127" lon="-0.38178">
        <ele>62.1</ele>
        <time>2013-03-10T10:18:27.000Z</time>
      </trkpt>
      <trkpt lat="46.0712" lon="-0.3817">
        <ele>62.7</ele>
        <time>2013-03-10T10:18:29.000Z</time>
      </trkpt>
      <trkpt lat="46.07113" lon="-0.38164">
        <ele>62.8</ele>
        <time>2013-03-10T10:18:31.000Z</time>
      </trkpt>
      <trkpt lat="46.07106" lon="-0.38157">
        <ele>62.9</ele>
        <time>2013-03-10T10:18:33.000Z</time>
      </trkpt>
      <trkpt lat="46.071" lon="-0.3815">
        <ele>63</ele>
        <time>2013-03-10T10:18:35.000Z</time>
      </trkpt>
      <trkpt lat="46.07093" lon="-0.38143">
        <ele>63</ele>
        <time>2013-03-10T10:18:37.000Z</time>
      </trkpt>
      <trkpt lat="46.07086" lon="-0.38136">
        <ele>62.7</ele>
        <time>2013-03-10T10:18:39.000Z</time>
      </trkpt>
      <trkpt lat="46.07083" lon="-0.38132">
        <ele>63.3</ele>
        <time>2013-03-10T10:18:40.000Z</time>
      </trkpt>
      <trkpt lat="46.07073" lon="-0.38121">
        <ele>64.3</ele>
        <time>2013-03-10T10:18:43.000Z</time>
      </trkpt>
      <trkpt lat="46.07069" lon="-0.38117">
        <ele>64.6</ele>
        <time>2013-03-10T10:18:44.000Z</time>
      </trkpt>
      <trkpt lat="46.07065" lon="-0.38113">
        <ele>64.4</ele>
        <time>2013-03-10T10:18:45.000Z</time>
      </trkpt>
      <trkpt lat="46.07058" lon="-0.38106">
        <ele>64.3</ele>
        <time>2013-03-10T10:18:47.000Z</time>
      </trkpt>
      <trkpt lat="46.07052" lon="-0.38098">
        <ele>64.1</ele>
        <time>2013-03-10T10:18:49.000Z</time>
      </trkpt>
      <trkpt lat="46.07045" lon="-0.38091">
        <ele>64.4</ele>
        <time>2013-03-10T10:18:51.000Z</time>
      </trkpt>
      <trkpt lat="46.07038" lon="-0.38083">
        <ele>64.2</ele>
        <time>2013-03-10T10:18:53.000Z</time>
      </trkpt>
      <trkpt lat="46.07032" lon="-0.38075">
        <ele>64</ele>
        <time>2013-03-10T10:18:55.000Z</time>
      </trkpt>
      <trkpt lat="46.07026" lon="-0.38065">
        <ele>64.1</ele>
        <time>2013-03-10T10:18:57.000Z</time>
      </trkpt>
      <trkpt lat="46.07021" lon="-0.38056">
        <ele>64.2</ele>
        <time>2013-03-10T10:18:59.000Z</time>
      </trkpt>
      <trkpt lat="46.07015" lon="-0.38046">
        <ele>64.1</ele>
        <time>2013-03-10T10:19:01.000Z</time>
      </trkpt>
      <trkpt lat="46.0701" lon="-0.38036">
        <ele>64.4</ele>
        <time>2013-03-10T10:19:03.000Z</time>
      </trkpt>
      <trkpt lat="46.07005" lon="-0.38026">
        <ele>64.8</ele>
        <time>2013-03-10T10:19:05.000Z</time>
      </trkpt>
      <trkpt lat="46.07" lon="-0.38016">
        <ele>64.9</ele>
        <time>2013-03-10T10:19:07.000Z</time>
      </trkpt>
      <trkpt lat="46.06995" lon="-0.38007">
        <ele>65.1</ele>
        <time>2013-03-10T10:19:09.000Z</time>
      </trkpt>
      <trkpt lat="46.0699" lon="-0.37997">
        <ele>65.3</ele>
        <time>2013-03-10T10:19:11.000Z</time>
      </trkpt>
      <trkpt lat="46.06985" lon="-0.37987">
        <ele>65.5</ele>
        <time>2013-03-10T10:19:13.000Z</time>
      </trkpt>
      <trkpt lat="46.06981" lon="-0.37978">
        <ele>65.5</ele>
        <time>2013-03-10T10:19:15.000Z</time>
      </trkpt>
      <trkpt lat="46.06976" lon="-0.37968">
        <ele>65.9</ele>
        <time>2013-03-10T10:19:17.000Z</time>
      </trkpt>
      <trkpt lat="46.06972" lon="-0.37958">
        <ele>66</ele>
        <time>2013-03-10T10:19:19.000Z</time>
      </trkpt>
      <trkpt lat="46.06968" lon="-0.37947">
        <ele>66.3</ele>
        <time>2013-03-10T10:19:21.000Z</time>
      </trkpt>
      <trkpt lat="46.06966" lon="-0.37941">
        <ele>66.5</ele>
        <time>2013-03-10T10:19:22.000Z</time>
      </trkpt>
      <trkpt lat="46.06964" lon="-0.37935">
        <ele>66.3</ele>
        <time>2013-03-10T10:19:23.000Z</time>
      </trkpt>
      <trkpt lat="46.0696" lon="-0.37924">
        <ele>66.3</ele>
        <time>2013-03-10T10:19:25.000Z</time>
      </trkpt>
      <trkpt lat="46.06956" lon="-0.37912">
        <ele>66.2</ele>
        <time>2013-03-10T10:19:27.000Z</time>
      </trkpt>
      <trkpt lat="46.06952" lon="-0.37901">
        <ele>66.1</ele>
        <time>2013-03-10T10:19:29.000Z</time>
      </trkpt>
      <trkpt lat="46.06948" lon="-0.3789">
        <ele>66.4</ele>
        <time>2013-03-10T10:19:31.000Z</time>
      </trkpt>
      <trkpt lat="46.06944" lon="-0.37878">
        <ele>66.6</ele>
        <time>2013-03-10T10:19:33.000Z</time>
      </trkpt>
      <trkpt lat="46.06942" lon="-0.37873">
        <ele>66.6</ele>
        <time>2013-03-10T10:19:34.000Z</time>
      </trkpt>
      <trkpt lat="46.0694" lon="-0.37867">
        <ele>67</ele>
        <time>2013-03-10T10:19:35.000Z</time>
      </trkpt>
      <trkpt lat="46.06936" lon="-0.37855">
        <ele>67.4</ele>
        <time>2013-03-10T10:19:37.000Z</time>
      </trkpt>
      <trkpt lat="46.06933" lon="-0.37844">
        <ele>67.4</ele>
        <time>2013-03-10T10:19:39.000Z</time>
      </trkpt>
      <trkpt lat="46.06929" lon="-0.37833">
        <ele>67.4</ele>
        <time>2013-03-10T10:19:41.000Z</time>
      </trkpt>
      <trkpt lat="46.06927" lon="-0.37827">
        <ele>67.7</ele>
        <time>2013-03-10T10:19:42.000Z</time>
      </trkpt>
      <trkpt lat="46.06921" lon="-0.3781">
        <ele>67.9</ele>
        <time>2013-03-10T10:19:45.000Z</time>
      </trkpt>
      <trkpt lat="46.06919" lon="-0.37804">
        <ele>68</ele>
        <time>2013-03-10T10:19:46.000Z</time>
      </trkpt>
      <trkpt lat="46.06917" lon="-0.37798">
        <ele>67.7</ele>
        <time>2013-03-10T10:19:47.000Z</time>
      </trkpt>
      <trkpt lat="46.06914" lon="-0.37792">
        <ele>67.5</ele>
        <time>2013-03-10T10:19:48.000Z</time>
      </trkpt>
      <trkpt lat="46.06912" lon="-0.37786">
        <ele>67.8</ele>
        <time>2013-03-10T10:19:49.000Z</time>
      </trkpt>
      <trkpt lat="46.0691" lon="-0.3778">
        <ele>67.9</ele>
        <time>2013-03-10T10:19:50.000Z</time>
      </trkpt>
      <trkpt lat="46.06906" lon="-0.37769">
        <ele>68.1</ele>
        <time>2013-03-10T10:19:52.000Z</time>
      </trkpt>
      <trkpt lat="46.06899" lon="-0.37765">
        <ele>68.3</ele>
        <time>2013-03-10T10:19:54.000Z</time>
      </trkpt>
      <trkpt lat="46.06892" lon="-0.3777">
        <ele>68.4</ele>
        <time>2013-03-10T10:19:56.000Z</time>
      </trkpt>
      <trkpt lat="46.06885" lon="-0.37776">
        <ele>68.4</ele>
        <time>2013-03-10T10:19:58.000Z</time>
      </trkpt>
      <trkpt lat="46.0688" lon="-0.37779">
        <ele>68.5</ele>
        <time>2013-03-10T10:19:59.000Z</time>
      </trkpt>
      <trkpt lat="46.06873" lon="-0.37785">
        <ele>68.6</ele>
        <time>2013-03-10T10:20:01.000Z</time>
      </trkpt>
      <trkpt lat="46.06865" lon="-0.37792">
        <ele>68.5</ele>
        <time>2013-03-10T10:20:03.000Z</time>
      </trkpt>
      <trkpt lat="46.06858" lon="-0.37798">
        <ele>68.4</ele>
        <time>2013-03-10T10:20:05.000Z</time>
      </trkpt>
      <trkpt lat="46.06855" lon="-0.37802">
        <ele>68.3</ele>
        <time>2013-03-10T10:20:06.000Z</time>
      </trkpt>
      <trkpt lat="46.06851" lon="-0.37806">
        <ele>68.3</ele>
        <time>2013-03-10T10:20:07.000Z</time>
      </trkpt>
      <trkpt lat="46.06847" lon="-0.3781">
        <ele>68.3</ele>
        <time>2013-03-10T10:20:08.000Z</time>
      </trkpt>
      <trkpt lat="46.06844" lon="-0.37815">
        <ele>68.2</ele>
        <time>2013-03-10T10:20:09.000Z</time>
      </trkpt>
      <trkpt lat="46.0684" lon="-0.3782">
        <ele>68.2</ele>
        <time>2013-03-10T10:20:10.000Z</time>
      </trkpt>
      <trkpt lat="46.06837" lon="-0.37825">
        <ele>68.3</ele>
        <time>2013-03-10T10:20:11.000Z</time>
      </trkpt>
      <trkpt lat="46.06833" lon="-0.37831">
        <ele>68.4</ele>
        <time>2013-03-10T10:20:12.000Z</time>
      </trkpt>
      <trkpt lat="46.0683" lon="-0.37837">
        <ele>68.4</ele>
        <time>2013-03-10T10:20:13.000Z</time>
      </trkpt>
      <trkpt lat="46.06827" lon="-0.37843">
        <ele>68.5</ele>
        <time>2013-03-10T10:20:14.000Z</time>
      </trkpt>
      <trkpt lat="46.06823" lon="-0.3785">
        <ele>68.3</ele>
        <time>2013-03-10T10:20:15.000Z</time>
      </trkpt>
      <trkpt lat="46.0682" lon="-0.37856">
        <ele>68.2</ele>
        <time>2013-03-10T10:20:16.000Z</time>
      </trkpt>
      <trkpt lat="46.06817" lon="-0.37862">
        <ele>68.1</ele>
        <time>2013-03-10T10:20:17.000Z</time>
      </trkpt>
      <trkpt lat="46.06813" lon="-0.37869">
        <ele>67.9</ele>
        <time>2013-03-10T10:20:18.000Z</time>
      </trkpt>
      <trkpt lat="46.0681" lon="-0.37875">
        <ele>67.8</ele>
        <time>2013-03-10T10:20:19.000Z</time>
      </trkpt>
      <trkpt lat="46.06807" lon="-0.37882">
        <ele>67.4</ele>
        <time>2013-03-10T10:20:20.000Z</time>
      </trkpt>
      <trkpt lat="46.06803" lon="-0.37888">
        <ele>67.2</ele>
        <time>2013-03-10T10:20:21.000Z</time>
      </trkpt>
      <trkpt lat="46.068" lon="-0.37895">
        <ele>67</ele>
        <time>2013-03-10T10:20:22.000Z</time>
      </trkpt>
      <trkpt lat="46.06796" lon="-0.37901">
        <ele>67.2</ele>
        <time>2013-03-10T10:20:23.000Z</time>
      </trkpt>
      <trkpt lat="46.06793" lon="-0.37908">
        <ele>67.3</ele>
        <time>2013-03-10T10:20:24.000Z</time>
      </trkpt>
      <trkpt lat="46.06789" lon="-0.37915">
        <ele>67.2</ele>
        <time>2013-03-10T10:20:25.000Z</time>
      </trkpt>
      <trkpt lat="46.06786" lon="-0.37921">
        <ele>67.2</ele>
        <time>2013-03-10T10:20:26.000Z</time>
      </trkpt>
      <trkpt lat="46.06783" lon="-0.37928">
        <ele>67.3</ele>
        <time>2013-03-10T10:20:27.000Z</time>
      </trkpt>
      <trkpt lat="46.0678" lon="-0.37934">
        <ele>67.4</ele>
        <time>2013-03-10T10:20:28.000Z</time>
      </trkpt>
      <trkpt lat="46.06777" lon="-0.37941">
        <ele>67.4</ele>
        <time>2013-03-10T10:20:29.000Z</time>
      </trkpt>
      <trkpt lat="46.06773" lon="-0.37947">
        <ele>67.3</ele>
        <time>2013-03-10T10:20:30.000Z</time>
      </trkpt>
      <trkpt lat="46.0677" lon="-0.37954">
        <ele>67.3</ele>
        <time>2013-03-10T10:20:31.000Z</time>
      </trkpt>
      <trkpt lat="46.06768" lon="-0.3796">
        <ele>67.2</ele>
        <time>2013-03-10T10:20:32.000Z</time>
      </trkpt>
      <trkpt lat="46.06765" lon="-0.37967">
        <ele>67.2</ele>
        <time>2013-03-10T10:20:33.000Z</time>
      </trkpt>
      <trkpt lat="46.06763" lon="-0.37973">
        <ele>67.5</ele>
        <time>2013-03-10T10:20:34.000Z</time>
      </trkpt>
      <trkpt lat="46.0676" lon="-0.3798">
        <ele>67.7</ele>
        <time>2013-03-10T10:20:35.000Z</time>
      </trkpt>
      <trkpt lat="46.06757" lon="-0.37986">
        <ele>67.9</ele>
        <time>2013-03-10T10:20:36.000Z</time>
      </trkpt>
      <trkpt lat="46.06755" lon="-0.37993">
        <ele>68</ele>
        <time>2013-03-10T10:20:37.000Z</time>
      </trkpt>
      <trkpt lat="46.06752" lon="-0.38">
        <ele>68.1</ele>
        <time>2013-03-10T10:20:38.000Z</time>
      </trkpt>
      <trkpt lat="46.0675" lon="-0.38007">
        <ele>67.9</ele>
        <time>2013-03-10T10:20:39.000Z</time>
      </trkpt>
      <trkpt lat="46.06747" lon="-0.38014">
        <ele>67.7</ele>
        <time>2013-03-10T10:20:40.000Z</time>
      </trkpt>
      <trkpt lat="46.06744" lon="-0.38021">
        <ele>67.5</ele>
        <time>2013-03-10T10:20:41.000Z</time>
      </trkpt>
      <trkpt lat="46.06742" lon="-0.38027">
        <ele>67.4</ele>
        <time>2013-03-10T10:20:42.000Z</time>
      </trkpt>
      <trkpt lat="46.06739" lon="-0.38034">
        <ele>67.3</ele>
        <time>2013-03-10T10:20:43.000Z</time>
      </trkpt>
      <trkpt lat="46.06737" lon="-0.38041">
        <ele>67.1</ele>
        <time>2013-03-10T10:20:44.000Z</time>
      </trkpt>
      <trkpt lat="46.06735" lon="-0.38048">
        <ele>67</ele>
        <time>2013-03-10T10:20:45.000Z</time>
      </trkpt>
      <trkpt lat="46.06733" lon="-0.38055">
        <ele>67.1</ele>
        <time>2013-03-10T10:20:46.000Z</time>
      </trkpt>
      <trkpt lat="46.0673" lon="-0.38062">
        <ele>67.2</ele>
        <time>2013-03-10T10:20:47.000Z</time>
      </trkpt>
      <trkpt lat="46.06728" lon="-0.3807">
        <ele>67.2</ele>
        <time>2013-03-10T10:20:48.000Z</time>
      </trkpt>
      <trkpt lat="46.06725" lon="-0.38077">
        <ele>67.1</ele>
        <time>2013-03-10T10:20:49.000Z</time>
      </trkpt>
      <trkpt lat="46.06723" lon="-0.38084">
        <ele>67.1</ele>
        <time>2013-03-10T10:20:50.000Z</time>
      </trkpt>
      <trkpt lat="46.0672" lon="-0.38091">
        <ele>67.3</ele>
        <time>2013-03-10T10:20:51.000Z</time>
      </trkpt>
      <trkpt lat="46.06718" lon="-0.38099">
        <ele>67.4</ele>
        <time>2013-03-10T10:20:52.000Z</time>
      </trkpt>
      <trkpt lat="46.06715" lon="-0.38106">
        <ele>67.4</ele>
        <time>2013-03-10T10:20:53.000Z</time>
      </trkpt>
      <trkpt lat="46.06713" lon="-0.38113">
        <ele>67.3</ele>
        <time>2013-03-10T10:20:54.000Z</time>
      </trkpt>
      <trkpt lat="46.06711" lon="-0.3812">
        <ele>67.3</ele>
        <time>2013-03-10T10:20:55.000Z</time>
      </trkpt>
      <trkpt lat="46.06708" lon="-0.38127">
        <ele>67.2</ele>
        <time>2013-03-10T10:20:56.000Z</time>
      </trkpt>
      <trkpt lat="46.06705" lon="-0.38134">
        <ele>67.1</ele>
        <time>2013-03-10T10:20:57.000Z</time>
      </trkpt>
      <trkpt lat="46.06702" lon="-0.3814">
        <ele>66.9</ele>
        <time>2013-03-10T10:20:58.000Z</time>
      </trkpt>
      <trkpt lat="46.06698" lon="-0.38146">
        <ele>66.8</ele>
        <time>2013-03-10T10:20:59.000Z</time>
      </trkpt>
      <trkpt lat="46.06694" lon="-0.38152">
        <ele>66.6</ele>
        <time>2013-03-10T10:21:00.000Z</time>
      </trkpt>
      <trkpt lat="46.06691" lon="-0.38157">
        <ele>66.5</ele>
        <time>2013-03-10T10:21:01.000Z</time>
      </trkpt>
      <trkpt lat="46.06687" lon="-0.38162">
        <ele>66.4</ele>
        <time>2013-03-10T10:21:02.000Z</time>
      </trkpt>
      <trkpt lat="46.06683" lon="-0.38167">
        <ele>66.5</ele>
        <time>2013-03-10T10:21:03.000Z</time>
      </trkpt>
      <trkpt lat="46.06676" lon="-0.38174">
        <ele>66.5</ele>
        <time>2013-03-10T10:21:05.000Z</time>
      </trkpt>
      <trkpt lat="46.06671" lon="-0.38181">
        <ele>66.4</ele>
        <time>2013-03-10T10:21:07.000Z</time>
      </trkpt>
      <trkpt lat="46.06667" lon="-0.38191">
        <ele>66</ele>
        <time>2013-03-10T10:21:09.000Z</time>
      </trkpt>
      <trkpt lat="46.06659" lon="-0.38197">
        <ele>65.9</ele>
        <time>2013-03-10T10:21:11.000Z</time>
      </trkpt>
      <trkpt lat="46.06652" lon="-0.38202">
        <ele>66.1</ele>
        <time>2013-03-10T10:21:13.000Z</time>
      </trkpt>
      <trkpt lat="46.06645" lon="-0.3821">
        <ele>66.2</ele>
        <time>2013-03-10T10:21:15.000Z</time>
      </trkpt>
      <trkpt lat="46.06642" lon="-0.38214">
        <ele>66.2</ele>
        <time>2013-03-10T10:21:16.000Z</time>
      </trkpt>
      <trkpt lat="46.06638" lon="-0.38219">
        <ele>66.3</ele>
        <time>2013-03-10T10:21:17.000Z</time>
      </trkpt>
      <trkpt lat="46.06634" lon="-0.38223">
        <ele>66.4</ele>
        <time>2013-03-10T10:21:18.000Z</time>
      </trkpt>
      <trkpt lat="46.06631" lon="-0.38227">
        <ele>66.4</ele>
        <time>2013-03-10T10:21:19.000Z</time>
      </trkpt>
      <trkpt lat="46.06627" lon="-0.38231">
        <ele>66.5</ele>
        <time>2013-03-10T10:21:20.000Z</time>
      </trkpt>
      <trkpt lat="46.06624" lon="-0.38236">
        <ele>66.5</ele>
        <time>2013-03-10T10:21:21.000Z</time>
      </trkpt>
      <trkpt lat="46.0662" lon="-0.3824">
        <ele>66.6</ele>
        <time>2013-03-10T10:21:22.000Z</time>
      </trkpt>
      <trkpt lat="46.06613" lon="-0.38247">
        <ele>66.6</ele>
        <time>2013-03-10T10:21:24.000Z</time>
      </trkpt>
      <trkpt lat="46.06606" lon="-0.38255">
        <ele>66.5</ele>
        <time>2013-03-10T10:21:26.000Z</time>
      </trkpt>
      <trkpt lat="46.06598" lon="-0.38262">
        <ele>66.7</ele>
        <time>2013-03-10T10:21:28.000Z</time>
      </trkpt>
      <trkpt lat="46.06592" lon="-0.3827">
        <ele>66.9</ele>
        <time>2013-03-10T10:21:30.000Z</time>
      </trkpt>
      <trkpt lat="46.06584" lon="-0.38277">
        <ele>67.5</ele>
        <time>2013-03-10T10:21:32.000Z</time>
      </trkpt>
      <trkpt lat="46.06577" lon="-0.38285">
        <ele>67.7</ele>
        <time>2013-03-10T10:21:34.000Z</time>
      </trkpt>
      <trkpt lat="46.0657" lon="-0.38292">
        <ele>67.6</ele>
        <time>2013-03-10T10:21:36.000Z</time>
      </trkpt>
      <trkpt lat="46.06563" lon="-0.38299">
        <ele>67.3</ele>
        <time>2013-03-10T10:21:38.000Z</time>
      </trkpt>
      <trkpt lat="46.06556" lon="-0.38307">
        <ele>67.3</ele>
        <time>2013-03-10T10:21:40.000Z</time>
      </trkpt>
      <trkpt lat="46.0655" lon="-0.38314">
        <ele>67.5</ele>
        <time>2013-03-10T10:21:42.000Z</time>
      </trkpt>
      <trkpt lat="46.06542" lon="-0.38321">
        <ele>67.2</ele>
        <time>2013-03-10T10:21:44.000Z</time>
      </trkpt>
      <trkpt lat="46.06539" lon="-0.38324">
        <ele>67.3</ele>
        <time>2013-03-10T10:21:45.000Z</time>
      </trkpt>
      <trkpt lat="46.06529" lon="-0.38335">
        <ele>67.5</ele>
        <time>2013-03-10T10:21:48.000Z</time>
      </trkpt>
      <trkpt lat="46.06522" lon="-0.38342">
        <ele>67.5</ele>
        <time>2013-03-10T10:21:50.000Z</time>
      </trkpt>
      <trkpt lat="46.06516" lon="-0.38347">
        <ele>67.4</ele>
        <time>2013-03-10T10:21:52.000Z</time>
      </trkpt>
      <trkpt lat="46.0651" lon="-0.38349">
        <ele>67.8</ele>
        <time>2013-03-10T10:21:54.000Z</time>
      </trkpt>
      <trkpt lat="46.06505" lon="-0.38356">
        <ele>67.6</ele>
        <time>2013-03-10T10:21:56.000Z</time>
      </trkpt>
      <trkpt lat="46.06499" lon="-0.38362">
        <ele>67.6</ele>
        <time>2013-03-10T10:21:58.000Z</time>
      </trkpt>
      <trkpt lat="46.06493" lon="-0.38366">
        <ele>67.6</ele>
        <time>2013-03-10T10:22:00.000Z</time>
      </trkpt>
      <trkpt lat="46.06488" lon="-0.38371">
        <ele>68</ele>
        <time>2013-03-10T10:22:02.000Z</time>
      </trkpt>
      <trkpt lat="46.06483" lon="-0.38377">
        <ele>68.6</ele>
        <time>2013-03-10T10:22:04.000Z</time>
      </trkpt>
      <trkpt lat="46.06477" lon="-0.38379">
        <ele>68.6</ele>
        <time>2013-03-10T10:22:06.000Z</time>
      </trkpt>
      <trkpt lat="46.06472" lon="-0.38388">
        <ele>69</ele>
        <time>2013-03-10T10:22:10.000Z</time>
      </trkpt>
      <trkpt lat="46.06467" lon="-0.38396">
        <ele>69</ele>
        <time>2013-03-10T10:22:13.000Z</time>
      </trkpt>
      <trkpt lat="46.06466" lon="-0.38407">
        <ele>68.5</ele>
        <time>2013-03-10T10:22:16.000Z</time>
      </trkpt>
      <trkpt lat="46.0646" lon="-0.38413">
        <ele>68.4</ele>
        <time>2013-03-10T10:22:20.000Z</time>
      </trkpt>
      <trkpt lat="46.06453" lon="-0.38421">
        <ele>68.1</ele>
        <time>2013-03-10T10:22:23.000Z</time>
      </trkpt>
      <trkpt lat="46.06445" lon="-0.38423">
        <ele>68.3</ele>
        <time>2013-03-10T10:22:27.000Z</time>
      </trkpt>
      <trkpt lat="46.06438" lon="-0.3842">
        <ele>68.7</ele>
        <time>2013-03-10T10:22:30.000Z</time>
      </trkpt>
      <trkpt lat="46.0643" lon="-0.38418">
        <ele>68.8</ele>
        <time>2013-03-10T10:22:33.000Z</time>
      </trkpt>
      <trkpt lat="46.06423" lon="-0.38421">
        <ele>69.6</ele>
        <time>2013-03-10T10:22:36.000Z</time>
      </trkpt>
      <trkpt lat="46.06418" lon="-0.38425">
        <ele>69.5</ele>
        <time>2013-03-10T10:22:38.000Z</time>
      </trkpt>
      <trkpt lat="46.06411" lon="-0.38431">
        <ele>69.3</ele>
        <time>2013-03-10T10:22:41.000Z</time>
      </trkpt>
      <trkpt lat="46.06403" lon="-0.38438">
        <ele>69</ele>
        <time>2013-03-10T10:22:48.000Z</time>
      </trkpt>
      <trkpt lat="46.06403" lon="-0.38438">
        <ele>68.9</ele>
        <time>2013-03-10T10:22:49.000Z</time>
      </trkpt>
      <trkpt lat="46.06387" lon="-0.3844">
        <ele>69.2</ele>
        <time>2013-03-10T10:23:18.000Z</time>
      </trkpt>
      <trkpt lat="46.0638" lon="-0.38444">
        <ele>69.3</ele>
        <time>2013-03-10T10:23:22.000Z</time>
      </trkpt>
      <trkpt lat="46.06375" lon="-0.3845">
        <ele>69.8</ele>
        <time>2013-03-10T10:23:25.000Z</time>
      </trkpt>
      <trkpt lat="46.0637" lon="-0.38457">
        <ele>70</ele>
        <time>2013-03-10T10:23:28.000Z</time>
      </trkpt>
      <trkpt lat="46.06363" lon="-0.38465">
        <ele>69.9</ele>
        <time>2013-03-10T10:23:31.000Z</time>
      </trkpt>
      <trkpt lat="46.06359" lon="-0.38471">
        <ele>70.2</ele>
        <time>2013-03-10T10:23:33.000Z</time>
      </trkpt>
      <trkpt lat="46.06355" lon="-0.38479">
        <ele>70.3</ele>
        <time>2013-03-10T10:23:35.000Z</time>
      </trkpt>
      <trkpt lat="46.0635" lon="-0.38485">
        <ele>70.4</ele>
        <time>2013-03-10T10:23:37.000Z</time>
      </trkpt>
      <trkpt lat="46.06346" lon="-0.38492">
        <ele>70.2</ele>
        <time>2013-03-10T10:23:39.000Z</time>
      </trkpt>
      <trkpt lat="46.06341" lon="-0.38499">
        <ele>69.9</ele>
        <time>2013-03-10T10:23:41.000Z</time>
      </trkpt>
      <trkpt lat="46.06335" lon="-0.38505">
        <ele>69.6</ele>
        <time>2013-03-10T10:23:43.000Z</time>
      </trkpt>
      <trkpt lat="46.06329" lon="-0.38513">
        <ele>69.3</ele>
        <time>2013-03-10T10:23:46.000Z</time>
      </trkpt>
      <trkpt lat="46.06322" lon="-0.38522">
        <ele>69.3</ele>
        <time>2013-03-10T10:23:49.000Z</time>
      </trkpt>
      <trkpt lat="46.0632" lon="-0.38526">
        <ele>69.4</ele>
        <time>2013-03-10T10:23:50.000Z</time>
      </trkpt>
      <trkpt lat="46.06314" lon="-0.38536">
        <ele>69.1</ele>
        <time>2013-03-10T10:23:53.000Z</time>
      </trkpt>
      <trkpt lat="46.06308" lon="-0.38542">
        <ele>69.7</ele>
        <time>2013-03-10T10:23:55.000Z</time>
      </trkpt>
      <trkpt lat="46.06303" lon="-0.38548">
        <ele>69.4</ele>
        <time>2013-03-10T10:23:57.000Z</time>
      </trkpt>
      <trkpt lat="46.06297" lon="-0.38553">
        <ele>69.8</ele>
        <time>2013-03-10T10:23:59.000Z</time>
      </trkpt>
      <trkpt lat="46.06292" lon="-0.38561">
        <ele>69.8</ele>
        <time>2013-03-10T10:24:01.000Z</time>
      </trkpt>
      <trkpt lat="46.06287" lon="-0.3857">
        <ele>69.9</ele>
        <time>2013-03-10T10:24:03.000Z</time>
      </trkpt>
      <trkpt lat="46.06283" lon="-0.38577">
        <ele>70</ele>
        <time>2013-03-10T10:24:05.000Z</time>
      </trkpt>
      <trkpt lat="46.06277" lon="-0.3858">
        <ele>69.1</ele>
        <time>2013-03-10T10:24:07.000Z</time>
      </trkpt>
      <trkpt lat="46.06271" lon="-0.38583">
        <ele>69.1</ele>
        <time>2013-03-10T10:24:09.000Z</time>
      </trkpt>
      <trkpt lat="46.06266" lon="-0.38593">
        <ele>68</ele>
        <time>2013-03-10T10:24:12.000Z</time>
      </trkpt>
      <trkpt lat="46.06271" lon="-0.38601">
        <ele>68.2</ele>
        <time>2013-03-10T10:24:15.000Z</time>
      </trkpt>
      <trkpt lat="46.06278" lon="-0.38605">
        <ele>68.8</ele>
        <time>2013-03-10T10:24:18.000Z</time>
      </trkpt>
      <trkpt lat="46.06286" lon="-0.38612">
        <ele>68.3</ele>
        <time>2013-03-10T10:24:21.000Z</time>
      </trkpt>
      <trkpt lat="46.06293" lon="-0.38619">
        <ele>67.7</ele>
        <time>2013-03-10T10:24:24.000Z</time>
      </trkpt>
      <trkpt lat="46.06299" lon="-0.38624">
        <ele>67.6</ele>
        <time>2013-03-10T10:24:26.000Z</time>
      </trkpt>
      <trkpt lat="46.06306" lon="-0.38631">
        <ele>67.7</ele>
        <time>2013-03-10T10:24:28.000Z</time>
      </trkpt>
      <trkpt lat="46.06312" lon="-0.38638">
        <ele>67.7</ele>
        <time>2013-03-10T10:24:30.000Z</time>
      </trkpt>
      <trkpt lat="46.06319" lon="-0.38647">
        <ele>67.5</ele>
        <time>2013-03-10T10:24:32.000Z</time>
      </trkpt>
      <trkpt lat="46.06323" lon="-0.38651">
        <ele>67.3</ele>
        <time>2013-03-10T10:24:33.000Z</time>
      </trkpt>
      <trkpt lat="46.06326" lon="-0.38655">
        <ele>67.2</ele>
        <time>2013-03-10T10:24:34.000Z</time>
      </trkpt>
      <trkpt lat="46.0633" lon="-0.38659">
        <ele>67</ele>
        <time>2013-03-10T10:24:35.000Z</time>
      </trkpt>
      <trkpt lat="46.06334" lon="-0.38663">
        <ele>67</ele>
        <time>2013-03-10T10:24:36.000Z</time>
      </trkpt>
      <trkpt lat="46.06337" lon="-0.38667">
        <ele>67</ele>
        <time>2013-03-10T10:24:37.000Z</time>
      </trkpt>
      <trkpt lat="46.06341" lon="-0.38671">
        <ele>67</ele>
        <time>2013-03-10T10:24:38.000Z</time>
      </trkpt>
      <trkpt lat="46.06346" lon="-0.38676">
        <ele>66.7</ele>
        <time>2013-03-10T10:24:39.000Z</time>
      </trkpt>
      <trkpt lat="46.0635" lon="-0.3868">
        <ele>66.5</ele>
        <time>2013-03-10T10:24:40.000Z</time>
      </trkpt>
      <trkpt lat="46.06355" lon="-0.38685">
        <ele>66.4</ele>
        <time>2013-03-10T10:24:41.000Z</time>
      </trkpt>
      <trkpt lat="46.0636" lon="-0.3869">
        <ele>66.3</ele>
        <time>2013-03-10T10:24:42.000Z</time>
      </trkpt>
      <trkpt lat="46.06365" lon="-0.38695">
        <ele>66.2</ele>
        <time>2013-03-10T10:24:43.000Z</time>
      </trkpt>
      <trkpt lat="46.06369" lon="-0.387">
        <ele>66.3</ele>
        <time>2013-03-10T10:24:44.000Z</time>
      </trkpt>
      <trkpt lat="46.06374" lon="-0.38705">
        <ele>66.4</ele>
        <time>2013-03-10T10:24:45.000Z</time>
      </trkpt>
      <trkpt lat="46.06379" lon="-0.38711">
        <ele>66.5</ele>
        <time>2013-03-10T10:24:46.000Z</time>
      </trkpt>
      <trkpt lat="46.06384" lon="-0.38717">
        <ele>66.5</ele>
        <time>2013-03-10T10:24:47.000Z</time>
      </trkpt>
      <trkpt lat="46.06389" lon="-0.38723">
        <ele>66.2</ele>
        <time>2013-03-10T10:24:48.000Z</time>
      </trkpt>
      <trkpt lat="46.06393" lon="-0.38729">
        <ele>66</ele>
        <time>2013-03-10T10:24:49.000Z</time>
      </trkpt>
      <trkpt lat="46.06398" lon="-0.38735">
        <ele>65.9</ele>
        <time>2013-03-10T10:24:50.000Z</time>
      </trkpt>
      <trkpt lat="46.06401" lon="-0.38741">
        <ele>65.8</ele>
        <time>2013-03-10T10:24:51.000Z</time>
      </trkpt>
      <trkpt lat="46.06407" lon="-0.38749">
        <ele>65.3</ele>
        <time>2013-03-10T10:24:53.000Z</time>
      </trkpt>
      <trkpt lat="46.06411" lon="-0.38759">
        <ele>63.9</ele>
        <time>2013-03-10T10:24:56.000Z</time>
      </trkpt>
      <trkpt lat="46.0641" lon="-0.38771">
        <ele>63</ele>
        <time>2013-03-10T10:25:03.000Z</time>
      </trkpt>
      <trkpt lat="46.0641" lon="-0.38781">
        <ele>62.6</ele>
        <time>2013-03-10T10:25:08.000Z</time>
      </trkpt>
      <trkpt lat="46.06406" lon="-0.38792">
        <ele>62.9</ele>
        <time>2013-03-10T10:25:12.000Z</time>
      </trkpt>
      <trkpt lat="46.06404" lon="-0.38804">
        <ele>62.8</ele>
        <time>2013-03-10T10:25:16.000Z</time>
      </trkpt>
      <trkpt lat="46.06407" lon="-0.38814">
        <ele>62.5</ele>
        <time>2013-03-10T10:25:20.000Z</time>
      </trkpt>
      <trkpt lat="46.06407" lon="-0.38824">
        <ele>62.3</ele>
        <time>2013-03-10T10:25:24.000Z</time>
      </trkpt>
      <trkpt lat="46.06402" lon="-0.38835">
        <ele>61.8</ele>
        <time>2013-03-10T10:25:28.000Z</time>
      </trkpt>
      <trkpt lat="46.06403" lon="-0.38847">
        <ele>62.2</ele>
        <time>2013-03-10T10:25:31.000Z</time>
      </trkpt>
      <trkpt lat="46.06403" lon="-0.38857">
        <ele>62.1</ele>
        <time>2013-03-10T10:25:33.000Z</time>
      </trkpt>
      <trkpt lat="46.064" lon="-0.38866">
        <ele>61.8</ele>
        <time>2013-03-10T10:25:35.000Z</time>
      </trkpt>
      <trkpt lat="46.06399" lon="-0.38874">
        <ele>61.8</ele>
        <time>2013-03-10T10:25:37.000Z</time>
      </trkpt>
      <trkpt lat="46.06398" lon="-0.38885">
        <ele>61.6</ele>
        <time>2013-03-10T10:25:39.000Z</time>
      </trkpt>
      <trkpt lat="46.06398" lon="-0.38895">
        <ele>61.1</ele>
        <time>2013-03-10T10:25:41.000Z</time>
      </trkpt>
      <trkpt lat="46.06399" lon="-0.38905">
        <ele>60.5</ele>
        <time>2013-03-10T10:25:44.000Z</time>
      </trkpt>
      <trkpt lat="46.06407" lon="-0.38905">
        <ele>59.9</ele>
        <time>2013-03-10T10:25:53.000Z</time>
      </trkpt>
      <trkpt lat="46.06409" lon="-0.38904">
        <ele>59.9</ele>
        <time>2013-03-10T10:25:54.000Z</time>
      </trkpt>
      <trkpt lat="46.06416" lon="-0.38918">
        <ele>59.8</ele>
        <time>2013-03-10T10:25:59.000Z</time>
      </trkpt>
      <trkpt lat="46.06415" lon="-0.38929">
        <ele>59.6</ele>
        <time>2013-03-10T10:26:02.000Z</time>
      </trkpt>
      <trkpt lat="46.06415" lon="-0.38939">
        <ele>59</ele>
        <time>2013-03-10T10:26:05.000Z</time>
      </trkpt>
      <trkpt lat="46.06414" lon="-0.38949">
        <ele>58.4</ele>
        <time>2013-03-10T10:26:08.000Z</time>
      </trkpt>
      <trkpt lat="46.06406" lon="-0.38953">
        <ele>58</ele>
        <time>2013-03-10T10:26:13.000Z</time>
      </trkpt>
      <trkpt lat="46.06402" lon="-0.38964">
        <ele>58.9</ele>
        <time>2013-03-10T10:26:17.000Z</time>
      </trkpt>
      <trkpt lat="46.06395" lon="-0.38971">
        <ele>58.8</ele>
        <time>2013-03-10T10:26:21.000Z</time>
      </trkpt>
      <trkpt lat="46.06391" lon="-0.3896">
        <ele>58.9</ele>
        <time>2013-03-10T10:26:27.000Z</time>
      </trkpt>
      <trkpt lat="46.06389" lon="-0.38948">
        <ele>59.5</ele>
        <time>2013-03-10T10:26:36.000Z</time>
      </trkpt>
      <trkpt lat="46.06385" lon="-0.38938">
        <ele>60.3</ele>
        <time>2013-03-10T10:26:41.000Z</time>
      </trkpt>
      <trkpt lat="46.06378" lon="-0.38937">
        <ele>61</ele>
        <time>2013-03-10T10:26:45.000Z</time>
      </trkpt>
      <trkpt lat="46.0637" lon="-0.38935">
        <ele>61</ele>
        <time>2013-03-10T10:26:49.000Z</time>
      </trkpt>
      <trkpt lat="46.06361" lon="-0.38936">
        <ele>60.6</ele>
        <time>2013-03-10T10:26:53.000Z</time>
      </trkpt>
      <trkpt lat="46.06353" lon="-0.3894">
        <ele>61</ele>
        <time>2013-03-10T10:26:58.000Z</time>
      </trkpt>
      <trkpt lat="46.06351" lon="-0.38941">
        <ele>60.7</ele>
        <time>2013-03-10T10:26:59.000Z</time>
      </trkpt>
      <trkpt lat="46.0634" lon="-0.38936">
        <ele>60.8</ele>
        <time>2013-03-10T10:27:06.000Z</time>
      </trkpt>
      <trkpt lat="46.06334" lon="-0.38928">
        <ele>61.1</ele>
        <time>2013-03-10T10:27:09.000Z</time>
      </trkpt>
      <trkpt lat="46.06329" lon="-0.38921">
        <ele>60.5</ele>
        <time>2013-03-10T10:27:12.000Z</time>
      </trkpt>
      <trkpt lat="46.06323" lon="-0.38913">
        <ele>61</ele>
        <time>2013-03-10T10:27:15.000Z</time>
      </trkpt>
      <trkpt lat="46.06318" lon="-0.38905">
        <ele>61.1</ele>
        <time>2013-03-10T10:27:18.000Z</time>
      </trkpt>
      <trkpt lat="46.06311" lon="-0.38897">
        <ele>61.8</ele>
        <time>2013-03-10T10:27:21.000Z</time>
      </trkpt>
      <trkpt lat="46.06305" lon="-0.38889">
        <ele>61.5</ele>
        <time>2013-03-10T10:27:24.000Z</time>
      </trkpt>
      <trkpt lat="46.063" lon="-0.38879">
        <ele>62</ele>
        <time>2013-03-10T10:27:27.000Z</time>
      </trkpt>
      <trkpt lat="46.06295" lon="-0.3887">
        <ele>62.6</ele>
        <time>2013-03-10T10:27:30.000Z</time>
      </trkpt>
      <trkpt lat="46.0629" lon="-0.38864">
        <ele>62.3</ele>
        <time>2013-03-10T10:27:33.000Z</time>
      </trkpt>
      <trkpt lat="46.06285" lon="-0.38854">
        <ele>62.6</ele>
        <time>2013-03-10T10:27:36.000Z</time>
      </trkpt>
      <trkpt lat="46.06279" lon="-0.38845">
        <ele>63.1</ele>
        <time>2013-03-10T10:27:39.000Z</time>
      </trkpt>
      <trkpt lat="46.06272" lon="-0.38837">
        <ele>62.7</ele>
        <time>2013-03-10T10:27:42.000Z</time>
      </trkpt>
      <trkpt lat="46.06267" lon="-0.38828">
        <ele>62.9</ele>
        <time>2013-03-10T10:27:45.000Z</time>
      </trkpt>
      <trkpt lat="46.06261" lon="-0.38818">
        <ele>63.5</ele>
        <time>2013-03-10T10:27:48.000Z</time>
      </trkpt>
      <trkpt lat="46.06257" lon="-0.38808">
        <ele>63.5</ele>
        <time>2013-03-10T10:27:51.000Z</time>
      </trkpt>
      <trkpt lat="46.06253" lon="-0.38799">
        <ele>64.3</ele>
        <time>2013-03-10T10:27:54.000Z</time>
      </trkpt>
      <trkpt lat="46.06246" lon="-0.3879">
        <ele>64.6</ele>
        <time>2013-03-10T10:27:58.000Z</time>
      </trkpt>
      <trkpt lat="46.06242" lon="-0.3878">
        <ele>65</ele>
        <time>2013-03-10T10:28:01.000Z</time>
      </trkpt>
      <trkpt lat="46.06241" lon="-0.38777">
        <ele>65.2</ele>
        <time>2013-03-10T10:28:02.000Z</time>
      </trkpt>
      <trkpt lat="46.06235" lon="-0.3876">
        <ele>65.1</ele>
        <time>2013-03-10T10:28:07.000Z</time>
      </trkpt>
      <trkpt lat="46.0623" lon="-0.38751">
        <ele>65.4</ele>
        <time>2013-03-10T10:28:10.000Z</time>
      </trkpt>
      <trkpt lat="46.06223" lon="-0.38745">
        <ele>65.5</ele>
        <time>2013-03-10T10:28:13.000Z</time>
      </trkpt>
      <trkpt lat="46.06218" lon="-0.38736">
        <ele>65.9</ele>
        <time>2013-03-10T10:28:16.000Z</time>
      </trkpt>
      <trkpt lat="46.06211" lon="-0.38729">
        <ele>66.7</ele>
        <time>2013-03-10T10:28:20.000Z</time>
      </trkpt>
      <trkpt lat="46.06207" lon="-0.38741">
        <ele>65.9</ele>
        <time>2013-03-10T10:28:26.000Z</time>
      </trkpt>
      <trkpt lat="46.06207" lon="-0.38752">
        <ele>65.5</ele>
        <time>2013-03-10T10:28:30.000Z</time>
      </trkpt>
      <trkpt lat="46.06206" lon="-0.38762">
        <ele>65.4</ele>
        <time>2013-03-10T10:28:33.000Z</time>
      </trkpt>
      <trkpt lat="46.06207" lon="-0.3877">
        <ele>65.1</ele>
        <time>2013-03-10T10:28:35.000Z</time>
      </trkpt>
      <trkpt lat="46.06207" lon="-0.3878">
        <ele>65</ele>
        <time>2013-03-10T10:28:37.000Z</time>
      </trkpt>
      <trkpt lat="46.06202" lon="-0.3879">
        <ele>64.8</ele>
        <time>2013-03-10T10:28:39.000Z</time>
      </trkpt>
      <trkpt lat="46.06199" lon="-0.38796">
        <ele>64.7</ele>
        <time>2013-03-10T10:28:40.000Z</time>
      </trkpt>
      <trkpt lat="46.06195" lon="-0.38802">
        <ele>64.6</ele>
        <time>2013-03-10T10:28:41.000Z</time>
      </trkpt>
      <trkpt lat="46.06192" lon="-0.38807">
        <ele>64.4</ele>
        <time>2013-03-10T10:28:42.000Z</time>
      </trkpt>
      <trkpt lat="46.06188" lon="-0.38813">
        <ele>64.3</ele>
        <time>2013-03-10T10:28:43.000Z</time>
      </trkpt>
      <trkpt lat="46.06184" lon="-0.38819">
        <ele>64.2</ele>
        <time>2013-03-10T10:28:44.000Z</time>
      </trkpt>
      <trkpt lat="46.0618" lon="-0.38825">
        <ele>64.1</ele>
        <time>2013-03-10T10:28:45.000Z</time>
      </trkpt>
      <trkpt lat="46.06176" lon="-0.38831">
        <ele>63.9</ele>
        <time>2013-03-10T10:28:46.000Z</time>
      </trkpt>
      <trkpt lat="46.06171" lon="-0.38837">
        <ele>63.7</ele>
        <time>2013-03-10T10:28:47.000Z</time>
      </trkpt>
      <trkpt lat="46.06167" lon="-0.38843">
        <ele>63.7</ele>
        <time>2013-03-10T10:28:48.000Z</time>
      </trkpt>
      <trkpt lat="46.06163" lon="-0.38849">
        <ele>63.7</ele>
        <time>2013-03-10T10:28:49.000Z</time>
      </trkpt>
      <trkpt lat="46.06158" lon="-0.38855">
        <ele>63.3</ele>
        <time>2013-03-10T10:28:50.000Z</time>
      </trkpt>
      <trkpt lat="46.06154" lon="-0.38861">
        <ele>63</ele>
        <time>2013-03-10T10:28:51.000Z</time>
      </trkpt>
      <trkpt lat="46.0615" lon="-0.38868">
        <ele>62.8</ele>
        <time>2013-03-10T10:28:52.000Z</time>
      </trkpt>
      <trkpt lat="46.06146" lon="-0.38875">
        <ele>62.9</ele>
        <time>2013-03-10T10:28:53.000Z</time>
      </trkpt>
      <trkpt lat="46.06142" lon="-0.38881">
        <ele>62.9</ele>
        <time>2013-03-10T10:28:54.000Z</time>
      </trkpt>
      <trkpt lat="46.06139" lon="-0.38889">
        <ele>62.5</ele>
        <time>2013-03-10T10:28:55.000Z</time>
      </trkpt>
      <trkpt lat="46.06136" lon="-0.38896">
        <ele>62.1</ele>
        <time>2013-03-10T10:28:56.000Z</time>
      </trkpt>
      <trkpt lat="46.06133" lon="-0.38903">
        <ele>62</ele>
        <time>2013-03-10T10:28:57.000Z</time>
      </trkpt>
      <trkpt lat="46.0613" lon="-0.38911">
        <ele>61.9</ele>
        <time>2013-03-10T10:28:58.000Z</time>
      </trkpt>
      <trkpt lat="46.06128" lon="-0.38918">
        <ele>61.9</ele>
        <time>2013-03-10T10:28:59.000Z</time>
      </trkpt>
      <trkpt lat="46.06126" lon="-0.38926">
        <ele>61.7</ele>
        <time>2013-03-10T10:29:00.000Z</time>
      </trkpt>
      <trkpt lat="46.06124" lon="-0.38934">
        <ele>61.7</ele>
        <time>2013-03-10T10:29:01.000Z</time>
      </trkpt>
      <trkpt lat="46.06123" lon="-0.38942">
        <ele>61.5</ele>
        <time>2013-03-10T10:29:02.000Z</time>
      </trkpt>
      <trkpt lat="46.06123" lon="-0.38951">
        <ele>61.4</ele>
        <time>2013-03-10T10:29:03.000Z</time>
      </trkpt>
      <trkpt lat="46.06123" lon="-0.3896">
        <ele>61.3</ele>
        <time>2013-03-10T10:29:04.000Z</time>
      </trkpt>
      <trkpt lat="46.06123" lon="-0.38969">
        <ele>61.1</ele>
        <time>2013-03-10T10:29:05.000Z</time>
      </trkpt>
      <trkpt lat="46.06123" lon="-0.38977">
        <ele>60.9</ele>
        <time>2013-03-10T10:29:06.000Z</time>
      </trkpt>
      <trkpt lat="46.06124" lon="-0.38986">
        <ele>60.7</ele>
        <time>2013-03-10T10:29:07.000Z</time>
      </trkpt>
      <trkpt lat="46.06124" lon="-0.38995">
        <ele>60.6</ele>
        <time>2013-03-10T10:29:08.000Z</time>
      </trkpt>
      <trkpt lat="46.06125" lon="-0.39003">
        <ele>60</ele>
        <time>2013-03-10T10:29:09.000Z</time>
      </trkpt>
      <trkpt lat="46.06126" lon="-0.39012">
        <ele>59.5</ele>
        <time>2013-03-10T10:29:10.000Z</time>
      </trkpt>
      <trkpt lat="46.06126" lon="-0.3902">
        <ele>59.2</ele>
        <time>2013-03-10T10:29:11.000Z</time>
      </trkpt>
      <trkpt lat="46.06129" lon="-0.39031">
        <ele>58.7</ele>
        <time>2013-03-10T10:29:13.000Z</time>
      </trkpt>
      <trkpt lat="46.06135" lon="-0.39024">
        <ele>57.2</ele>
        <time>2013-03-10T10:29:18.000Z</time>
      </trkpt>
      <trkpt lat="46.06138" lon="-0.39013">
        <ele>57.5</ele>
        <time>2013-03-10T10:29:21.000Z</time>
      </trkpt>
      <trkpt lat="46.06141" lon="-0.39004">
        <ele>57.9</ele>
        <time>2013-03-10T10:29:23.000Z</time>
      </trkpt>
      <trkpt lat="46.06146" lon="-0.38997">
        <ele>58.4</ele>
        <time>2013-03-10T10:29:25.000Z</time>
      </trkpt>
      <trkpt lat="46.06151" lon="-0.38992">
        <ele>58.1</ele>
        <time>2013-03-10T10:29:27.000Z</time>
      </trkpt>
      <trkpt lat="46.06156" lon="-0.38985">
        <ele>58.2</ele>
        <time>2013-03-10T10:29:29.000Z</time>
      </trkpt>
      <trkpt lat="46.06163" lon="-0.38983">
        <ele>59</ele>
        <time>2013-03-10T10:29:33.000Z</time>
      </trkpt>
      <trkpt lat="46.06171" lon="-0.38987">
        <ele>58.5</ele>
        <time>2013-03-10T10:29:39.000Z</time>
      </trkpt>
      <trkpt lat="46.06175" lon="-0.38998">
        <ele>59.1</ele>
        <time>2013-03-10T10:29:46.000Z</time>
      </trkpt>
      <trkpt lat="46.06181" lon="-0.39006">
        <ele>58.7</ele>
        <time>2013-03-10T10:29:51.000Z</time>
      </trkpt>
      <trkpt lat="46.06188" lon="-0.39013">
        <ele>58.8</ele>
        <time>2013-03-10T10:29:56.000Z</time>
      </trkpt>
      <trkpt lat="46.06193" lon="-0.39022">
        <ele>58.7</ele>
        <time>2013-03-10T10:30:00.000Z</time>
      </trkpt>
      <trkpt lat="46.06197" lon="-0.39031">
        <ele>58.3</ele>
        <time>2013-03-10T10:30:03.000Z</time>
      </trkpt>
      <trkpt lat="46.06198" lon="-0.39033">
        <ele>58.2</ele>
        <time>2013-03-10T10:30:04.000Z</time>
      </trkpt>
      <trkpt lat="46.06208" lon="-0.39047">
        <ele>57.3</ele>
        <time>2013-03-10T10:30:15.000Z</time>
      </trkpt>
      <trkpt lat="46.06216" lon="-0.39045">
        <ele>57.5</ele>
        <time>2013-03-10T10:30:26.000Z</time>
      </trkpt>
      <trkpt lat="46.06223" lon="-0.39038">
        <ele>58.1</ele>
        <time>2013-03-10T10:30:32.000Z</time>
      </trkpt>
      <trkpt lat="46.06231" lon="-0.39031">
        <ele>58.6</ele>
        <time>2013-03-10T10:30:37.000Z</time>
      </trkpt>
      <trkpt lat="46.06238" lon="-0.39026">
        <ele>59</ele>
        <time>2013-03-10T10:30:41.000Z</time>
      </trkpt>
      <trkpt lat="46.06244" lon="-0.3902">
        <ele>59.1</ele>
        <time>2013-03-10T10:30:45.000Z</time>
      </trkpt>
      <trkpt lat="46.0625" lon="-0.39013">
        <ele>59.4</ele>
        <time>2013-03-10T10:30:49.000Z</time>
      </trkpt>
      <trkpt lat="46.06258" lon="-0.39009">
        <ele>59.5</ele>
        <time>2013-03-10T10:30:54.000Z</time>
      </trkpt>
      <trkpt lat="46.06265" lon="-0.39002">
        <ele>59.2</ele>
        <time>2013-03-10T10:30:58.000Z</time>
      </trkpt>
      <trkpt lat="46.06272" lon="-0.38996">
        <ele>59.3</ele>
        <time>2013-03-10T10:31:01.000Z</time>
      </trkpt>
      <trkpt lat="46.06279" lon="-0.38988">
        <ele>59.5</ele>
        <time>2013-03-10T10:31:04.000Z</time>
      </trkpt>
      <trkpt lat="46.06281" lon="-0.38986">
        <ele>59.5</ele>
        <time>2013-03-10T10:31:05.000Z</time>
      </trkpt>
      <trkpt lat="46.06289" lon="-0.38979">
        <ele>60.3</ele>
        <time>2013-03-10T10:31:08.000Z</time>
      </trkpt>
      <trkpt lat="46.06295" lon="-0.38974">
        <ele>60.3</ele>
        <time>2013-03-10T10:31:10.000Z</time>
      </trkpt>
      <trkpt lat="46.063" lon="-0.38969">
        <ele>60.5</ele>
        <time>2013-03-10T10:31:12.000Z</time>
      </trkpt>
      <trkpt lat="46.06305" lon="-0.38963">
        <ele>60.5</ele>
        <time>2013-03-10T10:31:14.000Z</time>
      </trkpt>
      <trkpt lat="46.06313" lon="-0.38964">
        <ele>60.8</ele>
        <time>2013-03-10T10:31:18.000Z</time>
      </trkpt>
      <trkpt lat="46.06318" lon="-0.38972">
        <ele>60.8</ele>
        <time>2013-03-10T10:31:22.000Z</time>
      </trkpt>
      <trkpt lat="46.06322" lon="-0.38979">
        <ele>60.4</ele>
        <time>2013-03-10T10:31:24.000Z</time>
      </trkpt>
      <trkpt lat="46.06326" lon="-0.38986">
        <ele>60.2</ele>
        <time>2013-03-10T10:31:26.000Z</time>
      </trkpt>
      <trkpt lat="46.06331" lon="-0.38994">
        <ele>60.1</ele>
        <time>2013-03-10T10:31:28.000Z</time>
      </trkpt>
      <trkpt lat="46.06335" lon="-0.39003">
        <ele>60.2</ele>
        <time>2013-03-10T10:31:30.000Z</time>
      </trkpt>
      <trkpt lat="46.0634" lon="-0.39012">
        <ele>60.1</ele>
        <time>2013-03-10T10:31:32.000Z</time>
      </trkpt>
      <trkpt lat="46.06344" lon="-0.3902">
        <ele>59.5</ele>
        <time>2013-03-10T10:31:34.000Z</time>
      </trkpt>
      <trkpt lat="46.06351" lon="-0.39019">
        <ele>59</ele>
        <time>2013-03-10T10:31:37.000Z</time>
      </trkpt>
      <trkpt lat="46.06357" lon="-0.39013">
        <ele>58.8</ele>
        <time>2013-03-10T10:31:39.000Z</time>
      </trkpt>
      <trkpt lat="46.06363" lon="-0.39008">
        <ele>58.5</ele>
        <time>2013-03-10T10:31:41.000Z</time>
      </trkpt>
      <trkpt lat="46.06369" lon="-0.39002">
        <ele>58.4</ele>
        <time>2013-03-10T10:31:43.000Z</time>
      </trkpt>
      <trkpt lat="46.06376" lon="-0.38997">
        <ele>58.2</ele>
        <time>2013-03-10T10:31:45.000Z</time>
      </trkpt>
      <trkpt lat="46.06383" lon="-0.38991">
        <ele>58.5</ele>
        <time>2013-03-10T10:31:47.000Z</time>
      </trkpt>
      <trkpt lat="46.0639" lon="-0.38985">
        <ele>58.2</ele>
        <time>2013-03-10T10:31:49.000Z</time>
      </trkpt>
      <trkpt lat="46.06397" lon="-0.3898">
        <ele>58.2</ele>
        <time>2013-03-10T10:31:51.000Z</time>
      </trkpt>
      <trkpt lat="46.06403" lon="-0.38976">
        <ele>58.7</ele>
        <time>2013-03-10T10:31:53.000Z</time>
      </trkpt>
      <trkpt lat="46.06409" lon="-0.38971">
        <ele>59.3</ele>
        <time>2013-03-10T10:31:55.000Z</time>
      </trkpt>
      <trkpt lat="46.06416" lon="-0.38966">
        <ele>58.4</ele>
        <time>2013-03-10T10:31:57.000Z</time>
      </trkpt>
      <trkpt lat="46.06422" lon="-0.38961">
        <ele>58.6</ele>
        <time>2013-03-10T10:31:59.000Z</time>
      </trkpt>
      <trkpt lat="46.06429" lon="-0.38959">
        <ele>58.4</ele>
        <time>2013-03-10T10:32:03.000Z</time>
      </trkpt>
      <trkpt lat="46.06437" lon="-0.38958">
        <ele>57.5</ele>
        <time>2013-03-10T10:32:08.000Z</time>
      </trkpt>
      <trkpt lat="46.06438" lon="-0.38958">
        <ele>57.4</ele>
        <time>2013-03-10T10:32:09.000Z</time>
      </trkpt>
      <trkpt lat="46.06451" lon="-0.38946">
        <ele>56.9</ele>
        <time>2013-03-10T10:32:16.000Z</time>
      </trkpt>
      <trkpt lat="46.06458" lon="-0.3894">
        <ele>57.8</ele>
        <time>2013-03-10T10:32:19.000Z</time>
      </trkpt>
      <trkpt lat="46.06465" lon="-0.38936">
        <ele>58</ele>
        <time>2013-03-10T10:32:21.000Z</time>
      </trkpt>
      <trkpt lat="46.0647" lon="-0.3893">
        <ele>57.8</ele>
        <time>2013-03-10T10:32:23.000Z</time>
      </trkpt>
      <trkpt lat="46.06477" lon="-0.38925">
        <ele>57.3</ele>
        <time>2013-03-10T10:32:26.000Z</time>
      </trkpt>
      <trkpt lat="46.06483" lon="-0.38929">
        <ele>57.1</ele>
        <time>2013-03-10T10:32:28.000Z</time>
      </trkpt>
      <trkpt lat="46.06489" lon="-0.38936">
        <ele>57.3</ele>
        <time>2013-03-10T10:32:30.000Z</time>
      </trkpt>
      <trkpt lat="46.06495" lon="-0.38945">
        <ele>57.2</ele>
        <time>2013-03-10T10:32:32.000Z</time>
      </trkpt>
      <trkpt lat="46.06498" lon="-0.38949">
        <ele>57</ele>
        <time>2013-03-10T10:32:33.000Z</time>
      </trkpt>
      <trkpt lat="46.06502" lon="-0.38954">
        <ele>56.8</ele>
        <time>2013-03-10T10:32:34.000Z</time>
      </trkpt>
      <trkpt lat="46.06509" lon="-0.38961">
        <ele>55.9</ele>
        <time>2013-03-10T10:32:36.000Z</time>
      </trkpt>
      <trkpt lat="46.06515" lon="-0.38966">
        <ele>54.6</ele>
        <time>2013-03-10T10:32:38.000Z</time>
      </trkpt>
      <trkpt lat="46.06523" lon="-0.38967">
        <ele>53</ele>
        <time>2013-03-10T10:32:41.000Z</time>
      </trkpt>
      <trkpt lat="46.06528" lon="-0.38958">
        <ele>52.3</ele>
        <time>2013-03-10T10:32:45.000Z</time>
      </trkpt>
      <trkpt lat="46.06526" lon="-0.38948">
        <ele>53</ele>
        <time>2013-03-10T10:32:49.000Z</time>
      </trkpt>
      <trkpt lat="46.06524" lon="-0.38937">
        <ele>53.7</ele>
        <time>2013-03-10T10:32:53.000Z</time>
      </trkpt>
      <trkpt lat="46.06521" lon="-0.38925">
        <ele>55.1</ele>
        <time>2013-03-10T10:32:57.000Z</time>
      </trkpt>
      <trkpt lat="46.0652" lon="-0.38915">
        <ele>55.7</ele>
        <time>2013-03-10T10:33:00.000Z</time>
      </trkpt>
      <trkpt lat="46.06517" lon="-0.38903">
        <ele>56.1</ele>
        <time>2013-03-10T10:33:04.000Z</time>
      </trkpt>
      <trkpt lat="46.06514" lon="-0.38894">
        <ele>56.7</ele>
        <time>2013-03-10T10:33:07.000Z</time>
      </trkpt>
      <trkpt lat="46.06512" lon="-0.38884">
        <ele>56.6</ele>
        <time>2013-03-10T10:33:10.000Z</time>
      </trkpt>
      <trkpt lat="46.06512" lon="-0.38881">
        <ele>56.7</ele>
        <time>2013-03-10T10:33:11.000Z</time>
      </trkpt>
      <trkpt lat="46.06509" lon="-0.38861">
        <ele>58.4</ele>
        <time>2013-03-10T10:33:17.000Z</time>
      </trkpt>
      <trkpt lat="46.06511" lon="-0.38851">
        <ele>58.4</ele>
        <time>2013-03-10T10:33:20.000Z</time>
      </trkpt>
      <trkpt lat="46.06517" lon="-0.38845">
        <ele>58.6</ele>
        <time>2013-03-10T10:33:23.000Z</time>
      </trkpt>
      <trkpt lat="46.06523" lon="-0.38841">
        <ele>58.3</ele>
        <time>2013-03-10T10:33:25.000Z</time>
      </trkpt>
      <trkpt lat="46.06529" lon="-0.38837">
        <ele>57.6</ele>
        <time>2013-03-10T10:33:27.000Z</time>
      </trkpt>
      <trkpt lat="46.06535" lon="-0.38834">
        <ele>57.5</ele>
        <time>2013-03-10T10:33:29.000Z</time>
      </trkpt>
      <trkpt lat="46.06541" lon="-0.3883">
        <ele>57.4</ele>
        <time>2013-03-10T10:33:31.000Z</time>
      </trkpt>
      <trkpt lat="46.06547" lon="-0.38826">
        <ele>57.4</ele>
        <time>2013-03-10T10:33:33.000Z</time>
      </trkpt>
      <trkpt lat="46.06553" lon="-0.38822">
        <ele>57.4</ele>
        <time>2013-03-10T10:33:35.000Z</time>
      </trkpt>
      <trkpt lat="46.0656" lon="-0.38819">
        <ele>57.4</ele>
        <time>2013-03-10T10:33:37.000Z</time>
      </trkpt>
      <trkpt lat="46.06566" lon="-0.38816">
        <ele>57.6</ele>
        <time>2013-03-10T10:33:39.000Z</time>
      </trkpt>
      <trkpt lat="46.06573" lon="-0.38813">
        <ele>57.1</ele>
        <time>2013-03-10T10:33:41.000Z</time>
      </trkpt>
      <trkpt lat="46.06579" lon="-0.38809">
        <ele>57.2</ele>
        <time>2013-03-10T10:33:43.000Z</time>
      </trkpt>
      <trkpt lat="46.06586" lon="-0.38805">
        <ele>57.3</ele>
        <time>2013-03-10T10:33:45.000Z</time>
      </trkpt>
      <trkpt lat="46.06593" lon="-0.38801">
        <ele>57.4</ele>
        <time>2013-03-10T10:33:47.000Z</time>
      </trkpt>
      <trkpt lat="46.06601" lon="-0.38798">
        <ele>57.1</ele>
        <time>2013-03-10T10:33:49.000Z</time>
      </trkpt>
      <trkpt lat="46.06607" lon="-0.38801">
        <ele>56.5</ele>
        <time>2013-03-10T10:33:51.000Z</time>
      </trkpt>
      <trkpt lat="46.0661" lon="-0.38812">
        <ele>56.7</ele>
        <time>2013-03-10T10:33:53.000Z</time>
      </trkpt>
      <trkpt lat="46.06613" lon="-0.38822">
        <ele>56.7</ele>
        <time>2013-03-10T10:33:55.000Z</time>
      </trkpt>
      <trkpt lat="46.06618" lon="-0.38831">
        <ele>56.5</ele>
        <time>2013-03-10T10:33:57.000Z</time>
      </trkpt>
      <trkpt lat="46.06626" lon="-0.38832">
        <ele>55.7</ele>
        <time>2013-03-10T10:33:59.000Z</time>
      </trkpt>
      <trkpt lat="46.06634" lon="-0.38829">
        <ele>54.7</ele>
        <time>2013-03-10T10:34:02.000Z</time>
      </trkpt>
      <trkpt lat="46.06641" lon="-0.38824">
        <ele>54.9</ele>
        <time>2013-03-10T10:34:06.000Z</time>
      </trkpt>
      <trkpt lat="46.06649" lon="-0.38819">
        <ele>54.3</ele>
        <time>2013-03-10T10:34:18.000Z</time>
      </trkpt>
      <trkpt lat="46.0665" lon="-0.38818">
        <ele>54.2</ele>
        <time>2013-03-10T10:34:19.000Z</time>
      </trkpt>
      <trkpt lat="46.0665" lon="-0.38805">
        <ele>54.5</ele>
        <time>2013-03-10T10:35:24.000Z</time>
      </trkpt>
      <trkpt lat="46.06645" lon="-0.3881">
        <ele>54.6</ele>
        <time>2013-03-10T10:35:56.000Z</time>
      </trkpt>
      <trkpt lat="46.06638" lon="-0.38778">
        <ele>53</ele>
        <time>2013-03-10T10:36:56.000Z</time>
      </trkpt>
      <trkpt lat="46.06636" lon="-0.38706">
        <ele>53.6</ele>
        <time>2013-03-10T10:37:02.000Z</time>
      </trkpt>
      <trkpt lat="46.06651" lon="-0.38733">
        <ele>53.3</ele>
        <time>2013-03-10T10:37:04.000Z</time>
      </trkpt>
      <trkpt lat="46.06652" lon="-0.38743">
        <ele>53.4</ele>
        <time>2013-03-10T10:37:05.000Z</time>
      </trkpt>
      <trkpt lat="46.06648" lon="-0.38806">
        <ele>53</ele>
        <time>2013-03-10T10:37:11.000Z</time>
      </trkpt>
      <trkpt lat="46.06649" lon="-0.38819">
        <ele>53</ele>
        <time>2013-03-10T10:37:37.000Z</time>
      </trkpt>
      <trkpt lat="46.0665" lon="-0.38805">
        <ele>53</ele>
        <time>2013-03-10T10:38:03.000Z</time>
      </trkpt>
      <trkpt lat="46.0665" lon="-0.38806">
        <ele>53.5</ele>
        <time>2013-03-10T10:38:05.000Z</time>
      </trkpt>
      <trkpt lat="46.06653" lon="-0.38818">
        <ele>52.3</ele>
        <time>2013-03-10T10:39:31.000Z</time>
      </trkpt>
      <trkpt lat="46.06662" lon="-0.38821">
        <ele>48.9</ele>
        <time>2013-03-10T10:45:25.000Z</time>
      </trkpt>
      <trkpt lat="46.06667" lon="-0.38837">
        <ele>49.3</ele>
        <time>2013-03-10T10:45:31.000Z</time>
      </trkpt>
      <trkpt lat="46.06669" lon="-0.38847">
        <ele>48.7</ele>
        <time>2013-03-10T10:45:33.000Z</time>
      </trkpt>
      <trkpt lat="46.0667" lon="-0.38858">
        <ele>48.2</ele>
        <time>2013-03-10T10:45:35.000Z</time>
      </trkpt>
      <trkpt lat="46.06672" lon="-0.38864">
        <ele>48.1</ele>
        <time>2013-03-10T10:45:36.000Z</time>
      </trkpt>
      <trkpt lat="46.06673" lon="-0.38871">
        <ele>47.8</ele>
        <time>2013-03-10T10:45:37.000Z</time>
      </trkpt>
      <trkpt lat="46.06675" lon="-0.38877">
        <ele>47.6</ele>
        <time>2013-03-10T10:45:38.000Z</time>
      </trkpt>
      <trkpt lat="46.06676" lon="-0.38884">
        <ele>47.3</ele>
        <time>2013-03-10T10:45:39.000Z</time>
      </trkpt>
      <trkpt lat="46.06678" lon="-0.3889">
        <ele>47.1</ele>
        <time>2013-03-10T10:45:40.000Z</time>
      </trkpt>
      <trkpt lat="46.0668" lon="-0.38897">
        <ele>47</ele>
        <time>2013-03-10T10:45:41.000Z</time>
      </trkpt>
      <trkpt lat="46.06681" lon="-0.38903">
        <ele>46.6</ele>
        <time>2013-03-10T10:45:42.000Z</time>
      </trkpt>
      <trkpt lat="46.06683" lon="-0.38909">
        <ele>46.3</ele>
        <time>2013-03-10T10:45:43.000Z</time>
      </trkpt>
      <trkpt lat="46.06686" lon="-0.38915">
        <ele>46.1</ele>
        <time>2013-03-10T10:45:44.000Z</time>
      </trkpt>
      <trkpt lat="46.06688" lon="-0.38921">
        <ele>46</ele>
        <time>2013-03-10T10:45:45.000Z</time>
      </trkpt>
      <trkpt lat="46.0669" lon="-0.38928">
        <ele>45.9</ele>
        <time>2013-03-10T10:45:46.000Z</time>
      </trkpt>
      <trkpt lat="46.06691" lon="-0.38935">
        <ele>45.9</ele>
        <time>2013-03-10T10:45:47.000Z</time>
      </trkpt>
      <trkpt lat="46.06693" lon="-0.38942">
        <ele>45.8</ele>
        <time>2013-03-10T10:45:48.000Z</time>
      </trkpt>
      <trkpt lat="46.06695" lon="-0.3895">
        <ele>46</ele>
        <time>2013-03-10T10:45:49.000Z</time>
      </trkpt>
      <trkpt lat="46.06695" lon="-0.38958">
        <ele>46.2</ele>
        <time>2013-03-10T10:45:50.000Z</time>
      </trkpt>
      <trkpt lat="46.06696" lon="-0.38967">
        <ele>46.4</ele>
        <time>2013-03-10T10:45:51.000Z</time>
      </trkpt>
      <trkpt lat="46.06695" lon="-0.38976">
        <ele>46.6</ele>
        <time>2013-03-10T10:45:52.000Z</time>
      </trkpt>
      <trkpt lat="46.06692" lon="-0.38984">
        <ele>46.7</ele>
        <time>2013-03-10T10:45:53.000Z</time>
      </trkpt>
      <trkpt lat="46.06688" lon="-0.38991">
        <ele>46.8</ele>
        <time>2013-03-10T10:45:54.000Z</time>
      </trkpt>
      <trkpt lat="46.06684" lon="-0.38997">
        <ele>46.9</ele>
        <time>2013-03-10T10:45:55.000Z</time>
      </trkpt>
      <trkpt lat="46.0668" lon="-0.39003">
        <ele>46.8</ele>
        <time>2013-03-10T10:45:56.000Z</time>
      </trkpt>
      <trkpt lat="46.06675" lon="-0.39007">
        <ele>46.7</ele>
        <time>2013-03-10T10:45:57.000Z</time>
      </trkpt>
      <trkpt lat="46.0667" lon="-0.39011">
        <ele>46.6</ele>
        <time>2013-03-10T10:45:58.000Z</time>
      </trkpt>
      <trkpt lat="46.06665" lon="-0.39015">
        <ele>46.5</ele>
        <time>2013-03-10T10:45:59.000Z</time>
      </trkpt>
      <trkpt lat="46.06661" lon="-0.39019">
        <ele>46.5</ele>
        <time>2013-03-10T10:46:00.000Z</time>
      </trkpt>
      <trkpt lat="46.06656" lon="-0.39022">
        <ele>46.1</ele>
        <time>2013-03-10T10:46:01.000Z</time>
      </trkpt>
      <trkpt lat="46.06651" lon="-0.39027">
        <ele>45.8</ele>
        <time>2013-03-10T10:46:02.000Z</time>
      </trkpt>
      <trkpt lat="46.06646" lon="-0.39031">
        <ele>45.8</ele>
        <time>2013-03-10T10:46:03.000Z</time>
      </trkpt>
      <trkpt lat="46.06641" lon="-0.39035">
        <ele>45.9</ele>
        <time>2013-03-10T10:46:04.000Z</time>
      </trkpt>
      <trkpt lat="46.06637" lon="-0.3904">
        <ele>45.9</ele>
        <time>2013-03-10T10:46:05.000Z</time>
      </trkpt>
      <trkpt lat="46.06633" lon="-0.39045">
        <ele>45.9</ele>
        <time>2013-03-10T10:46:06.000Z</time>
      </trkpt>
      <trkpt lat="46.06629" lon="-0.3905">
        <ele>45.9</ele>
        <time>2013-03-10T10:46:07.000Z</time>
      </trkpt>
      <trkpt lat="46.06625" lon="-0.39055">
        <ele>45.6</ele>
        <time>2013-03-10T10:46:08.000Z</time>
      </trkpt>
      <trkpt lat="46.06622" lon="-0.39061">
        <ele>45.4</ele>
        <time>2013-03-10T10:46:09.000Z</time>
      </trkpt>
      <trkpt lat="46.06619" lon="-0.39066">
        <ele>45.2</ele>
        <time>2013-03-10T10:46:10.000Z</time>
      </trkpt>
      <trkpt lat="46.06616" lon="-0.39072">
        <ele>45.1</ele>
        <time>2013-03-10T10:46:11.000Z</time>
      </trkpt>
      <trkpt lat="46.06612" lon="-0.39083">
        <ele>45</ele>
        <time>2013-03-10T10:46:13.000Z</time>
      </trkpt>
      <trkpt lat="46.06609" lon="-0.39093">
        <ele>44.8</ele>
        <time>2013-03-10T10:46:15.000Z</time>
      </trkpt>
      <trkpt lat="46.06607" lon="-0.39104">
        <ele>44.9</ele>
        <time>2013-03-10T10:46:17.000Z</time>
      </trkpt>
      <trkpt lat="46.06604" lon="-0.39115">
        <ele>43.2</ele>
        <time>2013-03-10T10:48:04.000Z</time>
      </trkpt>
      <trkpt lat="46.06603" lon="-0.39117">
        <ele>43.1</ele>
        <time>2013-03-10T10:48:05.000Z</time>
      </trkpt>
      <trkpt lat="46.06603" lon="-0.39139">
        <ele>44</ele>
        <time>2013-03-10T10:48:12.000Z</time>
      </trkpt>
      <trkpt lat="46.06603" lon="-0.39148">
        <ele>44.6</ele>
        <time>2013-03-10T10:48:14.000Z</time>
      </trkpt>
      <trkpt lat="46.06604" lon="-0.39157">
        <ele>44.9</ele>
        <time>2013-03-10T10:48:16.000Z</time>
      </trkpt>
      <trkpt lat="46.06606" lon="-0.39165">
        <ele>44.7</ele>
        <time>2013-03-10T10:48:18.000Z</time>
      </trkpt>
      <trkpt lat="46.06607" lon="-0.39174">
        <ele>44.5</ele>
        <time>2013-03-10T10:48:20.000Z</time>
      </trkpt>
      <trkpt lat="46.06608" lon="-0.39183">
        <ele>44.4</ele>
        <time>2013-03-10T10:48:22.000Z</time>
      </trkpt>
      <trkpt lat="46.0661" lon="-0.39193">
        <ele>44.3</ele>
        <time>2013-03-10T10:48:24.000Z</time>
      </trkpt>
      <trkpt lat="46.06613" lon="-0.39206">
        <ele>44.3</ele>
        <time>2013-03-10T10:48:26.000Z</time>
      </trkpt>
      <trkpt lat="46.06614" lon="-0.39212">
        <ele>44.4</ele>
        <time>2013-03-10T10:48:27.000Z</time>
      </trkpt>
      <trkpt lat="46.06615" lon="-0.39219">
        <ele>44.6</ele>
        <time>2013-03-10T10:48:28.000Z</time>
      </trkpt>
      <trkpt lat="46.06616" lon="-0.39226">
        <ele>44.7</ele>
        <time>2013-03-10T10:48:29.000Z</time>
      </trkpt>
      <trkpt lat="46.06618" lon="-0.39233">
        <ele>44.7</ele>
        <time>2013-03-10T10:48:30.000Z</time>
      </trkpt>
      <trkpt lat="46.06619" lon="-0.3924">
        <ele>44.8</ele>
        <time>2013-03-10T10:48:31.000Z</time>
      </trkpt>
      <trkpt lat="46.0662" lon="-0.39248">
        <ele>44.8</ele>
        <time>2013-03-10T10:48:32.000Z</time>
      </trkpt>
      <trkpt lat="46.06619" lon="-0.39259">
        <ele>44.8</ele>
        <time>2013-03-10T10:48:34.000Z</time>
      </trkpt>
      <trkpt lat="46.06613" lon="-0.39268">
        <ele>44.8</ele>
        <time>2013-03-10T10:48:36.000Z</time>
      </trkpt>
      <trkpt lat="46.0661" lon="-0.39274">
        <ele>45</ele>
        <time>2013-03-10T10:48:37.000Z</time>
      </trkpt>
      <trkpt lat="46.06606" lon="-0.39279">
        <ele>45.1</ele>
        <time>2013-03-10T10:48:38.000Z</time>
      </trkpt>
      <trkpt lat="46.06602" lon="-0.39284">
        <ele>45.2</ele>
        <time>2013-03-10T10:48:39.000Z</time>
      </trkpt>
      <trkpt lat="46.06598" lon="-0.39288">
        <ele>45.1</ele>
        <time>2013-03-10T10:48:40.000Z</time>
      </trkpt>
      <trkpt lat="46.06594" lon="-0.39293">
        <ele>45</ele>
        <time>2013-03-10T10:48:41.000Z</time>
      </trkpt>
      <trkpt lat="46.06589" lon="-0.39298">
        <ele>44.6</ele>
        <time>2013-03-10T10:48:42.000Z</time>
      </trkpt>
      <trkpt lat="46.06585" lon="-0.39302">
        <ele>44.2</ele>
        <time>2013-03-10T10:48:43.000Z</time>
      </trkpt>
      <trkpt lat="46.0658" lon="-0.39307">
        <ele>44.2</ele>
        <time>2013-03-10T10:48:44.000Z</time>
      </trkpt>
      <trkpt lat="46.06575" lon="-0.39312">
        <ele>44.2</ele>
        <time>2013-03-10T10:48:45.000Z</time>
      </trkpt>
      <trkpt lat="46.06572" lon="-0.39316">
        <ele>44.2</ele>
        <time>2013-03-10T10:48:46.000Z</time>
      </trkpt>
      <trkpt lat="46.06568" lon="-0.39321">
        <ele>44.1</ele>
        <time>2013-03-10T10:48:47.000Z</time>
      </trkpt>
      <trkpt lat="46.06564" lon="-0.39326">
        <ele>44.1</ele>
        <time>2013-03-10T10:48:48.000Z</time>
      </trkpt>
      <trkpt lat="46.0656" lon="-0.39331">
        <ele>43.8</ele>
        <time>2013-03-10T10:48:49.000Z</time>
      </trkpt>
      <trkpt lat="46.06556" lon="-0.39336">
        <ele>43.6</ele>
        <time>2013-03-10T10:48:50.000Z</time>
      </trkpt>
      <trkpt lat="46.06552" lon="-0.39341">
        <ele>43.7</ele>
        <time>2013-03-10T10:48:51.000Z</time>
      </trkpt>
      <trkpt lat="46.06548" lon="-0.39346">
        <ele>43.8</ele>
        <time>2013-03-10T10:48:52.000Z</time>
      </trkpt>
      <trkpt lat="46.06544" lon="-0.39351">
        <ele>43.8</ele>
        <time>2013-03-10T10:48:53.000Z</time>
      </trkpt>
      <trkpt lat="46.06537" lon="-0.39359">
        <ele>44.1</ele>
        <time>2013-03-10T10:48:55.000Z</time>
      </trkpt>
      <trkpt lat="46.0653" lon="-0.39367">
        <ele>44.1</ele>
        <time>2013-03-10T10:48:57.000Z</time>
      </trkpt>
      <trkpt lat="46.06526" lon="-0.39371">
        <ele>44.2</ele>
        <time>2013-03-10T10:48:58.000Z</time>
      </trkpt>
      <trkpt lat="46.06522" lon="-0.39376">
        <ele>44.2</ele>
        <time>2013-03-10T10:48:59.000Z</time>
      </trkpt>
      <trkpt lat="46.06518" lon="-0.3938">
        <ele>44.2</ele>
        <time>2013-03-10T10:49:00.000Z</time>
      </trkpt>
      <trkpt lat="46.06514" lon="-0.39385">
        <ele>43.9</ele>
        <time>2013-03-10T10:49:01.000Z</time>
      </trkpt>
      <trkpt lat="46.0651" lon="-0.3939">
        <ele>43.7</ele>
        <time>2013-03-10T10:49:02.000Z</time>
      </trkpt>
      <trkpt lat="46.06506" lon="-0.39394">
        <ele>43.9</ele>
        <time>2013-03-10T10:49:03.000Z</time>
      </trkpt>
      <trkpt lat="46.06503" lon="-0.39398">
        <ele>44.1</ele>
        <time>2013-03-10T10:49:04.000Z</time>
      </trkpt>
      <trkpt lat="46.06499" lon="-0.39403">
        <ele>44.2</ele>
        <time>2013-03-10T10:49:05.000Z</time>
      </trkpt>
      <trkpt lat="46.06495" lon="-0.39408">
        <ele>44.2</ele>
        <time>2013-03-10T10:49:06.000Z</time>
      </trkpt>
      <trkpt lat="46.0649" lon="-0.39412">
        <ele>44.3</ele>
        <time>2013-03-10T10:49:07.000Z</time>
      </trkpt>
      <trkpt lat="46.06486" lon="-0.39417">
        <ele>44.4</ele>
        <time>2013-03-10T10:49:08.000Z</time>
      </trkpt>
      <trkpt lat="46.06482" lon="-0.39421">
        <ele>44.4</ele>
        <time>2013-03-10T10:49:09.000Z</time>
      </trkpt>
      <trkpt lat="46.06478" lon="-0.39425">
        <ele>44.5</ele>
        <time>2013-03-10T10:49:10.000Z</time>
      </trkpt>
      <trkpt lat="46.06474" lon="-0.39429">
        <ele>44.6</ele>
        <time>2013-03-10T10:49:11.000Z</time>
      </trkpt>
      <trkpt lat="46.06469" lon="-0.39433">
        <ele>44.7</ele>
        <time>2013-03-10T10:49:12.000Z</time>
      </trkpt>
      <trkpt lat="46.06465" lon="-0.39436">
        <ele>44.8</ele>
        <time>2013-03-10T10:49:13.000Z</time>
      </trkpt>
      <trkpt lat="46.06462" lon="-0.39441">
        <ele>44.8</ele>
        <time>2013-03-10T10:49:14.000Z</time>
      </trkpt>
      <trkpt lat="46.06458" lon="-0.39445">
        <ele>44.7</ele>
        <time>2013-03-10T10:49:15.000Z</time>
      </trkpt>
      <trkpt lat="46.06454" lon="-0.39449">
        <ele>44.6</ele>
        <time>2013-03-10T10:49:16.000Z</time>
      </trkpt>
      <trkpt lat="46.0645" lon="-0.39454">
        <ele>44.5</ele>
        <time>2013-03-10T10:49:17.000Z</time>
      </trkpt>
      <trkpt lat="46.06446" lon="-0.39458">
        <ele>44.7</ele>
        <time>2013-03-10T10:49:18.000Z</time>
      </trkpt>
      <trkpt lat="46.0644" lon="-0.39466">
        <ele>44.8</ele>
        <time>2013-03-10T10:49:20.000Z</time>
      </trkpt>
      <trkpt lat="46.06436" lon="-0.3947">
        <ele>44.9</ele>
        <time>2013-03-10T10:49:21.000Z</time>
      </trkpt>
      <trkpt lat="46.06432" lon="-0.39473">
        <ele>45.1</ele>
        <time>2013-03-10T10:49:22.000Z</time>
      </trkpt>
      <trkpt lat="46.06428" lon="-0.39477">
        <ele>45.3</ele>
        <time>2013-03-10T10:49:23.000Z</time>
      </trkpt>
      <trkpt lat="46.06425" lon="-0.39481">
        <ele>45.5</ele>
        <time>2013-03-10T10:49:24.000Z</time>
      </trkpt>
      <trkpt lat="46.06421" lon="-0.39485">
        <ele>45.3</ele>
        <time>2013-03-10T10:49:25.000Z</time>
      </trkpt>
      <trkpt lat="46.06417" lon="-0.39488">
        <ele>45.1</ele>
        <time>2013-03-10T10:49:26.000Z</time>
      </trkpt>
      <trkpt lat="46.06413" lon="-0.39492">
        <ele>45.2</ele>
        <time>2013-03-10T10:49:27.000Z</time>
      </trkpt>
      <trkpt lat="46.06409" lon="-0.39496">
        <ele>45.2</ele>
        <time>2013-03-10T10:49:28.000Z</time>
      </trkpt>
      <trkpt lat="46.06405" lon="-0.39501">
        <ele>45.2</ele>
        <time>2013-03-10T10:49:29.000Z</time>
      </trkpt>
      <trkpt lat="46.06401" lon="-0.39505">
        <ele>44.8</ele>
        <time>2013-03-10T10:49:30.000Z</time>
      </trkpt>
      <trkpt lat="46.06396" lon="-0.39509">
        <ele>44.6</ele>
        <time>2013-03-10T10:49:31.000Z</time>
      </trkpt>
      <trkpt lat="46.06392" lon="-0.39514">
        <ele>44.6</ele>
        <time>2013-03-10T10:49:32.000Z</time>
      </trkpt>
      <trkpt lat="46.06388" lon="-0.39519">
        <ele>44.6</ele>
        <time>2013-03-10T10:49:33.000Z</time>
      </trkpt>
      <trkpt lat="46.06384" lon="-0.39523">
        <ele>45.1</ele>
        <time>2013-03-10T10:49:34.000Z</time>
      </trkpt>
      <trkpt lat="46.06379" lon="-0.39527">
        <ele>45.5</ele>
        <time>2013-03-10T10:49:35.000Z</time>
      </trkpt>
      <trkpt lat="46.06375" lon="-0.39532">
        <ele>45.8</ele>
        <time>2013-03-10T10:49:36.000Z</time>
      </trkpt>
      <trkpt lat="46.06371" lon="-0.39536">
        <ele>45.9</ele>
        <time>2013-03-10T10:49:37.000Z</time>
      </trkpt>
      <trkpt lat="46.06367" lon="-0.39541">
        <ele>46</ele>
        <time>2013-03-10T10:49:38.000Z</time>
      </trkpt>
      <trkpt lat="46.06363" lon="-0.39545">
        <ele>45.5</ele>
        <time>2013-03-10T10:49:39.000Z</time>
      </trkpt>
      <trkpt lat="46.06359" lon="-0.39549">
        <ele>45.2</ele>
        <time>2013-03-10T10:49:40.000Z</time>
      </trkpt>
      <trkpt lat="46.06355" lon="-0.39553">
        <ele>45.1</ele>
        <time>2013-03-10T10:49:41.000Z</time>
      </trkpt>
      <trkpt lat="46.06351" lon="-0.39557">
        <ele>45.1</ele>
        <time>2013-03-10T10:49:42.000Z</time>
      </trkpt>
      <trkpt lat="46.06346" lon="-0.39562">
        <ele>45.1</ele>
        <time>2013-03-10T10:49:43.000Z</time>
      </trkpt>
      <trkpt lat="46.06342" lon="-0.39566">
        <ele>45.2</ele>
        <time>2013-03-10T10:49:44.000Z</time>
      </trkpt>
      <trkpt lat="46.06338" lon="-0.39571">
        <ele>45.3</ele>
        <time>2013-03-10T10:49:45.000Z</time>
      </trkpt>
      <trkpt lat="46.06333" lon="-0.39576">
        <ele>45.1</ele>
        <time>2013-03-10T10:49:46.000Z</time>
      </trkpt>
      <trkpt lat="46.06329" lon="-0.39581">
        <ele>44.9</ele>
        <time>2013-03-10T10:49:47.000Z</time>
      </trkpt>
      <trkpt lat="46.06325" lon="-0.39585">
        <ele>44.8</ele>
        <time>2013-03-10T10:49:48.000Z</time>
      </trkpt>
      <trkpt lat="46.0632" lon="-0.3959">
        <ele>44.7</ele>
        <time>2013-03-10T10:49:49.000Z</time>
      </trkpt>
      <trkpt lat="46.06316" lon="-0.39595">
        <ele>44.6</ele>
        <time>2013-03-10T10:49:50.000Z</time>
      </trkpt>
      <trkpt lat="46.06311" lon="-0.39599">
        <ele>44.6</ele>
        <time>2013-03-10T10:49:51.000Z</time>
      </trkpt>
      <trkpt lat="46.06308" lon="-0.39604">
        <ele>44.6</ele>
        <time>2013-03-10T10:49:52.000Z</time>
      </trkpt>
      <trkpt lat="46.06304" lon="-0.39608">
        <ele>44.6</ele>
        <time>2013-03-10T10:49:53.000Z</time>
      </trkpt>
      <trkpt lat="46.063" lon="-0.39612">
        <ele>44.6</ele>
        <time>2013-03-10T10:49:54.000Z</time>
      </trkpt>
      <trkpt lat="46.06296" lon="-0.39617">
        <ele>44.6</ele>
        <time>2013-03-10T10:49:55.000Z</time>
      </trkpt>
      <trkpt lat="46.06292" lon="-0.39621">
        <ele>44.8</ele>
        <time>2013-03-10T10:49:56.000Z</time>
      </trkpt>
      <trkpt lat="46.06288" lon="-0.39626">
        <ele>44.8</ele>
        <time>2013-03-10T10:49:57.000Z</time>
      </trkpt>
      <trkpt lat="46.06284" lon="-0.3963">
        <ele>44.4</ele>
        <time>2013-03-10T10:49:58.000Z</time>
      </trkpt>
      <trkpt lat="46.0628" lon="-0.39635">
        <ele>44</ele>
        <time>2013-03-10T10:49:59.000Z</time>
      </trkpt>
      <trkpt lat="46.06276" lon="-0.39639">
        <ele>43.9</ele>
        <time>2013-03-10T10:50:00.000Z</time>
      </trkpt>
      <trkpt lat="46.06272" lon="-0.39643">
        <ele>43.9</ele>
        <time>2013-03-10T10:50:01.000Z</time>
      </trkpt>
      <trkpt lat="46.06267" lon="-0.39647">
        <ele>43.9</ele>
        <time>2013-03-10T10:50:02.000Z</time>
      </trkpt>
      <trkpt lat="46.06263" lon="-0.39652">
        <ele>43.4</ele>
        <time>2013-03-10T10:50:03.000Z</time>
      </trkpt>
      <trkpt lat="46.06259" lon="-0.39656">
        <ele>43.1</ele>
        <time>2013-03-10T10:50:04.000Z</time>
      </trkpt>
      <trkpt lat="46.06254" lon="-0.39661">
        <ele>43</ele>
        <time>2013-03-10T10:50:05.000Z</time>
      </trkpt>
      <trkpt lat="46.0625" lon="-0.39665">
        <ele>42.9</ele>
        <time>2013-03-10T10:50:06.000Z</time>
      </trkpt>
      <trkpt lat="46.06247" lon="-0.3967">
        <ele>42.6</ele>
        <time>2013-03-10T10:50:07.000Z</time>
      </trkpt>
      <trkpt lat="46.06243" lon="-0.39674">
        <ele>42.4</ele>
        <time>2013-03-10T10:50:08.000Z</time>
      </trkpt>
      <trkpt lat="46.06239" lon="-0.39678">
        <ele>42.3</ele>
        <time>2013-03-10T10:50:09.000Z</time>
      </trkpt>
      <trkpt lat="46.06235" lon="-0.39682">
        <ele>42.1</ele>
        <time>2013-03-10T10:50:10.000Z</time>
      </trkpt>
      <trkpt lat="46.06232" lon="-0.39686">
        <ele>42</ele>
        <time>2013-03-10T10:50:11.000Z</time>
      </trkpt>
      <trkpt lat="46.06228" lon="-0.3969">
        <ele>42.2</ele>
        <time>2013-03-10T10:50:12.000Z</time>
      </trkpt>
      <trkpt lat="46.06224" lon="-0.39694">
        <ele>42.3</ele>
        <time>2013-03-10T10:50:13.000Z</time>
      </trkpt>
      <trkpt lat="46.0622" lon="-0.39698">
        <ele>42.4</ele>
        <time>2013-03-10T10:50:14.000Z</time>
      </trkpt>
      <trkpt lat="46.06217" lon="-0.39701">
        <ele>42.5</ele>
        <time>2013-03-10T10:50:15.000Z</time>
      </trkpt>
      <trkpt lat="46.06213" lon="-0.39706">
        <ele>42.6</ele>
        <time>2013-03-10T10:50:16.000Z</time>
      </trkpt>
      <trkpt lat="46.06206" lon="-0.39714">
        <ele>42.2</ele>
        <time>2013-03-10T10:50:18.000Z</time>
      </trkpt>
      <trkpt lat="46.06199" lon="-0.39721">
        <ele>42.7</ele>
        <time>2013-03-10T10:50:20.000Z</time>
      </trkpt>
      <trkpt lat="46.06195" lon="-0.39725">
        <ele>42.8</ele>
        <time>2013-03-10T10:50:21.000Z</time>
      </trkpt>
      <trkpt lat="46.06191" lon="-0.39729">
        <ele>42.7</ele>
        <time>2013-03-10T10:50:22.000Z</time>
      </trkpt>
      <trkpt lat="46.06187" lon="-0.39733">
        <ele>42.6</ele>
        <time>2013-03-10T10:50:23.000Z</time>
      </trkpt>
      <trkpt lat="46.06183" lon="-0.39737">
        <ele>42.7</ele>
        <time>2013-03-10T10:50:24.000Z</time>
      </trkpt>
      <trkpt lat="46.06179" lon="-0.39741">
        <ele>42.7</ele>
        <time>2013-03-10T10:50:25.000Z</time>
      </trkpt>
      <trkpt lat="46.06175" lon="-0.39745">
        <ele>43</ele>
        <time>2013-03-10T10:50:26.000Z</time>
      </trkpt>
      <trkpt lat="46.06171" lon="-0.39749">
        <ele>43.2</ele>
        <time>2013-03-10T10:50:27.000Z</time>
      </trkpt>
      <trkpt lat="46.06167" lon="-0.39754">
        <ele>43.4</ele>
        <time>2013-03-10T10:50:28.000Z</time>
      </trkpt>
      <trkpt lat="46.06162" lon="-0.39758">
        <ele>43.2</ele>
        <time>2013-03-10T10:50:29.000Z</time>
      </trkpt>
      <trkpt lat="46.06158" lon="-0.39762">
        <ele>43.1</ele>
        <time>2013-03-10T10:50:30.000Z</time>
      </trkpt>
      <trkpt lat="46.06155" lon="-0.39766">
        <ele>42.8</ele>
        <time>2013-03-10T10:50:31.000Z</time>
      </trkpt>
      <trkpt lat="46.06151" lon="-0.3977">
        <ele>42.6</ele>
        <time>2013-03-10T10:50:32.000Z</time>
      </trkpt>
      <trkpt lat="46.06146" lon="-0.39774">
        <ele>42.5</ele>
        <time>2013-03-10T10:50:33.000Z</time>
      </trkpt>
      <trkpt lat="46.06143" lon="-0.39778">
        <ele>42.6</ele>
        <time>2013-03-10T10:50:34.000Z</time>
      </trkpt>
      <trkpt lat="46.06139" lon="-0.39782">
        <ele>42.8</ele>
        <time>2013-03-10T10:50:35.000Z</time>
      </trkpt>
      <trkpt lat="46.06132" lon="-0.39788">
        <ele>43</ele>
        <time>2013-03-10T10:50:37.000Z</time>
      </trkpt>
      <trkpt lat="46.06124" lon="-0.3979">
        <ele>41.9</ele>
        <time>2013-03-10T10:50:40.000Z</time>
      </trkpt>
      <trkpt lat="46.0612" lon="-0.39783">
        <ele>41.5</ele>
        <time>2013-03-10T10:50:42.000Z</time>
      </trkpt>
      <trkpt lat="46.06117" lon="-0.39776">
        <ele>41.1</ele>
        <time>2013-03-10T10:50:44.000Z</time>
      </trkpt>
      <trkpt lat="46.06112" lon="-0.39767">
        <ele>41</ele>
        <time>2013-03-10T10:50:46.000Z</time>
      </trkpt>
      <trkpt lat="46.06109" lon="-0.39762">
        <ele>40.9</ele>
        <time>2013-03-10T10:50:47.000Z</time>
      </trkpt>
      <trkpt lat="46.06107" lon="-0.39756">
        <ele>40.8</ele>
        <time>2013-03-10T10:50:48.000Z</time>
      </trkpt>
      <trkpt lat="46.06104" lon="-0.3975">
        <ele>40.6</ele>
        <time>2013-03-10T10:50:49.000Z</time>
      </trkpt>
      <trkpt lat="46.06101" lon="-0.39743">
        <ele>40.6</ele>
        <time>2013-03-10T10:50:50.000Z</time>
      </trkpt>
      <trkpt lat="46.06098" lon="-0.39736">
        <ele>40.6</ele>
        <time>2013-03-10T10:50:51.000Z</time>
      </trkpt>
      <trkpt lat="46.06095" lon="-0.39729">
        <ele>40.6</ele>
        <time>2013-03-10T10:50:52.000Z</time>
      </trkpt>
      <trkpt lat="46.06092" lon="-0.39723">
        <ele>40.4</ele>
        <time>2013-03-10T10:50:53.000Z</time>
      </trkpt>
      <trkpt lat="46.06088" lon="-0.39716">
        <ele>40.3</ele>
        <time>2013-03-10T10:50:54.000Z</time>
      </trkpt>
      <trkpt lat="46.06084" lon="-0.39709">
        <ele>39.8</ele>
        <time>2013-03-10T10:50:55.000Z</time>
      </trkpt>
      <trkpt lat="46.06081" lon="-0.39703">
        <ele>39.4</ele>
        <time>2013-03-10T10:50:56.000Z</time>
      </trkpt>
      <trkpt lat="46.06077" lon="-0.39697">
        <ele>39.2</ele>
        <time>2013-03-10T10:50:57.000Z</time>
      </trkpt>
      <trkpt lat="46.06073" lon="-0.39691">
        <ele>39</ele>
        <time>2013-03-10T10:50:58.000Z</time>
      </trkpt>
      <trkpt lat="46.0607" lon="-0.39684">
        <ele>38.9</ele>
        <time>2013-03-10T10:50:59.000Z</time>
      </trkpt>
      <trkpt lat="46.06067" lon="-0.39678">
        <ele>39.1</ele>
        <time>2013-03-10T10:51:00.000Z</time>
      </trkpt>
      <trkpt lat="46.06064" lon="-0.39673">
        <ele>39.2</ele>
        <time>2013-03-10T10:51:01.000Z</time>
      </trkpt>
      <trkpt lat="46.0606" lon="-0.39663">
        <ele>38.8</ele>
        <time>2013-03-10T10:51:03.000Z</time>
      </trkpt>
      <trkpt lat="46.06055" lon="-0.39653">
        <ele>38.3</ele>
        <time>2013-03-10T10:51:07.000Z</time>
      </trkpt>
      <trkpt lat="46.06054" lon="-0.39652">
        <ele>38.3</ele>
        <time>2013-03-10T10:51:08.000Z</time>
      </trkpt>
      <trkpt lat="46.06056" lon="-0.39631">
        <ele>37.5</ele>
        <time>2013-03-10T10:52:00.000Z</time>
      </trkpt>
      <trkpt lat="46.0606" lon="-0.39622">
        <ele>37.1</ele>
        <time>2013-03-10T10:52:03.000Z</time>
      </trkpt>
      <trkpt lat="46.06063" lon="-0.39613">
        <ele>37.1</ele>
        <time>2013-03-10T10:52:05.000Z</time>
      </trkpt>
      <trkpt lat="46.06067" lon="-0.39603">
        <ele>37.2</ele>
        <time>2013-03-10T10:52:07.000Z</time>
      </trkpt>
      <trkpt lat="46.0607" lon="-0.39593">
        <ele>37.2</ele>
        <time>2013-03-10T10:52:09.000Z</time>
      </trkpt>
      <trkpt lat="46.06071" lon="-0.39588">
        <ele>37.2</ele>
        <time>2013-03-10T10:52:10.000Z</time>
      </trkpt>
      <trkpt lat="46.06078" lon="-0.39572">
        <ele>37.3</ele>
        <time>2013-03-10T10:52:13.000Z</time>
      </trkpt>
      <trkpt lat="46.06082" lon="-0.39563">
        <ele>37.1</ele>
        <time>2013-03-10T10:52:15.000Z</time>
      </trkpt>
      <trkpt lat="46.06085" lon="-0.39557">
        <ele>37.2</ele>
        <time>2013-03-10T10:52:16.000Z</time>
      </trkpt>
      <trkpt lat="46.06088" lon="-0.39552">
        <ele>37.3</ele>
        <time>2013-03-10T10:52:17.000Z</time>
      </trkpt>
      <trkpt lat="46.06091" lon="-0.39547">
        <ele>37.4</ele>
        <time>2013-03-10T10:52:18.000Z</time>
      </trkpt>
      <trkpt lat="46.06097" lon="-0.39537">
        <ele>37.6</ele>
        <time>2013-03-10T10:52:20.000Z</time>
      </trkpt>
      <trkpt lat="46.061" lon="-0.39532">
        <ele>37.7</ele>
        <time>2013-03-10T10:52:21.000Z</time>
      </trkpt>
      <trkpt lat="46.06103" lon="-0.39527">
        <ele>37.8</ele>
        <time>2013-03-10T10:52:22.000Z</time>
      </trkpt>
      <trkpt lat="46.06106" lon="-0.39522">
        <ele>37.6</ele>
        <time>2013-03-10T10:52:23.000Z</time>
      </trkpt>
      <trkpt lat="46.0611" lon="-0.39517">
        <ele>37.4</ele>
        <time>2013-03-10T10:52:24.000Z</time>
      </trkpt>
      <trkpt lat="46.06113" lon="-0.39511">
        <ele>37.3</ele>
        <time>2013-03-10T10:52:25.000Z</time>
      </trkpt>
      <trkpt lat="46.06116" lon="-0.39506">
        <ele>37.2</ele>
        <time>2013-03-10T10:52:26.000Z</time>
      </trkpt>
      <trkpt lat="46.0612" lon="-0.395">
        <ele>37.1</ele>
        <time>2013-03-10T10:52:27.000Z</time>
      </trkpt>
      <trkpt lat="46.06123" lon="-0.39494">
        <ele>37.3</ele>
        <time>2013-03-10T10:52:28.000Z</time>
      </trkpt>
      <trkpt lat="46.06126" lon="-0.39488">
        <ele>37.5</ele>
        <time>2013-03-10T10:52:29.000Z</time>
      </trkpt>
      <trkpt lat="46.06129" lon="-0.39482">
        <ele>37.6</ele>
        <time>2013-03-10T10:52:30.000Z</time>
      </trkpt>
      <trkpt lat="46.06132" lon="-0.39476">
        <ele>37.7</ele>
        <time>2013-03-10T10:52:31.000Z</time>
      </trkpt>
      <trkpt lat="46.06135" lon="-0.3947">
        <ele>37.8</ele>
        <time>2013-03-10T10:52:32.000Z</time>
      </trkpt>
      <trkpt lat="46.06138" lon="-0.39464">
        <ele>37.8</ele>
        <time>2013-03-10T10:52:33.000Z</time>
      </trkpt>
      <trkpt lat="46.06141" lon="-0.39453">
        <ele>37.6</ele>
        <time>2013-03-10T10:52:35.000Z</time>
      </trkpt>
      <trkpt lat="46.06144" lon="-0.39443">
        <ele>37.2</ele>
        <time>2013-03-10T10:52:37.000Z</time>
      </trkpt>
      <trkpt lat="46.06147" lon="-0.39433">
        <ele>37</ele>
        <time>2013-03-10T10:52:39.000Z</time>
      </trkpt>
      <trkpt lat="46.06148" lon="-0.39424">
        <ele>36.8</ele>
        <time>2013-03-10T10:52:41.000Z</time>
      </trkpt>
      <trkpt lat="46.06149" lon="-0.39415">
        <ele>37</ele>
        <time>2013-03-10T10:52:43.000Z</time>
      </trkpt>
      <trkpt lat="46.06151" lon="-0.39406">
        <ele>36.6</ele>
        <time>2013-03-10T10:52:45.000Z</time>
      </trkpt>
      <trkpt lat="46.06155" lon="-0.39398">
        <ele>36.5</ele>
        <time>2013-03-10T10:52:47.000Z</time>
      </trkpt>
      <trkpt lat="46.06158" lon="-0.39391">
        <ele>36.8</ele>
        <time>2013-03-10T10:52:49.000Z</time>
      </trkpt>
      <trkpt lat="46.06163" lon="-0.39381">
        <ele>36.5</ele>
        <time>2013-03-10T10:52:52.000Z</time>
      </trkpt>
      <trkpt lat="46.06167" lon="-0.39372">
        <ele>36.9</ele>
        <time>2013-03-10T10:52:54.000Z</time>
      </trkpt>
      <trkpt lat="46.0617" lon="-0.39362">
        <ele>37.4</ele>
        <time>2013-03-10T10:52:56.000Z</time>
      </trkpt>
      <trkpt lat="46.06172" lon="-0.3935">
        <ele>37.7</ele>
        <time>2013-03-10T10:52:58.000Z</time>
      </trkpt>
      <trkpt lat="46.06173" lon="-0.39339">
        <ele>38</ele>
        <time>2013-03-10T10:53:00.000Z</time>
      </trkpt>
      <trkpt lat="46.06172" lon="-0.39328">
        <ele>38.5</ele>
        <time>2013-03-10T10:53:02.000Z</time>
      </trkpt>
      <trkpt lat="46.06171" lon="-0.39316">
        <ele>39.1</ele>
        <time>2013-03-10T10:53:04.000Z</time>
      </trkpt>
      <trkpt lat="46.06171" lon="-0.39304">
        <ele>39.5</ele>
        <time>2013-03-10T10:53:06.000Z</time>
      </trkpt>
      <trkpt lat="46.06172" lon="-0.39292">
        <ele>40</ele>
        <time>2013-03-10T10:53:08.000Z</time>
      </trkpt>
      <trkpt lat="46.06174" lon="-0.3928">
        <ele>40.4</ele>
        <time>2013-03-10T10:53:10.000Z</time>
      </trkpt>
      <trkpt lat="46.06174" lon="-0.39274">
        <ele>40.5</ele>
        <time>2013-03-10T10:53:11.000Z</time>
      </trkpt>
      <trkpt lat="46.0617" lon="-0.39255">
        <ele>41.6</ele>
        <time>2013-03-10T10:53:14.000Z</time>
      </trkpt>
      <trkpt lat="46.06168" lon="-0.39249">
        <ele>42.1</ele>
        <time>2013-03-10T10:53:15.000Z</time>
      </trkpt>
      <trkpt lat="46.06167" lon="-0.39243">
        <ele>42.5</ele>
        <time>2013-03-10T10:53:16.000Z</time>
      </trkpt>
      <trkpt lat="46.06165" lon="-0.39237">
        <ele>42.8</ele>
        <time>2013-03-10T10:53:17.000Z</time>
      </trkpt>
      <trkpt lat="46.06163" lon="-0.3923">
        <ele>43</ele>
        <time>2013-03-10T10:53:18.000Z</time>
      </trkpt>
      <trkpt lat="46.06162" lon="-0.39224">
        <ele>43.1</ele>
        <time>2013-03-10T10:53:19.000Z</time>
      </trkpt>
      <trkpt lat="46.0616" lon="-0.39218">
        <ele>43.3</ele>
        <time>2013-03-10T10:53:20.000Z</time>
      </trkpt>
      <trkpt lat="46.06158" lon="-0.39211">
        <ele>43.4</ele>
        <time>2013-03-10T10:53:21.000Z</time>
      </trkpt>
      <trkpt lat="46.06157" lon="-0.39205">
        <ele>43.5</ele>
        <time>2013-03-10T10:53:22.000Z</time>
      </trkpt>
      <trkpt lat="46.06155" lon="-0.39199">
        <ele>43.5</ele>
        <time>2013-03-10T10:53:23.000Z</time>
      </trkpt>
      <trkpt lat="46.06153" lon="-0.39192">
        <ele>43.6</ele>
        <time>2013-03-10T10:53:24.000Z</time>
      </trkpt>
      <trkpt lat="46.06151" lon="-0.39186">
        <ele>43.6</ele>
        <time>2013-03-10T10:53:25.000Z</time>
      </trkpt>
      <trkpt lat="46.0615" lon="-0.39179">
        <ele>43.7</ele>
        <time>2013-03-10T10:53:26.000Z</time>
      </trkpt>
      <trkpt lat="46.06148" lon="-0.39173">
        <ele>44</ele>
        <time>2013-03-10T10:53:27.000Z</time>
      </trkpt>
      <trkpt lat="46.06147" lon="-0.39167">
        <ele>44.2</ele>
        <time>2013-03-10T10:53:28.000Z</time>
      </trkpt>
      <trkpt lat="46.06145" lon="-0.39161">
        <ele>44</ele>
        <time>2013-03-10T10:53:29.000Z</time>
      </trkpt>
      <trkpt lat="46.06143" lon="-0.39148">
        <ele>43.8</ele>
        <time>2013-03-10T10:53:31.000Z</time>
      </trkpt>
      <trkpt lat="46.0614" lon="-0.39137">
        <ele>44</ele>
        <time>2013-03-10T10:53:33.000Z</time>
      </trkpt>
      <trkpt lat="46.06137" lon="-0.39125">
        <ele>44.6</ele>
        <time>2013-03-10T10:53:35.000Z</time>
      </trkpt>
      <trkpt lat="46.06134" lon="-0.39113">
        <ele>44.4</ele>
        <time>2013-03-10T10:53:37.000Z</time>
      </trkpt>
      <trkpt lat="46.06132" lon="-0.39102">
        <ele>44.4</ele>
        <time>2013-03-10T10:53:39.000Z</time>
      </trkpt>
      <trkpt lat="46.06131" lon="-0.39091">
        <ele>44.5</ele>
        <time>2013-03-10T10:53:41.000Z</time>
      </trkpt>
      <trkpt lat="46.06129" lon="-0.3908">
        <ele>44.8</ele>
        <time>2013-03-10T10:53:43.000Z</time>
      </trkpt>
      <trkpt lat="46.06127" lon="-0.39068">
        <ele>45.3</ele>
        <time>2013-03-10T10:53:45.000Z</time>
      </trkpt>
      <trkpt lat="46.06125" lon="-0.39057">
        <ele>45.7</ele>
        <time>2013-03-10T10:53:47.000Z</time>
      </trkpt>
      <trkpt lat="46.06124" lon="-0.39046">
        <ele>45.6</ele>
        <time>2013-03-10T10:53:49.000Z</time>
      </trkpt>
      <trkpt lat="46.06128" lon="-0.39038">
        <ele>45.4</ele>
        <time>2013-03-10T10:53:51.000Z</time>
      </trkpt>
      <trkpt lat="46.06131" lon="-0.3903">
        <ele>45.6</ele>
        <time>2013-03-10T10:53:53.000Z</time>
      </trkpt>
      <trkpt lat="46.06133" lon="-0.39021">
        <ele>46.4</ele>
        <time>2013-03-10T10:53:55.000Z</time>
      </trkpt>
      <trkpt lat="46.06136" lon="-0.39012">
        <ele>47.1</ele>
        <time>2013-03-10T10:53:57.000Z</time>
      </trkpt>
      <trkpt lat="46.06139" lon="-0.39004">
        <ele>47</ele>
        <time>2013-03-10T10:53:59.000Z</time>
      </trkpt>
      <trkpt lat="46.06143" lon="-0.38997">
        <ele>47.1</ele>
        <time>2013-03-10T10:54:01.000Z</time>
      </trkpt>
      <trkpt lat="46.06149" lon="-0.38991">
        <ele>47.7</ele>
        <time>2013-03-10T10:54:03.000Z</time>
      </trkpt>
      <trkpt lat="46.06156" lon="-0.38983">
        <ele>48.2</ele>
        <time>2013-03-10T10:54:06.000Z</time>
      </trkpt>
      <trkpt lat="46.06165" lon="-0.38983">
        <ele>48.2</ele>
        <time>2013-03-10T10:54:11.000Z</time>
      </trkpt>
      <trkpt lat="46.06166" lon="-0.38983">
        <ele>48.4</ele>
        <time>2013-03-10T10:54:12.000Z</time>
      </trkpt>
      <trkpt lat="46.06181" lon="-0.38985">
        <ele>48</ele>
        <time>2013-03-10T10:54:46.000Z</time>
      </trkpt>
      <trkpt lat="46.06183" lon="-0.38995">
        <ele>47.6</ele>
        <time>2013-03-10T10:54:51.000Z</time>
      </trkpt>
      <trkpt lat="46.06187" lon="-0.39005">
        <ele>47.8</ele>
        <time>2013-03-10T10:54:56.000Z</time>
      </trkpt>
      <trkpt lat="46.06194" lon="-0.39013">
        <ele>46.3</ele>
        <time>2013-03-10T10:55:38.000Z</time>
      </trkpt>
      <trkpt lat="46.06194" lon="-0.39013">
        <ele>46.1</ele>
        <time>2013-03-10T10:55:39.000Z</time>
      </trkpt>
      <trkpt lat="46.06202" lon="-0.39031">
        <ele>46.3</ele>
        <time>2013-03-10T10:55:50.000Z</time>
      </trkpt>
      <trkpt lat="46.06206" lon="-0.39042">
        <ele>45.9</ele>
        <time>2013-03-10T10:55:54.000Z</time>
      </trkpt>
      <trkpt lat="46.06215" lon="-0.39043">
        <ele>45.7</ele>
        <time>2013-03-10T10:56:07.000Z</time>
      </trkpt>
      <trkpt lat="46.06223" lon="-0.39037">
        <ele>46</ele>
        <time>2013-03-10T10:56:11.000Z</time>
      </trkpt>
      <trkpt lat="46.0623" lon="-0.39031">
        <ele>45.9</ele>
        <time>2013-03-10T10:56:14.000Z</time>
      </trkpt>
      <trkpt lat="46.06238" lon="-0.39027">
        <ele>45.8</ele>
        <time>2013-03-10T10:56:18.000Z</time>
      </trkpt>
      <trkpt lat="46.06244" lon="-0.39024">
        <ele>46.1</ele>
        <time>2013-03-10T10:56:21.000Z</time>
      </trkpt>
      <trkpt lat="46.06251" lon="-0.39016">
        <ele>46.6</ele>
        <time>2013-03-10T10:56:24.000Z</time>
      </trkpt>
      <trkpt lat="46.06257" lon="-0.39012">
        <ele>47</ele>
        <time>2013-03-10T10:56:27.000Z</time>
      </trkpt>
      <trkpt lat="46.06263" lon="-0.39008">
        <ele>47.3</ele>
        <time>2013-03-10T10:56:29.000Z</time>
      </trkpt>
      <trkpt lat="46.06269" lon="-0.39003">
        <ele>47.1</ele>
        <time>2013-03-10T10:56:31.000Z</time>
      </trkpt>
      <trkpt lat="46.06274" lon="-0.38999">
        <ele>47.2</ele>
        <time>2013-03-10T10:56:33.000Z</time>
      </trkpt>
      <trkpt lat="46.0628" lon="-0.38994">
        <ele>46.9</ele>
        <time>2013-03-10T10:56:35.000Z</time>
      </trkpt>
      <trkpt lat="46.06287" lon="-0.38989">
        <ele>47.1</ele>
        <time>2013-03-10T10:56:37.000Z</time>
      </trkpt>
      <trkpt lat="46.06293" lon="-0.38984">
        <ele>47.5</ele>
        <time>2013-03-10T10:56:39.000Z</time>
      </trkpt>
      <trkpt lat="46.06296" lon="-0.38981">
        <ele>47.7</ele>
        <time>2013-03-10T10:56:40.000Z</time>
      </trkpt>
      <trkpt lat="46.06305" lon="-0.38974">
        <ele>47</ele>
        <time>2013-03-10T10:56:43.000Z</time>
      </trkpt>
      <trkpt lat="46.06311" lon="-0.38969">
        <ele>47.3</ele>
        <time>2013-03-10T10:56:45.000Z</time>
      </trkpt>
      <trkpt lat="46.06317" lon="-0.38963">
        <ele>47.4</ele>
        <time>2013-03-10T10:56:47.000Z</time>
      </trkpt>
      <trkpt lat="46.06325" lon="-0.38964">
        <ele>48.2</ele>
        <time>2013-03-10T10:56:52.000Z</time>
      </trkpt>
      <trkpt lat="46.0633" lon="-0.38974">
        <ele>47.6</ele>
        <time>2013-03-10T10:56:57.000Z</time>
      </trkpt>
      <trkpt lat="46.06335" lon="-0.38984">
        <ele>47.6</ele>
        <time>2013-03-10T10:57:00.000Z</time>
      </trkpt>
      <trkpt lat="46.06339" lon="-0.38991">
        <ele>47</ele>
        <time>2013-03-10T10:57:02.000Z</time>
      </trkpt>
      <trkpt lat="46.06343" lon="-0.38999">
        <ele>47.1</ele>
        <time>2013-03-10T10:57:04.000Z</time>
      </trkpt>
      <trkpt lat="46.06347" lon="-0.39008">
        <ele>46.8</ele>
        <time>2013-03-10T10:57:06.000Z</time>
      </trkpt>
      <trkpt lat="46.06352" lon="-0.39017">
        <ele>46.1</ele>
        <time>2013-03-10T10:57:09.000Z</time>
      </trkpt>
      <trkpt lat="46.06359" lon="-0.39011">
        <ele>45.8</ele>
        <time>2013-03-10T10:57:12.000Z</time>
      </trkpt>
      <trkpt lat="46.06364" lon="-0.39005">
        <ele>45.8</ele>
        <time>2013-03-10T10:57:14.000Z</time>
      </trkpt>
      <trkpt lat="46.06371" lon="-0.38999">
        <ele>45.7</ele>
        <time>2013-03-10T10:57:16.000Z</time>
      </trkpt>
      <trkpt lat="46.06377" lon="-0.38993">
        <ele>45.9</ele>
        <time>2013-03-10T10:57:18.000Z</time>
      </trkpt>
      <trkpt lat="46.06383" lon="-0.38988">
        <ele>45.5</ele>
        <time>2013-03-10T10:57:20.000Z</time>
      </trkpt>
      <trkpt lat="46.06391" lon="-0.38983">
        <ele>45.5</ele>
        <time>2013-03-10T10:57:22.000Z</time>
      </trkpt>
      <trkpt lat="46.06398" lon="-0.38977">
        <ele>45.5</ele>
        <time>2013-03-10T10:57:24.000Z</time>
      </trkpt>
      <trkpt lat="46.06405" lon="-0.38972">
        <ele>45.1</ele>
        <time>2013-03-10T10:57:26.000Z</time>
      </trkpt>
      <trkpt lat="46.06412" lon="-0.38968">
        <ele>45.4</ele>
        <time>2013-03-10T10:57:28.000Z</time>
      </trkpt>
      <trkpt lat="46.06419" lon="-0.38963">
        <ele>45.1</ele>
        <time>2013-03-10T10:57:30.000Z</time>
      </trkpt>
      <trkpt lat="46.06426" lon="-0.38959">
        <ele>45.3</ele>
        <time>2013-03-10T10:57:32.000Z</time>
      </trkpt>
      <trkpt lat="46.06434" lon="-0.38952">
        <ele>44.7</ele>
        <time>2013-03-10T10:57:35.000Z</time>
      </trkpt>
      <trkpt lat="46.06441" lon="-0.38946">
        <ele>44.5</ele>
        <time>2013-03-10T10:57:38.000Z</time>
      </trkpt>
      <trkpt lat="46.06447" lon="-0.3894">
        <ele>44.5</ele>
        <time>2013-03-10T10:57:40.000Z</time>
      </trkpt>
      <trkpt lat="46.0645" lon="-0.38937">
        <ele>44.2</ele>
        <time>2013-03-10T10:57:41.000Z</time>
      </trkpt>
      <trkpt lat="46.06462" lon="-0.38931">
        <ele>43.9</ele>
        <time>2013-03-10T10:57:44.000Z</time>
      </trkpt>
      <trkpt lat="46.06468" lon="-0.38924">
        <ele>44</ele>
        <time>2013-03-10T10:57:46.000Z</time>
      </trkpt>
      <trkpt lat="46.06475" lon="-0.38919">
        <ele>44</ele>
        <time>2013-03-10T10:57:48.000Z</time>
      </trkpt>
      <trkpt lat="46.06481" lon="-0.38921">
        <ele>44</ele>
        <time>2013-03-10T10:57:50.000Z</time>
      </trkpt>
      <trkpt lat="46.06488" lon="-0.38927">
        <ele>44</ele>
        <time>2013-03-10T10:57:52.000Z</time>
      </trkpt>
      <trkpt lat="46.06492" lon="-0.38931">
        <ele>43.6</ele>
        <time>2013-03-10T10:57:53.000Z</time>
      </trkpt>
      <trkpt lat="46.06496" lon="-0.38936">
        <ele>43.3</ele>
        <time>2013-03-10T10:57:54.000Z</time>
      </trkpt>
      <trkpt lat="46.065" lon="-0.3894">
        <ele>43.1</ele>
        <time>2013-03-10T10:57:55.000Z</time>
      </trkpt>
      <trkpt lat="46.06505" lon="-0.38944">
        <ele>42.9</ele>
        <time>2013-03-10T10:57:56.000Z</time>
      </trkpt>
      <trkpt lat="46.06509" lon="-0.38948">
        <ele>42.6</ele>
        <time>2013-03-10T10:57:57.000Z</time>
      </trkpt>
      <trkpt lat="46.06516" lon="-0.38955">
        <ele>42.1</ele>
        <time>2013-03-10T10:57:59.000Z</time>
      </trkpt>
      <trkpt lat="46.06523" lon="-0.38961">
        <ele>40.3</ele>
        <time>2013-03-10T10:58:02.000Z</time>
      </trkpt>
      <trkpt lat="46.0653" lon="-0.38956">
        <ele>39.1</ele>
        <time>2013-03-10T10:58:05.000Z</time>
      </trkpt>
      <trkpt lat="46.06531" lon="-0.38944">
        <ele>39.5</ele>
        <time>2013-03-10T10:58:09.000Z</time>
      </trkpt>
      <trkpt lat="46.06527" lon="-0.38933">
        <ele>40.5</ele>
        <time>2013-03-10T10:58:14.000Z</time>
      </trkpt>
      <trkpt lat="46.06524" lon="-0.38921">
        <ele>40.9</ele>
        <time>2013-03-10T10:58:19.000Z</time>
      </trkpt>
      <trkpt lat="46.06521" lon="-0.38909">
        <ele>41.8</ele>
        <time>2013-03-10T10:58:24.000Z</time>
      </trkpt>
      <trkpt lat="46.06519" lon="-0.38897">
        <ele>42.4</ele>
        <time>2013-03-10T10:58:29.000Z</time>
      </trkpt>
      <trkpt lat="46.06516" lon="-0.38887">
        <ele>42.4</ele>
        <time>2013-03-10T10:58:33.000Z</time>
      </trkpt>
      <trkpt lat="46.06514" lon="-0.38877">
        <ele>42.9</ele>
        <time>2013-03-10T10:58:37.000Z</time>
      </trkpt>
      <trkpt lat="46.06512" lon="-0.38865">
        <ele>43.9</ele>
        <time>2013-03-10T10:58:41.000Z</time>
      </trkpt>
      <trkpt lat="46.06511" lon="-0.38862">
        <ele>44.1</ele>
        <time>2013-03-10T10:58:42.000Z</time>
      </trkpt>
      <trkpt lat="46.06517" lon="-0.38843">
        <ele>44.8</ele>
        <time>2013-03-10T10:58:49.000Z</time>
      </trkpt>
      <trkpt lat="46.06524" lon="-0.38837">
        <ele>44.4</ele>
        <time>2013-03-10T10:58:52.000Z</time>
      </trkpt>
      <trkpt lat="46.06532" lon="-0.38832">
        <ele>44.3</ele>
        <time>2013-03-10T10:58:55.000Z</time>
      </trkpt>
      <trkpt lat="46.06539" lon="-0.38828">
        <ele>43.9</ele>
        <time>2013-03-10T10:58:58.000Z</time>
      </trkpt>
      <trkpt lat="46.06548" lon="-0.38823">
        <ele>43.4</ele>
        <time>2013-03-10T10:59:01.000Z</time>
      </trkpt>
      <trkpt lat="46.06553" lon="-0.3882">
        <ele>43.6</ele>
        <time>2013-03-10T10:59:03.000Z</time>
      </trkpt>
      <trkpt lat="46.06559" lon="-0.38816">
        <ele>43.9</ele>
        <time>2013-03-10T10:59:05.000Z</time>
      </trkpt>
      <trkpt lat="46.06565" lon="-0.38812">
        <ele>43.3</ele>
        <time>2013-03-10T10:59:07.000Z</time>
      </trkpt>
      <trkpt lat="46.06571" lon="-0.38809">
        <ele>43.2</ele>
        <time>2013-03-10T10:59:09.000Z</time>
      </trkpt>
      <trkpt lat="46.06577" lon="-0.38805">
        <ele>43.2</ele>
        <time>2013-03-10T10:59:11.000Z</time>
      </trkpt>
      <trkpt lat="46.06584" lon="-0.38801">
        <ele>43.2</ele>
        <time>2013-03-10T10:59:13.000Z</time>
      </trkpt>
      <trkpt lat="46.0659" lon="-0.38798">
        <ele>43.3</ele>
        <time>2013-03-10T10:59:15.000Z</time>
      </trkpt>
      <trkpt lat="46.06599" lon="-0.38794">
        <ele>42.9</ele>
        <time>2013-03-10T10:59:18.000Z</time>
      </trkpt>
      <trkpt lat="46.06606" lon="-0.38798">
        <ele>42.7</ele>
        <time>2013-03-10T10:59:21.000Z</time>
      </trkpt>
      <trkpt lat="46.06608" lon="-0.38806">
        <ele>42.9</ele>
        <time>2013-03-10T10:59:23.000Z</time>
      </trkpt>
      <trkpt lat="46.06612" lon="-0.38815">
        <ele>42.7</ele>
        <time>2013-03-10T10:59:25.000Z</time>
      </trkpt>
      <trkpt lat="46.06616" lon="-0.38825">
        <ele>42.4</ele>
        <time>2013-03-10T10:59:27.000Z</time>
      </trkpt>
      <trkpt lat="46.06624" lon="-0.38828">
        <ele>42.2</ele>
        <time>2013-03-10T10:59:29.000Z</time>
      </trkpt>
      <trkpt lat="46.06632" lon="-0.38824">
        <ele>42.1</ele>
        <time>2013-03-10T10:59:31.000Z</time>
      </trkpt>
      <trkpt lat="46.0664" lon="-0.38819">
        <ele>41.2</ele>
        <time>2013-03-10T10:59:33.000Z</time>
      </trkpt>
      <trkpt lat="46.06645" lon="-0.3881">
        <ele>40.5</ele>
        <time>2013-03-10T10:59:42.000Z</time>
      </trkpt>
      <trkpt lat="46.06646" lon="-0.38809">
        <ele>40.6</ele>
        <time>2013-03-10T10:59:43.000Z</time>
      </trkpt>
      <trkpt lat="46.06651" lon="-0.38821">
        <ele>38.9</ele>
        <time>2013-03-10T11:02:07.000Z</time>
      </trkpt>
      <trkpt lat="46.06661" lon="-0.38835">
        <ele>38.7</ele>
        <time>2013-03-10T11:02:14.000Z</time>
      </trkpt>
      <trkpt lat="46.06663" lon="-0.38846">
        <ele>38.6</ele>
        <time>2013-03-10T11:02:16.000Z</time>
      </trkpt>
      <trkpt lat="46.06664" lon="-0.38852">
        <ele>38.4</ele>
        <time>2013-03-10T11:02:17.000Z</time>
      </trkpt>
      <trkpt lat="46.06665" lon="-0.38859">
        <ele>38.3</ele>
        <time>2013-03-10T11:02:18.000Z</time>
      </trkpt>
      <trkpt lat="46.06667" lon="-0.38866">
        <ele>38.4</ele>
        <time>2013-03-10T11:02:19.000Z</time>
      </trkpt>
      <trkpt lat="46.06669" lon="-0.38874">
        <ele>38.4</ele>
        <time>2013-03-10T11:02:20.000Z</time>
      </trkpt>
      <trkpt lat="46.06671" lon="-0.38883">
        <ele>38.2</ele>
        <time>2013-03-10T11:02:21.000Z</time>
      </trkpt>
      <trkpt lat="46.06674" lon="-0.38892">
        <ele>38</ele>
        <time>2013-03-10T11:02:22.000Z</time>
      </trkpt>
      <trkpt lat="46.06677" lon="-0.38901">
        <ele>37.8</ele>
        <time>2013-03-10T11:02:23.000Z</time>
      </trkpt>
      <trkpt lat="46.0668" lon="-0.38911">
        <ele>37.7</ele>
        <time>2013-03-10T11:02:24.000Z</time>
      </trkpt>
      <trkpt lat="46.06683" lon="-0.38921">
        <ele>37.6</ele>
        <time>2013-03-10T11:02:25.000Z</time>
      </trkpt>
      <trkpt lat="46.06686" lon="-0.38931">
        <ele>37.4</ele>
        <time>2013-03-10T11:02:26.000Z</time>
      </trkpt>
      <trkpt lat="46.06689" lon="-0.38941">
        <ele>37.3</ele>
        <time>2013-03-10T11:02:27.000Z</time>
      </trkpt>
      <trkpt lat="46.06691" lon="-0.38951">
        <ele>37.3</ele>
        <time>2013-03-10T11:02:28.000Z</time>
      </trkpt>
      <trkpt lat="46.06692" lon="-0.38962">
        <ele>37.4</ele>
        <time>2013-03-10T11:02:29.000Z</time>
      </trkpt>
      <trkpt lat="46.06691" lon="-0.38972">
        <ele>37.3</ele>
        <time>2013-03-10T11:02:30.000Z</time>
      </trkpt>
      <trkpt lat="46.06689" lon="-0.38982">
        <ele>37.2</ele>
        <time>2013-03-10T11:02:31.000Z</time>
      </trkpt>
      <trkpt lat="46.06685" lon="-0.3899">
        <ele>37.2</ele>
        <time>2013-03-10T11:02:32.000Z</time>
      </trkpt>
      <trkpt lat="46.06679" lon="-0.38996">
        <ele>37.2</ele>
        <time>2013-03-10T11:02:33.000Z</time>
      </trkpt>
      <trkpt lat="46.06673" lon="-0.39002">
        <ele>37.2</ele>
        <time>2013-03-10T11:02:34.000Z</time>
      </trkpt>
      <trkpt lat="46.06667" lon="-0.39008">
        <ele>37.1</ele>
        <time>2013-03-10T11:02:35.000Z</time>
      </trkpt>
      <trkpt lat="46.06661" lon="-0.39014">
        <ele>37.1</ele>
        <time>2013-03-10T11:02:36.000Z</time>
      </trkpt>
      <trkpt lat="46.06655" lon="-0.39019">
        <ele>37</ele>
        <time>2013-03-10T11:02:37.000Z</time>
      </trkpt>
      <trkpt lat="46.06649" lon="-0.39025">
        <ele>36.9</ele>
        <time>2013-03-10T11:02:38.000Z</time>
      </trkpt>
      <trkpt lat="46.06643" lon="-0.3903">
        <ele>36.8</ele>
        <time>2013-03-10T11:02:39.000Z</time>
      </trkpt>
      <trkpt lat="46.06637" lon="-0.39037">
        <ele>37</ele>
        <time>2013-03-10T11:02:40.000Z</time>
      </trkpt>
      <trkpt lat="46.06632" lon="-0.39043">
        <ele>37.1</ele>
        <time>2013-03-10T11:02:41.000Z</time>
      </trkpt>
      <trkpt lat="46.06626" lon="-0.3905">
        <ele>36.9</ele>
        <time>2013-03-10T11:02:42.000Z</time>
      </trkpt>
      <trkpt lat="46.06621" lon="-0.39058">
        <ele>36.7</ele>
        <time>2013-03-10T11:02:43.000Z</time>
      </trkpt>
      <trkpt lat="46.06616" lon="-0.39065">
        <ele>36.5</ele>
        <time>2013-03-10T11:02:44.000Z</time>
      </trkpt>
      <trkpt lat="46.06612" lon="-0.39074">
        <ele>36.4</ele>
        <time>2013-03-10T11:02:45.000Z</time>
      </trkpt>
      <trkpt lat="46.06609" lon="-0.39083">
        <ele>36.3</ele>
        <time>2013-03-10T11:02:46.000Z</time>
      </trkpt>
      <trkpt lat="46.06606" lon="-0.39093">
        <ele>36.1</ele>
        <time>2013-03-10T11:02:47.000Z</time>
      </trkpt>
      <trkpt lat="46.06604" lon="-0.39103">
        <ele>36</ele>
        <time>2013-03-10T11:02:48.000Z</time>
      </trkpt>
      <trkpt lat="46.06603" lon="-0.39113">
        <ele>35.8</ele>
        <time>2013-03-10T11:02:49.000Z</time>
      </trkpt>
      <trkpt lat="46.06603" lon="-0.39124">
        <ele>35.7</ele>
        <time>2013-03-10T11:02:50.000Z</time>
      </trkpt>
      <trkpt lat="46.06603" lon="-0.39135">
        <ele>35.6</ele>
        <time>2013-03-10T11:02:51.000Z</time>
      </trkpt>
      <trkpt lat="46.06604" lon="-0.39145">
        <ele>36</ele>
        <time>2013-03-10T11:02:52.000Z</time>
      </trkpt>
      <trkpt lat="46.06606" lon="-0.39155">
        <ele>36.3</ele>
        <time>2013-03-10T11:02:53.000Z</time>
      </trkpt>
      <trkpt lat="46.06607" lon="-0.39166">
        <ele>36.4</ele>
        <time>2013-03-10T11:02:54.000Z</time>
      </trkpt>
      <trkpt lat="46.06609" lon="-0.39176">
        <ele>36.5</ele>
        <time>2013-03-10T11:02:55.000Z</time>
      </trkpt>
      <trkpt lat="46.0661" lon="-0.39186">
        <ele>36.6</ele>
        <time>2013-03-10T11:02:56.000Z</time>
      </trkpt>
      <trkpt lat="46.06613" lon="-0.39196">
        <ele>36.3</ele>
        <time>2013-03-10T11:02:57.000Z</time>
      </trkpt>
      <trkpt lat="46.06615" lon="-0.39206">
        <ele>36.1</ele>
        <time>2013-03-10T11:02:58.000Z</time>
      </trkpt>
      <trkpt lat="46.06617" lon="-0.39216">
        <ele>36.3</ele>
        <time>2013-03-10T11:02:59.000Z</time>
      </trkpt>
      <trkpt lat="46.06619" lon="-0.39225">
        <ele>36.5</ele>
        <time>2013-03-10T11:03:00.000Z</time>
      </trkpt>
      <trkpt lat="46.06621" lon="-0.39235">
        <ele>36.6</ele>
        <time>2013-03-10T11:03:01.000Z</time>
      </trkpt>
      <trkpt lat="46.06624" lon="-0.39244">
        <ele>36.7</ele>
        <time>2013-03-10T11:03:02.000Z</time>
      </trkpt>
      <trkpt lat="46.06623" lon="-0.39253">
        <ele>36.7</ele>
        <time>2013-03-10T11:03:03.000Z</time>
      </trkpt>
      <trkpt lat="46.06621" lon="-0.39261">
        <ele>36.9</ele>
        <time>2013-03-10T11:03:04.000Z</time>
      </trkpt>
      <trkpt lat="46.06617" lon="-0.39267">
        <ele>37.1</ele>
        <time>2013-03-10T11:03:05.000Z</time>
      </trkpt>
      <trkpt lat="46.06613" lon="-0.39273">
        <ele>36.6</ele>
        <time>2013-03-10T11:03:06.000Z</time>
      </trkpt>
      <trkpt lat="46.06609" lon="-0.39278">
        <ele>36.3</ele>
        <time>2013-03-10T11:03:07.000Z</time>
      </trkpt>
      <trkpt lat="46.06604" lon="-0.39283">
        <ele>36</ele>
        <time>2013-03-10T11:03:08.000Z</time>
      </trkpt>
      <trkpt lat="46.06599" lon="-0.39289">
        <ele>35.7</ele>
        <time>2013-03-10T11:03:09.000Z</time>
      </trkpt>
      <trkpt lat="46.06596" lon="-0.39294">
        <ele>35.5</ele>
        <time>2013-03-10T11:03:10.000Z</time>
      </trkpt>
      <trkpt lat="46.06591" lon="-0.393">
        <ele>35.4</ele>
        <time>2013-03-10T11:03:11.000Z</time>
      </trkpt>
      <trkpt lat="46.06587" lon="-0.39305">
        <ele>35.3</ele>
        <time>2013-03-10T11:03:12.000Z</time>
      </trkpt>
      <trkpt lat="46.06583" lon="-0.3931">
        <ele>35.4</ele>
        <time>2013-03-10T11:03:13.000Z</time>
      </trkpt>
      <trkpt lat="46.06579" lon="-0.39315">
        <ele>35.6</ele>
        <time>2013-03-10T11:03:14.000Z</time>
      </trkpt>
      <trkpt lat="46.06575" lon="-0.3932">
        <ele>35.6</ele>
        <time>2013-03-10T11:03:15.000Z</time>
      </trkpt>
      <trkpt lat="46.06571" lon="-0.39325">
        <ele>35.5</ele>
        <time>2013-03-10T11:03:16.000Z</time>
      </trkpt>
      <trkpt lat="46.06567" lon="-0.3933">
        <ele>35.4</ele>
        <time>2013-03-10T11:03:17.000Z</time>
      </trkpt>
      <trkpt lat="46.06563" lon="-0.39334">
        <ele>35.2</ele>
        <time>2013-03-10T11:03:18.000Z</time>
      </trkpt>
      <trkpt lat="46.0656" lon="-0.39339">
        <ele>35</ele>
        <time>2013-03-10T11:03:19.000Z</time>
      </trkpt>
      <trkpt lat="46.06556" lon="-0.39343">
        <ele>34.8</ele>
        <time>2013-03-10T11:03:20.000Z</time>
      </trkpt>
      <trkpt lat="46.06553" lon="-0.39347">
        <ele>34.6</ele>
        <time>2013-03-10T11:03:21.000Z</time>
      </trkpt>
      <trkpt lat="46.06549" lon="-0.39352">
        <ele>34.5</ele>
        <time>2013-03-10T11:03:22.000Z</time>
      </trkpt>
      <trkpt lat="46.06545" lon="-0.39356">
        <ele>34.4</ele>
        <time>2013-03-10T11:03:23.000Z</time>
      </trkpt>
      <trkpt lat="46.06541" lon="-0.3936">
        <ele>34.2</ele>
        <time>2013-03-10T11:03:24.000Z</time>
      </trkpt>
      <trkpt lat="46.06537" lon="-0.39364">
        <ele>34.2</ele>
        <time>2013-03-10T11:03:25.000Z</time>
      </trkpt>
      <trkpt lat="46.06533" lon="-0.39368">
        <ele>34.1</ele>
        <time>2013-03-10T11:03:26.000Z</time>
      </trkpt>
      <trkpt lat="46.0653" lon="-0.39372">
        <ele>34.2</ele>
        <time>2013-03-10T11:03:27.000Z</time>
      </trkpt>
      <trkpt lat="46.06526" lon="-0.39376">
        <ele>34.2</ele>
        <time>2013-03-10T11:03:28.000Z</time>
      </trkpt>
      <trkpt lat="46.06521" lon="-0.39381">
        <ele>34.2</ele>
        <time>2013-03-10T11:03:29.000Z</time>
      </trkpt>
      <trkpt lat="46.06517" lon="-0.39385">
        <ele>34.5</ele>
        <time>2013-03-10T11:03:30.000Z</time>
      </trkpt>
      <trkpt lat="46.06512" lon="-0.3939">
        <ele>34.7</ele>
        <time>2013-03-10T11:03:31.000Z</time>
      </trkpt>
      <trkpt lat="46.06508" lon="-0.39394">
        <ele>34.6</ele>
        <time>2013-03-10T11:03:32.000Z</time>
      </trkpt>
      <trkpt lat="46.06504" lon="-0.39398">
        <ele>34.6</ele>
        <time>2013-03-10T11:03:33.000Z</time>
      </trkpt>
      <trkpt lat="46.065" lon="-0.39403">
        <ele>34.5</ele>
        <time>2013-03-10T11:03:34.000Z</time>
      </trkpt>
      <trkpt lat="46.06496" lon="-0.39407">
        <ele>34.7</ele>
        <time>2013-03-10T11:03:35.000Z</time>
      </trkpt>
      <trkpt lat="46.0649" lon="-0.39411">
        <ele>34.9</ele>
        <time>2013-03-10T11:03:36.000Z</time>
      </trkpt>
      <trkpt lat="46.06486" lon="-0.39415">
        <ele>34.9</ele>
        <time>2013-03-10T11:03:37.000Z</time>
      </trkpt>
      <trkpt lat="46.06481" lon="-0.39419">
        <ele>34.9</ele>
        <time>2013-03-10T11:03:38.000Z</time>
      </trkpt>
      <trkpt lat="46.06477" lon="-0.39423">
        <ele>34.8</ele>
        <time>2013-03-10T11:03:39.000Z</time>
      </trkpt>
      <trkpt lat="46.06469" lon="-0.39431">
        <ele>34.8</ele>
        <time>2013-03-10T11:03:41.000Z</time>
      </trkpt>
      <trkpt lat="46.06463" lon="-0.39438">
        <ele>35.1</ele>
        <time>2013-03-10T11:03:43.000Z</time>
      </trkpt>
      <trkpt lat="46.06457" lon="-0.39447">
        <ele>35.4</ele>
        <time>2013-03-10T11:03:45.000Z</time>
      </trkpt>
      <trkpt lat="46.06451" lon="-0.39455">
        <ele>35.3</ele>
        <time>2013-03-10T11:03:47.000Z</time>
      </trkpt>
      <trkpt lat="46.06445" lon="-0.39462">
        <ele>35.2</ele>
        <time>2013-03-10T11:03:49.000Z</time>
      </trkpt>
      <trkpt lat="46.06438" lon="-0.39469">
        <ele>35.3</ele>
        <time>2013-03-10T11:03:51.000Z</time>
      </trkpt>
      <trkpt lat="46.06431" lon="-0.39476">
        <ele>35.5</ele>
        <time>2013-03-10T11:03:53.000Z</time>
      </trkpt>
      <trkpt lat="46.06424" lon="-0.39482">
        <ele>35.6</ele>
        <time>2013-03-10T11:03:55.000Z</time>
      </trkpt>
      <trkpt lat="46.06418" lon="-0.3949">
        <ele>36.3</ele>
        <time>2013-03-10T11:03:57.000Z</time>
      </trkpt>
      <trkpt lat="46.06411" lon="-0.39497">
        <ele>35.9</ele>
        <time>2013-03-10T11:03:59.000Z</time>
      </trkpt>
      <trkpt lat="46.06404" lon="-0.39504">
        <ele>35.9</ele>
        <time>2013-03-10T11:04:01.000Z</time>
      </trkpt>
      <trkpt lat="46.064" lon="-0.39508">
        <ele>36</ele>
        <time>2013-03-10T11:04:02.000Z</time>
      </trkpt>
      <trkpt lat="46.06397" lon="-0.39512">
        <ele>36</ele>
        <time>2013-03-10T11:04:03.000Z</time>
      </trkpt>
      <trkpt lat="46.06393" lon="-0.39516">
        <ele>35.9</ele>
        <time>2013-03-10T11:04:04.000Z</time>
      </trkpt>
      <trkpt lat="46.06389" lon="-0.3952">
        <ele>35.9</ele>
        <time>2013-03-10T11:04:05.000Z</time>
      </trkpt>
      <trkpt lat="46.06385" lon="-0.39525">
        <ele>35.9</ele>
        <time>2013-03-10T11:04:06.000Z</time>
      </trkpt>
      <trkpt lat="46.06381" lon="-0.39529">
        <ele>35.9</ele>
        <time>2013-03-10T11:04:07.000Z</time>
      </trkpt>
      <trkpt lat="46.06378" lon="-0.39533">
        <ele>36.1</ele>
        <time>2013-03-10T11:04:08.000Z</time>
      </trkpt>
      <trkpt lat="46.06373" lon="-0.39537">
        <ele>36.3</ele>
        <time>2013-03-10T11:04:09.000Z</time>
      </trkpt>
      <trkpt lat="46.06369" lon="-0.39541">
        <ele>36.1</ele>
        <time>2013-03-10T11:04:10.000Z</time>
      </trkpt>
      <trkpt lat="46.06365" lon="-0.39546">
        <ele>36</ele>
        <time>2013-03-10T11:04:11.000Z</time>
      </trkpt>
      <trkpt lat="46.06361" lon="-0.3955">
        <ele>35.9</ele>
        <time>2013-03-10T11:04:12.000Z</time>
      </trkpt>
      <trkpt lat="46.06357" lon="-0.39554">
        <ele>36.1</ele>
        <time>2013-03-10T11:04:13.000Z</time>
      </trkpt>
      <trkpt lat="46.06353" lon="-0.39558">
        <ele>36.3</ele>
        <time>2013-03-10T11:04:14.000Z</time>
      </trkpt>
      <trkpt lat="46.06349" lon="-0.39562">
        <ele>36.1</ele>
        <time>2013-03-10T11:04:15.000Z</time>
      </trkpt>
      <trkpt lat="46.06345" lon="-0.39566">
        <ele>36</ele>
        <time>2013-03-10T11:04:16.000Z</time>
      </trkpt>
      <trkpt lat="46.06337" lon="-0.39574">
        <ele>35.9</ele>
        <time>2013-03-10T11:04:18.000Z</time>
      </trkpt>
      <trkpt lat="46.0633" lon="-0.39581">
        <ele>35.7</ele>
        <time>2013-03-10T11:04:20.000Z</time>
      </trkpt>
      <trkpt lat="46.06324" lon="-0.39588">
        <ele>35.6</ele>
        <time>2013-03-10T11:04:22.000Z</time>
      </trkpt>
      <trkpt lat="46.0632" lon="-0.39593">
        <ele>35.6</ele>
        <time>2013-03-10T11:04:23.000Z</time>
      </trkpt>
      <trkpt lat="46.06316" lon="-0.39597">
        <ele>35.3</ele>
        <time>2013-03-10T11:04:24.000Z</time>
      </trkpt>
      <trkpt lat="46.06313" lon="-0.39601">
        <ele>35.1</ele>
        <time>2013-03-10T11:04:25.000Z</time>
      </trkpt>
      <trkpt lat="46.06305" lon="-0.39608">
        <ele>35.1</ele>
        <time>2013-03-10T11:04:27.000Z</time>
      </trkpt>
      <trkpt lat="46.06299" lon="-0.39615">
        <ele>35</ele>
        <time>2013-03-10T11:04:29.000Z</time>
      </trkpt>
      <trkpt lat="46.06295" lon="-0.3962">
        <ele>35</ele>
        <time>2013-03-10T11:04:30.000Z</time>
      </trkpt>
      <trkpt lat="46.06292" lon="-0.39624">
        <ele>35</ele>
        <time>2013-03-10T11:04:31.000Z</time>
      </trkpt>
      <trkpt lat="46.06288" lon="-0.39628">
        <ele>35.1</ele>
        <time>2013-03-10T11:04:32.000Z</time>
      </trkpt>
      <trkpt lat="46.06281" lon="-0.39636">
        <ele>35.1</ele>
        <time>2013-03-10T11:04:34.000Z</time>
      </trkpt>
      <trkpt lat="46.06277" lon="-0.3964">
        <ele>35</ele>
        <time>2013-03-10T11:04:35.000Z</time>
      </trkpt>
      <trkpt lat="46.06274" lon="-0.39644">
        <ele>34.9</ele>
        <time>2013-03-10T11:04:36.000Z</time>
      </trkpt>
      <trkpt lat="46.0627" lon="-0.39648">
        <ele>34.7</ele>
        <time>2013-03-10T11:04:37.000Z</time>
      </trkpt>
      <trkpt lat="46.06266" lon="-0.39653">
        <ele>34.7</ele>
        <time>2013-03-10T11:04:38.000Z</time>
      </trkpt>
      <trkpt lat="46.06262" lon="-0.39657">
        <ele>34.4</ele>
        <time>2013-03-10T11:04:39.000Z</time>
      </trkpt>
      <trkpt lat="46.06258" lon="-0.39661">
        <ele>34.2</ele>
        <time>2013-03-10T11:04:40.000Z</time>
      </trkpt>
      <trkpt lat="46.06253" lon="-0.39666">
        <ele>34</ele>
        <time>2013-03-10T11:04:41.000Z</time>
      </trkpt>
      <trkpt lat="46.0625" lon="-0.3967">
        <ele>33.9</ele>
        <time>2013-03-10T11:04:42.000Z</time>
      </trkpt>
      <trkpt lat="46.06246" lon="-0.39674">
        <ele>33.9</ele>
        <time>2013-03-10T11:04:43.000Z</time>
      </trkpt>
      <trkpt lat="46.06242" lon="-0.39678">
        <ele>33.9</ele>
        <time>2013-03-10T11:04:44.000Z</time>
      </trkpt>
      <trkpt lat="46.06238" lon="-0.39683">
        <ele>33.9</ele>
        <time>2013-03-10T11:04:45.000Z</time>
      </trkpt>
      <trkpt lat="46.06231" lon="-0.3969">
        <ele>34</ele>
        <time>2013-03-10T11:04:47.000Z</time>
      </trkpt>
      <trkpt lat="46.06227" lon="-0.39694">
        <ele>33.8</ele>
        <time>2013-03-10T11:04:48.000Z</time>
      </trkpt>
      <trkpt lat="46.06221" lon="-0.39702">
        <ele>33.5</ele>
        <time>2013-03-10T11:04:50.000Z</time>
      </trkpt>
      <trkpt lat="46.06217" lon="-0.39706">
        <ele>33.4</ele>
        <time>2013-03-10T11:04:51.000Z</time>
      </trkpt>
      <trkpt lat="46.06214" lon="-0.3971">
        <ele>33.3</ele>
        <time>2013-03-10T11:04:52.000Z</time>
      </trkpt>
      <trkpt lat="46.06207" lon="-0.39718">
        <ele>33.3</ele>
        <time>2013-03-10T11:04:54.000Z</time>
      </trkpt>
      <trkpt lat="46.062" lon="-0.39726">
        <ele>33.7</ele>
        <time>2013-03-10T11:04:56.000Z</time>
      </trkpt>
      <trkpt lat="46.06193" lon="-0.39733">
        <ele>33.9</ele>
        <time>2013-03-10T11:04:58.000Z</time>
      </trkpt>
      <trkpt lat="46.06189" lon="-0.39737">
        <ele>33.9</ele>
        <time>2013-03-10T11:04:59.000Z</time>
      </trkpt>
      <trkpt lat="46.06185" lon="-0.39741">
        <ele>34</ele>
        <time>2013-03-10T11:05:00.000Z</time>
      </trkpt>
      <trkpt lat="46.06179" lon="-0.39749">
        <ele>33.9</ele>
        <time>2013-03-10T11:05:02.000Z</time>
      </trkpt>
      <trkpt lat="46.06172" lon="-0.39757">
        <ele>33.6</ele>
        <time>2013-03-10T11:05:04.000Z</time>
      </trkpt>
      <trkpt lat="46.06166" lon="-0.39764">
        <ele>33.8</ele>
        <time>2013-03-10T11:05:06.000Z</time>
      </trkpt>
      <trkpt lat="46.06159" lon="-0.39771">
        <ele>33.9</ele>
        <time>2013-03-10T11:05:08.000Z</time>
      </trkpt>
      <trkpt lat="46.06152" lon="-0.39778">
        <ele>34.6</ele>
        <time>2013-03-10T11:05:10.000Z</time>
      </trkpt>
      <trkpt lat="46.06149" lon="-0.39782">
        <ele>34.9</ele>
        <time>2013-03-10T11:05:11.000Z</time>
      </trkpt>
      <trkpt lat="46.0614" lon="-0.3979">
        <ele>34.8</ele>
        <time>2013-03-10T11:05:14.000Z</time>
      </trkpt>
      <trkpt lat="46.06132" lon="-0.39796">
        <ele>33.1</ele>
        <time>2013-03-10T11:05:20.000Z</time>
      </trkpt>
      <trkpt lat="46.06125" lon="-0.39794">
        <ele>33</ele>
        <time>2013-03-10T11:05:28.000Z</time>
      </trkpt>
      <trkpt lat="46.06119" lon="-0.39787">
        <ele>33.3</ele>
        <time>2013-03-10T11:05:31.000Z</time>
      </trkpt>
      <trkpt lat="46.06114" lon="-0.39779">
        <ele>33</ele>
        <time>2013-03-10T11:05:33.000Z</time>
      </trkpt>
      <trkpt lat="46.06112" lon="-0.39774">
        <ele>32.8</ele>
        <time>2013-03-10T11:05:34.000Z</time>
      </trkpt>
      <trkpt lat="46.06109" lon="-0.39768">
        <ele>32.6</ele>
        <time>2013-03-10T11:05:35.000Z</time>
      </trkpt>
      <trkpt lat="46.06107" lon="-0.39761">
        <ele>32.9</ele>
        <time>2013-03-10T11:05:36.000Z</time>
      </trkpt>
      <trkpt lat="46.06104" lon="-0.39755">
        <ele>33.1</ele>
        <time>2013-03-10T11:05:37.000Z</time>
      </trkpt>
      <trkpt lat="46.06101" lon="-0.39748">
        <ele>32.9</ele>
        <time>2013-03-10T11:05:38.000Z</time>
      </trkpt>
      <trkpt lat="46.06097" lon="-0.39743">
        <ele>32.7</ele>
        <time>2013-03-10T11:05:39.000Z</time>
      </trkpt>
      <trkpt lat="46.06093" lon="-0.3974">
        <ele>32.3</ele>
        <time>2013-03-10T11:05:40.000Z</time>
      </trkpt>
      <trkpt lat="46.06088" lon="-0.39738">
        <ele>32</ele>
        <time>2013-03-10T11:05:41.000Z</time>
      </trkpt>
      <trkpt lat="46.06084" lon="-0.39735">
        <ele>31.8</ele>
        <time>2013-03-10T11:05:42.000Z</time>
      </trkpt>
      <trkpt lat="46.0608" lon="-0.3973">
        <ele>31.3</ele>
        <time>2013-03-10T11:05:43.000Z</time>
      </trkpt>
      <trkpt lat="46.06077" lon="-0.39725">
        <ele>31</ele>
        <time>2013-03-10T11:05:44.000Z</time>
      </trkpt>
      <trkpt lat="46.06074" lon="-0.3972">
        <ele>30.4</ele>
        <time>2013-03-10T11:05:45.000Z</time>
      </trkpt>
      <trkpt lat="46.06071" lon="-0.39715">
        <ele>29.9</ele>
        <time>2013-03-10T11:05:46.000Z</time>
      </trkpt>
      <trkpt lat="46.06065" lon="-0.39705">
        <ele>30.1</ele>
        <time>2013-03-10T11:05:48.000Z</time>
      </trkpt>
      <trkpt lat="46.06059" lon="-0.39696">
        <ele>30</ele>
        <time>2013-03-10T11:05:50.000Z</time>
      </trkpt>
      <trkpt lat="46.06051" lon="-0.39693">
        <ele>30</ele>
        <time>2013-03-10T11:05:52.000Z</time>
      </trkpt>
      <trkpt lat="46.06043" lon="-0.39697">
        <ele>30.1</ele>
        <time>2013-03-10T11:05:54.000Z</time>
      </trkpt>
      <trkpt lat="46.06039" lon="-0.397">
        <ele>30</ele>
        <time>2013-03-10T11:05:55.000Z</time>
      </trkpt>
      <trkpt lat="46.06035" lon="-0.39703">
        <ele>29.9</ele>
        <time>2013-03-10T11:05:56.000Z</time>
      </trkpt>
      <trkpt lat="46.06031" lon="-0.39707">
        <ele>30</ele>
        <time>2013-03-10T11:05:57.000Z</time>
      </trkpt>
      <trkpt lat="46.06027" lon="-0.39711">
        <ele>30.2</ele>
        <time>2013-03-10T11:05:58.000Z</time>
      </trkpt>
      <trkpt lat="46.06023" lon="-0.39716">
        <ele>30.3</ele>
        <time>2013-03-10T11:05:59.000Z</time>
      </trkpt>
      <trkpt lat="46.06019" lon="-0.3972">
        <ele>30.4</ele>
        <time>2013-03-10T11:06:00.000Z</time>
      </trkpt>
      <trkpt lat="46.06016" lon="-0.39725">
        <ele>30.4</ele>
        <time>2013-03-10T11:06:01.000Z</time>
      </trkpt>
      <trkpt lat="46.06012" lon="-0.39729">
        <ele>30.5</ele>
        <time>2013-03-10T11:06:02.000Z</time>
      </trkpt>
      <trkpt lat="46.06004" lon="-0.3973">
        <ele>30.4</ele>
        <time>2013-03-10T11:06:04.000Z</time>
      </trkpt>
      <trkpt lat="46.05996" lon="-0.39725">
        <ele>30.3</ele>
        <time>2013-03-10T11:06:06.000Z</time>
      </trkpt>
      <trkpt lat="46.05987" lon="-0.39725">
        <ele>30.5</ele>
        <time>2013-03-10T11:06:08.000Z</time>
      </trkpt>
      <trkpt lat="46.0598" lon="-0.39732">
        <ele>29.9</ele>
        <time>2013-03-10T11:06:10.000Z</time>
      </trkpt>
      <trkpt lat="46.05975" lon="-0.39741">
        <ele>29.5</ele>
        <time>2013-03-10T11:06:12.000Z</time>
      </trkpt>
      <trkpt lat="46.05972" lon="-0.39745">
        <ele>29.3</ele>
        <time>2013-03-10T11:06:13.000Z</time>
      </trkpt>
      <trkpt lat="46.05962" lon="-0.39758">
        <ele>29.6</ele>
        <time>2013-03-10T11:06:16.000Z</time>
      </trkpt>
      <trkpt lat="46.05955" lon="-0.39765">
        <ele>29.9</ele>
        <time>2013-03-10T11:06:18.000Z</time>
      </trkpt>
      <trkpt lat="46.05951" lon="-0.39769">
        <ele>30</ele>
        <time>2013-03-10T11:06:19.000Z</time>
      </trkpt>
      <trkpt lat="46.05948" lon="-0.39773">
        <ele>30.1</ele>
        <time>2013-03-10T11:06:20.000Z</time>
      </trkpt>
      <trkpt lat="46.05944" lon="-0.39776">
        <ele>30.1</ele>
        <time>2013-03-10T11:06:21.000Z</time>
      </trkpt>
      <trkpt lat="46.0594" lon="-0.3978">
        <ele>30.2</ele>
        <time>2013-03-10T11:06:22.000Z</time>
      </trkpt>
      <trkpt lat="46.05936" lon="-0.39783">
        <ele>29.9</ele>
        <time>2013-03-10T11:06:23.000Z</time>
      </trkpt>
      <trkpt lat="46.05932" lon="-0.39786">
        <ele>29.7</ele>
        <time>2013-03-10T11:06:24.000Z</time>
      </trkpt>
      <trkpt lat="46.05924" lon="-0.39793">
        <ele>30</ele>
        <time>2013-03-10T11:06:26.000Z</time>
      </trkpt>
      <trkpt lat="46.05919" lon="-0.39803">
        <ele>30.3</ele>
        <time>2013-03-10T11:06:29.000Z</time>
      </trkpt>
      <trkpt lat="46.05924" lon="-0.39813">
        <ele>29.9</ele>
        <time>2013-03-10T11:06:32.000Z</time>
      </trkpt>
      <trkpt lat="46.05928" lon="-0.39821">
        <ele>30</ele>
        <time>2013-03-10T11:06:34.000Z</time>
      </trkpt>
      <trkpt lat="46.05933" lon="-0.39829">
        <ele>29.8</ele>
        <time>2013-03-10T11:06:36.000Z</time>
      </trkpt>
      <trkpt lat="46.05938" lon="-0.39838">
        <ele>30</ele>
        <time>2013-03-10T11:06:38.000Z</time>
      </trkpt>
      <trkpt lat="46.05943" lon="-0.39846">
        <ele>30</ele>
        <time>2013-03-10T11:06:40.000Z</time>
      </trkpt>
      <trkpt lat="46.05948" lon="-0.39855">
        <ele>29.9</ele>
        <time>2013-03-10T11:06:42.000Z</time>
      </trkpt>
      <trkpt lat="46.05953" lon="-0.39864">
        <ele>29.8</ele>
        <time>2013-03-10T11:06:44.000Z</time>
      </trkpt>
      <trkpt lat="46.05959" lon="-0.39873">
        <ele>29.7</ele>
        <time>2013-03-10T11:06:46.000Z</time>
      </trkpt>
      <trkpt lat="46.05965" lon="-0.39881">
        <ele>29.4</ele>
        <time>2013-03-10T11:06:48.000Z</time>
      </trkpt>
      <trkpt lat="46.05971" lon="-0.3989">
        <ele>29.2</ele>
        <time>2013-03-10T11:06:50.000Z</time>
      </trkpt>
      <trkpt lat="46.05975" lon="-0.39899">
        <ele>29.2</ele>
        <time>2013-03-10T11:06:52.000Z</time>
      </trkpt>
      <trkpt lat="46.05973" lon="-0.3991">
        <ele>29.2</ele>
        <time>2013-03-10T11:06:54.000Z</time>
      </trkpt>
      <trkpt lat="46.05968" lon="-0.3992">
        <ele>29.4</ele>
        <time>2013-03-10T11:06:56.000Z</time>
      </trkpt>
      <trkpt lat="46.05962" lon="-0.39928">
        <ele>29.7</ele>
        <time>2013-03-10T11:06:58.000Z</time>
      </trkpt>
      <trkpt lat="46.05956" lon="-0.39936">
        <ele>30</ele>
        <time>2013-03-10T11:07:00.000Z</time>
      </trkpt>
      <trkpt lat="46.0595" lon="-0.39943">
        <ele>29.9</ele>
        <time>2013-03-10T11:07:02.000Z</time>
      </trkpt>
      <trkpt lat="46.05949" lon="-0.39953">
        <ele>30.1</ele>
        <time>2013-03-10T11:07:04.000Z</time>
      </trkpt>
      <trkpt lat="46.05952" lon="-0.39963">
        <ele>30</ele>
        <time>2013-03-10T11:07:07.000Z</time>
      </trkpt>
      <trkpt lat="46.05954" lon="-0.39974">
        <ele>31.5</ele>
        <time>2013-03-10T11:07:13.000Z</time>
      </trkpt>
      <trkpt lat="46.05954" lon="-0.39977">
        <ele>31.7</ele>
        <time>2013-03-10T11:07:14.000Z</time>
      </trkpt>
      <trkpt lat="46.0594" lon="-0.39986">
        <ele>33.9</ele>
        <time>2013-03-10T11:07:24.000Z</time>
      </trkpt>
      <trkpt lat="46.05934" lon="-0.39993">
        <ele>34.8</ele>
        <time>2013-03-10T11:07:28.000Z</time>
      </trkpt>
      <trkpt lat="46.05931" lon="-0.40004">
        <ele>35.8</ele>
        <time>2013-03-10T11:07:33.000Z</time>
      </trkpt>
      <trkpt lat="46.05925" lon="-0.40011">
        <ele>36.3</ele>
        <time>2013-03-10T11:07:37.000Z</time>
      </trkpt>
      <trkpt lat="46.05919" lon="-0.40018">
        <ele>37.1</ele>
        <time>2013-03-10T11:07:41.000Z</time>
      </trkpt>
      <trkpt lat="46.05912" lon="-0.40026">
        <ele>37.6</ele>
        <time>2013-03-10T11:07:46.000Z</time>
      </trkpt>
      <trkpt lat="46.05907" lon="-0.40035">
        <ele>38.1</ele>
        <time>2013-03-10T11:07:51.000Z</time>
      </trkpt>
      <trkpt lat="46.05904" lon="-0.40045">
        <ele>38.1</ele>
        <time>2013-03-10T11:07:56.000Z</time>
      </trkpt>
      <trkpt lat="46.05906" lon="-0.40056">
        <ele>38.4</ele>
        <time>2013-03-10T11:08:01.000Z</time>
      </trkpt>
      <trkpt lat="46.05908" lon="-0.40068">
        <ele>38.8</ele>
        <time>2013-03-10T11:08:07.000Z</time>
      </trkpt>
      <trkpt lat="46.0591" lon="-0.4008">
        <ele>39.6</ele>
        <time>2013-03-10T11:08:13.000Z</time>
      </trkpt>
      <trkpt lat="46.05911" lon="-0.40092">
        <ele>40.1</ele>
        <time>2013-03-10T11:08:18.000Z</time>
      </trkpt>
      <trkpt lat="46.05911" lon="-0.40094">
        <ele>40.1</ele>
        <time>2013-03-10T11:08:19.000Z</time>
      </trkpt>
      <trkpt lat="46.05914" lon="-0.40114">
        <ele>40.4</ele>
        <time>2013-03-10T11:08:28.000Z</time>
      </trkpt>
      <trkpt lat="46.05916" lon="-0.40125">
        <ele>40.5</ele>
        <time>2013-03-10T11:08:32.000Z</time>
      </trkpt>
      <trkpt lat="46.05917" lon="-0.40136">
        <ele>40.4</ele>
        <time>2013-03-10T11:08:36.000Z</time>
      </trkpt>
      <trkpt lat="46.05916" lon="-0.40148">
        <ele>40.8</ele>
        <time>2013-03-10T11:08:40.000Z</time>
      </trkpt>
      <trkpt lat="46.05917" lon="-0.40158">
        <ele>41.1</ele>
        <time>2013-03-10T11:08:43.000Z</time>
      </trkpt>
      <trkpt lat="46.05916" lon="-0.40171">
        <ele>40.8</ele>
        <time>2013-03-10T11:08:47.000Z</time>
      </trkpt>
      <trkpt lat="46.0591" lon="-0.40178">
        <ele>40.9</ele>
        <time>2013-03-10T11:08:50.000Z</time>
      </trkpt>
      <trkpt lat="46.05903" lon="-0.4018">
        <ele>41.3</ele>
        <time>2013-03-10T11:08:53.000Z</time>
      </trkpt>
      <trkpt lat="46.05896" lon="-0.40181">
        <ele>41.6</ele>
        <time>2013-03-10T11:08:56.000Z</time>
      </trkpt>
      <trkpt lat="46.05888" lon="-0.40182">
        <ele>41.1</ele>
        <time>2013-03-10T11:08:59.000Z</time>
      </trkpt>
      <trkpt lat="46.05881" lon="-0.40181">
        <ele>41.3</ele>
        <time>2013-03-10T11:09:02.000Z</time>
      </trkpt>
      <trkpt lat="46.05873" lon="-0.40184">
        <ele>41.2</ele>
        <time>2013-03-10T11:09:06.000Z</time>
      </trkpt>
      <trkpt lat="46.05865" lon="-0.40186">
        <ele>40.9</ele>
        <time>2013-03-10T11:09:10.000Z</time>
      </trkpt>
      <trkpt lat="46.05859" lon="-0.40189">
        <ele>40.9</ele>
        <time>2013-03-10T11:09:13.000Z</time>
      </trkpt>
      <trkpt lat="46.05853" lon="-0.40194">
        <ele>40.3</ele>
        <time>2013-03-10T11:09:16.000Z</time>
      </trkpt>
      <trkpt lat="46.05845" lon="-0.402">
        <ele>40.2</ele>
        <time>2013-03-10T11:09:20.000Z</time>
      </trkpt>
      <trkpt lat="46.05843" lon="-0.40201">
        <ele>40.2</ele>
        <time>2013-03-10T11:09:21.000Z</time>
      </trkpt>
      <trkpt lat="46.05831" lon="-0.40209">
        <ele>39.4</ele>
        <time>2013-03-10T11:09:26.000Z</time>
      </trkpt>
      <trkpt lat="46.05824" lon="-0.40211">
        <ele>39.7</ele>
        <time>2013-03-10T11:09:29.000Z</time>
      </trkpt>
      <trkpt lat="46.05819" lon="-0.40216">
        <ele>39.9</ele>
        <time>2013-03-10T11:09:31.000Z</time>
      </trkpt>
      <trkpt lat="46.05814" lon="-0.40221">
        <ele>39.7</ele>
        <time>2013-03-10T11:09:33.000Z</time>
      </trkpt>
      <trkpt lat="46.05809" lon="-0.40226">
        <ele>39.2</ele>
        <time>2013-03-10T11:09:35.000Z</time>
      </trkpt>
      <trkpt lat="46.05803" lon="-0.40231">
        <ele>38.9</ele>
        <time>2013-03-10T11:09:37.000Z</time>
      </trkpt>
      <trkpt lat="46.05797" lon="-0.40235">
        <ele>38.4</ele>
        <time>2013-03-10T11:09:39.000Z</time>
      </trkpt>
      <trkpt lat="46.0579" lon="-0.40239">
        <ele>38.6</ele>
        <time>2013-03-10T11:09:41.000Z</time>
      </trkpt>
      <trkpt lat="46.05783" lon="-0.40243">
        <ele>38.5</ele>
        <time>2013-03-10T11:09:43.000Z</time>
      </trkpt>
      <trkpt lat="46.05776" lon="-0.40248">
        <ele>38.2</ele>
        <time>2013-03-10T11:09:45.000Z</time>
      </trkpt>
      <trkpt lat="46.0577" lon="-0.40255">
        <ele>37.8</ele>
        <time>2013-03-10T11:09:47.000Z</time>
      </trkpt>
      <trkpt lat="46.05762" lon="-0.40259">
        <ele>37.4</ele>
        <time>2013-03-10T11:09:49.000Z</time>
      </trkpt>
      <trkpt lat="46.05755" lon="-0.40266">
        <ele>37.5</ele>
        <time>2013-03-10T11:09:51.000Z</time>
      </trkpt>
      <trkpt lat="46.05751" lon="-0.40269">
        <ele>37.4</ele>
        <time>2013-03-10T11:09:52.000Z</time>
      </trkpt>
      <trkpt lat="46.05747" lon="-0.40271">
        <ele>37.4</ele>
        <time>2013-03-10T11:09:53.000Z</time>
      </trkpt>
      <trkpt lat="46.05742" lon="-0.40273">
        <ele>37.4</ele>
        <time>2013-03-10T11:09:54.000Z</time>
      </trkpt>
      <trkpt lat="46.05738" lon="-0.40276">
        <ele>37.5</ele>
        <time>2013-03-10T11:09:55.000Z</time>
      </trkpt>
      <trkpt lat="46.05734" lon="-0.40279">
        <ele>37.5</ele>
        <time>2013-03-10T11:09:56.000Z</time>
      </trkpt>
      <trkpt lat="46.05729" lon="-0.40282">
        <ele>37.4</ele>
        <time>2013-03-10T11:09:57.000Z</time>
      </trkpt>
      <trkpt lat="46.05726" lon="-0.40287">
        <ele>37.3</ele>
        <time>2013-03-10T11:09:58.000Z</time>
      </trkpt>
      <trkpt lat="46.05724" lon="-0.40293">
        <ele>37.3</ele>
        <time>2013-03-10T11:09:59.000Z</time>
      </trkpt>
      <trkpt lat="46.05723" lon="-0.40306">
        <ele>37</ele>
        <time>2013-03-10T11:10:01.000Z</time>
      </trkpt>
      <trkpt lat="46.05719" lon="-0.40316">
        <ele>36.6</ele>
        <time>2013-03-10T11:10:03.000Z</time>
      </trkpt>
      <trkpt lat="46.05714" lon="-0.40323">
        <ele>36.6</ele>
        <time>2013-03-10T11:10:05.000Z</time>
      </trkpt>
      <trkpt lat="46.05707" lon="-0.40329">
        <ele>36.4</ele>
        <time>2013-03-10T11:10:07.000Z</time>
      </trkpt>
      <trkpt lat="46.05698" lon="-0.40335">
        <ele>36.2</ele>
        <time>2013-03-10T11:10:09.000Z</time>
      </trkpt>
      <trkpt lat="46.05694" lon="-0.40337">
        <ele>36.1</ele>
        <time>2013-03-10T11:10:10.000Z</time>
      </trkpt>
      <trkpt lat="46.05686" lon="-0.40343">
        <ele>35.9</ele>
        <time>2013-03-10T11:10:12.000Z</time>
      </trkpt>
      <trkpt lat="46.05679" lon="-0.40349">
        <ele>35.6</ele>
        <time>2013-03-10T11:10:14.000Z</time>
      </trkpt>
      <trkpt lat="46.05672" lon="-0.40355">
        <ele>35.4</ele>
        <time>2013-03-10T11:10:16.000Z</time>
      </trkpt>
      <trkpt lat="46.05665" lon="-0.40361">
        <ele>35.2</ele>
        <time>2013-03-10T11:10:18.000Z</time>
      </trkpt>
      <trkpt lat="46.05661" lon="-0.40369">
        <ele>34.9</ele>
        <time>2013-03-10T11:10:20.000Z</time>
      </trkpt>
      <trkpt lat="46.05658" lon="-0.40378">
        <ele>34.7</ele>
        <time>2013-03-10T11:10:22.000Z</time>
      </trkpt>
      <trkpt lat="46.05656" lon="-0.40382">
        <ele>34.8</ele>
        <time>2013-03-10T11:10:23.000Z</time>
      </trkpt>
      <trkpt lat="46.05648" lon="-0.40395">
        <ele>33.6</ele>
        <time>2013-03-10T11:10:27.000Z</time>
      </trkpt>
      <trkpt lat="46.05649" lon="-0.40408">
        <ele>32.7</ele>
        <time>2013-03-10T11:10:32.000Z</time>
      </trkpt>
      <trkpt lat="46.05653" lon="-0.40416">
        <ele>32.5</ele>
        <time>2013-03-10T11:10:35.000Z</time>
      </trkpt>
      <trkpt lat="46.05658" lon="-0.40427">
        <ele>32.6</ele>
        <time>2013-03-10T11:10:38.000Z</time>
      </trkpt>
      <trkpt lat="46.05661" lon="-0.40434">
        <ele>32.6</ele>
        <time>2013-03-10T11:10:40.000Z</time>
      </trkpt>
      <trkpt lat="46.05665" lon="-0.40442">
        <ele>32.5</ele>
        <time>2013-03-10T11:10:42.000Z</time>
      </trkpt>
      <trkpt lat="46.05669" lon="-0.4045">
        <ele>32.7</ele>
        <time>2013-03-10T11:10:44.000Z</time>
      </trkpt>
      <trkpt lat="46.05673" lon="-0.40458">
        <ele>33</ele>
        <time>2013-03-10T11:10:46.000Z</time>
      </trkpt>
      <trkpt lat="46.05677" lon="-0.40467">
        <ele>33.2</ele>
        <time>2013-03-10T11:10:48.000Z</time>
      </trkpt>
      <trkpt lat="46.05681" lon="-0.40475">
        <ele>33.1</ele>
        <time>2013-03-10T11:10:50.000Z</time>
      </trkpt>
      <trkpt lat="46.05685" lon="-0.40484">
        <ele>33.4</ele>
        <time>2013-03-10T11:10:52.000Z</time>
      </trkpt>
      <trkpt lat="46.05689" lon="-0.40493">
        <ele>33.3</ele>
        <time>2013-03-10T11:10:54.000Z</time>
      </trkpt>
      <trkpt lat="46.05692" lon="-0.40503">
        <ele>33.2</ele>
        <time>2013-03-10T11:10:56.000Z</time>
      </trkpt>
      <trkpt lat="46.05695" lon="-0.40513">
        <ele>33.1</ele>
        <time>2013-03-10T11:10:58.000Z</time>
      </trkpt>
      <trkpt lat="46.05698" lon="-0.40522">
        <ele>32.7</ele>
        <time>2013-03-10T11:11:00.000Z</time>
      </trkpt>
      <trkpt lat="46.05701" lon="-0.40531">
        <ele>33</ele>
        <time>2013-03-10T11:11:02.000Z</time>
      </trkpt>
      <trkpt lat="46.05704" lon="-0.40541">
        <ele>33</ele>
        <time>2013-03-10T11:11:04.000Z</time>
      </trkpt>
      <trkpt lat="46.05707" lon="-0.4055">
        <ele>33.3</ele>
        <time>2013-03-10T11:11:06.000Z</time>
      </trkpt>
      <trkpt lat="46.05711" lon="-0.40558">
        <ele>33.7</ele>
        <time>2013-03-10T11:11:08.000Z</time>
      </trkpt>
      <trkpt lat="46.05714" lon="-0.40565">
        <ele>34.2</ele>
        <time>2013-03-10T11:11:10.000Z</time>
      </trkpt>
      <trkpt lat="46.05718" lon="-0.40573">
        <ele>34.6</ele>
        <time>2013-03-10T11:11:12.000Z</time>
      </trkpt>
      <trkpt lat="46.05722" lon="-0.40581">
        <ele>34.4</ele>
        <time>2013-03-10T11:11:14.000Z</time>
      </trkpt>
      <trkpt lat="46.05726" lon="-0.40588">
        <ele>34.6</ele>
        <time>2013-03-10T11:11:16.000Z</time>
      </trkpt>
      <trkpt lat="46.05729" lon="-0.40596">
        <ele>34.7</ele>
        <time>2013-03-10T11:11:18.000Z</time>
      </trkpt>
      <trkpt lat="46.05733" lon="-0.40605">
        <ele>34.7</ele>
        <time>2013-03-10T11:11:20.000Z</time>
      </trkpt>
      <trkpt lat="46.05737" lon="-0.40613">
        <ele>35</ele>
        <time>2013-03-10T11:11:22.000Z</time>
      </trkpt>
      <trkpt lat="46.05741" lon="-0.40621">
        <ele>35.4</ele>
        <time>2013-03-10T11:11:24.000Z</time>
      </trkpt>
      <trkpt lat="46.05743" lon="-0.40624">
        <ele>35.6</ele>
        <time>2013-03-10T11:11:25.000Z</time>
      </trkpt>
      <trkpt lat="46.05748" lon="-0.40636">
        <ele>36.1</ele>
        <time>2013-03-10T11:11:28.000Z</time>
      </trkpt>
      <trkpt lat="46.05752" lon="-0.40644">
        <ele>35.6</ele>
        <time>2013-03-10T11:11:30.000Z</time>
      </trkpt>
      <trkpt lat="46.05755" lon="-0.40652">
        <ele>35.7</ele>
        <time>2013-03-10T11:11:32.000Z</time>
      </trkpt>
      <trkpt lat="46.05759" lon="-0.40659">
        <ele>36</ele>
        <time>2013-03-10T11:11:34.000Z</time>
      </trkpt>
      <trkpt lat="46.05763" lon="-0.40667">
        <ele>36.1</ele>
        <time>2013-03-10T11:11:36.000Z</time>
      </trkpt>
      <trkpt lat="46.05766" lon="-0.40674">
        <ele>36.1</ele>
        <time>2013-03-10T11:11:38.000Z</time>
      </trkpt>
      <trkpt lat="46.05769" lon="-0.40682">
        <ele>36.7</ele>
        <time>2013-03-10T11:11:40.000Z</time>
      </trkpt>
      <trkpt lat="46.05775" lon="-0.40692">
        <ele>37.9</ele>
        <time>2013-03-10T11:11:43.000Z</time>
      </trkpt>
      <trkpt lat="46.05783" lon="-0.4069">
        <ele>39.2</ele>
        <time>2013-03-10T11:11:48.000Z</time>
      </trkpt>
      <trkpt lat="46.0579" lon="-0.40686">
        <ele>39.4</ele>
        <time>2013-03-10T11:11:53.000Z</time>
      </trkpt>
      <trkpt lat="46.05798" lon="-0.40683">
        <ele>39.8</ele>
        <time>2013-03-10T11:11:58.000Z</time>
      </trkpt>
      <trkpt lat="46.05806" lon="-0.40679">
        <ele>40.3</ele>
        <time>2013-03-10T11:12:03.000Z</time>
      </trkpt>
      <trkpt lat="46.05813" lon="-0.40673">
        <ele>40.7</ele>
        <time>2013-03-10T11:12:07.000Z</time>
      </trkpt>
      <trkpt lat="46.05819" lon="-0.40666">
        <ele>41.5</ele>
        <time>2013-03-10T11:12:11.000Z</time>
      </trkpt>
      <trkpt lat="46.05825" lon="-0.40659">
        <ele>42.3</ele>
        <time>2013-03-10T11:12:15.000Z</time>
      </trkpt>
      <trkpt lat="46.05833" lon="-0.40653">
        <ele>42.1</ele>
        <time>2013-03-10T11:12:20.000Z</time>
      </trkpt>
      <trkpt lat="46.05841" lon="-0.40652">
        <ele>42.2</ele>
        <time>2013-03-10T11:12:25.000Z</time>
      </trkpt>
      <trkpt lat="46.05843" lon="-0.40651">
        <ele>42.4</ele>
        <time>2013-03-10T11:12:26.000Z</time>
      </trkpt>
      <trkpt lat="46.05855" lon="-0.40637">
        <ele>42.9</ele>
        <time>2013-03-10T11:12:33.000Z</time>
      </trkpt>
      <trkpt lat="46.05863" lon="-0.40633">
        <ele>42.8</ele>
        <time>2013-03-10T11:12:37.000Z</time>
      </trkpt>
      <trkpt lat="46.05871" lon="-0.40629">
        <ele>43.2</ele>
        <time>2013-03-10T11:12:41.000Z</time>
      </trkpt>
      <trkpt lat="46.05879" lon="-0.40624">
        <ele>43.8</ele>
        <time>2013-03-10T11:12:45.000Z</time>
      </trkpt>
      <trkpt lat="46.05885" lon="-0.40619">
        <ele>43.9</ele>
        <time>2013-03-10T11:12:48.000Z</time>
      </trkpt>
      <trkpt lat="46.05892" lon="-0.40616">
        <ele>43.4</ele>
        <time>2013-03-10T11:12:51.000Z</time>
      </trkpt>
      <trkpt lat="46.05898" lon="-0.40609">
        <ele>44.4</ele>
        <time>2013-03-10T11:12:54.000Z</time>
      </trkpt>
      <trkpt lat="46.05903" lon="-0.40601">
        <ele>44.8</ele>
        <time>2013-03-10T11:12:57.000Z</time>
      </trkpt>
      <trkpt lat="46.05903" lon="-0.40589">
        <ele>45</ele>
        <time>2013-03-10T11:13:01.000Z</time>
      </trkpt>
      <trkpt lat="46.05905" lon="-0.40577">
        <ele>44.9</ele>
        <time>2013-03-10T11:13:05.000Z</time>
      </trkpt>
      <trkpt lat="46.05906" lon="-0.40564">
        <ele>44.8</ele>
        <time>2013-03-10T11:13:09.000Z</time>
      </trkpt>
      <trkpt lat="46.05909" lon="-0.40554">
        <ele>44.7</ele>
        <time>2013-03-10T11:13:12.000Z</time>
      </trkpt>
      <trkpt lat="46.05914" lon="-0.40549">
        <ele>44.8</ele>
        <time>2013-03-10T11:13:15.000Z</time>
      </trkpt>
      <trkpt lat="46.05921" lon="-0.40542">
        <ele>45.1</ele>
        <time>2013-03-10T11:13:18.000Z</time>
      </trkpt>
      <trkpt lat="46.05926" lon="-0.40534">
        <ele>45.4</ele>
        <time>2013-03-10T11:13:21.000Z</time>
      </trkpt>
      <trkpt lat="46.05934" lon="-0.40532">
        <ele>45.5</ele>
        <time>2013-03-10T11:13:25.000Z</time>
      </trkpt>
      <trkpt lat="46.05942" lon="-0.40538">
        <ele>45.6</ele>
        <time>2013-03-10T11:13:29.000Z</time>
      </trkpt>
      <trkpt lat="46.05944" lon="-0.40539">
        <ele>45.9</ele>
        <time>2013-03-10T11:13:30.000Z</time>
      </trkpt>
      <trkpt lat="46.05957" lon="-0.40527">
        <ele>46.6</ele>
        <time>2013-03-10T11:13:37.000Z</time>
      </trkpt>
      <trkpt lat="46.05961" lon="-0.40518">
        <ele>46.4</ele>
        <time>2013-03-10T11:13:40.000Z</time>
      </trkpt>
      <trkpt lat="46.05966" lon="-0.40509">
        <ele>46.3</ele>
        <time>2013-03-10T11:13:43.000Z</time>
      </trkpt>
      <trkpt lat="46.05972" lon="-0.40502">
        <ele>47</ele>
        <time>2013-03-10T11:13:46.000Z</time>
      </trkpt>
      <trkpt lat="46.05979" lon="-0.40495">
        <ele>46.8</ele>
        <time>2013-03-10T11:13:50.000Z</time>
      </trkpt>
      <trkpt lat="46.05984" lon="-0.40486">
        <ele>47.3</ele>
        <time>2013-03-10T11:13:56.000Z</time>
      </trkpt>
      <trkpt lat="46.05985" lon="-0.40474">
        <ele>46.9</ele>
        <time>2013-03-10T11:14:02.000Z</time>
      </trkpt>
      <trkpt lat="46.05985" lon="-0.40464">
        <ele>46.8</ele>
        <time>2013-03-10T11:14:07.000Z</time>
      </trkpt>
      <trkpt lat="46.05984" lon="-0.40451">
        <ele>46.6</ele>
        <time>2013-03-10T11:14:11.000Z</time>
      </trkpt>
      <trkpt lat="46.05983" lon="-0.4044">
        <ele>46.8</ele>
        <time>2013-03-10T11:14:14.000Z</time>
      </trkpt>
      <trkpt lat="46.05982" lon="-0.40429">
        <ele>46.5</ele>
        <time>2013-03-10T11:14:17.000Z</time>
      </trkpt>
      <trkpt lat="46.0598" lon="-0.40418">
        <ele>47.1</ele>
        <time>2013-03-10T11:14:20.000Z</time>
      </trkpt>
      <trkpt lat="46.05976" lon="-0.40406">
        <ele>47.1</ele>
        <time>2013-03-10T11:14:23.000Z</time>
      </trkpt>
      <trkpt lat="46.05973" lon="-0.40398">
        <ele>47</ele>
        <time>2013-03-10T11:14:25.000Z</time>
      </trkpt>
      <trkpt lat="46.05971" lon="-0.40389">
        <ele>46.7</ele>
        <time>2013-03-10T11:14:27.000Z</time>
      </trkpt>
      <trkpt lat="46.05968" lon="-0.4038">
        <ele>46.4</ele>
        <time>2013-03-10T11:14:29.000Z</time>
      </trkpt>
      <trkpt lat="46.05967" lon="-0.40371">
        <ele>46.4</ele>
        <time>2013-03-10T11:14:31.000Z</time>
      </trkpt>
      <trkpt lat="46.05965" lon="-0.40366">
        <ele>46.2</ele>
        <time>2013-03-10T11:14:32.000Z</time>
      </trkpt>
      <trkpt lat="46.05962" lon="-0.40352">
        <ele>46.2</ele>
        <time>2013-03-10T11:14:35.000Z</time>
      </trkpt>
      <trkpt lat="46.0596" lon="-0.40342">
        <ele>46.3</ele>
        <time>2013-03-10T11:14:37.000Z</time>
      </trkpt>
      <trkpt lat="46.05957" lon="-0.40333">
        <ele>46.3</ele>
        <time>2013-03-10T11:14:39.000Z</time>
      </trkpt>
      <trkpt lat="46.05956" lon="-0.40322">
        <ele>46.3</ele>
        <time>2013-03-10T11:14:42.000Z</time>
      </trkpt>
      <trkpt lat="46.05959" lon="-0.4031">
        <ele>45.6</ele>
        <time>2013-03-10T11:14:53.000Z</time>
      </trkpt>
      <trkpt lat="46.0596" lon="-0.403">
        <ele>45.8</ele>
        <time>2013-03-10T11:15:00.000Z</time>
      </trkpt>
      <trkpt lat="46.0596" lon="-0.40288">
        <ele>45.3</ele>
        <time>2013-03-10T11:15:04.000Z</time>
      </trkpt>
      <trkpt lat="46.05956" lon="-0.40278">
        <ele>45</ele>
        <time>2013-03-10T11:15:08.000Z</time>
      </trkpt>
      <trkpt lat="46.05952" lon="-0.40269">
        <ele>45.1</ele>
        <time>2013-03-10T11:15:12.000Z</time>
      </trkpt>
      <trkpt lat="46.0595" lon="-0.40259">
        <ele>44.6</ele>
        <time>2013-03-10T11:15:15.000Z</time>
      </trkpt>
      <trkpt lat="46.05949" lon="-0.40248">
        <ele>44.6</ele>
        <time>2013-03-10T11:15:17.000Z</time>
      </trkpt>
      <trkpt lat="46.05947" lon="-0.40236">
        <ele>44.6</ele>
        <time>2013-03-10T11:15:19.000Z</time>
      </trkpt>
      <trkpt lat="46.05946" lon="-0.4023">
        <ele>44.5</ele>
        <time>2013-03-10T11:15:20.000Z</time>
      </trkpt>
      <trkpt lat="46.05944" lon="-0.40218">
        <ele>44.4</ele>
        <time>2013-03-10T11:15:22.000Z</time>
      </trkpt>
      <trkpt lat="46.05937" lon="-0.40214">
        <ele>44.2</ele>
        <time>2013-03-10T11:15:26.000Z</time>
      </trkpt>
      <trkpt lat="46.05936" lon="-0.40202">
        <ele>43.1</ele>
        <time>2013-03-10T11:15:31.000Z</time>
      </trkpt>
      <trkpt lat="46.05933" lon="-0.40194">
        <ele>43.2</ele>
        <time>2013-03-10T11:15:33.000Z</time>
      </trkpt>
      <trkpt lat="46.0593" lon="-0.40191">
        <ele>43.2</ele>
        <time>2013-03-10T11:15:34.000Z</time>
      </trkpt>
      <trkpt lat="46.05927" lon="-0.40172">
        <ele>42.5</ele>
        <time>2013-03-10T11:15:39.000Z</time>
      </trkpt>
      <trkpt lat="46.05926" lon="-0.40163">
        <ele>42</ele>
        <time>2013-03-10T11:15:41.000Z</time>
      </trkpt>
      <trkpt lat="46.05928" lon="-0.40155">
        <ele>41.7</ele>
        <time>2013-03-10T11:15:43.000Z</time>
      </trkpt>
      <trkpt lat="46.05932" lon="-0.40143">
        <ele>41.5</ele>
        <time>2013-03-10T11:15:46.000Z</time>
      </trkpt>
      <trkpt lat="46.05931" lon="-0.40134">
        <ele>41.3</ele>
        <time>2013-03-10T11:15:48.000Z</time>
      </trkpt>
      <trkpt lat="46.0593" lon="-0.40123">
        <ele>41.1</ele>
        <time>2013-03-10T11:15:50.000Z</time>
      </trkpt>
      <trkpt lat="46.05931" lon="-0.40112">
        <ele>41</ele>
        <time>2013-03-10T11:15:52.000Z</time>
      </trkpt>
      <trkpt lat="46.05934" lon="-0.40101">
        <ele>41.1</ele>
        <time>2013-03-10T11:15:54.000Z</time>
      </trkpt>
      <trkpt lat="46.05937" lon="-0.40091">
        <ele>40.5</ele>
        <time>2013-03-10T11:15:56.000Z</time>
      </trkpt>
      <trkpt lat="46.05942" lon="-0.40084">
        <ele>40.3</ele>
        <time>2013-03-10T11:16:00.000Z</time>
      </trkpt>
      <trkpt lat="46.05944" lon="-0.40072">
        <ele>40</ele>
        <time>2013-03-10T11:16:03.000Z</time>
      </trkpt>
      <trkpt lat="46.05943" lon="-0.4006">
        <ele>38.8</ele>
        <time>2013-03-10T11:16:06.000Z</time>
      </trkpt>
      <trkpt lat="46.05947" lon="-0.4005">
        <ele>37.7</ele>
        <time>2013-03-10T11:16:09.000Z</time>
      </trkpt>
      <trkpt lat="46.05955" lon="-0.40051">
        <ele>37.1</ele>
        <time>2013-03-10T11:16:14.000Z</time>
      </trkpt>
      <trkpt lat="46.05961" lon="-0.40047">
        <ele>37.5</ele>
        <time>2013-03-10T11:16:17.000Z</time>
      </trkpt>
      <trkpt lat="46.05968" lon="-0.40048">
        <ele>38.7</ele>
        <time>2013-03-10T11:16:20.000Z</time>
      </trkpt>
      <trkpt lat="46.05975" lon="-0.40043">
        <ele>39</ele>
        <time>2013-03-10T11:16:23.000Z</time>
      </trkpt>
      <trkpt lat="46.05978" lon="-0.40036">
        <ele>39.2</ele>
        <time>2013-03-10T11:16:25.000Z</time>
      </trkpt>
      <trkpt lat="46.05982" lon="-0.40029">
        <ele>38.9</ele>
        <time>2013-03-10T11:16:27.000Z</time>
      </trkpt>
      <trkpt lat="46.05988" lon="-0.4002">
        <ele>38.7</ele>
        <time>2013-03-10T11:16:30.000Z</time>
      </trkpt>
      <trkpt lat="46.05994" lon="-0.40012">
        <ele>39.2</ele>
        <time>2013-03-10T11:16:33.000Z</time>
      </trkpt>
      <trkpt lat="46.06" lon="-0.40005">
        <ele>39</ele>
        <time>2013-03-10T11:16:36.000Z</time>
      </trkpt>
      <trkpt lat="46.06002" lon="-0.40002">
        <ele>39</ele>
        <time>2013-03-10T11:16:37.000Z</time>
      </trkpt>
      <trkpt lat="46.06014" lon="-0.39992">
        <ele>39.2</ele>
        <time>2013-03-10T11:16:42.000Z</time>
      </trkpt>
      <trkpt lat="46.06014" lon="-0.39992">
        <ele>39.2</ele>
        <time>2013-03-10T11:16:42.000Z</time>
      </trkpt>
      <trkpt lat="46.06022" lon="-0.39991">
        <ele>39.3</ele>
        <time>2013-03-10T11:16:45.000Z</time>
      </trkpt>
      <trkpt lat="46.06029" lon="-0.39991">
        <ele>39.3</ele>
        <time>2013-03-10T11:16:48.000Z</time>
      </trkpt>
      <trkpt lat="46.06035" lon="-0.39987">
        <ele>39.3</ele>
        <time>2013-03-10T11:16:50.000Z</time>
      </trkpt>
      <trkpt lat="46.06041" lon="-0.39982">
        <ele>39.3</ele>
        <time>2013-03-10T11:16:52.000Z</time>
      </trkpt>
      <trkpt lat="46.06047" lon="-0.39976">
        <ele>39.1</ele>
        <time>2013-03-10T11:16:54.000Z</time>
      </trkpt>
      <trkpt lat="46.06054" lon="-0.3997">
        <ele>39</ele>
        <time>2013-03-10T11:16:56.000Z</time>
      </trkpt>
      <trkpt lat="46.06061" lon="-0.39964">
        <ele>39.2</ele>
        <time>2013-03-10T11:16:58.000Z</time>
      </trkpt>
      <trkpt lat="46.06068" lon="-0.39958">
        <ele>39.2</ele>
        <time>2013-03-10T11:17:00.000Z</time>
      </trkpt>
      <trkpt lat="46.06075" lon="-0.39951">
        <ele>39.2</ele>
        <time>2013-03-10T11:17:02.000Z</time>
      </trkpt>
      <trkpt lat="46.06082" lon="-0.39946">
        <ele>38.9</ele>
        <time>2013-03-10T11:17:04.000Z</time>
      </trkpt>
      <trkpt lat="46.06089" lon="-0.3994">
        <ele>38.7</ele>
        <time>2013-03-10T11:17:06.000Z</time>
      </trkpt>
      <trkpt lat="46.06095" lon="-0.39935">
        <ele>38.6</ele>
        <time>2013-03-10T11:17:08.000Z</time>
      </trkpt>
      <trkpt lat="46.06101" lon="-0.3993">
        <ele>38.3</ele>
        <time>2013-03-10T11:17:10.000Z</time>
      </trkpt>
      <trkpt lat="46.06108" lon="-0.39924">
        <ele>38.5</ele>
        <time>2013-03-10T11:17:12.000Z</time>
      </trkpt>
      <trkpt lat="46.06115" lon="-0.39919">
        <ele>38.9</ele>
        <time>2013-03-10T11:17:14.000Z</time>
      </trkpt>
      <trkpt lat="46.06122" lon="-0.39913">
        <ele>39</ele>
        <time>2013-03-10T11:17:16.000Z</time>
      </trkpt>
      <trkpt lat="46.06128" lon="-0.39908">
        <ele>38.4</ele>
        <time>2013-03-10T11:17:18.000Z</time>
      </trkpt>
      <trkpt lat="46.06135" lon="-0.39905">
        <ele>37.9</ele>
        <time>2013-03-10T11:17:21.000Z</time>
      </trkpt>
      <trkpt lat="46.0614" lon="-0.3991">
        <ele>38.1</ele>
        <time>2013-03-10T11:17:23.000Z</time>
      </trkpt>
      <trkpt lat="46.06145" lon="-0.39917">
        <ele>38.5</ele>
        <time>2013-03-10T11:17:25.000Z</time>
      </trkpt>
      <trkpt lat="46.06151" lon="-0.39924">
        <ele>39.1</ele>
        <time>2013-03-10T11:17:27.000Z</time>
      </trkpt>
      <trkpt lat="46.06158" lon="-0.39931">
        <ele>38.9</ele>
        <time>2013-03-10T11:17:29.000Z</time>
      </trkpt>
      <trkpt lat="46.06164" lon="-0.39939">
        <ele>39.5</ele>
        <time>2013-03-10T11:17:31.000Z</time>
      </trkpt>
      <trkpt lat="46.06169" lon="-0.39947">
        <ele>40</ele>
        <time>2013-03-10T11:17:33.000Z</time>
      </trkpt>
      <trkpt lat="46.06174" lon="-0.39955">
        <ele>40.5</ele>
        <time>2013-03-10T11:17:35.000Z</time>
      </trkpt>
      <trkpt lat="46.06178" lon="-0.39964">
        <ele>41</ele>
        <time>2013-03-10T11:17:37.000Z</time>
      </trkpt>
      <trkpt lat="46.06181" lon="-0.39968">
        <ele>41.1</ele>
        <time>2013-03-10T11:17:38.000Z</time>
      </trkpt>
      <trkpt lat="46.06187" lon="-0.39981">
        <ele>42.2</ele>
        <time>2013-03-10T11:17:41.000Z</time>
      </trkpt>
      <trkpt lat="46.0619" lon="-0.39989">
        <ele>42.7</ele>
        <time>2013-03-10T11:17:43.000Z</time>
      </trkpt>
      <trkpt lat="46.06194" lon="-0.39998">
        <ele>43.3</ele>
        <time>2013-03-10T11:17:45.000Z</time>
      </trkpt>
      <trkpt lat="46.06197" lon="-0.40007">
        <ele>43.5</ele>
        <time>2013-03-10T11:17:47.000Z</time>
      </trkpt>
      <trkpt lat="46.062" lon="-0.40016">
        <ele>43.8</ele>
        <time>2013-03-10T11:17:49.000Z</time>
      </trkpt>
      <trkpt lat="46.06203" lon="-0.40025">
        <ele>44.3</ele>
        <time>2013-03-10T11:17:51.000Z</time>
      </trkpt>
      <trkpt lat="46.06206" lon="-0.40034">
        <ele>44.6</ele>
        <time>2013-03-10T11:17:53.000Z</time>
      </trkpt>
      <trkpt lat="46.0621" lon="-0.40042">
        <ele>44.7</ele>
        <time>2013-03-10T11:17:55.000Z</time>
      </trkpt>
      <trkpt lat="46.06214" lon="-0.4005">
        <ele>44.8</ele>
        <time>2013-03-10T11:17:57.000Z</time>
      </trkpt>
      <trkpt lat="46.06217" lon="-0.40059">
        <ele>45.5</ele>
        <time>2013-03-10T11:17:59.000Z</time>
      </trkpt>
      <trkpt lat="46.06221" lon="-0.40067">
        <ele>45.5</ele>
        <time>2013-03-10T11:18:01.000Z</time>
      </trkpt>
      <trkpt lat="46.06224" lon="-0.40075">
        <ele>45.7</ele>
        <time>2013-03-10T11:18:03.000Z</time>
      </trkpt>
      <trkpt lat="46.06229" lon="-0.40083">
        <ele>46.1</ele>
        <time>2013-03-10T11:18:05.000Z</time>
      </trkpt>
      <trkpt lat="46.06233" lon="-0.40092">
        <ele>46.6</ele>
        <time>2013-03-10T11:18:07.000Z</time>
      </trkpt>
      <trkpt lat="46.06236" lon="-0.401">
        <ele>46.9</ele>
        <time>2013-03-10T11:18:09.000Z</time>
      </trkpt>
      <trkpt lat="46.06239" lon="-0.40108">
        <ele>47.1</ele>
        <time>2013-03-10T11:18:11.000Z</time>
      </trkpt>
      <trkpt lat="46.06243" lon="-0.40116">
        <ele>47.3</ele>
        <time>2013-03-10T11:18:13.000Z</time>
      </trkpt>
      <trkpt lat="46.06247" lon="-0.40125">
        <ele>47.9</ele>
        <time>2013-03-10T11:18:15.000Z</time>
      </trkpt>
      <trkpt lat="46.06251" lon="-0.40134">
        <ele>48.4</ele>
        <time>2013-03-10T11:18:17.000Z</time>
      </trkpt>
      <trkpt lat="46.06256" lon="-0.40142">
        <ele>48</ele>
        <time>2013-03-10T11:18:19.000Z</time>
      </trkpt>
      <trkpt lat="46.06261" lon="-0.40151">
        <ele>48</ele>
        <time>2013-03-10T11:18:21.000Z</time>
      </trkpt>
      <trkpt lat="46.06266" lon="-0.40159">
        <ele>48.1</ele>
        <time>2013-03-10T11:18:23.000Z</time>
      </trkpt>
      <trkpt lat="46.06272" lon="-0.40168">
        <ele>48.4</ele>
        <time>2013-03-10T11:18:25.000Z</time>
      </trkpt>
      <trkpt lat="46.06278" lon="-0.40176">
        <ele>48.3</ele>
        <time>2013-03-10T11:18:27.000Z</time>
      </trkpt>
      <trkpt lat="46.06284" lon="-0.40184">
        <ele>48</ele>
        <time>2013-03-10T11:18:29.000Z</time>
      </trkpt>
      <trkpt lat="46.06289" lon="-0.40191">
        <ele>47.9</ele>
        <time>2013-03-10T11:18:31.000Z</time>
      </trkpt>
      <trkpt lat="46.06295" lon="-0.40199">
        <ele>48.2</ele>
        <time>2013-03-10T11:18:33.000Z</time>
      </trkpt>
      <trkpt lat="46.063" lon="-0.40208">
        <ele>48.7</ele>
        <time>2013-03-10T11:18:35.000Z</time>
      </trkpt>
      <trkpt lat="46.06306" lon="-0.40216">
        <ele>48.7</ele>
        <time>2013-03-10T11:18:37.000Z</time>
      </trkpt>
      <trkpt lat="46.06311" lon="-0.40224">
        <ele>48.6</ele>
        <time>2013-03-10T11:18:39.000Z</time>
      </trkpt>
      <trkpt lat="46.06314" lon="-0.40228">
        <ele>48.6</ele>
        <time>2013-03-10T11:18:40.000Z</time>
      </trkpt>
      <trkpt lat="46.06322" lon="-0.40239">
        <ele>49.3</ele>
        <time>2013-03-10T11:18:43.000Z</time>
      </trkpt>
      <trkpt lat="46.06327" lon="-0.40247">
        <ele>49.7</ele>
        <time>2013-03-10T11:18:45.000Z</time>
      </trkpt>
      <trkpt lat="46.06332" lon="-0.40254">
        <ele>49.4</ele>
        <time>2013-03-10T11:18:47.000Z</time>
      </trkpt>
      <trkpt lat="46.06337" lon="-0.40262">
        <ele>50.7</ele>
        <time>2013-03-10T11:18:49.000Z</time>
      </trkpt>
      <trkpt lat="46.06342" lon="-0.4027">
        <ele>51.2</ele>
        <time>2013-03-10T11:18:51.000Z</time>
      </trkpt>
      <trkpt lat="46.06348" lon="-0.40278">
        <ele>51.1</ele>
        <time>2013-03-10T11:18:53.000Z</time>
      </trkpt>
      <trkpt lat="46.06353" lon="-0.40286">
        <ele>51.2</ele>
        <time>2013-03-10T11:18:55.000Z</time>
      </trkpt>
      <trkpt lat="46.06358" lon="-0.40294">
        <ele>51.6</ele>
        <time>2013-03-10T11:18:57.000Z</time>
      </trkpt>
      <trkpt lat="46.06364" lon="-0.40302">
        <ele>51.6</ele>
        <time>2013-03-10T11:18:59.000Z</time>
      </trkpt>
      <trkpt lat="46.06369" lon="-0.4031">
        <ele>52.1</ele>
        <time>2013-03-10T11:19:01.000Z</time>
      </trkpt>
      <trkpt lat="46.06374" lon="-0.40319">
        <ele>52</ele>
        <time>2013-03-10T11:19:03.000Z</time>
      </trkpt>
      <trkpt lat="46.0638" lon="-0.40327">
        <ele>51.8</ele>
        <time>2013-03-10T11:19:05.000Z</time>
      </trkpt>
      <trkpt lat="46.06385" lon="-0.40334">
        <ele>52</ele>
        <time>2013-03-10T11:19:07.000Z</time>
      </trkpt>
      <trkpt lat="46.0639" lon="-0.40342">
        <ele>52.4</ele>
        <time>2013-03-10T11:19:09.000Z</time>
      </trkpt>
      <trkpt lat="46.06396" lon="-0.40349">
        <ele>53.1</ele>
        <time>2013-03-10T11:19:11.000Z</time>
      </trkpt>
      <trkpt lat="46.06402" lon="-0.40359">
        <ele>53.1</ele>
        <time>2013-03-10T11:19:13.000Z</time>
      </trkpt>
      <trkpt lat="46.06407" lon="-0.40369">
        <ele>52.7</ele>
        <time>2013-03-10T11:19:15.000Z</time>
      </trkpt>
      <trkpt lat="46.06413" lon="-0.40379">
        <ele>52.8</ele>
        <time>2013-03-10T11:19:17.000Z</time>
      </trkpt>
      <trkpt lat="46.06419" lon="-0.40388">
        <ele>53</ele>
        <time>2013-03-10T11:19:19.000Z</time>
      </trkpt>
      <trkpt lat="46.06422" lon="-0.40393">
        <ele>53.1</ele>
        <time>2013-03-10T11:19:20.000Z</time>
      </trkpt>
      <trkpt lat="46.06425" lon="-0.40398">
        <ele>53.1</ele>
        <time>2013-03-10T11:19:21.000Z</time>
      </trkpt>
      <trkpt lat="46.06429" lon="-0.40403">
        <ele>53.5</ele>
        <time>2013-03-10T11:19:22.000Z</time>
      </trkpt>
      <trkpt lat="46.06432" lon="-0.40409">
        <ele>53.8</ele>
        <time>2013-03-10T11:19:23.000Z</time>
      </trkpt>
      <trkpt lat="46.06435" lon="-0.40415">
        <ele>53.8</ele>
        <time>2013-03-10T11:19:24.000Z</time>
      </trkpt>
      <trkpt lat="46.06438" lon="-0.4042">
        <ele>53.9</ele>
        <time>2013-03-10T11:19:25.000Z</time>
      </trkpt>
      <trkpt lat="46.06442" lon="-0.40426">
        <ele>54.2</ele>
        <time>2013-03-10T11:19:26.000Z</time>
      </trkpt>
      <trkpt lat="46.06444" lon="-0.40432">
        <ele>54.4</ele>
        <time>2013-03-10T11:19:27.000Z</time>
      </trkpt>
      <trkpt lat="46.06447" lon="-0.40438">
        <ele>54.6</ele>
        <time>2013-03-10T11:19:28.000Z</time>
      </trkpt>
      <trkpt lat="46.06448" lon="-0.40444">
        <ele>54.8</ele>
        <time>2013-03-10T11:19:29.000Z</time>
      </trkpt>
      <trkpt lat="46.0645" lon="-0.4045">
        <ele>54.9</ele>
        <time>2013-03-10T11:19:30.000Z</time>
      </trkpt>
      <trkpt lat="46.06452" lon="-0.40456">
        <ele>55</ele>
        <time>2013-03-10T11:19:31.000Z</time>
      </trkpt>
      <trkpt lat="46.06454" lon="-0.40463">
        <ele>55.2</ele>
        <time>2013-03-10T11:19:32.000Z</time>
      </trkpt>
      <trkpt lat="46.06457" lon="-0.40469">
        <ele>55.2</ele>
        <time>2013-03-10T11:19:33.000Z</time>
      </trkpt>
      <trkpt lat="46.06459" lon="-0.40476">
        <ele>55.1</ele>
        <time>2013-03-10T11:19:34.000Z</time>
      </trkpt>
      <trkpt lat="46.06462" lon="-0.40482">
        <ele>55.1</ele>
        <time>2013-03-10T11:19:35.000Z</time>
      </trkpt>
      <trkpt lat="46.06465" lon="-0.40489">
        <ele>55.2</ele>
        <time>2013-03-10T11:19:36.000Z</time>
      </trkpt>
      <trkpt lat="46.06467" lon="-0.40495">
        <ele>55.3</ele>
        <time>2013-03-10T11:19:37.000Z</time>
      </trkpt>
      <trkpt lat="46.0647" lon="-0.40502">
        <ele>55.4</ele>
        <time>2013-03-10T11:19:38.000Z</time>
      </trkpt>
      <trkpt lat="46.06472" lon="-0.40508">
        <ele>55.5</ele>
        <time>2013-03-10T11:19:39.000Z</time>
      </trkpt>
      <trkpt lat="46.06475" lon="-0.40515">
        <ele>55.5</ele>
        <time>2013-03-10T11:19:40.000Z</time>
      </trkpt>
      <trkpt lat="46.06477" lon="-0.40521">
        <ele>55.8</ele>
        <time>2013-03-10T11:19:41.000Z</time>
      </trkpt>
      <trkpt lat="46.06479" lon="-0.40527">
        <ele>56</ele>
        <time>2013-03-10T11:19:42.000Z</time>
      </trkpt>
      <trkpt lat="46.06481" lon="-0.40534">
        <ele>56.3</ele>
        <time>2013-03-10T11:19:43.000Z</time>
      </trkpt>
      <trkpt lat="46.06484" lon="-0.4054">
        <ele>56.5</ele>
        <time>2013-03-10T11:19:44.000Z</time>
      </trkpt>
      <trkpt lat="46.06486" lon="-0.40547">
        <ele>56.8</ele>
        <time>2013-03-10T11:19:45.000Z</time>
      </trkpt>
      <trkpt lat="46.06489" lon="-0.40553">
        <ele>57.1</ele>
        <time>2013-03-10T11:19:46.000Z</time>
      </trkpt>
      <trkpt lat="46.06491" lon="-0.40559">
        <ele>57.3</ele>
        <time>2013-03-10T11:19:47.000Z</time>
      </trkpt>
      <trkpt lat="46.06494" lon="-0.40566">
        <ele>57.3</ele>
        <time>2013-03-10T11:19:48.000Z</time>
      </trkpt>
      <trkpt lat="46.06496" lon="-0.40572">
        <ele>57.3</ele>
        <time>2013-03-10T11:19:49.000Z</time>
      </trkpt>
      <trkpt lat="46.06498" lon="-0.40579">
        <ele>57.6</ele>
        <time>2013-03-10T11:19:50.000Z</time>
      </trkpt>
      <trkpt lat="46.06501" lon="-0.40585">
        <ele>57.8</ele>
        <time>2013-03-10T11:19:51.000Z</time>
      </trkpt>
      <trkpt lat="46.06503" lon="-0.40591">
        <ele>57.9</ele>
        <time>2013-03-10T11:19:52.000Z</time>
      </trkpt>
      <trkpt lat="46.06505" lon="-0.40597">
        <ele>57.9</ele>
        <time>2013-03-10T11:19:53.000Z</time>
      </trkpt>
      <trkpt lat="46.06508" lon="-0.40603">
        <ele>58</ele>
        <time>2013-03-10T11:19:54.000Z</time>
      </trkpt>
      <trkpt lat="46.0651" lon="-0.40609">
        <ele>58.1</ele>
        <time>2013-03-10T11:19:55.000Z</time>
      </trkpt>
      <trkpt lat="46.06512" lon="-0.40615">
        <ele>58.2</ele>
        <time>2013-03-10T11:19:56.000Z</time>
      </trkpt>
      <trkpt lat="46.06514" lon="-0.40621">
        <ele>58</ele>
        <time>2013-03-10T11:19:57.000Z</time>
      </trkpt>
      <trkpt lat="46.06517" lon="-0.40627">
        <ele>57.9</ele>
        <time>2013-03-10T11:19:58.000Z</time>
      </trkpt>
      <trkpt lat="46.06519" lon="-0.40633">
        <ele>57.8</ele>
        <time>2013-03-10T11:19:59.000Z</time>
      </trkpt>
      <trkpt lat="46.06522" lon="-0.40639">
        <ele>58.3</ele>
        <time>2013-03-10T11:20:00.000Z</time>
      </trkpt>
      <trkpt lat="46.06524" lon="-0.40646">
        <ele>58.6</ele>
        <time>2013-03-10T11:20:01.000Z</time>
      </trkpt>
      <trkpt lat="46.06527" lon="-0.40653">
        <ele>58.5</ele>
        <time>2013-03-10T11:20:02.000Z</time>
      </trkpt>
      <trkpt lat="46.06529" lon="-0.40659">
        <ele>58.4</ele>
        <time>2013-03-10T11:20:03.000Z</time>
      </trkpt>
      <trkpt lat="46.06532" lon="-0.40666">
        <ele>58.4</ele>
        <time>2013-03-10T11:20:04.000Z</time>
      </trkpt>
      <trkpt lat="46.06534" lon="-0.40673">
        <ele>58.4</ele>
        <time>2013-03-10T11:20:05.000Z</time>
      </trkpt>
      <trkpt lat="46.06537" lon="-0.4068">
        <ele>58.4</ele>
        <time>2013-03-10T11:20:06.000Z</time>
      </trkpt>
      <trkpt lat="46.06539" lon="-0.40687">
        <ele>58.3</ele>
        <time>2013-03-10T11:20:07.000Z</time>
      </trkpt>
      <trkpt lat="46.06542" lon="-0.40694">
        <ele>58.2</ele>
        <time>2013-03-10T11:20:08.000Z</time>
      </trkpt>
      <trkpt lat="46.06544" lon="-0.40701">
        <ele>58.5</ele>
        <time>2013-03-10T11:20:09.000Z</time>
      </trkpt>
      <trkpt lat="46.06546" lon="-0.40708">
        <ele>58.7</ele>
        <time>2013-03-10T11:20:10.000Z</time>
      </trkpt>
      <trkpt lat="46.06548" lon="-0.40715">
        <ele>58.6</ele>
        <time>2013-03-10T11:20:11.000Z</time>
      </trkpt>
      <trkpt lat="46.06551" lon="-0.40722">
        <ele>58.5</ele>
        <time>2013-03-10T11:20:12.000Z</time>
      </trkpt>
      <trkpt lat="46.06554" lon="-0.4073">
        <ele>58.5</ele>
        <time>2013-03-10T11:20:13.000Z</time>
      </trkpt>
      <trkpt lat="46.06558" lon="-0.40737">
        <ele>58.5</ele>
        <time>2013-03-10T11:20:14.000Z</time>
      </trkpt>
      <trkpt lat="46.06561" lon="-0.40744">
        <ele>58.5</ele>
        <time>2013-03-10T11:20:15.000Z</time>
      </trkpt>
      <trkpt lat="46.06564" lon="-0.40752">
        <ele>58.3</ele>
        <time>2013-03-10T11:20:16.000Z</time>
      </trkpt>
      <trkpt lat="46.06567" lon="-0.40759">
        <ele>58.1</ele>
        <time>2013-03-10T11:20:17.000Z</time>
      </trkpt>
      <trkpt lat="46.0657" lon="-0.40767">
        <ele>57.9</ele>
        <time>2013-03-10T11:20:18.000Z</time>
      </trkpt>
      <trkpt lat="46.06573" lon="-0.40775">
        <ele>57.9</ele>
        <time>2013-03-10T11:20:19.000Z</time>
      </trkpt>
      <trkpt lat="46.06576" lon="-0.40783">
        <ele>57.8</ele>
        <time>2013-03-10T11:20:20.000Z</time>
      </trkpt>
      <trkpt lat="46.06579" lon="-0.4079">
        <ele>57.9</ele>
        <time>2013-03-10T11:20:21.000Z</time>
      </trkpt>
      <trkpt lat="46.06582" lon="-0.40798">
        <ele>58</ele>
        <time>2013-03-10T11:20:22.000Z</time>
      </trkpt>
      <trkpt lat="46.06586" lon="-0.40805">
        <ele>57.8</ele>
        <time>2013-03-10T11:20:23.000Z</time>
      </trkpt>
      <trkpt lat="46.06589" lon="-0.40813">
        <ele>57.6</ele>
        <time>2013-03-10T11:20:24.000Z</time>
      </trkpt>
      <trkpt lat="46.06591" lon="-0.40821">
        <ele>57.4</ele>
        <time>2013-03-10T11:20:25.000Z</time>
      </trkpt>
      <trkpt lat="46.06594" lon="-0.40829">
        <ele>56.9</ele>
        <time>2013-03-10T11:20:26.000Z</time>
      </trkpt>
      <trkpt lat="46.06596" lon="-0.40837">
        <ele>56.4</ele>
        <time>2013-03-10T11:20:27.000Z</time>
      </trkpt>
      <trkpt lat="46.06599" lon="-0.40845">
        <ele>56.4</ele>
        <time>2013-03-10T11:20:28.000Z</time>
      </trkpt>
      <trkpt lat="46.06602" lon="-0.40853">
        <ele>56.4</ele>
        <time>2013-03-10T11:20:29.000Z</time>
      </trkpt>
      <trkpt lat="46.06605" lon="-0.40861">
        <ele>56.3</ele>
        <time>2013-03-10T11:20:30.000Z</time>
      </trkpt>
      <trkpt lat="46.06609" lon="-0.40869">
        <ele>56.2</ele>
        <time>2013-03-10T11:20:31.000Z</time>
      </trkpt>
      <trkpt lat="46.06612" lon="-0.40877">
        <ele>56.1</ele>
        <time>2013-03-10T11:20:32.000Z</time>
      </trkpt>
      <trkpt lat="46.06616" lon="-0.40884">
        <ele>56.2</ele>
        <time>2013-03-10T11:20:33.000Z</time>
      </trkpt>
      <trkpt lat="46.0662" lon="-0.40892">
        <ele>56.2</ele>
        <time>2013-03-10T11:20:34.000Z</time>
      </trkpt>
      <trkpt lat="46.06625" lon="-0.409">
        <ele>56</ele>
        <time>2013-03-10T11:20:35.000Z</time>
      </trkpt>
      <trkpt lat="46.06629" lon="-0.40908">
        <ele>55.8</ele>
        <time>2013-03-10T11:20:36.000Z</time>
      </trkpt>
      <trkpt lat="46.06633" lon="-0.40915">
        <ele>55.6</ele>
        <time>2013-03-10T11:20:37.000Z</time>
      </trkpt>
      <trkpt lat="46.06637" lon="-0.40922">
        <ele>55.1</ele>
        <time>2013-03-10T11:20:38.000Z</time>
      </trkpt>
      <trkpt lat="46.06641" lon="-0.40927">
        <ele>54.7</ele>
        <time>2013-03-10T11:20:39.000Z</time>
      </trkpt>
      <trkpt lat="46.06645" lon="-0.40933">
        <ele>54.3</ele>
        <time>2013-03-10T11:20:40.000Z</time>
      </trkpt>
      <trkpt lat="46.06648" lon="-0.4094">
        <ele>54</ele>
        <time>2013-03-10T11:20:41.000Z</time>
      </trkpt>
      <trkpt lat="46.06651" lon="-0.40949">
        <ele>53.8</ele>
        <time>2013-03-10T11:20:42.000Z</time>
      </trkpt>
      <trkpt lat="46.06653" lon="-0.40957">
        <ele>53.7</ele>
        <time>2013-03-10T11:20:43.000Z</time>
      </trkpt>
      <trkpt lat="46.06655" lon="-0.40967">
        <ele>53.6</ele>
        <time>2013-03-10T11:20:44.000Z</time>
      </trkpt>
      <trkpt lat="46.06658" lon="-0.40977">
        <ele>53.1</ele>
        <time>2013-03-10T11:20:45.000Z</time>
      </trkpt>
      <trkpt lat="46.0666" lon="-0.40987">
        <ele>52.8</ele>
        <time>2013-03-10T11:20:46.000Z</time>
      </trkpt>
      <trkpt lat="46.06663" lon="-0.40997">
        <ele>52.4</ele>
        <time>2013-03-10T11:20:47.000Z</time>
      </trkpt>
      <trkpt lat="46.06665" lon="-0.41008">
        <ele>52.1</ele>
        <time>2013-03-10T11:20:48.000Z</time>
      </trkpt>
      <trkpt lat="46.06668" lon="-0.41019">
        <ele>51.2</ele>
        <time>2013-03-10T11:20:49.000Z</time>
      </trkpt>
      <trkpt lat="46.06671" lon="-0.4103">
        <ele>50.6</ele>
        <time>2013-03-10T11:20:50.000Z</time>
      </trkpt>
      <trkpt lat="46.06674" lon="-0.41041">
        <ele>50.1</ele>
        <time>2013-03-10T11:20:51.000Z</time>
      </trkpt>
      <trkpt lat="46.06677" lon="-0.41053">
        <ele>49.9</ele>
        <time>2013-03-10T11:20:52.000Z</time>
      </trkpt>
      <trkpt lat="46.0668" lon="-0.41064">
        <ele>49.7</ele>
        <time>2013-03-10T11:20:53.000Z</time>
      </trkpt>
      <trkpt lat="46.06683" lon="-0.41076">
        <ele>49.6</ele>
        <time>2013-03-10T11:20:54.000Z</time>
      </trkpt>
      <trkpt lat="46.06687" lon="-0.41088">
        <ele>49.6</ele>
        <time>2013-03-10T11:20:55.000Z</time>
      </trkpt>
      <trkpt lat="46.0669" lon="-0.411">
        <ele>49.5</ele>
        <time>2013-03-10T11:20:56.000Z</time>
      </trkpt>
      <trkpt lat="46.06693" lon="-0.41112">
        <ele>48.8</ele>
        <time>2013-03-10T11:20:57.000Z</time>
      </trkpt>
      <trkpt lat="46.06696" lon="-0.41125">
        <ele>48.2</ele>
        <time>2013-03-10T11:20:58.000Z</time>
      </trkpt>
      <trkpt lat="46.06699" lon="-0.41137">
        <ele>47.3</ele>
        <time>2013-03-10T11:20:59.000Z</time>
      </trkpt>
      <trkpt lat="46.06703" lon="-0.41149">
        <ele>46.6</ele>
        <time>2013-03-10T11:21:00.000Z</time>
      </trkpt>
      <trkpt lat="46.06707" lon="-0.4116">
        <ele>45.8</ele>
        <time>2013-03-10T11:21:01.000Z</time>
      </trkpt>
      <trkpt lat="46.0671" lon="-0.41171">
        <ele>45.2</ele>
        <time>2013-03-10T11:21:02.000Z</time>
      </trkpt>
      <trkpt lat="46.06713" lon="-0.41182">
        <ele>44.8</ele>
        <time>2013-03-10T11:21:03.000Z</time>
      </trkpt>
      <trkpt lat="46.06717" lon="-0.41193">
        <ele>44</ele>
        <time>2013-03-10T11:21:04.000Z</time>
      </trkpt>
      <trkpt lat="46.0672" lon="-0.41204">
        <ele>43.5</ele>
        <time>2013-03-10T11:21:05.000Z</time>
      </trkpt>
      <trkpt lat="46.06724" lon="-0.41215">
        <ele>42.5</ele>
        <time>2013-03-10T11:21:06.000Z</time>
      </trkpt>
      <trkpt lat="46.06727" lon="-0.41225">
        <ele>41.7</ele>
        <time>2013-03-10T11:21:07.000Z</time>
      </trkpt>
      <trkpt lat="46.0673" lon="-0.41234">
        <ele>40.6</ele>
        <time>2013-03-10T11:21:08.000Z</time>
      </trkpt>
      <trkpt lat="46.06734" lon="-0.41241">
        <ele>39.8</ele>
        <time>2013-03-10T11:21:09.000Z</time>
      </trkpt>
      <trkpt lat="46.06739" lon="-0.41246">
        <ele>39.1</ele>
        <time>2013-03-10T11:21:10.000Z</time>
      </trkpt>
      <trkpt lat="46.06743" lon="-0.4125">
        <ele>37.9</ele>
        <time>2013-03-10T11:21:11.000Z</time>
      </trkpt>
      <trkpt lat="46.06747" lon="-0.41254">
        <ele>37</ele>
        <time>2013-03-10T11:21:12.000Z</time>
      </trkpt>
      <trkpt lat="46.06751" lon="-0.41259">
        <ele>35.8</ele>
        <time>2013-03-10T11:21:13.000Z</time>
      </trkpt>
      <trkpt lat="46.06754" lon="-0.41265">
        <ele>34.9</ele>
        <time>2013-03-10T11:21:14.000Z</time>
      </trkpt>
      <trkpt lat="46.06757" lon="-0.41272">
        <ele>34.2</ele>
        <time>2013-03-10T11:21:15.000Z</time>
      </trkpt>
      <trkpt lat="46.0676" lon="-0.4128">
        <ele>33.6</ele>
        <time>2013-03-10T11:21:16.000Z</time>
      </trkpt>
      <trkpt lat="46.06763" lon="-0.41289">
        <ele>33.2</ele>
        <time>2013-03-10T11:21:17.000Z</time>
      </trkpt>
      <trkpt lat="46.06766" lon="-0.41299">
        <ele>32.8</ele>
        <time>2013-03-10T11:21:18.000Z</time>
      </trkpt>
      <trkpt lat="46.06769" lon="-0.41309">
        <ele>32.6</ele>
        <time>2013-03-10T11:21:19.000Z</time>
      </trkpt>
      <trkpt lat="46.06773" lon="-0.41319">
        <ele>31.8</ele>
        <time>2013-03-10T11:21:20.000Z</time>
      </trkpt>
      <trkpt lat="46.06775" lon="-0.41329">
        <ele>31.3</ele>
        <time>2013-03-10T11:21:21.000Z</time>
      </trkpt>
      <trkpt lat="46.06777" lon="-0.41339">
        <ele>30.9</ele>
        <time>2013-03-10T11:21:22.000Z</time>
      </trkpt>
      <trkpt lat="46.06776" lon="-0.41349">
        <ele>30.1</ele>
        <time>2013-03-10T11:21:23.000Z</time>
      </trkpt>
      <trkpt lat="46.06773" lon="-0.41358">
        <ele>29.6</ele>
        <time>2013-03-10T11:21:24.000Z</time>
      </trkpt>
      <trkpt lat="46.06768" lon="-0.41364">
        <ele>29.1</ele>
        <time>2013-03-10T11:21:25.000Z</time>
      </trkpt>
      <trkpt lat="46.06762" lon="-0.4137">
        <ele>28.7</ele>
        <time>2013-03-10T11:21:26.000Z</time>
      </trkpt>
      <trkpt lat="46.06756" lon="-0.41377">
        <ele>28.3</ele>
        <time>2013-03-10T11:21:27.000Z</time>
      </trkpt>
      <trkpt lat="46.06751" lon="-0.41383">
        <ele>28</ele>
        <time>2013-03-10T11:21:28.000Z</time>
      </trkpt>
      <trkpt lat="46.06746" lon="-0.4139">
        <ele>27.8</ele>
        <time>2013-03-10T11:21:29.000Z</time>
      </trkpt>
      <trkpt lat="46.06741" lon="-0.41397">
        <ele>27.2</ele>
        <time>2013-03-10T11:21:30.000Z</time>
      </trkpt>
      <trkpt lat="46.06736" lon="-0.41404">
        <ele>26.7</ele>
        <time>2013-03-10T11:21:31.000Z</time>
      </trkpt>
      <trkpt lat="46.06732" lon="-0.41411">
        <ele>26.7</ele>
        <time>2013-03-10T11:21:32.000Z</time>
      </trkpt>
      <trkpt lat="46.06727" lon="-0.41417">
        <ele>26.7</ele>
        <time>2013-03-10T11:21:33.000Z</time>
      </trkpt>
      <trkpt lat="46.06721" lon="-0.41421">
        <ele>26.6</ele>
        <time>2013-03-10T11:21:34.000Z</time>
      </trkpt>
      <trkpt lat="46.06716" lon="-0.41425">
        <ele>26.6</ele>
        <time>2013-03-10T11:21:35.000Z</time>
      </trkpt>
      <trkpt lat="46.06711" lon="-0.41428">
        <ele>26.5</ele>
        <time>2013-03-10T11:21:36.000Z</time>
      </trkpt>
      <trkpt lat="46.06706" lon="-0.41431">
        <ele>26.3</ele>
        <time>2013-03-10T11:21:37.000Z</time>
      </trkpt>
      <trkpt lat="46.06699" lon="-0.41436">
        <ele>25.8</ele>
        <time>2013-03-10T11:21:39.000Z</time>
      </trkpt>
      <trkpt lat="46.06693" lon="-0.41441">
        <ele>25.4</ele>
        <time>2013-03-10T11:21:43.000Z</time>
      </trkpt>
      <trkpt lat="46.06691" lon="-0.41443">
        <ele>25.2</ele>
        <time>2013-03-10T11:21:44.000Z</time>
      </trkpt>
      <trkpt lat="46.0668" lon="-0.41449">
        <ele>24.7</ele>
        <time>2013-03-10T11:21:47.000Z</time>
      </trkpt>
      <trkpt lat="46.06676" lon="-0.41451">
        <ele>24.6</ele>
        <time>2013-03-10T11:21:48.000Z</time>
      </trkpt>
      <trkpt lat="46.06671" lon="-0.41452">
        <ele>25</ele>
        <time>2013-03-10T11:21:49.000Z</time>
      </trkpt>
      <trkpt lat="46.06666" lon="-0.41454">
        <ele>25.4</ele>
        <time>2013-03-10T11:21:50.000Z</time>
      </trkpt>
      <trkpt lat="46.06661" lon="-0.41453">
        <ele>25.3</ele>
        <time>2013-03-10T11:21:51.000Z</time>
      </trkpt>
      <trkpt lat="46.06657" lon="-0.4145">
        <ele>25.2</ele>
        <time>2013-03-10T11:21:52.000Z</time>
      </trkpt>
      <trkpt lat="46.06653" lon="-0.41444">
        <ele>25.1</ele>
        <time>2013-03-10T11:21:53.000Z</time>
      </trkpt>
      <trkpt lat="46.06651" lon="-0.41438">
        <ele>25.3</ele>
        <time>2013-03-10T11:21:54.000Z</time>
      </trkpt>
      <trkpt lat="46.06649" lon="-0.41432">
        <ele>25.4</ele>
        <time>2013-03-10T11:21:55.000Z</time>
      </trkpt>
      <trkpt lat="46.06646" lon="-0.41426">
        <ele>25.5</ele>
        <time>2013-03-10T11:21:56.000Z</time>
      </trkpt>
      <trkpt lat="46.06643" lon="-0.4142">
        <ele>25.6</ele>
        <time>2013-03-10T11:21:57.000Z</time>
      </trkpt>
      <trkpt lat="46.0664" lon="-0.41414">
        <ele>25.8</ele>
        <time>2013-03-10T11:21:58.000Z</time>
      </trkpt>
      <trkpt lat="46.06636" lon="-0.41408">
        <ele>26</ele>
        <time>2013-03-10T11:21:59.000Z</time>
      </trkpt>
      <trkpt lat="46.06633" lon="-0.41403">
        <ele>26.1</ele>
        <time>2013-03-10T11:22:00.000Z</time>
      </trkpt>
      <trkpt lat="46.06629" lon="-0.41397">
        <ele>26.5</ele>
        <time>2013-03-10T11:22:01.000Z</time>
      </trkpt>
      <trkpt lat="46.06626" lon="-0.41392">
        <ele>26.8</ele>
        <time>2013-03-10T11:22:02.000Z</time>
      </trkpt>
      <trkpt lat="46.06623" lon="-0.41386">
        <ele>26.9</ele>
        <time>2013-03-10T11:22:03.000Z</time>
      </trkpt>
      <trkpt lat="46.0662" lon="-0.41381">
        <ele>27.1</ele>
        <time>2013-03-10T11:22:04.000Z</time>
      </trkpt>
      <trkpt lat="46.06617" lon="-0.41376">
        <ele>27.6</ele>
        <time>2013-03-10T11:22:05.000Z</time>
      </trkpt>
      <trkpt lat="46.06613" lon="-0.4137">
        <ele>27.9</ele>
        <time>2013-03-10T11:22:06.000Z</time>
      </trkpt>
      <trkpt lat="46.0661" lon="-0.41365">
        <ele>28.2</ele>
        <time>2013-03-10T11:22:07.000Z</time>
      </trkpt>
      <trkpt lat="46.06607" lon="-0.4136">
        <ele>28.6</ele>
        <time>2013-03-10T11:22:08.000Z</time>
      </trkpt>
      <trkpt lat="46.06603" lon="-0.41357">
        <ele>28.8</ele>
        <time>2013-03-10T11:22:09.000Z</time>
      </trkpt>
      <trkpt lat="46.06594" lon="-0.41355">
        <ele>29.3</ele>
        <time>2013-03-10T11:22:11.000Z</time>
      </trkpt>
      <trkpt lat="46.06587" lon="-0.41358">
        <ele>29.9</ele>
        <time>2013-03-10T11:22:13.000Z</time>
      </trkpt>
      <trkpt lat="46.0658" lon="-0.41362">
        <ele>30.5</ele>
        <time>2013-03-10T11:22:15.000Z</time>
      </trkpt>
      <trkpt lat="46.06573" lon="-0.4136">
        <ele>31.1</ele>
        <time>2013-03-10T11:22:17.000Z</time>
      </trkpt>
      <trkpt lat="46.06572" lon="-0.41351">
        <ele>31.5</ele>
        <time>2013-03-10T11:22:19.000Z</time>
      </trkpt>
      <trkpt lat="46.06575" lon="-0.41343">
        <ele>32.2</ele>
        <time>2013-03-10T11:22:21.000Z</time>
      </trkpt>
      <trkpt lat="46.06577" lon="-0.41335">
        <ele>32.6</ele>
        <time>2013-03-10T11:22:23.000Z</time>
      </trkpt>
      <trkpt lat="46.06581" lon="-0.41323">
        <ele>32.7</ele>
        <time>2013-03-10T11:22:26.000Z</time>
      </trkpt>
      <trkpt lat="46.06584" lon="-0.41312">
        <ele>34.1</ele>
        <time>2013-03-10T11:22:29.000Z</time>
      </trkpt>
      <trkpt lat="46.06587" lon="-0.413">
        <ele>34.6</ele>
        <time>2013-03-10T11:22:32.000Z</time>
      </trkpt>
      <trkpt lat="46.06591" lon="-0.41288">
        <ele>34.7</ele>
        <time>2013-03-10T11:22:35.000Z</time>
      </trkpt>
      <trkpt lat="46.06595" lon="-0.41278">
        <ele>35.7</ele>
        <time>2013-03-10T11:22:38.000Z</time>
      </trkpt>
      <trkpt lat="46.06601" lon="-0.41269">
        <ele>36.4</ele>
        <time>2013-03-10T11:22:41.000Z</time>
      </trkpt>
      <trkpt lat="46.06607" lon="-0.41262">
        <ele>37</ele>
        <time>2013-03-10T11:22:44.000Z</time>
      </trkpt>
      <trkpt lat="46.06609" lon="-0.4126">
        <ele>37.1</ele>
        <time>2013-03-10T11:22:45.000Z</time>
      </trkpt>
      <trkpt lat="46.06619" lon="-0.4127">
        <ele>37.8</ele>
        <time>2013-03-10T11:22:51.000Z</time>
      </trkpt>
      <trkpt lat="46.06623" lon="-0.41281">
        <ele>37.5</ele>
        <time>2013-03-10T11:22:54.000Z</time>
      </trkpt>
      <trkpt lat="46.06627" lon="-0.41289">
        <ele>37.5</ele>
        <time>2013-03-10T11:22:56.000Z</time>
      </trkpt>
      <trkpt lat="46.06632" lon="-0.41296">
        <ele>37.2</ele>
        <time>2013-03-10T11:22:58.000Z</time>
      </trkpt>
      <trkpt lat="46.0664" lon="-0.41298">
        <ele>37</ele>
        <time>2013-03-10T11:23:00.000Z</time>
      </trkpt>
      <trkpt lat="46.06646" lon="-0.41294">
        <ele>37.1</ele>
        <time>2013-03-10T11:23:02.000Z</time>
      </trkpt>
      <trkpt lat="46.06652" lon="-0.41288">
        <ele>37.4</ele>
        <time>2013-03-10T11:23:04.000Z</time>
      </trkpt>
      <trkpt lat="46.06658" lon="-0.41281">
        <ele>37.1</ele>
        <time>2013-03-10T11:23:07.000Z</time>
      </trkpt>
      <trkpt lat="46.06665" lon="-0.41272">
        <ele>38.2</ele>
        <time>2013-03-10T11:23:40.000Z</time>
      </trkpt>
      <trkpt lat="46.06668" lon="-0.41272">
        <ele>39.9</ele>
        <time>2013-03-10T11:26:43.000Z</time>
      </trkpt>
      <trkpt lat="46.06669" lon="-0.41272">
        <ele>40.3</ele>
        <time>2013-03-10T11:26:53.000Z</time>
      </trkpt>
    </trkseg>
  </trk>
</gpx>